<?xml version="1.0" encoding="UTF-8" standalone="no" ?>
<gpx xmlns="http://www.topografix.com/GPX/1/1" xmlns:xsi="http://www.w3.org/2001/XMLSchema-instance" xsi:schemaLocation="http://www.topografix.com/GPX/1/1 http://www.topografix.com/GPX/1/1/gpx.xsd" version="1.1" creator="VisuGPX - https://www.visugpx.com">
  <metadata>
    <name>VOIE d'ARLES , GR653 : Etape du BOUSQUET à ST-GERVAIS-sur-MARE</name>
    <desc><![CDATA[28 mai 2023 : Etape n°6  du Chemin de Compostelle dit Voie d'Arles ou VIA TOLOSONA.
2-ème Etape la plus dure , par la longueur et les dénivellés.
Etape ou l'on serpente , sur des pistes forestières, en altitude , en passant par de nombreux cols  , et souvent en FORET (de sapins)  , avantage : l' ombre , 
inconvénient : on ne voit que des arbres. , et très rarement un beau panorama sur les Monts d' ORB. 
L'étape se termine par une descente pénible , mais courte sur ST-GERVAIS;
Ou il vaut mieux arriver tôt l'après-midi , et en semaine, si l'on veut faire la visite des 2 petites curiosités touristiques, ou profiter de commerces ouverts. 
Notre récit complet avec photos : [url]http://www.chabant.fr[/url] ]]></desc>
  </metadata>
  <trk>
    <name><![CDATA[Le Bousquet-d'Orb Course à pied]]></name>
    <extensions>
      <line xmlns="http://www.topografix.com/GPX/gpx_style/0/2">
        <color>0000FF</color>
        <width>4</width>
      </line>
    </extensions>
    <trkseg>
      <trkpt lat="43.7024" lon="3.1568">
        <ele>342</ele>
        <time>2023-05-28T04:19:40.000Z</time>
      </trkpt>
      <trkpt lat="43.70241" lon="3.15676">
        <ele>341.79998779297</ele>
        <time>2023-05-28T04:19:48.000Z</time>
      </trkpt>
      <trkpt lat="43.70243" lon="3.15672">
        <ele>342.60000610352</ele>
        <time>2023-05-28T04:19:54.000Z</time>
      </trkpt>
      <trkpt lat="43.70245" lon="3.15664">
        <ele>343</ele>
        <time>2023-05-28T04:20:01.000Z</time>
      </trkpt>
      <trkpt lat="43.70245" lon="3.15664">
        <ele>343.20001220703</ele>
        <time>2023-05-28T04:20:03.000Z</time>
      </trkpt>
      <trkpt lat="43.70245" lon="3.15662">
        <ele>343.60000610352</ele>
        <time>2023-05-28T04:20:08.000Z</time>
      </trkpt>
      <trkpt lat="43.70245" lon="3.15658">
        <ele>343.79998779297</ele>
        <time>2023-05-28T04:20:13.000Z</time>
      </trkpt>
      <trkpt lat="43.7025" lon="3.15653">
        <ele>344.20001220703</ele>
        <time>2023-05-28T04:20:20.000Z</time>
      </trkpt>
      <trkpt lat="43.70252" lon="3.15654">
        <ele>344.39999389648</ele>
        <time>2023-05-28T04:20:22.000Z</time>
      </trkpt>
      <trkpt lat="43.7026" lon="3.15654">
        <ele>345</ele>
        <time>2023-05-28T04:20:30.000Z</time>
      </trkpt>
      <trkpt lat="43.70261" lon="3.15654">
        <ele>345.20001220703</ele>
        <time>2023-05-28T04:20:32.000Z</time>
      </trkpt>
      <trkpt lat="43.70262" lon="3.15651">
        <ele>345.60000610352</ele>
        <time>2023-05-28T04:20:35.000Z</time>
      </trkpt>
      <trkpt lat="43.70262" lon="3.15648">
        <ele>346</ele>
        <time>2023-05-28T04:20:38.000Z</time>
      </trkpt>
      <trkpt lat="43.70261" lon="3.15645">
        <ele>346.39999389648</ele>
        <time>2023-05-28T04:20:41.000Z</time>
      </trkpt>
      <trkpt lat="43.70261" lon="3.15642">
        <ele>346.60000610352</ele>
        <time>2023-05-28T04:20:45.000Z</time>
      </trkpt>
      <trkpt lat="43.70262" lon="3.15635">
        <ele>347.20001220703</ele>
        <time>2023-05-28T04:20:52.000Z</time>
      </trkpt>
      <trkpt lat="43.70262" lon="3.15634">
        <ele>347.39999389648</ele>
        <time>2023-05-28T04:20:55.000Z</time>
      </trkpt>
      <trkpt lat="43.70261" lon="3.15633">
        <ele>347.20001220703</ele>
        <time>2023-05-28T04:20:59.000Z</time>
      </trkpt>
      <trkpt lat="43.70261" lon="3.15633">
        <ele>347.20001220703</ele>
        <time>2023-05-28T04:21:07.000Z</time>
      </trkpt>
      <trkpt lat="43.70255" lon="3.15631">
        <ele>347</ele>
        <time>2023-05-28T04:21:16.000Z</time>
      </trkpt>
      <trkpt lat="43.70253" lon="3.15624">
        <ele>347.39999389648</ele>
        <time>2023-05-28T04:21:22.000Z</time>
      </trkpt>
      <trkpt lat="43.70254" lon="3.15621">
        <ele>347.60000610352</ele>
        <time>2023-05-28T04:21:24.000Z</time>
      </trkpt>
      <trkpt lat="43.70255" lon="3.15621">
        <ele>347.79998779297</ele>
        <time>2023-05-28T04:21:27.000Z</time>
      </trkpt>
      <trkpt lat="43.70257" lon="3.1562">
        <ele>348</ele>
        <time>2023-05-28T04:21:29.000Z</time>
      </trkpt>
      <trkpt lat="43.7026" lon="3.15622">
        <ele>348.39999389648</ele>
        <time>2023-05-28T04:21:35.000Z</time>
      </trkpt>
      <trkpt lat="43.70261" lon="3.15623">
        <ele>348.60000610352</ele>
        <time>2023-05-28T04:21:36.000Z</time>
      </trkpt>
      <trkpt lat="43.70263" lon="3.1562">
        <ele>349</ele>
        <time>2023-05-28T04:21:40.000Z</time>
      </trkpt>
      <trkpt lat="43.70265" lon="3.15614">
        <ele>349.60000610352</ele>
        <time>2023-05-28T04:21:46.000Z</time>
      </trkpt>
      <trkpt lat="43.70265" lon="3.15613">
        <ele>349.79998779297</ele>
        <time>2023-05-28T04:21:47.000Z</time>
      </trkpt>
      <trkpt lat="43.70267" lon="3.15609">
        <ele>350.20001220703</ele>
        <time>2023-05-28T04:21:51.000Z</time>
      </trkpt>
      <trkpt lat="43.70269" lon="3.15607">
        <ele>350.79998779297</ele>
        <time>2023-05-28T04:21:54.000Z</time>
      </trkpt>
      <trkpt lat="43.70269" lon="3.15606">
        <ele>351</ele>
        <time>2023-05-28T04:21:55.000Z</time>
      </trkpt>
      <trkpt lat="43.70272" lon="3.15606">
        <ele>351.79998779297</ele>
        <time>2023-05-28T04:21:59.000Z</time>
      </trkpt>
      <trkpt lat="43.70274" lon="3.15606">
        <ele>352.20001220703</ele>
        <time>2023-05-28T04:22:02.000Z</time>
      </trkpt>
      <trkpt lat="43.70277" lon="3.15601">
        <ele>352.79998779297</ele>
        <time>2023-05-28T04:22:08.000Z</time>
      </trkpt>
      <trkpt lat="43.70277" lon="3.156">
        <ele>352.79998779297</ele>
        <time>2023-05-28T04:22:09.000Z</time>
      </trkpt>
      <trkpt lat="43.70281" lon="3.15594">
        <ele>353.60000610352</ele>
        <time>2023-05-28T04:22:16.000Z</time>
      </trkpt>
      <trkpt lat="43.70283" lon="3.15592">
        <ele>354</ele>
        <time>2023-05-28T04:22:19.000Z</time>
      </trkpt>
      <trkpt lat="43.70283" lon="3.15588">
        <ele>354.79998779297</ele>
        <time>2023-05-28T04:22:25.000Z</time>
      </trkpt>
      <trkpt lat="43.70283" lon="3.15587">
        <ele>355.20001220703</ele>
        <time>2023-05-28T04:22:27.000Z</time>
      </trkpt>
      <trkpt lat="43.70282" lon="3.15582">
        <ele>355.39999389648</ele>
        <time>2023-05-28T04:22:33.000Z</time>
      </trkpt>
      <trkpt lat="43.70281" lon="3.15577">
        <ele>356</ele>
        <time>2023-05-28T04:22:39.000Z</time>
      </trkpt>
      <trkpt lat="43.70282" lon="3.15576">
        <ele>356.20001220703</ele>
        <time>2023-05-28T04:22:40.000Z</time>
      </trkpt>
      <trkpt lat="43.70283" lon="3.15572">
        <ele>356.79998779297</ele>
        <time>2023-05-28T04:22:46.000Z</time>
      </trkpt>
      <trkpt lat="43.70283" lon="3.15568">
        <ele>357.20001220703</ele>
        <time>2023-05-28T04:22:50.000Z</time>
      </trkpt>
      <trkpt lat="43.70282" lon="3.15566">
        <ele>357.39999389648</ele>
        <time>2023-05-28T04:22:52.000Z</time>
      </trkpt>
      <trkpt lat="43.70278" lon="3.15561">
        <ele>358</ele>
        <time>2023-05-28T04:23:00.000Z</time>
      </trkpt>
      <trkpt lat="43.70278" lon="3.15557">
        <ele>358.20001220703</ele>
        <time>2023-05-28T04:23:04.000Z</time>
      </trkpt>
      <trkpt lat="43.70278" lon="3.15558">
        <ele>358.60000610352</ele>
        <time>2023-05-28T04:23:07.000Z</time>
      </trkpt>
      <trkpt lat="43.70281" lon="3.15553">
        <ele>358.79998779297</ele>
        <time>2023-05-28T04:23:14.000Z</time>
      </trkpt>
      <trkpt lat="43.70282" lon="3.15552">
        <ele>359.20001220703</ele>
        <time>2023-05-28T04:23:20.000Z</time>
      </trkpt>
      <trkpt lat="43.70284" lon="3.1555">
        <ele>359.39999389648</ele>
        <time>2023-05-28T04:23:25.000Z</time>
      </trkpt>
      <trkpt lat="43.70284" lon="3.1555">
        <ele>359.39999389648</ele>
        <time>2023-05-28T04:23:26.000Z</time>
      </trkpt>
      <trkpt lat="43.70287" lon="3.15547">
        <ele>360</ele>
        <time>2023-05-28T04:23:34.000Z</time>
      </trkpt>
      <trkpt lat="43.70285" lon="3.15547">
        <ele>360.39999389648</ele>
        <time>2023-05-28T04:23:38.000Z</time>
      </trkpt>
      <trkpt lat="43.70287" lon="3.15544">
        <ele>360.79998779297</ele>
        <time>2023-05-28T04:23:42.000Z</time>
      </trkpt>
      <trkpt lat="43.70288" lon="3.15542">
        <ele>361.39999389648</ele>
        <time>2023-05-28T04:23:48.000Z</time>
      </trkpt>
      <trkpt lat="43.70288" lon="3.15542">
        <ele>361.39999389648</ele>
        <time>2023-05-28T04:23:49.000Z</time>
      </trkpt>
      <trkpt lat="43.70291" lon="3.15539">
        <ele>362.20001220703</ele>
        <time>2023-05-28T04:23:55.000Z</time>
      </trkpt>
      <trkpt lat="43.70292" lon="3.15538">
        <ele>362.39999389648</ele>
        <time>2023-05-28T04:23:57.000Z</time>
      </trkpt>
      <trkpt lat="43.70293" lon="3.15538">
        <ele>362.79998779297</ele>
        <time>2023-05-28T04:24:01.000Z</time>
      </trkpt>
      <trkpt lat="43.70291" lon="3.15536">
        <ele>363.60000610352</ele>
        <time>2023-05-28T04:24:07.000Z</time>
      </trkpt>
      <trkpt lat="43.7029" lon="3.15534">
        <ele>364.20001220703</ele>
        <time>2023-05-28T04:24:13.000Z</time>
      </trkpt>
      <trkpt lat="43.70291" lon="3.15535">
        <ele>364.60000610352</ele>
        <time>2023-05-28T04:24:17.000Z</time>
      </trkpt>
      <trkpt lat="43.70295" lon="3.15526">
        <ele>365.20001220703</ele>
        <time>2023-05-28T04:24:21.000Z</time>
      </trkpt>
      <trkpt lat="43.70296" lon="3.15524">
        <ele>365.79998779297</ele>
        <time>2023-05-28T04:24:24.000Z</time>
      </trkpt>
      <trkpt lat="43.70297" lon="3.15522">
        <ele>366.39999389648</ele>
        <time>2023-05-28T04:24:29.000Z</time>
      </trkpt>
      <trkpt lat="43.70297" lon="3.15521">
        <ele>366.79998779297</ele>
        <time>2023-05-28T04:24:33.000Z</time>
      </trkpt>
      <trkpt lat="43.70296" lon="3.15518">
        <ele>367</ele>
        <time>2023-05-28T04:24:36.000Z</time>
      </trkpt>
      <trkpt lat="43.70296" lon="3.15513">
        <ele>367.60000610352</ele>
        <time>2023-05-28T04:24:43.000Z</time>
      </trkpt>
      <trkpt lat="43.70295" lon="3.15512">
        <ele>367.79998779297</ele>
        <time>2023-05-28T04:24:47.000Z</time>
      </trkpt>
      <trkpt lat="43.70295" lon="3.15511">
        <ele>367.79998779297</ele>
        <time>2023-05-28T04:24:49.000Z</time>
      </trkpt>
      <trkpt lat="43.70294" lon="3.15509">
        <ele>368.60000610352</ele>
        <time>2023-05-28T04:24:56.000Z</time>
      </trkpt>
      <trkpt lat="43.70294" lon="3.15505">
        <ele>368.79998779297</ele>
        <time>2023-05-28T04:25:03.000Z</time>
      </trkpt>
      <trkpt lat="43.70294" lon="3.15504">
        <ele>368.79998779297</ele>
        <time>2023-05-28T04:25:06.000Z</time>
      </trkpt>
      <trkpt lat="43.70294" lon="3.15501">
        <ele>369</ele>
        <time>2023-05-28T04:25:11.000Z</time>
      </trkpt>
      <trkpt lat="43.70294" lon="3.15498">
        <ele>369.39999389648</ele>
        <time>2023-05-28T04:25:17.000Z</time>
      </trkpt>
      <trkpt lat="43.70292" lon="3.15496">
        <ele>370</ele>
        <time>2023-05-28T04:25:21.000Z</time>
      </trkpt>
      <trkpt lat="43.7029" lon="3.15492">
        <ele>370.60000610352</ele>
        <time>2023-05-28T04:25:25.000Z</time>
      </trkpt>
      <trkpt lat="43.70289" lon="3.15489">
        <ele>370.79998779297</ele>
        <time>2023-05-28T04:25:31.000Z</time>
      </trkpt>
      <trkpt lat="43.70289" lon="3.15484">
        <ele>370.79998779297</ele>
        <time>2023-05-28T04:25:38.000Z</time>
      </trkpt>
      <trkpt lat="43.70288" lon="3.15482">
        <ele>371</ele>
        <time>2023-05-28T04:25:42.000Z</time>
      </trkpt>
      <trkpt lat="43.70288" lon="3.15478">
        <ele>371.20001220703</ele>
        <time>2023-05-28T04:25:44.000Z</time>
      </trkpt>
      <trkpt lat="43.70288" lon="3.15477">
        <ele>371.79998779297</ele>
        <time>2023-05-28T04:25:51.000Z</time>
      </trkpt>
      <trkpt lat="43.70288" lon="3.15475">
        <ele>372</ele>
        <time>2023-05-28T04:25:54.000Z</time>
      </trkpt>
      <trkpt lat="43.70286" lon="3.15473">
        <ele>372.39999389648</ele>
        <time>2023-05-28T04:25:58.000Z</time>
      </trkpt>
      <trkpt lat="43.70284" lon="3.15463">
        <ele>373</ele>
        <time>2023-05-28T04:26:07.000Z</time>
      </trkpt>
      <trkpt lat="43.70284" lon="3.15463">
        <ele>373</ele>
        <time>2023-05-28T04:26:08.000Z</time>
      </trkpt>
      <trkpt lat="43.70283" lon="3.15459">
        <ele>373.39999389648</ele>
        <time>2023-05-28T04:26:13.000Z</time>
      </trkpt>
      <trkpt lat="43.70282" lon="3.15456">
        <ele>374</ele>
        <time>2023-05-28T04:26:20.000Z</time>
      </trkpt>
      <trkpt lat="43.70279" lon="3.15451">
        <ele>375</ele>
        <time>2023-05-28T04:26:28.000Z</time>
      </trkpt>
      <trkpt lat="43.70279" lon="3.15451">
        <ele>375.20001220703</ele>
        <time>2023-05-28T04:26:29.000Z</time>
      </trkpt>
      <trkpt lat="43.70277" lon="3.15446">
        <ele>375.79998779297</ele>
        <time>2023-05-28T04:26:39.000Z</time>
      </trkpt>
      <trkpt lat="43.70277" lon="3.15443">
        <ele>376.20001220703</ele>
        <time>2023-05-28T04:26:42.000Z</time>
      </trkpt>
      <trkpt lat="43.70276" lon="3.15442">
        <ele>377</ele>
        <time>2023-05-28T04:26:46.000Z</time>
      </trkpt>
      <trkpt lat="43.70276" lon="3.15439">
        <ele>377</ele>
        <time>2023-05-28T04:26:56.000Z</time>
      </trkpt>
      <trkpt lat="43.70276" lon="3.15437">
        <ele>377.20001220703</ele>
        <time>2023-05-28T04:27:00.000Z</time>
      </trkpt>
      <trkpt lat="43.70276" lon="3.15436">
        <ele>377.60000610352</ele>
        <time>2023-05-28T04:27:02.000Z</time>
      </trkpt>
      <trkpt lat="43.70274" lon="3.15435">
        <ele>378.39999389648</ele>
        <time>2023-05-28T04:27:10.000Z</time>
      </trkpt>
      <trkpt lat="43.70277" lon="3.15428">
        <ele>379.20001220703</ele>
        <time>2023-05-28T04:27:19.000Z</time>
      </trkpt>
      <trkpt lat="43.70277" lon="3.1543">
        <ele>379.39999389648</ele>
        <time>2023-05-28T04:27:20.000Z</time>
      </trkpt>
      <trkpt lat="43.70272" lon="3.15426">
        <ele>379.79998779297</ele>
        <time>2023-05-28T04:27:26.000Z</time>
      </trkpt>
      <trkpt lat="43.70271" lon="3.1542">
        <ele>380.20001220703</ele>
        <time>2023-05-28T04:27:32.000Z</time>
      </trkpt>
      <trkpt lat="43.7027" lon="3.15417">
        <ele>380.39999389648</ele>
        <time>2023-05-28T04:27:37.000Z</time>
      </trkpt>
      <trkpt lat="43.70269" lon="3.15414">
        <ele>380.39999389648</ele>
        <time>2023-05-28T04:27:40.000Z</time>
      </trkpt>
      <trkpt lat="43.70267" lon="3.15409">
        <ele>381.20001220703</ele>
        <time>2023-05-28T04:27:47.000Z</time>
      </trkpt>
      <trkpt lat="43.70267" lon="3.15409">
        <ele>381.39999389648</ele>
        <time>2023-05-28T04:27:50.000Z</time>
      </trkpt>
      <trkpt lat="43.70266" lon="3.15406">
        <ele>381.60000610352</ele>
        <time>2023-05-28T04:27:54.000Z</time>
      </trkpt>
      <trkpt lat="43.70265" lon="3.15404">
        <ele>382.39999389648</ele>
        <time>2023-05-28T04:28:01.000Z</time>
      </trkpt>
      <trkpt lat="43.70265" lon="3.15402">
        <ele>382.60000610352</ele>
        <time>2023-05-28T04:28:05.000Z</time>
      </trkpt>
      <trkpt lat="43.70265" lon="3.15403">
        <ele>382.79998779297</ele>
        <time>2023-05-28T04:28:07.000Z</time>
      </trkpt>
      <trkpt lat="43.70262" lon="3.15397">
        <ele>383.20001220703</ele>
        <time>2023-05-28T04:28:14.000Z</time>
      </trkpt>
      <trkpt lat="43.70261" lon="3.15394">
        <ele>383.60000610352</ele>
        <time>2023-05-28T04:28:20.000Z</time>
      </trkpt>
      <trkpt lat="43.70261" lon="3.15393">
        <ele>383.60000610352</ele>
        <time>2023-05-28T04:28:21.000Z</time>
      </trkpt>
      <trkpt lat="43.70256" lon="3.15387">
        <ele>383.39999389648</ele>
        <time>2023-05-28T04:28:30.000Z</time>
      </trkpt>
      <trkpt lat="43.70254" lon="3.15384">
        <ele>383.20001220703</ele>
        <time>2023-05-28T04:28:36.000Z</time>
      </trkpt>
      <trkpt lat="43.7025" lon="3.1538">
        <ele>382.79998779297</ele>
        <time>2023-05-28T04:28:43.000Z</time>
      </trkpt>
      <trkpt lat="43.70246" lon="3.15376">
        <ele>382.39999389648</ele>
        <time>2023-05-28T04:28:49.000Z</time>
      </trkpt>
      <trkpt lat="43.70244" lon="3.15375">
        <ele>382.39999389648</ele>
        <time>2023-05-28T04:28:51.000Z</time>
      </trkpt>
      <trkpt lat="43.70238" lon="3.1537">
        <ele>382</ele>
        <time>2023-05-28T04:29:00.000Z</time>
      </trkpt>
      <trkpt lat="43.70234" lon="3.15366">
        <ele>381.60000610352</ele>
        <time>2023-05-28T04:29:06.000Z</time>
      </trkpt>
      <trkpt lat="43.70234" lon="3.15366">
        <ele>381.39999389648</ele>
        <time>2023-05-28T04:29:07.000Z</time>
      </trkpt>
      <trkpt lat="43.70233" lon="3.15361">
        <ele>381.20001220703</ele>
        <time>2023-05-28T04:29:12.000Z</time>
      </trkpt>
      <trkpt lat="43.7023" lon="3.15356">
        <ele>381.39999389648</ele>
        <time>2023-05-28T04:29:18.000Z</time>
      </trkpt>
      <trkpt lat="43.70226" lon="3.15348">
        <ele>382.20001220703</ele>
        <time>2023-05-28T04:29:27.000Z</time>
      </trkpt>
      <trkpt lat="43.70226" lon="3.15348">
        <ele>382.60000610352</ele>
        <time>2023-05-28T04:29:29.000Z</time>
      </trkpt>
      <trkpt lat="43.70224" lon="3.15345">
        <ele>383</ele>
        <time>2023-05-28T04:29:33.000Z</time>
      </trkpt>
      <trkpt lat="43.70221" lon="3.15338">
        <ele>383.39999389648</ele>
        <time>2023-05-28T04:29:39.000Z</time>
      </trkpt>
      <trkpt lat="43.70221" lon="3.15336">
        <ele>383.60000610352</ele>
        <time>2023-05-28T04:29:41.000Z</time>
      </trkpt>
      <trkpt lat="43.70221" lon="3.15333">
        <ele>384.39999389648</ele>
        <time>2023-05-28T04:29:45.000Z</time>
      </trkpt>
      <trkpt lat="43.70221" lon="3.1533">
        <ele>384.39999389648</ele>
        <time>2023-05-28T04:29:47.000Z</time>
      </trkpt>
      <trkpt lat="43.7022" lon="3.15328">
        <ele>384.79998779297</ele>
        <time>2023-05-28T04:29:50.000Z</time>
      </trkpt>
      <trkpt lat="43.7022" lon="3.15328">
        <ele>385.20001220703</ele>
        <time>2023-05-28T04:29:52.000Z</time>
      </trkpt>
      <trkpt lat="43.70219" lon="3.15326">
        <ele>385.79998779297</ele>
        <time>2023-05-28T04:29:54.000Z</time>
      </trkpt>
      <trkpt lat="43.70219" lon="3.15322">
        <ele>386.60000610352</ele>
        <time>2023-05-28T04:30:00.000Z</time>
      </trkpt>
      <trkpt lat="43.70219" lon="3.15322">
        <ele>386.79998779297</ele>
        <time>2023-05-28T04:30:02.000Z</time>
      </trkpt>
      <trkpt lat="43.70219" lon="3.15318">
        <ele>387.20001220703</ele>
        <time>2023-05-28T04:30:07.000Z</time>
      </trkpt>
      <trkpt lat="43.70219" lon="3.15317">
        <ele>388</ele>
        <time>2023-05-28T04:30:15.000Z</time>
      </trkpt>
      <trkpt lat="43.70218" lon="3.15309">
        <ele>388.39999389648</ele>
        <time>2023-05-28T04:30:22.000Z</time>
      </trkpt>
      <trkpt lat="43.70218" lon="3.15307">
        <ele>389</ele>
        <time>2023-05-28T04:30:26.000Z</time>
      </trkpt>
      <trkpt lat="43.70218" lon="3.15306">
        <ele>389</ele>
        <time>2023-05-28T04:30:28.000Z</time>
      </trkpt>
      <trkpt lat="43.70216" lon="3.15304">
        <ele>389.60000610352</ele>
        <time>2023-05-28T04:30:36.000Z</time>
      </trkpt>
      <trkpt lat="43.70215" lon="3.15304">
        <ele>390</ele>
        <time>2023-05-28T04:30:41.000Z</time>
      </trkpt>
      <trkpt lat="43.70214" lon="3.15301">
        <ele>390</ele>
        <time>2023-05-28T04:30:44.000Z</time>
      </trkpt>
      <trkpt lat="43.70212" lon="3.15301">
        <ele>390.60000610352</ele>
        <time>2023-05-28T04:30:50.000Z</time>
      </trkpt>
      <trkpt lat="43.70211" lon="3.15298">
        <ele>391</ele>
        <time>2023-05-28T04:30:54.000Z</time>
      </trkpt>
      <trkpt lat="43.7021" lon="3.15295">
        <ele>391.39999389648</ele>
        <time>2023-05-28T04:30:58.000Z</time>
      </trkpt>
      <trkpt lat="43.70207" lon="3.15291">
        <ele>391.79998779297</ele>
        <time>2023-05-28T04:31:05.000Z</time>
      </trkpt>
      <trkpt lat="43.70206" lon="3.1529">
        <ele>392</ele>
        <time>2023-05-28T04:31:07.000Z</time>
      </trkpt>
      <trkpt lat="43.70205" lon="3.15286">
        <ele>392.79998779297</ele>
        <time>2023-05-28T04:31:12.000Z</time>
      </trkpt>
      <trkpt lat="43.70203" lon="3.15285">
        <ele>393.20001220703</ele>
        <time>2023-05-28T04:31:16.000Z</time>
      </trkpt>
      <trkpt lat="43.70203" lon="3.15284">
        <ele>393.39999389648</ele>
        <time>2023-05-28T04:31:19.000Z</time>
      </trkpt>
      <trkpt lat="43.702" lon="3.15281">
        <ele>393.60000610352</ele>
        <time>2023-05-28T04:31:26.000Z</time>
      </trkpt>
      <trkpt lat="43.70197" lon="3.15275">
        <ele>394.20001220703</ele>
        <time>2023-05-28T04:31:34.000Z</time>
      </trkpt>
      <trkpt lat="43.70195" lon="3.1527">
        <ele>394.39999389648</ele>
        <time>2023-05-28T04:31:40.000Z</time>
      </trkpt>
      <trkpt lat="43.70194" lon="3.15269">
        <ele>395</ele>
        <time>2023-05-28T04:31:46.000Z</time>
      </trkpt>
      <trkpt lat="43.70193" lon="3.15262">
        <ele>395.20001220703</ele>
        <time>2023-05-28T04:31:53.000Z</time>
      </trkpt>
      <trkpt lat="43.70193" lon="3.15262">
        <ele>395.20001220703</ele>
        <time>2023-05-28T04:31:54.000Z</time>
      </trkpt>
      <trkpt lat="43.70192" lon="3.15261">
        <ele>396</ele>
        <time>2023-05-28T04:32:01.000Z</time>
      </trkpt>
      <trkpt lat="43.70193" lon="3.15259">
        <ele>396.20001220703</ele>
        <time>2023-05-28T04:32:04.000Z</time>
      </trkpt>
      <trkpt lat="43.70194" lon="3.15258">
        <ele>396.79998779297</ele>
        <time>2023-05-28T04:32:08.000Z</time>
      </trkpt>
      <trkpt lat="43.70194" lon="3.15258">
        <ele>397.20001220703</ele>
        <time>2023-05-28T04:32:11.000Z</time>
      </trkpt>
      <trkpt lat="43.70196" lon="3.15256">
        <ele>397.79998779297</ele>
        <time>2023-05-28T04:32:18.000Z</time>
      </trkpt>
      <trkpt lat="43.70196" lon="3.15256">
        <ele>398.39999389648</ele>
        <time>2023-05-28T04:32:23.000Z</time>
      </trkpt>
      <trkpt lat="43.70197" lon="3.15253">
        <ele>398.60000610352</ele>
        <time>2023-05-28T04:32:26.000Z</time>
      </trkpt>
      <trkpt lat="43.70199" lon="3.1525">
        <ele>399.20001220703</ele>
        <time>2023-05-28T04:32:34.000Z</time>
      </trkpt>
      <trkpt lat="43.702" lon="3.15248">
        <ele>399.39999389648</ele>
        <time>2023-05-28T04:32:36.000Z</time>
      </trkpt>
      <trkpt lat="43.70199" lon="3.15248">
        <ele>400</ele>
        <time>2023-05-28T04:32:42.000Z</time>
      </trkpt>
      <trkpt lat="43.70199" lon="3.15246">
        <ele>400</ele>
        <time>2023-05-28T04:32:51.000Z</time>
      </trkpt>
      <trkpt lat="43.70201" lon="3.15243">
        <ele>400</ele>
        <time>2023-05-28T04:32:59.000Z</time>
      </trkpt>
      <trkpt lat="43.70202" lon="3.15242">
        <ele>400.60000610352</ele>
        <time>2023-05-28T04:33:05.000Z</time>
      </trkpt>
      <trkpt lat="43.70204" lon="3.15241">
        <ele>401</ele>
        <time>2023-05-28T04:33:09.000Z</time>
      </trkpt>
      <trkpt lat="43.70205" lon="3.15239">
        <ele>401.60000610352</ele>
        <time>2023-05-28T04:33:13.000Z</time>
      </trkpt>
      <trkpt lat="43.70206" lon="3.15236">
        <ele>402.60000610352</ele>
        <time>2023-05-28T04:33:18.000Z</time>
      </trkpt>
      <trkpt lat="43.70206" lon="3.15236">
        <ele>402.79998779297</ele>
        <time>2023-05-28T04:33:19.000Z</time>
      </trkpt>
      <trkpt lat="43.70206" lon="3.1523">
        <ele>403.60000610352</ele>
        <time>2023-05-28T04:33:27.000Z</time>
      </trkpt>
      <trkpt lat="43.70206" lon="3.15231">
        <ele>403.60000610352</ele>
        <time>2023-05-28T04:33:28.000Z</time>
      </trkpt>
      <trkpt lat="43.70203" lon="3.15227">
        <ele>404.20001220703</ele>
        <time>2023-05-28T04:33:34.000Z</time>
      </trkpt>
      <trkpt lat="43.70202" lon="3.15223">
        <ele>404.60000610352</ele>
        <time>2023-05-28T04:33:38.000Z</time>
      </trkpt>
      <trkpt lat="43.70202" lon="3.15221">
        <ele>405</ele>
        <time>2023-05-28T04:33:41.000Z</time>
      </trkpt>
      <trkpt lat="43.70201" lon="3.1522">
        <ele>405.60000610352</ele>
        <time>2023-05-28T04:33:48.000Z</time>
      </trkpt>
      <trkpt lat="43.70201" lon="3.15219">
        <ele>405.79998779297</ele>
        <time>2023-05-28T04:33:50.000Z</time>
      </trkpt>
      <trkpt lat="43.702" lon="3.15216">
        <ele>405.79998779297</ele>
        <time>2023-05-28T04:33:56.000Z</time>
      </trkpt>
      <trkpt lat="43.70199" lon="3.1521">
        <ele>406.39999389648</ele>
        <time>2023-05-28T04:34:04.000Z</time>
      </trkpt>
      <trkpt lat="43.70198" lon="3.15206">
        <ele>407</ele>
        <time>2023-05-28T04:34:11.000Z</time>
      </trkpt>
      <trkpt lat="43.70198" lon="3.15204">
        <ele>407.20001220703</ele>
        <time>2023-05-28T04:34:14.000Z</time>
      </trkpt>
      <trkpt lat="43.70198" lon="3.15202">
        <ele>408</ele>
        <time>2023-05-28T04:34:19.000Z</time>
      </trkpt>
      <trkpt lat="43.70199" lon="3.152">
        <ele>408.39999389648</ele>
        <time>2023-05-28T04:34:23.000Z</time>
      </trkpt>
      <trkpt lat="43.70199" lon="3.15197">
        <ele>409</ele>
        <time>2023-05-28T04:34:30.000Z</time>
      </trkpt>
      <trkpt lat="43.70199" lon="3.15196">
        <ele>409.20001220703</ele>
        <time>2023-05-28T04:34:31.000Z</time>
      </trkpt>
      <trkpt lat="43.702" lon="3.15191">
        <ele>409.60000610352</ele>
        <time>2023-05-28T04:34:39.000Z</time>
      </trkpt>
      <trkpt lat="43.702" lon="3.15188">
        <ele>410.20001220703</ele>
        <time>2023-05-28T04:34:43.000Z</time>
      </trkpt>
      <trkpt lat="43.702" lon="3.15189">
        <ele>410.60000610352</ele>
        <time>2023-05-28T04:34:46.000Z</time>
      </trkpt>
      <trkpt lat="43.702" lon="3.15182">
        <ele>411.20001220703</ele>
        <time>2023-05-28T04:34:54.000Z</time>
      </trkpt>
      <trkpt lat="43.70197" lon="3.15179">
        <ele>411.79998779297</ele>
        <time>2023-05-28T04:35:00.000Z</time>
      </trkpt>
      <trkpt lat="43.70196" lon="3.15178">
        <ele>412.20001220703</ele>
        <time>2023-05-28T04:35:03.000Z</time>
      </trkpt>
      <trkpt lat="43.70197" lon="3.15176">
        <ele>412.79998779297</ele>
        <time>2023-05-28T04:35:07.000Z</time>
      </trkpt>
      <trkpt lat="43.70194" lon="3.15174">
        <ele>412.79998779297</ele>
        <time>2023-05-28T04:35:14.000Z</time>
      </trkpt>
      <trkpt lat="43.70194" lon="3.15169">
        <ele>413.20001220703</ele>
        <time>2023-05-28T04:35:19.000Z</time>
      </trkpt>
      <trkpt lat="43.70194" lon="3.15166">
        <ele>413.20001220703</ele>
        <time>2023-05-28T04:35:22.000Z</time>
      </trkpt>
      <trkpt lat="43.70193" lon="3.15162">
        <ele>413.60000610352</ele>
        <time>2023-05-28T04:35:28.000Z</time>
      </trkpt>
      <trkpt lat="43.70189" lon="3.15158">
        <ele>414.20001220703</ele>
        <time>2023-05-28T04:35:36.000Z</time>
      </trkpt>
      <trkpt lat="43.70187" lon="3.15157">
        <ele>414.20001220703</ele>
        <time>2023-05-28T04:35:41.000Z</time>
      </trkpt>
      <trkpt lat="43.70186" lon="3.15155">
        <ele>414.39999389648</ele>
        <time>2023-05-28T04:35:45.000Z</time>
      </trkpt>
      <trkpt lat="43.70184" lon="3.15151">
        <ele>414.39999389648</ele>
        <time>2023-05-28T04:35:52.000Z</time>
      </trkpt>
      <trkpt lat="43.7018" lon="3.15147">
        <ele>415.20001220703</ele>
        <time>2023-05-28T04:35:59.000Z</time>
      </trkpt>
      <trkpt lat="43.70178" lon="3.15145">
        <ele>415.39999389648</ele>
        <time>2023-05-28T04:36:05.000Z</time>
      </trkpt>
      <trkpt lat="43.70176" lon="3.15145">
        <ele>415.60000610352</ele>
        <time>2023-05-28T04:36:08.000Z</time>
      </trkpt>
      <trkpt lat="43.70169" lon="3.15145">
        <ele>414.79998779297</ele>
        <time>2023-05-28T04:36:18.000Z</time>
      </trkpt>
      <trkpt lat="43.70166" lon="3.15145">
        <ele>414.39999389648</ele>
        <time>2023-05-28T04:36:23.000Z</time>
      </trkpt>
      <trkpt lat="43.70163" lon="3.15144">
        <ele>414</ele>
        <time>2023-05-28T04:36:27.000Z</time>
      </trkpt>
      <trkpt lat="43.7016" lon="3.15141">
        <ele>414</ele>
        <time>2023-05-28T04:36:35.000Z</time>
      </trkpt>
      <trkpt lat="43.70157" lon="3.15138">
        <ele>414.79998779297</ele>
        <time>2023-05-28T04:36:41.000Z</time>
      </trkpt>
      <trkpt lat="43.70155" lon="3.15135">
        <ele>415.39999389648</ele>
        <time>2023-05-28T04:36:46.000Z</time>
      </trkpt>
      <trkpt lat="43.70153" lon="3.15133">
        <ele>416</ele>
        <time>2023-05-28T04:36:50.000Z</time>
      </trkpt>
      <trkpt lat="43.70152" lon="3.15132">
        <ele>416.39999389648</ele>
        <time>2023-05-28T04:36:52.000Z</time>
      </trkpt>
      <trkpt lat="43.7015" lon="3.15129">
        <ele>416.79998779297</ele>
        <time>2023-05-28T04:36:57.000Z</time>
      </trkpt>
      <trkpt lat="43.70148" lon="3.15125">
        <ele>417.39999389648</ele>
        <time>2023-05-28T04:37:04.000Z</time>
      </trkpt>
      <trkpt lat="43.70144" lon="3.15119">
        <ele>418.39999389648</ele>
        <time>2023-05-28T04:37:12.000Z</time>
      </trkpt>
      <trkpt lat="43.70144" lon="3.15119">
        <ele>418.60000610352</ele>
        <time>2023-05-28T04:37:13.000Z</time>
      </trkpt>
      <trkpt lat="43.70142" lon="3.15117">
        <ele>419.39999389648</ele>
        <time>2023-05-28T04:37:20.000Z</time>
      </trkpt>
      <trkpt lat="43.7014" lon="3.15114">
        <ele>419.39999389648</ele>
        <time>2023-05-28T04:37:27.000Z</time>
      </trkpt>
      <trkpt lat="43.70141" lon="3.15113">
        <ele>420.60000610352</ele>
        <time>2023-05-28T04:37:33.000Z</time>
      </trkpt>
      <trkpt lat="43.70141" lon="3.15113">
        <ele>420.60000610352</ele>
        <time>2023-05-28T04:37:34.000Z</time>
      </trkpt>
      <trkpt lat="43.70141" lon="3.15112">
        <ele>420.60000610352</ele>
        <time>2023-05-28T04:37:47.000Z</time>
      </trkpt>
      <trkpt lat="43.7014" lon="3.15111">
        <ele>420.79998779297</ele>
        <time>2023-05-28T04:37:57.000Z</time>
      </trkpt>
      <trkpt lat="43.70136" lon="3.15106">
        <ele>421.20001220703</ele>
        <time>2023-05-28T04:38:04.000Z</time>
      </trkpt>
      <trkpt lat="43.70134" lon="3.15104">
        <ele>421.60000610352</ele>
        <time>2023-05-28T04:38:08.000Z</time>
      </trkpt>
      <trkpt lat="43.70132" lon="3.15102">
        <ele>422</ele>
        <time>2023-05-28T04:38:11.000Z</time>
      </trkpt>
      <trkpt lat="43.70132" lon="3.151">
        <ele>422.79998779297</ele>
        <time>2023-05-28T04:38:15.000Z</time>
      </trkpt>
      <trkpt lat="43.70131" lon="3.15099">
        <ele>423</ele>
        <time>2023-05-28T04:38:17.000Z</time>
      </trkpt>
      <trkpt lat="43.70129" lon="3.15096">
        <ele>423.60000610352</ele>
        <time>2023-05-28T04:38:24.000Z</time>
      </trkpt>
      <trkpt lat="43.70127" lon="3.15094">
        <ele>423.79998779297</ele>
        <time>2023-05-28T04:38:26.000Z</time>
      </trkpt>
      <trkpt lat="43.70125" lon="3.15091">
        <ele>424.39999389648</ele>
        <time>2023-05-28T04:38:30.000Z</time>
      </trkpt>
      <trkpt lat="43.70124" lon="3.15088">
        <ele>425</ele>
        <time>2023-05-28T04:38:36.000Z</time>
      </trkpt>
      <trkpt lat="43.70124" lon="3.15088">
        <ele>425.20001220703</ele>
        <time>2023-05-28T04:38:39.000Z</time>
      </trkpt>
      <trkpt lat="43.70122" lon="3.15086">
        <ele>425.79998779297</ele>
        <time>2023-05-28T04:38:49.000Z</time>
      </trkpt>
      <trkpt lat="43.70118" lon="3.15085">
        <ele>426</ele>
        <time>2023-05-28T04:38:54.000Z</time>
      </trkpt>
      <trkpt lat="43.70118" lon="3.15085">
        <ele>426</ele>
        <time>2023-05-28T04:38:56.000Z</time>
      </trkpt>
      <trkpt lat="43.70119" lon="3.15085">
        <ele>425.79998779297</ele>
        <time>2023-05-28T04:39:03.000Z</time>
      </trkpt>
      <trkpt lat="43.7012" lon="3.15085">
        <ele>425.60000610352</ele>
        <time>2023-05-28T04:39:10.000Z</time>
      </trkpt>
      <trkpt lat="43.70117" lon="3.15087">
        <ele>425.39999389648</ele>
        <time>2023-05-28T04:39:21.000Z</time>
      </trkpt>
      <trkpt lat="43.70117" lon="3.15087">
        <ele>425.20001220703</ele>
        <time>2023-05-28T04:39:30.000Z</time>
      </trkpt>
      <trkpt lat="43.70117" lon="3.15088">
        <ele>425</ele>
        <time>2023-05-28T04:39:37.000Z</time>
      </trkpt>
      <trkpt lat="43.70117" lon="3.15087">
        <ele>425.20001220703</ele>
        <time>2023-05-28T04:39:44.000Z</time>
      </trkpt>
      <trkpt lat="43.70116" lon="3.15088">
        <ele>425</ele>
        <time>2023-05-28T04:39:48.000Z</time>
      </trkpt>
      <trkpt lat="43.70116" lon="3.15087">
        <ele>425.39999389648</ele>
        <time>2023-05-28T04:39:56.000Z</time>
      </trkpt>
      <trkpt lat="43.70117" lon="3.15087">
        <ele>425.20001220703</ele>
        <time>2023-05-28T04:40:09.000Z</time>
      </trkpt>
      <trkpt lat="43.70117" lon="3.15087">
        <ele>425.60000610352</ele>
        <time>2023-05-28T04:40:19.000Z</time>
      </trkpt>
      <trkpt lat="43.70116" lon="3.15088">
        <ele>425.60000610352</ele>
        <time>2023-05-28T04:40:35.000Z</time>
      </trkpt>
      <trkpt lat="43.70112" lon="3.15087">
        <ele>425</ele>
        <time>2023-05-28T04:40:41.000Z</time>
      </trkpt>
      <trkpt lat="43.70108" lon="3.15083">
        <ele>424.60000610352</ele>
        <time>2023-05-28T04:40:47.000Z</time>
      </trkpt>
      <trkpt lat="43.70104" lon="3.15079">
        <ele>424.39999389648</ele>
        <time>2023-05-28T04:40:53.000Z</time>
      </trkpt>
      <trkpt lat="43.70104" lon="3.15078">
        <ele>424.20001220703</ele>
        <time>2023-05-28T04:40:55.000Z</time>
      </trkpt>
      <trkpt lat="43.70103" lon="3.15076">
        <ele>424.20001220703</ele>
        <time>2023-05-28T04:40:57.000Z</time>
      </trkpt>
      <trkpt lat="43.701" lon="3.15071">
        <ele>424.79998779297</ele>
        <time>2023-05-28T04:41:03.000Z</time>
      </trkpt>
      <trkpt lat="43.70097" lon="3.15064">
        <ele>425.39999389648</ele>
        <time>2023-05-28T04:41:13.000Z</time>
      </trkpt>
      <trkpt lat="43.70097" lon="3.1506">
        <ele>426</ele>
        <time>2023-05-28T04:41:19.000Z</time>
      </trkpt>
      <trkpt lat="43.70096" lon="3.15059">
        <ele>426</ele>
        <time>2023-05-28T04:41:20.000Z</time>
      </trkpt>
      <trkpt lat="43.70094" lon="3.15055">
        <ele>426.79998779297</ele>
        <time>2023-05-28T04:41:28.000Z</time>
      </trkpt>
      <trkpt lat="43.70094" lon="3.15054">
        <ele>427</ele>
        <time>2023-05-28T04:41:29.000Z</time>
      </trkpt>
      <trkpt lat="43.70093" lon="3.1505">
        <ele>427.20001220703</ele>
        <time>2023-05-28T04:41:35.000Z</time>
      </trkpt>
      <trkpt lat="43.70093" lon="3.15046">
        <ele>428</ele>
        <time>2023-05-28T04:41:41.000Z</time>
      </trkpt>
      <trkpt lat="43.70093" lon="3.15047">
        <ele>428.20001220703</ele>
        <time>2023-05-28T04:41:42.000Z</time>
      </trkpt>
      <trkpt lat="43.70092" lon="3.1504">
        <ele>429</ele>
        <time>2023-05-28T04:41:51.000Z</time>
      </trkpt>
      <trkpt lat="43.70092" lon="3.15039">
        <ele>429.20001220703</ele>
        <time>2023-05-28T04:41:52.000Z</time>
      </trkpt>
      <trkpt lat="43.7009" lon="3.15032">
        <ele>429.79998779297</ele>
        <time>2023-05-28T04:42:00.000Z</time>
      </trkpt>
      <trkpt lat="43.70089" lon="3.15029">
        <ele>430</ele>
        <time>2023-05-28T04:42:04.000Z</time>
      </trkpt>
      <trkpt lat="43.70087" lon="3.15024">
        <ele>430.39999389648</ele>
        <time>2023-05-28T04:42:09.000Z</time>
      </trkpt>
      <trkpt lat="43.70085" lon="3.15017">
        <ele>431</ele>
        <time>2023-05-28T04:42:18.000Z</time>
      </trkpt>
      <trkpt lat="43.70083" lon="3.15014">
        <ele>431.20001220703</ele>
        <time>2023-05-28T04:42:20.000Z</time>
      </trkpt>
      <trkpt lat="43.70081" lon="3.1501">
        <ele>431.60000610352</ele>
        <time>2023-05-28T04:42:26.000Z</time>
      </trkpt>
      <trkpt lat="43.70079" lon="3.15006">
        <ele>432.20001220703</ele>
        <time>2023-05-28T04:42:33.000Z</time>
      </trkpt>
      <trkpt lat="43.70078" lon="3.15001">
        <ele>433</ele>
        <time>2023-05-28T04:42:40.000Z</time>
      </trkpt>
      <trkpt lat="43.70077" lon="3.14999">
        <ele>433.20001220703</ele>
        <time>2023-05-28T04:42:44.000Z</time>
      </trkpt>
      <trkpt lat="43.70077" lon="3.14998">
        <ele>433.60000610352</ele>
        <time>2023-05-28T04:42:47.000Z</time>
      </trkpt>
      <trkpt lat="43.70074" lon="3.1499">
        <ele>434.20001220703</ele>
        <time>2023-05-28T04:42:57.000Z</time>
      </trkpt>
      <trkpt lat="43.70071" lon="3.14987">
        <ele>435.20001220703</ele>
        <time>2023-05-28T04:43:05.000Z</time>
      </trkpt>
      <trkpt lat="43.70072" lon="3.14987">
        <ele>435.39999389648</ele>
        <time>2023-05-28T04:43:06.000Z</time>
      </trkpt>
      <trkpt lat="43.7007" lon="3.14984">
        <ele>436.39999389648</ele>
        <time>2023-05-28T04:43:12.000Z</time>
      </trkpt>
      <trkpt lat="43.7007" lon="3.14983">
        <ele>436.39999389648</ele>
        <time>2023-05-28T04:43:14.000Z</time>
      </trkpt>
      <trkpt lat="43.70067" lon="3.1498">
        <ele>437.20001220703</ele>
        <time>2023-05-28T04:43:20.000Z</time>
      </trkpt>
      <trkpt lat="43.70066" lon="3.14979">
        <ele>437.60000610352</ele>
        <time>2023-05-28T04:43:23.000Z</time>
      </trkpt>
      <trkpt lat="43.70065" lon="3.14977">
        <ele>437.79998779297</ele>
        <time>2023-05-28T04:43:27.000Z</time>
      </trkpt>
      <trkpt lat="43.70064" lon="3.14979">
        <ele>438.60000610352</ele>
        <time>2023-05-28T04:43:33.000Z</time>
      </trkpt>
      <trkpt lat="43.70064" lon="3.14974">
        <ele>438.79998779297</ele>
        <time>2023-05-28T04:43:35.000Z</time>
      </trkpt>
      <trkpt lat="43.7006" lon="3.14972">
        <ele>439.39999389648</ele>
        <time>2023-05-28T04:43:43.000Z</time>
      </trkpt>
      <trkpt lat="43.70059" lon="3.14972">
        <ele>439.60000610352</ele>
        <time>2023-05-28T04:43:45.000Z</time>
      </trkpt>
      <trkpt lat="43.70056" lon="3.1497">
        <ele>440</ele>
        <time>2023-05-28T04:43:50.000Z</time>
      </trkpt>
      <trkpt lat="43.70051" lon="3.14967">
        <ele>440.39999389648</ele>
        <time>2023-05-28T04:43:58.000Z</time>
      </trkpt>
      <trkpt lat="43.7005" lon="3.14966">
        <ele>440.60000610352</ele>
        <time>2023-05-28T04:44:00.000Z</time>
      </trkpt>
      <trkpt lat="43.70047" lon="3.14964">
        <ele>441.20001220703</ele>
        <time>2023-05-28T04:44:06.000Z</time>
      </trkpt>
      <trkpt lat="43.70042" lon="3.14961">
        <ele>441.60000610352</ele>
        <time>2023-05-28T04:44:14.000Z</time>
      </trkpt>
      <trkpt lat="43.70037" lon="3.14959">
        <ele>442.39999389648</ele>
        <time>2023-05-28T04:44:23.000Z</time>
      </trkpt>
      <trkpt lat="43.70035" lon="3.14957">
        <ele>442.79998779297</ele>
        <time>2023-05-28T04:44:26.000Z</time>
      </trkpt>
      <trkpt lat="43.70034" lon="3.14955">
        <ele>442.79998779297</ele>
        <time>2023-05-28T04:44:29.000Z</time>
      </trkpt>
      <trkpt lat="43.70028" lon="3.14952">
        <ele>443.60000610352</ele>
        <time>2023-05-28T04:44:37.000Z</time>
      </trkpt>
      <trkpt lat="43.70027" lon="3.1495">
        <ele>443.79998779297</ele>
        <time>2023-05-28T04:44:40.000Z</time>
      </trkpt>
      <trkpt lat="43.70026" lon="3.14948">
        <ele>444.20001220703</ele>
        <time>2023-05-28T04:44:45.000Z</time>
      </trkpt>
      <trkpt lat="43.70024" lon="3.14947">
        <ele>445</ele>
        <time>2023-05-28T04:44:49.000Z</time>
      </trkpt>
      <trkpt lat="43.70023" lon="3.14943">
        <ele>445</ele>
        <time>2023-05-28T04:44:55.000Z</time>
      </trkpt>
      <trkpt lat="43.70022" lon="3.14939">
        <ele>446</ele>
        <time>2023-05-28T04:45:03.000Z</time>
      </trkpt>
      <trkpt lat="43.70019" lon="3.14934">
        <ele>446.60000610352</ele>
        <time>2023-05-28T04:45:11.000Z</time>
      </trkpt>
      <trkpt lat="43.70019" lon="3.14933">
        <ele>447</ele>
        <time>2023-05-28T04:45:15.000Z</time>
      </trkpt>
      <trkpt lat="43.70018" lon="3.1493">
        <ele>447.20001220703</ele>
        <time>2023-05-28T04:45:19.000Z</time>
      </trkpt>
      <trkpt lat="43.70016" lon="3.14928">
        <ele>448.20001220703</ele>
        <time>2023-05-28T04:45:25.000Z</time>
      </trkpt>
      <trkpt lat="43.70016" lon="3.14927">
        <ele>448.39999389648</ele>
        <time>2023-05-28T04:45:28.000Z</time>
      </trkpt>
      <trkpt lat="43.70016" lon="3.14924">
        <ele>449</ele>
        <time>2023-05-28T04:45:37.000Z</time>
      </trkpt>
      <trkpt lat="43.70016" lon="3.1492">
        <ele>449.20001220703</ele>
        <time>2023-05-28T04:45:50.000Z</time>
      </trkpt>
      <trkpt lat="43.70014" lon="3.14918">
        <ele>449.20001220703</ele>
        <time>2023-05-28T04:45:55.000Z</time>
      </trkpt>
      <trkpt lat="43.70014" lon="3.14916">
        <ele>449.60000610352</ele>
        <time>2023-05-28T04:45:58.000Z</time>
      </trkpt>
      <trkpt lat="43.70012" lon="3.14914">
        <ele>450.20001220703</ele>
        <time>2023-05-28T04:46:02.000Z</time>
      </trkpt>
      <trkpt lat="43.70011" lon="3.14912">
        <ele>450.79998779297</ele>
        <time>2023-05-28T04:46:05.000Z</time>
      </trkpt>
      <trkpt lat="43.70009" lon="3.14911">
        <ele>451.20001220703</ele>
        <time>2023-05-28T04:46:08.000Z</time>
      </trkpt>
      <trkpt lat="43.70007" lon="3.1491">
        <ele>451.39999389648</ele>
        <time>2023-05-28T04:46:14.000Z</time>
      </trkpt>
      <trkpt lat="43.70002" lon="3.14909">
        <ele>451.79998779297</ele>
        <time>2023-05-28T04:46:21.000Z</time>
      </trkpt>
      <trkpt lat="43.69999" lon="3.14906">
        <ele>452</ele>
        <time>2023-05-28T04:46:27.000Z</time>
      </trkpt>
      <trkpt lat="43.69996" lon="3.14903">
        <ele>452.20001220703</ele>
        <time>2023-05-28T04:46:33.000Z</time>
      </trkpt>
      <trkpt lat="43.69996" lon="3.14902">
        <ele>452.39999389648</ele>
        <time>2023-05-28T04:46:34.000Z</time>
      </trkpt>
      <trkpt lat="43.69993" lon="3.14899">
        <ele>453</ele>
        <time>2023-05-28T04:46:41.000Z</time>
      </trkpt>
      <trkpt lat="43.69991" lon="3.14899">
        <ele>453.39999389648</ele>
        <time>2023-05-28T04:46:45.000Z</time>
      </trkpt>
      <trkpt lat="43.6999" lon="3.14898">
        <ele>453.60000610352</ele>
        <time>2023-05-28T04:46:48.000Z</time>
      </trkpt>
      <trkpt lat="43.69988" lon="3.14895">
        <ele>454.39999389648</ele>
        <time>2023-05-28T04:46:56.000Z</time>
      </trkpt>
      <trkpt lat="43.69988" lon="3.14894">
        <ele>454.39999389648</ele>
        <time>2023-05-28T04:46:57.000Z</time>
      </trkpt>
      <trkpt lat="43.69984" lon="3.14891">
        <ele>455.20001220703</ele>
        <time>2023-05-28T04:47:04.000Z</time>
      </trkpt>
      <trkpt lat="43.69983" lon="3.14889">
        <ele>455.39999389648</ele>
        <time>2023-05-28T04:47:07.000Z</time>
      </trkpt>
      <trkpt lat="43.69983" lon="3.14887">
        <ele>455.79998779297</ele>
        <time>2023-05-28T04:47:11.000Z</time>
      </trkpt>
      <trkpt lat="43.69982" lon="3.14885">
        <ele>456.60000610352</ele>
        <time>2023-05-28T04:47:16.000Z</time>
      </trkpt>
      <trkpt lat="43.69982" lon="3.14884">
        <ele>456.60000610352</ele>
        <time>2023-05-28T04:47:17.000Z</time>
      </trkpt>
      <trkpt lat="43.69979" lon="3.14884">
        <ele>457.20001220703</ele>
        <time>2023-05-28T04:47:24.000Z</time>
      </trkpt>
      <trkpt lat="43.69979" lon="3.14883">
        <ele>457.60000610352</ele>
        <time>2023-05-28T04:47:29.000Z</time>
      </trkpt>
      <trkpt lat="43.69977" lon="3.14881">
        <ele>457.60000610352</ele>
        <time>2023-05-28T04:47:34.000Z</time>
      </trkpt>
      <trkpt lat="43.69975" lon="3.14881">
        <ele>458</ele>
        <time>2023-05-28T04:47:42.000Z</time>
      </trkpt>
      <trkpt lat="43.69972" lon="3.14879">
        <ele>458.60000610352</ele>
        <time>2023-05-28T04:47:46.000Z</time>
      </trkpt>
      <trkpt lat="43.69971" lon="3.14877">
        <ele>458.79998779297</ele>
        <time>2023-05-28T04:47:49.000Z</time>
      </trkpt>
      <trkpt lat="43.69968" lon="3.14876">
        <ele>459.79998779297</ele>
        <time>2023-05-28T04:47:55.000Z</time>
      </trkpt>
      <trkpt lat="43.69968" lon="3.14876">
        <ele>459.79998779297</ele>
        <time>2023-05-28T04:47:56.000Z</time>
      </trkpt>
      <trkpt lat="43.69963" lon="3.14874">
        <ele>460.60000610352</ele>
        <time>2023-05-28T04:48:02.000Z</time>
      </trkpt>
      <trkpt lat="43.69962" lon="3.14874">
        <ele>460.79998779297</ele>
        <time>2023-05-28T04:48:03.000Z</time>
      </trkpt>
      <trkpt lat="43.69959" lon="3.14874">
        <ele>461.20001220703</ele>
        <time>2023-05-28T04:48:08.000Z</time>
      </trkpt>
      <trkpt lat="43.69959" lon="3.14874">
        <ele>461.39999389648</ele>
        <time>2023-05-28T04:48:11.000Z</time>
      </trkpt>
      <trkpt lat="43.69957" lon="3.14874">
        <ele>461.79998779297</ele>
        <time>2023-05-28T04:48:15.000Z</time>
      </trkpt>
      <trkpt lat="43.69956" lon="3.14875">
        <ele>461.60000610352</ele>
        <time>2023-05-28T04:48:17.000Z</time>
      </trkpt>
      <trkpt lat="43.6995" lon="3.14877">
        <ele>461</ele>
        <time>2023-05-28T04:48:26.000Z</time>
      </trkpt>
      <trkpt lat="43.69944" lon="3.14878">
        <ele>461.79998779297</ele>
        <time>2023-05-28T04:48:34.000Z</time>
      </trkpt>
      <trkpt lat="43.69938" lon="3.14877">
        <ele>461.79998779297</ele>
        <time>2023-05-28T04:48:40.000Z</time>
      </trkpt>
      <trkpt lat="43.69938" lon="3.14877">
        <ele>461.79998779297</ele>
        <time>2023-05-28T04:48:41.000Z</time>
      </trkpt>
      <trkpt lat="43.69934" lon="3.14878">
        <ele>462.39999389648</ele>
        <time>2023-05-28T04:48:45.000Z</time>
      </trkpt>
      <trkpt lat="43.69931" lon="3.1488">
        <ele>462.60000610352</ele>
        <time>2023-05-28T04:48:49.000Z</time>
      </trkpt>
      <trkpt lat="43.69928" lon="3.14881">
        <ele>462.79998779297</ele>
        <time>2023-05-28T04:48:53.000Z</time>
      </trkpt>
      <trkpt lat="43.69927" lon="3.14881">
        <ele>462.79998779297</ele>
        <time>2023-05-28T04:48:54.000Z</time>
      </trkpt>
      <trkpt lat="43.69923" lon="3.14881">
        <ele>463.60000610352</ele>
        <time>2023-05-28T04:49:03.000Z</time>
      </trkpt>
      <trkpt lat="43.69921" lon="3.1488">
        <ele>463.79998779297</ele>
        <time>2023-05-28T04:49:05.000Z</time>
      </trkpt>
      <trkpt lat="43.69919" lon="3.14878">
        <ele>464.20001220703</ele>
        <time>2023-05-28T04:49:08.000Z</time>
      </trkpt>
      <trkpt lat="43.69917" lon="3.14873">
        <ele>465</ele>
        <time>2023-05-28T04:49:15.000Z</time>
      </trkpt>
      <trkpt lat="43.69914" lon="3.14869">
        <ele>466</ele>
        <time>2023-05-28T04:49:23.000Z</time>
      </trkpt>
      <trkpt lat="43.69912" lon="3.14866">
        <ele>467</ele>
        <time>2023-05-28T04:49:31.000Z</time>
      </trkpt>
      <trkpt lat="43.69911" lon="3.14866">
        <ele>467.20001220703</ele>
        <time>2023-05-28T04:49:32.000Z</time>
      </trkpt>
      <trkpt lat="43.69907" lon="3.14863">
        <ele>468</ele>
        <time>2023-05-28T04:49:39.000Z</time>
      </trkpt>
      <trkpt lat="43.69907" lon="3.14862">
        <ele>468.20001220703</ele>
        <time>2023-05-28T04:49:41.000Z</time>
      </trkpt>
      <trkpt lat="43.69906" lon="3.14861">
        <ele>468.79998779297</ele>
        <time>2023-05-28T04:49:46.000Z</time>
      </trkpt>
      <trkpt lat="43.69904" lon="3.14861">
        <ele>468.79998779297</ele>
        <time>2023-05-28T04:49:58.000Z</time>
      </trkpt>
      <trkpt lat="43.69904" lon="3.14861">
        <ele>469.20001220703</ele>
        <time>2023-05-28T04:50:07.000Z</time>
      </trkpt>
      <trkpt lat="43.69904" lon="3.14861">
        <ele>469.20001220703</ele>
        <time>2023-05-28T04:50:08.000Z</time>
      </trkpt>
      <trkpt lat="43.69903" lon="3.14855">
        <ele>469.20001220703</ele>
        <time>2023-05-28T04:50:16.000Z</time>
      </trkpt>
      <trkpt lat="43.69902" lon="3.14849">
        <ele>469.60000610352</ele>
        <time>2023-05-28T04:50:25.000Z</time>
      </trkpt>
      <trkpt lat="43.69902" lon="3.14842">
        <ele>470.39999389648</ele>
        <time>2023-05-28T04:50:33.000Z</time>
      </trkpt>
      <trkpt lat="43.69901" lon="3.14837">
        <ele>471.39999389648</ele>
        <time>2023-05-28T04:50:40.000Z</time>
      </trkpt>
      <trkpt lat="43.69901" lon="3.14835">
        <ele>471.60000610352</ele>
        <time>2023-05-28T04:50:42.000Z</time>
      </trkpt>
      <trkpt lat="43.699" lon="3.1483">
        <ele>472.60000610352</ele>
        <time>2023-05-28T04:50:48.000Z</time>
      </trkpt>
      <trkpt lat="43.69899" lon="3.14828">
        <ele>472.79998779297</ele>
        <time>2023-05-28T04:50:50.000Z</time>
      </trkpt>
      <trkpt lat="43.69899" lon="3.14825">
        <ele>473.60000610352</ele>
        <time>2023-05-28T04:50:56.000Z</time>
      </trkpt>
      <trkpt lat="43.69898" lon="3.14824">
        <ele>474</ele>
        <time>2023-05-28T04:50:58.000Z</time>
      </trkpt>
      <trkpt lat="43.69896" lon="3.14817">
        <ele>474.79998779297</ele>
        <time>2023-05-28T04:51:08.000Z</time>
      </trkpt>
      <trkpt lat="43.69896" lon="3.14816">
        <ele>475</ele>
        <time>2023-05-28T04:51:10.000Z</time>
      </trkpt>
      <trkpt lat="43.69895" lon="3.14811">
        <ele>475.60000610352</ele>
        <time>2023-05-28T04:51:19.000Z</time>
      </trkpt>
      <trkpt lat="43.69895" lon="3.14809">
        <ele>475.79998779297</ele>
        <time>2023-05-28T04:51:21.000Z</time>
      </trkpt>
      <trkpt lat="43.69895" lon="3.14807">
        <ele>476.39999389648</ele>
        <time>2023-05-28T04:51:26.000Z</time>
      </trkpt>
      <trkpt lat="43.69896" lon="3.14805">
        <ele>476.79998779297</ele>
        <time>2023-05-28T04:51:30.000Z</time>
      </trkpt>
      <trkpt lat="43.69896" lon="3.14802">
        <ele>477.39999389648</ele>
        <time>2023-05-28T04:51:34.000Z</time>
      </trkpt>
      <trkpt lat="43.69896" lon="3.14799">
        <ele>477.79998779297</ele>
        <time>2023-05-28T04:51:39.000Z</time>
      </trkpt>
      <trkpt lat="43.69896" lon="3.14798">
        <ele>478</ele>
        <time>2023-05-28T04:51:41.000Z</time>
      </trkpt>
      <trkpt lat="43.69895" lon="3.14794">
        <ele>478.79998779297</ele>
        <time>2023-05-28T04:51:49.000Z</time>
      </trkpt>
      <trkpt lat="43.69893" lon="3.14794">
        <ele>479</ele>
        <time>2023-05-28T04:51:50.000Z</time>
      </trkpt>
      <trkpt lat="43.69893" lon="3.1479">
        <ele>479.39999389648</ele>
        <time>2023-05-28T04:51:55.000Z</time>
      </trkpt>
      <trkpt lat="43.69891" lon="3.14783">
        <ele>480</ele>
        <time>2023-05-28T04:52:04.000Z</time>
      </trkpt>
      <trkpt lat="43.6989" lon="3.14777">
        <ele>480.79998779297</ele>
        <time>2023-05-28T04:52:12.000Z</time>
      </trkpt>
      <trkpt lat="43.69889" lon="3.14776">
        <ele>481</ele>
        <time>2023-05-28T04:52:15.000Z</time>
      </trkpt>
      <trkpt lat="43.69888" lon="3.14773">
        <ele>481.60000610352</ele>
        <time>2023-05-28T04:52:21.000Z</time>
      </trkpt>
      <trkpt lat="43.69887" lon="3.14773">
        <ele>481.39999389648</ele>
        <time>2023-05-28T04:52:29.000Z</time>
      </trkpt>
      <trkpt lat="43.69886" lon="3.14769">
        <ele>482</ele>
        <time>2023-05-28T04:52:37.000Z</time>
      </trkpt>
      <trkpt lat="43.69886" lon="3.14764">
        <ele>483</ele>
        <time>2023-05-28T04:52:46.000Z</time>
      </trkpt>
      <trkpt lat="43.69886" lon="3.14764">
        <ele>483.20001220703</ele>
        <time>2023-05-28T04:52:47.000Z</time>
      </trkpt>
      <trkpt lat="43.69886" lon="3.14764">
        <ele>484</ele>
        <time>2023-05-28T04:52:56.000Z</time>
      </trkpt>
      <trkpt lat="43.69883" lon="3.14759">
        <ele>484.20001220703</ele>
        <time>2023-05-28T04:52:57.000Z</time>
      </trkpt>
      <trkpt lat="43.69882" lon="3.14755">
        <ele>485</ele>
        <time>2023-05-28T04:53:05.000Z</time>
      </trkpt>
      <trkpt lat="43.69882" lon="3.14754">
        <ele>485.20001220703</ele>
        <time>2023-05-28T04:53:07.000Z</time>
      </trkpt>
      <trkpt lat="43.69881" lon="3.1475">
        <ele>486</ele>
        <time>2023-05-28T04:53:15.000Z</time>
      </trkpt>
      <trkpt lat="43.69881" lon="3.14748">
        <ele>486.20001220703</ele>
        <time>2023-05-28T04:53:17.000Z</time>
      </trkpt>
      <trkpt lat="43.6988" lon="3.14747">
        <ele>486.79998779297</ele>
        <time>2023-05-28T04:53:23.000Z</time>
      </trkpt>
      <trkpt lat="43.69878" lon="3.14742">
        <ele>487.39999389648</ele>
        <time>2023-05-28T04:53:30.000Z</time>
      </trkpt>
      <trkpt lat="43.69878" lon="3.14741">
        <ele>487.39999389648</ele>
        <time>2023-05-28T04:53:31.000Z</time>
      </trkpt>
      <trkpt lat="43.69877" lon="3.14738">
        <ele>488.39999389648</ele>
        <time>2023-05-28T04:53:39.000Z</time>
      </trkpt>
      <trkpt lat="43.69876" lon="3.14737">
        <ele>488.79998779297</ele>
        <time>2023-05-28T04:53:42.000Z</time>
      </trkpt>
      <trkpt lat="43.69874" lon="3.14735">
        <ele>489.39999389648</ele>
        <time>2023-05-28T04:53:49.000Z</time>
      </trkpt>
      <trkpt lat="43.69873" lon="3.14734">
        <ele>489.79998779297</ele>
        <time>2023-05-28T04:53:52.000Z</time>
      </trkpt>
      <trkpt lat="43.69871" lon="3.14731">
        <ele>490.60000610352</ele>
        <time>2023-05-28T04:54:00.000Z</time>
      </trkpt>
      <trkpt lat="43.69873" lon="3.14727">
        <ele>491.60000610352</ele>
        <time>2023-05-28T04:54:09.000Z</time>
      </trkpt>
      <trkpt lat="43.69874" lon="3.14728">
        <ele>492.20001220703</ele>
        <time>2023-05-28T04:54:16.000Z</time>
      </trkpt>
      <trkpt lat="43.69875" lon="3.14722">
        <ele>492.60000610352</ele>
        <time>2023-05-28T04:54:20.000Z</time>
      </trkpt>
      <trkpt lat="43.69876" lon="3.14721">
        <ele>493</ele>
        <time>2023-05-28T04:54:23.000Z</time>
      </trkpt>
      <trkpt lat="43.69878" lon="3.14719">
        <ele>493.60000610352</ele>
        <time>2023-05-28T04:54:29.000Z</time>
      </trkpt>
      <trkpt lat="43.69878" lon="3.14718">
        <ele>494.20001220703</ele>
        <time>2023-05-28T04:54:33.000Z</time>
      </trkpt>
      <trkpt lat="43.6988" lon="3.14716">
        <ele>494.60000610352</ele>
        <time>2023-05-28T04:54:40.000Z</time>
      </trkpt>
      <trkpt lat="43.6988" lon="3.14716">
        <ele>494.79998779297</ele>
        <time>2023-05-28T04:54:41.000Z</time>
      </trkpt>
      <trkpt lat="43.6988" lon="3.14716">
        <ele>495.39999389648</ele>
        <time>2023-05-28T04:54:47.000Z</time>
      </trkpt>
      <trkpt lat="43.6988" lon="3.14714">
        <ele>495</ele>
        <time>2023-05-28T04:54:55.000Z</time>
      </trkpt>
      <trkpt lat="43.69881" lon="3.14712">
        <ele>495.39999389648</ele>
        <time>2023-05-28T04:55:10.000Z</time>
      </trkpt>
      <trkpt lat="43.6988" lon="3.14708">
        <ele>495.60000610352</ele>
        <time>2023-05-28T04:55:22.000Z</time>
      </trkpt>
      <trkpt lat="43.6988" lon="3.14707">
        <ele>495.79998779297</ele>
        <time>2023-05-28T04:55:24.000Z</time>
      </trkpt>
      <trkpt lat="43.69878" lon="3.14706">
        <ele>496.79998779297</ele>
        <time>2023-05-28T04:55:31.000Z</time>
      </trkpt>
      <trkpt lat="43.69877" lon="3.14703">
        <ele>497.79998779297</ele>
        <time>2023-05-28T04:55:40.000Z</time>
      </trkpt>
      <trkpt lat="43.69874" lon="3.14702">
        <ele>498.79998779297</ele>
        <time>2023-05-28T04:55:47.000Z</time>
      </trkpt>
      <trkpt lat="43.69873" lon="3.14701">
        <ele>498.79998779297</ele>
        <time>2023-05-28T04:55:48.000Z</time>
      </trkpt>
      <trkpt lat="43.69871" lon="3.14701">
        <ele>499.79998779297</ele>
        <time>2023-05-28T04:55:55.000Z</time>
      </trkpt>
      <trkpt lat="43.69872" lon="3.14699">
        <ele>500</ele>
        <time>2023-05-28T04:55:56.000Z</time>
      </trkpt>
      <trkpt lat="43.69875" lon="3.14701">
        <ele>500.79998779297</ele>
        <time>2023-05-28T04:56:04.000Z</time>
      </trkpt>
      <trkpt lat="43.6987" lon="3.14697">
        <ele>501</ele>
        <time>2023-05-28T04:56:05.000Z</time>
      </trkpt>
      <trkpt lat="43.69869" lon="3.14695">
        <ele>501.39999389648</ele>
        <time>2023-05-28T04:56:11.000Z</time>
      </trkpt>
      <trkpt lat="43.69868" lon="3.14695">
        <ele>502.20001220703</ele>
        <time>2023-05-28T04:56:18.000Z</time>
      </trkpt>
      <trkpt lat="43.69868" lon="3.14694">
        <ele>502.20001220703</ele>
        <time>2023-05-28T04:56:19.000Z</time>
      </trkpt>
      <trkpt lat="43.69865" lon="3.14693">
        <ele>503</ele>
        <time>2023-05-28T04:56:29.000Z</time>
      </trkpt>
      <trkpt lat="43.69864" lon="3.14693">
        <ele>503.20001220703</ele>
        <time>2023-05-28T04:56:30.000Z</time>
      </trkpt>
      <trkpt lat="43.69865" lon="3.1469">
        <ele>504.20001220703</ele>
        <time>2023-05-28T04:56:36.000Z</time>
      </trkpt>
      <trkpt lat="43.69864" lon="3.14689">
        <ele>504.39999389648</ele>
        <time>2023-05-28T04:56:38.000Z</time>
      </trkpt>
      <trkpt lat="43.69864" lon="3.14689">
        <ele>505.20001220703</ele>
        <time>2023-05-28T04:56:48.000Z</time>
      </trkpt>
      <trkpt lat="43.69861" lon="3.14686">
        <ele>505</ele>
        <time>2023-05-28T04:57:00.000Z</time>
      </trkpt>
      <trkpt lat="43.69861" lon="3.14686">
        <ele>505.20001220703</ele>
        <time>2023-05-28T04:57:02.000Z</time>
      </trkpt>
      <trkpt lat="43.69859" lon="3.14685">
        <ele>505.39999389648</ele>
        <time>2023-05-28T04:57:07.000Z</time>
      </trkpt>
      <trkpt lat="43.69857" lon="3.14684">
        <ele>506.20001220703</ele>
        <time>2023-05-28T04:57:12.000Z</time>
      </trkpt>
      <trkpt lat="43.69855" lon="3.14683">
        <ele>507</ele>
        <time>2023-05-28T04:57:17.000Z</time>
      </trkpt>
      <trkpt lat="43.69853" lon="3.14683">
        <ele>507.39999389648</ele>
        <time>2023-05-28T04:57:20.000Z</time>
      </trkpt>
      <trkpt lat="43.69851" lon="3.14683">
        <ele>508</ele>
        <time>2023-05-28T04:57:25.000Z</time>
      </trkpt>
      <trkpt lat="43.69853" lon="3.14681">
        <ele>508.39999389648</ele>
        <time>2023-05-28T04:57:28.000Z</time>
      </trkpt>
      <trkpt lat="43.69851" lon="3.14679">
        <ele>509</ele>
        <time>2023-05-28T04:57:33.000Z</time>
      </trkpt>
      <trkpt lat="43.69849" lon="3.1468">
        <ele>509.60000610352</ele>
        <time>2023-05-28T04:57:37.000Z</time>
      </trkpt>
      <trkpt lat="43.69848" lon="3.14678">
        <ele>510</ele>
        <time>2023-05-28T04:57:43.000Z</time>
      </trkpt>
      <trkpt lat="43.69847" lon="3.14675">
        <ele>510</ele>
        <time>2023-05-28T04:58:01.000Z</time>
      </trkpt>
      <trkpt lat="43.69845" lon="3.14673">
        <ele>510.60000610352</ele>
        <time>2023-05-28T04:58:08.000Z</time>
      </trkpt>
      <trkpt lat="43.69844" lon="3.14672">
        <ele>511.20001220703</ele>
        <time>2023-05-28T04:58:11.000Z</time>
      </trkpt>
      <trkpt lat="43.69845" lon="3.14671">
        <ele>511.79998779297</ele>
        <time>2023-05-28T04:58:13.000Z</time>
      </trkpt>
      <trkpt lat="43.69845" lon="3.14673">
        <ele>512.59997558594</ele>
        <time>2023-05-28T04:58:18.000Z</time>
      </trkpt>
      <trkpt lat="43.69843" lon="3.1467">
        <ele>512.79998779297</ele>
        <time>2023-05-28T04:58:23.000Z</time>
      </trkpt>
      <trkpt lat="43.69843" lon="3.14669">
        <ele>513</ele>
        <time>2023-05-28T04:58:26.000Z</time>
      </trkpt>
      <trkpt lat="43.69842" lon="3.14668">
        <ele>513.79998779297</ele>
        <time>2023-05-28T04:58:35.000Z</time>
      </trkpt>
      <trkpt lat="43.69842" lon="3.14668">
        <ele>514</ele>
        <time>2023-05-28T04:58:37.000Z</time>
      </trkpt>
      <trkpt lat="43.69841" lon="3.14667">
        <ele>514.20001220703</ele>
        <time>2023-05-28T04:58:46.000Z</time>
      </trkpt>
      <trkpt lat="43.69838" lon="3.14666">
        <ele>515</ele>
        <time>2023-05-28T04:58:53.000Z</time>
      </trkpt>
      <trkpt lat="43.69837" lon="3.14665">
        <ele>515.20001220703</ele>
        <time>2023-05-28T04:58:55.000Z</time>
      </trkpt>
      <trkpt lat="43.69836" lon="3.14665">
        <ele>516</ele>
        <time>2023-05-28T04:58:59.000Z</time>
      </trkpt>
      <trkpt lat="43.69835" lon="3.14663">
        <ele>516.59997558594</ele>
        <time>2023-05-28T04:59:04.000Z</time>
      </trkpt>
      <trkpt lat="43.69834" lon="3.14661">
        <ele>517</ele>
        <time>2023-05-28T04:59:07.000Z</time>
      </trkpt>
      <trkpt lat="43.69833" lon="3.1466">
        <ele>517.79998779297</ele>
        <time>2023-05-28T04:59:13.000Z</time>
      </trkpt>
      <trkpt lat="43.6983" lon="3.14659">
        <ele>517.40002441406</ele>
        <time>2023-05-28T04:59:21.000Z</time>
      </trkpt>
      <trkpt lat="43.69829" lon="3.14658">
        <ele>518</ele>
        <time>2023-05-28T04:59:26.000Z</time>
      </trkpt>
      <trkpt lat="43.69829" lon="3.14658">
        <ele>518.40002441406</ele>
        <time>2023-05-28T04:59:30.000Z</time>
      </trkpt>
      <trkpt lat="43.69825" lon="3.14655">
        <ele>519.20001220703</ele>
        <time>2023-05-28T04:59:38.000Z</time>
      </trkpt>
      <trkpt lat="43.69821" lon="3.14653">
        <ele>520.20001220703</ele>
        <time>2023-05-28T04:59:46.000Z</time>
      </trkpt>
      <trkpt lat="43.69818" lon="3.14652">
        <ele>521.20001220703</ele>
        <time>2023-05-28T04:59:54.000Z</time>
      </trkpt>
      <trkpt lat="43.69817" lon="3.14652">
        <ele>521.40002441406</ele>
        <time>2023-05-28T04:59:55.000Z</time>
      </trkpt>
      <trkpt lat="43.69815" lon="3.14651">
        <ele>522.20001220703</ele>
        <time>2023-05-28T05:00:01.000Z</time>
      </trkpt>
      <trkpt lat="43.69814" lon="3.14651">
        <ele>522.40002441406</ele>
        <time>2023-05-28T05:00:02.000Z</time>
      </trkpt>
      <trkpt lat="43.69811" lon="3.14649">
        <ele>523</ele>
        <time>2023-05-28T05:00:11.000Z</time>
      </trkpt>
      <trkpt lat="43.6981" lon="3.14649">
        <ele>523.40002441406</ele>
        <time>2023-05-28T05:00:14.000Z</time>
      </trkpt>
      <trkpt lat="43.69807" lon="3.14647">
        <ele>524.20001220703</ele>
        <time>2023-05-28T05:00:20.000Z</time>
      </trkpt>
      <trkpt lat="43.69806" lon="3.14646">
        <ele>524.40002441406</ele>
        <time>2023-05-28T05:00:22.000Z</time>
      </trkpt>
      <trkpt lat="43.69804" lon="3.14644">
        <ele>525</ele>
        <time>2023-05-28T05:00:28.000Z</time>
      </trkpt>
      <trkpt lat="43.69803" lon="3.14642">
        <ele>525.40002441406</ele>
        <time>2023-05-28T05:00:31.000Z</time>
      </trkpt>
      <trkpt lat="43.69801" lon="3.1464">
        <ele>525.79998779297</ele>
        <time>2023-05-28T05:00:36.000Z</time>
      </trkpt>
      <trkpt lat="43.69801" lon="3.14636">
        <ele>526.40002441406</ele>
        <time>2023-05-28T05:00:42.000Z</time>
      </trkpt>
      <trkpt lat="43.69801" lon="3.14634">
        <ele>526.79998779297</ele>
        <time>2023-05-28T05:00:45.000Z</time>
      </trkpt>
      <trkpt lat="43.69801" lon="3.14635">
        <ele>527.20001220703</ele>
        <time>2023-05-28T05:00:53.000Z</time>
      </trkpt>
      <trkpt lat="43.698" lon="3.14628">
        <ele>527.59997558594</ele>
        <time>2023-05-28T05:01:01.000Z</time>
      </trkpt>
      <trkpt lat="43.69801" lon="3.14629">
        <ele>527.59997558594</ele>
        <time>2023-05-28T05:01:13.000Z</time>
      </trkpt>
      <trkpt lat="43.69802" lon="3.14626">
        <ele>527.79998779297</ele>
        <time>2023-05-28T05:01:29.000Z</time>
      </trkpt>
      <trkpt lat="43.69802" lon="3.14624">
        <ele>527.59997558594</ele>
        <time>2023-05-28T05:01:46.000Z</time>
      </trkpt>
      <trkpt lat="43.69802" lon="3.14621">
        <ele>527.59997558594</ele>
        <time>2023-05-28T05:01:54.000Z</time>
      </trkpt>
      <trkpt lat="43.69802" lon="3.14613">
        <ele>528</ele>
        <time>2023-05-28T05:02:01.000Z</time>
      </trkpt>
      <trkpt lat="43.69802" lon="3.1461">
        <ele>528.59997558594</ele>
        <time>2023-05-28T05:02:07.000Z</time>
      </trkpt>
      <trkpt lat="43.69802" lon="3.1461">
        <ele>528.79998779297</ele>
        <time>2023-05-28T05:02:08.000Z</time>
      </trkpt>
      <trkpt lat="43.69802" lon="3.14602">
        <ele>529.59997558594</ele>
        <time>2023-05-28T05:02:16.000Z</time>
      </trkpt>
      <trkpt lat="43.69803" lon="3.14595">
        <ele>530.20001220703</ele>
        <time>2023-05-28T05:02:24.000Z</time>
      </trkpt>
      <trkpt lat="43.69801" lon="3.14588">
        <ele>530.40002441406</ele>
        <time>2023-05-28T05:02:30.000Z</time>
      </trkpt>
      <trkpt lat="43.69801" lon="3.14584">
        <ele>530.59997558594</ele>
        <time>2023-05-28T05:02:34.000Z</time>
      </trkpt>
      <trkpt lat="43.69802" lon="3.14581">
        <ele>530.79998779297</ele>
        <time>2023-05-28T05:02:37.000Z</time>
      </trkpt>
      <trkpt lat="43.69802" lon="3.14573">
        <ele>531.40002441406</ele>
        <time>2023-05-28T05:02:44.000Z</time>
      </trkpt>
      <trkpt lat="43.69803" lon="3.14569">
        <ele>531.79998779297</ele>
        <time>2023-05-28T05:02:47.000Z</time>
      </trkpt>
      <trkpt lat="43.69803" lon="3.14568">
        <ele>531.79998779297</ele>
        <time>2023-05-28T05:02:48.000Z</time>
      </trkpt>
      <trkpt lat="43.69804" lon="3.14565">
        <ele>532.20001220703</ele>
        <time>2023-05-28T05:02:51.000Z</time>
      </trkpt>
      <trkpt lat="43.69804" lon="3.14559">
        <ele>532.59997558594</ele>
        <time>2023-05-28T05:02:56.000Z</time>
      </trkpt>
      <trkpt lat="43.69804" lon="3.14557">
        <ele>532.59997558594</ele>
        <time>2023-05-28T05:02:57.000Z</time>
      </trkpt>
      <trkpt lat="43.69803" lon="3.14554">
        <ele>532.79998779297</ele>
        <time>2023-05-28T05:03:00.000Z</time>
      </trkpt>
      <trkpt lat="43.69804" lon="3.14547">
        <ele>533.20001220703</ele>
        <time>2023-05-28T05:03:06.000Z</time>
      </trkpt>
      <trkpt lat="43.69804" lon="3.14543">
        <ele>533.59997558594</ele>
        <time>2023-05-28T05:03:10.000Z</time>
      </trkpt>
      <trkpt lat="43.69805" lon="3.1454">
        <ele>533.79998779297</ele>
        <time>2023-05-28T05:03:13.000Z</time>
      </trkpt>
      <trkpt lat="43.69805" lon="3.14539">
        <ele>533.79998779297</ele>
        <time>2023-05-28T05:03:14.000Z</time>
      </trkpt>
      <trkpt lat="43.69806" lon="3.14531">
        <ele>534.20001220703</ele>
        <time>2023-05-28T05:03:21.000Z</time>
      </trkpt>
      <trkpt lat="43.69805" lon="3.14528">
        <ele>534.79998779297</ele>
        <time>2023-05-28T05:03:26.000Z</time>
      </trkpt>
      <trkpt lat="43.69805" lon="3.14526">
        <ele>535</ele>
        <time>2023-05-28T05:03:28.000Z</time>
      </trkpt>
      <trkpt lat="43.69805" lon="3.14521">
        <ele>535.40002441406</ele>
        <time>2023-05-28T05:03:35.000Z</time>
      </trkpt>
      <trkpt lat="43.69806" lon="3.14519">
        <ele>535.79998779297</ele>
        <time>2023-05-28T05:03:40.000Z</time>
      </trkpt>
      <trkpt lat="43.69806" lon="3.14515">
        <ele>535.79998779297</ele>
        <time>2023-05-28T05:03:42.000Z</time>
      </trkpt>
      <trkpt lat="43.69807" lon="3.14508">
        <ele>536</ele>
        <time>2023-05-28T05:03:49.000Z</time>
      </trkpt>
      <trkpt lat="43.69807" lon="3.14502">
        <ele>536.40002441406</ele>
        <time>2023-05-28T05:03:55.000Z</time>
      </trkpt>
      <trkpt lat="43.69805" lon="3.14498">
        <ele>536.79998779297</ele>
        <time>2023-05-28T05:03:59.000Z</time>
      </trkpt>
      <trkpt lat="43.69804" lon="3.14493">
        <ele>537.20001220703</ele>
        <time>2023-05-28T05:04:04.000Z</time>
      </trkpt>
      <trkpt lat="43.69805" lon="3.14487">
        <ele>537.59997558594</ele>
        <time>2023-05-28T05:04:11.000Z</time>
      </trkpt>
      <trkpt lat="43.69804" lon="3.14482">
        <ele>537.79998779297</ele>
        <time>2023-05-28T05:04:17.000Z</time>
      </trkpt>
      <trkpt lat="43.69804" lon="3.14483">
        <ele>538</ele>
        <time>2023-05-28T05:04:18.000Z</time>
      </trkpt>
      <trkpt lat="43.69802" lon="3.14479">
        <ele>538.20001220703</ele>
        <time>2023-05-28T05:04:23.000Z</time>
      </trkpt>
      <trkpt lat="43.698" lon="3.14474">
        <ele>539</ele>
        <time>2023-05-28T05:04:31.000Z</time>
      </trkpt>
      <trkpt lat="43.698" lon="3.14473">
        <ele>539.20001220703</ele>
        <time>2023-05-28T05:04:33.000Z</time>
      </trkpt>
      <trkpt lat="43.698" lon="3.14469">
        <ele>539.59997558594</ele>
        <time>2023-05-28T05:04:40.000Z</time>
      </trkpt>
      <trkpt lat="43.698" lon="3.14467">
        <ele>540</ele>
        <time>2023-05-28T05:04:43.000Z</time>
      </trkpt>
      <trkpt lat="43.698" lon="3.14465">
        <ele>540.40002441406</ele>
        <time>2023-05-28T05:04:47.000Z</time>
      </trkpt>
      <trkpt lat="43.69801" lon="3.14464">
        <ele>541.20001220703</ele>
        <time>2023-05-28T05:04:53.000Z</time>
      </trkpt>
      <trkpt lat="43.69803" lon="3.14462">
        <ele>541.79998779297</ele>
        <time>2023-05-28T05:05:02.000Z</time>
      </trkpt>
      <trkpt lat="43.69805" lon="3.1446">
        <ele>541.59997558594</ele>
        <time>2023-05-28T05:05:12.000Z</time>
      </trkpt>
      <trkpt lat="43.69805" lon="3.14458">
        <ele>542.20001220703</ele>
        <time>2023-05-28T05:05:17.000Z</time>
      </trkpt>
      <trkpt lat="43.69806" lon="3.14457">
        <ele>542.59997558594</ele>
        <time>2023-05-28T05:05:25.000Z</time>
      </trkpt>
      <trkpt lat="43.69806" lon="3.14453">
        <ele>542.79998779297</ele>
        <time>2023-05-28T05:05:31.000Z</time>
      </trkpt>
      <trkpt lat="43.69806" lon="3.14451">
        <ele>543.40002441406</ele>
        <time>2023-05-28T05:05:34.000Z</time>
      </trkpt>
      <trkpt lat="43.69806" lon="3.14449">
        <ele>543.79998779297</ele>
        <time>2023-05-28T05:05:39.000Z</time>
      </trkpt>
      <trkpt lat="43.69807" lon="3.14446">
        <ele>544.20001220703</ele>
        <time>2023-05-28T05:05:46.000Z</time>
      </trkpt>
      <trkpt lat="43.69808" lon="3.14446">
        <ele>544.40002441406</ele>
        <time>2023-05-28T05:05:48.000Z</time>
      </trkpt>
      <trkpt lat="43.69808" lon="3.14443">
        <ele>545</ele>
        <time>2023-05-28T05:05:53.000Z</time>
      </trkpt>
      <trkpt lat="43.69808" lon="3.1444">
        <ele>545.40002441406</ele>
        <time>2023-05-28T05:05:57.000Z</time>
      </trkpt>
      <trkpt lat="43.69808" lon="3.14439">
        <ele>545.79998779297</ele>
        <time>2023-05-28T05:06:00.000Z</time>
      </trkpt>
      <trkpt lat="43.69807" lon="3.14436">
        <ele>546.40002441406</ele>
        <time>2023-05-28T05:06:06.000Z</time>
      </trkpt>
      <trkpt lat="43.69807" lon="3.14436">
        <ele>546.79998779297</ele>
        <time>2023-05-28T05:06:08.000Z</time>
      </trkpt>
      <trkpt lat="43.69806" lon="3.14434">
        <ele>547.40002441406</ele>
        <time>2023-05-28T05:06:14.000Z</time>
      </trkpt>
      <trkpt lat="43.69805" lon="3.14432">
        <ele>547.59997558594</ele>
        <time>2023-05-28T05:06:15.000Z</time>
      </trkpt>
      <trkpt lat="43.69805" lon="3.1443">
        <ele>547.59997558594</ele>
        <time>2023-05-28T05:06:20.000Z</time>
      </trkpt>
      <trkpt lat="43.69805" lon="3.14429">
        <ele>548.59997558594</ele>
        <time>2023-05-28T05:06:27.000Z</time>
      </trkpt>
      <trkpt lat="43.69806" lon="3.14424">
        <ele>548.40002441406</ele>
        <time>2023-05-28T05:06:38.000Z</time>
      </trkpt>
      <trkpt lat="43.69807" lon="3.14421">
        <ele>549.40002441406</ele>
        <time>2023-05-28T05:06:45.000Z</time>
      </trkpt>
      <trkpt lat="43.69807" lon="3.14419">
        <ele>549.59997558594</ele>
        <time>2023-05-28T05:06:47.000Z</time>
      </trkpt>
      <trkpt lat="43.69805" lon="3.14416">
        <ele>550.20001220703</ele>
        <time>2023-05-28T05:06:53.000Z</time>
      </trkpt>
      <trkpt lat="43.69805" lon="3.14415">
        <ele>550.79998779297</ele>
        <time>2023-05-28T05:06:56.000Z</time>
      </trkpt>
      <trkpt lat="43.69805" lon="3.14412">
        <ele>551.20001220703</ele>
        <time>2023-05-28T05:07:01.000Z</time>
      </trkpt>
      <trkpt lat="43.69804" lon="3.1441">
        <ele>551.79998779297</ele>
        <time>2023-05-28T05:07:05.000Z</time>
      </trkpt>
      <trkpt lat="43.69804" lon="3.14409">
        <ele>552.20001220703</ele>
        <time>2023-05-28T05:07:09.000Z</time>
      </trkpt>
      <trkpt lat="43.69804" lon="3.14407">
        <ele>552.40002441406</ele>
        <time>2023-05-28T05:07:17.000Z</time>
      </trkpt>
      <trkpt lat="43.69804" lon="3.14406">
        <ele>552.79998779297</ele>
        <time>2023-05-28T05:07:22.000Z</time>
      </trkpt>
      <trkpt lat="43.69804" lon="3.14405">
        <ele>553</ele>
        <time>2023-05-28T05:07:24.000Z</time>
      </trkpt>
      <trkpt lat="43.69805" lon="3.14402">
        <ele>553.20001220703</ele>
        <time>2023-05-28T05:07:33.000Z</time>
      </trkpt>
      <trkpt lat="43.69806" lon="3.14399">
        <ele>553.79998779297</ele>
        <time>2023-05-28T05:07:39.000Z</time>
      </trkpt>
      <trkpt lat="43.69807" lon="3.14396">
        <ele>554.59997558594</ele>
        <time>2023-05-28T05:07:46.000Z</time>
      </trkpt>
      <trkpt lat="43.69808" lon="3.14396">
        <ele>554.79998779297</ele>
        <time>2023-05-28T05:07:48.000Z</time>
      </trkpt>
      <trkpt lat="43.69809" lon="3.14395">
        <ele>555.59997558594</ele>
        <time>2023-05-28T05:07:53.000Z</time>
      </trkpt>
      <trkpt lat="43.69811" lon="3.14395">
        <ele>555.79998779297</ele>
        <time>2023-05-28T05:07:56.000Z</time>
      </trkpt>
      <trkpt lat="43.69811" lon="3.14395">
        <ele>556.20001220703</ele>
        <time>2023-05-28T05:08:00.000Z</time>
      </trkpt>
      <trkpt lat="43.69813" lon="3.14392">
        <ele>556.40002441406</ele>
        <time>2023-05-28T05:08:16.000Z</time>
      </trkpt>
      <trkpt lat="43.69814" lon="3.14393">
        <ele>557</ele>
        <time>2023-05-28T05:08:20.000Z</time>
      </trkpt>
      <trkpt lat="43.69814" lon="3.14392">
        <ele>557.40002441406</ele>
        <time>2023-05-28T05:08:22.000Z</time>
      </trkpt>
      <trkpt lat="43.69815" lon="3.14392">
        <ele>558.20001220703</ele>
        <time>2023-05-28T05:08:30.000Z</time>
      </trkpt>
      <trkpt lat="43.69815" lon="3.1439">
        <ele>558.59997558594</ele>
        <time>2023-05-28T05:08:37.000Z</time>
      </trkpt>
      <trkpt lat="43.69815" lon="3.14389">
        <ele>558.79998779297</ele>
        <time>2023-05-28T05:08:48.000Z</time>
      </trkpt>
      <trkpt lat="43.69814" lon="3.14389">
        <ele>558.79998779297</ele>
        <time>2023-05-28T05:08:57.000Z</time>
      </trkpt>
      <trkpt lat="43.69814" lon="3.14388">
        <ele>559.20001220703</ele>
        <time>2023-05-28T05:09:05.000Z</time>
      </trkpt>
      <trkpt lat="43.69814" lon="3.14389">
        <ele>559.20001220703</ele>
        <time>2023-05-28T05:09:08.000Z</time>
      </trkpt>
      <trkpt lat="43.69814" lon="3.14388">
        <ele>558.79998779297</ele>
        <time>2023-05-28T05:09:16.000Z</time>
      </trkpt>
      <trkpt lat="43.69814" lon="3.14386">
        <ele>559</ele>
        <time>2023-05-28T05:09:24.000Z</time>
      </trkpt>
      <trkpt lat="43.69813" lon="3.14388">
        <ele>559</ele>
        <time>2023-05-28T05:09:32.000Z</time>
      </trkpt>
      <trkpt lat="43.69813" lon="3.14388">
        <ele>559</ele>
        <time>2023-05-28T05:09:43.000Z</time>
      </trkpt>
      <trkpt lat="43.69812" lon="3.14388">
        <ele>559</ele>
        <time>2023-05-28T05:09:53.000Z</time>
      </trkpt>
      <trkpt lat="43.69811" lon="3.14384">
        <ele>559.40002441406</ele>
        <time>2023-05-28T05:10:01.000Z</time>
      </trkpt>
      <trkpt lat="43.69811" lon="3.14384">
        <ele>560.20001220703</ele>
        <time>2023-05-28T05:10:07.000Z</time>
      </trkpt>
      <trkpt lat="43.69811" lon="3.14383">
        <ele>560.20001220703</ele>
        <time>2023-05-28T05:10:11.000Z</time>
      </trkpt>
      <trkpt lat="43.69811" lon="3.14382">
        <ele>560.20001220703</ele>
        <time>2023-05-28T05:10:15.000Z</time>
      </trkpt>
      <trkpt lat="43.69811" lon="3.14378">
        <ele>560.40002441406</ele>
        <time>2023-05-28T05:10:23.000Z</time>
      </trkpt>
      <trkpt lat="43.69812" lon="3.14378">
        <ele>560.40002441406</ele>
        <time>2023-05-28T05:10:30.000Z</time>
      </trkpt>
      <trkpt lat="43.69812" lon="3.14378">
        <ele>560.40002441406</ele>
        <time>2023-05-28T05:10:39.000Z</time>
      </trkpt>
      <trkpt lat="43.69811" lon="3.14379">
        <ele>560.40002441406</ele>
        <time>2023-05-28T05:10:54.000Z</time>
      </trkpt>
      <trkpt lat="43.69812" lon="3.1438">
        <ele>560.59997558594</ele>
        <time>2023-05-28T05:11:17.000Z</time>
      </trkpt>
      <trkpt lat="43.69812" lon="3.1438">
        <ele>560.20001220703</ele>
        <time>2023-05-28T05:11:30.000Z</time>
      </trkpt>
      <trkpt lat="43.69812" lon="3.1438">
        <ele>560.20001220703</ele>
        <time>2023-05-28T05:11:54.000Z</time>
      </trkpt>
      <trkpt lat="43.69812" lon="3.1438">
        <ele>560.40002441406</ele>
        <time>2023-05-28T05:12:07.000Z</time>
      </trkpt>
      <trkpt lat="43.69811" lon="3.1438">
        <ele>560.20001220703</ele>
        <time>2023-05-28T05:12:23.000Z</time>
      </trkpt>
      <trkpt lat="43.69811" lon="3.14382">
        <ele>560.59997558594</ele>
        <time>2023-05-28T05:12:29.000Z</time>
      </trkpt>
      <trkpt lat="43.69811" lon="3.14384">
        <ele>560.59997558594</ele>
        <time>2023-05-28T05:12:41.000Z</time>
      </trkpt>
      <trkpt lat="43.69811" lon="3.14383">
        <ele>560.20001220703</ele>
        <time>2023-05-28T05:12:51.000Z</time>
      </trkpt>
      <trkpt lat="43.69811" lon="3.14383">
        <ele>560.40002441406</ele>
        <time>2023-05-28T05:12:58.000Z</time>
      </trkpt>
      <trkpt lat="43.69811" lon="3.14381">
        <ele>560.59997558594</ele>
        <time>2023-05-28T05:13:04.000Z</time>
      </trkpt>
      <trkpt lat="43.69812" lon="3.1438">
        <ele>560.79998779297</ele>
        <time>2023-05-28T05:13:11.000Z</time>
      </trkpt>
      <trkpt lat="43.69812" lon="3.14381">
        <ele>560.79998779297</ele>
        <time>2023-05-28T05:13:18.000Z</time>
      </trkpt>
      <trkpt lat="43.69812" lon="3.14379">
        <ele>560.59997558594</ele>
        <time>2023-05-28T05:13:26.000Z</time>
      </trkpt>
      <trkpt lat="43.69813" lon="3.14378">
        <ele>560.79998779297</ele>
        <time>2023-05-28T05:13:31.000Z</time>
      </trkpt>
      <trkpt lat="43.69813" lon="3.14382">
        <ele>560.59997558594</ele>
        <time>2023-05-28T05:13:37.000Z</time>
      </trkpt>
      <trkpt lat="43.69813" lon="3.14382">
        <ele>560.20001220703</ele>
        <time>2023-05-28T05:13:44.000Z</time>
      </trkpt>
      <trkpt lat="43.69813" lon="3.14382">
        <ele>560</ele>
        <time>2023-05-28T05:13:52.000Z</time>
      </trkpt>
      <trkpt lat="43.69812" lon="3.14382">
        <ele>560.40002441406</ele>
        <time>2023-05-28T05:13:57.000Z</time>
      </trkpt>
      <trkpt lat="43.69812" lon="3.14379">
        <ele>560.59997558594</ele>
        <time>2023-05-28T05:14:02.000Z</time>
      </trkpt>
      <trkpt lat="43.69812" lon="3.14378">
        <ele>560.79998779297</ele>
        <time>2023-05-28T05:14:06.000Z</time>
      </trkpt>
      <trkpt lat="43.69814" lon="3.14378">
        <ele>560.59997558594</ele>
        <time>2023-05-28T05:14:12.000Z</time>
      </trkpt>
      <trkpt lat="43.69813" lon="3.14373">
        <ele>560.79998779297</ele>
        <time>2023-05-28T05:14:20.000Z</time>
      </trkpt>
      <trkpt lat="43.69814" lon="3.1437">
        <ele>561.40002441406</ele>
        <time>2023-05-28T05:14:25.000Z</time>
      </trkpt>
      <trkpt lat="43.69814" lon="3.1437">
        <ele>561.40002441406</ele>
        <time>2023-05-28T05:14:26.000Z</time>
      </trkpt>
      <trkpt lat="43.69814" lon="3.14369">
        <ele>562.40002441406</ele>
        <time>2023-05-28T05:14:30.000Z</time>
      </trkpt>
      <trkpt lat="43.69814" lon="3.14369">
        <ele>562.79998779297</ele>
        <time>2023-05-28T05:14:32.000Z</time>
      </trkpt>
      <trkpt lat="43.69813" lon="3.1437">
        <ele>562.59997558594</ele>
        <time>2023-05-28T05:14:43.000Z</time>
      </trkpt>
      <trkpt lat="43.69812" lon="3.14367">
        <ele>562.79998779297</ele>
        <time>2023-05-28T05:14:50.000Z</time>
      </trkpt>
      <trkpt lat="43.69812" lon="3.14364">
        <ele>563.59997558594</ele>
        <time>2023-05-28T05:14:56.000Z</time>
      </trkpt>
      <trkpt lat="43.69812" lon="3.14364">
        <ele>563.59997558594</ele>
        <time>2023-05-28T05:14:57.000Z</time>
      </trkpt>
      <trkpt lat="43.69811" lon="3.14361">
        <ele>564.20001220703</ele>
        <time>2023-05-28T05:15:04.000Z</time>
      </trkpt>
      <trkpt lat="43.69809" lon="3.14358">
        <ele>564.59997558594</ele>
        <time>2023-05-28T05:15:08.000Z</time>
      </trkpt>
      <trkpt lat="43.6981" lon="3.14354">
        <ele>564.79998779297</ele>
        <time>2023-05-28T05:15:11.000Z</time>
      </trkpt>
      <trkpt lat="43.69809" lon="3.1435">
        <ele>565.20001220703</ele>
        <time>2023-05-28T05:15:18.000Z</time>
      </trkpt>
      <trkpt lat="43.69809" lon="3.14348">
        <ele>565.59997558594</ele>
        <time>2023-05-28T05:15:22.000Z</time>
      </trkpt>
      <trkpt lat="43.69808" lon="3.14347">
        <ele>565.79998779297</ele>
        <time>2023-05-28T05:15:25.000Z</time>
      </trkpt>
      <trkpt lat="43.69811" lon="3.14342">
        <ele>566.40002441406</ele>
        <time>2023-05-28T05:15:34.000Z</time>
      </trkpt>
      <trkpt lat="43.69811" lon="3.14341">
        <ele>566.59997558594</ele>
        <time>2023-05-28T05:15:36.000Z</time>
      </trkpt>
      <trkpt lat="43.69811" lon="3.14339">
        <ele>567</ele>
        <time>2023-05-28T05:15:41.000Z</time>
      </trkpt>
      <trkpt lat="43.69811" lon="3.14335">
        <ele>567.40002441406</ele>
        <time>2023-05-28T05:15:48.000Z</time>
      </trkpt>
      <trkpt lat="43.6981" lon="3.14333">
        <ele>567.59997558594</ele>
        <time>2023-05-28T05:15:51.000Z</time>
      </trkpt>
      <trkpt lat="43.69811" lon="3.1433">
        <ele>568</ele>
        <time>2023-05-28T05:15:56.000Z</time>
      </trkpt>
      <trkpt lat="43.69812" lon="3.14326">
        <ele>568.59997558594</ele>
        <time>2023-05-28T05:16:05.000Z</time>
      </trkpt>
      <trkpt lat="43.69813" lon="3.14322">
        <ele>569.20001220703</ele>
        <time>2023-05-28T05:16:12.000Z</time>
      </trkpt>
      <trkpt lat="43.69814" lon="3.14318">
        <ele>569.79998779297</ele>
        <time>2023-05-28T05:16:20.000Z</time>
      </trkpt>
      <trkpt lat="43.69814" lon="3.14318">
        <ele>569.79998779297</ele>
        <time>2023-05-28T05:16:21.000Z</time>
      </trkpt>
      <trkpt lat="43.69815" lon="3.14314">
        <ele>570.20001220703</ele>
        <time>2023-05-28T05:16:29.000Z</time>
      </trkpt>
      <trkpt lat="43.69815" lon="3.14311">
        <ele>570.79998779297</ele>
        <time>2023-05-28T05:16:35.000Z</time>
      </trkpt>
      <trkpt lat="43.69815" lon="3.14311">
        <ele>571</ele>
        <time>2023-05-28T05:16:37.000Z</time>
      </trkpt>
      <trkpt lat="43.69815" lon="3.14309">
        <ele>571.59997558594</ele>
        <time>2023-05-28T05:16:46.000Z</time>
      </trkpt>
      <trkpt lat="43.69816" lon="3.14306">
        <ele>571.79998779297</ele>
        <time>2023-05-28T05:16:50.000Z</time>
      </trkpt>
      <trkpt lat="43.69816" lon="3.14305">
        <ele>572.40002441406</ele>
        <time>2023-05-28T05:16:54.000Z</time>
      </trkpt>
      <trkpt lat="43.69816" lon="3.14302">
        <ele>572.59997558594</ele>
        <time>2023-05-28T05:17:03.000Z</time>
      </trkpt>
      <trkpt lat="43.69817" lon="3.14301">
        <ele>572.79998779297</ele>
        <time>2023-05-28T05:17:05.000Z</time>
      </trkpt>
      <trkpt lat="43.69817" lon="3.14298">
        <ele>573.79998779297</ele>
        <time>2023-05-28T05:17:10.000Z</time>
      </trkpt>
      <trkpt lat="43.69817" lon="3.14294">
        <ele>573.79998779297</ele>
        <time>2023-05-28T05:17:16.000Z</time>
      </trkpt>
      <trkpt lat="43.69816" lon="3.14293">
        <ele>574</ele>
        <time>2023-05-28T05:17:17.000Z</time>
      </trkpt>
      <trkpt lat="43.69816" lon="3.14286">
        <ele>574</ele>
        <time>2023-05-28T05:17:25.000Z</time>
      </trkpt>
      <trkpt lat="43.69817" lon="3.14282">
        <ele>574.40002441406</ele>
        <time>2023-05-28T05:17:34.000Z</time>
      </trkpt>
      <trkpt lat="43.69817" lon="3.14279">
        <ele>575</ele>
        <time>2023-05-28T05:17:40.000Z</time>
      </trkpt>
      <trkpt lat="43.69818" lon="3.14278">
        <ele>575</ele>
        <time>2023-05-28T05:17:41.000Z</time>
      </trkpt>
      <trkpt lat="43.69818" lon="3.14273">
        <ele>575.59997558594</ele>
        <time>2023-05-28T05:17:49.000Z</time>
      </trkpt>
      <trkpt lat="43.69818" lon="3.1427">
        <ele>576</ele>
        <time>2023-05-28T05:17:52.000Z</time>
      </trkpt>
      <trkpt lat="43.69817" lon="3.14268">
        <ele>576.40002441406</ele>
        <time>2023-05-28T05:17:56.000Z</time>
      </trkpt>
      <trkpt lat="43.69817" lon="3.14263">
        <ele>577</ele>
        <time>2023-05-28T05:18:03.000Z</time>
      </trkpt>
      <trkpt lat="43.69817" lon="3.14261">
        <ele>577</ele>
        <time>2023-05-28T05:18:04.000Z</time>
      </trkpt>
      <trkpt lat="43.69818" lon="3.14256">
        <ele>577.40002441406</ele>
        <time>2023-05-28T05:18:09.000Z</time>
      </trkpt>
      <trkpt lat="43.69818" lon="3.14251">
        <ele>577.79998779297</ele>
        <time>2023-05-28T05:18:15.000Z</time>
      </trkpt>
      <trkpt lat="43.69818" lon="3.1425">
        <ele>578</ele>
        <time>2023-05-28T05:18:17.000Z</time>
      </trkpt>
      <trkpt lat="43.69818" lon="3.14247">
        <ele>578.40002441406</ele>
        <time>2023-05-28T05:18:21.000Z</time>
      </trkpt>
      <trkpt lat="43.69819" lon="3.14242">
        <ele>578.59997558594</ele>
        <time>2023-05-28T05:18:28.000Z</time>
      </trkpt>
      <trkpt lat="43.6982" lon="3.14237">
        <ele>578.59997558594</ele>
        <time>2023-05-28T05:18:33.000Z</time>
      </trkpt>
      <trkpt lat="43.6982" lon="3.14234">
        <ele>578.20001220703</ele>
        <time>2023-05-28T05:18:39.000Z</time>
      </trkpt>
      <trkpt lat="43.6982" lon="3.14228">
        <ele>577.59997558594</ele>
        <time>2023-05-28T05:18:47.000Z</time>
      </trkpt>
      <trkpt lat="43.69822" lon="3.14224">
        <ele>577.20001220703</ele>
        <time>2023-05-28T05:18:54.000Z</time>
      </trkpt>
      <trkpt lat="43.69822" lon="3.14222">
        <ele>577</ele>
        <time>2023-05-28T05:18:56.000Z</time>
      </trkpt>
      <trkpt lat="43.69822" lon="3.14219">
        <ele>576.79998779297</ele>
        <time>2023-05-28T05:19:01.000Z</time>
      </trkpt>
      <trkpt lat="43.69823" lon="3.14213">
        <ele>576.40002441406</ele>
        <time>2023-05-28T05:19:09.000Z</time>
      </trkpt>
      <trkpt lat="43.69823" lon="3.14208">
        <ele>576.79998779297</ele>
        <time>2023-05-28T05:19:16.000Z</time>
      </trkpt>
      <trkpt lat="43.69823" lon="3.14204">
        <ele>576.79998779297</ele>
        <time>2023-05-28T05:19:22.000Z</time>
      </trkpt>
      <trkpt lat="43.69822" lon="3.14201">
        <ele>576.79998779297</ele>
        <time>2023-05-28T05:19:28.000Z</time>
      </trkpt>
      <trkpt lat="43.69821" lon="3.14196">
        <ele>576.40002441406</ele>
        <time>2023-05-28T05:19:35.000Z</time>
      </trkpt>
      <trkpt lat="43.69822" lon="3.14191">
        <ele>576</ele>
        <time>2023-05-28T05:19:40.000Z</time>
      </trkpt>
      <trkpt lat="43.69822" lon="3.14189">
        <ele>576</ele>
        <time>2023-05-28T05:19:43.000Z</time>
      </trkpt>
      <trkpt lat="43.6982" lon="3.14184">
        <ele>575.79998779297</ele>
        <time>2023-05-28T05:19:50.000Z</time>
      </trkpt>
      <trkpt lat="43.69817" lon="3.14183">
        <ele>576</ele>
        <time>2023-05-28T05:19:56.000Z</time>
      </trkpt>
      <trkpt lat="43.69815" lon="3.14182">
        <ele>576.40002441406</ele>
        <time>2023-05-28T05:20:04.000Z</time>
      </trkpt>
      <trkpt lat="43.69812" lon="3.14182">
        <ele>576.59997558594</ele>
        <time>2023-05-28T05:20:10.000Z</time>
      </trkpt>
      <trkpt lat="43.69812" lon="3.14181">
        <ele>577</ele>
        <time>2023-05-28T05:20:13.000Z</time>
      </trkpt>
      <trkpt lat="43.69812" lon="3.14181">
        <ele>577.40002441406</ele>
        <time>2023-05-28T05:20:16.000Z</time>
      </trkpt>
      <trkpt lat="43.6981" lon="3.1418">
        <ele>578</ele>
        <time>2023-05-28T05:20:21.000Z</time>
      </trkpt>
      <trkpt lat="43.69809" lon="3.1418">
        <ele>578.20001220703</ele>
        <time>2023-05-28T05:20:24.000Z</time>
      </trkpt>
      <trkpt lat="43.69807" lon="3.1418">
        <ele>578.59997558594</ele>
        <time>2023-05-28T05:20:30.000Z</time>
      </trkpt>
      <trkpt lat="43.69806" lon="3.14179">
        <ele>579.20001220703</ele>
        <time>2023-05-28T05:20:36.000Z</time>
      </trkpt>
      <trkpt lat="43.69805" lon="3.1418">
        <ele>579.20001220703</ele>
        <time>2023-05-28T05:20:38.000Z</time>
      </trkpt>
      <trkpt lat="43.69803" lon="3.14178">
        <ele>580</ele>
        <time>2023-05-28T05:20:45.000Z</time>
      </trkpt>
      <trkpt lat="43.69803" lon="3.14179">
        <ele>580.20001220703</ele>
        <time>2023-05-28T05:20:47.000Z</time>
      </trkpt>
      <trkpt lat="43.69801" lon="3.14176">
        <ele>580.59997558594</ele>
        <time>2023-05-28T05:20:52.000Z</time>
      </trkpt>
      <trkpt lat="43.69799" lon="3.14175">
        <ele>581.20001220703</ele>
        <time>2023-05-28T05:21:00.000Z</time>
      </trkpt>
      <trkpt lat="43.69799" lon="3.14175">
        <ele>581.20001220703</ele>
        <time>2023-05-28T05:21:02.000Z</time>
      </trkpt>
      <trkpt lat="43.69799" lon="3.14172">
        <ele>581.40002441406</ele>
        <time>2023-05-28T05:21:13.000Z</time>
      </trkpt>
      <trkpt lat="43.698" lon="3.1417">
        <ele>581.40002441406</ele>
        <time>2023-05-28T05:21:21.000Z</time>
      </trkpt>
      <trkpt lat="43.69799" lon="3.14169">
        <ele>582</ele>
        <time>2023-05-28T05:21:26.000Z</time>
      </trkpt>
      <trkpt lat="43.69799" lon="3.14169">
        <ele>582.20001220703</ele>
        <time>2023-05-28T05:21:28.000Z</time>
      </trkpt>
      <trkpt lat="43.69799" lon="3.14167">
        <ele>582.20001220703</ele>
        <time>2023-05-28T05:21:32.000Z</time>
      </trkpt>
      <trkpt lat="43.69798" lon="3.14169">
        <ele>582.20001220703</ele>
        <time>2023-05-28T05:21:40.000Z</time>
      </trkpt>
      <trkpt lat="43.69797" lon="3.14174">
        <ele>582.20001220703</ele>
        <time>2023-05-28T05:21:47.000Z</time>
      </trkpt>
      <trkpt lat="43.69795" lon="3.14175">
        <ele>582.40002441406</ele>
        <time>2023-05-28T05:21:53.000Z</time>
      </trkpt>
      <trkpt lat="43.69793" lon="3.14175">
        <ele>582.59997558594</ele>
        <time>2023-05-28T05:22:00.000Z</time>
      </trkpt>
      <trkpt lat="43.69789" lon="3.14175">
        <ele>582.79998779297</ele>
        <time>2023-05-28T05:22:07.000Z</time>
      </trkpt>
      <trkpt lat="43.69786" lon="3.14176">
        <ele>583</ele>
        <time>2023-05-28T05:22:12.000Z</time>
      </trkpt>
      <trkpt lat="43.69784" lon="3.14175">
        <ele>583.40002441406</ele>
        <time>2023-05-28T05:22:15.000Z</time>
      </trkpt>
      <trkpt lat="43.69782" lon="3.14175">
        <ele>584</ele>
        <time>2023-05-28T05:22:20.000Z</time>
      </trkpt>
      <trkpt lat="43.69782" lon="3.14175">
        <ele>584.40002441406</ele>
        <time>2023-05-28T05:22:23.000Z</time>
      </trkpt>
      <trkpt lat="43.6978" lon="3.14176">
        <ele>584.59997558594</ele>
        <time>2023-05-28T05:22:27.000Z</time>
      </trkpt>
      <trkpt lat="43.69777" lon="3.14176">
        <ele>585.40002441406</ele>
        <time>2023-05-28T05:22:35.000Z</time>
      </trkpt>
      <trkpt lat="43.69777" lon="3.14177">
        <ele>585.40002441406</ele>
        <time>2023-05-28T05:22:36.000Z</time>
      </trkpt>
      <trkpt lat="43.69772" lon="3.14176">
        <ele>586</ele>
        <time>2023-05-28T05:22:42.000Z</time>
      </trkpt>
      <trkpt lat="43.6977" lon="3.14175">
        <ele>586.59997558594</ele>
        <time>2023-05-28T05:22:47.000Z</time>
      </trkpt>
      <trkpt lat="43.69769" lon="3.14175">
        <ele>586.79998779297</ele>
        <time>2023-05-28T05:22:49.000Z</time>
      </trkpt>
      <trkpt lat="43.69767" lon="3.14174">
        <ele>587.20001220703</ele>
        <time>2023-05-28T05:22:55.000Z</time>
      </trkpt>
      <trkpt lat="43.69764" lon="3.14172">
        <ele>587.59997558594</ele>
        <time>2023-05-28T05:23:00.000Z</time>
      </trkpt>
      <trkpt lat="43.69762" lon="3.14171">
        <ele>587.79998779297</ele>
        <time>2023-05-28T05:23:02.000Z</time>
      </trkpt>
      <trkpt lat="43.69761" lon="3.1417">
        <ele>588.20001220703</ele>
        <time>2023-05-28T05:23:08.000Z</time>
      </trkpt>
      <trkpt lat="43.69759" lon="3.1417">
        <ele>588.59997558594</ele>
        <time>2023-05-28T05:23:13.000Z</time>
      </trkpt>
      <trkpt lat="43.69757" lon="3.1417">
        <ele>589</ele>
        <time>2023-05-28T05:23:16.000Z</time>
      </trkpt>
      <trkpt lat="43.69755" lon="3.1417">
        <ele>589.59997558594</ele>
        <time>2023-05-28T05:23:23.000Z</time>
      </trkpt>
      <trkpt lat="43.69753" lon="3.14169">
        <ele>589.79998779297</ele>
        <time>2023-05-28T05:23:25.000Z</time>
      </trkpt>
      <trkpt lat="43.6975" lon="3.14169">
        <ele>590.40002441406</ele>
        <time>2023-05-28T05:23:31.000Z</time>
      </trkpt>
      <trkpt lat="43.69749" lon="3.14169">
        <ele>590.59997558594</ele>
        <time>2023-05-28T05:23:33.000Z</time>
      </trkpt>
      <trkpt lat="43.69747" lon="3.14168">
        <ele>590.79998779297</ele>
        <time>2023-05-28T05:23:36.000Z</time>
      </trkpt>
      <trkpt lat="43.69746" lon="3.14169">
        <ele>591</ele>
        <time>2023-05-28T05:23:39.000Z</time>
      </trkpt>
      <trkpt lat="43.69744" lon="3.14169">
        <ele>591.59997558594</ele>
        <time>2023-05-28T05:23:45.000Z</time>
      </trkpt>
      <trkpt lat="43.69744" lon="3.14169">
        <ele>591.79998779297</ele>
        <time>2023-05-28T05:23:46.000Z</time>
      </trkpt>
      <trkpt lat="43.69739" lon="3.14167">
        <ele>592.20001220703</ele>
        <time>2023-05-28T05:23:54.000Z</time>
      </trkpt>
      <trkpt lat="43.69737" lon="3.14165">
        <ele>592.79998779297</ele>
        <time>2023-05-28T05:24:01.000Z</time>
      </trkpt>
      <trkpt lat="43.69736" lon="3.14167">
        <ele>592.79998779297</ele>
        <time>2023-05-28T05:24:02.000Z</time>
      </trkpt>
      <trkpt lat="43.69733" lon="3.14162">
        <ele>593.59997558594</ele>
        <time>2023-05-28T05:24:09.000Z</time>
      </trkpt>
      <trkpt lat="43.69732" lon="3.14162">
        <ele>593.79998779297</ele>
        <time>2023-05-28T05:24:10.000Z</time>
      </trkpt>
      <trkpt lat="43.69729" lon="3.14161">
        <ele>594.40002441406</ele>
        <time>2023-05-28T05:24:16.000Z</time>
      </trkpt>
      <trkpt lat="43.69726" lon="3.1416">
        <ele>594.79998779297</ele>
        <time>2023-05-28T05:24:22.000Z</time>
      </trkpt>
      <trkpt lat="43.69726" lon="3.1416">
        <ele>595</ele>
        <time>2023-05-28T05:24:23.000Z</time>
      </trkpt>
      <trkpt lat="43.69722" lon="3.1416">
        <ele>595.59997558594</ele>
        <time>2023-05-28T05:24:29.000Z</time>
      </trkpt>
      <trkpt lat="43.6972" lon="3.1416">
        <ele>595.79998779297</ele>
        <time>2023-05-28T05:24:34.000Z</time>
      </trkpt>
      <trkpt lat="43.69718" lon="3.1416">
        <ele>596</ele>
        <time>2023-05-28T05:24:36.000Z</time>
      </trkpt>
      <trkpt lat="43.69716" lon="3.14158">
        <ele>596.59997558594</ele>
        <time>2023-05-28T05:24:44.000Z</time>
      </trkpt>
      <trkpt lat="43.69714" lon="3.14157">
        <ele>596.79998779297</ele>
        <time>2023-05-28T05:24:47.000Z</time>
      </trkpt>
      <trkpt lat="43.69715" lon="3.14158">
        <ele>597.40002441406</ele>
        <time>2023-05-28T05:24:52.000Z</time>
      </trkpt>
      <trkpt lat="43.6971" lon="3.14156">
        <ele>598</ele>
        <time>2023-05-28T05:24:58.000Z</time>
      </trkpt>
      <trkpt lat="43.6971" lon="3.14156">
        <ele>598</ele>
        <time>2023-05-28T05:24:59.000Z</time>
      </trkpt>
      <trkpt lat="43.69706" lon="3.14155">
        <ele>598.40002441406</ele>
        <time>2023-05-28T05:25:06.000Z</time>
      </trkpt>
      <trkpt lat="43.69705" lon="3.14154">
        <ele>599</ele>
        <time>2023-05-28T05:25:12.000Z</time>
      </trkpt>
      <trkpt lat="43.69704" lon="3.14153">
        <ele>599.20001220703</ele>
        <time>2023-05-28T05:25:13.000Z</time>
      </trkpt>
      <trkpt lat="43.69702" lon="3.14149">
        <ele>599.79998779297</ele>
        <time>2023-05-28T05:25:22.000Z</time>
      </trkpt>
      <trkpt lat="43.69702" lon="3.14147">
        <ele>599.79998779297</ele>
        <time>2023-05-28T05:25:29.000Z</time>
      </trkpt>
      <trkpt lat="43.69703" lon="3.14147">
        <ele>599.59997558594</ele>
        <time>2023-05-28T05:25:34.000Z</time>
      </trkpt>
      <trkpt lat="43.69703" lon="3.14145">
        <ele>599.79998779297</ele>
        <time>2023-05-28T05:25:45.000Z</time>
      </trkpt>
      <trkpt lat="43.69703" lon="3.14144">
        <ele>600</ele>
        <time>2023-05-28T05:25:49.000Z</time>
      </trkpt>
      <trkpt lat="43.69703" lon="3.14144">
        <ele>600.40002441406</ele>
        <time>2023-05-28T05:25:58.000Z</time>
      </trkpt>
      <trkpt lat="43.69703" lon="3.14142">
        <ele>600.40002441406</ele>
        <time>2023-05-28T05:26:14.000Z</time>
      </trkpt>
      <trkpt lat="43.69703" lon="3.14141">
        <ele>600.20001220703</ele>
        <time>2023-05-28T05:26:23.000Z</time>
      </trkpt>
      <trkpt lat="43.69702" lon="3.1414">
        <ele>600.20001220703</ele>
        <time>2023-05-28T05:26:38.000Z</time>
      </trkpt>
      <trkpt lat="43.69703" lon="3.1414">
        <ele>600.20001220703</ele>
        <time>2023-05-28T05:26:47.000Z</time>
      </trkpt>
      <trkpt lat="43.69704" lon="3.14142">
        <ele>600.20001220703</ele>
        <time>2023-05-28T05:26:59.000Z</time>
      </trkpt>
      <trkpt lat="43.69706" lon="3.14139">
        <ele>600.20001220703</ele>
        <time>2023-05-28T05:27:06.000Z</time>
      </trkpt>
      <trkpt lat="43.69705" lon="3.14139">
        <ele>600</ele>
        <time>2023-05-28T05:27:15.000Z</time>
      </trkpt>
      <trkpt lat="43.69704" lon="3.14138">
        <ele>600.20001220703</ele>
        <time>2023-05-28T05:27:22.000Z</time>
      </trkpt>
      <trkpt lat="43.69704" lon="3.14138">
        <ele>600.20001220703</ele>
        <time>2023-05-28T05:27:29.000Z</time>
      </trkpt>
      <trkpt lat="43.69704" lon="3.14137">
        <ele>600.40002441406</ele>
        <time>2023-05-28T05:27:44.000Z</time>
      </trkpt>
      <trkpt lat="43.69704" lon="3.14136">
        <ele>600.40002441406</ele>
        <time>2023-05-28T05:27:59.000Z</time>
      </trkpt>
      <trkpt lat="43.69704" lon="3.14136">
        <ele>600.40002441406</ele>
        <time>2023-05-28T05:28:16.000Z</time>
      </trkpt>
      <trkpt lat="43.69704" lon="3.14136">
        <ele>600.20001220703</ele>
        <time>2023-05-28T05:28:27.000Z</time>
      </trkpt>
      <trkpt lat="43.69704" lon="3.14136">
        <ele>600.59997558594</ele>
        <time>2023-05-28T05:28:44.000Z</time>
      </trkpt>
      <trkpt lat="43.69704" lon="3.14137">
        <ele>600.20001220703</ele>
        <time>2023-05-28T05:28:55.000Z</time>
      </trkpt>
      <trkpt lat="43.69704" lon="3.14137">
        <ele>600.20001220703</ele>
        <time>2023-05-28T05:29:14.000Z</time>
      </trkpt>
      <trkpt lat="43.69703" lon="3.14136">
        <ele>600.20001220703</ele>
        <time>2023-05-28T05:29:30.000Z</time>
      </trkpt>
      <trkpt lat="43.69702" lon="3.14135">
        <ele>600.20001220703</ele>
        <time>2023-05-28T05:29:51.000Z</time>
      </trkpt>
      <trkpt lat="43.69702" lon="3.14136">
        <ele>600.59997558594</ele>
        <time>2023-05-28T05:29:58.000Z</time>
      </trkpt>
      <trkpt lat="43.69703" lon="3.14135">
        <ele>600.59997558594</ele>
        <time>2023-05-28T05:30:03.000Z</time>
      </trkpt>
      <trkpt lat="43.69704" lon="3.14134">
        <ele>600.20001220703</ele>
        <time>2023-05-28T05:30:16.000Z</time>
      </trkpt>
      <trkpt lat="43.69701" lon="3.14135">
        <ele>600</ele>
        <time>2023-05-28T05:30:26.000Z</time>
      </trkpt>
      <trkpt lat="43.69702" lon="3.14135">
        <ele>600</ele>
        <time>2023-05-28T05:30:33.000Z</time>
      </trkpt>
      <trkpt lat="43.69702" lon="3.14135">
        <ele>600</ele>
        <time>2023-05-28T05:30:48.000Z</time>
      </trkpt>
      <trkpt lat="43.6971" lon="3.14136">
        <ele>600.20001220703</ele>
        <time>2023-05-28T05:31:00.000Z</time>
      </trkpt>
      <trkpt lat="43.69713" lon="3.14137">
        <ele>600</ele>
        <time>2023-05-28T05:31:12.000Z</time>
      </trkpt>
      <trkpt lat="43.69712" lon="3.14138">
        <ele>599.79998779297</ele>
        <time>2023-05-28T05:31:30.000Z</time>
      </trkpt>
      <trkpt lat="43.69711" lon="3.14139">
        <ele>600</ele>
        <time>2023-05-28T05:31:44.000Z</time>
      </trkpt>
      <trkpt lat="43.69711" lon="3.14138">
        <ele>600</ele>
        <time>2023-05-28T05:31:54.000Z</time>
      </trkpt>
      <trkpt lat="43.69711" lon="3.14138">
        <ele>600.40002441406</ele>
        <time>2023-05-28T05:32:01.000Z</time>
      </trkpt>
      <trkpt lat="43.6971" lon="3.14138">
        <ele>600.40002441406</ele>
        <time>2023-05-28T05:32:12.000Z</time>
      </trkpt>
      <trkpt lat="43.69706" lon="3.14138">
        <ele>600.20001220703</ele>
        <time>2023-05-28T05:32:30.000Z</time>
      </trkpt>
      <trkpt lat="43.69704" lon="3.14137">
        <ele>600.40002441406</ele>
        <time>2023-05-28T05:32:42.000Z</time>
      </trkpt>
      <trkpt lat="43.69703" lon="3.14138">
        <ele>600.59997558594</ele>
        <time>2023-05-28T05:32:50.000Z</time>
      </trkpt>
      <trkpt lat="43.69703" lon="3.14135">
        <ele>600.79998779297</ele>
        <time>2023-05-28T05:32:57.000Z</time>
      </trkpt>
      <trkpt lat="43.69703" lon="3.14135">
        <ele>601</ele>
        <time>2023-05-28T05:32:58.000Z</time>
      </trkpt>
      <trkpt lat="43.69702" lon="3.14134">
        <ele>602.20001220703</ele>
        <time>2023-05-28T05:33:07.000Z</time>
      </trkpt>
      <trkpt lat="43.69701" lon="3.14135">
        <ele>602</ele>
        <time>2023-05-28T05:33:17.000Z</time>
      </trkpt>
      <trkpt lat="43.697" lon="3.14134">
        <ele>601.79998779297</ele>
        <time>2023-05-28T05:33:26.000Z</time>
      </trkpt>
      <trkpt lat="43.697" lon="3.14133">
        <ele>601</ele>
        <time>2023-05-28T05:33:38.000Z</time>
      </trkpt>
      <trkpt lat="43.697" lon="3.14132">
        <ele>601</ele>
        <time>2023-05-28T05:33:40.000Z</time>
      </trkpt>
      <trkpt lat="43.69699" lon="3.14129">
        <ele>602</ele>
        <time>2023-05-28T05:33:46.000Z</time>
      </trkpt>
      <trkpt lat="43.697" lon="3.14129">
        <ele>602.20001220703</ele>
        <time>2023-05-28T05:33:48.000Z</time>
      </trkpt>
      <trkpt lat="43.697" lon="3.14124">
        <ele>603.20001220703</ele>
        <time>2023-05-28T05:33:57.000Z</time>
      </trkpt>
      <trkpt lat="43.69701" lon="3.14121">
        <ele>604.20001220703</ele>
        <time>2023-05-28T05:34:06.000Z</time>
      </trkpt>
      <trkpt lat="43.69701" lon="3.14121">
        <ele>604.20001220703</ele>
        <time>2023-05-28T05:34:07.000Z</time>
      </trkpt>
      <trkpt lat="43.69699" lon="3.14116">
        <ele>605.20001220703</ele>
        <time>2023-05-28T05:34:16.000Z</time>
      </trkpt>
      <trkpt lat="43.69699" lon="3.14115">
        <ele>605.40002441406</ele>
        <time>2023-05-28T05:34:17.000Z</time>
      </trkpt>
      <trkpt lat="43.69697" lon="3.14112">
        <ele>606.20001220703</ele>
        <time>2023-05-28T05:34:25.000Z</time>
      </trkpt>
      <trkpt lat="43.69697" lon="3.14112">
        <ele>606.40002441406</ele>
        <time>2023-05-28T05:34:27.000Z</time>
      </trkpt>
      <trkpt lat="43.69697" lon="3.14109">
        <ele>606.79998779297</ele>
        <time>2023-05-28T05:34:33.000Z</time>
      </trkpt>
      <trkpt lat="43.69697" lon="3.14104">
        <ele>607.40002441406</ele>
        <time>2023-05-28T05:34:41.000Z</time>
      </trkpt>
      <trkpt lat="43.69696" lon="3.14101">
        <ele>608.59997558594</ele>
        <time>2023-05-28T05:34:48.000Z</time>
      </trkpt>
      <trkpt lat="43.69696" lon="3.141">
        <ele>608.59997558594</ele>
        <time>2023-05-28T05:34:49.000Z</time>
      </trkpt>
      <trkpt lat="43.69693" lon="3.14097">
        <ele>609.40002441406</ele>
        <time>2023-05-28T05:34:57.000Z</time>
      </trkpt>
      <trkpt lat="43.69693" lon="3.14096">
        <ele>609.59997558594</ele>
        <time>2023-05-28T05:34:59.000Z</time>
      </trkpt>
      <trkpt lat="43.69691" lon="3.14092">
        <ele>609.79998779297</ele>
        <time>2023-05-28T05:35:07.000Z</time>
      </trkpt>
      <trkpt lat="43.6969" lon="3.14086">
        <ele>610</ele>
        <time>2023-05-28T05:35:16.000Z</time>
      </trkpt>
      <trkpt lat="43.69689" lon="3.14082">
        <ele>610.59997558594</ele>
        <time>2023-05-28T05:35:22.000Z</time>
      </trkpt>
      <trkpt lat="43.69689" lon="3.14081">
        <ele>610.59997558594</ele>
        <time>2023-05-28T05:35:23.000Z</time>
      </trkpt>
      <trkpt lat="43.69687" lon="3.14073">
        <ele>611.59997558594</ele>
        <time>2023-05-28T05:35:34.000Z</time>
      </trkpt>
      <trkpt lat="43.69687" lon="3.14072">
        <ele>611.59997558594</ele>
        <time>2023-05-28T05:35:35.000Z</time>
      </trkpt>
      <trkpt lat="43.69686" lon="3.14065">
        <ele>612.40002441406</ele>
        <time>2023-05-28T05:35:43.000Z</time>
      </trkpt>
      <trkpt lat="43.69686" lon="3.14062">
        <ele>612.59997558594</ele>
        <time>2023-05-28T05:35:47.000Z</time>
      </trkpt>
      <trkpt lat="43.69686" lon="3.14059">
        <ele>613.20001220703</ele>
        <time>2023-05-28T05:35:53.000Z</time>
      </trkpt>
      <trkpt lat="43.69686" lon="3.14054">
        <ele>613.79998779297</ele>
        <time>2023-05-28T05:36:01.000Z</time>
      </trkpt>
      <trkpt lat="43.69687" lon="3.14051">
        <ele>614.40002441406</ele>
        <time>2023-05-28T05:36:08.000Z</time>
      </trkpt>
      <trkpt lat="43.69687" lon="3.14049">
        <ele>614.79998779297</ele>
        <time>2023-05-28T05:36:11.000Z</time>
      </trkpt>
      <trkpt lat="43.69687" lon="3.14043">
        <ele>615.40002441406</ele>
        <time>2023-05-28T05:36:17.000Z</time>
      </trkpt>
      <trkpt lat="43.69687" lon="3.14039">
        <ele>615.79998779297</ele>
        <time>2023-05-28T05:36:22.000Z</time>
      </trkpt>
      <trkpt lat="43.69687" lon="3.14036">
        <ele>615.79998779297</ele>
        <time>2023-05-28T05:36:25.000Z</time>
      </trkpt>
      <trkpt lat="43.69686" lon="3.1403">
        <ele>616.20001220703</ele>
        <time>2023-05-28T05:36:33.000Z</time>
      </trkpt>
      <trkpt lat="43.69684" lon="3.14025">
        <ele>616.79998779297</ele>
        <time>2023-05-28T05:36:40.000Z</time>
      </trkpt>
      <trkpt lat="43.69683" lon="3.14024">
        <ele>616.79998779297</ele>
        <time>2023-05-28T05:36:41.000Z</time>
      </trkpt>
      <trkpt lat="43.69681" lon="3.14019">
        <ele>616.20001220703</ele>
        <time>2023-05-28T05:36:48.000Z</time>
      </trkpt>
      <trkpt lat="43.69677" lon="3.14012">
        <ele>616</ele>
        <time>2023-05-28T05:36:56.000Z</time>
      </trkpt>
      <trkpt lat="43.69675" lon="3.14008">
        <ele>616.20001220703</ele>
        <time>2023-05-28T05:37:02.000Z</time>
      </trkpt>
      <trkpt lat="43.69672" lon="3.14004">
        <ele>616</ele>
        <time>2023-05-28T05:37:08.000Z</time>
      </trkpt>
      <trkpt lat="43.6967" lon="3.14002">
        <ele>616.20001220703</ele>
        <time>2023-05-28T05:37:16.000Z</time>
      </trkpt>
      <trkpt lat="43.6967" lon="3.14002">
        <ele>615.79998779297</ele>
        <time>2023-05-28T05:37:20.000Z</time>
      </trkpt>
      <trkpt lat="43.6967" lon="3.14002">
        <ele>615.79998779297</ele>
        <time>2023-05-28T05:37:21.000Z</time>
      </trkpt>
      <trkpt lat="43.69669" lon="3.14">
        <ele>615.59997558594</ele>
        <time>2023-05-28T05:37:34.000Z</time>
      </trkpt>
      <trkpt lat="43.69666" lon="3.14">
        <ele>615.79998779297</ele>
        <time>2023-05-28T05:37:41.000Z</time>
      </trkpt>
      <trkpt lat="43.69667" lon="3.14">
        <ele>616.20001220703</ele>
        <time>2023-05-28T05:37:49.000Z</time>
      </trkpt>
      <trkpt lat="43.69668" lon="3.14002">
        <ele>615.79998779297</ele>
        <time>2023-05-28T05:37:55.000Z</time>
      </trkpt>
      <trkpt lat="43.6967" lon="3.14004">
        <ele>615.59997558594</ele>
        <time>2023-05-28T05:38:08.000Z</time>
      </trkpt>
      <trkpt lat="43.69667" lon="3.14008">
        <ele>615.59997558594</ele>
        <time>2023-05-28T05:38:16.000Z</time>
      </trkpt>
      <trkpt lat="43.69663" lon="3.14009">
        <ele>615.59997558594</ele>
        <time>2023-05-28T05:38:24.000Z</time>
      </trkpt>
      <trkpt lat="43.69662" lon="3.14009">
        <ele>615.20001220703</ele>
        <time>2023-05-28T05:38:31.000Z</time>
      </trkpt>
      <trkpt lat="43.69657" lon="3.14011">
        <ele>615</ele>
        <time>2023-05-28T05:38:44.000Z</time>
      </trkpt>
      <trkpt lat="43.69654" lon="3.14011">
        <ele>615</ele>
        <time>2023-05-28T05:38:50.000Z</time>
      </trkpt>
      <trkpt lat="43.6965" lon="3.1401">
        <ele>615.40002441406</ele>
        <time>2023-05-28T05:38:57.000Z</time>
      </trkpt>
      <trkpt lat="43.69645" lon="3.14008">
        <ele>616</ele>
        <time>2023-05-28T05:39:05.000Z</time>
      </trkpt>
      <trkpt lat="43.69642" lon="3.14007">
        <ele>616.40002441406</ele>
        <time>2023-05-28T05:39:12.000Z</time>
      </trkpt>
      <trkpt lat="43.69638" lon="3.14007">
        <ele>616.79998779297</ele>
        <time>2023-05-28T05:39:18.000Z</time>
      </trkpt>
      <trkpt lat="43.69637" lon="3.14006">
        <ele>616.79998779297</ele>
        <time>2023-05-28T05:39:19.000Z</time>
      </trkpt>
      <trkpt lat="43.69634" lon="3.14007">
        <ele>617</ele>
        <time>2023-05-28T05:39:26.000Z</time>
      </trkpt>
      <trkpt lat="43.69629" lon="3.14007">
        <ele>616.59997558594</ele>
        <time>2023-05-28T05:39:34.000Z</time>
      </trkpt>
      <trkpt lat="43.69626" lon="3.14006">
        <ele>616.20001220703</ele>
        <time>2023-05-28T05:39:41.000Z</time>
      </trkpt>
      <trkpt lat="43.69623" lon="3.14007">
        <ele>615.79998779297</ele>
        <time>2023-05-28T05:39:49.000Z</time>
      </trkpt>
      <trkpt lat="43.69621" lon="3.14007">
        <ele>615.59997558594</ele>
        <time>2023-05-28T05:39:51.000Z</time>
      </trkpt>
      <trkpt lat="43.69617" lon="3.14007">
        <ele>615</ele>
        <time>2023-05-28T05:39:59.000Z</time>
      </trkpt>
      <trkpt lat="43.69614" lon="3.14004">
        <ele>615</ele>
        <time>2023-05-28T05:40:05.000Z</time>
      </trkpt>
      <trkpt lat="43.69608" lon="3.14004">
        <ele>615.79998779297</ele>
        <time>2023-05-28T05:40:15.000Z</time>
      </trkpt>
      <trkpt lat="43.69604" lon="3.14004">
        <ele>615.79998779297</ele>
        <time>2023-05-28T05:40:21.000Z</time>
      </trkpt>
      <trkpt lat="43.69599" lon="3.14004">
        <ele>615.59997558594</ele>
        <time>2023-05-28T05:40:27.000Z</time>
      </trkpt>
      <trkpt lat="43.69593" lon="3.14">
        <ele>615.79998779297</ele>
        <time>2023-05-28T05:40:36.000Z</time>
      </trkpt>
      <trkpt lat="43.69587" lon="3.13996">
        <ele>616.79998779297</ele>
        <time>2023-05-28T05:40:46.000Z</time>
      </trkpt>
      <trkpt lat="43.69583" lon="3.13995">
        <ele>617.59997558594</ele>
        <time>2023-05-28T05:40:53.000Z</time>
      </trkpt>
      <trkpt lat="43.6958" lon="3.13995">
        <ele>618</ele>
        <time>2023-05-28T05:40:57.000Z</time>
      </trkpt>
      <trkpt lat="43.69577" lon="3.13993">
        <ele>618</ele>
        <time>2023-05-28T05:41:03.000Z</time>
      </trkpt>
      <trkpt lat="43.69573" lon="3.13988">
        <ele>618.79998779297</ele>
        <time>2023-05-28T05:41:12.000Z</time>
      </trkpt>
      <trkpt lat="43.6957" lon="3.13985">
        <ele>618.59997558594</ele>
        <time>2023-05-28T05:41:20.000Z</time>
      </trkpt>
      <trkpt lat="43.69566" lon="3.1398">
        <ele>617.79998779297</ele>
        <time>2023-05-28T05:41:29.000Z</time>
      </trkpt>
      <trkpt lat="43.69563" lon="3.13978">
        <ele>617</ele>
        <time>2023-05-28T05:41:37.000Z</time>
      </trkpt>
      <trkpt lat="43.69561" lon="3.13977">
        <ele>616.79998779297</ele>
        <time>2023-05-28T05:41:38.000Z</time>
      </trkpt>
      <trkpt lat="43.69558" lon="3.13975">
        <ele>616.20001220703</ele>
        <time>2023-05-28T05:41:43.000Z</time>
      </trkpt>
      <trkpt lat="43.69554" lon="3.13969">
        <ele>615.79998779297</ele>
        <time>2023-05-28T05:41:50.000Z</time>
      </trkpt>
      <trkpt lat="43.69553" lon="3.13968">
        <ele>615.59997558594</ele>
        <time>2023-05-28T05:41:51.000Z</time>
      </trkpt>
      <trkpt lat="43.6955" lon="3.13964">
        <ele>615.20001220703</ele>
        <time>2023-05-28T05:41:57.000Z</time>
      </trkpt>
      <trkpt lat="43.69548" lon="3.13961">
        <ele>615.20001220703</ele>
        <time>2023-05-28T05:42:00.000Z</time>
      </trkpt>
      <trkpt lat="43.69545" lon="3.13957">
        <ele>614.79998779297</ele>
        <time>2023-05-28T05:42:07.000Z</time>
      </trkpt>
      <trkpt lat="43.69544" lon="3.13956">
        <ele>614.79998779297</ele>
        <time>2023-05-28T05:42:11.000Z</time>
      </trkpt>
      <trkpt lat="43.69544" lon="3.13954">
        <ele>614.59997558594</ele>
        <time>2023-05-28T05:42:14.000Z</time>
      </trkpt>
      <trkpt lat="43.69539" lon="3.13948">
        <ele>614.20001220703</ele>
        <time>2023-05-28T05:42:23.000Z</time>
      </trkpt>
      <trkpt lat="43.69534" lon="3.13943">
        <ele>614</ele>
        <time>2023-05-28T05:42:32.000Z</time>
      </trkpt>
      <trkpt lat="43.6953" lon="3.13939">
        <ele>613.79998779297</ele>
        <time>2023-05-28T05:42:41.000Z</time>
      </trkpt>
      <trkpt lat="43.69529" lon="3.13938">
        <ele>613.59997558594</ele>
        <time>2023-05-28T05:42:46.000Z</time>
      </trkpt>
      <trkpt lat="43.69527" lon="3.13936">
        <ele>613.40002441406</ele>
        <time>2023-05-28T05:42:50.000Z</time>
      </trkpt>
      <trkpt lat="43.69525" lon="3.13936">
        <ele>613.20001220703</ele>
        <time>2023-05-28T05:42:56.000Z</time>
      </trkpt>
      <trkpt lat="43.69523" lon="3.13935">
        <ele>613</ele>
        <time>2023-05-28T05:43:04.000Z</time>
      </trkpt>
      <trkpt lat="43.69523" lon="3.13937">
        <ele>612.59997558594</ele>
        <time>2023-05-28T05:43:11.000Z</time>
      </trkpt>
      <trkpt lat="43.69524" lon="3.13935">
        <ele>612.59997558594</ele>
        <time>2023-05-28T05:43:14.000Z</time>
      </trkpt>
      <trkpt lat="43.69517" lon="3.13933">
        <ele>612.59997558594</ele>
        <time>2023-05-28T05:43:18.000Z</time>
      </trkpt>
      <trkpt lat="43.69515" lon="3.13934">
        <ele>612.79998779297</ele>
        <time>2023-05-28T05:43:26.000Z</time>
      </trkpt>
      <trkpt lat="43.69511" lon="3.13934">
        <ele>612.59997558594</ele>
        <time>2023-05-28T05:43:32.000Z</time>
      </trkpt>
      <trkpt lat="43.69508" lon="3.13935">
        <ele>612.20001220703</ele>
        <time>2023-05-28T05:43:39.000Z</time>
      </trkpt>
      <trkpt lat="43.69504" lon="3.13934">
        <ele>612</ele>
        <time>2023-05-28T05:43:46.000Z</time>
      </trkpt>
      <trkpt lat="43.69501" lon="3.13934">
        <ele>612</ele>
        <time>2023-05-28T05:43:53.000Z</time>
      </trkpt>
      <trkpt lat="43.69498" lon="3.13934">
        <ele>611.79998779297</ele>
        <time>2023-05-28T05:44:00.000Z</time>
      </trkpt>
      <trkpt lat="43.69497" lon="3.13932">
        <ele>613</ele>
        <time>2023-05-28T05:44:08.000Z</time>
      </trkpt>
      <trkpt lat="43.69493" lon="3.13932">
        <ele>612.40002441406</ele>
        <time>2023-05-28T05:44:16.000Z</time>
      </trkpt>
      <trkpt lat="43.69489" lon="3.13931">
        <ele>612.40002441406</ele>
        <time>2023-05-28T05:44:23.000Z</time>
      </trkpt>
      <trkpt lat="43.69484" lon="3.13931">
        <ele>613.79998779297</ele>
        <time>2023-05-28T05:44:33.000Z</time>
      </trkpt>
      <trkpt lat="43.69479" lon="3.13932">
        <ele>614</ele>
        <time>2023-05-28T05:44:42.000Z</time>
      </trkpt>
      <trkpt lat="43.69475" lon="3.1393">
        <ele>614.79998779297</ele>
        <time>2023-05-28T05:44:52.000Z</time>
      </trkpt>
      <trkpt lat="43.69467" lon="3.13929">
        <ele>615</ele>
        <time>2023-05-28T05:45:02.000Z</time>
      </trkpt>
      <trkpt lat="43.6946" lon="3.13929">
        <ele>615.40002441406</ele>
        <time>2023-05-28T05:45:13.000Z</time>
      </trkpt>
      <trkpt lat="43.69455" lon="3.13929">
        <ele>615.59997558594</ele>
        <time>2023-05-28T05:45:21.000Z</time>
      </trkpt>
      <trkpt lat="43.69451" lon="3.13931">
        <ele>615</ele>
        <time>2023-05-28T05:45:29.000Z</time>
      </trkpt>
      <trkpt lat="43.69444" lon="3.13932">
        <ele>614.59997558594</ele>
        <time>2023-05-28T05:45:36.000Z</time>
      </trkpt>
      <trkpt lat="43.6944" lon="3.13932">
        <ele>615</ele>
        <time>2023-05-28T05:45:42.000Z</time>
      </trkpt>
      <trkpt lat="43.69437" lon="3.13932">
        <ele>615.20001220703</ele>
        <time>2023-05-28T05:45:46.000Z</time>
      </trkpt>
      <trkpt lat="43.69432" lon="3.13931">
        <ele>615.20001220703</ele>
        <time>2023-05-28T05:45:52.000Z</time>
      </trkpt>
      <trkpt lat="43.69431" lon="3.13931">
        <ele>615.20001220703</ele>
        <time>2023-05-28T05:45:53.000Z</time>
      </trkpt>
      <trkpt lat="43.69427" lon="3.13931">
        <ele>615.79998779297</ele>
        <time>2023-05-28T05:45:59.000Z</time>
      </trkpt>
      <trkpt lat="43.69427" lon="3.13931">
        <ele>615.79998779297</ele>
        <time>2023-05-28T05:46:00.000Z</time>
      </trkpt>
      <trkpt lat="43.69424" lon="3.13931">
        <ele>616.20001220703</ele>
        <time>2023-05-28T05:46:06.000Z</time>
      </trkpt>
      <trkpt lat="43.6942" lon="3.13929">
        <ele>616.20001220703</ele>
        <time>2023-05-28T05:46:14.000Z</time>
      </trkpt>
      <trkpt lat="43.69417" lon="3.1393">
        <ele>616.59997558594</ele>
        <time>2023-05-28T05:46:21.000Z</time>
      </trkpt>
      <trkpt lat="43.69409" lon="3.13931">
        <ele>616.20001220703</ele>
        <time>2023-05-28T05:46:31.000Z</time>
      </trkpt>
      <trkpt lat="43.69404" lon="3.13931">
        <ele>616.79998779297</ele>
        <time>2023-05-28T05:46:38.000Z</time>
      </trkpt>
      <trkpt lat="43.69403" lon="3.1393">
        <ele>617</ele>
        <time>2023-05-28T05:46:40.000Z</time>
      </trkpt>
      <trkpt lat="43.69402" lon="3.1393">
        <ele>617</ele>
        <time>2023-05-28T05:46:41.000Z</time>
      </trkpt>
      <trkpt lat="43.694" lon="3.13927">
        <ele>618</ele>
        <time>2023-05-28T05:46:49.000Z</time>
      </trkpt>
      <trkpt lat="43.694" lon="3.13926">
        <ele>618.20001220703</ele>
        <time>2023-05-28T05:46:50.000Z</time>
      </trkpt>
      <trkpt lat="43.69402" lon="3.13924">
        <ele>619</ele>
        <time>2023-05-28T05:46:58.000Z</time>
      </trkpt>
      <trkpt lat="43.69397" lon="3.13921">
        <ele>620.20001220703</ele>
        <time>2023-05-28T05:47:06.000Z</time>
      </trkpt>
      <trkpt lat="43.69397" lon="3.13919">
        <ele>620.40002441406</ele>
        <time>2023-05-28T05:47:08.000Z</time>
      </trkpt>
      <trkpt lat="43.69396" lon="3.13918">
        <ele>621.20001220703</ele>
        <time>2023-05-28T05:47:14.000Z</time>
      </trkpt>
      <trkpt lat="43.69397" lon="3.13917">
        <ele>621.59997558594</ele>
        <time>2023-05-28T05:47:17.000Z</time>
      </trkpt>
      <trkpt lat="43.69394" lon="3.13911">
        <ele>622.20001220703</ele>
        <time>2023-05-28T05:47:23.000Z</time>
      </trkpt>
      <trkpt lat="43.69395" lon="3.1391">
        <ele>622.59997558594</ele>
        <time>2023-05-28T05:47:26.000Z</time>
      </trkpt>
      <trkpt lat="43.69394" lon="3.13906">
        <ele>623.40002441406</ele>
        <time>2023-05-28T05:47:32.000Z</time>
      </trkpt>
      <trkpt lat="43.69395" lon="3.13904">
        <ele>623.79998779297</ele>
        <time>2023-05-28T05:47:36.000Z</time>
      </trkpt>
      <trkpt lat="43.69394" lon="3.13899">
        <ele>624.40002441406</ele>
        <time>2023-05-28T05:47:40.000Z</time>
      </trkpt>
      <trkpt lat="43.69393" lon="3.13898">
        <ele>624.59997558594</ele>
        <time>2023-05-28T05:47:42.000Z</time>
      </trkpt>
      <trkpt lat="43.69391" lon="3.13891">
        <ele>624.79998779297</ele>
        <time>2023-05-28T05:47:49.000Z</time>
      </trkpt>
      <trkpt lat="43.69388" lon="3.13889">
        <ele>624.79998779297</ele>
        <time>2023-05-28T05:47:56.000Z</time>
      </trkpt>
      <trkpt lat="43.69388" lon="3.13887">
        <ele>624.40002441406</ele>
        <time>2023-05-28T05:48:04.000Z</time>
      </trkpt>
      <trkpt lat="43.69387" lon="3.13884">
        <ele>624.40002441406</ele>
        <time>2023-05-28T05:48:14.000Z</time>
      </trkpt>
      <trkpt lat="43.69385" lon="3.13879">
        <ele>624.59997558594</ele>
        <time>2023-05-28T05:48:33.000Z</time>
      </trkpt>
      <trkpt lat="43.69385" lon="3.13877">
        <ele>624.79998779297</ele>
        <time>2023-05-28T05:48:46.000Z</time>
      </trkpt>
      <trkpt lat="43.69386" lon="3.13876">
        <ele>625</ele>
        <time>2023-05-28T05:48:51.000Z</time>
      </trkpt>
      <trkpt lat="43.69386" lon="3.13872">
        <ele>624.59997558594</ele>
        <time>2023-05-28T05:48:58.000Z</time>
      </trkpt>
      <trkpt lat="43.69386" lon="3.13865">
        <ele>624.20001220703</ele>
        <time>2023-05-28T05:49:04.000Z</time>
      </trkpt>
      <trkpt lat="43.69389" lon="3.13858">
        <ele>624.20001220703</ele>
        <time>2023-05-28T05:49:11.000Z</time>
      </trkpt>
      <trkpt lat="43.69389" lon="3.13858">
        <ele>624.20001220703</ele>
        <time>2023-05-28T05:49:12.000Z</time>
      </trkpt>
      <trkpt lat="43.69391" lon="3.13855">
        <ele>625</ele>
        <time>2023-05-28T05:49:17.000Z</time>
      </trkpt>
      <trkpt lat="43.69392" lon="3.13854">
        <ele>625.40002441406</ele>
        <time>2023-05-28T05:49:19.000Z</time>
      </trkpt>
      <trkpt lat="43.69394" lon="3.13849">
        <ele>626</ele>
        <time>2023-05-28T05:49:24.000Z</time>
      </trkpt>
      <trkpt lat="43.69396" lon="3.13844">
        <ele>625.79998779297</ele>
        <time>2023-05-28T05:49:30.000Z</time>
      </trkpt>
      <trkpt lat="43.69399" lon="3.13841">
        <ele>626.20001220703</ele>
        <time>2023-05-28T05:49:36.000Z</time>
      </trkpt>
      <trkpt lat="43.694" lon="3.1384">
        <ele>626.40002441406</ele>
        <time>2023-05-28T05:49:38.000Z</time>
      </trkpt>
      <trkpt lat="43.69401" lon="3.13837">
        <ele>626.79998779297</ele>
        <time>2023-05-28T05:49:42.000Z</time>
      </trkpt>
      <trkpt lat="43.69403" lon="3.13832">
        <ele>627.20001220703</ele>
        <time>2023-05-28T05:49:49.000Z</time>
      </trkpt>
      <trkpt lat="43.69404" lon="3.13831">
        <ele>627.59997558594</ele>
        <time>2023-05-28T05:49:52.000Z</time>
      </trkpt>
      <trkpt lat="43.69405" lon="3.13828">
        <ele>627.79998779297</ele>
        <time>2023-05-28T05:49:56.000Z</time>
      </trkpt>
      <trkpt lat="43.69407" lon="3.13823">
        <ele>628.20001220703</ele>
        <time>2023-05-28T05:50:02.000Z</time>
      </trkpt>
      <trkpt lat="43.69408" lon="3.13822">
        <ele>628.59997558594</ele>
        <time>2023-05-28T05:50:04.000Z</time>
      </trkpt>
      <trkpt lat="43.69409" lon="3.13817">
        <ele>629</ele>
        <time>2023-05-28T05:50:10.000Z</time>
      </trkpt>
      <trkpt lat="43.69411" lon="3.13813">
        <ele>629.40002441406</ele>
        <time>2023-05-28T05:50:15.000Z</time>
      </trkpt>
      <trkpt lat="43.69414" lon="3.13807">
        <ele>629.40002441406</ele>
        <time>2023-05-28T05:50:21.000Z</time>
      </trkpt>
      <trkpt lat="43.69415" lon="3.13805">
        <ele>629.59997558594</ele>
        <time>2023-05-28T05:50:25.000Z</time>
      </trkpt>
      <trkpt lat="43.69417" lon="3.13802">
        <ele>630</ele>
        <time>2023-05-28T05:50:29.000Z</time>
      </trkpt>
      <trkpt lat="43.69418" lon="3.13799">
        <ele>630.40002441406</ele>
        <time>2023-05-28T05:50:33.000Z</time>
      </trkpt>
      <trkpt lat="43.6942" lon="3.13793">
        <ele>630.79998779297</ele>
        <time>2023-05-28T05:50:39.000Z</time>
      </trkpt>
      <trkpt lat="43.69421" lon="3.13792">
        <ele>631</ele>
        <time>2023-05-28T05:50:41.000Z</time>
      </trkpt>
      <trkpt lat="43.69424" lon="3.13786">
        <ele>631.59997558594</ele>
        <time>2023-05-28T05:50:48.000Z</time>
      </trkpt>
      <trkpt lat="43.69425" lon="3.13784">
        <ele>631.79998779297</ele>
        <time>2023-05-28T05:50:50.000Z</time>
      </trkpt>
      <trkpt lat="43.69426" lon="3.13778">
        <ele>632.40002441406</ele>
        <time>2023-05-28T05:50:57.000Z</time>
      </trkpt>
      <trkpt lat="43.69429" lon="3.13773">
        <ele>632.79998779297</ele>
        <time>2023-05-28T05:51:03.000Z</time>
      </trkpt>
      <trkpt lat="43.69429" lon="3.13772">
        <ele>632.79998779297</ele>
        <time>2023-05-28T05:51:04.000Z</time>
      </trkpt>
      <trkpt lat="43.69429" lon="3.13771">
        <ele>633.20001220703</ele>
        <time>2023-05-28T05:51:10.000Z</time>
      </trkpt>
      <trkpt lat="43.69432" lon="3.13767">
        <ele>633.20001220703</ele>
        <time>2023-05-28T05:51:15.000Z</time>
      </trkpt>
      <trkpt lat="43.69435" lon="3.1376">
        <ele>633.59997558594</ele>
        <time>2023-05-28T05:51:22.000Z</time>
      </trkpt>
      <trkpt lat="43.69437" lon="3.13758">
        <ele>633.79998779297</ele>
        <time>2023-05-28T05:51:25.000Z</time>
      </trkpt>
      <trkpt lat="43.69438" lon="3.13755">
        <ele>634.20001220703</ele>
        <time>2023-05-28T05:51:28.000Z</time>
      </trkpt>
      <trkpt lat="43.69442" lon="3.13749">
        <ele>634.79998779297</ele>
        <time>2023-05-28T05:51:36.000Z</time>
      </trkpt>
      <trkpt lat="43.69443" lon="3.13748">
        <ele>634.79998779297</ele>
        <time>2023-05-28T05:51:37.000Z</time>
      </trkpt>
      <trkpt lat="43.69444" lon="3.13746">
        <ele>635</ele>
        <time>2023-05-28T05:51:39.000Z</time>
      </trkpt>
      <trkpt lat="43.69445" lon="3.13744">
        <ele>635.20001220703</ele>
        <time>2023-05-28T05:51:41.000Z</time>
      </trkpt>
      <trkpt lat="43.69445" lon="3.13742">
        <ele>635.40002441406</ele>
        <time>2023-05-28T05:51:42.000Z</time>
      </trkpt>
      <trkpt lat="43.69447" lon="3.13737">
        <ele>635.59997558594</ele>
        <time>2023-05-28T05:51:47.000Z</time>
      </trkpt>
      <trkpt lat="43.69448" lon="3.13733">
        <ele>635.79998779297</ele>
        <time>2023-05-28T05:51:51.000Z</time>
      </trkpt>
      <trkpt lat="43.69448" lon="3.13733">
        <ele>636</ele>
        <time>2023-05-28T05:51:53.000Z</time>
      </trkpt>
      <trkpt lat="43.69449" lon="3.13729">
        <ele>636.20001220703</ele>
        <time>2023-05-28T05:51:58.000Z</time>
      </trkpt>
      <trkpt lat="43.69449" lon="3.13725">
        <ele>636.59997558594</ele>
        <time>2023-05-28T05:52:05.000Z</time>
      </trkpt>
      <trkpt lat="43.69449" lon="3.13721">
        <ele>637</ele>
        <time>2023-05-28T05:52:10.000Z</time>
      </trkpt>
      <trkpt lat="43.69449" lon="3.13716">
        <ele>637.40002441406</ele>
        <time>2023-05-28T05:52:15.000Z</time>
      </trkpt>
      <trkpt lat="43.6945" lon="3.1371">
        <ele>638</ele>
        <time>2023-05-28T05:52:22.000Z</time>
      </trkpt>
      <trkpt lat="43.6945" lon="3.13705">
        <ele>638.59997558594</ele>
        <time>2023-05-28T05:52:28.000Z</time>
      </trkpt>
      <trkpt lat="43.69449" lon="3.13697">
        <ele>638.59997558594</ele>
        <time>2023-05-28T05:52:35.000Z</time>
      </trkpt>
      <trkpt lat="43.69449" lon="3.1369">
        <ele>638.79998779297</ele>
        <time>2023-05-28T05:52:43.000Z</time>
      </trkpt>
      <trkpt lat="43.69449" lon="3.13685">
        <ele>639</ele>
        <time>2023-05-28T05:52:50.000Z</time>
      </trkpt>
      <trkpt lat="43.69449" lon="3.13684">
        <ele>639</ele>
        <time>2023-05-28T05:52:51.000Z</time>
      </trkpt>
      <trkpt lat="43.69449" lon="3.13681">
        <ele>639.20001220703</ele>
        <time>2023-05-28T05:52:56.000Z</time>
      </trkpt>
      <trkpt lat="43.69449" lon="3.13676">
        <ele>639.59997558594</ele>
        <time>2023-05-28T05:53:02.000Z</time>
      </trkpt>
      <trkpt lat="43.6945" lon="3.13668">
        <ele>640</ele>
        <time>2023-05-28T05:53:08.000Z</time>
      </trkpt>
      <trkpt lat="43.6945" lon="3.13666">
        <ele>640</ele>
        <time>2023-05-28T05:53:10.000Z</time>
      </trkpt>
      <trkpt lat="43.6945" lon="3.13662">
        <ele>640.40002441406</ele>
        <time>2023-05-28T05:53:15.000Z</time>
      </trkpt>
      <trkpt lat="43.69451" lon="3.13654">
        <ele>640.20001220703</ele>
        <time>2023-05-28T05:53:23.000Z</time>
      </trkpt>
      <trkpt lat="43.69452" lon="3.13648">
        <ele>640.59997558594</ele>
        <time>2023-05-28T05:53:30.000Z</time>
      </trkpt>
      <trkpt lat="43.69453" lon="3.13642">
        <ele>641</ele>
        <time>2023-05-28T05:53:36.000Z</time>
      </trkpt>
      <trkpt lat="43.69453" lon="3.13642">
        <ele>641.20001220703</ele>
        <time>2023-05-28T05:53:37.000Z</time>
      </trkpt>
      <trkpt lat="43.69453" lon="3.1364">
        <ele>641.59997558594</ele>
        <time>2023-05-28T05:53:44.000Z</time>
      </trkpt>
      <trkpt lat="43.69453" lon="3.1363">
        <ele>641.40002441406</ele>
        <time>2023-05-28T05:53:51.000Z</time>
      </trkpt>
      <trkpt lat="43.69453" lon="3.13625">
        <ele>642</ele>
        <time>2023-05-28T05:53:57.000Z</time>
      </trkpt>
      <trkpt lat="43.69454" lon="3.13618">
        <ele>642</ele>
        <time>2023-05-28T05:54:03.000Z</time>
      </trkpt>
      <trkpt lat="43.69455" lon="3.13616">
        <ele>642</ele>
        <time>2023-05-28T05:54:05.000Z</time>
      </trkpt>
      <trkpt lat="43.69455" lon="3.13615">
        <ele>642</ele>
        <time>2023-05-28T05:54:06.000Z</time>
      </trkpt>
      <trkpt lat="43.69455" lon="3.13609">
        <ele>642.20001220703</ele>
        <time>2023-05-28T05:54:11.000Z</time>
      </trkpt>
      <trkpt lat="43.69456" lon="3.13601">
        <ele>642.79998779297</ele>
        <time>2023-05-28T05:54:18.000Z</time>
      </trkpt>
      <trkpt lat="43.69457" lon="3.13596">
        <ele>643</ele>
        <time>2023-05-28T05:54:23.000Z</time>
      </trkpt>
      <trkpt lat="43.69458" lon="3.13593">
        <ele>643.20001220703</ele>
        <time>2023-05-28T05:54:25.000Z</time>
      </trkpt>
      <trkpt lat="43.69458" lon="3.13587">
        <ele>643.59997558594</ele>
        <time>2023-05-28T05:54:31.000Z</time>
      </trkpt>
      <trkpt lat="43.69458" lon="3.13586">
        <ele>643.59997558594</ele>
        <time>2023-05-28T05:54:32.000Z</time>
      </trkpt>
      <trkpt lat="43.69459" lon="3.13582">
        <ele>643.79998779297</ele>
        <time>2023-05-28T05:54:35.000Z</time>
      </trkpt>
      <trkpt lat="43.69459" lon="3.1358">
        <ele>643.79998779297</ele>
        <time>2023-05-28T05:54:36.000Z</time>
      </trkpt>
      <trkpt lat="43.69459" lon="3.13578">
        <ele>644</ele>
        <time>2023-05-28T05:54:38.000Z</time>
      </trkpt>
      <trkpt lat="43.69459" lon="3.13576">
        <ele>644.20001220703</ele>
        <time>2023-05-28T05:54:40.000Z</time>
      </trkpt>
      <trkpt lat="43.69459" lon="3.13572">
        <ele>644.40002441406</ele>
        <time>2023-05-28T05:54:45.000Z</time>
      </trkpt>
      <trkpt lat="43.69461" lon="3.13565">
        <ele>645.20001220703</ele>
        <time>2023-05-28T05:54:53.000Z</time>
      </trkpt>
      <trkpt lat="43.69461" lon="3.13565">
        <ele>645.20001220703</ele>
        <time>2023-05-28T05:54:54.000Z</time>
      </trkpt>
      <trkpt lat="43.69462" lon="3.1356">
        <ele>645.20001220703</ele>
        <time>2023-05-28T05:55:00.000Z</time>
      </trkpt>
      <trkpt lat="43.69462" lon="3.13553">
        <ele>645.40002441406</ele>
        <time>2023-05-28T05:55:08.000Z</time>
      </trkpt>
      <trkpt lat="43.69463" lon="3.13547">
        <ele>646</ele>
        <time>2023-05-28T05:55:16.000Z</time>
      </trkpt>
      <trkpt lat="43.69463" lon="3.13546">
        <ele>646.20001220703</ele>
        <time>2023-05-28T05:55:17.000Z</time>
      </trkpt>
      <trkpt lat="43.69464" lon="3.13539">
        <ele>646.20001220703</ele>
        <time>2023-05-28T05:55:25.000Z</time>
      </trkpt>
      <trkpt lat="43.69463" lon="3.13533">
        <ele>646.40002441406</ele>
        <time>2023-05-28T05:55:31.000Z</time>
      </trkpt>
      <trkpt lat="43.69462" lon="3.13527">
        <ele>646.79998779297</ele>
        <time>2023-05-28T05:55:38.000Z</time>
      </trkpt>
      <trkpt lat="43.69459" lon="3.13519">
        <ele>647</ele>
        <time>2023-05-28T05:55:45.000Z</time>
      </trkpt>
      <trkpt lat="43.69459" lon="3.13518">
        <ele>647</ele>
        <time>2023-05-28T05:55:47.000Z</time>
      </trkpt>
      <trkpt lat="43.69458" lon="3.13513">
        <ele>647.20001220703</ele>
        <time>2023-05-28T05:55:52.000Z</time>
      </trkpt>
      <trkpt lat="43.69457" lon="3.13503">
        <ele>647.79998779297</ele>
        <time>2023-05-28T05:56:00.000Z</time>
      </trkpt>
      <trkpt lat="43.69457" lon="3.13497">
        <ele>648.20001220703</ele>
        <time>2023-05-28T05:56:05.000Z</time>
      </trkpt>
      <trkpt lat="43.69457" lon="3.13495">
        <ele>648.20001220703</ele>
        <time>2023-05-28T05:56:06.000Z</time>
      </trkpt>
      <trkpt lat="43.69457" lon="3.13494">
        <ele>648.20001220703</ele>
        <time>2023-05-28T05:56:07.000Z</time>
      </trkpt>
      <trkpt lat="43.69457" lon="3.13486">
        <ele>648.40002441406</ele>
        <time>2023-05-28T05:56:13.000Z</time>
      </trkpt>
      <trkpt lat="43.69457" lon="3.13485">
        <ele>648.59997558594</ele>
        <time>2023-05-28T05:56:14.000Z</time>
      </trkpt>
      <trkpt lat="43.69456" lon="3.1348">
        <ele>649</ele>
        <time>2023-05-28T05:56:19.000Z</time>
      </trkpt>
      <trkpt lat="43.69455" lon="3.13479">
        <ele>649</ele>
        <time>2023-05-28T05:56:20.000Z</time>
      </trkpt>
      <trkpt lat="43.69455" lon="3.13478">
        <ele>649</ele>
        <time>2023-05-28T05:56:21.000Z</time>
      </trkpt>
      <trkpt lat="43.69453" lon="3.13474">
        <ele>649.20001220703</ele>
        <time>2023-05-28T05:56:29.000Z</time>
      </trkpt>
      <trkpt lat="43.6945" lon="3.13469">
        <ele>649.40002441406</ele>
        <time>2023-05-28T05:56:35.000Z</time>
      </trkpt>
      <trkpt lat="43.69445" lon="3.13465">
        <ele>650</ele>
        <time>2023-05-28T05:56:43.000Z</time>
      </trkpt>
      <trkpt lat="43.69444" lon="3.13463">
        <ele>650.20001220703</ele>
        <time>2023-05-28T05:56:46.000Z</time>
      </trkpt>
      <trkpt lat="43.69442" lon="3.13459">
        <ele>650.59997558594</ele>
        <time>2023-05-28T05:56:51.000Z</time>
      </trkpt>
      <trkpt lat="43.69438" lon="3.13455">
        <ele>650.59997558594</ele>
        <time>2023-05-28T05:56:59.000Z</time>
      </trkpt>
      <trkpt lat="43.69434" lon="3.13452">
        <ele>651.20001220703</ele>
        <time>2023-05-28T05:57:07.000Z</time>
      </trkpt>
      <trkpt lat="43.69431" lon="3.13451">
        <ele>651.20001220703</ele>
        <time>2023-05-28T05:57:11.000Z</time>
      </trkpt>
      <trkpt lat="43.69428" lon="3.13448">
        <ele>651.59997558594</ele>
        <time>2023-05-28T05:57:16.000Z</time>
      </trkpt>
      <trkpt lat="43.69424" lon="3.13445">
        <ele>651.59997558594</ele>
        <time>2023-05-28T05:57:22.000Z</time>
      </trkpt>
      <trkpt lat="43.6942" lon="3.1344">
        <ele>651.79998779297</ele>
        <time>2023-05-28T05:57:30.000Z</time>
      </trkpt>
      <trkpt lat="43.69417" lon="3.13435">
        <ele>652.20001220703</ele>
        <time>2023-05-28T05:57:38.000Z</time>
      </trkpt>
      <trkpt lat="43.69416" lon="3.13435">
        <ele>652.40002441406</ele>
        <time>2023-05-28T05:57:40.000Z</time>
      </trkpt>
      <trkpt lat="43.69415" lon="3.13431">
        <ele>652.59997558594</ele>
        <time>2023-05-28T05:57:45.000Z</time>
      </trkpt>
      <trkpt lat="43.6941" lon="3.13425">
        <ele>653</ele>
        <time>2023-05-28T05:57:52.000Z</time>
      </trkpt>
      <trkpt lat="43.69407" lon="3.13422">
        <ele>653.40002441406</ele>
        <time>2023-05-28T05:57:56.000Z</time>
      </trkpt>
      <trkpt lat="43.69406" lon="3.13419">
        <ele>653.59997558594</ele>
        <time>2023-05-28T05:57:59.000Z</time>
      </trkpt>
      <trkpt lat="43.69403" lon="3.13416">
        <ele>654</ele>
        <time>2023-05-28T05:58:05.000Z</time>
      </trkpt>
      <trkpt lat="43.69402" lon="3.13414">
        <ele>654.40002441406</ele>
        <time>2023-05-28T05:58:08.000Z</time>
      </trkpt>
      <trkpt lat="43.694" lon="3.13411">
        <ele>655</ele>
        <time>2023-05-28T05:58:12.000Z</time>
      </trkpt>
      <trkpt lat="43.69396" lon="3.13406">
        <ele>655.40002441406</ele>
        <time>2023-05-28T05:58:18.000Z</time>
      </trkpt>
      <trkpt lat="43.69396" lon="3.13404">
        <ele>655.40002441406</ele>
        <time>2023-05-28T05:58:20.000Z</time>
      </trkpt>
      <trkpt lat="43.69391" lon="3.13397">
        <ele>655.59997558594</ele>
        <time>2023-05-28T05:58:29.000Z</time>
      </trkpt>
      <trkpt lat="43.69387" lon="3.1339">
        <ele>655.79998779297</ele>
        <time>2023-05-28T05:58:35.000Z</time>
      </trkpt>
      <trkpt lat="43.69385" lon="3.13385">
        <ele>656.40002441406</ele>
        <time>2023-05-28T05:58:43.000Z</time>
      </trkpt>
      <trkpt lat="43.69384" lon="3.13384">
        <ele>656.40002441406</ele>
        <time>2023-05-28T05:58:44.000Z</time>
      </trkpt>
      <trkpt lat="43.69382" lon="3.13379">
        <ele>656.40002441406</ele>
        <time>2023-05-28T05:58:50.000Z</time>
      </trkpt>
      <trkpt lat="43.69378" lon="3.13373">
        <ele>656.79998779297</ele>
        <time>2023-05-28T05:58:57.000Z</time>
      </trkpt>
      <trkpt lat="43.69374" lon="3.13369">
        <ele>657</ele>
        <time>2023-05-28T05:59:04.000Z</time>
      </trkpt>
      <trkpt lat="43.69371" lon="3.13364">
        <ele>657.40002441406</ele>
        <time>2023-05-28T05:59:10.000Z</time>
      </trkpt>
      <trkpt lat="43.6937" lon="3.13364">
        <ele>657.40002441406</ele>
        <time>2023-05-28T05:59:11.000Z</time>
      </trkpt>
      <trkpt lat="43.69367" lon="3.13359">
        <ele>657.79998779297</ele>
        <time>2023-05-28T05:59:17.000Z</time>
      </trkpt>
      <trkpt lat="43.69365" lon="3.13356">
        <ele>657.79998779297</ele>
        <time>2023-05-28T05:59:21.000Z</time>
      </trkpt>
      <trkpt lat="43.69365" lon="3.13353">
        <ele>658</ele>
        <time>2023-05-28T05:59:23.000Z</time>
      </trkpt>
      <trkpt lat="43.69365" lon="3.13346">
        <ele>658.20001220703</ele>
        <time>2023-05-28T05:59:30.000Z</time>
      </trkpt>
      <trkpt lat="43.69365" lon="3.13343">
        <ele>658.20001220703</ele>
        <time>2023-05-28T05:59:32.000Z</time>
      </trkpt>
      <trkpt lat="43.69365" lon="3.13342">
        <ele>658.40002441406</ele>
        <time>2023-05-28T05:59:33.000Z</time>
      </trkpt>
      <trkpt lat="43.69366" lon="3.1334">
        <ele>658.40002441406</ele>
        <time>2023-05-28T05:59:35.000Z</time>
      </trkpt>
      <trkpt lat="43.69367" lon="3.1334">
        <ele>658.59997558594</ele>
        <time>2023-05-28T05:59:36.000Z</time>
      </trkpt>
      <trkpt lat="43.69368" lon="3.13334">
        <ele>659</ele>
        <time>2023-05-28T05:59:42.000Z</time>
      </trkpt>
      <trkpt lat="43.6937" lon="3.1333">
        <ele>659.40002441406</ele>
        <time>2023-05-28T05:59:47.000Z</time>
      </trkpt>
      <trkpt lat="43.69371" lon="3.13328">
        <ele>659.59997558594</ele>
        <time>2023-05-28T05:59:50.000Z</time>
      </trkpt>
      <trkpt lat="43.69375" lon="3.13323">
        <ele>660</ele>
        <time>2023-05-28T05:59:57.000Z</time>
      </trkpt>
      <trkpt lat="43.69378" lon="3.1332">
        <ele>660.20001220703</ele>
        <time>2023-05-28T06:00:03.000Z</time>
      </trkpt>
      <trkpt lat="43.69381" lon="3.13314">
        <ele>660.20001220703</ele>
        <time>2023-05-28T06:00:09.000Z</time>
      </trkpt>
      <trkpt lat="43.69384" lon="3.13311">
        <ele>660.59997558594</ele>
        <time>2023-05-28T06:00:15.000Z</time>
      </trkpt>
      <trkpt lat="43.69385" lon="3.13309">
        <ele>660.59997558594</ele>
        <time>2023-05-28T06:00:17.000Z</time>
      </trkpt>
      <trkpt lat="43.69388" lon="3.13303">
        <ele>661.20001220703</ele>
        <time>2023-05-28T06:00:25.000Z</time>
      </trkpt>
      <trkpt lat="43.6939" lon="3.13298">
        <ele>661.59997558594</ele>
        <time>2023-05-28T06:00:31.000Z</time>
      </trkpt>
      <trkpt lat="43.69391" lon="3.13296">
        <ele>661.59997558594</ele>
        <time>2023-05-28T06:00:33.000Z</time>
      </trkpt>
      <trkpt lat="43.69392" lon="3.13295">
        <ele>661.59997558594</ele>
        <time>2023-05-28T06:00:34.000Z</time>
      </trkpt>
      <trkpt lat="43.69394" lon="3.13291">
        <ele>661.79998779297</ele>
        <time>2023-05-28T06:00:39.000Z</time>
      </trkpt>
      <trkpt lat="43.69397" lon="3.13288">
        <ele>662</ele>
        <time>2023-05-28T06:00:45.000Z</time>
      </trkpt>
      <trkpt lat="43.69401" lon="3.13282">
        <ele>662.40002441406</ele>
        <time>2023-05-28T06:00:53.000Z</time>
      </trkpt>
      <trkpt lat="43.69401" lon="3.13282">
        <ele>662.59997558594</ele>
        <time>2023-05-28T06:00:54.000Z</time>
      </trkpt>
      <trkpt lat="43.69404" lon="3.13277">
        <ele>662.79998779297</ele>
        <time>2023-05-28T06:01:00.000Z</time>
      </trkpt>
      <trkpt lat="43.69408" lon="3.13272">
        <ele>663.40002441406</ele>
        <time>2023-05-28T06:01:08.000Z</time>
      </trkpt>
      <trkpt lat="43.6941" lon="3.13269">
        <ele>663.59997558594</ele>
        <time>2023-05-28T06:01:11.000Z</time>
      </trkpt>
      <trkpt lat="43.69411" lon="3.13267">
        <ele>663.59997558594</ele>
        <time>2023-05-28T06:01:13.000Z</time>
      </trkpt>
      <trkpt lat="43.69413" lon="3.13264">
        <ele>663.79998779297</ele>
        <time>2023-05-28T06:01:17.000Z</time>
      </trkpt>
      <trkpt lat="43.69414" lon="3.13261">
        <ele>664</ele>
        <time>2023-05-28T06:01:20.000Z</time>
      </trkpt>
      <trkpt lat="43.69417" lon="3.13257">
        <ele>664.20001220703</ele>
        <time>2023-05-28T06:01:25.000Z</time>
      </trkpt>
      <trkpt lat="43.69419" lon="3.13255">
        <ele>664.20001220703</ele>
        <time>2023-05-28T06:01:27.000Z</time>
      </trkpt>
      <trkpt lat="43.6942" lon="3.13253">
        <ele>664.40002441406</ele>
        <time>2023-05-28T06:01:30.000Z</time>
      </trkpt>
      <trkpt lat="43.69421" lon="3.13249">
        <ele>664.40002441406</ele>
        <time>2023-05-28T06:01:33.000Z</time>
      </trkpt>
      <trkpt lat="43.69422" lon="3.13248">
        <ele>664.40002441406</ele>
        <time>2023-05-28T06:01:34.000Z</time>
      </trkpt>
      <trkpt lat="43.69424" lon="3.13246">
        <ele>664.59997558594</ele>
        <time>2023-05-28T06:01:37.000Z</time>
      </trkpt>
      <trkpt lat="43.69424" lon="3.13246">
        <ele>664.59997558594</ele>
        <time>2023-05-28T06:01:38.000Z</time>
      </trkpt>
      <trkpt lat="43.69426" lon="3.13243">
        <ele>664.59997558594</ele>
        <time>2023-05-28T06:01:41.000Z</time>
      </trkpt>
      <trkpt lat="43.69426" lon="3.13242">
        <ele>664.79998779297</ele>
        <time>2023-05-28T06:01:42.000Z</time>
      </trkpt>
      <trkpt lat="43.69429" lon="3.13239">
        <ele>665</ele>
        <time>2023-05-28T06:01:47.000Z</time>
      </trkpt>
      <trkpt lat="43.69433" lon="3.13235">
        <ele>665.20001220703</ele>
        <time>2023-05-28T06:01:52.000Z</time>
      </trkpt>
      <trkpt lat="43.69434" lon="3.13233">
        <ele>665.40002441406</ele>
        <time>2023-05-28T06:01:55.000Z</time>
      </trkpt>
      <trkpt lat="43.69437" lon="3.13229">
        <ele>665.59997558594</ele>
        <time>2023-05-28T06:02:00.000Z</time>
      </trkpt>
      <trkpt lat="43.69438" lon="3.13228">
        <ele>665.59997558594</ele>
        <time>2023-05-28T06:02:01.000Z</time>
      </trkpt>
      <trkpt lat="43.69439" lon="3.13228">
        <ele>665.79998779297</ele>
        <time>2023-05-28T06:02:02.000Z</time>
      </trkpt>
      <trkpt lat="43.69442" lon="3.13224">
        <ele>666</ele>
        <time>2023-05-28T06:02:07.000Z</time>
      </trkpt>
      <trkpt lat="43.69444" lon="3.13221">
        <ele>666.40002441406</ele>
        <time>2023-05-28T06:02:11.000Z</time>
      </trkpt>
      <trkpt lat="43.69446" lon="3.13218">
        <ele>666.59997558594</ele>
        <time>2023-05-28T06:02:15.000Z</time>
      </trkpt>
      <trkpt lat="43.69451" lon="3.13212">
        <ele>667</ele>
        <time>2023-05-28T06:02:22.000Z</time>
      </trkpt>
      <trkpt lat="43.69452" lon="3.1321">
        <ele>667</ele>
        <time>2023-05-28T06:02:24.000Z</time>
      </trkpt>
      <trkpt lat="43.69455" lon="3.13207">
        <ele>667.40002441406</ele>
        <time>2023-05-28T06:02:28.000Z</time>
      </trkpt>
      <trkpt lat="43.69456" lon="3.13206">
        <ele>667.40002441406</ele>
        <time>2023-05-28T06:02:29.000Z</time>
      </trkpt>
      <trkpt lat="43.69456" lon="3.13206">
        <ele>667.40002441406</ele>
        <time>2023-05-28T06:02:30.000Z</time>
      </trkpt>
      <trkpt lat="43.69458" lon="3.13204">
        <ele>667.59997558594</ele>
        <time>2023-05-28T06:02:33.000Z</time>
      </trkpt>
      <trkpt lat="43.69459" lon="3.13203">
        <ele>667.59997558594</ele>
        <time>2023-05-28T06:02:34.000Z</time>
      </trkpt>
      <trkpt lat="43.6946" lon="3.13202">
        <ele>667.79998779297</ele>
        <time>2023-05-28T06:02:35.000Z</time>
      </trkpt>
      <trkpt lat="43.69461" lon="3.13199">
        <ele>667.79998779297</ele>
        <time>2023-05-28T06:02:38.000Z</time>
      </trkpt>
      <trkpt lat="43.69463" lon="3.13196">
        <ele>667.79998779297</ele>
        <time>2023-05-28T06:02:41.000Z</time>
      </trkpt>
      <trkpt lat="43.69465" lon="3.13193">
        <ele>667.79998779297</ele>
        <time>2023-05-28T06:02:44.000Z</time>
      </trkpt>
      <trkpt lat="43.69466" lon="3.13192">
        <ele>668</ele>
        <time>2023-05-28T06:02:45.000Z</time>
      </trkpt>
      <trkpt lat="43.69467" lon="3.1319">
        <ele>668</ele>
        <time>2023-05-28T06:02:47.000Z</time>
      </trkpt>
      <trkpt lat="43.69469" lon="3.13188">
        <ele>668.20001220703</ele>
        <time>2023-05-28T06:02:49.000Z</time>
      </trkpt>
      <trkpt lat="43.6947" lon="3.13186">
        <ele>668.20001220703</ele>
        <time>2023-05-28T06:02:51.000Z</time>
      </trkpt>
      <trkpt lat="43.69472" lon="3.13184">
        <ele>668.40002441406</ele>
        <time>2023-05-28T06:02:54.000Z</time>
      </trkpt>
      <trkpt lat="43.69472" lon="3.13184">
        <ele>668.40002441406</ele>
        <time>2023-05-28T06:02:55.000Z</time>
      </trkpt>
      <trkpt lat="43.69475" lon="3.13181">
        <ele>668.79998779297</ele>
        <time>2023-05-28T06:02:59.000Z</time>
      </trkpt>
      <trkpt lat="43.69476" lon="3.1318">
        <ele>668.79998779297</ele>
        <time>2023-05-28T06:03:01.000Z</time>
      </trkpt>
      <trkpt lat="43.69482" lon="3.13175">
        <ele>669.20001220703</ele>
        <time>2023-05-28T06:03:09.000Z</time>
      </trkpt>
      <trkpt lat="43.69486" lon="3.1317">
        <ele>669.59997558594</ele>
        <time>2023-05-28T06:03:15.000Z</time>
      </trkpt>
      <trkpt lat="43.69487" lon="3.1317">
        <ele>669.79998779297</ele>
        <time>2023-05-28T06:03:16.000Z</time>
      </trkpt>
      <trkpt lat="43.69491" lon="3.13167">
        <ele>670.40002441406</ele>
        <time>2023-05-28T06:03:22.000Z</time>
      </trkpt>
      <trkpt lat="43.69495" lon="3.13163">
        <ele>670.79998779297</ele>
        <time>2023-05-28T06:03:28.000Z</time>
      </trkpt>
      <trkpt lat="43.69496" lon="3.13163">
        <ele>670.79998779297</ele>
        <time>2023-05-28T06:03:29.000Z</time>
      </trkpt>
      <trkpt lat="43.69496" lon="3.13162">
        <ele>671</ele>
        <time>2023-05-28T06:03:30.000Z</time>
      </trkpt>
      <trkpt lat="43.69502" lon="3.13159">
        <ele>671.40002441406</ele>
        <time>2023-05-28T06:03:37.000Z</time>
      </trkpt>
      <trkpt lat="43.69508" lon="3.13156">
        <ele>671.79998779297</ele>
        <time>2023-05-28T06:03:43.000Z</time>
      </trkpt>
      <trkpt lat="43.69508" lon="3.13156">
        <ele>671.79998779297</ele>
        <time>2023-05-28T06:03:44.000Z</time>
      </trkpt>
      <trkpt lat="43.69509" lon="3.13155">
        <ele>672</ele>
        <time>2023-05-28T06:03:45.000Z</time>
      </trkpt>
      <trkpt lat="43.69513" lon="3.13154">
        <ele>672.20001220703</ele>
        <time>2023-05-28T06:03:50.000Z</time>
      </trkpt>
      <trkpt lat="43.69518" lon="3.13155">
        <ele>672.40002441406</ele>
        <time>2023-05-28T06:03:55.000Z</time>
      </trkpt>
      <trkpt lat="43.69519" lon="3.13155">
        <ele>672.40002441406</ele>
        <time>2023-05-28T06:03:56.000Z</time>
      </trkpt>
      <trkpt lat="43.69524" lon="3.13157">
        <ele>672.79998779297</ele>
        <time>2023-05-28T06:04:03.000Z</time>
      </trkpt>
      <trkpt lat="43.69525" lon="3.13158">
        <ele>673</ele>
        <time>2023-05-28T06:04:04.000Z</time>
      </trkpt>
      <trkpt lat="43.69527" lon="3.13162">
        <ele>673.40002441406</ele>
        <time>2023-05-28T06:04:09.000Z</time>
      </trkpt>
      <trkpt lat="43.69528" lon="3.13165">
        <ele>673.79998779297</ele>
        <time>2023-05-28T06:04:14.000Z</time>
      </trkpt>
      <trkpt lat="43.69529" lon="3.13165">
        <ele>674</ele>
        <time>2023-05-28T06:04:17.000Z</time>
      </trkpt>
      <trkpt lat="43.69528" lon="3.13166">
        <ele>674</ele>
        <time>2023-05-28T06:04:21.000Z</time>
      </trkpt>
      <trkpt lat="43.69528" lon="3.13168">
        <ele>674.20001220703</ele>
        <time>2023-05-28T06:04:26.000Z</time>
      </trkpt>
      <trkpt lat="43.69528" lon="3.13174">
        <ele>674.40002441406</ele>
        <time>2023-05-28T06:04:32.000Z</time>
      </trkpt>
      <trkpt lat="43.6953" lon="3.13174">
        <ele>674.40002441406</ele>
        <time>2023-05-28T06:04:38.000Z</time>
      </trkpt>
      <trkpt lat="43.69531" lon="3.13176">
        <ele>674.40002441406</ele>
        <time>2023-05-28T06:04:45.000Z</time>
      </trkpt>
      <trkpt lat="43.69534" lon="3.13176">
        <ele>674.20001220703</ele>
        <time>2023-05-28T06:11:01.000Z</time>
      </trkpt>
      <trkpt lat="43.69534" lon="3.13177">
        <ele>674.20001220703</ele>
        <time>2023-05-28T06:11:09.000Z</time>
      </trkpt>
      <trkpt lat="43.69535" lon="3.13178">
        <ele>674</ele>
        <time>2023-05-28T06:11:17.000Z</time>
      </trkpt>
      <trkpt lat="43.69535" lon="3.13178">
        <ele>674.40002441406</ele>
        <time>2023-05-28T06:11:23.000Z</time>
      </trkpt>
      <trkpt lat="43.69536" lon="3.13178">
        <ele>674.20001220703</ele>
        <time>2023-05-28T06:11:33.000Z</time>
      </trkpt>
      <trkpt lat="43.69535" lon="3.1318">
        <ele>674.20001220703</ele>
        <time>2023-05-28T06:11:43.000Z</time>
      </trkpt>
      <trkpt lat="43.69538" lon="3.13178">
        <ele>674.20001220703</ele>
        <time>2023-05-28T06:11:49.000Z</time>
      </trkpt>
      <trkpt lat="43.69543" lon="3.13178">
        <ele>674.20001220703</ele>
        <time>2023-05-28T06:11:55.000Z</time>
      </trkpt>
      <trkpt lat="43.69549" lon="3.13183">
        <ele>674</ele>
        <time>2023-05-28T06:12:02.000Z</time>
      </trkpt>
      <trkpt lat="43.69558" lon="3.13189">
        <ele>674</ele>
        <time>2023-05-28T06:12:11.000Z</time>
      </trkpt>
      <trkpt lat="43.69562" lon="3.13194">
        <ele>673.40002441406</ele>
        <time>2023-05-28T06:12:17.000Z</time>
      </trkpt>
      <trkpt lat="43.69567" lon="3.13199">
        <ele>673.20001220703</ele>
        <time>2023-05-28T06:12:24.000Z</time>
      </trkpt>
      <trkpt lat="43.69569" lon="3.13201">
        <ele>673</ele>
        <time>2023-05-28T06:12:27.000Z</time>
      </trkpt>
      <trkpt lat="43.6957" lon="3.13203">
        <ele>673</ele>
        <time>2023-05-28T06:12:29.000Z</time>
      </trkpt>
      <trkpt lat="43.69572" lon="3.13205">
        <ele>672.79998779297</ele>
        <time>2023-05-28T06:12:31.000Z</time>
      </trkpt>
      <trkpt lat="43.69577" lon="3.13209">
        <ele>672.59997558594</ele>
        <time>2023-05-28T06:12:37.000Z</time>
      </trkpt>
      <trkpt lat="43.69578" lon="3.13211">
        <ele>672.59997558594</ele>
        <time>2023-05-28T06:12:39.000Z</time>
      </trkpt>
      <trkpt lat="43.69583" lon="3.13217">
        <ele>672.40002441406</ele>
        <time>2023-05-28T06:12:46.000Z</time>
      </trkpt>
      <trkpt lat="43.69589" lon="3.13224">
        <ele>672.20001220703</ele>
        <time>2023-05-28T06:12:55.000Z</time>
      </trkpt>
      <trkpt lat="43.69594" lon="3.1323">
        <ele>672</ele>
        <time>2023-05-28T06:13:03.000Z</time>
      </trkpt>
      <trkpt lat="43.69599" lon="3.13237">
        <ele>671.79998779297</ele>
        <time>2023-05-28T06:13:11.000Z</time>
      </trkpt>
      <trkpt lat="43.69605" lon="3.13244">
        <ele>671.59997558594</ele>
        <time>2023-05-28T06:13:19.000Z</time>
      </trkpt>
      <trkpt lat="43.69612" lon="3.13251">
        <ele>671.40002441406</ele>
        <time>2023-05-28T06:13:28.000Z</time>
      </trkpt>
      <trkpt lat="43.69619" lon="3.13257">
        <ele>671</ele>
        <time>2023-05-28T06:13:37.000Z</time>
      </trkpt>
      <trkpt lat="43.69623" lon="3.13259">
        <ele>670.79998779297</ele>
        <time>2023-05-28T06:13:41.000Z</time>
      </trkpt>
      <trkpt lat="43.69627" lon="3.13261">
        <ele>670.59997558594</ele>
        <time>2023-05-28T06:13:45.000Z</time>
      </trkpt>
      <trkpt lat="43.69635" lon="3.13265">
        <ele>670.59997558594</ele>
        <time>2023-05-28T06:13:54.000Z</time>
      </trkpt>
      <trkpt lat="43.69645" lon="3.13268">
        <ele>670.20001220703</ele>
        <time>2023-05-28T06:14:04.000Z</time>
      </trkpt>
      <trkpt lat="43.69652" lon="3.13272">
        <ele>669.79998779297</ele>
        <time>2023-05-28T06:14:11.000Z</time>
      </trkpt>
      <trkpt lat="43.69657" lon="3.13273">
        <ele>669.79998779297</ele>
        <time>2023-05-28T06:14:15.000Z</time>
      </trkpt>
      <trkpt lat="43.69659" lon="3.13274">
        <ele>669.79998779297</ele>
        <time>2023-05-28T06:14:17.000Z</time>
      </trkpt>
      <trkpt lat="43.69662" lon="3.13276">
        <ele>669.59997558594</ele>
        <time>2023-05-28T06:14:21.000Z</time>
      </trkpt>
      <trkpt lat="43.69667" lon="3.13277">
        <ele>669.40002441406</ele>
        <time>2023-05-28T06:14:25.000Z</time>
      </trkpt>
      <trkpt lat="43.6967" lon="3.13278">
        <ele>669.20001220703</ele>
        <time>2023-05-28T06:14:28.000Z</time>
      </trkpt>
      <trkpt lat="43.69679" lon="3.13283">
        <ele>669</ele>
        <time>2023-05-28T06:14:36.000Z</time>
      </trkpt>
      <trkpt lat="43.69684" lon="3.13284">
        <ele>668.59997558594</ele>
        <time>2023-05-28T06:14:41.000Z</time>
      </trkpt>
      <trkpt lat="43.69686" lon="3.13285">
        <ele>668.59997558594</ele>
        <time>2023-05-28T06:14:43.000Z</time>
      </trkpt>
      <trkpt lat="43.6969" lon="3.13285">
        <ele>668.40002441406</ele>
        <time>2023-05-28T06:14:47.000Z</time>
      </trkpt>
      <trkpt lat="43.69693" lon="3.13286">
        <ele>668.40002441406</ele>
        <time>2023-05-28T06:14:50.000Z</time>
      </trkpt>
      <trkpt lat="43.69701" lon="3.13287">
        <ele>668</ele>
        <time>2023-05-28T06:14:58.000Z</time>
      </trkpt>
      <trkpt lat="43.69711" lon="3.13289">
        <ele>667.59997558594</ele>
        <time>2023-05-28T06:15:07.000Z</time>
      </trkpt>
      <trkpt lat="43.69715" lon="3.1329">
        <ele>667.40002441406</ele>
        <time>2023-05-28T06:15:11.000Z</time>
      </trkpt>
      <trkpt lat="43.69719" lon="3.13291">
        <ele>667.20001220703</ele>
        <time>2023-05-28T06:15:14.000Z</time>
      </trkpt>
      <trkpt lat="43.69728" lon="3.13295">
        <ele>666.59997558594</ele>
        <time>2023-05-28T06:15:22.000Z</time>
      </trkpt>
      <trkpt lat="43.6973" lon="3.13295">
        <ele>666.40002441406</ele>
        <time>2023-05-28T06:15:24.000Z</time>
      </trkpt>
      <trkpt lat="43.69739" lon="3.133">
        <ele>666</ele>
        <time>2023-05-28T06:15:33.000Z</time>
      </trkpt>
      <trkpt lat="43.69747" lon="3.13305">
        <ele>665.79998779297</ele>
        <time>2023-05-28T06:15:42.000Z</time>
      </trkpt>
      <trkpt lat="43.69749" lon="3.13307">
        <ele>665.59997558594</ele>
        <time>2023-05-28T06:15:44.000Z</time>
      </trkpt>
      <trkpt lat="43.69758" lon="3.13314">
        <ele>665.40002441406</ele>
        <time>2023-05-28T06:15:52.000Z</time>
      </trkpt>
      <trkpt lat="43.69764" lon="3.13326">
        <ele>665.20001220703</ele>
        <time>2023-05-28T06:16:00.000Z</time>
      </trkpt>
      <trkpt lat="43.69768" lon="3.13335">
        <ele>664.79998779297</ele>
        <time>2023-05-28T06:16:06.000Z</time>
      </trkpt>
      <trkpt lat="43.69771" lon="3.13336">
        <ele>664.59997558594</ele>
        <time>2023-05-28T06:16:08.000Z</time>
      </trkpt>
      <trkpt lat="43.69772" lon="3.13338">
        <ele>664.59997558594</ele>
        <time>2023-05-28T06:16:09.000Z</time>
      </trkpt>
      <trkpt lat="43.69773" lon="3.13339">
        <ele>664.20001220703</ele>
        <time>2023-05-28T06:16:13.000Z</time>
      </trkpt>
      <trkpt lat="43.69773" lon="3.13341">
        <ele>664.20001220703</ele>
        <time>2023-05-28T06:16:14.000Z</time>
      </trkpt>
      <trkpt lat="43.69776" lon="3.13346">
        <ele>664.20001220703</ele>
        <time>2023-05-28T06:16:18.000Z</time>
      </trkpt>
      <trkpt lat="43.69777" lon="3.13347">
        <ele>664.20001220703</ele>
        <time>2023-05-28T06:16:19.000Z</time>
      </trkpt>
      <trkpt lat="43.69778" lon="3.13349">
        <ele>664</ele>
        <time>2023-05-28T06:16:21.000Z</time>
      </trkpt>
      <trkpt lat="43.6978" lon="3.13351">
        <ele>664</ele>
        <time>2023-05-28T06:16:23.000Z</time>
      </trkpt>
      <trkpt lat="43.69781" lon="3.13355">
        <ele>663.59997558594</ele>
        <time>2023-05-28T06:16:26.000Z</time>
      </trkpt>
      <trkpt lat="43.69782" lon="3.13356">
        <ele>663.59997558594</ele>
        <time>2023-05-28T06:16:28.000Z</time>
      </trkpt>
      <trkpt lat="43.69782" lon="3.13357">
        <ele>663.40002441406</ele>
        <time>2023-05-28T06:16:29.000Z</time>
      </trkpt>
      <trkpt lat="43.69789" lon="3.13366">
        <ele>663</ele>
        <time>2023-05-28T06:16:38.000Z</time>
      </trkpt>
      <trkpt lat="43.69794" lon="3.13375">
        <ele>662.40002441406</ele>
        <time>2023-05-28T06:16:46.000Z</time>
      </trkpt>
      <trkpt lat="43.69798" lon="3.13382">
        <ele>662</ele>
        <time>2023-05-28T06:16:52.000Z</time>
      </trkpt>
      <trkpt lat="43.698" lon="3.13389">
        <ele>661.40002441406</ele>
        <time>2023-05-28T06:16:57.000Z</time>
      </trkpt>
      <trkpt lat="43.69801" lon="3.13389">
        <ele>661.40002441406</ele>
        <time>2023-05-28T06:16:58.000Z</time>
      </trkpt>
      <trkpt lat="43.69802" lon="3.1339">
        <ele>661.20001220703</ele>
        <time>2023-05-28T06:16:59.000Z</time>
      </trkpt>
      <trkpt lat="43.69808" lon="3.13396">
        <ele>660.79998779297</ele>
        <time>2023-05-28T06:17:06.000Z</time>
      </trkpt>
      <trkpt lat="43.69815" lon="3.13402">
        <ele>660.40002441406</ele>
        <time>2023-05-28T06:17:14.000Z</time>
      </trkpt>
      <trkpt lat="43.69815" lon="3.13403">
        <ele>660.40002441406</ele>
        <time>2023-05-28T06:17:15.000Z</time>
      </trkpt>
      <trkpt lat="43.69816" lon="3.13404">
        <ele>660.20001220703</ele>
        <time>2023-05-28T06:17:16.000Z</time>
      </trkpt>
      <trkpt lat="43.69821" lon="3.13408">
        <ele>659.79998779297</ele>
        <time>2023-05-28T06:17:21.000Z</time>
      </trkpt>
      <trkpt lat="43.69826" lon="3.13413">
        <ele>659.40002441406</ele>
        <time>2023-05-28T06:17:27.000Z</time>
      </trkpt>
      <trkpt lat="43.69826" lon="3.13414">
        <ele>659.20001220703</ele>
        <time>2023-05-28T06:17:29.000Z</time>
      </trkpt>
      <trkpt lat="43.69831" lon="3.13422">
        <ele>659.20001220703</ele>
        <time>2023-05-28T06:17:38.000Z</time>
      </trkpt>
      <trkpt lat="43.69836" lon="3.13431">
        <ele>658.40002441406</ele>
        <time>2023-05-28T06:17:46.000Z</time>
      </trkpt>
      <trkpt lat="43.69836" lon="3.13432">
        <ele>658.20001220703</ele>
        <time>2023-05-28T06:17:47.000Z</time>
      </trkpt>
      <trkpt lat="43.69837" lon="3.13433">
        <ele>658.20001220703</ele>
        <time>2023-05-28T06:17:48.000Z</time>
      </trkpt>
      <trkpt lat="43.69841" lon="3.13436">
        <ele>658</ele>
        <time>2023-05-28T06:17:52.000Z</time>
      </trkpt>
      <trkpt lat="43.69842" lon="3.13436">
        <ele>657.79998779297</ele>
        <time>2023-05-28T06:17:53.000Z</time>
      </trkpt>
      <trkpt lat="43.69847" lon="3.1344">
        <ele>657.20001220703</ele>
        <time>2023-05-28T06:17:58.000Z</time>
      </trkpt>
      <trkpt lat="43.69851" lon="3.1344">
        <ele>657</ele>
        <time>2023-05-28T06:18:02.000Z</time>
      </trkpt>
      <trkpt lat="43.69858" lon="3.13437">
        <ele>656.59997558594</ele>
        <time>2023-05-28T06:18:09.000Z</time>
      </trkpt>
      <trkpt lat="43.69865" lon="3.13428">
        <ele>656.40002441406</ele>
        <time>2023-05-28T06:18:17.000Z</time>
      </trkpt>
      <trkpt lat="43.69874" lon="3.1342">
        <ele>656.20001220703</ele>
        <time>2023-05-28T06:18:26.000Z</time>
      </trkpt>
      <trkpt lat="43.69875" lon="3.13419">
        <ele>656.20001220703</ele>
        <time>2023-05-28T06:18:27.000Z</time>
      </trkpt>
      <trkpt lat="43.69879" lon="3.13417">
        <ele>656.20001220703</ele>
        <time>2023-05-28T06:18:31.000Z</time>
      </trkpt>
      <trkpt lat="43.69882" lon="3.13415">
        <ele>656.20001220703</ele>
        <time>2023-05-28T06:18:34.000Z</time>
      </trkpt>
      <trkpt lat="43.69884" lon="3.13414">
        <ele>656</ele>
        <time>2023-05-28T06:18:36.000Z</time>
      </trkpt>
      <trkpt lat="43.69892" lon="3.13411">
        <ele>655.79998779297</ele>
        <time>2023-05-28T06:18:40.000Z</time>
      </trkpt>
      <trkpt lat="43.69901" lon="3.13404">
        <ele>655.40002441406</ele>
        <time>2023-05-28T06:18:46.000Z</time>
      </trkpt>
      <trkpt lat="43.69904" lon="3.134">
        <ele>655.20001220703</ele>
        <time>2023-05-28T06:18:50.000Z</time>
      </trkpt>
      <trkpt lat="43.69904" lon="3.13401">
        <ele>655.20001220703</ele>
        <time>2023-05-28T06:18:53.000Z</time>
      </trkpt>
      <trkpt lat="43.69907" lon="3.13404">
        <ele>655.20001220703</ele>
        <time>2023-05-28T06:19:13.000Z</time>
      </trkpt>
      <trkpt lat="43.69913" lon="3.13404">
        <ele>654.79998779297</ele>
        <time>2023-05-28T06:19:19.000Z</time>
      </trkpt>
      <trkpt lat="43.69917" lon="3.13404">
        <ele>654.20001220703</ele>
        <time>2023-05-28T06:19:23.000Z</time>
      </trkpt>
      <trkpt lat="43.69918" lon="3.13404">
        <ele>654.20001220703</ele>
        <time>2023-05-28T06:19:24.000Z</time>
      </trkpt>
      <trkpt lat="43.69919" lon="3.13404">
        <ele>654.20001220703</ele>
        <time>2023-05-28T06:19:25.000Z</time>
      </trkpt>
      <trkpt lat="43.69925" lon="3.13405">
        <ele>653.79998779297</ele>
        <time>2023-05-28T06:19:31.000Z</time>
      </trkpt>
      <trkpt lat="43.69926" lon="3.13406">
        <ele>653.59997558594</ele>
        <time>2023-05-28T06:19:33.000Z</time>
      </trkpt>
      <trkpt lat="43.69928" lon="3.13406">
        <ele>653.59997558594</ele>
        <time>2023-05-28T06:19:35.000Z</time>
      </trkpt>
      <trkpt lat="43.69934" lon="3.13408">
        <ele>653.20001220703</ele>
        <time>2023-05-28T06:19:42.000Z</time>
      </trkpt>
      <trkpt lat="43.69936" lon="3.13409">
        <ele>653.20001220703</ele>
        <time>2023-05-28T06:19:44.000Z</time>
      </trkpt>
      <trkpt lat="43.69942" lon="3.13409">
        <ele>652.59997558594</ele>
        <time>2023-05-28T06:19:50.000Z</time>
      </trkpt>
      <trkpt lat="43.69945" lon="3.13406">
        <ele>652.40002441406</ele>
        <time>2023-05-28T06:19:53.000Z</time>
      </trkpt>
      <trkpt lat="43.69946" lon="3.13404">
        <ele>652.20001220703</ele>
        <time>2023-05-28T06:19:55.000Z</time>
      </trkpt>
      <trkpt lat="43.69947" lon="3.13404">
        <ele>652</ele>
        <time>2023-05-28T06:19:56.000Z</time>
      </trkpt>
      <trkpt lat="43.69947" lon="3.13403">
        <ele>652</ele>
        <time>2023-05-28T06:19:57.000Z</time>
      </trkpt>
      <trkpt lat="43.69948" lon="3.134">
        <ele>652</ele>
        <time>2023-05-28T06:20:01.000Z</time>
      </trkpt>
      <trkpt lat="43.69948" lon="3.13399">
        <ele>652</ele>
        <time>2023-05-28T06:20:02.000Z</time>
      </trkpt>
      <trkpt lat="43.69948" lon="3.13398">
        <ele>652</ele>
        <time>2023-05-28T06:20:03.000Z</time>
      </trkpt>
      <trkpt lat="43.69949" lon="3.13394">
        <ele>652</ele>
        <time>2023-05-28T06:20:06.000Z</time>
      </trkpt>
      <trkpt lat="43.6995" lon="3.13386">
        <ele>651.79998779297</ele>
        <time>2023-05-28T06:20:12.000Z</time>
      </trkpt>
      <trkpt lat="43.69951" lon="3.13377">
        <ele>651.59997558594</ele>
        <time>2023-05-28T06:20:20.000Z</time>
      </trkpt>
      <trkpt lat="43.69953" lon="3.13366">
        <ele>651</ele>
        <time>2023-05-28T06:20:29.000Z</time>
      </trkpt>
      <trkpt lat="43.69953" lon="3.13365">
        <ele>651</ele>
        <time>2023-05-28T06:20:30.000Z</time>
      </trkpt>
      <trkpt lat="43.69953" lon="3.13361">
        <ele>651</ele>
        <time>2023-05-28T06:20:35.000Z</time>
      </trkpt>
      <trkpt lat="43.69953" lon="3.13358">
        <ele>651</ele>
        <time>2023-05-28T06:20:38.000Z</time>
      </trkpt>
      <trkpt lat="43.69952" lon="3.13352">
        <ele>650.79998779297</ele>
        <time>2023-05-28T06:20:42.000Z</time>
      </trkpt>
      <trkpt lat="43.69953" lon="3.13351">
        <ele>650.79998779297</ele>
        <time>2023-05-28T06:20:43.000Z</time>
      </trkpt>
      <trkpt lat="43.69953" lon="3.13339">
        <ele>650.20001220703</ele>
        <time>2023-05-28T06:20:51.000Z</time>
      </trkpt>
      <trkpt lat="43.69954" lon="3.13336">
        <ele>650.20001220703</ele>
        <time>2023-05-28T06:20:53.000Z</time>
      </trkpt>
      <trkpt lat="43.69954" lon="3.13331">
        <ele>650</ele>
        <time>2023-05-28T06:20:58.000Z</time>
      </trkpt>
      <trkpt lat="43.69955" lon="3.1333">
        <ele>650</ele>
        <time>2023-05-28T06:21:00.000Z</time>
      </trkpt>
      <trkpt lat="43.69959" lon="3.13319">
        <ele>649.59997558594</ele>
        <time>2023-05-28T06:21:09.000Z</time>
      </trkpt>
      <trkpt lat="43.6996" lon="3.13316">
        <ele>649.40002441406</ele>
        <time>2023-05-28T06:21:12.000Z</time>
      </trkpt>
      <trkpt lat="43.69961" lon="3.13311">
        <ele>649.40002441406</ele>
        <time>2023-05-28T06:21:15.000Z</time>
      </trkpt>
      <trkpt lat="43.69966" lon="3.13304">
        <ele>649</ele>
        <time>2023-05-28T06:21:21.000Z</time>
      </trkpt>
      <trkpt lat="43.69967" lon="3.13302">
        <ele>649</ele>
        <time>2023-05-28T06:21:22.000Z</time>
      </trkpt>
      <trkpt lat="43.69968" lon="3.13295">
        <ele>648.79998779297</ele>
        <time>2023-05-28T06:21:25.000Z</time>
      </trkpt>
      <trkpt lat="43.69971" lon="3.13286">
        <ele>648.20001220703</ele>
        <time>2023-05-28T06:21:30.000Z</time>
      </trkpt>
      <trkpt lat="43.69973" lon="3.13279">
        <ele>648</ele>
        <time>2023-05-28T06:21:33.000Z</time>
      </trkpt>
      <trkpt lat="43.69974" lon="3.13274">
        <ele>647.79998779297</ele>
        <time>2023-05-28T06:21:36.000Z</time>
      </trkpt>
      <trkpt lat="43.69977" lon="3.13267">
        <ele>647.40002441406</ele>
        <time>2023-05-28T06:21:41.000Z</time>
      </trkpt>
      <trkpt lat="43.69979" lon="3.13264">
        <ele>647.40002441406</ele>
        <time>2023-05-28T06:21:43.000Z</time>
      </trkpt>
      <trkpt lat="43.69979" lon="3.13262">
        <ele>647.40002441406</ele>
        <time>2023-05-28T06:21:44.000Z</time>
      </trkpt>
      <trkpt lat="43.69985" lon="3.13254">
        <ele>647</ele>
        <time>2023-05-28T06:21:51.000Z</time>
      </trkpt>
      <trkpt lat="43.69987" lon="3.13251">
        <ele>646.79998779297</ele>
        <time>2023-05-28T06:21:53.000Z</time>
      </trkpt>
      <trkpt lat="43.69989" lon="3.13249">
        <ele>646.79998779297</ele>
        <time>2023-05-28T06:21:56.000Z</time>
      </trkpt>
      <trkpt lat="43.69991" lon="3.13246">
        <ele>646.59997558594</ele>
        <time>2023-05-28T06:21:59.000Z</time>
      </trkpt>
      <trkpt lat="43.69997" lon="3.13239">
        <ele>646.40002441406</ele>
        <time>2023-05-28T06:22:05.000Z</time>
      </trkpt>
      <trkpt lat="43.69997" lon="3.13238">
        <ele>646.40002441406</ele>
        <time>2023-05-28T06:22:06.000Z</time>
      </trkpt>
      <trkpt lat="43.7" lon="3.13235">
        <ele>646.20001220703</ele>
        <time>2023-05-28T06:22:09.000Z</time>
      </trkpt>
      <trkpt lat="43.70001" lon="3.13233">
        <ele>646.20001220703</ele>
        <time>2023-05-28T06:22:11.000Z</time>
      </trkpt>
      <trkpt lat="43.70002" lon="3.13232">
        <ele>646.20001220703</ele>
        <time>2023-05-28T06:22:12.000Z</time>
      </trkpt>
      <trkpt lat="43.70006" lon="3.13228">
        <ele>646</ele>
        <time>2023-05-28T06:22:16.000Z</time>
      </trkpt>
      <trkpt lat="43.70007" lon="3.13228">
        <ele>645.79998779297</ele>
        <time>2023-05-28T06:22:17.000Z</time>
      </trkpt>
      <trkpt lat="43.70009" lon="3.13226">
        <ele>645.79998779297</ele>
        <time>2023-05-28T06:22:19.000Z</time>
      </trkpt>
      <trkpt lat="43.70011" lon="3.13224">
        <ele>645.59997558594</ele>
        <time>2023-05-28T06:22:21.000Z</time>
      </trkpt>
      <trkpt lat="43.70017" lon="3.13219">
        <ele>645.40002441406</ele>
        <time>2023-05-28T06:22:28.000Z</time>
      </trkpt>
      <trkpt lat="43.70023" lon="3.13215">
        <ele>645</ele>
        <time>2023-05-28T06:22:34.000Z</time>
      </trkpt>
      <trkpt lat="43.70025" lon="3.13213">
        <ele>644.79998779297</ele>
        <time>2023-05-28T06:22:36.000Z</time>
      </trkpt>
      <trkpt lat="43.70031" lon="3.13212">
        <ele>644.59997558594</ele>
        <time>2023-05-28T06:22:42.000Z</time>
      </trkpt>
      <trkpt lat="43.70038" lon="3.13209">
        <ele>644.59997558594</ele>
        <time>2023-05-28T06:22:48.000Z</time>
      </trkpt>
      <trkpt lat="43.70045" lon="3.13207">
        <ele>643.79998779297</ele>
        <time>2023-05-28T06:22:54.000Z</time>
      </trkpt>
      <trkpt lat="43.7005" lon="3.13207">
        <ele>643.59997558594</ele>
        <time>2023-05-28T06:22:58.000Z</time>
      </trkpt>
      <trkpt lat="43.7006" lon="3.13209">
        <ele>642.79998779297</ele>
        <time>2023-05-28T06:23:07.000Z</time>
      </trkpt>
      <trkpt lat="43.70062" lon="3.13211">
        <ele>642.79998779297</ele>
        <time>2023-05-28T06:23:09.000Z</time>
      </trkpt>
      <trkpt lat="43.70066" lon="3.13214">
        <ele>642.40002441406</ele>
        <time>2023-05-28T06:23:14.000Z</time>
      </trkpt>
      <trkpt lat="43.70068" lon="3.13214">
        <ele>642.40002441406</ele>
        <time>2023-05-28T06:23:15.000Z</time>
      </trkpt>
      <trkpt lat="43.70072" lon="3.13217">
        <ele>642.20001220703</ele>
        <time>2023-05-28T06:23:20.000Z</time>
      </trkpt>
      <trkpt lat="43.70075" lon="3.13219">
        <ele>641.79998779297</ele>
        <time>2023-05-28T06:23:25.000Z</time>
      </trkpt>
      <trkpt lat="43.70079" lon="3.1322">
        <ele>641.59997558594</ele>
        <time>2023-05-28T06:23:29.000Z</time>
      </trkpt>
      <trkpt lat="43.70088" lon="3.13222">
        <ele>641</ele>
        <time>2023-05-28T06:23:38.000Z</time>
      </trkpt>
      <trkpt lat="43.70091" lon="3.13223">
        <ele>640.79998779297</ele>
        <time>2023-05-28T06:23:42.000Z</time>
      </trkpt>
      <trkpt lat="43.70094" lon="3.13224">
        <ele>640.59997558594</ele>
        <time>2023-05-28T06:23:45.000Z</time>
      </trkpt>
      <trkpt lat="43.70103" lon="3.13227">
        <ele>640.20001220703</ele>
        <time>2023-05-28T06:23:53.000Z</time>
      </trkpt>
      <trkpt lat="43.70108" lon="3.13229">
        <ele>639.79998779297</ele>
        <time>2023-05-28T06:23:57.000Z</time>
      </trkpt>
      <trkpt lat="43.70112" lon="3.13231">
        <ele>639.40002441406</ele>
        <time>2023-05-28T06:24:02.000Z</time>
      </trkpt>
      <trkpt lat="43.70116" lon="3.13234">
        <ele>639.20001220703</ele>
        <time>2023-05-28T06:24:06.000Z</time>
      </trkpt>
      <trkpt lat="43.70118" lon="3.13234">
        <ele>639</ele>
        <time>2023-05-28T06:24:08.000Z</time>
      </trkpt>
      <trkpt lat="43.70119" lon="3.13235">
        <ele>638.79998779297</ele>
        <time>2023-05-28T06:24:09.000Z</time>
      </trkpt>
      <trkpt lat="43.70127" lon="3.13233">
        <ele>638.20001220703</ele>
        <time>2023-05-28T06:24:16.000Z</time>
      </trkpt>
      <trkpt lat="43.70136" lon="3.13227">
        <ele>638.20001220703</ele>
        <time>2023-05-28T06:24:25.000Z</time>
      </trkpt>
      <trkpt lat="43.70139" lon="3.13224">
        <ele>638</ele>
        <time>2023-05-28T06:24:28.000Z</time>
      </trkpt>
      <trkpt lat="43.7014" lon="3.13224">
        <ele>637.79998779297</ele>
        <time>2023-05-28T06:24:30.000Z</time>
      </trkpt>
      <trkpt lat="43.70141" lon="3.13223">
        <ele>637.59997558594</ele>
        <time>2023-05-28T06:24:31.000Z</time>
      </trkpt>
      <trkpt lat="43.70149" lon="3.1322">
        <ele>637.40002441406</ele>
        <time>2023-05-28T06:24:38.000Z</time>
      </trkpt>
      <trkpt lat="43.70154" lon="3.13218">
        <ele>637.20001220703</ele>
        <time>2023-05-28T06:24:42.000Z</time>
      </trkpt>
      <trkpt lat="43.70157" lon="3.13217">
        <ele>637</ele>
        <time>2023-05-28T06:24:45.000Z</time>
      </trkpt>
      <trkpt lat="43.70167" lon="3.13212">
        <ele>636.79998779297</ele>
        <time>2023-05-28T06:24:54.000Z</time>
      </trkpt>
      <trkpt lat="43.70169" lon="3.1321">
        <ele>636.79998779297</ele>
        <time>2023-05-28T06:24:56.000Z</time>
      </trkpt>
      <trkpt lat="43.70174" lon="3.13206">
        <ele>636.59997558594</ele>
        <time>2023-05-28T06:25:01.000Z</time>
      </trkpt>
      <trkpt lat="43.70182" lon="3.13197">
        <ele>636.20001220703</ele>
        <time>2023-05-28T06:25:10.000Z</time>
      </trkpt>
      <trkpt lat="43.70186" lon="3.13186">
        <ele>635.79998779297</ele>
        <time>2023-05-28T06:25:16.000Z</time>
      </trkpt>
      <trkpt lat="43.70186" lon="3.13182">
        <ele>635.59997558594</ele>
        <time>2023-05-28T06:25:18.000Z</time>
      </trkpt>
      <trkpt lat="43.70189" lon="3.13166">
        <ele>634.79998779297</ele>
        <time>2023-05-28T06:25:28.000Z</time>
      </trkpt>
      <trkpt lat="43.70189" lon="3.13165">
        <ele>634.59997558594</ele>
        <time>2023-05-28T06:25:29.000Z</time>
      </trkpt>
      <trkpt lat="43.70189" lon="3.13153">
        <ele>634</ele>
        <time>2023-05-28T06:25:38.000Z</time>
      </trkpt>
      <trkpt lat="43.7019" lon="3.13145">
        <ele>633.59997558594</ele>
        <time>2023-05-28T06:25:44.000Z</time>
      </trkpt>
      <trkpt lat="43.70191" lon="3.13143">
        <ele>633.59997558594</ele>
        <time>2023-05-28T06:25:46.000Z</time>
      </trkpt>
      <trkpt lat="43.70192" lon="3.13135">
        <ele>633</ele>
        <time>2023-05-28T06:25:53.000Z</time>
      </trkpt>
      <trkpt lat="43.70192" lon="3.13134">
        <ele>633</ele>
        <time>2023-05-28T06:25:54.000Z</time>
      </trkpt>
      <trkpt lat="43.70193" lon="3.13126">
        <ele>632.59997558594</ele>
        <time>2023-05-28T06:25:59.000Z</time>
      </trkpt>
      <trkpt lat="43.70194" lon="3.13123">
        <ele>632.59997558594</ele>
        <time>2023-05-28T06:26:01.000Z</time>
      </trkpt>
      <trkpt lat="43.70196" lon="3.13117">
        <ele>632.20001220703</ele>
        <time>2023-05-28T06:26:06.000Z</time>
      </trkpt>
      <trkpt lat="43.70195" lon="3.13116">
        <ele>632</ele>
        <time>2023-05-28T06:26:07.000Z</time>
      </trkpt>
      <trkpt lat="43.70194" lon="3.13111">
        <ele>631.79998779297</ele>
        <time>2023-05-28T06:26:11.000Z</time>
      </trkpt>
      <trkpt lat="43.70191" lon="3.1311">
        <ele>631.79998779297</ele>
        <time>2023-05-28T06:26:14.000Z</time>
      </trkpt>
      <trkpt lat="43.70181" lon="3.13104">
        <ele>631.79998779297</ele>
        <time>2023-05-28T06:26:24.000Z</time>
      </trkpt>
      <trkpt lat="43.70176" lon="3.13101">
        <ele>631.59997558594</ele>
        <time>2023-05-28T06:26:29.000Z</time>
      </trkpt>
      <trkpt lat="43.70171" lon="3.13098">
        <ele>631</ele>
        <time>2023-05-28T06:26:34.000Z</time>
      </trkpt>
      <trkpt lat="43.70163" lon="3.13094">
        <ele>630.40002441406</ele>
        <time>2023-05-28T06:26:41.000Z</time>
      </trkpt>
      <trkpt lat="43.70159" lon="3.13091">
        <ele>630.20001220703</ele>
        <time>2023-05-28T06:26:45.000Z</time>
      </trkpt>
      <trkpt lat="43.70158" lon="3.1309">
        <ele>630.20001220703</ele>
        <time>2023-05-28T06:26:46.000Z</time>
      </trkpt>
      <trkpt lat="43.70155" lon="3.13086">
        <ele>630</ele>
        <time>2023-05-28T06:26:50.000Z</time>
      </trkpt>
      <trkpt lat="43.70154" lon="3.13084">
        <ele>629.79998779297</ele>
        <time>2023-05-28T06:26:52.000Z</time>
      </trkpt>
      <trkpt lat="43.70148" lon="3.13075">
        <ele>629.40002441406</ele>
        <time>2023-05-28T06:26:59.000Z</time>
      </trkpt>
      <trkpt lat="43.70147" lon="3.13073">
        <ele>629.40002441406</ele>
        <time>2023-05-28T06:27:01.000Z</time>
      </trkpt>
      <trkpt lat="43.70141" lon="3.13064">
        <ele>629</ele>
        <time>2023-05-28T06:27:09.000Z</time>
      </trkpt>
      <trkpt lat="43.70136" lon="3.13055">
        <ele>628.40002441406</ele>
        <time>2023-05-28T06:27:17.000Z</time>
      </trkpt>
      <trkpt lat="43.70136" lon="3.13054">
        <ele>628.40002441406</ele>
        <time>2023-05-28T06:27:18.000Z</time>
      </trkpt>
      <trkpt lat="43.70133" lon="3.13049">
        <ele>628.20001220703</ele>
        <time>2023-05-28T06:27:22.000Z</time>
      </trkpt>
      <trkpt lat="43.70127" lon="3.13042">
        <ele>627.59997558594</ele>
        <time>2023-05-28T06:27:29.000Z</time>
      </trkpt>
      <trkpt lat="43.70126" lon="3.13039">
        <ele>627.59997558594</ele>
        <time>2023-05-28T06:27:31.000Z</time>
      </trkpt>
      <trkpt lat="43.70125" lon="3.13037">
        <ele>627.40002441406</ele>
        <time>2023-05-28T06:27:33.000Z</time>
      </trkpt>
      <trkpt lat="43.70123" lon="3.13032">
        <ele>627.20001220703</ele>
        <time>2023-05-28T06:27:37.000Z</time>
      </trkpt>
      <trkpt lat="43.70116" lon="3.13024">
        <ele>626.59997558594</ele>
        <time>2023-05-28T06:27:46.000Z</time>
      </trkpt>
      <trkpt lat="43.70113" lon="3.13019">
        <ele>626.40002441406</ele>
        <time>2023-05-28T06:27:51.000Z</time>
      </trkpt>
      <trkpt lat="43.70113" lon="3.13019">
        <ele>626.20001220703</ele>
        <time>2023-05-28T06:27:52.000Z</time>
      </trkpt>
      <trkpt lat="43.7011" lon="3.13017">
        <ele>626.20001220703</ele>
        <time>2023-05-28T06:27:55.000Z</time>
      </trkpt>
      <trkpt lat="43.70108" lon="3.13016">
        <ele>626</ele>
        <time>2023-05-28T06:27:57.000Z</time>
      </trkpt>
      <trkpt lat="43.70101" lon="3.1301">
        <ele>625.40002441406</ele>
        <time>2023-05-28T06:28:05.000Z</time>
      </trkpt>
      <trkpt lat="43.70099" lon="3.13009">
        <ele>625.40002441406</ele>
        <time>2023-05-28T06:28:06.000Z</time>
      </trkpt>
      <trkpt lat="43.70093" lon="3.13006">
        <ele>625.20001220703</ele>
        <time>2023-05-28T06:28:12.000Z</time>
      </trkpt>
      <trkpt lat="43.70083" lon="3.13001">
        <ele>624.59997558594</ele>
        <time>2023-05-28T06:28:22.000Z</time>
      </trkpt>
      <trkpt lat="43.70077" lon="3.12996">
        <ele>624.40002441406</ele>
        <time>2023-05-28T06:28:28.000Z</time>
      </trkpt>
      <trkpt lat="43.70074" lon="3.12994">
        <ele>624.20001220703</ele>
        <time>2023-05-28T06:28:31.000Z</time>
      </trkpt>
      <trkpt lat="43.70069" lon="3.12989">
        <ele>623.59997558594</ele>
        <time>2023-05-28T06:28:37.000Z</time>
      </trkpt>
      <trkpt lat="43.70067" lon="3.12987">
        <ele>623.40002441406</ele>
        <time>2023-05-28T06:28:39.000Z</time>
      </trkpt>
      <trkpt lat="43.70066" lon="3.12985">
        <ele>623.40002441406</ele>
        <time>2023-05-28T06:28:41.000Z</time>
      </trkpt>
      <trkpt lat="43.70064" lon="3.12983">
        <ele>623.40002441406</ele>
        <time>2023-05-28T06:28:44.000Z</time>
      </trkpt>
      <trkpt lat="43.70063" lon="3.12981">
        <ele>623</ele>
        <time>2023-05-28T06:28:47.000Z</time>
      </trkpt>
      <trkpt lat="43.70063" lon="3.1298">
        <ele>623</ele>
        <time>2023-05-28T06:29:00.000Z</time>
      </trkpt>
      <trkpt lat="43.70062" lon="3.12977">
        <ele>623</ele>
        <time>2023-05-28T06:29:08.000Z</time>
      </trkpt>
      <trkpt lat="43.70063" lon="3.12975">
        <ele>623.20001220703</ele>
        <time>2023-05-28T06:29:15.000Z</time>
      </trkpt>
      <trkpt lat="43.70062" lon="3.12973">
        <ele>623.20001220703</ele>
        <time>2023-05-28T06:29:24.000Z</time>
      </trkpt>
      <trkpt lat="43.70062" lon="3.12973">
        <ele>623.40002441406</ele>
        <time>2023-05-28T06:29:32.000Z</time>
      </trkpt>
      <trkpt lat="43.7006" lon="3.12973">
        <ele>622.79998779297</ele>
        <time>2023-05-28T06:29:44.000Z</time>
      </trkpt>
      <trkpt lat="43.70057" lon="3.12969">
        <ele>622.59997558594</ele>
        <time>2023-05-28T06:29:50.000Z</time>
      </trkpt>
      <trkpt lat="43.7005" lon="3.12964">
        <ele>622.40002441406</ele>
        <time>2023-05-28T06:29:57.000Z</time>
      </trkpt>
      <trkpt lat="43.70049" lon="3.12963">
        <ele>622.40002441406</ele>
        <time>2023-05-28T06:29:58.000Z</time>
      </trkpt>
      <trkpt lat="43.70039" lon="3.12958">
        <ele>622</ele>
        <time>2023-05-28T06:30:07.000Z</time>
      </trkpt>
      <trkpt lat="43.7003" lon="3.12953">
        <ele>621.40002441406</ele>
        <time>2023-05-28T06:30:15.000Z</time>
      </trkpt>
      <trkpt lat="43.70029" lon="3.12953">
        <ele>621.20001220703</ele>
        <time>2023-05-28T06:30:16.000Z</time>
      </trkpt>
      <trkpt lat="43.70025" lon="3.12951">
        <ele>621</ele>
        <time>2023-05-28T06:30:22.000Z</time>
      </trkpt>
      <trkpt lat="43.70024" lon="3.12951">
        <ele>621</ele>
        <time>2023-05-28T06:30:23.000Z</time>
      </trkpt>
      <trkpt lat="43.70023" lon="3.1295">
        <ele>621</ele>
        <time>2023-05-28T06:30:25.000Z</time>
      </trkpt>
      <trkpt lat="43.70021" lon="3.12948">
        <ele>620.79998779297</ele>
        <time>2023-05-28T06:30:28.000Z</time>
      </trkpt>
      <trkpt lat="43.70021" lon="3.12948">
        <ele>621</ele>
        <time>2023-05-28T06:30:34.000Z</time>
      </trkpt>
      <trkpt lat="43.70019" lon="3.12942">
        <ele>620.59997558594</ele>
        <time>2023-05-28T06:30:40.000Z</time>
      </trkpt>
      <trkpt lat="43.70014" lon="3.12933">
        <ele>620.59997558594</ele>
        <time>2023-05-28T06:30:48.000Z</time>
      </trkpt>
      <trkpt lat="43.70011" lon="3.12928">
        <ele>620.20001220703</ele>
        <time>2023-05-28T06:30:52.000Z</time>
      </trkpt>
      <trkpt lat="43.7001" lon="3.12928">
        <ele>619.79998779297</ele>
        <time>2023-05-28T06:30:55.000Z</time>
      </trkpt>
      <trkpt lat="43.70008" lon="3.12918">
        <ele>619.79998779297</ele>
        <time>2023-05-28T06:31:01.000Z</time>
      </trkpt>
      <trkpt lat="43.70006" lon="3.12907">
        <ele>619.40002441406</ele>
        <time>2023-05-28T06:31:09.000Z</time>
      </trkpt>
      <trkpt lat="43.70007" lon="3.12902">
        <ele>619</ele>
        <time>2023-05-28T06:31:12.000Z</time>
      </trkpt>
      <trkpt lat="43.70007" lon="3.12897">
        <ele>618.79998779297</ele>
        <time>2023-05-28T06:31:15.000Z</time>
      </trkpt>
      <trkpt lat="43.70009" lon="3.12886">
        <ele>618.59997558594</ele>
        <time>2023-05-28T06:31:22.000Z</time>
      </trkpt>
      <trkpt lat="43.70011" lon="3.12876">
        <ele>618.40002441406</ele>
        <time>2023-05-28T06:31:29.000Z</time>
      </trkpt>
      <trkpt lat="43.70012" lon="3.12875">
        <ele>618.40002441406</ele>
        <time>2023-05-28T06:31:31.000Z</time>
      </trkpt>
      <trkpt lat="43.70012" lon="3.12871">
        <ele>618.20001220703</ele>
        <time>2023-05-28T06:31:35.000Z</time>
      </trkpt>
      <trkpt lat="43.70013" lon="3.1287">
        <ele>618</ele>
        <time>2023-05-28T06:31:42.000Z</time>
      </trkpt>
      <trkpt lat="43.70012" lon="3.12866">
        <ele>618</ele>
        <time>2023-05-28T06:31:54.000Z</time>
      </trkpt>
      <trkpt lat="43.70009" lon="3.12855">
        <ele>618</ele>
        <time>2023-05-28T06:32:04.000Z</time>
      </trkpt>
      <trkpt lat="43.70009" lon="3.12852">
        <ele>618</ele>
        <time>2023-05-28T06:32:06.000Z</time>
      </trkpt>
      <trkpt lat="43.70009" lon="3.12843">
        <ele>617.79998779297</ele>
        <time>2023-05-28T06:32:12.000Z</time>
      </trkpt>
      <trkpt lat="43.70008" lon="3.12831">
        <ele>617.40002441406</ele>
        <time>2023-05-28T06:32:19.000Z</time>
      </trkpt>
      <trkpt lat="43.70008" lon="3.12821">
        <ele>617.20001220703</ele>
        <time>2023-05-28T06:32:25.000Z</time>
      </trkpt>
      <trkpt lat="43.7001" lon="3.12811">
        <ele>617</ele>
        <time>2023-05-28T06:32:32.000Z</time>
      </trkpt>
      <trkpt lat="43.7001" lon="3.12811">
        <ele>617</ele>
        <time>2023-05-28T06:32:33.000Z</time>
      </trkpt>
      <trkpt lat="43.7001" lon="3.12804">
        <ele>617</ele>
        <time>2023-05-28T06:32:37.000Z</time>
      </trkpt>
      <trkpt lat="43.70011" lon="3.12802">
        <ele>616.79998779297</ele>
        <time>2023-05-28T06:32:38.000Z</time>
      </trkpt>
      <trkpt lat="43.70011" lon="3.12797">
        <ele>616.59997558594</ele>
        <time>2023-05-28T06:32:41.000Z</time>
      </trkpt>
      <trkpt lat="43.70012" lon="3.12794">
        <ele>616.40002441406</ele>
        <time>2023-05-28T06:32:43.000Z</time>
      </trkpt>
      <trkpt lat="43.70014" lon="3.12788">
        <ele>616.40002441406</ele>
        <time>2023-05-28T06:32:47.000Z</time>
      </trkpt>
      <trkpt lat="43.70014" lon="3.12785">
        <ele>616.20001220703</ele>
        <time>2023-05-28T06:32:49.000Z</time>
      </trkpt>
      <trkpt lat="43.70016" lon="3.12779">
        <ele>616.20001220703</ele>
        <time>2023-05-28T06:32:53.000Z</time>
      </trkpt>
      <trkpt lat="43.70017" lon="3.12776">
        <ele>616.20001220703</ele>
        <time>2023-05-28T06:32:58.000Z</time>
      </trkpt>
      <trkpt lat="43.70018" lon="3.12774">
        <ele>616</ele>
        <time>2023-05-28T06:33:00.000Z</time>
      </trkpt>
      <trkpt lat="43.70019" lon="3.12772">
        <ele>616</ele>
        <time>2023-05-28T06:33:02.000Z</time>
      </trkpt>
      <trkpt lat="43.70021" lon="3.12766">
        <ele>615.79998779297</ele>
        <time>2023-05-28T06:33:07.000Z</time>
      </trkpt>
      <trkpt lat="43.70021" lon="3.12763">
        <ele>615.59997558594</ele>
        <time>2023-05-28T06:33:09.000Z</time>
      </trkpt>
      <trkpt lat="43.70022" lon="3.12758">
        <ele>615.59997558594</ele>
        <time>2023-05-28T06:33:13.000Z</time>
      </trkpt>
      <trkpt lat="43.70024" lon="3.12744">
        <ele>615.20001220703</ele>
        <time>2023-05-28T06:33:22.000Z</time>
      </trkpt>
      <trkpt lat="43.70023" lon="3.12736">
        <ele>615</ele>
        <time>2023-05-28T06:33:27.000Z</time>
      </trkpt>
      <trkpt lat="43.70023" lon="3.12735">
        <ele>615</ele>
        <time>2023-05-28T06:33:28.000Z</time>
      </trkpt>
      <trkpt lat="43.70022" lon="3.12732">
        <ele>614.79998779297</ele>
        <time>2023-05-28T06:33:30.000Z</time>
      </trkpt>
      <trkpt lat="43.70017" lon="3.1272">
        <ele>614.20001220703</ele>
        <time>2023-05-28T06:33:38.000Z</time>
      </trkpt>
      <trkpt lat="43.70014" lon="3.12715">
        <ele>614</ele>
        <time>2023-05-28T06:33:42.000Z</time>
      </trkpt>
      <trkpt lat="43.70012" lon="3.12713">
        <ele>614</ele>
        <time>2023-05-28T06:33:44.000Z</time>
      </trkpt>
      <trkpt lat="43.70009" lon="3.12713">
        <ele>613.79998779297</ele>
        <time>2023-05-28T06:33:46.000Z</time>
      </trkpt>
      <trkpt lat="43.70008" lon="3.12712">
        <ele>613.59997558594</ele>
        <time>2023-05-28T06:33:47.000Z</time>
      </trkpt>
      <trkpt lat="43.70004" lon="3.12706">
        <ele>613.20001220703</ele>
        <time>2023-05-28T06:33:52.000Z</time>
      </trkpt>
      <trkpt lat="43.7" lon="3.127">
        <ele>613</ele>
        <time>2023-05-28T06:33:59.000Z</time>
      </trkpt>
      <trkpt lat="43.7" lon="3.127">
        <ele>612.79998779297</ele>
        <time>2023-05-28T06:34:01.000Z</time>
      </trkpt>
      <trkpt lat="43.7" lon="3.12698">
        <ele>613.20001220703</ele>
        <time>2023-05-28T06:34:07.000Z</time>
      </trkpt>
      <trkpt lat="43.69996" lon="3.12691">
        <ele>612.79998779297</ele>
        <time>2023-05-28T06:34:13.000Z</time>
      </trkpt>
      <trkpt lat="43.6999" lon="3.12683">
        <ele>612.20001220703</ele>
        <time>2023-05-28T06:34:20.000Z</time>
      </trkpt>
      <trkpt lat="43.69986" lon="3.12676">
        <ele>611.79998779297</ele>
        <time>2023-05-28T06:34:25.000Z</time>
      </trkpt>
      <trkpt lat="43.69983" lon="3.12672">
        <ele>611.40002441406</ele>
        <time>2023-05-28T06:34:28.000Z</time>
      </trkpt>
      <trkpt lat="43.69977" lon="3.12663">
        <ele>610.79998779297</ele>
        <time>2023-05-28T06:34:35.000Z</time>
      </trkpt>
      <trkpt lat="43.69976" lon="3.12662">
        <ele>610.79998779297</ele>
        <time>2023-05-28T06:34:36.000Z</time>
      </trkpt>
      <trkpt lat="43.69973" lon="3.12659">
        <ele>610.40002441406</ele>
        <time>2023-05-28T06:34:39.000Z</time>
      </trkpt>
      <trkpt lat="43.69971" lon="3.12657">
        <ele>610.20001220703</ele>
        <time>2023-05-28T06:34:42.000Z</time>
      </trkpt>
      <trkpt lat="43.69968" lon="3.12653">
        <ele>610.20001220703</ele>
        <time>2023-05-28T06:34:46.000Z</time>
      </trkpt>
      <trkpt lat="43.69967" lon="3.1265">
        <ele>610.20001220703</ele>
        <time>2023-05-28T06:34:48.000Z</time>
      </trkpt>
      <trkpt lat="43.69964" lon="3.12642">
        <ele>609.79998779297</ele>
        <time>2023-05-28T06:34:55.000Z</time>
      </trkpt>
      <trkpt lat="43.69964" lon="3.12639">
        <ele>609.79998779297</ele>
        <time>2023-05-28T06:34:57.000Z</time>
      </trkpt>
      <trkpt lat="43.69964" lon="3.12636">
        <ele>609.59997558594</ele>
        <time>2023-05-28T06:34:59.000Z</time>
      </trkpt>
      <trkpt lat="43.69963" lon="3.1263">
        <ele>609.20001220703</ele>
        <time>2023-05-28T06:35:03.000Z</time>
      </trkpt>
      <trkpt lat="43.69964" lon="3.12629">
        <ele>609.20001220703</ele>
        <time>2023-05-28T06:35:04.000Z</time>
      </trkpt>
      <trkpt lat="43.69966" lon="3.12621">
        <ele>609.20001220703</ele>
        <time>2023-05-28T06:35:10.000Z</time>
      </trkpt>
      <trkpt lat="43.69967" lon="3.12618">
        <ele>609.20001220703</ele>
        <time>2023-05-28T06:35:12.000Z</time>
      </trkpt>
      <trkpt lat="43.69968" lon="3.12612">
        <ele>609</ele>
        <time>2023-05-28T06:35:16.000Z</time>
      </trkpt>
      <trkpt lat="43.6997" lon="3.12608">
        <ele>608.79998779297</ele>
        <time>2023-05-28T06:35:20.000Z</time>
      </trkpt>
      <trkpt lat="43.6997" lon="3.12606">
        <ele>608.79998779297</ele>
        <time>2023-05-28T06:35:21.000Z</time>
      </trkpt>
      <trkpt lat="43.69971" lon="3.12605">
        <ele>608.59997558594</ele>
        <time>2023-05-28T06:35:22.000Z</time>
      </trkpt>
      <trkpt lat="43.69971" lon="3.12604">
        <ele>608.59997558594</ele>
        <time>2023-05-28T06:35:23.000Z</time>
      </trkpt>
      <trkpt lat="43.69974" lon="3.12596">
        <ele>608.40002441406</ele>
        <time>2023-05-28T06:35:29.000Z</time>
      </trkpt>
      <trkpt lat="43.69978" lon="3.1259">
        <ele>608.20001220703</ele>
        <time>2023-05-28T06:35:34.000Z</time>
      </trkpt>
      <trkpt lat="43.69978" lon="3.12589">
        <ele>608.20001220703</ele>
        <time>2023-05-28T06:35:35.000Z</time>
      </trkpt>
      <trkpt lat="43.69984" lon="3.12579">
        <ele>607.59997558594</ele>
        <time>2023-05-28T06:35:43.000Z</time>
      </trkpt>
      <trkpt lat="43.69985" lon="3.12577">
        <ele>607.59997558594</ele>
        <time>2023-05-28T06:35:44.000Z</time>
      </trkpt>
      <trkpt lat="43.69987" lon="3.12573">
        <ele>607.40002441406</ele>
        <time>2023-05-28T06:35:48.000Z</time>
      </trkpt>
      <trkpt lat="43.69988" lon="3.12571">
        <ele>607</ele>
        <time>2023-05-28T06:35:50.000Z</time>
      </trkpt>
      <trkpt lat="43.69989" lon="3.1257">
        <ele>606.79998779297</ele>
        <time>2023-05-28T06:35:52.000Z</time>
      </trkpt>
      <trkpt lat="43.69992" lon="3.12565">
        <ele>606.79998779297</ele>
        <time>2023-05-28T06:35:56.000Z</time>
      </trkpt>
      <trkpt lat="43.69993" lon="3.12563">
        <ele>606.79998779297</ele>
        <time>2023-05-28T06:35:58.000Z</time>
      </trkpt>
      <trkpt lat="43.69995" lon="3.12561">
        <ele>606.79998779297</ele>
        <time>2023-05-28T06:36:00.000Z</time>
      </trkpt>
      <trkpt lat="43.69997" lon="3.12559">
        <ele>606.59997558594</ele>
        <time>2023-05-28T06:36:03.000Z</time>
      </trkpt>
      <trkpt lat="43.69999" lon="3.12555">
        <ele>606.59997558594</ele>
        <time>2023-05-28T06:36:06.000Z</time>
      </trkpt>
      <trkpt lat="43.70001" lon="3.12552">
        <ele>606.40002441406</ele>
        <time>2023-05-28T06:36:09.000Z</time>
      </trkpt>
      <trkpt lat="43.70005" lon="3.12548">
        <ele>606.20001220703</ele>
        <time>2023-05-28T06:36:13.000Z</time>
      </trkpt>
      <trkpt lat="43.70007" lon="3.12547">
        <ele>606</ele>
        <time>2023-05-28T06:36:15.000Z</time>
      </trkpt>
      <trkpt lat="43.70009" lon="3.12544">
        <ele>605.79998779297</ele>
        <time>2023-05-28T06:36:18.000Z</time>
      </trkpt>
      <trkpt lat="43.70012" lon="3.12542">
        <ele>605.59997558594</ele>
        <time>2023-05-28T06:36:20.000Z</time>
      </trkpt>
      <trkpt lat="43.70013" lon="3.1254">
        <ele>605.59997558594</ele>
        <time>2023-05-28T06:36:22.000Z</time>
      </trkpt>
      <trkpt lat="43.70019" lon="3.12534">
        <ele>605.20001220703</ele>
        <time>2023-05-28T06:36:27.000Z</time>
      </trkpt>
      <trkpt lat="43.70021" lon="3.12532">
        <ele>605</ele>
        <time>2023-05-28T06:36:29.000Z</time>
      </trkpt>
      <trkpt lat="43.70027" lon="3.12526">
        <ele>604.79998779297</ele>
        <time>2023-05-28T06:36:35.000Z</time>
      </trkpt>
      <trkpt lat="43.70029" lon="3.12525">
        <ele>604.79998779297</ele>
        <time>2023-05-28T06:36:36.000Z</time>
      </trkpt>
      <trkpt lat="43.70033" lon="3.12522">
        <ele>604.59997558594</ele>
        <time>2023-05-28T06:36:40.000Z</time>
      </trkpt>
      <trkpt lat="43.70035" lon="3.1252">
        <ele>604.40002441406</ele>
        <time>2023-05-28T06:36:43.000Z</time>
      </trkpt>
      <trkpt lat="43.70044" lon="3.12514">
        <ele>603.79998779297</ele>
        <time>2023-05-28T06:36:52.000Z</time>
      </trkpt>
      <trkpt lat="43.70046" lon="3.12513">
        <ele>603.59997558594</ele>
        <time>2023-05-28T06:36:54.000Z</time>
      </trkpt>
      <trkpt lat="43.70047" lon="3.12512">
        <ele>603.40002441406</ele>
        <time>2023-05-28T06:36:55.000Z</time>
      </trkpt>
      <trkpt lat="43.70051" lon="3.1251">
        <ele>603.40002441406</ele>
        <time>2023-05-28T06:36:59.000Z</time>
      </trkpt>
      <trkpt lat="43.70059" lon="3.12505">
        <ele>603.20001220703</ele>
        <time>2023-05-28T06:37:06.000Z</time>
      </trkpt>
      <trkpt lat="43.70063" lon="3.12501">
        <ele>603</ele>
        <time>2023-05-28T06:37:10.000Z</time>
      </trkpt>
      <trkpt lat="43.70064" lon="3.12501">
        <ele>602.79998779297</ele>
        <time>2023-05-28T06:37:11.000Z</time>
      </trkpt>
      <trkpt lat="43.70066" lon="3.125">
        <ele>602.79998779297</ele>
        <time>2023-05-28T06:37:14.000Z</time>
      </trkpt>
      <trkpt lat="43.70069" lon="3.12498">
        <ele>602.59997558594</ele>
        <time>2023-05-28T06:37:17.000Z</time>
      </trkpt>
      <trkpt lat="43.70076" lon="3.12494">
        <ele>602.40002441406</ele>
        <time>2023-05-28T06:37:23.000Z</time>
      </trkpt>
      <trkpt lat="43.70077" lon="3.12493">
        <ele>602.40002441406</ele>
        <time>2023-05-28T06:37:24.000Z</time>
      </trkpt>
      <trkpt lat="43.70081" lon="3.12491">
        <ele>602</ele>
        <time>2023-05-28T06:37:28.000Z</time>
      </trkpt>
      <trkpt lat="43.70082" lon="3.1249">
        <ele>602</ele>
        <time>2023-05-28T06:37:29.000Z</time>
      </trkpt>
      <trkpt lat="43.70084" lon="3.12488">
        <ele>601.79998779297</ele>
        <time>2023-05-28T06:37:31.000Z</time>
      </trkpt>
      <trkpt lat="43.7009" lon="3.12484">
        <ele>601.59997558594</ele>
        <time>2023-05-28T06:37:37.000Z</time>
      </trkpt>
      <trkpt lat="43.70091" lon="3.12483">
        <ele>601.59997558594</ele>
        <time>2023-05-28T06:37:38.000Z</time>
      </trkpt>
      <trkpt lat="43.70092" lon="3.12483">
        <ele>601.40002441406</ele>
        <time>2023-05-28T06:37:39.000Z</time>
      </trkpt>
      <trkpt lat="43.70094" lon="3.12482">
        <ele>601.40002441406</ele>
        <time>2023-05-28T06:37:42.000Z</time>
      </trkpt>
      <trkpt lat="43.70097" lon="3.12481">
        <ele>601.20001220703</ele>
        <time>2023-05-28T06:37:44.000Z</time>
      </trkpt>
      <trkpt lat="43.70099" lon="3.1248">
        <ele>601.20001220703</ele>
        <time>2023-05-28T06:37:47.000Z</time>
      </trkpt>
      <trkpt lat="43.701" lon="3.1248">
        <ele>601</ele>
        <time>2023-05-28T06:37:48.000Z</time>
      </trkpt>
      <trkpt lat="43.70105" lon="3.12479">
        <ele>601</ele>
        <time>2023-05-28T06:37:52.000Z</time>
      </trkpt>
      <trkpt lat="43.70108" lon="3.12478">
        <ele>601</ele>
        <time>2023-05-28T06:37:55.000Z</time>
      </trkpt>
      <trkpt lat="43.70109" lon="3.12478">
        <ele>601</ele>
        <time>2023-05-28T06:37:56.000Z</time>
      </trkpt>
      <trkpt lat="43.7011" lon="3.12478">
        <ele>600.79998779297</ele>
        <time>2023-05-28T06:37:57.000Z</time>
      </trkpt>
      <trkpt lat="43.70114" lon="3.12478">
        <ele>600.59997558594</ele>
        <time>2023-05-28T06:38:01.000Z</time>
      </trkpt>
      <trkpt lat="43.70117" lon="3.12478">
        <ele>600.40002441406</ele>
        <time>2023-05-28T06:38:03.000Z</time>
      </trkpt>
      <trkpt lat="43.70122" lon="3.1248">
        <ele>600.20001220703</ele>
        <time>2023-05-28T06:38:08.000Z</time>
      </trkpt>
      <trkpt lat="43.7013" lon="3.12483">
        <ele>599.79998779297</ele>
        <time>2023-05-28T06:38:16.000Z</time>
      </trkpt>
      <trkpt lat="43.70139" lon="3.12485">
        <ele>599.40002441406</ele>
        <time>2023-05-28T06:38:24.000Z</time>
      </trkpt>
      <trkpt lat="43.7014" lon="3.12485">
        <ele>599.40002441406</ele>
        <time>2023-05-28T06:38:25.000Z</time>
      </trkpt>
      <trkpt lat="43.7015" lon="3.12481">
        <ele>598.59997558594</ele>
        <time>2023-05-28T06:38:34.000Z</time>
      </trkpt>
      <trkpt lat="43.70153" lon="3.12479">
        <ele>598.59997558594</ele>
        <time>2023-05-28T06:38:37.000Z</time>
      </trkpt>
      <trkpt lat="43.70155" lon="3.12478">
        <ele>598.40002441406</ele>
        <time>2023-05-28T06:38:39.000Z</time>
      </trkpt>
      <trkpt lat="43.70157" lon="3.12476">
        <ele>598.40002441406</ele>
        <time>2023-05-28T06:38:41.000Z</time>
      </trkpt>
      <trkpt lat="43.70157" lon="3.12475">
        <ele>598.40002441406</ele>
        <time>2023-05-28T06:38:42.000Z</time>
      </trkpt>
      <trkpt lat="43.70162" lon="3.12465">
        <ele>598.40002441406</ele>
        <time>2023-05-28T06:38:50.000Z</time>
      </trkpt>
      <trkpt lat="43.70162" lon="3.12466">
        <ele>598.40002441406</ele>
        <time>2023-05-28T06:38:51.000Z</time>
      </trkpt>
      <trkpt lat="43.70164" lon="3.12464">
        <ele>598.40002441406</ele>
        <time>2023-05-28T06:38:53.000Z</time>
      </trkpt>
      <trkpt lat="43.70166" lon="3.12463">
        <ele>598.40002441406</ele>
        <time>2023-05-28T06:38:55.000Z</time>
      </trkpt>
      <trkpt lat="43.70166" lon="3.12462">
        <ele>598.40002441406</ele>
        <time>2023-05-28T06:38:56.000Z</time>
      </trkpt>
      <trkpt lat="43.70168" lon="3.12456">
        <ele>598.20001220703</ele>
        <time>2023-05-28T06:38:59.000Z</time>
      </trkpt>
      <trkpt lat="43.70168" lon="3.12455">
        <ele>598.20001220703</ele>
        <time>2023-05-28T06:39:00.000Z</time>
      </trkpt>
      <trkpt lat="43.70174" lon="3.12445">
        <ele>597.59997558594</ele>
        <time>2023-05-28T06:39:09.000Z</time>
      </trkpt>
      <trkpt lat="43.70176" lon="3.1244">
        <ele>597.40002441406</ele>
        <time>2023-05-28T06:39:12.000Z</time>
      </trkpt>
      <trkpt lat="43.70178" lon="3.12436">
        <ele>597.40002441406</ele>
        <time>2023-05-28T06:39:15.000Z</time>
      </trkpt>
      <trkpt lat="43.70178" lon="3.12434">
        <ele>597.20001220703</ele>
        <time>2023-05-28T06:39:16.000Z</time>
      </trkpt>
      <trkpt lat="43.70182" lon="3.12427">
        <ele>597</ele>
        <time>2023-05-28T06:39:22.000Z</time>
      </trkpt>
      <trkpt lat="43.70182" lon="3.12427">
        <ele>596.79998779297</ele>
        <time>2023-05-28T06:39:23.000Z</time>
      </trkpt>
      <trkpt lat="43.70184" lon="3.12418">
        <ele>596.40002441406</ele>
        <time>2023-05-28T06:39:29.000Z</time>
      </trkpt>
      <trkpt lat="43.70186" lon="3.12416">
        <ele>596.20001220703</ele>
        <time>2023-05-28T06:39:31.000Z</time>
      </trkpt>
      <trkpt lat="43.70186" lon="3.12414">
        <ele>596.20001220703</ele>
        <time>2023-05-28T06:39:33.000Z</time>
      </trkpt>
      <trkpt lat="43.70188" lon="3.12411">
        <ele>596</ele>
        <time>2023-05-28T06:39:36.000Z</time>
      </trkpt>
      <trkpt lat="43.70189" lon="3.12409">
        <ele>596</ele>
        <time>2023-05-28T06:39:37.000Z</time>
      </trkpt>
      <trkpt lat="43.70191" lon="3.12406">
        <ele>595.59997558594</ele>
        <time>2023-05-28T06:39:40.000Z</time>
      </trkpt>
      <trkpt lat="43.70193" lon="3.12404">
        <ele>595.59997558594</ele>
        <time>2023-05-28T06:39:42.000Z</time>
      </trkpt>
      <trkpt lat="43.70197" lon="3.12396">
        <ele>595.20001220703</ele>
        <time>2023-05-28T06:39:48.000Z</time>
      </trkpt>
      <trkpt lat="43.70203" lon="3.12387">
        <ele>595</ele>
        <time>2023-05-28T06:39:55.000Z</time>
      </trkpt>
      <trkpt lat="43.70203" lon="3.12386">
        <ele>595</ele>
        <time>2023-05-28T06:39:56.000Z</time>
      </trkpt>
      <trkpt lat="43.70205" lon="3.12382">
        <ele>594.59997558594</ele>
        <time>2023-05-28T06:40:00.000Z</time>
      </trkpt>
      <trkpt lat="43.70209" lon="3.12377">
        <ele>594.40002441406</ele>
        <time>2023-05-28T06:40:04.000Z</time>
      </trkpt>
      <trkpt lat="43.70209" lon="3.12376">
        <ele>594.40002441406</ele>
        <time>2023-05-28T06:40:05.000Z</time>
      </trkpt>
      <trkpt lat="43.7021" lon="3.12372">
        <ele>594.20001220703</ele>
        <time>2023-05-28T06:40:08.000Z</time>
      </trkpt>
      <trkpt lat="43.70212" lon="3.1237">
        <ele>594</ele>
        <time>2023-05-28T06:40:10.000Z</time>
      </trkpt>
      <trkpt lat="43.70214" lon="3.12368">
        <ele>593.79998779297</ele>
        <time>2023-05-28T06:40:12.000Z</time>
      </trkpt>
      <trkpt lat="43.70215" lon="3.12365">
        <ele>593.79998779297</ele>
        <time>2023-05-28T06:40:14.000Z</time>
      </trkpt>
      <trkpt lat="43.70218" lon="3.12358">
        <ele>593.40002441406</ele>
        <time>2023-05-28T06:40:19.000Z</time>
      </trkpt>
      <trkpt lat="43.70219" lon="3.12358">
        <ele>593.40002441406</ele>
        <time>2023-05-28T06:40:20.000Z</time>
      </trkpt>
      <trkpt lat="43.7022" lon="3.12356">
        <ele>593.20001220703</ele>
        <time>2023-05-28T06:40:22.000Z</time>
      </trkpt>
      <trkpt lat="43.70222" lon="3.12353">
        <ele>593</ele>
        <time>2023-05-28T06:40:25.000Z</time>
      </trkpt>
      <trkpt lat="43.70223" lon="3.12352">
        <ele>592.79998779297</ele>
        <time>2023-05-28T06:40:26.000Z</time>
      </trkpt>
      <trkpt lat="43.70226" lon="3.12347">
        <ele>592.59997558594</ele>
        <time>2023-05-28T06:40:30.000Z</time>
      </trkpt>
      <trkpt lat="43.70228" lon="3.12345">
        <ele>592.59997558594</ele>
        <time>2023-05-28T06:40:32.000Z</time>
      </trkpt>
      <trkpt lat="43.70233" lon="3.12336">
        <ele>592.40002441406</ele>
        <time>2023-05-28T06:40:39.000Z</time>
      </trkpt>
      <trkpt lat="43.70236" lon="3.1233">
        <ele>592</ele>
        <time>2023-05-28T06:40:43.000Z</time>
      </trkpt>
      <trkpt lat="43.70237" lon="3.12326">
        <ele>591.79998779297</ele>
        <time>2023-05-28T06:40:46.000Z</time>
      </trkpt>
      <trkpt lat="43.7024" lon="3.1232">
        <ele>591.59997558594</ele>
        <time>2023-05-28T06:40:50.000Z</time>
      </trkpt>
      <trkpt lat="43.70239" lon="3.12316">
        <ele>591.40002441406</ele>
        <time>2023-05-28T06:40:52.000Z</time>
      </trkpt>
      <trkpt lat="43.70239" lon="3.1231">
        <ele>591.40002441406</ele>
        <time>2023-05-28T06:40:56.000Z</time>
      </trkpt>
      <trkpt lat="43.70242" lon="3.12307">
        <ele>591.20001220703</ele>
        <time>2023-05-28T06:40:59.000Z</time>
      </trkpt>
      <trkpt lat="43.70241" lon="3.12302">
        <ele>591.20001220703</ele>
        <time>2023-05-28T06:41:05.000Z</time>
      </trkpt>
      <trkpt lat="43.70241" lon="3.12301">
        <ele>591.20001220703</ele>
        <time>2023-05-28T06:41:06.000Z</time>
      </trkpt>
      <trkpt lat="43.70238" lon="3.12297">
        <ele>591.59997558594</ele>
        <time>2023-05-28T06:41:10.000Z</time>
      </trkpt>
      <trkpt lat="43.70236" lon="3.12295">
        <ele>591.79998779297</ele>
        <time>2023-05-28T06:41:12.000Z</time>
      </trkpt>
      <trkpt lat="43.70235" lon="3.12295">
        <ele>591.79998779297</ele>
        <time>2023-05-28T06:41:14.000Z</time>
      </trkpt>
      <trkpt lat="43.70235" lon="3.12295">
        <ele>591.79998779297</ele>
        <time>2023-05-28T06:41:15.000Z</time>
      </trkpt>
      <trkpt lat="43.70235" lon="3.12295">
        <ele>592.20001220703</ele>
        <time>2023-05-28T06:41:23.000Z</time>
      </trkpt>
      <trkpt lat="43.70235" lon="3.12294">
        <ele>592.20001220703</ele>
        <time>2023-05-28T06:41:28.000Z</time>
      </trkpt>
      <trkpt lat="43.70234" lon="3.12293">
        <ele>592</ele>
        <time>2023-05-28T06:41:37.000Z</time>
      </trkpt>
      <trkpt lat="43.70233" lon="3.12296">
        <ele>591.40002441406</ele>
        <time>2023-05-28T06:41:44.000Z</time>
      </trkpt>
      <trkpt lat="43.70235" lon="3.12297">
        <ele>592.40002441406</ele>
        <time>2023-05-28T06:41:50.000Z</time>
      </trkpt>
      <trkpt lat="43.70235" lon="3.12301">
        <ele>592.59997558594</ele>
        <time>2023-05-28T06:41:55.000Z</time>
      </trkpt>
      <trkpt lat="43.70231" lon="3.12304">
        <ele>592</ele>
        <time>2023-05-28T06:42:01.000Z</time>
      </trkpt>
      <trkpt lat="43.7023" lon="3.12305">
        <ele>591.59997558594</ele>
        <time>2023-05-28T06:42:06.000Z</time>
      </trkpt>
      <trkpt lat="43.70232" lon="3.12305">
        <ele>591.59997558594</ele>
        <time>2023-05-28T06:42:14.000Z</time>
      </trkpt>
      <trkpt lat="43.70236" lon="3.12302">
        <ele>591.40002441406</ele>
        <time>2023-05-28T06:42:19.000Z</time>
      </trkpt>
      <trkpt lat="43.70238" lon="3.12298">
        <ele>591.79998779297</ele>
        <time>2023-05-28T06:42:24.000Z</time>
      </trkpt>
      <trkpt lat="43.70238" lon="3.123">
        <ele>592.20001220703</ele>
        <time>2023-05-28T06:42:29.000Z</time>
      </trkpt>
      <trkpt lat="43.70238" lon="3.12302">
        <ele>592.40002441406</ele>
        <time>2023-05-28T06:42:37.000Z</time>
      </trkpt>
      <trkpt lat="43.70234" lon="3.12304">
        <ele>592.20001220703</ele>
        <time>2023-05-28T06:42:42.000Z</time>
      </trkpt>
      <trkpt lat="43.70235" lon="3.12305">
        <ele>592.20001220703</ele>
        <time>2023-05-28T06:42:50.000Z</time>
      </trkpt>
      <trkpt lat="43.70236" lon="3.123">
        <ele>592</ele>
        <time>2023-05-28T06:42:57.000Z</time>
      </trkpt>
      <trkpt lat="43.70235" lon="3.12299">
        <ele>592</ele>
        <time>2023-05-28T06:43:04.000Z</time>
      </trkpt>
      <trkpt lat="43.70237" lon="3.12299">
        <ele>592</ele>
        <time>2023-05-28T06:43:17.000Z</time>
      </trkpt>
      <trkpt lat="43.70239" lon="3.12298">
        <ele>591.79998779297</ele>
        <time>2023-05-28T06:43:30.000Z</time>
      </trkpt>
      <trkpt lat="43.70241" lon="3.12296">
        <ele>591.79998779297</ele>
        <time>2023-05-28T06:43:36.000Z</time>
      </trkpt>
      <trkpt lat="43.70241" lon="3.12295">
        <ele>591.40002441406</ele>
        <time>2023-05-28T06:43:44.000Z</time>
      </trkpt>
      <trkpt lat="43.70239" lon="3.12297">
        <ele>592</ele>
        <time>2023-05-28T06:43:52.000Z</time>
      </trkpt>
      <trkpt lat="43.7024" lon="3.12297">
        <ele>592.20001220703</ele>
        <time>2023-05-28T06:43:59.000Z</time>
      </trkpt>
      <trkpt lat="43.7024" lon="3.12297">
        <ele>592</ele>
        <time>2023-05-28T06:44:10.000Z</time>
      </trkpt>
      <trkpt lat="43.70241" lon="3.12296">
        <ele>591.79998779297</ele>
        <time>2023-05-28T06:44:22.000Z</time>
      </trkpt>
      <trkpt lat="43.70239" lon="3.12294">
        <ele>591.40002441406</ele>
        <time>2023-05-28T06:44:31.000Z</time>
      </trkpt>
      <trkpt lat="43.70239" lon="3.12295">
        <ele>592</ele>
        <time>2023-05-28T06:44:36.000Z</time>
      </trkpt>
      <trkpt lat="43.70242" lon="3.12296">
        <ele>592.20001220703</ele>
        <time>2023-05-28T06:44:45.000Z</time>
      </trkpt>
      <trkpt lat="43.70243" lon="3.12296">
        <ele>591.59997558594</ele>
        <time>2023-05-28T06:44:52.000Z</time>
      </trkpt>
      <trkpt lat="43.70243" lon="3.12296">
        <ele>591.59997558594</ele>
        <time>2023-05-28T06:44:58.000Z</time>
      </trkpt>
      <trkpt lat="43.70243" lon="3.12296">
        <ele>591.40002441406</ele>
        <time>2023-05-28T06:45:03.000Z</time>
      </trkpt>
      <trkpt lat="43.70245" lon="3.12297">
        <ele>591.20001220703</ele>
        <time>2023-05-28T06:45:18.000Z</time>
      </trkpt>
      <trkpt lat="43.70244" lon="3.12297">
        <ele>591.59997558594</ele>
        <time>2023-05-28T06:45:27.000Z</time>
      </trkpt>
      <trkpt lat="43.70243" lon="3.12296">
        <ele>591.79998779297</ele>
        <time>2023-05-28T06:45:34.000Z</time>
      </trkpt>
      <trkpt lat="43.70242" lon="3.12294">
        <ele>592.20001220703</ele>
        <time>2023-05-28T06:45:42.000Z</time>
      </trkpt>
      <trkpt lat="43.70243" lon="3.12294">
        <ele>592</ele>
        <time>2023-05-28T06:45:49.000Z</time>
      </trkpt>
      <trkpt lat="43.70243" lon="3.12293">
        <ele>591.79998779297</ele>
        <time>2023-05-28T06:45:54.000Z</time>
      </trkpt>
      <trkpt lat="43.70242" lon="3.12293">
        <ele>592</ele>
        <time>2023-05-28T06:46:00.000Z</time>
      </trkpt>
      <trkpt lat="43.70239" lon="3.12293">
        <ele>591.79998779297</ele>
        <time>2023-05-28T06:46:08.000Z</time>
      </trkpt>
      <trkpt lat="43.70238" lon="3.12292">
        <ele>591.59997558594</ele>
        <time>2023-05-28T06:46:13.000Z</time>
      </trkpt>
      <trkpt lat="43.70237" lon="3.12292">
        <ele>592.20001220703</ele>
        <time>2023-05-28T06:46:19.000Z</time>
      </trkpt>
      <trkpt lat="43.70235" lon="3.12294">
        <ele>591.59997558594</ele>
        <time>2023-05-28T06:46:26.000Z</time>
      </trkpt>
      <trkpt lat="43.70236" lon="3.12295">
        <ele>592</ele>
        <time>2023-05-28T06:46:34.000Z</time>
      </trkpt>
      <trkpt lat="43.70235" lon="3.12296">
        <ele>591.59997558594</ele>
        <time>2023-05-28T06:46:42.000Z</time>
      </trkpt>
      <trkpt lat="43.70232" lon="3.12296">
        <ele>591.79998779297</ele>
        <time>2023-05-28T06:46:51.000Z</time>
      </trkpt>
      <trkpt lat="43.70232" lon="3.12296">
        <ele>591.79998779297</ele>
        <time>2023-05-28T06:46:57.000Z</time>
      </trkpt>
      <trkpt lat="43.70234" lon="3.12297">
        <ele>591.59997558594</ele>
        <time>2023-05-28T06:47:04.000Z</time>
      </trkpt>
      <trkpt lat="43.70243" lon="3.12295">
        <ele>591.79998779297</ele>
        <time>2023-05-28T06:47:10.000Z</time>
      </trkpt>
      <trkpt lat="43.70249" lon="3.12292">
        <ele>591.59997558594</ele>
        <time>2023-05-28T06:47:18.000Z</time>
      </trkpt>
      <trkpt lat="43.70254" lon="3.12288">
        <ele>591.40002441406</ele>
        <time>2023-05-28T06:47:22.000Z</time>
      </trkpt>
      <trkpt lat="43.70255" lon="3.12288">
        <ele>591.40002441406</ele>
        <time>2023-05-28T06:47:23.000Z</time>
      </trkpt>
      <trkpt lat="43.70258" lon="3.12287">
        <ele>591.20001220703</ele>
        <time>2023-05-28T06:47:27.000Z</time>
      </trkpt>
      <trkpt lat="43.70261" lon="3.12285">
        <ele>591</ele>
        <time>2023-05-28T06:47:29.000Z</time>
      </trkpt>
      <trkpt lat="43.70262" lon="3.12285">
        <ele>591</ele>
        <time>2023-05-28T06:47:30.000Z</time>
      </trkpt>
      <trkpt lat="43.70268" lon="3.12279">
        <ele>591.20001220703</ele>
        <time>2023-05-28T06:47:37.000Z</time>
      </trkpt>
      <trkpt lat="43.70269" lon="3.12278">
        <ele>591.40002441406</ele>
        <time>2023-05-28T06:47:43.000Z</time>
      </trkpt>
      <trkpt lat="43.70272" lon="3.12275">
        <ele>591</ele>
        <time>2023-05-28T06:47:50.000Z</time>
      </trkpt>
      <trkpt lat="43.70278" lon="3.1227">
        <ele>591</ele>
        <time>2023-05-28T06:47:57.000Z</time>
      </trkpt>
      <trkpt lat="43.70278" lon="3.12269">
        <ele>591</ele>
        <time>2023-05-28T06:47:58.000Z</time>
      </trkpt>
      <trkpt lat="43.70285" lon="3.12265">
        <ele>591.20001220703</ele>
        <time>2023-05-28T06:48:05.000Z</time>
      </trkpt>
      <trkpt lat="43.70287" lon="3.12263">
        <ele>591.20001220703</ele>
        <time>2023-05-28T06:48:07.000Z</time>
      </trkpt>
      <trkpt lat="43.70292" lon="3.1226">
        <ele>591.20001220703</ele>
        <time>2023-05-28T06:48:12.000Z</time>
      </trkpt>
      <trkpt lat="43.70295" lon="3.12255">
        <ele>591.59997558594</ele>
        <time>2023-05-28T06:48:19.000Z</time>
      </trkpt>
      <trkpt lat="43.70296" lon="3.12254">
        <ele>591.79998779297</ele>
        <time>2023-05-28T06:48:20.000Z</time>
      </trkpt>
      <trkpt lat="43.70298" lon="3.12251">
        <ele>592.20001220703</ele>
        <time>2023-05-28T06:48:23.000Z</time>
      </trkpt>
      <trkpt lat="43.70299" lon="3.12249">
        <ele>592.20001220703</ele>
        <time>2023-05-28T06:48:25.000Z</time>
      </trkpt>
      <trkpt lat="43.70301" lon="3.12247">
        <ele>592.20001220703</ele>
        <time>2023-05-28T06:48:27.000Z</time>
      </trkpt>
      <trkpt lat="43.70303" lon="3.12244">
        <ele>592.40002441406</ele>
        <time>2023-05-28T06:48:31.000Z</time>
      </trkpt>
      <trkpt lat="43.70307" lon="3.12236">
        <ele>592.79998779297</ele>
        <time>2023-05-28T06:48:38.000Z</time>
      </trkpt>
      <trkpt lat="43.70308" lon="3.12234">
        <ele>592.79998779297</ele>
        <time>2023-05-28T06:48:39.000Z</time>
      </trkpt>
      <trkpt lat="43.70312" lon="3.12224">
        <ele>593</ele>
        <time>2023-05-28T06:48:48.000Z</time>
      </trkpt>
      <trkpt lat="43.70315" lon="3.12215">
        <ele>593</ele>
        <time>2023-05-28T06:48:56.000Z</time>
      </trkpt>
      <trkpt lat="43.70316" lon="3.12214">
        <ele>593.20001220703</ele>
        <time>2023-05-28T06:48:57.000Z</time>
      </trkpt>
      <trkpt lat="43.70317" lon="3.1221">
        <ele>593.20001220703</ele>
        <time>2023-05-28T06:49:01.000Z</time>
      </trkpt>
      <trkpt lat="43.70318" lon="3.12208">
        <ele>593.40002441406</ele>
        <time>2023-05-28T06:49:03.000Z</time>
      </trkpt>
      <trkpt lat="43.70318" lon="3.12205">
        <ele>593.59997558594</ele>
        <time>2023-05-28T06:49:05.000Z</time>
      </trkpt>
      <trkpt lat="43.70319" lon="3.12204">
        <ele>593.59997558594</ele>
        <time>2023-05-28T06:49:06.000Z</time>
      </trkpt>
      <trkpt lat="43.7032" lon="3.12202">
        <ele>593.59997558594</ele>
        <time>2023-05-28T06:49:08.000Z</time>
      </trkpt>
      <trkpt lat="43.70321" lon="3.12201">
        <ele>593.79998779297</ele>
        <time>2023-05-28T06:49:09.000Z</time>
      </trkpt>
      <trkpt lat="43.70323" lon="3.12194">
        <ele>594.20001220703</ele>
        <time>2023-05-28T06:49:15.000Z</time>
      </trkpt>
      <trkpt lat="43.70324" lon="3.12192">
        <ele>594.20001220703</ele>
        <time>2023-05-28T06:49:16.000Z</time>
      </trkpt>
      <trkpt lat="43.70326" lon="3.12187">
        <ele>594.40002441406</ele>
        <time>2023-05-28T06:49:21.000Z</time>
      </trkpt>
      <trkpt lat="43.70328" lon="3.12186">
        <ele>594.59997558594</ele>
        <time>2023-05-28T06:49:23.000Z</time>
      </trkpt>
      <trkpt lat="43.70329" lon="3.12184">
        <ele>594.79998779297</ele>
        <time>2023-05-28T06:49:25.000Z</time>
      </trkpt>
      <trkpt lat="43.7033" lon="3.12182">
        <ele>594.79998779297</ele>
        <time>2023-05-28T06:49:27.000Z</time>
      </trkpt>
      <trkpt lat="43.7033" lon="3.12181">
        <ele>594.79998779297</ele>
        <time>2023-05-28T06:49:29.000Z</time>
      </trkpt>
      <trkpt lat="43.70332" lon="3.12177">
        <ele>595.20001220703</ele>
        <time>2023-05-28T06:49:34.000Z</time>
      </trkpt>
      <trkpt lat="43.70332" lon="3.12174">
        <ele>595.40002441406</ele>
        <time>2023-05-28T06:49:36.000Z</time>
      </trkpt>
      <trkpt lat="43.70335" lon="3.12166">
        <ele>595.59997558594</ele>
        <time>2023-05-28T06:49:43.000Z</time>
      </trkpt>
      <trkpt lat="43.70336" lon="3.12166">
        <ele>595.59997558594</ele>
        <time>2023-05-28T06:49:44.000Z</time>
      </trkpt>
      <trkpt lat="43.70338" lon="3.12159">
        <ele>595.79998779297</ele>
        <time>2023-05-28T06:49:50.000Z</time>
      </trkpt>
      <trkpt lat="43.7034" lon="3.12156">
        <ele>596</ele>
        <time>2023-05-28T06:49:52.000Z</time>
      </trkpt>
      <trkpt lat="43.70345" lon="3.12151">
        <ele>595.79998779297</ele>
        <time>2023-05-28T06:49:59.000Z</time>
      </trkpt>
      <trkpt lat="43.70351" lon="3.12147">
        <ele>596.20001220703</ele>
        <time>2023-05-28T06:50:06.000Z</time>
      </trkpt>
      <trkpt lat="43.70353" lon="3.12147">
        <ele>596.20001220703</ele>
        <time>2023-05-28T06:50:08.000Z</time>
      </trkpt>
      <trkpt lat="43.70355" lon="3.12146">
        <ele>596.40002441406</ele>
        <time>2023-05-28T06:50:11.000Z</time>
      </trkpt>
      <trkpt lat="43.70357" lon="3.12145">
        <ele>596.59997558594</ele>
        <time>2023-05-28T06:50:16.000Z</time>
      </trkpt>
      <trkpt lat="43.70363" lon="3.12142">
        <ele>596.59997558594</ele>
        <time>2023-05-28T06:50:22.000Z</time>
      </trkpt>
      <trkpt lat="43.70369" lon="3.12139">
        <ele>597</ele>
        <time>2023-05-28T06:50:28.000Z</time>
      </trkpt>
      <trkpt lat="43.70375" lon="3.12135">
        <ele>597.20001220703</ele>
        <time>2023-05-28T06:50:35.000Z</time>
      </trkpt>
      <trkpt lat="43.70375" lon="3.12134">
        <ele>597.40002441406</ele>
        <time>2023-05-28T06:50:36.000Z</time>
      </trkpt>
      <trkpt lat="43.70378" lon="3.12129">
        <ele>597.79998779297</ele>
        <time>2023-05-28T06:50:41.000Z</time>
      </trkpt>
      <trkpt lat="43.7038" lon="3.12125">
        <ele>597.79998779297</ele>
        <time>2023-05-28T06:50:45.000Z</time>
      </trkpt>
      <trkpt lat="43.70383" lon="3.1212">
        <ele>598</ele>
        <time>2023-05-28T06:50:50.000Z</time>
      </trkpt>
      <trkpt lat="43.70383" lon="3.12118">
        <ele>598</ele>
        <time>2023-05-28T06:50:52.000Z</time>
      </trkpt>
      <trkpt lat="43.70385" lon="3.12116">
        <ele>598.20001220703</ele>
        <time>2023-05-28T06:50:54.000Z</time>
      </trkpt>
      <trkpt lat="43.70386" lon="3.1211">
        <ele>598.40002441406</ele>
        <time>2023-05-28T06:50:58.000Z</time>
      </trkpt>
      <trkpt lat="43.70387" lon="3.12109">
        <ele>598.20001220703</ele>
        <time>2023-05-28T06:50:59.000Z</time>
      </trkpt>
      <trkpt lat="43.70387" lon="3.12105">
        <ele>598</ele>
        <time>2023-05-28T06:51:01.000Z</time>
      </trkpt>
      <trkpt lat="43.70388" lon="3.12102">
        <ele>598</ele>
        <time>2023-05-28T06:51:03.000Z</time>
      </trkpt>
      <trkpt lat="43.70389" lon="3.12098">
        <ele>598</ele>
        <time>2023-05-28T06:51:06.000Z</time>
      </trkpt>
      <trkpt lat="43.70389" lon="3.12094">
        <ele>598.20001220703</ele>
        <time>2023-05-28T06:51:09.000Z</time>
      </trkpt>
      <trkpt lat="43.70391" lon="3.12091">
        <ele>598.20001220703</ele>
        <time>2023-05-28T06:51:11.000Z</time>
      </trkpt>
      <trkpt lat="43.70393" lon="3.12088">
        <ele>598.40002441406</ele>
        <time>2023-05-28T06:51:14.000Z</time>
      </trkpt>
      <trkpt lat="43.70392" lon="3.12087">
        <ele>598.40002441406</ele>
        <time>2023-05-28T06:51:15.000Z</time>
      </trkpt>
      <trkpt lat="43.70393" lon="3.12081">
        <ele>598.59997558594</ele>
        <time>2023-05-28T06:51:19.000Z</time>
      </trkpt>
      <trkpt lat="43.70394" lon="3.12079">
        <ele>598.59997558594</ele>
        <time>2023-05-28T06:51:20.000Z</time>
      </trkpt>
      <trkpt lat="43.70394" lon="3.12078">
        <ele>598.59997558594</ele>
        <time>2023-05-28T06:51:21.000Z</time>
      </trkpt>
      <trkpt lat="43.70394" lon="3.12078">
        <ele>599</ele>
        <time>2023-05-28T06:51:25.000Z</time>
      </trkpt>
      <trkpt lat="43.70393" lon="3.12078">
        <ele>599.40002441406</ele>
        <time>2023-05-28T06:51:27.000Z</time>
      </trkpt>
      <trkpt lat="43.70394" lon="3.12074">
        <ele>599.59997558594</ele>
        <time>2023-05-28T06:51:31.000Z</time>
      </trkpt>
      <trkpt lat="43.70398" lon="3.12068">
        <ele>599.20001220703</ele>
        <time>2023-05-28T06:51:37.000Z</time>
      </trkpt>
      <trkpt lat="43.70401" lon="3.12064">
        <ele>599.20001220703</ele>
        <time>2023-05-28T06:51:42.000Z</time>
      </trkpt>
      <trkpt lat="43.704" lon="3.12064">
        <ele>599.20001220703</ele>
        <time>2023-05-28T06:51:43.000Z</time>
      </trkpt>
      <trkpt lat="43.70404" lon="3.1206">
        <ele>599.59997558594</ele>
        <time>2023-05-28T06:51:51.000Z</time>
      </trkpt>
      <trkpt lat="43.70406" lon="3.12058">
        <ele>599.59997558594</ele>
        <time>2023-05-28T06:51:57.000Z</time>
      </trkpt>
      <trkpt lat="43.70408" lon="3.12054">
        <ele>600</ele>
        <time>2023-05-28T06:52:04.000Z</time>
      </trkpt>
      <trkpt lat="43.70415" lon="3.12048">
        <ele>600.40002441406</ele>
        <time>2023-05-28T06:52:13.000Z</time>
      </trkpt>
      <trkpt lat="43.70419" lon="3.12044">
        <ele>600.20001220703</ele>
        <time>2023-05-28T06:52:17.000Z</time>
      </trkpt>
      <trkpt lat="43.70421" lon="3.12042">
        <ele>600.20001220703</ele>
        <time>2023-05-28T06:52:20.000Z</time>
      </trkpt>
      <trkpt lat="43.70424" lon="3.12039">
        <ele>600.40002441406</ele>
        <time>2023-05-28T06:52:24.000Z</time>
      </trkpt>
      <trkpt lat="43.70426" lon="3.12036">
        <ele>600.79998779297</ele>
        <time>2023-05-28T06:52:28.000Z</time>
      </trkpt>
      <trkpt lat="43.70427" lon="3.12035">
        <ele>600.79998779297</ele>
        <time>2023-05-28T06:52:29.000Z</time>
      </trkpt>
      <trkpt lat="43.70429" lon="3.12034">
        <ele>600.59997558594</ele>
        <time>2023-05-28T06:52:31.000Z</time>
      </trkpt>
      <trkpt lat="43.7043" lon="3.12033">
        <ele>600.79998779297</ele>
        <time>2023-05-28T06:52:34.000Z</time>
      </trkpt>
      <trkpt lat="43.7043" lon="3.1203">
        <ele>601.40002441406</ele>
        <time>2023-05-28T06:52:45.000Z</time>
      </trkpt>
      <trkpt lat="43.70431" lon="3.12028">
        <ele>601.40002441406</ele>
        <time>2023-05-28T06:52:46.000Z</time>
      </trkpt>
      <trkpt lat="43.70434" lon="3.12022">
        <ele>601</ele>
        <time>2023-05-28T06:52:51.000Z</time>
      </trkpt>
      <trkpt lat="43.70437" lon="3.12017">
        <ele>601.40002441406</ele>
        <time>2023-05-28T06:52:56.000Z</time>
      </trkpt>
      <trkpt lat="43.7044" lon="3.12013">
        <ele>601.40002441406</ele>
        <time>2023-05-28T06:53:00.000Z</time>
      </trkpt>
      <trkpt lat="43.70442" lon="3.12008">
        <ele>601.59997558594</ele>
        <time>2023-05-28T06:53:03.000Z</time>
      </trkpt>
      <trkpt lat="43.70445" lon="3.12004">
        <ele>601.59997558594</ele>
        <time>2023-05-28T06:53:08.000Z</time>
      </trkpt>
      <trkpt lat="43.70451" lon="3.11999">
        <ele>601.79998779297</ele>
        <time>2023-05-28T06:53:14.000Z</time>
      </trkpt>
      <trkpt lat="43.70458" lon="3.11994">
        <ele>602.20001220703</ele>
        <time>2023-05-28T06:53:21.000Z</time>
      </trkpt>
      <trkpt lat="43.70466" lon="3.11991">
        <ele>602.40002441406</ele>
        <time>2023-05-28T06:53:28.000Z</time>
      </trkpt>
      <trkpt lat="43.70468" lon="3.1199">
        <ele>602.59997558594</ele>
        <time>2023-05-28T06:53:30.000Z</time>
      </trkpt>
      <trkpt lat="43.70478" lon="3.11986">
        <ele>603</ele>
        <time>2023-05-28T06:53:39.000Z</time>
      </trkpt>
      <trkpt lat="43.70482" lon="3.11986">
        <ele>603.20001220703</ele>
        <time>2023-05-28T06:53:42.000Z</time>
      </trkpt>
      <trkpt lat="43.70485" lon="3.11986">
        <ele>603.20001220703</ele>
        <time>2023-05-28T06:53:45.000Z</time>
      </trkpt>
      <trkpt lat="43.70488" lon="3.11986">
        <ele>603.20001220703</ele>
        <time>2023-05-28T06:53:47.000Z</time>
      </trkpt>
      <trkpt lat="43.70491" lon="3.11985">
        <ele>603.40002441406</ele>
        <time>2023-05-28T06:53:50.000Z</time>
      </trkpt>
      <trkpt lat="43.70494" lon="3.11982">
        <ele>603.59997558594</ele>
        <time>2023-05-28T06:53:53.000Z</time>
      </trkpt>
      <trkpt lat="43.70494" lon="3.11981">
        <ele>603.59997558594</ele>
        <time>2023-05-28T06:53:54.000Z</time>
      </trkpt>
      <trkpt lat="43.70496" lon="3.11979">
        <ele>603.59997558594</ele>
        <time>2023-05-28T06:53:58.000Z</time>
      </trkpt>
      <trkpt lat="43.70497" lon="3.11977">
        <ele>604</ele>
        <time>2023-05-28T06:54:05.000Z</time>
      </trkpt>
      <trkpt lat="43.70504" lon="3.11972">
        <ele>604</ele>
        <time>2023-05-28T06:54:14.000Z</time>
      </trkpt>
      <trkpt lat="43.70511" lon="3.11967">
        <ele>604</ele>
        <time>2023-05-28T06:54:20.000Z</time>
      </trkpt>
      <trkpt lat="43.70518" lon="3.1196">
        <ele>604</ele>
        <time>2023-05-28T06:54:28.000Z</time>
      </trkpt>
      <trkpt lat="43.70519" lon="3.11959">
        <ele>604</ele>
        <time>2023-05-28T06:54:29.000Z</time>
      </trkpt>
      <trkpt lat="43.70524" lon="3.11955">
        <ele>604.40002441406</ele>
        <time>2023-05-28T06:54:35.000Z</time>
      </trkpt>
      <trkpt lat="43.70525" lon="3.11953">
        <ele>604.59997558594</ele>
        <time>2023-05-28T06:54:36.000Z</time>
      </trkpt>
      <trkpt lat="43.70528" lon="3.1195">
        <ele>605</ele>
        <time>2023-05-28T06:54:41.000Z</time>
      </trkpt>
      <trkpt lat="43.70529" lon="3.11949">
        <ele>605.20001220703</ele>
        <time>2023-05-28T06:54:42.000Z</time>
      </trkpt>
      <trkpt lat="43.70534" lon="3.11945">
        <ele>605.20001220703</ele>
        <time>2023-05-28T06:54:47.000Z</time>
      </trkpt>
      <trkpt lat="43.70536" lon="3.11944">
        <ele>605.20001220703</ele>
        <time>2023-05-28T06:54:50.000Z</time>
      </trkpt>
      <trkpt lat="43.70539" lon="3.11942">
        <ele>605.40002441406</ele>
        <time>2023-05-28T06:54:54.000Z</time>
      </trkpt>
      <trkpt lat="43.7054" lon="3.1194">
        <ele>605.40002441406</ele>
        <time>2023-05-28T06:54:56.000Z</time>
      </trkpt>
      <trkpt lat="43.70541" lon="3.11939">
        <ele>605.40002441406</ele>
        <time>2023-05-28T06:54:57.000Z</time>
      </trkpt>
      <trkpt lat="43.70544" lon="3.11937">
        <ele>605.59997558594</ele>
        <time>2023-05-28T06:55:01.000Z</time>
      </trkpt>
      <trkpt lat="43.70545" lon="3.11936">
        <ele>605.59997558594</ele>
        <time>2023-05-28T06:55:02.000Z</time>
      </trkpt>
      <trkpt lat="43.70547" lon="3.11934">
        <ele>605.79998779297</ele>
        <time>2023-05-28T06:55:05.000Z</time>
      </trkpt>
      <trkpt lat="43.70554" lon="3.11929">
        <ele>606</ele>
        <time>2023-05-28T06:55:13.000Z</time>
      </trkpt>
      <trkpt lat="43.70559" lon="3.11925">
        <ele>606.40002441406</ele>
        <time>2023-05-28T06:55:20.000Z</time>
      </trkpt>
      <trkpt lat="43.70565" lon="3.1192">
        <ele>606.59997558594</ele>
        <time>2023-05-28T06:55:26.000Z</time>
      </trkpt>
      <trkpt lat="43.70565" lon="3.11918">
        <ele>606.59997558594</ele>
        <time>2023-05-28T06:55:27.000Z</time>
      </trkpt>
      <trkpt lat="43.7057" lon="3.11913">
        <ele>606.79998779297</ele>
        <time>2023-05-28T06:55:33.000Z</time>
      </trkpt>
      <trkpt lat="43.70577" lon="3.11908">
        <ele>607</ele>
        <time>2023-05-28T06:55:41.000Z</time>
      </trkpt>
      <trkpt lat="43.70582" lon="3.11906">
        <ele>607.20001220703</ele>
        <time>2023-05-28T06:55:45.000Z</time>
      </trkpt>
      <trkpt lat="43.70585" lon="3.11903">
        <ele>607.20001220703</ele>
        <time>2023-05-28T06:55:48.000Z</time>
      </trkpt>
      <trkpt lat="43.70586" lon="3.11903">
        <ele>607.40002441406</ele>
        <time>2023-05-28T06:55:49.000Z</time>
      </trkpt>
      <trkpt lat="43.70589" lon="3.11901">
        <ele>607.40002441406</ele>
        <time>2023-05-28T06:55:52.000Z</time>
      </trkpt>
      <trkpt lat="43.70593" lon="3.11898">
        <ele>607.40002441406</ele>
        <time>2023-05-28T06:55:56.000Z</time>
      </trkpt>
      <trkpt lat="43.70595" lon="3.11896">
        <ele>607.59997558594</ele>
        <time>2023-05-28T06:55:59.000Z</time>
      </trkpt>
      <trkpt lat="43.70598" lon="3.11892">
        <ele>608</ele>
        <time>2023-05-28T06:56:04.000Z</time>
      </trkpt>
      <trkpt lat="43.70599" lon="3.11891">
        <ele>608</ele>
        <time>2023-05-28T06:56:05.000Z</time>
      </trkpt>
      <trkpt lat="43.70599" lon="3.11888">
        <ele>608.20001220703</ele>
        <time>2023-05-28T06:56:10.000Z</time>
      </trkpt>
      <trkpt lat="43.70602" lon="3.11881">
        <ele>608.59997558594</ele>
        <time>2023-05-28T06:56:15.000Z</time>
      </trkpt>
      <trkpt lat="43.70602" lon="3.1188">
        <ele>608.59997558594</ele>
        <time>2023-05-28T06:56:16.000Z</time>
      </trkpt>
      <trkpt lat="43.70602" lon="3.11873">
        <ele>608.59997558594</ele>
        <time>2023-05-28T06:56:21.000Z</time>
      </trkpt>
      <trkpt lat="43.70603" lon="3.11871">
        <ele>608.59997558594</ele>
        <time>2023-05-28T06:56:23.000Z</time>
      </trkpt>
      <trkpt lat="43.70605" lon="3.11866">
        <ele>608.79998779297</ele>
        <time>2023-05-28T06:56:27.000Z</time>
      </trkpt>
      <trkpt lat="43.70604" lon="3.11862">
        <ele>608.79998779297</ele>
        <time>2023-05-28T06:56:29.000Z</time>
      </trkpt>
      <trkpt lat="43.70606" lon="3.11854">
        <ele>609.20001220703</ele>
        <time>2023-05-28T06:56:35.000Z</time>
      </trkpt>
      <trkpt lat="43.70608" lon="3.11852">
        <ele>609.40002441406</ele>
        <time>2023-05-28T06:56:37.000Z</time>
      </trkpt>
      <trkpt lat="43.70611" lon="3.11846">
        <ele>609.59997558594</ele>
        <time>2023-05-28T06:56:41.000Z</time>
      </trkpt>
      <trkpt lat="43.70612" lon="3.11845">
        <ele>609.79998779297</ele>
        <time>2023-05-28T06:56:42.000Z</time>
      </trkpt>
      <trkpt lat="43.70613" lon="3.11845">
        <ele>609.79998779297</ele>
        <time>2023-05-28T06:56:44.000Z</time>
      </trkpt>
      <trkpt lat="43.70614" lon="3.11843">
        <ele>609.79998779297</ele>
        <time>2023-05-28T06:56:45.000Z</time>
      </trkpt>
      <trkpt lat="43.70618" lon="3.1184">
        <ele>610</ele>
        <time>2023-05-28T06:56:49.000Z</time>
      </trkpt>
      <trkpt lat="43.70619" lon="3.11839">
        <ele>610</ele>
        <time>2023-05-28T06:56:51.000Z</time>
      </trkpt>
      <trkpt lat="43.70622" lon="3.11838">
        <ele>610.20001220703</ele>
        <time>2023-05-28T06:56:54.000Z</time>
      </trkpt>
      <trkpt lat="43.70632" lon="3.11835">
        <ele>610.20001220703</ele>
        <time>2023-05-28T06:57:03.000Z</time>
      </trkpt>
      <trkpt lat="43.70645" lon="3.11833">
        <ele>610.40002441406</ele>
        <time>2023-05-28T06:57:15.000Z</time>
      </trkpt>
      <trkpt lat="43.70645" lon="3.11832">
        <ele>610.40002441406</ele>
        <time>2023-05-28T06:57:16.000Z</time>
      </trkpt>
      <trkpt lat="43.70649" lon="3.11833">
        <ele>610.59997558594</ele>
        <time>2023-05-28T06:57:19.000Z</time>
      </trkpt>
      <trkpt lat="43.70658" lon="3.11835">
        <ele>610.59997558594</ele>
        <time>2023-05-28T06:57:26.000Z</time>
      </trkpt>
      <trkpt lat="43.70659" lon="3.11835">
        <ele>610.59997558594</ele>
        <time>2023-05-28T06:57:27.000Z</time>
      </trkpt>
      <trkpt lat="43.70667" lon="3.11836">
        <ele>610.79998779297</ele>
        <time>2023-05-28T06:57:32.000Z</time>
      </trkpt>
      <trkpt lat="43.70676" lon="3.11839">
        <ele>611</ele>
        <time>2023-05-28T06:57:39.000Z</time>
      </trkpt>
      <trkpt lat="43.70683" lon="3.11842">
        <ele>611</ele>
        <time>2023-05-28T06:57:45.000Z</time>
      </trkpt>
      <trkpt lat="43.70689" lon="3.11845">
        <ele>611</ele>
        <time>2023-05-28T06:57:52.000Z</time>
      </trkpt>
      <trkpt lat="43.70694" lon="3.11849">
        <ele>611.20001220703</ele>
        <time>2023-05-28T06:57:58.000Z</time>
      </trkpt>
      <trkpt lat="43.70698" lon="3.11852">
        <ele>611.59997558594</ele>
        <time>2023-05-28T06:58:05.000Z</time>
      </trkpt>
      <trkpt lat="43.70703" lon="3.11854">
        <ele>611.59997558594</ele>
        <time>2023-05-28T06:58:11.000Z</time>
      </trkpt>
      <trkpt lat="43.70704" lon="3.11855">
        <ele>611.79998779297</ele>
        <time>2023-05-28T06:58:12.000Z</time>
      </trkpt>
      <trkpt lat="43.70711" lon="3.11858">
        <ele>612</ele>
        <time>2023-05-28T06:58:18.000Z</time>
      </trkpt>
      <trkpt lat="43.70715" lon="3.1186">
        <ele>612.20001220703</ele>
        <time>2023-05-28T06:58:23.000Z</time>
      </trkpt>
      <trkpt lat="43.70717" lon="3.11861">
        <ele>612.20001220703</ele>
        <time>2023-05-28T06:58:25.000Z</time>
      </trkpt>
      <trkpt lat="43.7072" lon="3.11864">
        <ele>612.40002441406</ele>
        <time>2023-05-28T06:58:29.000Z</time>
      </trkpt>
      <trkpt lat="43.70721" lon="3.11865">
        <ele>612.59997558594</ele>
        <time>2023-05-28T06:58:31.000Z</time>
      </trkpt>
      <trkpt lat="43.70726" lon="3.11867">
        <ele>612.79998779297</ele>
        <time>2023-05-28T06:58:37.000Z</time>
      </trkpt>
      <trkpt lat="43.70726" lon="3.11868">
        <ele>612.79998779297</ele>
        <time>2023-05-28T06:58:38.000Z</time>
      </trkpt>
      <trkpt lat="43.70731" lon="3.1187">
        <ele>613.20001220703</ele>
        <time>2023-05-28T06:58:42.000Z</time>
      </trkpt>
      <trkpt lat="43.70735" lon="3.11872">
        <ele>613.59997558594</ele>
        <time>2023-05-28T06:58:46.000Z</time>
      </trkpt>
      <trkpt lat="43.70737" lon="3.11874">
        <ele>613.79998779297</ele>
        <time>2023-05-28T06:58:49.000Z</time>
      </trkpt>
      <trkpt lat="43.70736" lon="3.11873">
        <ele>613.79998779297</ele>
        <time>2023-05-28T06:58:50.000Z</time>
      </trkpt>
      <trkpt lat="43.70741" lon="3.11873">
        <ele>614</ele>
        <time>2023-05-28T06:59:00.000Z</time>
      </trkpt>
      <trkpt lat="43.70749" lon="3.11873">
        <ele>614.20001220703</ele>
        <time>2023-05-28T06:59:08.000Z</time>
      </trkpt>
      <trkpt lat="43.70757" lon="3.11873">
        <ele>614.20001220703</ele>
        <time>2023-05-28T06:59:15.000Z</time>
      </trkpt>
      <trkpt lat="43.70766" lon="3.11868">
        <ele>614.20001220703</ele>
        <time>2023-05-28T06:59:23.000Z</time>
      </trkpt>
      <trkpt lat="43.70772" lon="3.11858">
        <ele>614.20001220703</ele>
        <time>2023-05-28T06:59:32.000Z</time>
      </trkpt>
      <trkpt lat="43.70773" lon="3.11855">
        <ele>614.20001220703</ele>
        <time>2023-05-28T06:59:34.000Z</time>
      </trkpt>
      <trkpt lat="43.70773" lon="3.11854">
        <ele>614.40002441406</ele>
        <time>2023-05-28T06:59:38.000Z</time>
      </trkpt>
      <trkpt lat="43.70773" lon="3.11855">
        <ele>614.79998779297</ele>
        <time>2023-05-28T06:59:43.000Z</time>
      </trkpt>
      <trkpt lat="43.70772" lon="3.11851">
        <ele>615</ele>
        <time>2023-05-28T06:59:48.000Z</time>
      </trkpt>
      <trkpt lat="43.70775" lon="3.11843">
        <ele>614.79998779297</ele>
        <time>2023-05-28T06:59:55.000Z</time>
      </trkpt>
      <trkpt lat="43.70776" lon="3.11831">
        <ele>614.79998779297</ele>
        <time>2023-05-28T07:00:03.000Z</time>
      </trkpt>
      <trkpt lat="43.70776" lon="3.1182">
        <ele>614.59997558594</ele>
        <time>2023-05-28T07:00:10.000Z</time>
      </trkpt>
      <trkpt lat="43.70778" lon="3.11806">
        <ele>614.79998779297</ele>
        <time>2023-05-28T07:00:19.000Z</time>
      </trkpt>
      <trkpt lat="43.70779" lon="3.11795">
        <ele>614.79998779297</ele>
        <time>2023-05-28T07:00:26.000Z</time>
      </trkpt>
      <trkpt lat="43.7078" lon="3.11781">
        <ele>615</ele>
        <time>2023-05-28T07:00:35.000Z</time>
      </trkpt>
      <trkpt lat="43.70777" lon="3.11767">
        <ele>615.20001220703</ele>
        <time>2023-05-28T07:00:45.000Z</time>
      </trkpt>
      <trkpt lat="43.70773" lon="3.11758">
        <ele>615.40002441406</ele>
        <time>2023-05-28T07:00:53.000Z</time>
      </trkpt>
      <trkpt lat="43.70772" lon="3.11756">
        <ele>615.40002441406</ele>
        <time>2023-05-28T07:00:54.000Z</time>
      </trkpt>
      <trkpt lat="43.70768" lon="3.11751">
        <ele>615.59997558594</ele>
        <time>2023-05-28T07:01:00.000Z</time>
      </trkpt>
      <trkpt lat="43.70763" lon="3.11747">
        <ele>615.59997558594</ele>
        <time>2023-05-28T07:01:06.000Z</time>
      </trkpt>
      <trkpt lat="43.70762" lon="3.11746">
        <ele>615.59997558594</ele>
        <time>2023-05-28T07:01:07.000Z</time>
      </trkpt>
      <trkpt lat="43.70756" lon="3.11741">
        <ele>615.59997558594</ele>
        <time>2023-05-28T07:01:14.000Z</time>
      </trkpt>
      <trkpt lat="43.70751" lon="3.11738">
        <ele>615.79998779297</ele>
        <time>2023-05-28T07:01:18.000Z</time>
      </trkpt>
      <trkpt lat="43.7075" lon="3.11736">
        <ele>615.79998779297</ele>
        <time>2023-05-28T07:01:20.000Z</time>
      </trkpt>
      <trkpt lat="43.70745" lon="3.11731">
        <ele>615.59997558594</ele>
        <time>2023-05-28T07:01:25.000Z</time>
      </trkpt>
      <trkpt lat="43.70743" lon="3.1173">
        <ele>615.79998779297</ele>
        <time>2023-05-28T07:01:27.000Z</time>
      </trkpt>
      <trkpt lat="43.70738" lon="3.11724">
        <ele>615.79998779297</ele>
        <time>2023-05-28T07:01:33.000Z</time>
      </trkpt>
      <trkpt lat="43.70736" lon="3.11724">
        <ele>615.79998779297</ele>
        <time>2023-05-28T07:01:35.000Z</time>
      </trkpt>
      <trkpt lat="43.70729" lon="3.11718">
        <ele>616</ele>
        <time>2023-05-28T07:01:43.000Z</time>
      </trkpt>
      <trkpt lat="43.70726" lon="3.11716">
        <ele>616</ele>
        <time>2023-05-28T07:01:46.000Z</time>
      </trkpt>
      <trkpt lat="43.70723" lon="3.11715">
        <ele>616</ele>
        <time>2023-05-28T07:01:49.000Z</time>
      </trkpt>
      <trkpt lat="43.70721" lon="3.11714">
        <ele>616.20001220703</ele>
        <time>2023-05-28T07:01:51.000Z</time>
      </trkpt>
      <trkpt lat="43.7072" lon="3.11713">
        <ele>616.20001220703</ele>
        <time>2023-05-28T07:01:52.000Z</time>
      </trkpt>
      <trkpt lat="43.70718" lon="3.11712">
        <ele>616.20001220703</ele>
        <time>2023-05-28T07:01:55.000Z</time>
      </trkpt>
      <trkpt lat="43.7071" lon="3.11706">
        <ele>616.40002441406</ele>
        <time>2023-05-28T07:02:03.000Z</time>
      </trkpt>
      <trkpt lat="43.70708" lon="3.11705">
        <ele>616.40002441406</ele>
        <time>2023-05-28T07:02:05.000Z</time>
      </trkpt>
      <trkpt lat="43.70705" lon="3.11703">
        <ele>616.40002441406</ele>
        <time>2023-05-28T07:02:09.000Z</time>
      </trkpt>
      <trkpt lat="43.70703" lon="3.11702">
        <ele>616.40002441406</ele>
        <time>2023-05-28T07:02:11.000Z</time>
      </trkpt>
      <trkpt lat="43.70701" lon="3.11701">
        <ele>616.40002441406</ele>
        <time>2023-05-28T07:02:13.000Z</time>
      </trkpt>
      <trkpt lat="43.70697" lon="3.11697">
        <ele>616.20001220703</ele>
        <time>2023-05-28T07:02:17.000Z</time>
      </trkpt>
      <trkpt lat="43.70694" lon="3.11695">
        <ele>616.20001220703</ele>
        <time>2023-05-28T07:02:20.000Z</time>
      </trkpt>
      <trkpt lat="43.70691" lon="3.11692">
        <ele>616.20001220703</ele>
        <time>2023-05-28T07:02:23.000Z</time>
      </trkpt>
      <trkpt lat="43.70687" lon="3.11687">
        <ele>616.20001220703</ele>
        <time>2023-05-28T07:02:28.000Z</time>
      </trkpt>
      <trkpt lat="43.70685" lon="3.11686">
        <ele>616.40002441406</ele>
        <time>2023-05-28T07:02:31.000Z</time>
      </trkpt>
      <trkpt lat="43.70683" lon="3.11684">
        <ele>616.79998779297</ele>
        <time>2023-05-28T07:02:36.000Z</time>
      </trkpt>
      <trkpt lat="43.70682" lon="3.11683">
        <ele>616.79998779297</ele>
        <time>2023-05-28T07:02:37.000Z</time>
      </trkpt>
      <trkpt lat="43.70679" lon="3.11674">
        <ele>616.59997558594</ele>
        <time>2023-05-28T07:02:44.000Z</time>
      </trkpt>
      <trkpt lat="43.70678" lon="3.11673">
        <ele>616.59997558594</ele>
        <time>2023-05-28T07:02:45.000Z</time>
      </trkpt>
      <trkpt lat="43.70673" lon="3.11663">
        <ele>616.40002441406</ele>
        <time>2023-05-28T07:02:53.000Z</time>
      </trkpt>
      <trkpt lat="43.70672" lon="3.1166">
        <ele>616.40002441406</ele>
        <time>2023-05-28T07:02:55.000Z</time>
      </trkpt>
      <trkpt lat="43.70669" lon="3.11656">
        <ele>616.59997558594</ele>
        <time>2023-05-28T07:02:59.000Z</time>
      </trkpt>
      <trkpt lat="43.70669" lon="3.11654">
        <ele>616.59997558594</ele>
        <time>2023-05-28T07:03:00.000Z</time>
      </trkpt>
      <trkpt lat="43.70667" lon="3.11649">
        <ele>616.59997558594</ele>
        <time>2023-05-28T07:03:04.000Z</time>
      </trkpt>
      <trkpt lat="43.70664" lon="3.11644">
        <ele>616.59997558594</ele>
        <time>2023-05-28T07:03:09.000Z</time>
      </trkpt>
      <trkpt lat="43.70663" lon="3.11642">
        <ele>616.79998779297</ele>
        <time>2023-05-28T07:03:11.000Z</time>
      </trkpt>
      <trkpt lat="43.70661" lon="3.11638">
        <ele>616.79998779297</ele>
        <time>2023-05-28T07:03:14.000Z</time>
      </trkpt>
      <trkpt lat="43.7066" lon="3.11635">
        <ele>617</ele>
        <time>2023-05-28T07:03:17.000Z</time>
      </trkpt>
      <trkpt lat="43.70659" lon="3.11632">
        <ele>617</ele>
        <time>2023-05-28T07:03:19.000Z</time>
      </trkpt>
      <trkpt lat="43.70658" lon="3.11629">
        <ele>617</ele>
        <time>2023-05-28T07:03:22.000Z</time>
      </trkpt>
      <trkpt lat="43.70657" lon="3.11624">
        <ele>616.79998779297</ele>
        <time>2023-05-28T07:03:25.000Z</time>
      </trkpt>
      <trkpt lat="43.70661" lon="3.1162">
        <ele>617</ele>
        <time>2023-05-28T07:03:29.000Z</time>
      </trkpt>
      <trkpt lat="43.70663" lon="3.11612">
        <ele>617.20001220703</ele>
        <time>2023-05-28T07:03:35.000Z</time>
      </trkpt>
      <trkpt lat="43.70664" lon="3.11607">
        <ele>617.40002441406</ele>
        <time>2023-05-28T07:03:38.000Z</time>
      </trkpt>
      <trkpt lat="43.70666" lon="3.11603">
        <ele>617.40002441406</ele>
        <time>2023-05-28T07:03:41.000Z</time>
      </trkpt>
      <trkpt lat="43.70668" lon="3.11595">
        <ele>617.20001220703</ele>
        <time>2023-05-28T07:03:48.000Z</time>
      </trkpt>
      <trkpt lat="43.70671" lon="3.11586">
        <ele>617.20001220703</ele>
        <time>2023-05-28T07:03:54.000Z</time>
      </trkpt>
      <trkpt lat="43.70672" lon="3.11576">
        <ele>617.20001220703</ele>
        <time>2023-05-28T07:04:01.000Z</time>
      </trkpt>
      <trkpt lat="43.70674" lon="3.11574">
        <ele>617</ele>
        <time>2023-05-28T07:04:03.000Z</time>
      </trkpt>
      <trkpt lat="43.70674" lon="3.11572">
        <ele>617</ele>
        <time>2023-05-28T07:04:05.000Z</time>
      </trkpt>
      <trkpt lat="43.70673" lon="3.11568">
        <ele>617</ele>
        <time>2023-05-28T07:04:07.000Z</time>
      </trkpt>
      <trkpt lat="43.70675" lon="3.11559">
        <ele>616.79998779297</ele>
        <time>2023-05-28T07:04:13.000Z</time>
      </trkpt>
      <trkpt lat="43.70675" lon="3.11556">
        <ele>616.79998779297</ele>
        <time>2023-05-28T07:04:15.000Z</time>
      </trkpt>
      <trkpt lat="43.70675" lon="3.11554">
        <ele>616.79998779297</ele>
        <time>2023-05-28T07:04:16.000Z</time>
      </trkpt>
      <trkpt lat="43.70676" lon="3.11551">
        <ele>617.20001220703</ele>
        <time>2023-05-28T07:04:19.000Z</time>
      </trkpt>
      <trkpt lat="43.70675" lon="3.11541">
        <ele>617</ele>
        <time>2023-05-28T07:04:25.000Z</time>
      </trkpt>
      <trkpt lat="43.70675" lon="3.11539">
        <ele>617</ele>
        <time>2023-05-28T07:04:26.000Z</time>
      </trkpt>
      <trkpt lat="43.70672" lon="3.11527">
        <ele>617.20001220703</ele>
        <time>2023-05-28T07:04:34.000Z</time>
      </trkpt>
      <trkpt lat="43.70666" lon="3.11517">
        <ele>617.20001220703</ele>
        <time>2023-05-28T07:04:42.000Z</time>
      </trkpt>
      <trkpt lat="43.70662" lon="3.11514">
        <ele>617.20001220703</ele>
        <time>2023-05-28T07:04:46.000Z</time>
      </trkpt>
      <trkpt lat="43.70659" lon="3.11512">
        <ele>617.20001220703</ele>
        <time>2023-05-28T07:04:49.000Z</time>
      </trkpt>
      <trkpt lat="43.70655" lon="3.11507">
        <ele>617.20001220703</ele>
        <time>2023-05-28T07:04:55.000Z</time>
      </trkpt>
      <trkpt lat="43.70653" lon="3.11505">
        <ele>617.20001220703</ele>
        <time>2023-05-28T07:04:57.000Z</time>
      </trkpt>
      <trkpt lat="43.70648" lon="3.11501">
        <ele>617.59997558594</ele>
        <time>2023-05-28T07:05:04.000Z</time>
      </trkpt>
      <trkpt lat="43.70645" lon="3.11498">
        <ele>617.59997558594</ele>
        <time>2023-05-28T07:05:08.000Z</time>
      </trkpt>
      <trkpt lat="43.70643" lon="3.11495">
        <ele>617.59997558594</ele>
        <time>2023-05-28T07:05:11.000Z</time>
      </trkpt>
      <trkpt lat="43.70639" lon="3.11491">
        <ele>617.79998779297</ele>
        <time>2023-05-28T07:05:17.000Z</time>
      </trkpt>
      <trkpt lat="43.70638" lon="3.1149">
        <ele>617.79998779297</ele>
        <time>2023-05-28T07:05:18.000Z</time>
      </trkpt>
      <trkpt lat="43.70637" lon="3.11489">
        <ele>617.79998779297</ele>
        <time>2023-05-28T07:05:19.000Z</time>
      </trkpt>
      <trkpt lat="43.70633" lon="3.11487">
        <ele>618</ele>
        <time>2023-05-28T07:05:24.000Z</time>
      </trkpt>
      <trkpt lat="43.70632" lon="3.11487">
        <ele>618</ele>
        <time>2023-05-28T07:05:25.000Z</time>
      </trkpt>
      <trkpt lat="43.7063" lon="3.11486">
        <ele>618</ele>
        <time>2023-05-28T07:05:29.000Z</time>
      </trkpt>
      <trkpt lat="43.70629" lon="3.11485">
        <ele>618</ele>
        <time>2023-05-28T07:05:30.000Z</time>
      </trkpt>
      <trkpt lat="43.70627" lon="3.11484">
        <ele>618.20001220703</ele>
        <time>2023-05-28T07:05:33.000Z</time>
      </trkpt>
      <trkpt lat="43.70624" lon="3.11482">
        <ele>618.20001220703</ele>
        <time>2023-05-28T07:05:37.000Z</time>
      </trkpt>
      <trkpt lat="43.70621" lon="3.11477">
        <ele>618.40002441406</ele>
        <time>2023-05-28T07:05:44.000Z</time>
      </trkpt>
      <trkpt lat="43.70616" lon="3.11475">
        <ele>618.59997558594</ele>
        <time>2023-05-28T07:05:50.000Z</time>
      </trkpt>
      <trkpt lat="43.70612" lon="3.11474">
        <ele>618.79998779297</ele>
        <time>2023-05-28T07:05:53.000Z</time>
      </trkpt>
      <trkpt lat="43.70609" lon="3.11472">
        <ele>619</ele>
        <time>2023-05-28T07:05:56.000Z</time>
      </trkpt>
      <trkpt lat="43.70603" lon="3.11466">
        <ele>619.40002441406</ele>
        <time>2023-05-28T07:06:03.000Z</time>
      </trkpt>
      <trkpt lat="43.70599" lon="3.11462">
        <ele>619.59997558594</ele>
        <time>2023-05-28T07:06:08.000Z</time>
      </trkpt>
      <trkpt lat="43.70595" lon="3.11457">
        <ele>619.79998779297</ele>
        <time>2023-05-28T07:06:12.000Z</time>
      </trkpt>
      <trkpt lat="43.70593" lon="3.11455">
        <ele>619.79998779297</ele>
        <time>2023-05-28T07:06:14.000Z</time>
      </trkpt>
      <trkpt lat="43.70592" lon="3.11454">
        <ele>620</ele>
        <time>2023-05-28T07:06:15.000Z</time>
      </trkpt>
      <trkpt lat="43.70589" lon="3.11453">
        <ele>620</ele>
        <time>2023-05-28T07:06:22.000Z</time>
      </trkpt>
      <trkpt lat="43.7059" lon="3.11455">
        <ele>620.40002441406</ele>
        <time>2023-05-28T07:06:28.000Z</time>
      </trkpt>
      <trkpt lat="43.7059" lon="3.11455">
        <ele>620.20001220703</ele>
        <time>2023-05-28T07:06:33.000Z</time>
      </trkpt>
      <trkpt lat="43.70586" lon="3.11452">
        <ele>620.40002441406</ele>
        <time>2023-05-28T07:06:39.000Z</time>
      </trkpt>
      <trkpt lat="43.7058" lon="3.11445">
        <ele>620.40002441406</ele>
        <time>2023-05-28T07:06:47.000Z</time>
      </trkpt>
      <trkpt lat="43.70576" lon="3.11441">
        <ele>620.59997558594</ele>
        <time>2023-05-28T07:06:52.000Z</time>
      </trkpt>
      <trkpt lat="43.70575" lon="3.11441">
        <ele>620.59997558594</ele>
        <time>2023-05-28T07:06:53.000Z</time>
      </trkpt>
      <trkpt lat="43.70569" lon="3.11438">
        <ele>620.79998779297</ele>
        <time>2023-05-28T07:06:58.000Z</time>
      </trkpt>
      <trkpt lat="43.70567" lon="3.11436">
        <ele>620.59997558594</ele>
        <time>2023-05-28T07:07:00.000Z</time>
      </trkpt>
      <trkpt lat="43.70565" lon="3.11435">
        <ele>620.59997558594</ele>
        <time>2023-05-28T07:07:02.000Z</time>
      </trkpt>
      <trkpt lat="43.7056" lon="3.11432">
        <ele>620.79998779297</ele>
        <time>2023-05-28T07:07:06.000Z</time>
      </trkpt>
      <trkpt lat="43.70553" lon="3.11431">
        <ele>620.79998779297</ele>
        <time>2023-05-28T07:07:11.000Z</time>
      </trkpt>
      <trkpt lat="43.70552" lon="3.1143">
        <ele>620.79998779297</ele>
        <time>2023-05-28T07:07:12.000Z</time>
      </trkpt>
      <trkpt lat="43.7055" lon="3.1143">
        <ele>620.79998779297</ele>
        <time>2023-05-28T07:07:13.000Z</time>
      </trkpt>
      <trkpt lat="43.70549" lon="3.11429">
        <ele>621</ele>
        <time>2023-05-28T07:07:15.000Z</time>
      </trkpt>
      <trkpt lat="43.70547" lon="3.11428">
        <ele>621</ele>
        <time>2023-05-28T07:07:17.000Z</time>
      </trkpt>
      <trkpt lat="43.70545" lon="3.11427">
        <ele>621</ele>
        <time>2023-05-28T07:07:20.000Z</time>
      </trkpt>
      <trkpt lat="43.70543" lon="3.11425">
        <ele>621</ele>
        <time>2023-05-28T07:07:22.000Z</time>
      </trkpt>
      <trkpt lat="43.70537" lon="3.11421">
        <ele>621.20001220703</ele>
        <time>2023-05-28T07:07:27.000Z</time>
      </trkpt>
      <trkpt lat="43.70535" lon="3.1142">
        <ele>621.20001220703</ele>
        <time>2023-05-28T07:07:29.000Z</time>
      </trkpt>
      <trkpt lat="43.70527" lon="3.11415">
        <ele>621.40002441406</ele>
        <time>2023-05-28T07:07:37.000Z</time>
      </trkpt>
      <trkpt lat="43.70526" lon="3.11415">
        <ele>621.40002441406</ele>
        <time>2023-05-28T07:07:38.000Z</time>
      </trkpt>
      <trkpt lat="43.70524" lon="3.11413">
        <ele>621.40002441406</ele>
        <time>2023-05-28T07:07:41.000Z</time>
      </trkpt>
      <trkpt lat="43.70522" lon="3.11411">
        <ele>621.59997558594</ele>
        <time>2023-05-28T07:07:45.000Z</time>
      </trkpt>
      <trkpt lat="43.7052" lon="3.11409">
        <ele>621.79998779297</ele>
        <time>2023-05-28T07:07:48.000Z</time>
      </trkpt>
      <trkpt lat="43.70513" lon="3.11406">
        <ele>621.79998779297</ele>
        <time>2023-05-28T07:07:55.000Z</time>
      </trkpt>
      <trkpt lat="43.70511" lon="3.11406">
        <ele>622</ele>
        <time>2023-05-28T07:07:57.000Z</time>
      </trkpt>
      <trkpt lat="43.70509" lon="3.11404">
        <ele>622.20001220703</ele>
        <time>2023-05-28T07:08:01.000Z</time>
      </trkpt>
      <trkpt lat="43.70507" lon="3.11404">
        <ele>622.20001220703</ele>
        <time>2023-05-28T07:08:04.000Z</time>
      </trkpt>
      <trkpt lat="43.70507" lon="3.11405">
        <ele>622.40002441406</ele>
        <time>2023-05-28T07:08:07.000Z</time>
      </trkpt>
      <trkpt lat="43.70502" lon="3.11398">
        <ele>622.59997558594</ele>
        <time>2023-05-28T07:08:12.000Z</time>
      </trkpt>
      <trkpt lat="43.70498" lon="3.11394">
        <ele>622.59997558594</ele>
        <time>2023-05-28T07:08:17.000Z</time>
      </trkpt>
      <trkpt lat="43.70496" lon="3.11393">
        <ele>622.79998779297</ele>
        <time>2023-05-28T07:08:20.000Z</time>
      </trkpt>
      <trkpt lat="43.70494" lon="3.11391">
        <ele>623</ele>
        <time>2023-05-28T07:08:23.000Z</time>
      </trkpt>
      <trkpt lat="43.70494" lon="3.11389">
        <ele>623.20001220703</ele>
        <time>2023-05-28T07:08:26.000Z</time>
      </trkpt>
      <trkpt lat="43.70493" lon="3.11382">
        <ele>623.59997558594</ele>
        <time>2023-05-28T07:08:31.000Z</time>
      </trkpt>
      <trkpt lat="43.70494" lon="3.11381">
        <ele>623.59997558594</ele>
        <time>2023-05-28T07:08:32.000Z</time>
      </trkpt>
      <trkpt lat="43.70497" lon="3.11372">
        <ele>623.79998779297</ele>
        <time>2023-05-28T07:08:38.000Z</time>
      </trkpt>
      <trkpt lat="43.70501" lon="3.11365">
        <ele>624</ele>
        <time>2023-05-28T07:08:43.000Z</time>
      </trkpt>
      <trkpt lat="43.70502" lon="3.11365">
        <ele>624</ele>
        <time>2023-05-28T07:08:44.000Z</time>
      </trkpt>
      <trkpt lat="43.70503" lon="3.11361">
        <ele>624.20001220703</ele>
        <time>2023-05-28T07:08:49.000Z</time>
      </trkpt>
      <trkpt lat="43.70504" lon="3.11361">
        <ele>624.20001220703</ele>
        <time>2023-05-28T07:08:50.000Z</time>
      </trkpt>
      <trkpt lat="43.70505" lon="3.11361">
        <ele>624.20001220703</ele>
        <time>2023-05-28T07:08:53.000Z</time>
      </trkpt>
      <trkpt lat="43.70506" lon="3.11361">
        <ele>624.20001220703</ele>
        <time>2023-05-28T07:08:54.000Z</time>
      </trkpt>
      <trkpt lat="43.70505" lon="3.11359">
        <ele>624</ele>
        <time>2023-05-28T07:09:00.000Z</time>
      </trkpt>
      <trkpt lat="43.70504" lon="3.11358">
        <ele>624.20001220703</ele>
        <time>2023-05-28T07:09:07.000Z</time>
      </trkpt>
      <trkpt lat="43.70502" lon="3.11352">
        <ele>624.20001220703</ele>
        <time>2023-05-28T07:09:14.000Z</time>
      </trkpt>
      <trkpt lat="43.70502" lon="3.1135">
        <ele>624</ele>
        <time>2023-05-28T07:09:20.000Z</time>
      </trkpt>
      <trkpt lat="43.70498" lon="3.11346">
        <ele>624.40002441406</ele>
        <time>2023-05-28T07:09:30.000Z</time>
      </trkpt>
      <trkpt lat="43.70497" lon="3.11342">
        <ele>624.20001220703</ele>
        <time>2023-05-28T07:09:37.000Z</time>
      </trkpt>
      <trkpt lat="43.70495" lon="3.11338">
        <ele>624.40002441406</ele>
        <time>2023-05-28T07:09:45.000Z</time>
      </trkpt>
      <trkpt lat="43.70496" lon="3.11338">
        <ele>624.59997558594</ele>
        <time>2023-05-28T07:09:54.000Z</time>
      </trkpt>
      <trkpt lat="43.70498" lon="3.11338">
        <ele>624.40002441406</ele>
        <time>2023-05-28T07:10:03.000Z</time>
      </trkpt>
      <trkpt lat="43.70496" lon="3.11338">
        <ele>624.40002441406</ele>
        <time>2023-05-28T07:10:11.000Z</time>
      </trkpt>
      <trkpt lat="43.70495" lon="3.11337">
        <ele>624.20001220703</ele>
        <time>2023-05-28T07:10:18.000Z</time>
      </trkpt>
      <trkpt lat="43.70495" lon="3.11335">
        <ele>624.20001220703</ele>
        <time>2023-05-28T07:10:22.000Z</time>
      </trkpt>
      <trkpt lat="43.70497" lon="3.11335">
        <ele>624.20001220703</ele>
        <time>2023-05-28T07:10:30.000Z</time>
      </trkpt>
      <trkpt lat="43.70495" lon="3.11332">
        <ele>624</ele>
        <time>2023-05-28T07:10:38.000Z</time>
      </trkpt>
      <trkpt lat="43.70496" lon="3.11333">
        <ele>624</ele>
        <time>2023-05-28T07:10:46.000Z</time>
      </trkpt>
      <trkpt lat="43.70497" lon="3.11331">
        <ele>623.59997558594</ele>
        <time>2023-05-28T07:10:55.000Z</time>
      </trkpt>
      <trkpt lat="43.70497" lon="3.11333">
        <ele>624</ele>
        <time>2023-05-28T07:11:00.000Z</time>
      </trkpt>
      <trkpt lat="43.70496" lon="3.11335">
        <ele>624.20001220703</ele>
        <time>2023-05-28T07:11:09.000Z</time>
      </trkpt>
      <trkpt lat="43.70495" lon="3.11336">
        <ele>624</ele>
        <time>2023-05-28T07:11:18.000Z</time>
      </trkpt>
      <trkpt lat="43.70496" lon="3.11335">
        <ele>624</ele>
        <time>2023-05-28T07:11:27.000Z</time>
      </trkpt>
      <trkpt lat="43.70496" lon="3.11335">
        <ele>624.20001220703</ele>
        <time>2023-05-28T07:11:34.000Z</time>
      </trkpt>
      <trkpt lat="43.70494" lon="3.11334">
        <ele>624.20001220703</ele>
        <time>2023-05-28T07:11:40.000Z</time>
      </trkpt>
      <trkpt lat="43.70496" lon="3.11334">
        <ele>624.40002441406</ele>
        <time>2023-05-28T07:11:48.000Z</time>
      </trkpt>
      <trkpt lat="43.70497" lon="3.11336">
        <ele>624.40002441406</ele>
        <time>2023-05-28T07:11:57.000Z</time>
      </trkpt>
      <trkpt lat="43.70497" lon="3.11333">
        <ele>624.40002441406</ele>
        <time>2023-05-28T07:12:06.000Z</time>
      </trkpt>
      <trkpt lat="43.70497" lon="3.11333">
        <ele>624.20001220703</ele>
        <time>2023-05-28T07:12:13.000Z</time>
      </trkpt>
      <trkpt lat="43.705" lon="3.11335">
        <ele>624</ele>
        <time>2023-05-28T07:12:22.000Z</time>
      </trkpt>
      <trkpt lat="43.705" lon="3.11335">
        <ele>624.20001220703</ele>
        <time>2023-05-28T07:12:29.000Z</time>
      </trkpt>
      <trkpt lat="43.705" lon="3.11337">
        <ele>624.20001220703</ele>
        <time>2023-05-28T07:12:38.000Z</time>
      </trkpt>
      <trkpt lat="43.70499" lon="3.11333">
        <ele>624</ele>
        <time>2023-05-28T07:12:48.000Z</time>
      </trkpt>
      <trkpt lat="43.70494" lon="3.11333">
        <ele>624</ele>
        <time>2023-05-28T07:13:00.000Z</time>
      </trkpt>
      <trkpt lat="43.70495" lon="3.11335">
        <ele>624</ele>
        <time>2023-05-28T07:13:14.000Z</time>
      </trkpt>
      <trkpt lat="43.70495" lon="3.11332">
        <ele>624.20001220703</ele>
        <time>2023-05-28T07:13:24.000Z</time>
      </trkpt>
      <trkpt lat="43.70495" lon="3.11331">
        <ele>624.20001220703</ele>
        <time>2023-05-28T07:13:36.000Z</time>
      </trkpt>
      <trkpt lat="43.70496" lon="3.11335">
        <ele>624</ele>
        <time>2023-05-28T07:13:51.000Z</time>
      </trkpt>
      <trkpt lat="43.70496" lon="3.11334">
        <ele>623.79998779297</ele>
        <time>2023-05-28T07:14:07.000Z</time>
      </trkpt>
      <trkpt lat="43.70493" lon="3.11331">
        <ele>623.59997558594</ele>
        <time>2023-05-28T07:14:20.000Z</time>
      </trkpt>
      <trkpt lat="43.70492" lon="3.11332">
        <ele>623.59997558594</ele>
        <time>2023-05-28T07:14:26.000Z</time>
      </trkpt>
      <trkpt lat="43.70493" lon="3.11331">
        <ele>624</ele>
        <time>2023-05-28T07:14:34.000Z</time>
      </trkpt>
      <trkpt lat="43.70493" lon="3.11332">
        <ele>624.40002441406</ele>
        <time>2023-05-28T07:14:41.000Z</time>
      </trkpt>
      <trkpt lat="43.705" lon="3.11338">
        <ele>624.20001220703</ele>
        <time>2023-05-28T07:14:49.000Z</time>
      </trkpt>
      <trkpt lat="43.70501" lon="3.11338">
        <ele>624.59997558594</ele>
        <time>2023-05-28T07:14:59.000Z</time>
      </trkpt>
      <trkpt lat="43.70501" lon="3.11339">
        <ele>624.40002441406</ele>
        <time>2023-05-28T07:15:07.000Z</time>
      </trkpt>
      <trkpt lat="43.70501" lon="3.11339">
        <ele>624.59997558594</ele>
        <time>2023-05-28T07:15:18.000Z</time>
      </trkpt>
      <trkpt lat="43.70501" lon="3.11339">
        <ele>624.40002441406</ele>
        <time>2023-05-28T07:15:25.000Z</time>
      </trkpt>
      <trkpt lat="43.70499" lon="3.11336">
        <ele>624.40002441406</ele>
        <time>2023-05-28T07:15:34.000Z</time>
      </trkpt>
      <trkpt lat="43.70502" lon="3.11338">
        <ele>624.59997558594</ele>
        <time>2023-05-28T07:15:41.000Z</time>
      </trkpt>
      <trkpt lat="43.70501" lon="3.11341">
        <ele>624.40002441406</ele>
        <time>2023-05-28T07:15:49.000Z</time>
      </trkpt>
      <trkpt lat="43.70502" lon="3.1134">
        <ele>624.20001220703</ele>
        <time>2023-05-28T07:15:55.000Z</time>
      </trkpt>
      <trkpt lat="43.70505" lon="3.11334">
        <ele>624.40002441406</ele>
        <time>2023-05-28T07:16:03.000Z</time>
      </trkpt>
      <trkpt lat="43.70502" lon="3.11338">
        <ele>624.20001220703</ele>
        <time>2023-05-28T07:16:09.000Z</time>
      </trkpt>
      <trkpt lat="43.70504" lon="3.1134">
        <ele>623.79998779297</ele>
        <time>2023-05-28T07:16:18.000Z</time>
      </trkpt>
      <trkpt lat="43.70502" lon="3.11337">
        <ele>624.20001220703</ele>
        <time>2023-05-28T07:16:25.000Z</time>
      </trkpt>
      <trkpt lat="43.70497" lon="3.11333">
        <ele>624.20001220703</ele>
        <time>2023-05-28T07:16:36.000Z</time>
      </trkpt>
      <trkpt lat="43.70497" lon="3.11332">
        <ele>624.20001220703</ele>
        <time>2023-05-28T07:16:44.000Z</time>
      </trkpt>
      <trkpt lat="43.70496" lon="3.11329">
        <ele>624.20001220703</ele>
        <time>2023-05-28T07:16:51.000Z</time>
      </trkpt>
      <trkpt lat="43.70496" lon="3.11329">
        <ele>624.20001220703</ele>
        <time>2023-05-28T07:16:59.000Z</time>
      </trkpt>
      <trkpt lat="43.70494" lon="3.11328">
        <ele>624.40002441406</ele>
        <time>2023-05-28T07:17:08.000Z</time>
      </trkpt>
      <trkpt lat="43.70495" lon="3.11331">
        <ele>624</ele>
        <time>2023-05-28T07:17:15.000Z</time>
      </trkpt>
      <trkpt lat="43.70496" lon="3.11331">
        <ele>624</ele>
        <time>2023-05-28T07:17:22.000Z</time>
      </trkpt>
      <trkpt lat="43.70497" lon="3.11333">
        <ele>624.20001220703</ele>
        <time>2023-05-28T07:17:29.000Z</time>
      </trkpt>
      <trkpt lat="43.70497" lon="3.11333">
        <ele>624.40002441406</ele>
        <time>2023-05-28T07:17:36.000Z</time>
      </trkpt>
      <trkpt lat="43.70495" lon="3.11331">
        <ele>624.20001220703</ele>
        <time>2023-05-28T07:17:45.000Z</time>
      </trkpt>
      <trkpt lat="43.70495" lon="3.1133">
        <ele>624</ele>
        <time>2023-05-28T07:17:52.000Z</time>
      </trkpt>
      <trkpt lat="43.70497" lon="3.11328">
        <ele>624</ele>
        <time>2023-05-28T07:17:56.000Z</time>
      </trkpt>
      <trkpt lat="43.70501" lon="3.11323">
        <ele>624.40002441406</ele>
        <time>2023-05-28T07:18:03.000Z</time>
      </trkpt>
      <trkpt lat="43.70504" lon="3.1132">
        <ele>624.79998779297</ele>
        <time>2023-05-28T07:18:08.000Z</time>
      </trkpt>
      <trkpt lat="43.70506" lon="3.11319">
        <ele>625</ele>
        <time>2023-05-28T07:18:10.000Z</time>
      </trkpt>
      <trkpt lat="43.70513" lon="3.11313">
        <ele>625</ele>
        <time>2023-05-28T07:18:17.000Z</time>
      </trkpt>
      <trkpt lat="43.70516" lon="3.1131">
        <ele>625</ele>
        <time>2023-05-28T07:18:21.000Z</time>
      </trkpt>
      <trkpt lat="43.70518" lon="3.11309">
        <ele>625.20001220703</ele>
        <time>2023-05-28T07:18:23.000Z</time>
      </trkpt>
      <trkpt lat="43.70519" lon="3.11308">
        <ele>625.20001220703</ele>
        <time>2023-05-28T07:18:24.000Z</time>
      </trkpt>
      <trkpt lat="43.70526" lon="3.11304">
        <ele>625.59997558594</ele>
        <time>2023-05-28T07:18:30.000Z</time>
      </trkpt>
      <trkpt lat="43.7053" lon="3.11299">
        <ele>625.59997558594</ele>
        <time>2023-05-28T07:18:34.000Z</time>
      </trkpt>
      <trkpt lat="43.7053" lon="3.11299">
        <ele>625.79998779297</ele>
        <time>2023-05-28T07:18:35.000Z</time>
      </trkpt>
      <trkpt lat="43.70534" lon="3.11296">
        <ele>626</ele>
        <time>2023-05-28T07:18:38.000Z</time>
      </trkpt>
      <trkpt lat="43.70535" lon="3.11295">
        <ele>626</ele>
        <time>2023-05-28T07:18:39.000Z</time>
      </trkpt>
      <trkpt lat="43.70536" lon="3.11293">
        <ele>626</ele>
        <time>2023-05-28T07:18:41.000Z</time>
      </trkpt>
      <trkpt lat="43.70542" lon="3.11287">
        <ele>626.20001220703</ele>
        <time>2023-05-28T07:18:47.000Z</time>
      </trkpt>
      <trkpt lat="43.70545" lon="3.11284">
        <ele>626.40002441406</ele>
        <time>2023-05-28T07:18:50.000Z</time>
      </trkpt>
      <trkpt lat="43.7055" lon="3.11278">
        <ele>626.79998779297</ele>
        <time>2023-05-28T07:18:56.000Z</time>
      </trkpt>
      <trkpt lat="43.70552" lon="3.11277">
        <ele>626.79998779297</ele>
        <time>2023-05-28T07:18:57.000Z</time>
      </trkpt>
      <trkpt lat="43.70558" lon="3.11273">
        <ele>627.20001220703</ele>
        <time>2023-05-28T07:19:02.000Z</time>
      </trkpt>
      <trkpt lat="43.70563" lon="3.11265">
        <ele>627.59997558594</ele>
        <time>2023-05-28T07:19:09.000Z</time>
      </trkpt>
      <trkpt lat="43.70567" lon="3.11257">
        <ele>628</ele>
        <time>2023-05-28T07:19:16.000Z</time>
      </trkpt>
      <trkpt lat="43.70568" lon="3.11256">
        <ele>628</ele>
        <time>2023-05-28T07:19:17.000Z</time>
      </trkpt>
      <trkpt lat="43.70569" lon="3.11255">
        <ele>628.20001220703</ele>
        <time>2023-05-28T07:19:18.000Z</time>
      </trkpt>
      <trkpt lat="43.7057" lon="3.11251">
        <ele>628.20001220703</ele>
        <time>2023-05-28T07:19:21.000Z</time>
      </trkpt>
      <trkpt lat="43.70572" lon="3.11247">
        <ele>628.40002441406</ele>
        <time>2023-05-28T07:19:24.000Z</time>
      </trkpt>
      <trkpt lat="43.70573" lon="3.11243">
        <ele>628.40002441406</ele>
        <time>2023-05-28T07:19:27.000Z</time>
      </trkpt>
      <trkpt lat="43.70573" lon="3.11239">
        <ele>628.59997558594</ele>
        <time>2023-05-28T07:19:30.000Z</time>
      </trkpt>
      <trkpt lat="43.70575" lon="3.11236">
        <ele>628.59997558594</ele>
        <time>2023-05-28T07:19:32.000Z</time>
      </trkpt>
      <trkpt lat="43.70577" lon="3.11236">
        <ele>628.59997558594</ele>
        <time>2023-05-28T07:19:34.000Z</time>
      </trkpt>
      <trkpt lat="43.70577" lon="3.11233">
        <ele>628.79998779297</ele>
        <time>2023-05-28T07:19:35.000Z</time>
      </trkpt>
      <trkpt lat="43.70578" lon="3.11229">
        <ele>629.20001220703</ele>
        <time>2023-05-28T07:19:39.000Z</time>
      </trkpt>
      <trkpt lat="43.70578" lon="3.11227">
        <ele>629.20001220703</ele>
        <time>2023-05-28T07:19:40.000Z</time>
      </trkpt>
      <trkpt lat="43.7058" lon="3.1122">
        <ele>629.79998779297</ele>
        <time>2023-05-28T07:19:47.000Z</time>
      </trkpt>
      <trkpt lat="43.7058" lon="3.11215">
        <ele>630</ele>
        <time>2023-05-28T07:19:51.000Z</time>
      </trkpt>
      <trkpt lat="43.70581" lon="3.11213">
        <ele>630.20001220703</ele>
        <time>2023-05-28T07:19:53.000Z</time>
      </trkpt>
      <trkpt lat="43.7058" lon="3.11211">
        <ele>630.40002441406</ele>
        <time>2023-05-28T07:19:54.000Z</time>
      </trkpt>
      <trkpt lat="43.70582" lon="3.11207">
        <ele>630.59997558594</ele>
        <time>2023-05-28T07:19:58.000Z</time>
      </trkpt>
      <trkpt lat="43.70583" lon="3.11201">
        <ele>630.40002441406</ele>
        <time>2023-05-28T07:20:03.000Z</time>
      </trkpt>
      <trkpt lat="43.70584" lon="3.11195">
        <ele>631.20001220703</ele>
        <time>2023-05-28T07:20:08.000Z</time>
      </trkpt>
      <trkpt lat="43.70584" lon="3.11194">
        <ele>631.40002441406</ele>
        <time>2023-05-28T07:20:09.000Z</time>
      </trkpt>
      <trkpt lat="43.70585" lon="3.11186">
        <ele>631.20001220703</ele>
        <time>2023-05-28T07:20:15.000Z</time>
      </trkpt>
      <trkpt lat="43.70585" lon="3.11184">
        <ele>631.40002441406</ele>
        <time>2023-05-28T07:20:17.000Z</time>
      </trkpt>
      <trkpt lat="43.70586" lon="3.11181">
        <ele>631.59997558594</ele>
        <time>2023-05-28T07:20:20.000Z</time>
      </trkpt>
      <trkpt lat="43.70586" lon="3.11178">
        <ele>631.59997558594</ele>
        <time>2023-05-28T07:20:22.000Z</time>
      </trkpt>
      <trkpt lat="43.70587" lon="3.11173">
        <ele>631.79998779297</ele>
        <time>2023-05-28T07:20:26.000Z</time>
      </trkpt>
      <trkpt lat="43.70587" lon="3.11171">
        <ele>632</ele>
        <time>2023-05-28T07:20:28.000Z</time>
      </trkpt>
      <trkpt lat="43.70588" lon="3.11169">
        <ele>632</ele>
        <time>2023-05-28T07:20:30.000Z</time>
      </trkpt>
      <trkpt lat="43.70588" lon="3.11165">
        <ele>632.20001220703</ele>
        <time>2023-05-28T07:20:33.000Z</time>
      </trkpt>
      <trkpt lat="43.70588" lon="3.11164">
        <ele>632.20001220703</ele>
        <time>2023-05-28T07:20:34.000Z</time>
      </trkpt>
      <trkpt lat="43.70588" lon="3.11161">
        <ele>632.40002441406</ele>
        <time>2023-05-28T07:20:36.000Z</time>
      </trkpt>
      <trkpt lat="43.70589" lon="3.11159">
        <ele>632.59997558594</ele>
        <time>2023-05-28T07:20:38.000Z</time>
      </trkpt>
      <trkpt lat="43.7059" lon="3.11154">
        <ele>633</ele>
        <time>2023-05-28T07:20:43.000Z</time>
      </trkpt>
      <trkpt lat="43.7059" lon="3.1115">
        <ele>633</ele>
        <time>2023-05-28T07:20:46.000Z</time>
      </trkpt>
      <trkpt lat="43.70589" lon="3.11143">
        <ele>633.20001220703</ele>
        <time>2023-05-28T07:20:51.000Z</time>
      </trkpt>
      <trkpt lat="43.7059" lon="3.11142">
        <ele>633.20001220703</ele>
        <time>2023-05-28T07:20:52.000Z</time>
      </trkpt>
      <trkpt lat="43.70589" lon="3.11133">
        <ele>633.59997558594</ele>
        <time>2023-05-28T07:20:59.000Z</time>
      </trkpt>
      <trkpt lat="43.70592" lon="3.11128">
        <ele>633.79998779297</ele>
        <time>2023-05-28T07:21:04.000Z</time>
      </trkpt>
      <trkpt lat="43.70593" lon="3.11125">
        <ele>634</ele>
        <time>2023-05-28T07:21:06.000Z</time>
      </trkpt>
      <trkpt lat="43.70596" lon="3.11116">
        <ele>634.20001220703</ele>
        <time>2023-05-28T07:21:13.000Z</time>
      </trkpt>
      <trkpt lat="43.70599" lon="3.11111">
        <ele>634.40002441406</ele>
        <time>2023-05-28T07:21:17.000Z</time>
      </trkpt>
      <trkpt lat="43.706" lon="3.11105">
        <ele>634.59997558594</ele>
        <time>2023-05-28T07:21:22.000Z</time>
      </trkpt>
      <trkpt lat="43.70602" lon="3.11101">
        <ele>634.79998779297</ele>
        <time>2023-05-28T07:21:26.000Z</time>
      </trkpt>
      <trkpt lat="43.70605" lon="3.11085">
        <ele>635.20001220703</ele>
        <time>2023-05-28T07:21:36.000Z</time>
      </trkpt>
      <trkpt lat="43.70606" lon="3.11084">
        <ele>635.20001220703</ele>
        <time>2023-05-28T07:21:38.000Z</time>
      </trkpt>
      <trkpt lat="43.70607" lon="3.11078">
        <ele>635.59997558594</ele>
        <time>2023-05-28T07:21:41.000Z</time>
      </trkpt>
      <trkpt lat="43.70608" lon="3.11075">
        <ele>635.79998779297</ele>
        <time>2023-05-28T07:21:44.000Z</time>
      </trkpt>
      <trkpt lat="43.70608" lon="3.11074">
        <ele>635.79998779297</ele>
        <time>2023-05-28T07:21:45.000Z</time>
      </trkpt>
      <trkpt lat="43.7061" lon="3.11066">
        <ele>636</ele>
        <time>2023-05-28T07:21:50.000Z</time>
      </trkpt>
      <trkpt lat="43.70612" lon="3.11062">
        <ele>636.20001220703</ele>
        <time>2023-05-28T07:21:53.000Z</time>
      </trkpt>
      <trkpt lat="43.70612" lon="3.1106">
        <ele>636.40002441406</ele>
        <time>2023-05-28T07:21:54.000Z</time>
      </trkpt>
      <trkpt lat="43.70613" lon="3.11057">
        <ele>636.59997558594</ele>
        <time>2023-05-28T07:21:57.000Z</time>
      </trkpt>
      <trkpt lat="43.70615" lon="3.11054">
        <ele>636.59997558594</ele>
        <time>2023-05-28T07:21:59.000Z</time>
      </trkpt>
      <trkpt lat="43.70615" lon="3.11052">
        <ele>636.79998779297</ele>
        <time>2023-05-28T07:22:01.000Z</time>
      </trkpt>
      <trkpt lat="43.70618" lon="3.11048">
        <ele>636.79998779297</ele>
        <time>2023-05-28T07:22:04.000Z</time>
      </trkpt>
      <trkpt lat="43.70618" lon="3.11047">
        <ele>636.79998779297</ele>
        <time>2023-05-28T07:22:05.000Z</time>
      </trkpt>
      <trkpt lat="43.70619" lon="3.11045">
        <ele>637</ele>
        <time>2023-05-28T07:22:06.000Z</time>
      </trkpt>
      <trkpt lat="43.70621" lon="3.11042">
        <ele>637</ele>
        <time>2023-05-28T07:22:09.000Z</time>
      </trkpt>
      <trkpt lat="43.70624" lon="3.11039">
        <ele>637.20001220703</ele>
        <time>2023-05-28T07:22:11.000Z</time>
      </trkpt>
      <trkpt lat="43.70629" lon="3.11033">
        <ele>637.20001220703</ele>
        <time>2023-05-28T07:22:17.000Z</time>
      </trkpt>
      <trkpt lat="43.7063" lon="3.11032">
        <ele>637.20001220703</ele>
        <time>2023-05-28T07:22:18.000Z</time>
      </trkpt>
      <trkpt lat="43.70631" lon="3.11028">
        <ele>637.40002441406</ele>
        <time>2023-05-28T07:22:21.000Z</time>
      </trkpt>
      <trkpt lat="43.70632" lon="3.11026">
        <ele>637.59997558594</ele>
        <time>2023-05-28T07:22:23.000Z</time>
      </trkpt>
      <trkpt lat="43.70635" lon="3.11021">
        <ele>637.79998779297</ele>
        <time>2023-05-28T07:22:27.000Z</time>
      </trkpt>
      <trkpt lat="43.70638" lon="3.11019">
        <ele>637.79998779297</ele>
        <time>2023-05-28T07:22:30.000Z</time>
      </trkpt>
      <trkpt lat="43.70646" lon="3.11012">
        <ele>638.40002441406</ele>
        <time>2023-05-28T07:22:38.000Z</time>
      </trkpt>
      <trkpt lat="43.70647" lon="3.11011">
        <ele>638.40002441406</ele>
        <time>2023-05-28T07:22:39.000Z</time>
      </trkpt>
      <trkpt lat="43.7065" lon="3.11008">
        <ele>638.40002441406</ele>
        <time>2023-05-28T07:22:42.000Z</time>
      </trkpt>
      <trkpt lat="43.70654" lon="3.11005">
        <ele>638.59997558594</ele>
        <time>2023-05-28T07:22:46.000Z</time>
      </trkpt>
      <trkpt lat="43.70661" lon="3.10996">
        <ele>639</ele>
        <time>2023-05-28T07:22:56.000Z</time>
      </trkpt>
      <trkpt lat="43.70664" lon="3.10992">
        <ele>639</ele>
        <time>2023-05-28T07:22:59.000Z</time>
      </trkpt>
      <trkpt lat="43.70666" lon="3.1099">
        <ele>639.20001220703</ele>
        <time>2023-05-28T07:23:02.000Z</time>
      </trkpt>
      <trkpt lat="43.70666" lon="3.10988">
        <ele>639.20001220703</ele>
        <time>2023-05-28T07:23:03.000Z</time>
      </trkpt>
      <trkpt lat="43.70668" lon="3.10982">
        <ele>639.40002441406</ele>
        <time>2023-05-28T07:23:08.000Z</time>
      </trkpt>
      <trkpt lat="43.70669" lon="3.10981">
        <ele>639.59997558594</ele>
        <time>2023-05-28T07:23:09.000Z</time>
      </trkpt>
      <trkpt lat="43.70669" lon="3.1098">
        <ele>639.59997558594</ele>
        <time>2023-05-28T07:23:10.000Z</time>
      </trkpt>
      <trkpt lat="43.7067" lon="3.10977">
        <ele>639.79998779297</ele>
        <time>2023-05-28T07:23:13.000Z</time>
      </trkpt>
      <trkpt lat="43.70673" lon="3.10971">
        <ele>640</ele>
        <time>2023-05-28T07:23:18.000Z</time>
      </trkpt>
      <trkpt lat="43.70673" lon="3.10968">
        <ele>640.20001220703</ele>
        <time>2023-05-28T07:23:21.000Z</time>
      </trkpt>
      <trkpt lat="43.70672" lon="3.10966">
        <ele>640.40002441406</ele>
        <time>2023-05-28T07:23:24.000Z</time>
      </trkpt>
      <trkpt lat="43.70671" lon="3.10965">
        <ele>640.59997558594</ele>
        <time>2023-05-28T07:23:26.000Z</time>
      </trkpt>
      <trkpt lat="43.70671" lon="3.10964">
        <ele>640.79998779297</ele>
        <time>2023-05-28T07:23:30.000Z</time>
      </trkpt>
      <trkpt lat="43.70672" lon="3.1096">
        <ele>640.79998779297</ele>
        <time>2023-05-28T07:23:35.000Z</time>
      </trkpt>
      <trkpt lat="43.70678" lon="3.10957">
        <ele>641</ele>
        <time>2023-05-28T07:23:41.000Z</time>
      </trkpt>
      <trkpt lat="43.70688" lon="3.10956">
        <ele>641.40002441406</ele>
        <time>2023-05-28T07:23:49.000Z</time>
      </trkpt>
      <trkpt lat="43.70697" lon="3.10955">
        <ele>641.59997558594</ele>
        <time>2023-05-28T07:23:56.000Z</time>
      </trkpt>
      <trkpt lat="43.70699" lon="3.10955">
        <ele>641.59997558594</ele>
        <time>2023-05-28T07:23:57.000Z</time>
      </trkpt>
      <trkpt lat="43.70711" lon="3.10954">
        <ele>641.79998779297</ele>
        <time>2023-05-28T07:24:06.000Z</time>
      </trkpt>
      <trkpt lat="43.70718" lon="3.10954">
        <ele>642</ele>
        <time>2023-05-28T07:24:11.000Z</time>
      </trkpt>
      <trkpt lat="43.7072" lon="3.10954">
        <ele>642</ele>
        <time>2023-05-28T07:24:12.000Z</time>
      </trkpt>
      <trkpt lat="43.70727" lon="3.10954">
        <ele>642.20001220703</ele>
        <time>2023-05-28T07:24:18.000Z</time>
      </trkpt>
      <trkpt lat="43.70729" lon="3.10953">
        <ele>642.40002441406</ele>
        <time>2023-05-28T07:24:20.000Z</time>
      </trkpt>
      <trkpt lat="43.70736" lon="3.10951">
        <ele>642.59997558594</ele>
        <time>2023-05-28T07:24:25.000Z</time>
      </trkpt>
      <trkpt lat="43.70738" lon="3.1095">
        <ele>642.59997558594</ele>
        <time>2023-05-28T07:24:27.000Z</time>
      </trkpt>
      <trkpt lat="43.70744" lon="3.10947">
        <ele>643.20001220703</ele>
        <time>2023-05-28T07:24:34.000Z</time>
      </trkpt>
      <trkpt lat="43.70748" lon="3.10945">
        <ele>643.40002441406</ele>
        <time>2023-05-28T07:24:38.000Z</time>
      </trkpt>
      <trkpt lat="43.70754" lon="3.10941">
        <ele>643.59997558594</ele>
        <time>2023-05-28T07:24:45.000Z</time>
      </trkpt>
      <trkpt lat="43.70755" lon="3.10941">
        <ele>643.59997558594</ele>
        <time>2023-05-28T07:24:46.000Z</time>
      </trkpt>
      <trkpt lat="43.70767" lon="3.10935">
        <ele>644.40002441406</ele>
        <time>2023-05-28T07:24:58.000Z</time>
      </trkpt>
      <trkpt lat="43.70775" lon="3.10932">
        <ele>644.59997558594</ele>
        <time>2023-05-28T07:25:05.000Z</time>
      </trkpt>
      <trkpt lat="43.70779" lon="3.1093">
        <ele>644.79998779297</ele>
        <time>2023-05-28T07:25:09.000Z</time>
      </trkpt>
      <trkpt lat="43.70788" lon="3.10926">
        <ele>645.40002441406</ele>
        <time>2023-05-28T07:25:19.000Z</time>
      </trkpt>
      <trkpt lat="43.70792" lon="3.10925">
        <ele>645.59997558594</ele>
        <time>2023-05-28T07:25:23.000Z</time>
      </trkpt>
      <trkpt lat="43.70799" lon="3.10922">
        <ele>646</ele>
        <time>2023-05-28T07:25:30.000Z</time>
      </trkpt>
      <trkpt lat="43.70807" lon="3.10918">
        <ele>646.40002441406</ele>
        <time>2023-05-28T07:25:39.000Z</time>
      </trkpt>
      <trkpt lat="43.7081" lon="3.10916">
        <ele>646.79998779297</ele>
        <time>2023-05-28T07:25:42.000Z</time>
      </trkpt>
      <trkpt lat="43.70811" lon="3.10916">
        <ele>646.79998779297</ele>
        <time>2023-05-28T07:25:43.000Z</time>
      </trkpt>
      <trkpt lat="43.70811" lon="3.10916">
        <ele>646.79998779297</ele>
        <time>2023-05-28T07:25:46.000Z</time>
      </trkpt>
      <trkpt lat="43.7081" lon="3.10913">
        <ele>647.20001220703</ele>
        <time>2023-05-28T07:25:56.000Z</time>
      </trkpt>
      <trkpt lat="43.70813" lon="3.10904">
        <ele>647.20001220703</ele>
        <time>2023-05-28T07:26:03.000Z</time>
      </trkpt>
      <trkpt lat="43.70815" lon="3.10892">
        <ele>647.59997558594</ele>
        <time>2023-05-28T07:26:12.000Z</time>
      </trkpt>
      <trkpt lat="43.70816" lon="3.1089">
        <ele>647.79998779297</ele>
        <time>2023-05-28T07:26:14.000Z</time>
      </trkpt>
      <trkpt lat="43.70816" lon="3.10889">
        <ele>647.79998779297</ele>
        <time>2023-05-28T07:26:15.000Z</time>
      </trkpt>
      <trkpt lat="43.70816" lon="3.10883">
        <ele>648</ele>
        <time>2023-05-28T07:26:19.000Z</time>
      </trkpt>
      <trkpt lat="43.70814" lon="3.10872">
        <ele>648.40002441406</ele>
        <time>2023-05-28T07:26:27.000Z</time>
      </trkpt>
      <trkpt lat="43.70813" lon="3.10862">
        <ele>648.79998779297</ele>
        <time>2023-05-28T07:26:34.000Z</time>
      </trkpt>
      <trkpt lat="43.70813" lon="3.1086">
        <ele>649</ele>
        <time>2023-05-28T07:26:36.000Z</time>
      </trkpt>
      <trkpt lat="43.7081" lon="3.1085">
        <ele>649.59997558594</ele>
        <time>2023-05-28T07:26:44.000Z</time>
      </trkpt>
      <trkpt lat="43.70809" lon="3.10844">
        <ele>650</ele>
        <time>2023-05-28T07:26:49.000Z</time>
      </trkpt>
      <trkpt lat="43.70808" lon="3.1084">
        <ele>650.20001220703</ele>
        <time>2023-05-28T07:26:52.000Z</time>
      </trkpt>
      <trkpt lat="43.70808" lon="3.10839">
        <ele>650.20001220703</ele>
        <time>2023-05-28T07:26:53.000Z</time>
      </trkpt>
      <trkpt lat="43.70804" lon="3.10829">
        <ele>650.79998779297</ele>
        <time>2023-05-28T07:27:02.000Z</time>
      </trkpt>
      <trkpt lat="43.70802" lon="3.10826">
        <ele>651</ele>
        <time>2023-05-28T07:27:05.000Z</time>
      </trkpt>
      <trkpt lat="43.708" lon="3.10822">
        <ele>651.20001220703</ele>
        <time>2023-05-28T07:27:09.000Z</time>
      </trkpt>
      <trkpt lat="43.70799" lon="3.10819">
        <ele>651.59997558594</ele>
        <time>2023-05-28T07:27:12.000Z</time>
      </trkpt>
      <trkpt lat="43.70798" lon="3.10816">
        <ele>651.59997558594</ele>
        <time>2023-05-28T07:27:15.000Z</time>
      </trkpt>
      <trkpt lat="43.70797" lon="3.10813">
        <ele>651.59997558594</ele>
        <time>2023-05-28T07:27:17.000Z</time>
      </trkpt>
      <trkpt lat="43.70792" lon="3.10807">
        <ele>651.59997558594</ele>
        <time>2023-05-28T07:27:23.000Z</time>
      </trkpt>
      <trkpt lat="43.70788" lon="3.10802">
        <ele>652</ele>
        <time>2023-05-28T07:27:29.000Z</time>
      </trkpt>
      <trkpt lat="43.70786" lon="3.10799">
        <ele>652.20001220703</ele>
        <time>2023-05-28T07:27:32.000Z</time>
      </trkpt>
      <trkpt lat="43.70785" lon="3.10797">
        <ele>652.20001220703</ele>
        <time>2023-05-28T07:27:34.000Z</time>
      </trkpt>
      <trkpt lat="43.70781" lon="3.10793">
        <ele>652.59997558594</ele>
        <time>2023-05-28T07:27:39.000Z</time>
      </trkpt>
      <trkpt lat="43.70774" lon="3.10786">
        <ele>653</ele>
        <time>2023-05-28T07:27:48.000Z</time>
      </trkpt>
      <trkpt lat="43.70774" lon="3.10785">
        <ele>653</ele>
        <time>2023-05-28T07:27:49.000Z</time>
      </trkpt>
      <trkpt lat="43.70768" lon="3.10781">
        <ele>653.59997558594</ele>
        <time>2023-05-28T07:27:57.000Z</time>
      </trkpt>
      <trkpt lat="43.70764" lon="3.10776">
        <ele>654</ele>
        <time>2023-05-28T07:28:05.000Z</time>
      </trkpt>
      <trkpt lat="43.70761" lon="3.10771">
        <ele>654.79998779297</ele>
        <time>2023-05-28T07:28:12.000Z</time>
      </trkpt>
      <trkpt lat="43.7076" lon="3.10769">
        <ele>655.20001220703</ele>
        <time>2023-05-28T07:28:15.000Z</time>
      </trkpt>
      <trkpt lat="43.70759" lon="3.10767">
        <ele>655.40002441406</ele>
        <time>2023-05-28T07:28:18.000Z</time>
      </trkpt>
      <trkpt lat="43.70758" lon="3.10763">
        <ele>655.59997558594</ele>
        <time>2023-05-28T07:28:22.000Z</time>
      </trkpt>
      <trkpt lat="43.70757" lon="3.10758">
        <ele>655.40002441406</ele>
        <time>2023-05-28T07:28:27.000Z</time>
      </trkpt>
      <trkpt lat="43.70755" lon="3.10755">
        <ele>656.20001220703</ele>
        <time>2023-05-28T07:28:31.000Z</time>
      </trkpt>
      <trkpt lat="43.70755" lon="3.10753">
        <ele>656.59997558594</ele>
        <time>2023-05-28T07:28:34.000Z</time>
      </trkpt>
      <trkpt lat="43.70753" lon="3.10749">
        <ele>656.79998779297</ele>
        <time>2023-05-28T07:28:39.000Z</time>
      </trkpt>
      <trkpt lat="43.70753" lon="3.10743">
        <ele>657.20001220703</ele>
        <time>2023-05-28T07:28:44.000Z</time>
      </trkpt>
      <trkpt lat="43.70753" lon="3.10739">
        <ele>657.20001220703</ele>
        <time>2023-05-28T07:28:47.000Z</time>
      </trkpt>
      <trkpt lat="43.70752" lon="3.10738">
        <ele>657.40002441406</ele>
        <time>2023-05-28T07:28:48.000Z</time>
      </trkpt>
      <trkpt lat="43.70752" lon="3.10737">
        <ele>657.59997558594</ele>
        <time>2023-05-28T07:28:49.000Z</time>
      </trkpt>
      <trkpt lat="43.70751" lon="3.10734">
        <ele>657.59997558594</ele>
        <time>2023-05-28T07:28:52.000Z</time>
      </trkpt>
      <trkpt lat="43.70751" lon="3.1073">
        <ele>657.79998779297</ele>
        <time>2023-05-28T07:28:55.000Z</time>
      </trkpt>
      <trkpt lat="43.7075" lon="3.10723">
        <ele>658</ele>
        <time>2023-05-28T07:29:01.000Z</time>
      </trkpt>
      <trkpt lat="43.70749" lon="3.10721">
        <ele>658.20001220703</ele>
        <time>2023-05-28T07:29:02.000Z</time>
      </trkpt>
      <trkpt lat="43.7075" lon="3.1072">
        <ele>658.20001220703</ele>
        <time>2023-05-28T07:29:03.000Z</time>
      </trkpt>
      <trkpt lat="43.7075" lon="3.10717">
        <ele>658.40002441406</ele>
        <time>2023-05-28T07:29:06.000Z</time>
      </trkpt>
      <trkpt lat="43.7075" lon="3.10716">
        <ele>658.59997558594</ele>
        <time>2023-05-28T07:29:08.000Z</time>
      </trkpt>
      <trkpt lat="43.70749" lon="3.10714">
        <ele>658.59997558594</ele>
        <time>2023-05-28T07:29:09.000Z</time>
      </trkpt>
      <trkpt lat="43.70749" lon="3.10711">
        <ele>659</ele>
        <time>2023-05-28T07:29:12.000Z</time>
      </trkpt>
      <trkpt lat="43.70748" lon="3.10706">
        <ele>659.40002441406</ele>
        <time>2023-05-28T07:29:18.000Z</time>
      </trkpt>
      <trkpt lat="43.70748" lon="3.10699">
        <ele>660</ele>
        <time>2023-05-28T07:29:25.000Z</time>
      </trkpt>
      <trkpt lat="43.70749" lon="3.10693">
        <ele>660.40002441406</ele>
        <time>2023-05-28T07:29:30.000Z</time>
      </trkpt>
      <trkpt lat="43.70749" lon="3.10692">
        <ele>660.40002441406</ele>
        <time>2023-05-28T07:29:31.000Z</time>
      </trkpt>
      <trkpt lat="43.70751" lon="3.10685">
        <ele>661.20001220703</ele>
        <time>2023-05-28T07:29:37.000Z</time>
      </trkpt>
      <trkpt lat="43.70751" lon="3.10683">
        <ele>661.59997558594</ele>
        <time>2023-05-28T07:29:39.000Z</time>
      </trkpt>
      <trkpt lat="43.70751" lon="3.10682">
        <ele>661.59997558594</ele>
        <time>2023-05-28T07:29:40.000Z</time>
      </trkpt>
      <trkpt lat="43.70751" lon="3.10678">
        <ele>662</ele>
        <time>2023-05-28T07:29:44.000Z</time>
      </trkpt>
      <trkpt lat="43.70751" lon="3.10671">
        <ele>662.40002441406</ele>
        <time>2023-05-28T07:29:49.000Z</time>
      </trkpt>
      <trkpt lat="43.70751" lon="3.1067">
        <ele>662.40002441406</ele>
        <time>2023-05-28T07:29:50.000Z</time>
      </trkpt>
      <trkpt lat="43.70751" lon="3.1067">
        <ele>662.59997558594</ele>
        <time>2023-05-28T07:29:51.000Z</time>
      </trkpt>
      <trkpt lat="43.70752" lon="3.10666">
        <ele>663</ele>
        <time>2023-05-28T07:29:54.000Z</time>
      </trkpt>
      <trkpt lat="43.70752" lon="3.10665">
        <ele>663</ele>
        <time>2023-05-28T07:29:55.000Z</time>
      </trkpt>
      <trkpt lat="43.70753" lon="3.10662">
        <ele>663.40002441406</ele>
        <time>2023-05-28T07:29:58.000Z</time>
      </trkpt>
      <trkpt lat="43.70753" lon="3.10661">
        <ele>663.59997558594</ele>
        <time>2023-05-28T07:29:59.000Z</time>
      </trkpt>
      <trkpt lat="43.70753" lon="3.10658">
        <ele>663.79998779297</ele>
        <time>2023-05-28T07:30:01.000Z</time>
      </trkpt>
      <trkpt lat="43.70753" lon="3.10655">
        <ele>664</ele>
        <time>2023-05-28T07:30:04.000Z</time>
      </trkpt>
      <trkpt lat="43.70753" lon="3.10649">
        <ele>664.59997558594</ele>
        <time>2023-05-28T07:30:08.000Z</time>
      </trkpt>
      <trkpt lat="43.7075" lon="3.10642">
        <ele>665</ele>
        <time>2023-05-28T07:30:13.000Z</time>
      </trkpt>
      <trkpt lat="43.70747" lon="3.10631">
        <ele>665.40002441406</ele>
        <time>2023-05-28T07:30:21.000Z</time>
      </trkpt>
      <trkpt lat="43.70746" lon="3.10628">
        <ele>665.59997558594</ele>
        <time>2023-05-28T07:30:24.000Z</time>
      </trkpt>
      <trkpt lat="43.70743" lon="3.10624">
        <ele>665.79998779297</ele>
        <time>2023-05-28T07:30:29.000Z</time>
      </trkpt>
      <trkpt lat="43.70742" lon="3.10624">
        <ele>666.20001220703</ele>
        <time>2023-05-28T07:30:36.000Z</time>
      </trkpt>
      <trkpt lat="43.70739" lon="3.10627">
        <ele>666</ele>
        <time>2023-05-28T07:30:44.000Z</time>
      </trkpt>
      <trkpt lat="43.70738" lon="3.10628">
        <ele>666.20001220703</ele>
        <time>2023-05-28T07:30:49.000Z</time>
      </trkpt>
      <trkpt lat="43.70765" lon="3.10573">
        <ele>663.59997558594</ele>
        <time>2023-05-28T07:41:02.000Z</time>
      </trkpt>
      <trkpt lat="43.70769" lon="3.10567">
        <ele>663.40002441406</ele>
        <time>2023-05-28T07:41:08.000Z</time>
      </trkpt>
      <trkpt lat="43.7077" lon="3.10566">
        <ele>663.40002441406</ele>
        <time>2023-05-28T07:41:09.000Z</time>
      </trkpt>
      <trkpt lat="43.70773" lon="3.1056">
        <ele>662.79998779297</ele>
        <time>2023-05-28T07:41:15.000Z</time>
      </trkpt>
      <trkpt lat="43.70774" lon="3.1056">
        <ele>662.59997558594</ele>
        <time>2023-05-28T07:41:18.000Z</time>
      </trkpt>
      <trkpt lat="43.70774" lon="3.1056">
        <ele>662.40002441406</ele>
        <time>2023-05-28T07:41:20.000Z</time>
      </trkpt>
      <trkpt lat="43.70776" lon="3.10556">
        <ele>662</ele>
        <time>2023-05-28T07:41:27.000Z</time>
      </trkpt>
      <trkpt lat="43.70781" lon="3.1055">
        <ele>662</ele>
        <time>2023-05-28T07:41:33.000Z</time>
      </trkpt>
      <trkpt lat="43.70785" lon="3.10544">
        <ele>661.40002441406</ele>
        <time>2023-05-28T07:41:39.000Z</time>
      </trkpt>
      <trkpt lat="43.70787" lon="3.10542">
        <ele>661.20001220703</ele>
        <time>2023-05-28T07:41:41.000Z</time>
      </trkpt>
      <trkpt lat="43.70793" lon="3.10531">
        <ele>660.59997558594</ele>
        <time>2023-05-28T07:41:50.000Z</time>
      </trkpt>
      <trkpt lat="43.70795" lon="3.10528">
        <ele>660.40002441406</ele>
        <time>2023-05-28T07:41:53.000Z</time>
      </trkpt>
      <trkpt lat="43.70799" lon="3.10523">
        <ele>660.20001220703</ele>
        <time>2023-05-28T07:41:58.000Z</time>
      </trkpt>
      <trkpt lat="43.708" lon="3.10521">
        <ele>660.20001220703</ele>
        <time>2023-05-28T07:41:59.000Z</time>
      </trkpt>
      <trkpt lat="43.70804" lon="3.10515">
        <ele>659.79998779297</ele>
        <time>2023-05-28T07:42:04.000Z</time>
      </trkpt>
      <trkpt lat="43.70808" lon="3.10509">
        <ele>659.40002441406</ele>
        <time>2023-05-28T07:42:09.000Z</time>
      </trkpt>
      <trkpt lat="43.70809" lon="3.10508">
        <ele>659.40002441406</ele>
        <time>2023-05-28T07:42:10.000Z</time>
      </trkpt>
      <trkpt lat="43.70809" lon="3.10507">
        <ele>659.20001220703</ele>
        <time>2023-05-28T07:42:11.000Z</time>
      </trkpt>
      <trkpt lat="43.70816" lon="3.10503">
        <ele>658.59997558594</ele>
        <time>2023-05-28T07:42:18.000Z</time>
      </trkpt>
      <trkpt lat="43.7082" lon="3.105">
        <ele>658.20001220703</ele>
        <time>2023-05-28T07:42:22.000Z</time>
      </trkpt>
      <trkpt lat="43.70822" lon="3.10499">
        <ele>658</ele>
        <time>2023-05-28T07:42:24.000Z</time>
      </trkpt>
      <trkpt lat="43.70829" lon="3.10495">
        <ele>657.40002441406</ele>
        <time>2023-05-28T07:42:31.000Z</time>
      </trkpt>
      <trkpt lat="43.70834" lon="3.10492">
        <ele>657.20001220703</ele>
        <time>2023-05-28T07:42:36.000Z</time>
      </trkpt>
      <trkpt lat="43.70837" lon="3.1049">
        <ele>656.79998779297</ele>
        <time>2023-05-28T07:42:39.000Z</time>
      </trkpt>
      <trkpt lat="43.70843" lon="3.10488">
        <ele>656.20001220703</ele>
        <time>2023-05-28T07:42:45.000Z</time>
      </trkpt>
      <trkpt lat="43.70844" lon="3.10487">
        <ele>656.20001220703</ele>
        <time>2023-05-28T07:42:46.000Z</time>
      </trkpt>
      <trkpt lat="43.70845" lon="3.10486">
        <ele>656.20001220703</ele>
        <time>2023-05-28T07:42:47.000Z</time>
      </trkpt>
      <trkpt lat="43.70848" lon="3.10485">
        <ele>656</ele>
        <time>2023-05-28T07:42:50.000Z</time>
      </trkpt>
      <trkpt lat="43.70851" lon="3.10484">
        <ele>655.59997558594</ele>
        <time>2023-05-28T07:42:53.000Z</time>
      </trkpt>
      <trkpt lat="43.70853" lon="3.10483">
        <ele>655.40002441406</ele>
        <time>2023-05-28T07:42:56.000Z</time>
      </trkpt>
      <trkpt lat="43.70854" lon="3.10482">
        <ele>655.40002441406</ele>
        <time>2023-05-28T07:42:58.000Z</time>
      </trkpt>
      <trkpt lat="43.70857" lon="3.1048">
        <ele>655.20001220703</ele>
        <time>2023-05-28T07:43:02.000Z</time>
      </trkpt>
      <trkpt lat="43.70858" lon="3.10477">
        <ele>655.20001220703</ele>
        <time>2023-05-28T07:43:05.000Z</time>
      </trkpt>
      <trkpt lat="43.70863" lon="3.10472">
        <ele>654.79998779297</ele>
        <time>2023-05-28T07:43:12.000Z</time>
      </trkpt>
      <trkpt lat="43.70863" lon="3.10472">
        <ele>654.59997558594</ele>
        <time>2023-05-28T07:43:14.000Z</time>
      </trkpt>
      <trkpt lat="43.70865" lon="3.10466">
        <ele>654.59997558594</ele>
        <time>2023-05-28T07:43:21.000Z</time>
      </trkpt>
      <trkpt lat="43.70869" lon="3.1046">
        <ele>654</ele>
        <time>2023-05-28T07:43:27.000Z</time>
      </trkpt>
      <trkpt lat="43.70869" lon="3.10458">
        <ele>653.79998779297</ele>
        <time>2023-05-28T07:43:28.000Z</time>
      </trkpt>
      <trkpt lat="43.7087" lon="3.10451">
        <ele>653.40002441406</ele>
        <time>2023-05-28T07:43:34.000Z</time>
      </trkpt>
      <trkpt lat="43.7087" lon="3.10449">
        <ele>653.40002441406</ele>
        <time>2023-05-28T07:43:36.000Z</time>
      </trkpt>
      <trkpt lat="43.70871" lon="3.10443">
        <ele>653.20001220703</ele>
        <time>2023-05-28T07:43:41.000Z</time>
      </trkpt>
      <trkpt lat="43.70871" lon="3.10435">
        <ele>653</ele>
        <time>2023-05-28T07:43:47.000Z</time>
      </trkpt>
      <trkpt lat="43.70872" lon="3.10428">
        <ele>652.79998779297</ele>
        <time>2023-05-28T07:43:54.000Z</time>
      </trkpt>
      <trkpt lat="43.70873" lon="3.10419">
        <ele>652.20001220703</ele>
        <time>2023-05-28T07:44:02.000Z</time>
      </trkpt>
      <trkpt lat="43.70874" lon="3.10414">
        <ele>651.79998779297</ele>
        <time>2023-05-28T07:44:06.000Z</time>
      </trkpt>
      <trkpt lat="43.70876" lon="3.10408">
        <ele>651.20001220703</ele>
        <time>2023-05-28T07:44:12.000Z</time>
      </trkpt>
      <trkpt lat="43.70878" lon="3.10401">
        <ele>650.79998779297</ele>
        <time>2023-05-28T07:44:17.000Z</time>
      </trkpt>
      <trkpt lat="43.70878" lon="3.10399">
        <ele>650.40002441406</ele>
        <time>2023-05-28T07:44:19.000Z</time>
      </trkpt>
      <trkpt lat="43.70879" lon="3.10393">
        <ele>649.79998779297</ele>
        <time>2023-05-28T07:44:23.000Z</time>
      </trkpt>
      <trkpt lat="43.7088" lon="3.10388">
        <ele>649.59997558594</ele>
        <time>2023-05-28T07:44:27.000Z</time>
      </trkpt>
      <trkpt lat="43.70882" lon="3.10379">
        <ele>649</ele>
        <time>2023-05-28T07:44:34.000Z</time>
      </trkpt>
      <trkpt lat="43.70883" lon="3.10376">
        <ele>648.79998779297</ele>
        <time>2023-05-28T07:44:36.000Z</time>
      </trkpt>
      <trkpt lat="43.70886" lon="3.10368">
        <ele>648.20001220703</ele>
        <time>2023-05-28T07:44:43.000Z</time>
      </trkpt>
      <trkpt lat="43.70888" lon="3.10363">
        <ele>647.79998779297</ele>
        <time>2023-05-28T07:44:47.000Z</time>
      </trkpt>
      <trkpt lat="43.70892" lon="3.10357">
        <ele>647.20001220703</ele>
        <time>2023-05-28T07:44:53.000Z</time>
      </trkpt>
      <trkpt lat="43.70895" lon="3.10353">
        <ele>646.59997558594</ele>
        <time>2023-05-28T07:44:57.000Z</time>
      </trkpt>
      <trkpt lat="43.70896" lon="3.10351">
        <ele>646.20001220703</ele>
        <time>2023-05-28T07:44:59.000Z</time>
      </trkpt>
      <trkpt lat="43.70898" lon="3.10349">
        <ele>646.20001220703</ele>
        <time>2023-05-28T07:45:01.000Z</time>
      </trkpt>
      <trkpt lat="43.709" lon="3.10344">
        <ele>646</ele>
        <time>2023-05-28T07:45:05.000Z</time>
      </trkpt>
      <trkpt lat="43.70904" lon="3.10336">
        <ele>646</ele>
        <time>2023-05-28T07:45:11.000Z</time>
      </trkpt>
      <trkpt lat="43.70906" lon="3.10334">
        <ele>645.59997558594</ele>
        <time>2023-05-28T07:45:13.000Z</time>
      </trkpt>
      <trkpt lat="43.70911" lon="3.10326">
        <ele>645</ele>
        <time>2023-05-28T07:45:20.000Z</time>
      </trkpt>
      <trkpt lat="43.70913" lon="3.10323">
        <ele>644.79998779297</ele>
        <time>2023-05-28T07:45:25.000Z</time>
      </trkpt>
      <trkpt lat="43.70916" lon="3.10316">
        <ele>644.59997558594</ele>
        <time>2023-05-28T07:45:30.000Z</time>
      </trkpt>
      <trkpt lat="43.70916" lon="3.10315">
        <ele>644.40002441406</ele>
        <time>2023-05-28T07:45:31.000Z</time>
      </trkpt>
      <trkpt lat="43.70919" lon="3.10304">
        <ele>643.79998779297</ele>
        <time>2023-05-28T07:45:38.000Z</time>
      </trkpt>
      <trkpt lat="43.70921" lon="3.10297">
        <ele>643.40002441406</ele>
        <time>2023-05-28T07:45:43.000Z</time>
      </trkpt>
      <trkpt lat="43.70921" lon="3.10297">
        <ele>643.40002441406</ele>
        <time>2023-05-28T07:45:44.000Z</time>
      </trkpt>
      <trkpt lat="43.70921" lon="3.10295">
        <ele>643.20001220703</ele>
        <time>2023-05-28T07:45:45.000Z</time>
      </trkpt>
      <trkpt lat="43.70922" lon="3.10288">
        <ele>643</ele>
        <time>2023-05-28T07:45:51.000Z</time>
      </trkpt>
      <trkpt lat="43.70923" lon="3.10285">
        <ele>642.79998779297</ele>
        <time>2023-05-28T07:45:54.000Z</time>
      </trkpt>
      <trkpt lat="43.70923" lon="3.1028">
        <ele>642.59997558594</ele>
        <time>2023-05-28T07:45:58.000Z</time>
      </trkpt>
      <trkpt lat="43.70922" lon="3.10276">
        <ele>642.40002441406</ele>
        <time>2023-05-28T07:46:01.000Z</time>
      </trkpt>
      <trkpt lat="43.70922" lon="3.10272">
        <ele>642.20001220703</ele>
        <time>2023-05-28T07:46:04.000Z</time>
      </trkpt>
      <trkpt lat="43.70921" lon="3.10264">
        <ele>641.59997558594</ele>
        <time>2023-05-28T07:46:11.000Z</time>
      </trkpt>
      <trkpt lat="43.70921" lon="3.1026">
        <ele>641.40002441406</ele>
        <time>2023-05-28T07:46:15.000Z</time>
      </trkpt>
      <trkpt lat="43.70919" lon="3.10255">
        <ele>640.79998779297</ele>
        <time>2023-05-28T07:46:19.000Z</time>
      </trkpt>
      <trkpt lat="43.70918" lon="3.10247">
        <ele>640.20001220703</ele>
        <time>2023-05-28T07:46:24.000Z</time>
      </trkpt>
      <trkpt lat="43.70918" lon="3.10246">
        <ele>640.20001220703</ele>
        <time>2023-05-28T07:46:25.000Z</time>
      </trkpt>
      <trkpt lat="43.70913" lon="3.10238">
        <ele>639.40002441406</ele>
        <time>2023-05-28T07:46:32.000Z</time>
      </trkpt>
      <trkpt lat="43.70907" lon="3.10231">
        <ele>639.20001220703</ele>
        <time>2023-05-28T07:46:39.000Z</time>
      </trkpt>
      <trkpt lat="43.70905" lon="3.10229">
        <ele>639.20001220703</ele>
        <time>2023-05-28T07:46:41.000Z</time>
      </trkpt>
      <trkpt lat="43.70898" lon="3.10219">
        <ele>638.59997558594</ele>
        <time>2023-05-28T07:46:50.000Z</time>
      </trkpt>
      <trkpt lat="43.70895" lon="3.10214">
        <ele>638.20001220703</ele>
        <time>2023-05-28T07:46:54.000Z</time>
      </trkpt>
      <trkpt lat="43.70892" lon="3.10207">
        <ele>638</ele>
        <time>2023-05-28T07:46:59.000Z</time>
      </trkpt>
      <trkpt lat="43.70887" lon="3.10199">
        <ele>637.40002441406</ele>
        <time>2023-05-28T07:47:06.000Z</time>
      </trkpt>
      <trkpt lat="43.70885" lon="3.10194">
        <ele>637.20001220703</ele>
        <time>2023-05-28T07:47:10.000Z</time>
      </trkpt>
      <trkpt lat="43.70883" lon="3.10189">
        <ele>636.79998779297</ele>
        <time>2023-05-28T07:47:14.000Z</time>
      </trkpt>
      <trkpt lat="43.70879" lon="3.10181">
        <ele>636.20001220703</ele>
        <time>2023-05-28T07:47:20.000Z</time>
      </trkpt>
      <trkpt lat="43.70877" lon="3.10178">
        <ele>636</ele>
        <time>2023-05-28T07:47:22.000Z</time>
      </trkpt>
      <trkpt lat="43.70874" lon="3.10171">
        <ele>635.59997558594</ele>
        <time>2023-05-28T07:47:28.000Z</time>
      </trkpt>
      <trkpt lat="43.7087" lon="3.1016">
        <ele>635.20001220703</ele>
        <time>2023-05-28T07:47:37.000Z</time>
      </trkpt>
      <trkpt lat="43.70869" lon="3.10159">
        <ele>635</ele>
        <time>2023-05-28T07:47:38.000Z</time>
      </trkpt>
      <trkpt lat="43.70868" lon="3.10155">
        <ele>634.40002441406</ele>
        <time>2023-05-28T07:47:45.000Z</time>
      </trkpt>
      <trkpt lat="43.70867" lon="3.10149">
        <ele>634.20001220703</ele>
        <time>2023-05-28T07:47:55.000Z</time>
      </trkpt>
      <trkpt lat="43.70862" lon="3.10138">
        <ele>634</ele>
        <time>2023-05-28T07:48:03.000Z</time>
      </trkpt>
      <trkpt lat="43.70859" lon="3.10135">
        <ele>634</ele>
        <time>2023-05-28T07:48:06.000Z</time>
      </trkpt>
      <trkpt lat="43.70857" lon="3.10129">
        <ele>633.79998779297</ele>
        <time>2023-05-28T07:48:10.000Z</time>
      </trkpt>
      <trkpt lat="43.7085" lon="3.10116">
        <ele>633.59997558594</ele>
        <time>2023-05-28T07:48:21.000Z</time>
      </trkpt>
      <trkpt lat="43.70847" lon="3.10105">
        <ele>633.79998779297</ele>
        <time>2023-05-28T07:48:29.000Z</time>
      </trkpt>
      <trkpt lat="43.70847" lon="3.10104">
        <ele>633.79998779297</ele>
        <time>2023-05-28T07:48:30.000Z</time>
      </trkpt>
      <trkpt lat="43.70844" lon="3.10098">
        <ele>634</ele>
        <time>2023-05-28T07:48:35.000Z</time>
      </trkpt>
      <trkpt lat="43.70843" lon="3.10094">
        <ele>634</ele>
        <time>2023-05-28T07:48:38.000Z</time>
      </trkpt>
      <trkpt lat="43.70841" lon="3.10085">
        <ele>634.20001220703</ele>
        <time>2023-05-28T07:48:46.000Z</time>
      </trkpt>
      <trkpt lat="43.7084" lon="3.10085">
        <ele>634.20001220703</ele>
        <time>2023-05-28T07:48:47.000Z</time>
      </trkpt>
      <trkpt lat="43.70839" lon="3.10079">
        <ele>634.59997558594</ele>
        <time>2023-05-28T07:48:52.000Z</time>
      </trkpt>
      <trkpt lat="43.70837" lon="3.10072">
        <ele>634.79998779297</ele>
        <time>2023-05-28T07:48:58.000Z</time>
      </trkpt>
      <trkpt lat="43.70835" lon="3.10069">
        <ele>635</ele>
        <time>2023-05-28T07:49:01.000Z</time>
      </trkpt>
      <trkpt lat="43.70834" lon="3.10064">
        <ele>635.40002441406</ele>
        <time>2023-05-28T07:49:05.000Z</time>
      </trkpt>
      <trkpt lat="43.70834" lon="3.10062">
        <ele>635.40002441406</ele>
        <time>2023-05-28T07:49:07.000Z</time>
      </trkpt>
      <trkpt lat="43.70833" lon="3.10057">
        <ele>635.79998779297</ele>
        <time>2023-05-28T07:49:11.000Z</time>
      </trkpt>
      <trkpt lat="43.70832" lon="3.10049">
        <ele>636</ele>
        <time>2023-05-28T07:49:17.000Z</time>
      </trkpt>
      <trkpt lat="43.70832" lon="3.10047">
        <ele>636.20001220703</ele>
        <time>2023-05-28T07:49:19.000Z</time>
      </trkpt>
      <trkpt lat="43.70831" lon="3.10037">
        <ele>636.79998779297</ele>
        <time>2023-05-28T07:49:27.000Z</time>
      </trkpt>
      <trkpt lat="43.70829" lon="3.10025">
        <ele>637</ele>
        <time>2023-05-28T07:49:36.000Z</time>
      </trkpt>
      <trkpt lat="43.70826" lon="3.10012">
        <ele>637.59997558594</ele>
        <time>2023-05-28T07:49:45.000Z</time>
      </trkpt>
      <trkpt lat="43.70824" lon="3.10003">
        <ele>637.59997558594</ele>
        <time>2023-05-28T07:49:52.000Z</time>
      </trkpt>
      <trkpt lat="43.70824" lon="3.10001">
        <ele>637.59997558594</ele>
        <time>2023-05-28T07:49:53.000Z</time>
      </trkpt>
      <trkpt lat="43.70826" lon="3.09994">
        <ele>638</ele>
        <time>2023-05-28T07:49:59.000Z</time>
      </trkpt>
      <trkpt lat="43.70827" lon="3.09993">
        <ele>638.20001220703</ele>
        <time>2023-05-28T07:50:01.000Z</time>
      </trkpt>
      <trkpt lat="43.70829" lon="3.09989">
        <ele>638.40002441406</ele>
        <time>2023-05-28T07:50:04.000Z</time>
      </trkpt>
      <trkpt lat="43.70833" lon="3.09983">
        <ele>638.79998779297</ele>
        <time>2023-05-28T07:50:10.000Z</time>
      </trkpt>
      <trkpt lat="43.70834" lon="3.09981">
        <ele>638.79998779297</ele>
        <time>2023-05-28T07:50:12.000Z</time>
      </trkpt>
      <trkpt lat="43.70836" lon="3.09978">
        <ele>639</ele>
        <time>2023-05-28T07:50:16.000Z</time>
      </trkpt>
      <trkpt lat="43.70837" lon="3.09977">
        <ele>639.20001220703</ele>
        <time>2023-05-28T07:50:17.000Z</time>
      </trkpt>
      <trkpt lat="43.7084" lon="3.09974">
        <ele>639.20001220703</ele>
        <time>2023-05-28T07:50:21.000Z</time>
      </trkpt>
      <trkpt lat="43.70842" lon="3.09972">
        <ele>639.40002441406</ele>
        <time>2023-05-28T07:50:24.000Z</time>
      </trkpt>
      <trkpt lat="43.70846" lon="3.09969">
        <ele>639.59997558594</ele>
        <time>2023-05-28T07:50:31.000Z</time>
      </trkpt>
      <trkpt lat="43.70849" lon="3.09966">
        <ele>639.79998779297</ele>
        <time>2023-05-28T07:50:38.000Z</time>
      </trkpt>
      <trkpt lat="43.70849" lon="3.09963">
        <ele>640.20001220703</ele>
        <time>2023-05-28T07:50:42.000Z</time>
      </trkpt>
      <trkpt lat="43.70851" lon="3.0996">
        <ele>640</ele>
        <time>2023-05-28T07:50:46.000Z</time>
      </trkpt>
      <trkpt lat="43.70855" lon="3.09953">
        <ele>640</ele>
        <time>2023-05-28T07:50:52.000Z</time>
      </trkpt>
      <trkpt lat="43.70856" lon="3.09952">
        <ele>640</ele>
        <time>2023-05-28T07:50:53.000Z</time>
      </trkpt>
      <trkpt lat="43.70859" lon="3.09944">
        <ele>640.20001220703</ele>
        <time>2023-05-28T07:50:59.000Z</time>
      </trkpt>
      <trkpt lat="43.70864" lon="3.09936">
        <ele>640.59997558594</ele>
        <time>2023-05-28T07:51:06.000Z</time>
      </trkpt>
      <trkpt lat="43.70864" lon="3.09934">
        <ele>640.59997558594</ele>
        <time>2023-05-28T07:51:07.000Z</time>
      </trkpt>
      <trkpt lat="43.70868" lon="3.09929">
        <ele>641</ele>
        <time>2023-05-28T07:51:12.000Z</time>
      </trkpt>
      <trkpt lat="43.7087" lon="3.09925">
        <ele>641.20001220703</ele>
        <time>2023-05-28T07:51:16.000Z</time>
      </trkpt>
      <trkpt lat="43.70873" lon="3.09921">
        <ele>641.40002441406</ele>
        <time>2023-05-28T07:51:20.000Z</time>
      </trkpt>
      <trkpt lat="43.70879" lon="3.09916">
        <ele>641.79998779297</ele>
        <time>2023-05-28T07:51:27.000Z</time>
      </trkpt>
      <trkpt lat="43.70884" lon="3.09908">
        <ele>642</ele>
        <time>2023-05-28T07:51:35.000Z</time>
      </trkpt>
      <trkpt lat="43.70886" lon="3.09905">
        <ele>642.20001220703</ele>
        <time>2023-05-28T07:51:38.000Z</time>
      </trkpt>
      <trkpt lat="43.70888" lon="3.09901">
        <ele>642.40002441406</ele>
        <time>2023-05-28T07:51:42.000Z</time>
      </trkpt>
      <trkpt lat="43.70889" lon="3.09899">
        <ele>642.40002441406</ele>
        <time>2023-05-28T07:51:44.000Z</time>
      </trkpt>
      <trkpt lat="43.70889" lon="3.09898">
        <ele>642.59997558594</ele>
        <time>2023-05-28T07:51:45.000Z</time>
      </trkpt>
      <trkpt lat="43.70892" lon="3.09893">
        <ele>642.79998779297</ele>
        <time>2023-05-28T07:51:50.000Z</time>
      </trkpt>
      <trkpt lat="43.70895" lon="3.09888">
        <ele>643.20001220703</ele>
        <time>2023-05-28T07:51:55.000Z</time>
      </trkpt>
      <trkpt lat="43.70896" lon="3.09884">
        <ele>643.40002441406</ele>
        <time>2023-05-28T07:51:58.000Z</time>
      </trkpt>
      <trkpt lat="43.70896" lon="3.09883">
        <ele>643.40002441406</ele>
        <time>2023-05-28T07:51:59.000Z</time>
      </trkpt>
      <trkpt lat="43.70899" lon="3.09877">
        <ele>643.40002441406</ele>
        <time>2023-05-28T07:52:04.000Z</time>
      </trkpt>
      <trkpt lat="43.70902" lon="3.09867">
        <ele>643.79998779297</ele>
        <time>2023-05-28T07:52:12.000Z</time>
      </trkpt>
      <trkpt lat="43.70907" lon="3.09856">
        <ele>644.20001220703</ele>
        <time>2023-05-28T07:52:22.000Z</time>
      </trkpt>
      <trkpt lat="43.70908" lon="3.09854">
        <ele>644.20001220703</ele>
        <time>2023-05-28T07:52:23.000Z</time>
      </trkpt>
      <trkpt lat="43.70909" lon="3.0985">
        <ele>644.40002441406</ele>
        <time>2023-05-28T07:52:28.000Z</time>
      </trkpt>
      <trkpt lat="43.7091" lon="3.09849">
        <ele>644.40002441406</ele>
        <time>2023-05-28T07:52:29.000Z</time>
      </trkpt>
      <trkpt lat="43.70912" lon="3.09846">
        <ele>644.79998779297</ele>
        <time>2023-05-28T07:52:33.000Z</time>
      </trkpt>
      <trkpt lat="43.70914" lon="3.09842">
        <ele>645</ele>
        <time>2023-05-28T07:52:37.000Z</time>
      </trkpt>
      <trkpt lat="43.70915" lon="3.0984">
        <ele>645</ele>
        <time>2023-05-28T07:52:39.000Z</time>
      </trkpt>
      <trkpt lat="43.70917" lon="3.09836">
        <ele>645</ele>
        <time>2023-05-28T07:52:43.000Z</time>
      </trkpt>
      <trkpt lat="43.70917" lon="3.09835">
        <ele>645.20001220703</ele>
        <time>2023-05-28T07:52:44.000Z</time>
      </trkpt>
      <trkpt lat="43.7092" lon="3.09832">
        <ele>645.20001220703</ele>
        <time>2023-05-28T07:52:48.000Z</time>
      </trkpt>
      <trkpt lat="43.70921" lon="3.09831">
        <ele>645.20001220703</ele>
        <time>2023-05-28T07:52:49.000Z</time>
      </trkpt>
      <trkpt lat="43.70923" lon="3.09825">
        <ele>645.59997558594</ele>
        <time>2023-05-28T07:52:56.000Z</time>
      </trkpt>
      <trkpt lat="43.70927" lon="3.0982">
        <ele>645.79998779297</ele>
        <time>2023-05-28T07:53:02.000Z</time>
      </trkpt>
      <trkpt lat="43.70927" lon="3.09819">
        <ele>646</ele>
        <time>2023-05-28T07:53:03.000Z</time>
      </trkpt>
      <trkpt lat="43.70929" lon="3.09814">
        <ele>646.20001220703</ele>
        <time>2023-05-28T07:53:08.000Z</time>
      </trkpt>
      <trkpt lat="43.7093" lon="3.09812">
        <ele>646.40002441406</ele>
        <time>2023-05-28T07:53:10.000Z</time>
      </trkpt>
      <trkpt lat="43.70933" lon="3.09803">
        <ele>646.79998779297</ele>
        <time>2023-05-28T07:53:18.000Z</time>
      </trkpt>
      <trkpt lat="43.70934" lon="3.09798">
        <ele>646.79998779297</ele>
        <time>2023-05-28T07:53:22.000Z</time>
      </trkpt>
      <trkpt lat="43.70934" lon="3.09797">
        <ele>647</ele>
        <time>2023-05-28T07:53:23.000Z</time>
      </trkpt>
      <trkpt lat="43.70934" lon="3.09797">
        <ele>647</ele>
        <time>2023-05-28T07:53:24.000Z</time>
      </trkpt>
      <trkpt lat="43.70936" lon="3.09791">
        <ele>647</ele>
        <time>2023-05-28T07:53:30.000Z</time>
      </trkpt>
      <trkpt lat="43.70938" lon="3.09787">
        <ele>647.40002441406</ele>
        <time>2023-05-28T07:53:33.000Z</time>
      </trkpt>
      <trkpt lat="43.70938" lon="3.09786">
        <ele>647.40002441406</ele>
        <time>2023-05-28T07:53:34.000Z</time>
      </trkpt>
      <trkpt lat="43.70939" lon="3.09781">
        <ele>647.59997558594</ele>
        <time>2023-05-28T07:53:37.000Z</time>
      </trkpt>
      <trkpt lat="43.7094" lon="3.09777">
        <ele>647.40002441406</ele>
        <time>2023-05-28T07:53:40.000Z</time>
      </trkpt>
      <trkpt lat="43.70942" lon="3.09771">
        <ele>647.59997558594</ele>
        <time>2023-05-28T07:53:46.000Z</time>
      </trkpt>
      <trkpt lat="43.70947" lon="3.09759">
        <ele>648</ele>
        <time>2023-05-28T07:53:54.000Z</time>
      </trkpt>
      <trkpt lat="43.70947" lon="3.09757">
        <ele>648</ele>
        <time>2023-05-28T07:53:56.000Z</time>
      </trkpt>
      <trkpt lat="43.70949" lon="3.09753">
        <ele>648.20001220703</ele>
        <time>2023-05-28T07:54:00.000Z</time>
      </trkpt>
      <trkpt lat="43.70951" lon="3.0975">
        <ele>648.40002441406</ele>
        <time>2023-05-28T07:54:03.000Z</time>
      </trkpt>
      <trkpt lat="43.70953" lon="3.09746">
        <ele>648.40002441406</ele>
        <time>2023-05-28T07:54:07.000Z</time>
      </trkpt>
      <trkpt lat="43.70958" lon="3.09737">
        <ele>648.79998779297</ele>
        <time>2023-05-28T07:54:16.000Z</time>
      </trkpt>
      <trkpt lat="43.70958" lon="3.09736">
        <ele>649</ele>
        <time>2023-05-28T07:54:17.000Z</time>
      </trkpt>
      <trkpt lat="43.70962" lon="3.09728">
        <ele>649.40002441406</ele>
        <time>2023-05-28T07:54:24.000Z</time>
      </trkpt>
      <trkpt lat="43.70962" lon="3.09726">
        <ele>649.40002441406</ele>
        <time>2023-05-28T07:54:26.000Z</time>
      </trkpt>
      <trkpt lat="43.70964" lon="3.09724">
        <ele>649.40002441406</ele>
        <time>2023-05-28T07:54:28.000Z</time>
      </trkpt>
      <trkpt lat="43.70964" lon="3.09723">
        <ele>649.40002441406</ele>
        <time>2023-05-28T07:54:29.000Z</time>
      </trkpt>
      <trkpt lat="43.70965" lon="3.09722">
        <ele>649.59997558594</ele>
        <time>2023-05-28T07:54:31.000Z</time>
      </trkpt>
      <trkpt lat="43.70967" lon="3.09716">
        <ele>650</ele>
        <time>2023-05-28T07:54:37.000Z</time>
      </trkpt>
      <trkpt lat="43.7097" lon="3.09709">
        <ele>650.20001220703</ele>
        <time>2023-05-28T07:54:44.000Z</time>
      </trkpt>
      <trkpt lat="43.70971" lon="3.09705">
        <ele>650.40002441406</ele>
        <time>2023-05-28T07:54:48.000Z</time>
      </trkpt>
      <trkpt lat="43.70973" lon="3.097">
        <ele>650.59997558594</ele>
        <time>2023-05-28T07:54:52.000Z</time>
      </trkpt>
      <trkpt lat="43.70974" lon="3.09692">
        <ele>651</ele>
        <time>2023-05-28T07:54:58.000Z</time>
      </trkpt>
      <trkpt lat="43.70974" lon="3.09692">
        <ele>651.20001220703</ele>
        <time>2023-05-28T07:54:59.000Z</time>
      </trkpt>
      <trkpt lat="43.70976" lon="3.09687">
        <ele>651.40002441406</ele>
        <time>2023-05-28T07:55:03.000Z</time>
      </trkpt>
      <trkpt lat="43.70976" lon="3.09685">
        <ele>651.40002441406</ele>
        <time>2023-05-28T07:55:04.000Z</time>
      </trkpt>
      <trkpt lat="43.70976" lon="3.09684">
        <ele>651.40002441406</ele>
        <time>2023-05-28T07:55:05.000Z</time>
      </trkpt>
      <trkpt lat="43.70977" lon="3.09684">
        <ele>651.59997558594</ele>
        <time>2023-05-28T07:55:06.000Z</time>
      </trkpt>
      <trkpt lat="43.7098" lon="3.09677">
        <ele>652</ele>
        <time>2023-05-28T07:55:13.000Z</time>
      </trkpt>
      <trkpt lat="43.70984" lon="3.09674">
        <ele>652.20001220703</ele>
        <time>2023-05-28T07:55:18.000Z</time>
      </trkpt>
      <trkpt lat="43.70986" lon="3.09673">
        <ele>652.40002441406</ele>
        <time>2023-05-28T07:55:20.000Z</time>
      </trkpt>
      <trkpt lat="43.70986" lon="3.09672">
        <ele>652.40002441406</ele>
        <time>2023-05-28T07:55:21.000Z</time>
      </trkpt>
      <trkpt lat="43.70988" lon="3.0967">
        <ele>652.59997558594</ele>
        <time>2023-05-28T07:55:23.000Z</time>
      </trkpt>
      <trkpt lat="43.70992" lon="3.09669">
        <ele>653</ele>
        <time>2023-05-28T07:55:27.000Z</time>
      </trkpt>
      <trkpt lat="43.70993" lon="3.09669">
        <ele>653.20001220703</ele>
        <time>2023-05-28T07:55:29.000Z</time>
      </trkpt>
      <trkpt lat="43.70995" lon="3.09665">
        <ele>653.59997558594</ele>
        <time>2023-05-28T07:55:35.000Z</time>
      </trkpt>
      <trkpt lat="43.70995" lon="3.09664">
        <ele>653.59997558594</ele>
        <time>2023-05-28T07:55:36.000Z</time>
      </trkpt>
      <trkpt lat="43.70994" lon="3.09663">
        <ele>654</ele>
        <time>2023-05-28T07:55:41.000Z</time>
      </trkpt>
      <trkpt lat="43.70995" lon="3.09654">
        <ele>654</ele>
        <time>2023-05-28T07:55:47.000Z</time>
      </trkpt>
      <trkpt lat="43.70997" lon="3.09644">
        <ele>654</ele>
        <time>2023-05-28T07:55:54.000Z</time>
      </trkpt>
      <trkpt lat="43.70998" lon="3.09641">
        <ele>654</ele>
        <time>2023-05-28T07:55:56.000Z</time>
      </trkpt>
      <trkpt lat="43.70999" lon="3.09635">
        <ele>654.40002441406</ele>
        <time>2023-05-28T07:56:00.000Z</time>
      </trkpt>
      <trkpt lat="43.71" lon="3.09634">
        <ele>654.40002441406</ele>
        <time>2023-05-28T07:56:01.000Z</time>
      </trkpt>
      <trkpt lat="43.71001" lon="3.0963">
        <ele>654.59997558594</ele>
        <time>2023-05-28T07:56:04.000Z</time>
      </trkpt>
      <trkpt lat="43.71003" lon="3.09625">
        <ele>654.79998779297</ele>
        <time>2023-05-28T07:56:08.000Z</time>
      </trkpt>
      <trkpt lat="43.71004" lon="3.09621">
        <ele>655.20001220703</ele>
        <time>2023-05-28T07:56:12.000Z</time>
      </trkpt>
      <trkpt lat="43.71005" lon="3.09619">
        <ele>655.40002441406</ele>
        <time>2023-05-28T07:56:15.000Z</time>
      </trkpt>
      <trkpt lat="43.71006" lon="3.09616">
        <ele>655.59997558594</ele>
        <time>2023-05-28T07:56:18.000Z</time>
      </trkpt>
      <trkpt lat="43.71006" lon="3.0961">
        <ele>655.79998779297</ele>
        <time>2023-05-28T07:56:22.000Z</time>
      </trkpt>
      <trkpt lat="43.71006" lon="3.09609">
        <ele>655.79998779297</ele>
        <time>2023-05-28T07:56:23.000Z</time>
      </trkpt>
      <trkpt lat="43.71005" lon="3.09601">
        <ele>655.79998779297</ele>
        <time>2023-05-28T07:56:30.000Z</time>
      </trkpt>
      <trkpt lat="43.71001" lon="3.09595">
        <ele>655.79998779297</ele>
        <time>2023-05-28T07:56:36.000Z</time>
      </trkpt>
      <trkpt lat="43.70995" lon="3.09586">
        <ele>656.59997558594</ele>
        <time>2023-05-28T07:56:45.000Z</time>
      </trkpt>
      <trkpt lat="43.70994" lon="3.09585">
        <ele>656.59997558594</ele>
        <time>2023-05-28T07:56:46.000Z</time>
      </trkpt>
      <trkpt lat="43.70988" lon="3.09581">
        <ele>656.40002441406</ele>
        <time>2023-05-28T07:56:53.000Z</time>
      </trkpt>
      <trkpt lat="43.70983" lon="3.09576">
        <ele>656.59997558594</ele>
        <time>2023-05-28T07:57:00.000Z</time>
      </trkpt>
      <trkpt lat="43.70976" lon="3.09573">
        <ele>656.59997558594</ele>
        <time>2023-05-28T07:57:07.000Z</time>
      </trkpt>
      <trkpt lat="43.7097" lon="3.09569">
        <ele>656.79998779297</ele>
        <time>2023-05-28T07:57:15.000Z</time>
      </trkpt>
      <trkpt lat="43.70968" lon="3.09568">
        <ele>656.79998779297</ele>
        <time>2023-05-28T07:57:17.000Z</time>
      </trkpt>
      <trkpt lat="43.70965" lon="3.09565">
        <ele>657</ele>
        <time>2023-05-28T07:57:22.000Z</time>
      </trkpt>
      <trkpt lat="43.70959" lon="3.09558">
        <ele>657.40002441406</ele>
        <time>2023-05-28T07:57:31.000Z</time>
      </trkpt>
      <trkpt lat="43.70953" lon="3.09549">
        <ele>656.79998779297</ele>
        <time>2023-05-28T07:57:40.000Z</time>
      </trkpt>
      <trkpt lat="43.70949" lon="3.09544">
        <ele>657</ele>
        <time>2023-05-28T07:57:46.000Z</time>
      </trkpt>
      <trkpt lat="43.70945" lon="3.09538">
        <ele>657.20001220703</ele>
        <time>2023-05-28T07:57:53.000Z</time>
      </trkpt>
      <trkpt lat="43.70941" lon="3.0953">
        <ele>657.59997558594</ele>
        <time>2023-05-28T07:58:02.000Z</time>
      </trkpt>
      <trkpt lat="43.70937" lon="3.09524">
        <ele>657.79998779297</ele>
        <time>2023-05-28T07:58:09.000Z</time>
      </trkpt>
      <trkpt lat="43.70936" lon="3.09524">
        <ele>657.79998779297</ele>
        <time>2023-05-28T07:58:10.000Z</time>
      </trkpt>
      <trkpt lat="43.70933" lon="3.0952">
        <ele>658.20001220703</ele>
        <time>2023-05-28T07:58:15.000Z</time>
      </trkpt>
      <trkpt lat="43.70933" lon="3.09519">
        <ele>658.20001220703</ele>
        <time>2023-05-28T07:58:16.000Z</time>
      </trkpt>
      <trkpt lat="43.7093" lon="3.09516">
        <ele>658.59997558594</ele>
        <time>2023-05-28T07:58:22.000Z</time>
      </trkpt>
      <trkpt lat="43.70927" lon="3.09511">
        <ele>658.59997558594</ele>
        <time>2023-05-28T07:58:29.000Z</time>
      </trkpt>
      <trkpt lat="43.70925" lon="3.09508">
        <ele>658.79998779297</ele>
        <time>2023-05-28T07:58:32.000Z</time>
      </trkpt>
      <trkpt lat="43.70921" lon="3.09503">
        <ele>659.20001220703</ele>
        <time>2023-05-28T07:58:38.000Z</time>
      </trkpt>
      <trkpt lat="43.70914" lon="3.09498">
        <ele>659.40002441406</ele>
        <time>2023-05-28T07:58:46.000Z</time>
      </trkpt>
      <trkpt lat="43.70909" lon="3.09494">
        <ele>659.79998779297</ele>
        <time>2023-05-28T07:58:53.000Z</time>
      </trkpt>
      <trkpt lat="43.70908" lon="3.09493">
        <ele>659.79998779297</ele>
        <time>2023-05-28T07:58:54.000Z</time>
      </trkpt>
      <trkpt lat="43.709" lon="3.09489">
        <ele>659.59997558594</ele>
        <time>2023-05-28T07:59:02.000Z</time>
      </trkpt>
      <trkpt lat="43.70894" lon="3.09485">
        <ele>660</ele>
        <time>2023-05-28T07:59:10.000Z</time>
      </trkpt>
      <trkpt lat="43.70891" lon="3.09483">
        <ele>660.20001220703</ele>
        <time>2023-05-28T07:59:14.000Z</time>
      </trkpt>
      <trkpt lat="43.70889" lon="3.09482">
        <ele>660.59997558594</ele>
        <time>2023-05-28T07:59:17.000Z</time>
      </trkpt>
      <trkpt lat="43.70888" lon="3.09482">
        <ele>660.79998779297</ele>
        <time>2023-05-28T07:59:18.000Z</time>
      </trkpt>
      <trkpt lat="43.70885" lon="3.09481">
        <ele>661.40002441406</ele>
        <time>2023-05-28T07:59:22.000Z</time>
      </trkpt>
      <trkpt lat="43.70883" lon="3.0948">
        <ele>661.40002441406</ele>
        <time>2023-05-28T07:59:24.000Z</time>
      </trkpt>
      <trkpt lat="43.70875" lon="3.09475">
        <ele>661.79998779297</ele>
        <time>2023-05-28T07:59:34.000Z</time>
      </trkpt>
      <trkpt lat="43.70873" lon="3.09473">
        <ele>661.79998779297</ele>
        <time>2023-05-28T07:59:37.000Z</time>
      </trkpt>
      <trkpt lat="43.70869" lon="3.0947">
        <ele>662.20001220703</ele>
        <time>2023-05-28T07:59:42.000Z</time>
      </trkpt>
      <trkpt lat="43.70863" lon="3.09463">
        <ele>662.79998779297</ele>
        <time>2023-05-28T07:59:51.000Z</time>
      </trkpt>
      <trkpt lat="43.70861" lon="3.09462">
        <ele>662.79998779297</ele>
        <time>2023-05-28T07:59:53.000Z</time>
      </trkpt>
      <trkpt lat="43.70855" lon="3.09457">
        <ele>663.20001220703</ele>
        <time>2023-05-28T08:00:01.000Z</time>
      </trkpt>
      <trkpt lat="43.70848" lon="3.09451">
        <ele>663.59997558594</ele>
        <time>2023-05-28T08:00:10.000Z</time>
      </trkpt>
      <trkpt lat="43.70842" lon="3.09446">
        <ele>663.79998779297</ele>
        <time>2023-05-28T08:00:18.000Z</time>
      </trkpt>
      <trkpt lat="43.70841" lon="3.09445">
        <ele>664</ele>
        <time>2023-05-28T08:00:19.000Z</time>
      </trkpt>
      <trkpt lat="43.70838" lon="3.09443">
        <ele>664</ele>
        <time>2023-05-28T08:00:23.000Z</time>
      </trkpt>
      <trkpt lat="43.70837" lon="3.09442">
        <ele>664</ele>
        <time>2023-05-28T08:00:25.000Z</time>
      </trkpt>
      <trkpt lat="43.70834" lon="3.09441">
        <ele>664.20001220703</ele>
        <time>2023-05-28T08:00:28.000Z</time>
      </trkpt>
      <trkpt lat="43.70831" lon="3.09439">
        <ele>664.40002441406</ele>
        <time>2023-05-28T08:00:33.000Z</time>
      </trkpt>
      <trkpt lat="43.70827" lon="3.09435">
        <ele>665</ele>
        <time>2023-05-28T08:00:38.000Z</time>
      </trkpt>
      <trkpt lat="43.70826" lon="3.09435">
        <ele>665</ele>
        <time>2023-05-28T08:00:39.000Z</time>
      </trkpt>
      <trkpt lat="43.70823" lon="3.09434">
        <ele>665.40002441406</ele>
        <time>2023-05-28T08:00:42.000Z</time>
      </trkpt>
      <trkpt lat="43.70815" lon="3.09431">
        <ele>665.79998779297</ele>
        <time>2023-05-28T08:00:50.000Z</time>
      </trkpt>
      <trkpt lat="43.70812" lon="3.0943">
        <ele>666</ele>
        <time>2023-05-28T08:00:53.000Z</time>
      </trkpt>
      <trkpt lat="43.70809" lon="3.09427">
        <ele>666.20001220703</ele>
        <time>2023-05-28T08:00:57.000Z</time>
      </trkpt>
      <trkpt lat="43.70805" lon="3.09418">
        <ele>666.79998779297</ele>
        <time>2023-05-28T08:01:05.000Z</time>
      </trkpt>
      <trkpt lat="43.70805" lon="3.09412">
        <ele>667</ele>
        <time>2023-05-28T08:01:10.000Z</time>
      </trkpt>
      <trkpt lat="43.70805" lon="3.09408">
        <ele>667.20001220703</ele>
        <time>2023-05-28T08:01:12.000Z</time>
      </trkpt>
      <trkpt lat="43.70805" lon="3.09406">
        <ele>667.59997558594</ele>
        <time>2023-05-28T08:01:14.000Z</time>
      </trkpt>
      <trkpt lat="43.70808" lon="3.09401">
        <ele>668.20001220703</ele>
        <time>2023-05-28T08:01:19.000Z</time>
      </trkpt>
      <trkpt lat="43.70809" lon="3.094">
        <ele>668.20001220703</ele>
        <time>2023-05-28T08:01:20.000Z</time>
      </trkpt>
      <trkpt lat="43.70813" lon="3.09393">
        <ele>668.40002441406</ele>
        <time>2023-05-28T08:01:27.000Z</time>
      </trkpt>
      <trkpt lat="43.70816" lon="3.0939">
        <ele>668.59997558594</ele>
        <time>2023-05-28T08:01:35.000Z</time>
      </trkpt>
      <trkpt lat="43.70818" lon="3.09386">
        <ele>668.79998779297</ele>
        <time>2023-05-28T08:01:43.000Z</time>
      </trkpt>
      <trkpt lat="43.70824" lon="3.09379">
        <ele>669</ele>
        <time>2023-05-28T08:01:52.000Z</time>
      </trkpt>
      <trkpt lat="43.70824" lon="3.09378">
        <ele>669.20001220703</ele>
        <time>2023-05-28T08:01:53.000Z</time>
      </trkpt>
      <trkpt lat="43.70829" lon="3.09373">
        <ele>669.40002441406</ele>
        <time>2023-05-28T08:02:00.000Z</time>
      </trkpt>
      <trkpt lat="43.70834" lon="3.09366">
        <ele>669.59997558594</ele>
        <time>2023-05-28T08:02:07.000Z</time>
      </trkpt>
      <trkpt lat="43.70839" lon="3.0936">
        <ele>670.20001220703</ele>
        <time>2023-05-28T08:02:15.000Z</time>
      </trkpt>
      <trkpt lat="43.70839" lon="3.09359">
        <ele>670.20001220703</ele>
        <time>2023-05-28T08:02:16.000Z</time>
      </trkpt>
      <trkpt lat="43.70841" lon="3.09354">
        <ele>670.40002441406</ele>
        <time>2023-05-28T08:02:20.000Z</time>
      </trkpt>
      <trkpt lat="43.70843" lon="3.0935">
        <ele>670.79998779297</ele>
        <time>2023-05-28T08:02:24.000Z</time>
      </trkpt>
      <trkpt lat="43.70845" lon="3.09347">
        <ele>671</ele>
        <time>2023-05-28T08:02:27.000Z</time>
      </trkpt>
      <trkpt lat="43.70847" lon="3.09345">
        <ele>671.20001220703</ele>
        <time>2023-05-28T08:02:30.000Z</time>
      </trkpt>
      <trkpt lat="43.7085" lon="3.09342">
        <ele>672</ele>
        <time>2023-05-28T08:02:34.000Z</time>
      </trkpt>
      <trkpt lat="43.70852" lon="3.09339">
        <ele>671.79998779297</ele>
        <time>2023-05-28T08:02:39.000Z</time>
      </trkpt>
      <trkpt lat="43.70854" lon="3.09338">
        <ele>671.79998779297</ele>
        <time>2023-05-28T08:02:41.000Z</time>
      </trkpt>
      <trkpt lat="43.70858" lon="3.09334">
        <ele>672.20001220703</ele>
        <time>2023-05-28T08:02:47.000Z</time>
      </trkpt>
      <trkpt lat="43.70859" lon="3.09333">
        <ele>672.40002441406</ele>
        <time>2023-05-28T08:02:49.000Z</time>
      </trkpt>
      <trkpt lat="43.70864" lon="3.0933">
        <ele>672.79998779297</ele>
        <time>2023-05-28T08:02:56.000Z</time>
      </trkpt>
      <trkpt lat="43.7087" lon="3.09328">
        <ele>673.20001220703</ele>
        <time>2023-05-28T08:03:03.000Z</time>
      </trkpt>
      <trkpt lat="43.7087" lon="3.09328">
        <ele>673.20001220703</ele>
        <time>2023-05-28T08:03:04.000Z</time>
      </trkpt>
      <trkpt lat="43.70872" lon="3.09327">
        <ele>673.20001220703</ele>
        <time>2023-05-28T08:03:06.000Z</time>
      </trkpt>
      <trkpt lat="43.70874" lon="3.09326">
        <ele>673.40002441406</ele>
        <time>2023-05-28T08:03:09.000Z</time>
      </trkpt>
      <trkpt lat="43.70877" lon="3.09324">
        <ele>673.79998779297</ele>
        <time>2023-05-28T08:03:13.000Z</time>
      </trkpt>
      <trkpt lat="43.70882" lon="3.0932">
        <ele>674.20001220703</ele>
        <time>2023-05-28T08:03:21.000Z</time>
      </trkpt>
      <trkpt lat="43.70883" lon="3.0932">
        <ele>674.40002441406</ele>
        <time>2023-05-28T08:03:22.000Z</time>
      </trkpt>
      <trkpt lat="43.7089" lon="3.09319">
        <ele>675</ele>
        <time>2023-05-28T08:03:31.000Z</time>
      </trkpt>
      <trkpt lat="43.70894" lon="3.09318">
        <ele>675.40002441406</ele>
        <time>2023-05-28T08:03:37.000Z</time>
      </trkpt>
      <trkpt lat="43.70895" lon="3.09318">
        <ele>675.40002441406</ele>
        <time>2023-05-28T08:03:38.000Z</time>
      </trkpt>
      <trkpt lat="43.70899" lon="3.09317">
        <ele>675.79998779297</ele>
        <time>2023-05-28T08:03:44.000Z</time>
      </trkpt>
      <trkpt lat="43.70904" lon="3.09318">
        <ele>676.40002441406</ele>
        <time>2023-05-28T08:03:50.000Z</time>
      </trkpt>
      <trkpt lat="43.70905" lon="3.09319">
        <ele>676.40002441406</ele>
        <time>2023-05-28T08:03:51.000Z</time>
      </trkpt>
      <trkpt lat="43.70907" lon="3.09318">
        <ele>677</ele>
        <time>2023-05-28T08:03:57.000Z</time>
      </trkpt>
      <trkpt lat="43.70912" lon="3.0932">
        <ele>677.40002441406</ele>
        <time>2023-05-28T08:04:03.000Z</time>
      </trkpt>
      <trkpt lat="43.70913" lon="3.09321">
        <ele>677.40002441406</ele>
        <time>2023-05-28T08:04:05.000Z</time>
      </trkpt>
      <trkpt lat="43.70916" lon="3.09322">
        <ele>677.79998779297</ele>
        <time>2023-05-28T08:04:09.000Z</time>
      </trkpt>
      <trkpt lat="43.70923" lon="3.09323">
        <ele>678.40002441406</ele>
        <time>2023-05-28T08:04:18.000Z</time>
      </trkpt>
      <trkpt lat="43.70924" lon="3.09324">
        <ele>678.40002441406</ele>
        <time>2023-05-28T08:04:20.000Z</time>
      </trkpt>
      <trkpt lat="43.70929" lon="3.09324">
        <ele>678.79998779297</ele>
        <time>2023-05-28T08:04:26.000Z</time>
      </trkpt>
      <trkpt lat="43.70937" lon="3.09321">
        <ele>679</ele>
        <time>2023-05-28T08:04:35.000Z</time>
      </trkpt>
      <trkpt lat="43.70938" lon="3.0932">
        <ele>679.20001220703</ele>
        <time>2023-05-28T08:04:37.000Z</time>
      </trkpt>
      <trkpt lat="43.70942" lon="3.09319">
        <ele>679.40002441406</ele>
        <time>2023-05-28T08:04:40.000Z</time>
      </trkpt>
      <trkpt lat="43.70948" lon="3.09316">
        <ele>679.40002441406</ele>
        <time>2023-05-28T08:04:46.000Z</time>
      </trkpt>
      <trkpt lat="43.7095" lon="3.09315">
        <ele>679.40002441406</ele>
        <time>2023-05-28T08:04:48.000Z</time>
      </trkpt>
      <trkpt lat="43.70951" lon="3.09315">
        <ele>679.59997558594</ele>
        <time>2023-05-28T08:04:49.000Z</time>
      </trkpt>
      <trkpt lat="43.70958" lon="3.0931">
        <ele>680</ele>
        <time>2023-05-28T08:04:57.000Z</time>
      </trkpt>
      <trkpt lat="43.70964" lon="3.09306">
        <ele>680.20001220703</ele>
        <time>2023-05-28T08:05:04.000Z</time>
      </trkpt>
      <trkpt lat="43.70965" lon="3.09305">
        <ele>680.40002441406</ele>
        <time>2023-05-28T08:05:06.000Z</time>
      </trkpt>
      <trkpt lat="43.70966" lon="3.09305">
        <ele>680.40002441406</ele>
        <time>2023-05-28T08:05:07.000Z</time>
      </trkpt>
      <trkpt lat="43.70968" lon="3.09304">
        <ele>680.59997558594</ele>
        <time>2023-05-28T08:05:10.000Z</time>
      </trkpt>
      <trkpt lat="43.70975" lon="3.093">
        <ele>681.20001220703</ele>
        <time>2023-05-28T08:05:18.000Z</time>
      </trkpt>
      <trkpt lat="43.70977" lon="3.09299">
        <ele>681.59997558594</ele>
        <time>2023-05-28T08:05:21.000Z</time>
      </trkpt>
      <trkpt lat="43.7098" lon="3.09297">
        <ele>681.79998779297</ele>
        <time>2023-05-28T08:05:25.000Z</time>
      </trkpt>
      <trkpt lat="43.70981" lon="3.09297">
        <ele>681.79998779297</ele>
        <time>2023-05-28T08:05:26.000Z</time>
      </trkpt>
      <trkpt lat="43.70984" lon="3.09294">
        <ele>682.20001220703</ele>
        <time>2023-05-28T08:05:30.000Z</time>
      </trkpt>
      <trkpt lat="43.70985" lon="3.09292">
        <ele>682.40002441406</ele>
        <time>2023-05-28T08:05:32.000Z</time>
      </trkpt>
      <trkpt lat="43.70986" lon="3.0929">
        <ele>682.40002441406</ele>
        <time>2023-05-28T08:05:34.000Z</time>
      </trkpt>
      <trkpt lat="43.70987" lon="3.0929">
        <ele>682.59997558594</ele>
        <time>2023-05-28T08:05:35.000Z</time>
      </trkpt>
      <trkpt lat="43.70989" lon="3.09288">
        <ele>682.59997558594</ele>
        <time>2023-05-28T08:05:37.000Z</time>
      </trkpt>
      <trkpt lat="43.70991" lon="3.09288">
        <ele>682.79998779297</ele>
        <time>2023-05-28T08:05:39.000Z</time>
      </trkpt>
      <trkpt lat="43.70994" lon="3.09285">
        <ele>683.40002441406</ele>
        <time>2023-05-28T08:05:43.000Z</time>
      </trkpt>
      <trkpt lat="43.70995" lon="3.09285">
        <ele>683.59997558594</ele>
        <time>2023-05-28T08:05:44.000Z</time>
      </trkpt>
      <trkpt lat="43.70998" lon="3.09283">
        <ele>684</ele>
        <time>2023-05-28T08:05:48.000Z</time>
      </trkpt>
      <trkpt lat="43.71" lon="3.09283">
        <ele>684</ele>
        <time>2023-05-28T08:05:50.000Z</time>
      </trkpt>
      <trkpt lat="43.71001" lon="3.09282">
        <ele>684</ele>
        <time>2023-05-28T08:05:51.000Z</time>
      </trkpt>
      <trkpt lat="43.71004" lon="3.0928">
        <ele>684</ele>
        <time>2023-05-28T08:05:55.000Z</time>
      </trkpt>
      <trkpt lat="43.71008" lon="3.09276">
        <ele>684</ele>
        <time>2023-05-28T08:06:00.000Z</time>
      </trkpt>
      <trkpt lat="43.71011" lon="3.09272">
        <ele>684.20001220703</ele>
        <time>2023-05-28T08:06:05.000Z</time>
      </trkpt>
      <trkpt lat="43.71013" lon="3.0927">
        <ele>684.40002441406</ele>
        <time>2023-05-28T08:06:07.000Z</time>
      </trkpt>
      <trkpt lat="43.71014" lon="3.09269">
        <ele>684.59997558594</ele>
        <time>2023-05-28T08:06:08.000Z</time>
      </trkpt>
      <trkpt lat="43.71016" lon="3.09265">
        <ele>684.59997558594</ele>
        <time>2023-05-28T08:06:11.000Z</time>
      </trkpt>
      <trkpt lat="43.71017" lon="3.09264">
        <ele>684.59997558594</ele>
        <time>2023-05-28T08:06:13.000Z</time>
      </trkpt>
      <trkpt lat="43.71018" lon="3.09263">
        <ele>684.59997558594</ele>
        <time>2023-05-28T08:06:14.000Z</time>
      </trkpt>
      <trkpt lat="43.71019" lon="3.09261">
        <ele>684.59997558594</ele>
        <time>2023-05-28T08:06:16.000Z</time>
      </trkpt>
      <trkpt lat="43.7102" lon="3.09258">
        <ele>684.79998779297</ele>
        <time>2023-05-28T08:06:18.000Z</time>
      </trkpt>
      <trkpt lat="43.71022" lon="3.09255">
        <ele>685.20001220703</ele>
        <time>2023-05-28T08:06:22.000Z</time>
      </trkpt>
      <trkpt lat="43.71023" lon="3.09254">
        <ele>685.20001220703</ele>
        <time>2023-05-28T08:06:23.000Z</time>
      </trkpt>
      <trkpt lat="43.71023" lon="3.09253">
        <ele>685.40002441406</ele>
        <time>2023-05-28T08:06:24.000Z</time>
      </trkpt>
      <trkpt lat="43.71025" lon="3.09249">
        <ele>685.59997558594</ele>
        <time>2023-05-28T08:06:27.000Z</time>
      </trkpt>
      <trkpt lat="43.71025" lon="3.09248">
        <ele>685.79998779297</ele>
        <time>2023-05-28T08:06:28.000Z</time>
      </trkpt>
      <trkpt lat="43.71027" lon="3.09244">
        <ele>686</ele>
        <time>2023-05-28T08:06:32.000Z</time>
      </trkpt>
      <trkpt lat="43.71033" lon="3.09237">
        <ele>686.59997558594</ele>
        <time>2023-05-28T08:06:40.000Z</time>
      </trkpt>
      <trkpt lat="43.71036" lon="3.09233">
        <ele>687</ele>
        <time>2023-05-28T08:06:45.000Z</time>
      </trkpt>
      <trkpt lat="43.71039" lon="3.0923">
        <ele>687.40002441406</ele>
        <time>2023-05-28T08:06:48.000Z</time>
      </trkpt>
      <trkpt lat="43.71042" lon="3.09227">
        <ele>687.59997558594</ele>
        <time>2023-05-28T08:06:52.000Z</time>
      </trkpt>
      <trkpt lat="43.71044" lon="3.09225">
        <ele>687.59997558594</ele>
        <time>2023-05-28T08:06:55.000Z</time>
      </trkpt>
      <trkpt lat="43.71052" lon="3.0922">
        <ele>688.59997558594</ele>
        <time>2023-05-28T08:07:04.000Z</time>
      </trkpt>
      <trkpt lat="43.71053" lon="3.09219">
        <ele>688.79998779297</ele>
        <time>2023-05-28T08:07:06.000Z</time>
      </trkpt>
      <trkpt lat="43.71059" lon="3.09215">
        <ele>689</ele>
        <time>2023-05-28T08:07:12.000Z</time>
      </trkpt>
      <trkpt lat="43.71069" lon="3.09209">
        <ele>689.79998779297</ele>
        <time>2023-05-28T08:07:23.000Z</time>
      </trkpt>
      <trkpt lat="43.71078" lon="3.09204">
        <ele>690.40002441406</ele>
        <time>2023-05-28T08:07:33.000Z</time>
      </trkpt>
      <trkpt lat="43.71081" lon="3.09201">
        <ele>690.79998779297</ele>
        <time>2023-05-28T08:07:36.000Z</time>
      </trkpt>
      <trkpt lat="43.71084" lon="3.09198">
        <ele>690.79998779297</ele>
        <time>2023-05-28T08:07:40.000Z</time>
      </trkpt>
      <trkpt lat="43.71089" lon="3.09193">
        <ele>691.20001220703</ele>
        <time>2023-05-28T08:07:46.000Z</time>
      </trkpt>
      <trkpt lat="43.71089" lon="3.09192">
        <ele>691.20001220703</ele>
        <time>2023-05-28T08:07:47.000Z</time>
      </trkpt>
      <trkpt lat="43.71094" lon="3.09188">
        <ele>691.79998779297</ele>
        <time>2023-05-28T08:07:53.000Z</time>
      </trkpt>
      <trkpt lat="43.71096" lon="3.09185">
        <ele>692</ele>
        <time>2023-05-28T08:07:56.000Z</time>
      </trkpt>
      <trkpt lat="43.71101" lon="3.09179">
        <ele>692.40002441406</ele>
        <time>2023-05-28T08:08:02.000Z</time>
      </trkpt>
      <trkpt lat="43.71103" lon="3.09178">
        <ele>692.40002441406</ele>
        <time>2023-05-28T08:08:04.000Z</time>
      </trkpt>
      <trkpt lat="43.71106" lon="3.09175">
        <ele>692.79998779297</ele>
        <time>2023-05-28T08:08:08.000Z</time>
      </trkpt>
      <trkpt lat="43.71107" lon="3.09174">
        <ele>692.79998779297</ele>
        <time>2023-05-28T08:08:09.000Z</time>
      </trkpt>
      <trkpt lat="43.71109" lon="3.09173">
        <ele>693</ele>
        <time>2023-05-28T08:08:11.000Z</time>
      </trkpt>
      <trkpt lat="43.71111" lon="3.0917">
        <ele>693.20001220703</ele>
        <time>2023-05-28T08:08:14.000Z</time>
      </trkpt>
      <trkpt lat="43.71114" lon="3.09166">
        <ele>693.59997558594</ele>
        <time>2023-05-28T08:08:18.000Z</time>
      </trkpt>
      <trkpt lat="43.71117" lon="3.09164">
        <ele>693.79998779297</ele>
        <time>2023-05-28T08:08:21.000Z</time>
      </trkpt>
      <trkpt lat="43.71122" lon="3.09161">
        <ele>694.40002441406</ele>
        <time>2023-05-28T08:08:27.000Z</time>
      </trkpt>
      <trkpt lat="43.71123" lon="3.09159">
        <ele>694.59997558594</ele>
        <time>2023-05-28T08:08:29.000Z</time>
      </trkpt>
      <trkpt lat="43.71127" lon="3.09155">
        <ele>695</ele>
        <time>2023-05-28T08:08:34.000Z</time>
      </trkpt>
      <trkpt lat="43.71134" lon="3.09152">
        <ele>695.40002441406</ele>
        <time>2023-05-28T08:08:41.000Z</time>
      </trkpt>
      <trkpt lat="43.71139" lon="3.09148">
        <ele>695.79998779297</ele>
        <time>2023-05-28T08:08:47.000Z</time>
      </trkpt>
      <trkpt lat="43.71139" lon="3.09147">
        <ele>695.79998779297</ele>
        <time>2023-05-28T08:08:48.000Z</time>
      </trkpt>
      <trkpt lat="43.71142" lon="3.09143">
        <ele>696</ele>
        <time>2023-05-28T08:08:52.000Z</time>
      </trkpt>
      <trkpt lat="43.71143" lon="3.09143">
        <ele>696</ele>
        <time>2023-05-28T08:08:53.000Z</time>
      </trkpt>
      <trkpt lat="43.71146" lon="3.09142">
        <ele>696.40002441406</ele>
        <time>2023-05-28T08:08:59.000Z</time>
      </trkpt>
      <trkpt lat="43.71146" lon="3.09143">
        <ele>697</ele>
        <time>2023-05-28T08:09:03.000Z</time>
      </trkpt>
      <trkpt lat="43.71146" lon="3.09143">
        <ele>697.40002441406</ele>
        <time>2023-05-28T08:09:07.000Z</time>
      </trkpt>
      <trkpt lat="43.71148" lon="3.09137">
        <ele>697</ele>
        <time>2023-05-28T08:09:12.000Z</time>
      </trkpt>
      <trkpt lat="43.71149" lon="3.09137">
        <ele>697.40002441406</ele>
        <time>2023-05-28T08:09:18.000Z</time>
      </trkpt>
      <trkpt lat="43.71149" lon="3.09136">
        <ele>697.40002441406</ele>
        <time>2023-05-28T08:09:24.000Z</time>
      </trkpt>
      <trkpt lat="43.71148" lon="3.0914">
        <ele>697</ele>
        <time>2023-05-28T08:09:31.000Z</time>
      </trkpt>
      <trkpt lat="43.71149" lon="3.09141">
        <ele>697</ele>
        <time>2023-05-28T08:09:37.000Z</time>
      </trkpt>
      <trkpt lat="43.71153" lon="3.09138">
        <ele>697</ele>
        <time>2023-05-28T08:09:44.000Z</time>
      </trkpt>
      <trkpt lat="43.71159" lon="3.0914">
        <ele>697.40002441406</ele>
        <time>2023-05-28T08:09:51.000Z</time>
      </trkpt>
      <trkpt lat="43.71165" lon="3.09141">
        <ele>697.40002441406</ele>
        <time>2023-05-28T08:09:59.000Z</time>
      </trkpt>
      <trkpt lat="43.71168" lon="3.0914">
        <ele>697.40002441406</ele>
        <time>2023-05-28T08:10:03.000Z</time>
      </trkpt>
      <trkpt lat="43.7117" lon="3.09138">
        <ele>697.40002441406</ele>
        <time>2023-05-28T08:10:06.000Z</time>
      </trkpt>
      <trkpt lat="43.71173" lon="3.09138">
        <ele>697.20001220703</ele>
        <time>2023-05-28T08:10:12.000Z</time>
      </trkpt>
      <trkpt lat="43.71173" lon="3.09136">
        <ele>696.79998779297</ele>
        <time>2023-05-28T08:10:20.000Z</time>
      </trkpt>
      <trkpt lat="43.71172" lon="3.09139">
        <ele>696.79998779297</ele>
        <time>2023-05-28T08:10:28.000Z</time>
      </trkpt>
      <trkpt lat="43.71172" lon="3.09141">
        <ele>697</ele>
        <time>2023-05-28T08:10:36.000Z</time>
      </trkpt>
      <trkpt lat="43.71172" lon="3.09143">
        <ele>696.79998779297</ele>
        <time>2023-05-28T08:10:44.000Z</time>
      </trkpt>
      <trkpt lat="43.71172" lon="3.09144">
        <ele>697.40002441406</ele>
        <time>2023-05-28T08:10:52.000Z</time>
      </trkpt>
      <trkpt lat="43.71172" lon="3.09143">
        <ele>697</ele>
        <time>2023-05-28T08:11:02.000Z</time>
      </trkpt>
      <trkpt lat="43.71173" lon="3.09143">
        <ele>696.79998779297</ele>
        <time>2023-05-28T08:11:09.000Z</time>
      </trkpt>
      <trkpt lat="43.71173" lon="3.09143">
        <ele>696.59997558594</ele>
        <time>2023-05-28T08:11:13.000Z</time>
      </trkpt>
      <trkpt lat="43.71174" lon="3.09141">
        <ele>696.20001220703</ele>
        <time>2023-05-28T08:11:24.000Z</time>
      </trkpt>
      <trkpt lat="43.71174" lon="3.09139">
        <ele>696.40002441406</ele>
        <time>2023-05-28T08:11:42.000Z</time>
      </trkpt>
      <trkpt lat="43.71173" lon="3.09139">
        <ele>696.40002441406</ele>
        <time>2023-05-28T08:12:01.000Z</time>
      </trkpt>
      <trkpt lat="43.71174" lon="3.09137">
        <ele>696.40002441406</ele>
        <time>2023-05-28T08:12:22.000Z</time>
      </trkpt>
      <trkpt lat="43.71175" lon="3.09135">
        <ele>696.59997558594</ele>
        <time>2023-05-28T08:12:32.000Z</time>
      </trkpt>
      <trkpt lat="43.71175" lon="3.09136">
        <ele>696</ele>
        <time>2023-05-28T08:12:38.000Z</time>
      </trkpt>
      <trkpt lat="43.71174" lon="3.09136">
        <ele>696</ele>
        <time>2023-05-28T08:12:58.000Z</time>
      </trkpt>
      <trkpt lat="43.71173" lon="3.09136">
        <ele>696</ele>
        <time>2023-05-28T08:13:11.000Z</time>
      </trkpt>
      <trkpt lat="43.71175" lon="3.09136">
        <ele>696.40002441406</ele>
        <time>2023-05-28T08:13:20.000Z</time>
      </trkpt>
      <trkpt lat="43.71175" lon="3.09137">
        <ele>696.59997558594</ele>
        <time>2023-05-28T08:13:40.000Z</time>
      </trkpt>
      <trkpt lat="43.71175" lon="3.09138">
        <ele>696.59997558594</ele>
        <time>2023-05-28T08:13:58.000Z</time>
      </trkpt>
      <trkpt lat="43.71175" lon="3.09138">
        <ele>696.59997558594</ele>
        <time>2023-05-28T08:14:04.000Z</time>
      </trkpt>
      <trkpt lat="43.71178" lon="3.09137">
        <ele>696.59997558594</ele>
        <time>2023-05-28T08:14:16.000Z</time>
      </trkpt>
      <trkpt lat="43.71168" lon="3.09139">
        <ele>696.59997558594</ele>
        <time>2023-05-28T08:14:49.000Z</time>
      </trkpt>
      <trkpt lat="43.71168" lon="3.09139">
        <ele>696.79998779297</ele>
        <time>2023-05-28T08:15:02.000Z</time>
      </trkpt>
      <trkpt lat="43.71177" lon="3.09141">
        <ele>696.59997558594</ele>
        <time>2023-05-28T08:15:24.000Z</time>
      </trkpt>
      <trkpt lat="43.71177" lon="3.09141">
        <ele>696.59997558594</ele>
        <time>2023-05-28T08:15:35.000Z</time>
      </trkpt>
      <trkpt lat="43.71177" lon="3.09141">
        <ele>696.59997558594</ele>
        <time>2023-05-28T08:15:58.000Z</time>
      </trkpt>
      <trkpt lat="43.71177" lon="3.0914">
        <ele>696.40002441406</ele>
        <time>2023-05-28T08:16:10.000Z</time>
      </trkpt>
      <trkpt lat="43.71178" lon="3.09141">
        <ele>696.20001220703</ele>
        <time>2023-05-28T08:16:15.000Z</time>
      </trkpt>
      <trkpt lat="43.71179" lon="3.0914">
        <ele>696.59997558594</ele>
        <time>2023-05-28T08:16:20.000Z</time>
      </trkpt>
      <trkpt lat="43.71178" lon="3.0914">
        <ele>696.59997558594</ele>
        <time>2023-05-28T08:16:27.000Z</time>
      </trkpt>
      <trkpt lat="43.71176" lon="3.09143">
        <ele>697</ele>
        <time>2023-05-28T08:16:35.000Z</time>
      </trkpt>
      <trkpt lat="43.71175" lon="3.09142">
        <ele>697</ele>
        <time>2023-05-28T08:16:43.000Z</time>
      </trkpt>
      <trkpt lat="43.71175" lon="3.09142">
        <ele>697</ele>
        <time>2023-05-28T08:16:45.000Z</time>
      </trkpt>
      <trkpt lat="43.71176" lon="3.0914">
        <ele>696.79998779297</ele>
        <time>2023-05-28T08:16:51.000Z</time>
      </trkpt>
      <trkpt lat="43.71177" lon="3.0914">
        <ele>696.79998779297</ele>
        <time>2023-05-28T08:17:00.000Z</time>
      </trkpt>
      <trkpt lat="43.71177" lon="3.09141">
        <ele>697.20001220703</ele>
        <time>2023-05-28T08:17:06.000Z</time>
      </trkpt>
      <trkpt lat="43.71177" lon="3.09143">
        <ele>697.20001220703</ele>
        <time>2023-05-28T08:17:13.000Z</time>
      </trkpt>
      <trkpt lat="43.71177" lon="3.09144">
        <ele>696.79998779297</ele>
        <time>2023-05-28T08:17:20.000Z</time>
      </trkpt>
      <trkpt lat="43.71177" lon="3.09145">
        <ele>697.20001220703</ele>
        <time>2023-05-28T08:17:27.000Z</time>
      </trkpt>
      <trkpt lat="43.71176" lon="3.09146">
        <ele>696.59997558594</ele>
        <time>2023-05-28T08:17:36.000Z</time>
      </trkpt>
      <trkpt lat="43.71176" lon="3.09145">
        <ele>697.40002441406</ele>
        <time>2023-05-28T08:17:45.000Z</time>
      </trkpt>
      <trkpt lat="43.71175" lon="3.09146">
        <ele>697</ele>
        <time>2023-05-28T08:17:53.000Z</time>
      </trkpt>
      <trkpt lat="43.71171" lon="3.09146">
        <ele>697</ele>
        <time>2023-05-28T08:17:58.000Z</time>
      </trkpt>
      <trkpt lat="43.71165" lon="3.09144">
        <ele>697.59997558594</ele>
        <time>2023-05-28T08:18:05.000Z</time>
      </trkpt>
      <trkpt lat="43.71163" lon="3.09136">
        <ele>698.20001220703</ele>
        <time>2023-05-28T08:18:13.000Z</time>
      </trkpt>
      <trkpt lat="43.71167" lon="3.09131">
        <ele>698.79998779297</ele>
        <time>2023-05-28T08:18:21.000Z</time>
      </trkpt>
      <trkpt lat="43.71168" lon="3.09128">
        <ele>699.20001220703</ele>
        <time>2023-05-28T08:18:25.000Z</time>
      </trkpt>
      <trkpt lat="43.7117" lon="3.09125">
        <ele>699.59997558594</ele>
        <time>2023-05-28T08:18:29.000Z</time>
      </trkpt>
      <trkpt lat="43.71171" lon="3.0912">
        <ele>700.20001220703</ele>
        <time>2023-05-28T08:18:35.000Z</time>
      </trkpt>
      <trkpt lat="43.71172" lon="3.09119">
        <ele>700.20001220703</ele>
        <time>2023-05-28T08:18:36.000Z</time>
      </trkpt>
      <trkpt lat="43.71172" lon="3.09114">
        <ele>700.40002441406</ele>
        <time>2023-05-28T08:18:42.000Z</time>
      </trkpt>
      <trkpt lat="43.71176" lon="3.09108">
        <ele>700.79998779297</ele>
        <time>2023-05-28T08:18:50.000Z</time>
      </trkpt>
      <trkpt lat="43.71177" lon="3.09103">
        <ele>701.40002441406</ele>
        <time>2023-05-28T08:18:55.000Z</time>
      </trkpt>
      <trkpt lat="43.71177" lon="3.09102">
        <ele>701.59997558594</ele>
        <time>2023-05-28T08:18:57.000Z</time>
      </trkpt>
      <trkpt lat="43.71178" lon="3.09096">
        <ele>702</ele>
        <time>2023-05-28T08:19:03.000Z</time>
      </trkpt>
      <trkpt lat="43.71179" lon="3.09091">
        <ele>702.40002441406</ele>
        <time>2023-05-28T08:19:08.000Z</time>
      </trkpt>
      <trkpt lat="43.71179" lon="3.09089">
        <ele>702.40002441406</ele>
        <time>2023-05-28T08:19:10.000Z</time>
      </trkpt>
      <trkpt lat="43.71181" lon="3.09081">
        <ele>703.20001220703</ele>
        <time>2023-05-28T08:19:18.000Z</time>
      </trkpt>
      <trkpt lat="43.71181" lon="3.0908">
        <ele>703.40002441406</ele>
        <time>2023-05-28T08:19:19.000Z</time>
      </trkpt>
      <trkpt lat="43.71182" lon="3.09073">
        <ele>704.40002441406</ele>
        <time>2023-05-28T08:19:26.000Z</time>
      </trkpt>
      <trkpt lat="43.71185" lon="3.09069">
        <ele>704.79998779297</ele>
        <time>2023-05-28T08:19:32.000Z</time>
      </trkpt>
      <trkpt lat="43.71187" lon="3.09064">
        <ele>705.40002441406</ele>
        <time>2023-05-28T08:19:40.000Z</time>
      </trkpt>
      <trkpt lat="43.71186" lon="3.09063">
        <ele>705.59997558594</ele>
        <time>2023-05-28T08:19:42.000Z</time>
      </trkpt>
      <trkpt lat="43.71187" lon="3.0906">
        <ele>705.79998779297</ele>
        <time>2023-05-28T08:19:46.000Z</time>
      </trkpt>
      <trkpt lat="43.71188" lon="3.09055">
        <ele>706.59997558594</ele>
        <time>2023-05-28T08:19:53.000Z</time>
      </trkpt>
      <trkpt lat="43.71188" lon="3.09054">
        <ele>706.79998779297</ele>
        <time>2023-05-28T08:19:55.000Z</time>
      </trkpt>
      <trkpt lat="43.7119" lon="3.0905">
        <ele>707.20001220703</ele>
        <time>2023-05-28T08:20:01.000Z</time>
      </trkpt>
      <trkpt lat="43.71191" lon="3.09046">
        <ele>707.59997558594</ele>
        <time>2023-05-28T08:20:06.000Z</time>
      </trkpt>
      <trkpt lat="43.71191" lon="3.09045">
        <ele>707.79998779297</ele>
        <time>2023-05-28T08:20:07.000Z</time>
      </trkpt>
      <trkpt lat="43.71194" lon="3.0904">
        <ele>708.40002441406</ele>
        <time>2023-05-28T08:20:14.000Z</time>
      </trkpt>
      <trkpt lat="43.71195" lon="3.09037">
        <ele>708.79998779297</ele>
        <time>2023-05-28T08:20:20.000Z</time>
      </trkpt>
      <trkpt lat="43.71196" lon="3.09038">
        <ele>708.79998779297</ele>
        <time>2023-05-28T08:20:22.000Z</time>
      </trkpt>
      <trkpt lat="43.71199" lon="3.09028">
        <ele>709.40002441406</ele>
        <time>2023-05-28T08:20:29.000Z</time>
      </trkpt>
      <trkpt lat="43.71203" lon="3.09024">
        <ele>709.79998779297</ele>
        <time>2023-05-28T08:20:33.000Z</time>
      </trkpt>
      <trkpt lat="43.71205" lon="3.09021">
        <ele>710</ele>
        <time>2023-05-28T08:20:36.000Z</time>
      </trkpt>
      <trkpt lat="43.71211" lon="3.09016">
        <ele>710.20001220703</ele>
        <time>2023-05-28T08:20:45.000Z</time>
      </trkpt>
      <trkpt lat="43.71211" lon="3.09014">
        <ele>710.40002441406</ele>
        <time>2023-05-28T08:20:47.000Z</time>
      </trkpt>
      <trkpt lat="43.71214" lon="3.0901">
        <ele>710.59997558594</ele>
        <time>2023-05-28T08:20:53.000Z</time>
      </trkpt>
      <trkpt lat="43.71215" lon="3.09008">
        <ele>710.79998779297</ele>
        <time>2023-05-28T08:20:54.000Z</time>
      </trkpt>
      <trkpt lat="43.71217" lon="3.09004">
        <ele>711.20001220703</ele>
        <time>2023-05-28T08:20:59.000Z</time>
      </trkpt>
      <trkpt lat="43.71221" lon="3.09">
        <ele>711.79998779297</ele>
        <time>2023-05-28T08:21:07.000Z</time>
      </trkpt>
      <trkpt lat="43.71221" lon="3.08998">
        <ele>711.79998779297</ele>
        <time>2023-05-28T08:21:08.000Z</time>
      </trkpt>
      <trkpt lat="43.71224" lon="3.08994">
        <ele>712</ele>
        <time>2023-05-28T08:21:11.000Z</time>
      </trkpt>
      <trkpt lat="43.71227" lon="3.08992">
        <ele>712.20001220703</ele>
        <time>2023-05-28T08:21:15.000Z</time>
      </trkpt>
      <trkpt lat="43.71229" lon="3.08988">
        <ele>712.40002441406</ele>
        <time>2023-05-28T08:21:18.000Z</time>
      </trkpt>
      <trkpt lat="43.71231" lon="3.08985">
        <ele>712.59997558594</ele>
        <time>2023-05-28T08:21:21.000Z</time>
      </trkpt>
      <trkpt lat="43.71232" lon="3.08983">
        <ele>712.59997558594</ele>
        <time>2023-05-28T08:21:23.000Z</time>
      </trkpt>
      <trkpt lat="43.71233" lon="3.08982">
        <ele>712.59997558594</ele>
        <time>2023-05-28T08:21:25.000Z</time>
      </trkpt>
      <trkpt lat="43.71234" lon="3.0898">
        <ele>712.59997558594</ele>
        <time>2023-05-28T08:21:27.000Z</time>
      </trkpt>
      <trkpt lat="43.71235" lon="3.08978">
        <ele>712.59997558594</ele>
        <time>2023-05-28T08:21:29.000Z</time>
      </trkpt>
      <trkpt lat="43.71236" lon="3.08977">
        <ele>712.59997558594</ele>
        <time>2023-05-28T08:21:30.000Z</time>
      </trkpt>
      <trkpt lat="43.71239" lon="3.08973">
        <ele>712.79998779297</ele>
        <time>2023-05-28T08:21:35.000Z</time>
      </trkpt>
      <trkpt lat="43.71239" lon="3.08971">
        <ele>713</ele>
        <time>2023-05-28T08:21:37.000Z</time>
      </trkpt>
      <trkpt lat="43.71242" lon="3.08968">
        <ele>713.40002441406</ele>
        <time>2023-05-28T08:21:44.000Z</time>
      </trkpt>
      <trkpt lat="43.71246" lon="3.08962">
        <ele>713.79998779297</ele>
        <time>2023-05-28T08:21:51.000Z</time>
      </trkpt>
      <trkpt lat="43.71246" lon="3.08961">
        <ele>714</ele>
        <time>2023-05-28T08:21:52.000Z</time>
      </trkpt>
      <trkpt lat="43.71249" lon="3.08957">
        <ele>715</ele>
        <time>2023-05-28T08:21:59.000Z</time>
      </trkpt>
      <trkpt lat="43.71252" lon="3.08953">
        <ele>715.59997558594</ele>
        <time>2023-05-28T08:22:06.000Z</time>
      </trkpt>
      <trkpt lat="43.71253" lon="3.08949">
        <ele>716</ele>
        <time>2023-05-28T08:22:11.000Z</time>
      </trkpt>
      <trkpt lat="43.71253" lon="3.08947">
        <ele>716</ele>
        <time>2023-05-28T08:22:13.000Z</time>
      </trkpt>
      <trkpt lat="43.71255" lon="3.08941">
        <ele>716.20001220703</ele>
        <time>2023-05-28T08:22:20.000Z</time>
      </trkpt>
      <trkpt lat="43.71256" lon="3.0894">
        <ele>716.59997558594</ele>
        <time>2023-05-28T08:22:27.000Z</time>
      </trkpt>
      <trkpt lat="43.71256" lon="3.08937">
        <ele>717.20001220703</ele>
        <time>2023-05-28T08:22:29.000Z</time>
      </trkpt>
      <trkpt lat="43.71255" lon="3.08932">
        <ele>717.20001220703</ele>
        <time>2023-05-28T08:22:36.000Z</time>
      </trkpt>
      <trkpt lat="43.71257" lon="3.08921">
        <ele>717.40002441406</ele>
        <time>2023-05-28T08:22:46.000Z</time>
      </trkpt>
      <trkpt lat="43.71257" lon="3.0892">
        <ele>717.59997558594</ele>
        <time>2023-05-28T08:22:47.000Z</time>
      </trkpt>
      <trkpt lat="43.71257" lon="3.08914">
        <ele>718.20001220703</ele>
        <time>2023-05-28T08:22:53.000Z</time>
      </trkpt>
      <trkpt lat="43.71256" lon="3.08907">
        <ele>718.59997558594</ele>
        <time>2023-05-28T08:23:01.000Z</time>
      </trkpt>
      <trkpt lat="43.71256" lon="3.08902">
        <ele>719.20001220703</ele>
        <time>2023-05-28T08:23:06.000Z</time>
      </trkpt>
      <trkpt lat="43.71257" lon="3.089">
        <ele>719.40002441406</ele>
        <time>2023-05-28T08:23:09.000Z</time>
      </trkpt>
      <trkpt lat="43.71257" lon="3.08897">
        <ele>719.59997558594</ele>
        <time>2023-05-28T08:23:14.000Z</time>
      </trkpt>
      <trkpt lat="43.71256" lon="3.08895">
        <ele>720.20001220703</ele>
        <time>2023-05-28T08:23:21.000Z</time>
      </trkpt>
      <trkpt lat="43.71252" lon="3.08889">
        <ele>720.40002441406</ele>
        <time>2023-05-28T08:23:31.000Z</time>
      </trkpt>
      <trkpt lat="43.7125" lon="3.0888">
        <ele>721</ele>
        <time>2023-05-28T08:23:41.000Z</time>
      </trkpt>
      <trkpt lat="43.7125" lon="3.08877">
        <ele>721.20001220703</ele>
        <time>2023-05-28T08:23:44.000Z</time>
      </trkpt>
      <trkpt lat="43.71248" lon="3.08871">
        <ele>721.59997558594</ele>
        <time>2023-05-28T08:23:50.000Z</time>
      </trkpt>
      <trkpt lat="43.71246" lon="3.08865">
        <ele>722.20001220703</ele>
        <time>2023-05-28T08:23:57.000Z</time>
      </trkpt>
      <trkpt lat="43.71245" lon="3.08863">
        <ele>722.59997558594</ele>
        <time>2023-05-28T08:23:59.000Z</time>
      </trkpt>
      <trkpt lat="43.71244" lon="3.08858">
        <ele>723.20001220703</ele>
        <time>2023-05-28T08:24:05.000Z</time>
      </trkpt>
      <trkpt lat="43.71243" lon="3.08856">
        <ele>723.40002441406</ele>
        <time>2023-05-28T08:24:07.000Z</time>
      </trkpt>
      <trkpt lat="43.71242" lon="3.0885">
        <ele>723.59997558594</ele>
        <time>2023-05-28T08:24:14.000Z</time>
      </trkpt>
      <trkpt lat="43.7124" lon="3.08847">
        <ele>723.79998779297</ele>
        <time>2023-05-28T08:24:20.000Z</time>
      </trkpt>
      <trkpt lat="43.71238" lon="3.08838">
        <ele>724.20001220703</ele>
        <time>2023-05-28T08:24:28.000Z</time>
      </trkpt>
      <trkpt lat="43.71238" lon="3.08837">
        <ele>724.20001220703</ele>
        <time>2023-05-28T08:24:30.000Z</time>
      </trkpt>
      <trkpt lat="43.71237" lon="3.08833">
        <ele>725.20001220703</ele>
        <time>2023-05-28T08:24:35.000Z</time>
      </trkpt>
      <trkpt lat="43.71237" lon="3.0883">
        <ele>725.40002441406</ele>
        <time>2023-05-28T08:24:38.000Z</time>
      </trkpt>
      <trkpt lat="43.71235" lon="3.08824">
        <ele>726</ele>
        <time>2023-05-28T08:24:44.000Z</time>
      </trkpt>
      <trkpt lat="43.71234" lon="3.08819">
        <ele>726.40002441406</ele>
        <time>2023-05-28T08:24:50.000Z</time>
      </trkpt>
      <trkpt lat="43.71234" lon="3.08818">
        <ele>726.59997558594</ele>
        <time>2023-05-28T08:24:51.000Z</time>
      </trkpt>
      <trkpt lat="43.71232" lon="3.08812">
        <ele>727.40002441406</ele>
        <time>2023-05-28T08:24:59.000Z</time>
      </trkpt>
      <trkpt lat="43.71231" lon="3.08811">
        <ele>727.40002441406</ele>
        <time>2023-05-28T08:25:00.000Z</time>
      </trkpt>
      <trkpt lat="43.71229" lon="3.08806">
        <ele>727.79998779297</ele>
        <time>2023-05-28T08:25:07.000Z</time>
      </trkpt>
      <trkpt lat="43.71228" lon="3.08802">
        <ele>728.40002441406</ele>
        <time>2023-05-28T08:25:12.000Z</time>
      </trkpt>
      <trkpt lat="43.71228" lon="3.08801">
        <ele>728.79998779297</ele>
        <time>2023-05-28T08:25:15.000Z</time>
      </trkpt>
      <trkpt lat="43.71225" lon="3.08796">
        <ele>729.40002441406</ele>
        <time>2023-05-28T08:25:22.000Z</time>
      </trkpt>
      <trkpt lat="43.71224" lon="3.08795">
        <ele>729.59997558594</ele>
        <time>2023-05-28T08:25:24.000Z</time>
      </trkpt>
      <trkpt lat="43.71222" lon="3.0879">
        <ele>730</ele>
        <time>2023-05-28T08:25:29.000Z</time>
      </trkpt>
      <trkpt lat="43.71219" lon="3.08784">
        <ele>730.40002441406</ele>
        <time>2023-05-28T08:25:36.000Z</time>
      </trkpt>
      <trkpt lat="43.71219" lon="3.08781">
        <ele>730.59997558594</ele>
        <time>2023-05-28T08:25:38.000Z</time>
      </trkpt>
      <trkpt lat="43.71216" lon="3.08776">
        <ele>731</ele>
        <time>2023-05-28T08:25:44.000Z</time>
      </trkpt>
      <trkpt lat="43.71214" lon="3.08771">
        <ele>731.40002441406</ele>
        <time>2023-05-28T08:25:51.000Z</time>
      </trkpt>
      <trkpt lat="43.71213" lon="3.0877">
        <ele>731.59997558594</ele>
        <time>2023-05-28T08:25:53.000Z</time>
      </trkpt>
      <trkpt lat="43.7121" lon="3.08765">
        <ele>731.79998779297</ele>
        <time>2023-05-28T08:25:58.000Z</time>
      </trkpt>
      <trkpt lat="43.71207" lon="3.08759">
        <ele>732.40002441406</ele>
        <time>2023-05-28T08:26:06.000Z</time>
      </trkpt>
      <trkpt lat="43.71206" lon="3.08756">
        <ele>732.79998779297</ele>
        <time>2023-05-28T08:26:10.000Z</time>
      </trkpt>
      <trkpt lat="43.71205" lon="3.08752">
        <ele>733</ele>
        <time>2023-05-28T08:26:14.000Z</time>
      </trkpt>
      <trkpt lat="43.71202" lon="3.08746">
        <ele>733.20001220703</ele>
        <time>2023-05-28T08:26:21.000Z</time>
      </trkpt>
      <trkpt lat="43.712" lon="3.0874">
        <ele>733.79998779297</ele>
        <time>2023-05-28T08:26:29.000Z</time>
      </trkpt>
      <trkpt lat="43.71198" lon="3.08733">
        <ele>734.59997558594</ele>
        <time>2023-05-28T08:26:37.000Z</time>
      </trkpt>
      <trkpt lat="43.71198" lon="3.08729">
        <ele>734.79998779297</ele>
        <time>2023-05-28T08:26:41.000Z</time>
      </trkpt>
      <trkpt lat="43.71197" lon="3.08726">
        <ele>735</ele>
        <time>2023-05-28T08:26:44.000Z</time>
      </trkpt>
      <trkpt lat="43.71196" lon="3.08718">
        <ele>735.59997558594</ele>
        <time>2023-05-28T08:26:52.000Z</time>
      </trkpt>
      <trkpt lat="43.71196" lon="3.08714">
        <ele>736</ele>
        <time>2023-05-28T08:26:56.000Z</time>
      </trkpt>
      <trkpt lat="43.71195" lon="3.08709">
        <ele>736.40002441406</ele>
        <time>2023-05-28T08:27:01.000Z</time>
      </trkpt>
      <trkpt lat="43.71194" lon="3.087">
        <ele>736.79998779297</ele>
        <time>2023-05-28T08:27:09.000Z</time>
      </trkpt>
      <trkpt lat="43.71193" lon="3.08697">
        <ele>737</ele>
        <time>2023-05-28T08:27:12.000Z</time>
      </trkpt>
      <trkpt lat="43.71193" lon="3.08692">
        <ele>737.40002441406</ele>
        <time>2023-05-28T08:27:17.000Z</time>
      </trkpt>
      <trkpt lat="43.71192" lon="3.08692">
        <ele>737.59997558594</ele>
        <time>2023-05-28T08:27:24.000Z</time>
      </trkpt>
      <trkpt lat="43.71193" lon="3.08685">
        <ele>737.79998779297</ele>
        <time>2023-05-28T08:27:30.000Z</time>
      </trkpt>
      <trkpt lat="43.71192" lon="3.08684">
        <ele>738.20001220703</ele>
        <time>2023-05-28T08:27:31.000Z</time>
      </trkpt>
      <trkpt lat="43.71192" lon="3.08677">
        <ele>738.59997558594</ele>
        <time>2023-05-28T08:27:37.000Z</time>
      </trkpt>
      <trkpt lat="43.71191" lon="3.08671">
        <ele>739.20001220703</ele>
        <time>2023-05-28T08:27:45.000Z</time>
      </trkpt>
      <trkpt lat="43.71191" lon="3.08665">
        <ele>740.20001220703</ele>
        <time>2023-05-28T08:27:51.000Z</time>
      </trkpt>
      <trkpt lat="43.71191" lon="3.08663">
        <ele>740.40002441406</ele>
        <time>2023-05-28T08:27:53.000Z</time>
      </trkpt>
      <trkpt lat="43.7119" lon="3.08657">
        <ele>740.59997558594</ele>
        <time>2023-05-28T08:28:00.000Z</time>
      </trkpt>
      <trkpt lat="43.7119" lon="3.08648">
        <ele>741.20001220703</ele>
        <time>2023-05-28T08:28:09.000Z</time>
      </trkpt>
      <trkpt lat="43.7119" lon="3.08647">
        <ele>741.20001220703</ele>
        <time>2023-05-28T08:28:10.000Z</time>
      </trkpt>
      <trkpt lat="43.71189" lon="3.08642">
        <ele>741.59997558594</ele>
        <time>2023-05-28T08:28:15.000Z</time>
      </trkpt>
      <trkpt lat="43.71188" lon="3.08634">
        <ele>742</ele>
        <time>2023-05-28T08:28:23.000Z</time>
      </trkpt>
      <trkpt lat="43.71188" lon="3.08631">
        <ele>742.20001220703</ele>
        <time>2023-05-28T08:28:26.000Z</time>
      </trkpt>
      <trkpt lat="43.71188" lon="3.08624">
        <ele>742.59997558594</ele>
        <time>2023-05-28T08:28:32.000Z</time>
      </trkpt>
      <trkpt lat="43.71186" lon="3.08617">
        <ele>743</ele>
        <time>2023-05-28T08:28:39.000Z</time>
      </trkpt>
      <trkpt lat="43.71186" lon="3.08613">
        <ele>743.20001220703</ele>
        <time>2023-05-28T08:28:42.000Z</time>
      </trkpt>
      <trkpt lat="43.71186" lon="3.08606">
        <ele>743.79998779297</ele>
        <time>2023-05-28T08:28:49.000Z</time>
      </trkpt>
      <trkpt lat="43.71185" lon="3.08604">
        <ele>744</ele>
        <time>2023-05-28T08:28:51.000Z</time>
      </trkpt>
      <trkpt lat="43.71186" lon="3.086">
        <ele>744.20001220703</ele>
        <time>2023-05-28T08:28:55.000Z</time>
      </trkpt>
      <trkpt lat="43.71186" lon="3.086">
        <ele>744.40002441406</ele>
        <time>2023-05-28T08:28:56.000Z</time>
      </trkpt>
      <trkpt lat="43.71185" lon="3.08593">
        <ele>744.79998779297</ele>
        <time>2023-05-28T08:29:03.000Z</time>
      </trkpt>
      <trkpt lat="43.71184" lon="3.08587">
        <ele>745.40002441406</ele>
        <time>2023-05-28T08:29:10.000Z</time>
      </trkpt>
      <trkpt lat="43.71184" lon="3.08584">
        <ele>745.40002441406</ele>
        <time>2023-05-28T08:29:13.000Z</time>
      </trkpt>
      <trkpt lat="43.71184" lon="3.08577">
        <ele>746</ele>
        <time>2023-05-28T08:29:21.000Z</time>
      </trkpt>
      <trkpt lat="43.71183" lon="3.08572">
        <ele>746.40002441406</ele>
        <time>2023-05-28T08:29:26.000Z</time>
      </trkpt>
      <trkpt lat="43.71183" lon="3.08569">
        <ele>746.40002441406</ele>
        <time>2023-05-28T08:29:29.000Z</time>
      </trkpt>
      <trkpt lat="43.71182" lon="3.08562">
        <ele>746.79998779297</ele>
        <time>2023-05-28T08:29:37.000Z</time>
      </trkpt>
      <trkpt lat="43.71181" lon="3.08556">
        <ele>747.40002441406</ele>
        <time>2023-05-28T08:29:44.000Z</time>
      </trkpt>
      <trkpt lat="43.71181" lon="3.08556">
        <ele>747.59997558594</ele>
        <time>2023-05-28T08:29:45.000Z</time>
      </trkpt>
      <trkpt lat="43.71179" lon="3.08549">
        <ele>748</ele>
        <time>2023-05-28T08:29:52.000Z</time>
      </trkpt>
      <trkpt lat="43.71178" lon="3.08541">
        <ele>748.40002441406</ele>
        <time>2023-05-28T08:30:00.000Z</time>
      </trkpt>
      <trkpt lat="43.71177" lon="3.0854">
        <ele>748.59997558594</ele>
        <time>2023-05-28T08:30:01.000Z</time>
      </trkpt>
      <trkpt lat="43.71176" lon="3.08533">
        <ele>749</ele>
        <time>2023-05-28T08:30:08.000Z</time>
      </trkpt>
      <trkpt lat="43.71175" lon="3.08528">
        <ele>749.59997558594</ele>
        <time>2023-05-28T08:30:13.000Z</time>
      </trkpt>
      <trkpt lat="43.71174" lon="3.08525">
        <ele>749.79998779297</ele>
        <time>2023-05-28T08:30:15.000Z</time>
      </trkpt>
      <trkpt lat="43.71174" lon="3.0852">
        <ele>750.40002441406</ele>
        <time>2023-05-28T08:30:22.000Z</time>
      </trkpt>
      <trkpt lat="43.71173" lon="3.08517">
        <ele>750.59997558594</ele>
        <time>2023-05-28T08:30:24.000Z</time>
      </trkpt>
      <trkpt lat="43.71172" lon="3.08513">
        <ele>751</ele>
        <time>2023-05-28T08:30:28.000Z</time>
      </trkpt>
      <trkpt lat="43.71171" lon="3.08507">
        <ele>751.40002441406</ele>
        <time>2023-05-28T08:30:35.000Z</time>
      </trkpt>
      <trkpt lat="43.7117" lon="3.08504">
        <ele>751.59997558594</ele>
        <time>2023-05-28T08:30:38.000Z</time>
      </trkpt>
      <trkpt lat="43.71169" lon="3.08499">
        <ele>752.59997558594</ele>
        <time>2023-05-28T08:30:45.000Z</time>
      </trkpt>
      <trkpt lat="43.71168" lon="3.08498">
        <ele>752.79998779297</ele>
        <time>2023-05-28T08:30:46.000Z</time>
      </trkpt>
      <trkpt lat="43.71167" lon="3.08492">
        <ele>753.40002441406</ele>
        <time>2023-05-28T08:30:55.000Z</time>
      </trkpt>
      <trkpt lat="43.71165" lon="3.08489">
        <ele>753.79998779297</ele>
        <time>2023-05-28T08:30:59.000Z</time>
      </trkpt>
      <trkpt lat="43.71165" lon="3.08486">
        <ele>754</ele>
        <time>2023-05-28T08:31:02.000Z</time>
      </trkpt>
      <trkpt lat="43.71164" lon="3.08479">
        <ele>754.59997558594</ele>
        <time>2023-05-28T08:31:11.000Z</time>
      </trkpt>
      <trkpt lat="43.71164" lon="3.08477">
        <ele>754.79998779297</ele>
        <time>2023-05-28T08:31:14.000Z</time>
      </trkpt>
      <trkpt lat="43.71163" lon="3.08473">
        <ele>755.20001220703</ele>
        <time>2023-05-28T08:31:19.000Z</time>
      </trkpt>
      <trkpt lat="43.71163" lon="3.08471">
        <ele>755.79998779297</ele>
        <time>2023-05-28T08:31:26.000Z</time>
      </trkpt>
      <trkpt lat="43.71159" lon="3.08464">
        <ele>755.59997558594</ele>
        <time>2023-05-28T08:31:33.000Z</time>
      </trkpt>
      <trkpt lat="43.71157" lon="3.08458">
        <ele>756</ele>
        <time>2023-05-28T08:31:40.000Z</time>
      </trkpt>
      <trkpt lat="43.71156" lon="3.0845">
        <ele>756.79998779297</ele>
        <time>2023-05-28T08:31:48.000Z</time>
      </trkpt>
      <trkpt lat="43.71156" lon="3.08449">
        <ele>756.79998779297</ele>
        <time>2023-05-28T08:31:49.000Z</time>
      </trkpt>
      <trkpt lat="43.71154" lon="3.08443">
        <ele>757.40002441406</ele>
        <time>2023-05-28T08:31:56.000Z</time>
      </trkpt>
      <trkpt lat="43.71153" lon="3.08438">
        <ele>758</ele>
        <time>2023-05-28T08:32:03.000Z</time>
      </trkpt>
      <trkpt lat="43.71154" lon="3.08434">
        <ele>758.40002441406</ele>
        <time>2023-05-28T08:32:08.000Z</time>
      </trkpt>
      <trkpt lat="43.71153" lon="3.08428">
        <ele>759</ele>
        <time>2023-05-28T08:32:16.000Z</time>
      </trkpt>
      <trkpt lat="43.71152" lon="3.08425">
        <ele>759.79998779297</ele>
        <time>2023-05-28T08:32:24.000Z</time>
      </trkpt>
      <trkpt lat="43.71152" lon="3.08425">
        <ele>760</ele>
        <time>2023-05-28T08:32:27.000Z</time>
      </trkpt>
      <trkpt lat="43.71152" lon="3.08422">
        <ele>760.20001220703</ele>
        <time>2023-05-28T08:32:36.000Z</time>
      </trkpt>
      <trkpt lat="43.71149" lon="3.08417">
        <ele>760.20001220703</ele>
        <time>2023-05-28T08:32:47.000Z</time>
      </trkpt>
      <trkpt lat="43.71149" lon="3.08408">
        <ele>760</ele>
        <time>2023-05-28T08:32:54.000Z</time>
      </trkpt>
      <trkpt lat="43.71148" lon="3.08406">
        <ele>760</ele>
        <time>2023-05-28T08:32:57.000Z</time>
      </trkpt>
      <trkpt lat="43.71147" lon="3.08404">
        <ele>760.20001220703</ele>
        <time>2023-05-28T08:32:59.000Z</time>
      </trkpt>
      <trkpt lat="43.71148" lon="3.08399">
        <ele>760.79998779297</ele>
        <time>2023-05-28T08:33:05.000Z</time>
      </trkpt>
      <trkpt lat="43.71148" lon="3.08395">
        <ele>761</ele>
        <time>2023-05-28T08:33:09.000Z</time>
      </trkpt>
      <trkpt lat="43.71148" lon="3.08392">
        <ele>761.79998779297</ele>
        <time>2023-05-28T08:33:13.000Z</time>
      </trkpt>
      <trkpt lat="43.71148" lon="3.0839">
        <ele>762.20001220703</ele>
        <time>2023-05-28T08:33:15.000Z</time>
      </trkpt>
      <trkpt lat="43.71149" lon="3.08386">
        <ele>762.40002441406</ele>
        <time>2023-05-28T08:33:20.000Z</time>
      </trkpt>
      <trkpt lat="43.7115" lon="3.0838">
        <ele>762.79998779297</ele>
        <time>2023-05-28T08:33:27.000Z</time>
      </trkpt>
      <trkpt lat="43.7115" lon="3.08373">
        <ele>763</ele>
        <time>2023-05-28T08:33:34.000Z</time>
      </trkpt>
      <trkpt lat="43.7115" lon="3.08373">
        <ele>763.20001220703</ele>
        <time>2023-05-28T08:33:35.000Z</time>
      </trkpt>
      <trkpt lat="43.7115" lon="3.08367">
        <ele>763.59997558594</ele>
        <time>2023-05-28T08:33:42.000Z</time>
      </trkpt>
      <trkpt lat="43.7115" lon="3.08362">
        <ele>764.20001220703</ele>
        <time>2023-05-28T08:33:47.000Z</time>
      </trkpt>
      <trkpt lat="43.7115" lon="3.0836">
        <ele>764.40002441406</ele>
        <time>2023-05-28T08:33:49.000Z</time>
      </trkpt>
      <trkpt lat="43.71151" lon="3.08358">
        <ele>765</ele>
        <time>2023-05-28T08:33:57.000Z</time>
      </trkpt>
      <trkpt lat="43.71154" lon="3.08355">
        <ele>765.20001220703</ele>
        <time>2023-05-28T08:34:00.000Z</time>
      </trkpt>
      <trkpt lat="43.71153" lon="3.08347">
        <ele>765.40002441406</ele>
        <time>2023-05-28T08:34:04.000Z</time>
      </trkpt>
      <trkpt lat="43.71153" lon="3.08341">
        <ele>766</ele>
        <time>2023-05-28T08:34:11.000Z</time>
      </trkpt>
      <trkpt lat="43.71152" lon="3.0834">
        <ele>766.20001220703</ele>
        <time>2023-05-28T08:34:13.000Z</time>
      </trkpt>
      <trkpt lat="43.71152" lon="3.08338">
        <ele>766.59997558594</ele>
        <time>2023-05-28T08:34:19.000Z</time>
      </trkpt>
      <trkpt lat="43.71151" lon="3.0834">
        <ele>767.20001220703</ele>
        <time>2023-05-28T08:34:27.000Z</time>
      </trkpt>
      <trkpt lat="43.71152" lon="3.08322">
        <ele>767.40002441406</ele>
        <time>2023-05-28T08:34:34.000Z</time>
      </trkpt>
      <trkpt lat="43.71153" lon="3.08321">
        <ele>767.59997558594</ele>
        <time>2023-05-28T08:34:42.000Z</time>
      </trkpt>
      <trkpt lat="43.71154" lon="3.08319">
        <ele>767.59997558594</ele>
        <time>2023-05-28T08:34:51.000Z</time>
      </trkpt>
      <trkpt lat="43.71156" lon="3.08321">
        <ele>767.40002441406</ele>
        <time>2023-05-28T08:35:04.000Z</time>
      </trkpt>
      <trkpt lat="43.7116" lon="3.08323">
        <ele>767.79998779297</ele>
        <time>2023-05-28T08:35:20.000Z</time>
      </trkpt>
      <trkpt lat="43.71159" lon="3.08322">
        <ele>767.59997558594</ele>
        <time>2023-05-28T08:35:29.000Z</time>
      </trkpt>
      <trkpt lat="43.71158" lon="3.08314">
        <ele>768.20001220703</ele>
        <time>2023-05-28T08:35:37.000Z</time>
      </trkpt>
      <trkpt lat="43.71158" lon="3.08313">
        <ele>768.40002441406</ele>
        <time>2023-05-28T08:35:39.000Z</time>
      </trkpt>
      <trkpt lat="43.71157" lon="3.08307">
        <ele>768.79998779297</ele>
        <time>2023-05-28T08:35:44.000Z</time>
      </trkpt>
      <trkpt lat="43.71157" lon="3.08302">
        <ele>769.40002441406</ele>
        <time>2023-05-28T08:35:50.000Z</time>
      </trkpt>
      <trkpt lat="43.71157" lon="3.083">
        <ele>769.79998779297</ele>
        <time>2023-05-28T08:35:52.000Z</time>
      </trkpt>
      <trkpt lat="43.71156" lon="3.08296">
        <ele>770.40002441406</ele>
        <time>2023-05-28T08:35:58.000Z</time>
      </trkpt>
      <trkpt lat="43.71156" lon="3.08295">
        <ele>770.59997558594</ele>
        <time>2023-05-28T08:36:00.000Z</time>
      </trkpt>
      <trkpt lat="43.71155" lon="3.08288">
        <ele>770.59997558594</ele>
        <time>2023-05-28T08:36:06.000Z</time>
      </trkpt>
      <trkpt lat="43.71155" lon="3.08282">
        <ele>771.40002441406</ele>
        <time>2023-05-28T08:36:13.000Z</time>
      </trkpt>
      <trkpt lat="43.71154" lon="3.0828">
        <ele>771.59997558594</ele>
        <time>2023-05-28T08:36:15.000Z</time>
      </trkpt>
      <trkpt lat="43.71154" lon="3.08274">
        <ele>772.20001220703</ele>
        <time>2023-05-28T08:36:22.000Z</time>
      </trkpt>
      <trkpt lat="43.71153" lon="3.08271">
        <ele>772.79998779297</ele>
        <time>2023-05-28T08:36:26.000Z</time>
      </trkpt>
      <trkpt lat="43.71153" lon="3.08267">
        <ele>773.20001220703</ele>
        <time>2023-05-28T08:36:31.000Z</time>
      </trkpt>
      <trkpt lat="43.71151" lon="3.0826">
        <ele>773.79998779297</ele>
        <time>2023-05-28T08:36:38.000Z</time>
      </trkpt>
      <trkpt lat="43.71151" lon="3.08259">
        <ele>773.79998779297</ele>
        <time>2023-05-28T08:36:39.000Z</time>
      </trkpt>
      <trkpt lat="43.7115" lon="3.08253">
        <ele>774.20001220703</ele>
        <time>2023-05-28T08:36:47.000Z</time>
      </trkpt>
      <trkpt lat="43.71149" lon="3.08247">
        <ele>774.79998779297</ele>
        <time>2023-05-28T08:36:54.000Z</time>
      </trkpt>
      <trkpt lat="43.71149" lon="3.08245">
        <ele>775</ele>
        <time>2023-05-28T08:36:56.000Z</time>
      </trkpt>
      <trkpt lat="43.71147" lon="3.0824">
        <ele>775.59997558594</ele>
        <time>2023-05-28T08:37:04.000Z</time>
      </trkpt>
      <trkpt lat="43.71147" lon="3.08237">
        <ele>775.59997558594</ele>
        <time>2023-05-28T08:37:09.000Z</time>
      </trkpt>
      <trkpt lat="43.71146" lon="3.08233">
        <ele>775.79998779297</ele>
        <time>2023-05-28T08:37:13.000Z</time>
      </trkpt>
      <trkpt lat="43.71145" lon="3.08232">
        <ele>776</ele>
        <time>2023-05-28T08:37:14.000Z</time>
      </trkpt>
      <trkpt lat="43.71144" lon="3.08225">
        <ele>776.79998779297</ele>
        <time>2023-05-28T08:37:20.000Z</time>
      </trkpt>
      <trkpt lat="43.71144" lon="3.08225">
        <ele>777</ele>
        <time>2023-05-28T08:37:21.000Z</time>
      </trkpt>
      <trkpt lat="43.71144" lon="3.08221">
        <ele>777.20001220703</ele>
        <time>2023-05-28T08:37:25.000Z</time>
      </trkpt>
      <trkpt lat="43.71145" lon="3.08215">
        <ele>777.20001220703</ele>
        <time>2023-05-28T08:37:32.000Z</time>
      </trkpt>
      <trkpt lat="43.71147" lon="3.0821">
        <ele>777.40002441406</ele>
        <time>2023-05-28T08:37:38.000Z</time>
      </trkpt>
      <trkpt lat="43.71148" lon="3.08206">
        <ele>778</ele>
        <time>2023-05-28T08:37:43.000Z</time>
      </trkpt>
      <trkpt lat="43.71149" lon="3.08205">
        <ele>778.20001220703</ele>
        <time>2023-05-28T08:37:44.000Z</time>
      </trkpt>
      <trkpt lat="43.71153" lon="3.082">
        <ele>778.20001220703</ele>
        <time>2023-05-28T08:37:50.000Z</time>
      </trkpt>
      <trkpt lat="43.71154" lon="3.08197">
        <ele>778.40002441406</ele>
        <time>2023-05-28T08:37:53.000Z</time>
      </trkpt>
      <trkpt lat="43.71156" lon="3.08193">
        <ele>778.40002441406</ele>
        <time>2023-05-28T08:37:57.000Z</time>
      </trkpt>
      <trkpt lat="43.71158" lon="3.08187">
        <ele>778.79998779297</ele>
        <time>2023-05-28T08:38:02.000Z</time>
      </trkpt>
      <trkpt lat="43.71158" lon="3.08186">
        <ele>778.79998779297</ele>
        <time>2023-05-28T08:38:03.000Z</time>
      </trkpt>
      <trkpt lat="43.71159" lon="3.08181">
        <ele>779</ele>
        <time>2023-05-28T08:38:08.000Z</time>
      </trkpt>
      <trkpt lat="43.71159" lon="3.0818">
        <ele>779</ele>
        <time>2023-05-28T08:38:09.000Z</time>
      </trkpt>
      <trkpt lat="43.71159" lon="3.08175">
        <ele>779.20001220703</ele>
        <time>2023-05-28T08:38:14.000Z</time>
      </trkpt>
      <trkpt lat="43.71159" lon="3.08172">
        <ele>779.20001220703</ele>
        <time>2023-05-28T08:38:16.000Z</time>
      </trkpt>
      <trkpt lat="43.71159" lon="3.08163">
        <ele>779.59997558594</ele>
        <time>2023-05-28T08:38:23.000Z</time>
      </trkpt>
      <trkpt lat="43.71159" lon="3.08161">
        <ele>779.79998779297</ele>
        <time>2023-05-28T08:38:25.000Z</time>
      </trkpt>
      <trkpt lat="43.71159" lon="3.08157">
        <ele>780</ele>
        <time>2023-05-28T08:38:29.000Z</time>
      </trkpt>
      <trkpt lat="43.71159" lon="3.08156">
        <ele>780.20001220703</ele>
        <time>2023-05-28T08:38:30.000Z</time>
      </trkpt>
      <trkpt lat="43.71159" lon="3.08153">
        <ele>780.40002441406</ele>
        <time>2023-05-28T08:38:32.000Z</time>
      </trkpt>
      <trkpt lat="43.71159" lon="3.08151">
        <ele>780.40002441406</ele>
        <time>2023-05-28T08:38:35.000Z</time>
      </trkpt>
      <trkpt lat="43.7116" lon="3.08149">
        <ele>780.59997558594</ele>
        <time>2023-05-28T08:38:37.000Z</time>
      </trkpt>
      <trkpt lat="43.71162" lon="3.08143">
        <ele>781.20001220703</ele>
        <time>2023-05-28T08:38:45.000Z</time>
      </trkpt>
      <trkpt lat="43.71163" lon="3.08139">
        <ele>781.59997558594</ele>
        <time>2023-05-28T08:38:51.000Z</time>
      </trkpt>
      <trkpt lat="43.71165" lon="3.08135">
        <ele>782.20001220703</ele>
        <time>2023-05-28T08:38:57.000Z</time>
      </trkpt>
      <trkpt lat="43.71166" lon="3.08127">
        <ele>782.79998779297</ele>
        <time>2023-05-28T08:39:05.000Z</time>
      </trkpt>
      <trkpt lat="43.71169" lon="3.08121">
        <ele>783</ele>
        <time>2023-05-28T08:39:13.000Z</time>
      </trkpt>
      <trkpt lat="43.71171" lon="3.08119">
        <ele>783.20001220703</ele>
        <time>2023-05-28T08:39:17.000Z</time>
      </trkpt>
      <trkpt lat="43.71172" lon="3.08117">
        <ele>783.59997558594</ele>
        <time>2023-05-28T08:39:20.000Z</time>
      </trkpt>
      <trkpt lat="43.71173" lon="3.08114">
        <ele>784.20001220703</ele>
        <time>2023-05-28T08:39:26.000Z</time>
      </trkpt>
      <trkpt lat="43.71174" lon="3.08113">
        <ele>784.20001220703</ele>
        <time>2023-05-28T08:39:27.000Z</time>
      </trkpt>
      <trkpt lat="43.71175" lon="3.0811">
        <ele>784.59997558594</ele>
        <time>2023-05-28T08:39:32.000Z</time>
      </trkpt>
      <trkpt lat="43.71177" lon="3.08108">
        <ele>785</ele>
        <time>2023-05-28T08:39:40.000Z</time>
      </trkpt>
      <trkpt lat="43.71179" lon="3.08106">
        <ele>784.79998779297</ele>
        <time>2023-05-28T08:39:49.000Z</time>
      </trkpt>
      <trkpt lat="43.7118" lon="3.08103">
        <ele>785.20001220703</ele>
        <time>2023-05-28T08:39:55.000Z</time>
      </trkpt>
      <trkpt lat="43.71181" lon="3.08103">
        <ele>785.40002441406</ele>
        <time>2023-05-28T08:39:56.000Z</time>
      </trkpt>
      <trkpt lat="43.71182" lon="3.08098">
        <ele>785.59997558594</ele>
        <time>2023-05-28T08:40:01.000Z</time>
      </trkpt>
      <trkpt lat="43.71185" lon="3.08092">
        <ele>785.40002441406</ele>
        <time>2023-05-28T08:40:06.000Z</time>
      </trkpt>
      <trkpt lat="43.71186" lon="3.0809">
        <ele>785.59997558594</ele>
        <time>2023-05-28T08:40:08.000Z</time>
      </trkpt>
      <trkpt lat="43.71188" lon="3.08086">
        <ele>786</ele>
        <time>2023-05-28T08:40:12.000Z</time>
      </trkpt>
      <trkpt lat="43.71189" lon="3.08086">
        <ele>786</ele>
        <time>2023-05-28T08:40:13.000Z</time>
      </trkpt>
      <trkpt lat="43.7119" lon="3.08086">
        <ele>786.40002441406</ele>
        <time>2023-05-28T08:40:17.000Z</time>
      </trkpt>
      <trkpt lat="43.7119" lon="3.08084">
        <ele>786.59997558594</ele>
        <time>2023-05-28T08:40:19.000Z</time>
      </trkpt>
      <trkpt lat="43.71193" lon="3.08079">
        <ele>787.40002441406</ele>
        <time>2023-05-28T08:40:27.000Z</time>
      </trkpt>
      <trkpt lat="43.71194" lon="3.08079">
        <ele>787.59997558594</ele>
        <time>2023-05-28T08:40:28.000Z</time>
      </trkpt>
      <trkpt lat="43.71195" lon="3.08077">
        <ele>788</ele>
        <time>2023-05-28T08:40:33.000Z</time>
      </trkpt>
      <trkpt lat="43.71197" lon="3.08076">
        <ele>788.40002441406</ele>
        <time>2023-05-28T08:40:36.000Z</time>
      </trkpt>
      <trkpt lat="43.71199" lon="3.08073">
        <ele>788.79998779297</ele>
        <time>2023-05-28T08:40:40.000Z</time>
      </trkpt>
      <trkpt lat="43.71201" lon="3.0807">
        <ele>789.59997558594</ele>
        <time>2023-05-28T08:40:46.000Z</time>
      </trkpt>
      <trkpt lat="43.71202" lon="3.08069">
        <ele>789.79998779297</ele>
        <time>2023-05-28T08:40:47.000Z</time>
      </trkpt>
      <trkpt lat="43.71202" lon="3.08068">
        <ele>789.79998779297</ele>
        <time>2023-05-28T08:40:53.000Z</time>
      </trkpt>
      <trkpt lat="43.71207" lon="3.08062">
        <ele>789.79998779297</ele>
        <time>2023-05-28T08:41:05.000Z</time>
      </trkpt>
      <trkpt lat="43.7121" lon="3.08058">
        <ele>790</ele>
        <time>2023-05-28T08:41:11.000Z</time>
      </trkpt>
      <trkpt lat="43.71212" lon="3.08055">
        <ele>790.79998779297</ele>
        <time>2023-05-28T08:41:16.000Z</time>
      </trkpt>
      <trkpt lat="43.71214" lon="3.08053">
        <ele>791</ele>
        <time>2023-05-28T08:41:18.000Z</time>
      </trkpt>
      <trkpt lat="43.71217" lon="3.08049">
        <ele>791.79998779297</ele>
        <time>2023-05-28T08:41:26.000Z</time>
      </trkpt>
      <trkpt lat="43.7122" lon="3.08045">
        <ele>792.40002441406</ele>
        <time>2023-05-28T08:41:32.000Z</time>
      </trkpt>
      <trkpt lat="43.71222" lon="3.08042">
        <ele>792.79998779297</ele>
        <time>2023-05-28T08:41:36.000Z</time>
      </trkpt>
      <trkpt lat="43.71224" lon="3.08039">
        <ele>793.20001220703</ele>
        <time>2023-05-28T08:41:39.000Z</time>
      </trkpt>
      <trkpt lat="43.71227" lon="3.08032">
        <ele>793.79998779297</ele>
        <time>2023-05-28T08:41:46.000Z</time>
      </trkpt>
      <trkpt lat="43.71227" lon="3.08031">
        <ele>794</ele>
        <time>2023-05-28T08:41:47.000Z</time>
      </trkpt>
      <trkpt lat="43.71229" lon="3.08024">
        <ele>794.79998779297</ele>
        <time>2023-05-28T08:41:55.000Z</time>
      </trkpt>
      <trkpt lat="43.71229" lon="3.08022">
        <ele>794.79998779297</ele>
        <time>2023-05-28T08:41:57.000Z</time>
      </trkpt>
      <trkpt lat="43.71225" lon="3.08019">
        <ele>795.40002441406</ele>
        <time>2023-05-28T08:42:03.000Z</time>
      </trkpt>
      <trkpt lat="43.71221" lon="3.08018">
        <ele>795.79998779297</ele>
        <time>2023-05-28T08:42:10.000Z</time>
      </trkpt>
      <trkpt lat="43.7122" lon="3.08018">
        <ele>796</ele>
        <time>2023-05-28T08:42:11.000Z</time>
      </trkpt>
      <trkpt lat="43.71217" lon="3.0802">
        <ele>796.20001220703</ele>
        <time>2023-05-28T08:42:16.000Z</time>
      </trkpt>
      <trkpt lat="43.71214" lon="3.08027">
        <ele>796.20001220703</ele>
        <time>2023-05-28T08:42:23.000Z</time>
      </trkpt>
      <trkpt lat="43.71214" lon="3.0803">
        <ele>796.20001220703</ele>
        <time>2023-05-28T08:42:32.000Z</time>
      </trkpt>
      <trkpt lat="43.71212" lon="3.08036">
        <ele>796.20001220703</ele>
        <time>2023-05-28T08:42:38.000Z</time>
      </trkpt>
      <trkpt lat="43.71208" lon="3.08041">
        <ele>796.20001220703</ele>
        <time>2023-05-28T08:42:44.000Z</time>
      </trkpt>
      <trkpt lat="43.71208" lon="3.08042">
        <ele>796.20001220703</ele>
        <time>2023-05-28T08:42:45.000Z</time>
      </trkpt>
      <trkpt lat="43.71205" lon="3.08046">
        <ele>796.20001220703</ele>
        <time>2023-05-28T08:42:49.000Z</time>
      </trkpt>
      <trkpt lat="43.71204" lon="3.08047">
        <ele>796.20001220703</ele>
        <time>2023-05-28T08:42:50.000Z</time>
      </trkpt>
      <trkpt lat="43.71203" lon="3.08049">
        <ele>796.20001220703</ele>
        <time>2023-05-28T08:42:52.000Z</time>
      </trkpt>
      <trkpt lat="43.71202" lon="3.08052">
        <ele>796.20001220703</ele>
        <time>2023-05-28T08:42:55.000Z</time>
      </trkpt>
      <trkpt lat="43.71202" lon="3.08052">
        <ele>796.20001220703</ele>
        <time>2023-05-28T08:42:56.000Z</time>
      </trkpt>
      <trkpt lat="43.71199" lon="3.08055">
        <ele>796.59997558594</ele>
        <time>2023-05-28T08:43:00.000Z</time>
      </trkpt>
      <trkpt lat="43.71198" lon="3.08057">
        <ele>796.79998779297</ele>
        <time>2023-05-28T08:43:03.000Z</time>
      </trkpt>
      <trkpt lat="43.71197" lon="3.08059">
        <ele>797</ele>
        <time>2023-05-28T08:43:05.000Z</time>
      </trkpt>
      <trkpt lat="43.71195" lon="3.08061">
        <ele>797.40002441406</ele>
        <time>2023-05-28T08:43:09.000Z</time>
      </trkpt>
      <trkpt lat="43.71192" lon="3.08066">
        <ele>797.79998779297</ele>
        <time>2023-05-28T08:43:15.000Z</time>
      </trkpt>
      <trkpt lat="43.71189" lon="3.08069">
        <ele>798.20001220703</ele>
        <time>2023-05-28T08:43:19.000Z</time>
      </trkpt>
      <trkpt lat="43.71186" lon="3.08071">
        <ele>798.59997558594</ele>
        <time>2023-05-28T08:43:23.000Z</time>
      </trkpt>
      <trkpt lat="43.71183" lon="3.08074">
        <ele>799</ele>
        <time>2023-05-28T08:43:27.000Z</time>
      </trkpt>
      <trkpt lat="43.71182" lon="3.08076">
        <ele>799.20001220703</ele>
        <time>2023-05-28T08:43:29.000Z</time>
      </trkpt>
      <trkpt lat="43.71181" lon="3.08077">
        <ele>799.20001220703</ele>
        <time>2023-05-28T08:43:30.000Z</time>
      </trkpt>
      <trkpt lat="43.71178" lon="3.08081">
        <ele>799.79998779297</ele>
        <time>2023-05-28T08:43:35.000Z</time>
      </trkpt>
      <trkpt lat="43.71177" lon="3.08082">
        <ele>800</ele>
        <time>2023-05-28T08:43:37.000Z</time>
      </trkpt>
      <trkpt lat="43.71175" lon="3.08084">
        <ele>800.20001220703</ele>
        <time>2023-05-28T08:43:41.000Z</time>
      </trkpt>
      <trkpt lat="43.71172" lon="3.08088">
        <ele>800.59997558594</ele>
        <time>2023-05-28T08:43:46.000Z</time>
      </trkpt>
      <trkpt lat="43.71169" lon="3.08091">
        <ele>801</ele>
        <time>2023-05-28T08:43:52.000Z</time>
      </trkpt>
      <trkpt lat="43.71168" lon="3.08093">
        <ele>801.20001220703</ele>
        <time>2023-05-28T08:43:55.000Z</time>
      </trkpt>
      <trkpt lat="43.71166" lon="3.08096">
        <ele>801.59997558594</ele>
        <time>2023-05-28T08:44:00.000Z</time>
      </trkpt>
      <trkpt lat="43.71163" lon="3.08102">
        <ele>802.20001220703</ele>
        <time>2023-05-28T08:44:08.000Z</time>
      </trkpt>
      <trkpt lat="43.71162" lon="3.08104">
        <ele>802.20001220703</ele>
        <time>2023-05-28T08:44:11.000Z</time>
      </trkpt>
      <trkpt lat="43.71161" lon="3.08108">
        <ele>802.59997558594</ele>
        <time>2023-05-28T08:44:15.000Z</time>
      </trkpt>
      <trkpt lat="43.71158" lon="3.08113">
        <ele>803.20001220703</ele>
        <time>2023-05-28T08:44:22.000Z</time>
      </trkpt>
      <trkpt lat="43.71158" lon="3.08113">
        <ele>803.40002441406</ele>
        <time>2023-05-28T08:44:24.000Z</time>
      </trkpt>
      <trkpt lat="43.71156" lon="3.08118">
        <ele>803.59997558594</ele>
        <time>2023-05-28T08:44:28.000Z</time>
      </trkpt>
      <trkpt lat="43.71153" lon="3.08121">
        <ele>804.20001220703</ele>
        <time>2023-05-28T08:44:35.000Z</time>
      </trkpt>
      <trkpt lat="43.71153" lon="3.08121">
        <ele>804.40002441406</ele>
        <time>2023-05-28T08:44:37.000Z</time>
      </trkpt>
      <trkpt lat="43.7115" lon="3.08125">
        <ele>804.59997558594</ele>
        <time>2023-05-28T08:44:42.000Z</time>
      </trkpt>
      <trkpt lat="43.71146" lon="3.08131">
        <ele>804.59997558594</ele>
        <time>2023-05-28T08:44:49.000Z</time>
      </trkpt>
      <trkpt lat="43.71142" lon="3.08135">
        <ele>804.59997558594</ele>
        <time>2023-05-28T08:44:56.000Z</time>
      </trkpt>
      <trkpt lat="43.71141" lon="3.08136">
        <ele>804.79998779297</ele>
        <time>2023-05-28T08:44:57.000Z</time>
      </trkpt>
      <trkpt lat="43.71138" lon="3.0814">
        <ele>805.40002441406</ele>
        <time>2023-05-28T08:45:04.000Z</time>
      </trkpt>
      <trkpt lat="43.71135" lon="3.08149">
        <ele>806</ele>
        <time>2023-05-28T08:45:13.000Z</time>
      </trkpt>
      <trkpt lat="43.71131" lon="3.08156">
        <ele>806.40002441406</ele>
        <time>2023-05-28T08:45:21.000Z</time>
      </trkpt>
      <trkpt lat="43.71129" lon="3.08163">
        <ele>806.79998779297</ele>
        <time>2023-05-28T08:45:28.000Z</time>
      </trkpt>
      <trkpt lat="43.71126" lon="3.08171">
        <ele>807.40002441406</ele>
        <time>2023-05-28T08:45:36.000Z</time>
      </trkpt>
      <trkpt lat="43.71126" lon="3.08172">
        <ele>807.59997558594</ele>
        <time>2023-05-28T08:45:37.000Z</time>
      </trkpt>
      <trkpt lat="43.71123" lon="3.08178">
        <ele>808.20001220703</ele>
        <time>2023-05-28T08:45:44.000Z</time>
      </trkpt>
      <trkpt lat="43.71121" lon="3.08184">
        <ele>808.59997558594</ele>
        <time>2023-05-28T08:45:51.000Z</time>
      </trkpt>
      <trkpt lat="43.7112" lon="3.08185">
        <ele>808.59997558594</ele>
        <time>2023-05-28T08:45:52.000Z</time>
      </trkpt>
      <trkpt lat="43.71116" lon="3.0819">
        <ele>809</ele>
        <time>2023-05-28T08:46:01.000Z</time>
      </trkpt>
      <trkpt lat="43.71113" lon="3.08195">
        <ele>809.40002441406</ele>
        <time>2023-05-28T08:46:09.000Z</time>
      </trkpt>
      <trkpt lat="43.71109" lon="3.082">
        <ele>809.59997558594</ele>
        <time>2023-05-28T08:46:15.000Z</time>
      </trkpt>
      <trkpt lat="43.71108" lon="3.08201">
        <ele>809.79998779297</ele>
        <time>2023-05-28T08:46:17.000Z</time>
      </trkpt>
      <trkpt lat="43.71106" lon="3.08207">
        <ele>810.20001220703</ele>
        <time>2023-05-28T08:46:25.000Z</time>
      </trkpt>
      <trkpt lat="43.71107" lon="3.0821">
        <ele>810.20001220703</ele>
        <time>2023-05-28T08:46:40.000Z</time>
      </trkpt>
      <trkpt lat="43.71106" lon="3.08215">
        <ele>810.40002441406</ele>
        <time>2023-05-28T08:46:52.000Z</time>
      </trkpt>
      <trkpt lat="43.71102" lon="3.08222">
        <ele>810.40002441406</ele>
        <time>2023-05-28T08:46:57.000Z</time>
      </trkpt>
      <trkpt lat="43.71101" lon="3.0823">
        <ele>810.59997558594</ele>
        <time>2023-05-28T08:47:02.000Z</time>
      </trkpt>
      <trkpt lat="43.71101" lon="3.08233">
        <ele>810.79998779297</ele>
        <time>2023-05-28T08:47:04.000Z</time>
      </trkpt>
      <trkpt lat="43.71099" lon="3.08239">
        <ele>810.79998779297</ele>
        <time>2023-05-28T08:47:08.000Z</time>
      </trkpt>
      <trkpt lat="43.71099" lon="3.08243">
        <ele>810.79998779297</ele>
        <time>2023-05-28T08:47:10.000Z</time>
      </trkpt>
      <trkpt lat="43.71098" lon="3.08248">
        <ele>811</ele>
        <time>2023-05-28T08:47:13.000Z</time>
      </trkpt>
      <trkpt lat="43.71098" lon="3.08251">
        <ele>811</ele>
        <time>2023-05-28T08:47:15.000Z</time>
      </trkpt>
      <trkpt lat="43.71097" lon="3.08255">
        <ele>811.20001220703</ele>
        <time>2023-05-28T08:47:18.000Z</time>
      </trkpt>
      <trkpt lat="43.71097" lon="3.08261">
        <ele>811.20001220703</ele>
        <time>2023-05-28T08:47:22.000Z</time>
      </trkpt>
      <trkpt lat="43.71096" lon="3.08265">
        <ele>811.40002441406</ele>
        <time>2023-05-28T08:47:24.000Z</time>
      </trkpt>
      <trkpt lat="43.71096" lon="3.08269">
        <ele>811.40002441406</ele>
        <time>2023-05-28T08:47:27.000Z</time>
      </trkpt>
      <trkpt lat="43.71094" lon="3.0828">
        <ele>811.59997558594</ele>
        <time>2023-05-28T08:47:34.000Z</time>
      </trkpt>
      <trkpt lat="43.71094" lon="3.08286">
        <ele>811.59997558594</ele>
        <time>2023-05-28T08:47:38.000Z</time>
      </trkpt>
      <trkpt lat="43.71093" lon="3.08292">
        <ele>811.79998779297</ele>
        <time>2023-05-28T08:47:42.000Z</time>
      </trkpt>
      <trkpt lat="43.7109" lon="3.08305">
        <ele>811.79998779297</ele>
        <time>2023-05-28T08:47:50.000Z</time>
      </trkpt>
      <trkpt lat="43.71087" lon="3.08315">
        <ele>812.40002441406</ele>
        <time>2023-05-28T08:47:57.000Z</time>
      </trkpt>
      <trkpt lat="43.71087" lon="3.08319">
        <ele>812.59997558594</ele>
        <time>2023-05-28T08:48:00.000Z</time>
      </trkpt>
      <trkpt lat="43.71087" lon="3.08323">
        <ele>812.79998779297</ele>
        <time>2023-05-28T08:48:02.000Z</time>
      </trkpt>
      <trkpt lat="43.71084" lon="3.08337">
        <ele>813.20001220703</ele>
        <time>2023-05-28T08:48:10.000Z</time>
      </trkpt>
      <trkpt lat="43.71081" lon="3.0835">
        <ele>813.79998779297</ele>
        <time>2023-05-28T08:48:18.000Z</time>
      </trkpt>
      <trkpt lat="43.71075" lon="3.08362">
        <ele>814.20001220703</ele>
        <time>2023-05-28T08:48:27.000Z</time>
      </trkpt>
      <trkpt lat="43.71074" lon="3.08363">
        <ele>814.40002441406</ele>
        <time>2023-05-28T08:48:30.000Z</time>
      </trkpt>
      <trkpt lat="43.71074" lon="3.08363">
        <ele>814.40002441406</ele>
        <time>2023-05-28T08:48:32.000Z</time>
      </trkpt>
      <trkpt lat="43.71073" lon="3.08363">
        <ele>814.79998779297</ele>
        <time>2023-05-28T08:48:43.000Z</time>
      </trkpt>
      <trkpt lat="43.71073" lon="3.08363">
        <ele>814.59997558594</ele>
        <time>2023-05-28T08:48:47.000Z</time>
      </trkpt>
      <trkpt lat="43.7107" lon="3.08365">
        <ele>814.40002441406</ele>
        <time>2023-05-28T08:48:55.000Z</time>
      </trkpt>
      <trkpt lat="43.71066" lon="3.08374">
        <ele>815</ele>
        <time>2023-05-28T08:49:03.000Z</time>
      </trkpt>
      <trkpt lat="43.71061" lon="3.08381">
        <ele>815.20001220703</ele>
        <time>2023-05-28T08:49:10.000Z</time>
      </trkpt>
      <trkpt lat="43.71056" lon="3.08388">
        <ele>815.59997558594</ele>
        <time>2023-05-28T08:49:17.000Z</time>
      </trkpt>
      <trkpt lat="43.71051" lon="3.08391">
        <ele>815.79998779297</ele>
        <time>2023-05-28T08:49:22.000Z</time>
      </trkpt>
      <trkpt lat="43.71049" lon="3.0839">
        <ele>815.79998779297</ele>
        <time>2023-05-28T08:49:25.000Z</time>
      </trkpt>
      <trkpt lat="43.71047" lon="3.08386">
        <ele>816</ele>
        <time>2023-05-28T08:49:29.000Z</time>
      </trkpt>
      <trkpt lat="43.71047" lon="3.08384">
        <ele>816.59997558594</ele>
        <time>2023-05-28T08:49:32.000Z</time>
      </trkpt>
      <trkpt lat="43.71047" lon="3.08383">
        <ele>816.59997558594</ele>
        <time>2023-05-28T08:49:33.000Z</time>
      </trkpt>
      <trkpt lat="43.71047" lon="3.08381">
        <ele>816.79998779297</ele>
        <time>2023-05-28T08:49:35.000Z</time>
      </trkpt>
      <trkpt lat="43.71048" lon="3.08379">
        <ele>817.59997558594</ele>
        <time>2023-05-28T08:49:40.000Z</time>
      </trkpt>
      <trkpt lat="43.71047" lon="3.0838">
        <ele>817.59997558594</ele>
        <time>2023-05-28T08:49:48.000Z</time>
      </trkpt>
      <trkpt lat="43.71046" lon="3.0838">
        <ele>818</ele>
        <time>2023-05-28T08:49:57.000Z</time>
      </trkpt>
      <trkpt lat="43.71047" lon="3.0838">
        <ele>818</ele>
        <time>2023-05-28T08:49:58.000Z</time>
      </trkpt>
      <trkpt lat="43.71048" lon="3.08377">
        <ele>817.59997558594</ele>
        <time>2023-05-28T08:50:05.000Z</time>
      </trkpt>
      <trkpt lat="43.71051" lon="3.08373">
        <ele>817.79998779297</ele>
        <time>2023-05-28T08:50:12.000Z</time>
      </trkpt>
      <trkpt lat="43.71055" lon="3.08369">
        <ele>818</ele>
        <time>2023-05-28T08:50:18.000Z</time>
      </trkpt>
      <trkpt lat="43.7106" lon="3.0836">
        <ele>819</ele>
        <time>2023-05-28T08:50:28.000Z</time>
      </trkpt>
      <trkpt lat="43.71062" lon="3.08353">
        <ele>819.40002441406</ele>
        <time>2023-05-28T08:50:34.000Z</time>
      </trkpt>
      <trkpt lat="43.71063" lon="3.08352">
        <ele>819.59997558594</ele>
        <time>2023-05-28T08:50:36.000Z</time>
      </trkpt>
      <trkpt lat="43.71064" lon="3.08347">
        <ele>820</ele>
        <time>2023-05-28T08:50:40.000Z</time>
      </trkpt>
      <trkpt lat="43.71065" lon="3.08345">
        <ele>820.20001220703</ele>
        <time>2023-05-28T08:50:42.000Z</time>
      </trkpt>
      <trkpt lat="43.71065" lon="3.08344">
        <ele>820.40002441406</ele>
        <time>2023-05-28T08:50:43.000Z</time>
      </trkpt>
      <trkpt lat="43.71066" lon="3.08338">
        <ele>821.20001220703</ele>
        <time>2023-05-28T08:50:49.000Z</time>
      </trkpt>
      <trkpt lat="43.71066" lon="3.08336">
        <ele>821.20001220703</ele>
        <time>2023-05-28T08:50:50.000Z</time>
      </trkpt>
      <trkpt lat="43.71066" lon="3.08335">
        <ele>821.40002441406</ele>
        <time>2023-05-28T08:50:52.000Z</time>
      </trkpt>
      <trkpt lat="43.71067" lon="3.08327">
        <ele>821.79998779297</ele>
        <time>2023-05-28T08:50:59.000Z</time>
      </trkpt>
      <trkpt lat="43.71067" lon="3.08323">
        <ele>822.20001220703</ele>
        <time>2023-05-28T08:51:03.000Z</time>
      </trkpt>
      <trkpt lat="43.71066" lon="3.08317">
        <ele>822.40002441406</ele>
        <time>2023-05-28T08:51:08.000Z</time>
      </trkpt>
      <trkpt lat="43.71066" lon="3.08313">
        <ele>822.79998779297</ele>
        <time>2023-05-28T08:51:12.000Z</time>
      </trkpt>
      <trkpt lat="43.71066" lon="3.08309">
        <ele>823.20001220703</ele>
        <time>2023-05-28T08:51:15.000Z</time>
      </trkpt>
      <trkpt lat="43.71066" lon="3.08308">
        <ele>823.40002441406</ele>
        <time>2023-05-28T08:51:16.000Z</time>
      </trkpt>
      <trkpt lat="43.71065" lon="3.08304">
        <ele>823.79998779297</ele>
        <time>2023-05-28T08:51:21.000Z</time>
      </trkpt>
      <trkpt lat="43.71064" lon="3.08302">
        <ele>824.20001220703</ele>
        <time>2023-05-28T08:51:29.000Z</time>
      </trkpt>
      <trkpt lat="43.71066" lon="3.08303">
        <ele>823.79998779297</ele>
        <time>2023-05-28T08:51:40.000Z</time>
      </trkpt>
      <trkpt lat="43.71067" lon="3.08304">
        <ele>824.20001220703</ele>
        <time>2023-05-28T08:51:50.000Z</time>
      </trkpt>
      <trkpt lat="43.71067" lon="3.08304">
        <ele>824</ele>
        <time>2023-05-28T08:51:58.000Z</time>
      </trkpt>
      <trkpt lat="43.71066" lon="3.08304">
        <ele>824.40002441406</ele>
        <time>2023-05-28T08:52:07.000Z</time>
      </trkpt>
      <trkpt lat="43.71067" lon="3.08304">
        <ele>824.40002441406</ele>
        <time>2023-05-28T08:52:08.000Z</time>
      </trkpt>
      <trkpt lat="43.71066" lon="3.08305">
        <ele>824.40002441406</ele>
        <time>2023-05-28T08:52:18.000Z</time>
      </trkpt>
      <trkpt lat="43.71065" lon="3.08304">
        <ele>824.59997558594</ele>
        <time>2023-05-28T08:52:29.000Z</time>
      </trkpt>
      <trkpt lat="43.71065" lon="3.08301">
        <ele>824.40002441406</ele>
        <time>2023-05-28T08:52:39.000Z</time>
      </trkpt>
      <trkpt lat="43.71064" lon="3.08294">
        <ele>825</ele>
        <time>2023-05-28T08:52:45.000Z</time>
      </trkpt>
      <trkpt lat="43.71064" lon="3.08288">
        <ele>825.20001220703</ele>
        <time>2023-05-28T08:52:51.000Z</time>
      </trkpt>
      <trkpt lat="43.71064" lon="3.08287">
        <ele>825.40002441406</ele>
        <time>2023-05-28T08:52:53.000Z</time>
      </trkpt>
      <trkpt lat="43.71064" lon="3.08284">
        <ele>825.79998779297</ele>
        <time>2023-05-28T08:52:57.000Z</time>
      </trkpt>
      <trkpt lat="43.71063" lon="3.0828">
        <ele>826.59997558594</ele>
        <time>2023-05-28T08:53:02.000Z</time>
      </trkpt>
      <trkpt lat="43.71063" lon="3.08279">
        <ele>826.79998779297</ele>
        <time>2023-05-28T08:53:03.000Z</time>
      </trkpt>
      <trkpt lat="43.71063" lon="3.08275">
        <ele>827.40002441406</ele>
        <time>2023-05-28T08:53:10.000Z</time>
      </trkpt>
      <trkpt lat="43.71063" lon="3.08273">
        <ele>827.59997558594</ele>
        <time>2023-05-28T08:53:13.000Z</time>
      </trkpt>
      <trkpt lat="43.71064" lon="3.08269">
        <ele>827.59997558594</ele>
        <time>2023-05-28T08:53:16.000Z</time>
      </trkpt>
      <trkpt lat="43.71064" lon="3.08262">
        <ele>828.20001220703</ele>
        <time>2023-05-28T08:53:24.000Z</time>
      </trkpt>
      <trkpt lat="43.71064" lon="3.08255">
        <ele>828.59997558594</ele>
        <time>2023-05-28T08:53:33.000Z</time>
      </trkpt>
      <trkpt lat="43.71064" lon="3.08254">
        <ele>828.59997558594</ele>
        <time>2023-05-28T08:53:34.000Z</time>
      </trkpt>
      <trkpt lat="43.71064" lon="3.08249">
        <ele>829.59997558594</ele>
        <time>2023-05-28T08:53:41.000Z</time>
      </trkpt>
      <trkpt lat="43.71065" lon="3.08249">
        <ele>829.79998779297</ele>
        <time>2023-05-28T08:53:42.000Z</time>
      </trkpt>
      <trkpt lat="43.71065" lon="3.08245">
        <ele>830.20001220703</ele>
        <time>2023-05-28T08:53:47.000Z</time>
      </trkpt>
      <trkpt lat="43.71066" lon="3.08238">
        <ele>830.79998779297</ele>
        <time>2023-05-28T08:53:55.000Z</time>
      </trkpt>
      <trkpt lat="43.71066" lon="3.08237">
        <ele>830.79998779297</ele>
        <time>2023-05-28T08:53:56.000Z</time>
      </trkpt>
      <trkpt lat="43.71066" lon="3.08227">
        <ele>831.40002441406</ele>
        <time>2023-05-28T08:54:05.000Z</time>
      </trkpt>
      <trkpt lat="43.71066" lon="3.08222">
        <ele>831.79998779297</ele>
        <time>2023-05-28T08:54:11.000Z</time>
      </trkpt>
      <trkpt lat="43.71065" lon="3.0822">
        <ele>832</ele>
        <time>2023-05-28T08:54:13.000Z</time>
      </trkpt>
      <trkpt lat="43.71066" lon="3.08213">
        <ele>832.59997558594</ele>
        <time>2023-05-28T08:54:21.000Z</time>
      </trkpt>
      <trkpt lat="43.71065" lon="3.0821">
        <ele>832.79998779297</ele>
        <time>2023-05-28T08:54:23.000Z</time>
      </trkpt>
      <trkpt lat="43.71066" lon="3.08207">
        <ele>833.20001220703</ele>
        <time>2023-05-28T08:54:28.000Z</time>
      </trkpt>
      <trkpt lat="43.71066" lon="3.082">
        <ele>833.79998779297</ele>
        <time>2023-05-28T08:54:34.000Z</time>
      </trkpt>
      <trkpt lat="43.71065" lon="3.08199">
        <ele>834</ele>
        <time>2023-05-28T08:54:40.000Z</time>
      </trkpt>
      <trkpt lat="43.71065" lon="3.08192">
        <ele>834.40002441406</ele>
        <time>2023-05-28T08:54:47.000Z</time>
      </trkpt>
      <trkpt lat="43.71066" lon="3.08186">
        <ele>834.79998779297</ele>
        <time>2023-05-28T08:54:53.000Z</time>
      </trkpt>
      <trkpt lat="43.71067" lon="3.08186">
        <ele>835</ele>
        <time>2023-05-28T08:54:54.000Z</time>
      </trkpt>
      <trkpt lat="43.71067" lon="3.08178">
        <ele>835.59997558594</ele>
        <time>2023-05-28T08:55:02.000Z</time>
      </trkpt>
      <trkpt lat="43.71068" lon="3.08175">
        <ele>835.79998779297</ele>
        <time>2023-05-28T08:55:05.000Z</time>
      </trkpt>
      <trkpt lat="43.71068" lon="3.08171">
        <ele>836</ele>
        <time>2023-05-28T08:55:09.000Z</time>
      </trkpt>
      <trkpt lat="43.71069" lon="3.08162">
        <ele>836.79998779297</ele>
        <time>2023-05-28T08:55:18.000Z</time>
      </trkpt>
      <trkpt lat="43.71069" lon="3.08161">
        <ele>836.79998779297</ele>
        <time>2023-05-28T08:55:20.000Z</time>
      </trkpt>
      <trkpt lat="43.7107" lon="3.08154">
        <ele>837.59997558594</ele>
        <time>2023-05-28T08:55:27.000Z</time>
      </trkpt>
      <trkpt lat="43.7107" lon="3.0815">
        <ele>838</ele>
        <time>2023-05-28T08:55:32.000Z</time>
      </trkpt>
      <trkpt lat="43.7107" lon="3.08149">
        <ele>838</ele>
        <time>2023-05-28T08:55:34.000Z</time>
      </trkpt>
      <trkpt lat="43.7107" lon="3.08144">
        <ele>838.59997558594</ele>
        <time>2023-05-28T08:55:40.000Z</time>
      </trkpt>
      <trkpt lat="43.7107" lon="3.08143">
        <ele>839</ele>
        <time>2023-05-28T08:55:44.000Z</time>
      </trkpt>
      <trkpt lat="43.7107" lon="3.08141">
        <ele>839</ele>
        <time>2023-05-28T08:55:46.000Z</time>
      </trkpt>
      <trkpt lat="43.71072" lon="3.08135">
        <ele>840</ele>
        <time>2023-05-28T08:55:53.000Z</time>
      </trkpt>
      <trkpt lat="43.71072" lon="3.08135">
        <ele>840</ele>
        <time>2023-05-28T08:55:54.000Z</time>
      </trkpt>
      <trkpt lat="43.71073" lon="3.08129">
        <ele>840.40002441406</ele>
        <time>2023-05-28T08:56:01.000Z</time>
      </trkpt>
      <trkpt lat="43.71075" lon="3.08124">
        <ele>840.79998779297</ele>
        <time>2023-05-28T08:56:08.000Z</time>
      </trkpt>
      <trkpt lat="43.71076" lon="3.08121">
        <ele>841</ele>
        <time>2023-05-28T08:56:12.000Z</time>
      </trkpt>
      <trkpt lat="43.71077" lon="3.08121">
        <ele>841.40002441406</ele>
        <time>2023-05-28T08:56:15.000Z</time>
      </trkpt>
      <trkpt lat="43.71078" lon="3.08113">
        <ele>842</ele>
        <time>2023-05-28T08:56:23.000Z</time>
      </trkpt>
      <trkpt lat="43.71078" lon="3.0811">
        <ele>842.20001220703</ele>
        <time>2023-05-28T08:56:24.000Z</time>
      </trkpt>
      <trkpt lat="43.71078" lon="3.08107">
        <ele>842.40002441406</ele>
        <time>2023-05-28T08:56:31.000Z</time>
      </trkpt>
      <trkpt lat="43.71078" lon="3.081">
        <ele>842.59997558594</ele>
        <time>2023-05-28T08:56:44.000Z</time>
      </trkpt>
      <trkpt lat="43.71078" lon="3.08098">
        <ele>842.79998779297</ele>
        <time>2023-05-28T08:56:56.000Z</time>
      </trkpt>
      <trkpt lat="43.71078" lon="3.08096">
        <ele>842.79998779297</ele>
        <time>2023-05-28T08:57:03.000Z</time>
      </trkpt>
      <trkpt lat="43.71079" lon="3.08091">
        <ele>843</ele>
        <time>2023-05-28T08:57:11.000Z</time>
      </trkpt>
      <trkpt lat="43.71078" lon="3.08089">
        <ele>843.20001220703</ele>
        <time>2023-05-28T08:57:13.000Z</time>
      </trkpt>
      <trkpt lat="43.71079" lon="3.08085">
        <ele>843.59997558594</ele>
        <time>2023-05-28T08:57:18.000Z</time>
      </trkpt>
      <trkpt lat="43.71081" lon="3.08077">
        <ele>844.20001220703</ele>
        <time>2023-05-28T08:57:25.000Z</time>
      </trkpt>
      <trkpt lat="43.71082" lon="3.08072">
        <ele>844.79998779297</ele>
        <time>2023-05-28T08:57:29.000Z</time>
      </trkpt>
      <trkpt lat="43.71082" lon="3.0807">
        <ele>845.20001220703</ele>
        <time>2023-05-28T08:57:32.000Z</time>
      </trkpt>
      <trkpt lat="43.71082" lon="3.08069">
        <ele>845.20001220703</ele>
        <time>2023-05-28T08:57:33.000Z</time>
      </trkpt>
      <trkpt lat="43.71082" lon="3.08068">
        <ele>845.40002441406</ele>
        <time>2023-05-28T08:57:34.000Z</time>
      </trkpt>
      <trkpt lat="43.71083" lon="3.08065">
        <ele>845.79998779297</ele>
        <time>2023-05-28T08:57:38.000Z</time>
      </trkpt>
      <trkpt lat="43.71083" lon="3.08062">
        <ele>846.20001220703</ele>
        <time>2023-05-28T08:57:44.000Z</time>
      </trkpt>
      <trkpt lat="43.71086" lon="3.08056">
        <ele>846.59997558594</ele>
        <time>2023-05-28T08:57:51.000Z</time>
      </trkpt>
      <trkpt lat="43.71086" lon="3.08052">
        <ele>847</ele>
        <time>2023-05-28T08:57:57.000Z</time>
      </trkpt>
      <trkpt lat="43.71087" lon="3.0805">
        <ele>847.40002441406</ele>
        <time>2023-05-28T08:58:01.000Z</time>
      </trkpt>
      <trkpt lat="43.71087" lon="3.08047">
        <ele>847.79998779297</ele>
        <time>2023-05-28T08:58:05.000Z</time>
      </trkpt>
      <trkpt lat="43.71088" lon="3.08044">
        <ele>848.40002441406</ele>
        <time>2023-05-28T08:58:10.000Z</time>
      </trkpt>
      <trkpt lat="43.71087" lon="3.08043">
        <ele>848.40002441406</ele>
        <time>2023-05-28T08:58:12.000Z</time>
      </trkpt>
      <trkpt lat="43.71089" lon="3.08038">
        <ele>849</ele>
        <time>2023-05-28T08:58:19.000Z</time>
      </trkpt>
      <trkpt lat="43.71089" lon="3.08035">
        <ele>849.40002441406</ele>
        <time>2023-05-28T08:58:23.000Z</time>
      </trkpt>
      <trkpt lat="43.71089" lon="3.08033">
        <ele>849.40002441406</ele>
        <time>2023-05-28T08:58:25.000Z</time>
      </trkpt>
      <trkpt lat="43.71089" lon="3.08028">
        <ele>850</ele>
        <time>2023-05-28T08:58:32.000Z</time>
      </trkpt>
      <trkpt lat="43.71088" lon="3.08023">
        <ele>850.40002441406</ele>
        <time>2023-05-28T08:58:38.000Z</time>
      </trkpt>
      <trkpt lat="43.71088" lon="3.08022">
        <ele>850.59997558594</ele>
        <time>2023-05-28T08:58:39.000Z</time>
      </trkpt>
      <trkpt lat="43.71089" lon="3.08015">
        <ele>851.20001220703</ele>
        <time>2023-05-28T08:58:46.000Z</time>
      </trkpt>
      <trkpt lat="43.71089" lon="3.08012">
        <ele>851.40002441406</ele>
        <time>2023-05-28T08:58:49.000Z</time>
      </trkpt>
      <trkpt lat="43.71091" lon="3.08008">
        <ele>851.79998779297</ele>
        <time>2023-05-28T08:58:53.000Z</time>
      </trkpt>
      <trkpt lat="43.71093" lon="3.08001">
        <ele>852.40002441406</ele>
        <time>2023-05-28T08:59:00.000Z</time>
      </trkpt>
      <trkpt lat="43.71093" lon="3.08">
        <ele>852.59997558594</ele>
        <time>2023-05-28T08:59:01.000Z</time>
      </trkpt>
      <trkpt lat="43.71093" lon="3.07999">
        <ele>852.59997558594</ele>
        <time>2023-05-28T08:59:02.000Z</time>
      </trkpt>
      <trkpt lat="43.71098" lon="3.07992">
        <ele>853.40002441406</ele>
        <time>2023-05-28T08:59:11.000Z</time>
      </trkpt>
      <trkpt lat="43.711" lon="3.07989">
        <ele>853.40002441406</ele>
        <time>2023-05-28T08:59:13.000Z</time>
      </trkpt>
      <trkpt lat="43.71101" lon="3.07987">
        <ele>853.59997558594</ele>
        <time>2023-05-28T08:59:15.000Z</time>
      </trkpt>
      <trkpt lat="43.71102" lon="3.07986">
        <ele>853.79998779297</ele>
        <time>2023-05-28T08:59:17.000Z</time>
      </trkpt>
      <trkpt lat="43.71108" lon="3.07981">
        <ele>854.40002441406</ele>
        <time>2023-05-28T08:59:24.000Z</time>
      </trkpt>
      <trkpt lat="43.71114" lon="3.07977">
        <ele>854.59997558594</ele>
        <time>2023-05-28T08:59:30.000Z</time>
      </trkpt>
      <trkpt lat="43.71115" lon="3.07976">
        <ele>854.79998779297</ele>
        <time>2023-05-28T08:59:31.000Z</time>
      </trkpt>
      <trkpt lat="43.71123" lon="3.07971">
        <ele>855.59997558594</ele>
        <time>2023-05-28T08:59:40.000Z</time>
      </trkpt>
      <trkpt lat="43.71124" lon="3.07971">
        <ele>855.59997558594</ele>
        <time>2023-05-28T08:59:41.000Z</time>
      </trkpt>
      <trkpt lat="43.7113" lon="3.07965">
        <ele>856.59997558594</ele>
        <time>2023-05-28T08:59:49.000Z</time>
      </trkpt>
      <trkpt lat="43.71133" lon="3.07962">
        <ele>856.79998779297</ele>
        <time>2023-05-28T08:59:52.000Z</time>
      </trkpt>
      <trkpt lat="43.71138" lon="3.07957">
        <ele>857.40002441406</ele>
        <time>2023-05-28T08:59:58.000Z</time>
      </trkpt>
      <trkpt lat="43.71142" lon="3.07952">
        <ele>857.79998779297</ele>
        <time>2023-05-28T09:00:03.000Z</time>
      </trkpt>
      <trkpt lat="43.71144" lon="3.07949">
        <ele>858</ele>
        <time>2023-05-28T09:00:06.000Z</time>
      </trkpt>
      <trkpt lat="43.71146" lon="3.07946">
        <ele>858.20001220703</ele>
        <time>2023-05-28T09:00:09.000Z</time>
      </trkpt>
      <trkpt lat="43.71149" lon="3.07942">
        <ele>858.40002441406</ele>
        <time>2023-05-28T09:00:13.000Z</time>
      </trkpt>
      <trkpt lat="43.71158" lon="3.07943">
        <ele>858.79998779297</ele>
        <time>2023-05-28T09:00:22.000Z</time>
      </trkpt>
      <trkpt lat="43.71159" lon="3.07944">
        <ele>859.40002441406</ele>
        <time>2023-05-28T09:00:28.000Z</time>
      </trkpt>
      <trkpt lat="43.71159" lon="3.07944">
        <ele>859</ele>
        <time>2023-05-28T09:00:40.000Z</time>
      </trkpt>
      <trkpt lat="43.7116" lon="3.07943">
        <ele>859.20001220703</ele>
        <time>2023-05-28T09:00:54.000Z</time>
      </trkpt>
      <trkpt lat="43.7116" lon="3.07945">
        <ele>859.40002441406</ele>
        <time>2023-05-28T09:01:00.000Z</time>
      </trkpt>
      <trkpt lat="43.71155" lon="3.07942">
        <ele>859.59997558594</ele>
        <time>2023-05-28T09:01:07.000Z</time>
      </trkpt>
      <trkpt lat="43.71153" lon="3.07944">
        <ele>859.40002441406</ele>
        <time>2023-05-28T09:01:13.000Z</time>
      </trkpt>
      <trkpt lat="43.71153" lon="3.07945">
        <ele>859.79998779297</ele>
        <time>2023-05-28T09:01:19.000Z</time>
      </trkpt>
      <trkpt lat="43.71153" lon="3.07945">
        <ele>860</ele>
        <time>2023-05-28T09:01:21.000Z</time>
      </trkpt>
      <trkpt lat="43.71154" lon="3.07945">
        <ele>859.59997558594</ele>
        <time>2023-05-28T09:01:29.000Z</time>
      </trkpt>
      <trkpt lat="43.71155" lon="3.07945">
        <ele>859.59997558594</ele>
        <time>2023-05-28T09:01:41.000Z</time>
      </trkpt>
      <trkpt lat="43.71155" lon="3.07945">
        <ele>859.40002441406</ele>
        <time>2023-05-28T09:01:53.000Z</time>
      </trkpt>
      <trkpt lat="43.71155" lon="3.07945">
        <ele>859.20001220703</ele>
        <time>2023-05-28T09:02:09.000Z</time>
      </trkpt>
      <trkpt lat="43.71154" lon="3.0794">
        <ele>859</ele>
        <time>2023-05-28T09:02:16.000Z</time>
      </trkpt>
      <trkpt lat="43.71154" lon="3.07938">
        <ele>859</ele>
        <time>2023-05-28T09:02:17.000Z</time>
      </trkpt>
      <trkpt lat="43.71153" lon="3.07936">
        <ele>859</ele>
        <time>2023-05-28T09:02:24.000Z</time>
      </trkpt>
      <trkpt lat="43.71148" lon="3.07933">
        <ele>858.79998779297</ele>
        <time>2023-05-28T09:02:30.000Z</time>
      </trkpt>
      <trkpt lat="43.71144" lon="3.0793">
        <ele>857.79998779297</ele>
        <time>2023-05-28T09:02:36.000Z</time>
      </trkpt>
      <trkpt lat="43.71142" lon="3.0793">
        <ele>857.59997558594</ele>
        <time>2023-05-28T09:02:38.000Z</time>
      </trkpt>
      <trkpt lat="43.71136" lon="3.07932">
        <ele>857</ele>
        <time>2023-05-28T09:02:45.000Z</time>
      </trkpt>
      <trkpt lat="43.71133" lon="3.07932">
        <ele>856.79998779297</ele>
        <time>2023-05-28T09:02:48.000Z</time>
      </trkpt>
      <trkpt lat="43.71132" lon="3.07932">
        <ele>856.59997558594</ele>
        <time>2023-05-28T09:02:49.000Z</time>
      </trkpt>
      <trkpt lat="43.71129" lon="3.07932">
        <ele>856</ele>
        <time>2023-05-28T09:02:52.000Z</time>
      </trkpt>
      <trkpt lat="43.71127" lon="3.07932">
        <ele>855.79998779297</ele>
        <time>2023-05-28T09:02:54.000Z</time>
      </trkpt>
      <trkpt lat="43.71117" lon="3.07932">
        <ele>854.79998779297</ele>
        <time>2023-05-28T09:03:02.000Z</time>
      </trkpt>
      <trkpt lat="43.71116" lon="3.07932">
        <ele>854.79998779297</ele>
        <time>2023-05-28T09:03:03.000Z</time>
      </trkpt>
      <trkpt lat="43.71112" lon="3.07932">
        <ele>854.20001220703</ele>
        <time>2023-05-28T09:03:07.000Z</time>
      </trkpt>
      <trkpt lat="43.71112" lon="3.07932">
        <ele>853.79998779297</ele>
        <time>2023-05-28T09:03:09.000Z</time>
      </trkpt>
      <trkpt lat="43.71112" lon="3.07932">
        <ele>853.59997558594</ele>
        <time>2023-05-28T09:03:10.000Z</time>
      </trkpt>
      <trkpt lat="43.71107" lon="3.07932">
        <ele>853.59997558594</ele>
        <time>2023-05-28T09:03:15.000Z</time>
      </trkpt>
      <trkpt lat="43.71096" lon="3.07931">
        <ele>852.79998779297</ele>
        <time>2023-05-28T09:03:24.000Z</time>
      </trkpt>
      <trkpt lat="43.71095" lon="3.0793">
        <ele>852.59997558594</ele>
        <time>2023-05-28T09:03:25.000Z</time>
      </trkpt>
      <trkpt lat="43.71089" lon="3.07928">
        <ele>851.79998779297</ele>
        <time>2023-05-28T09:03:31.000Z</time>
      </trkpt>
      <trkpt lat="43.71086" lon="3.07926">
        <ele>851.40002441406</ele>
        <time>2023-05-28T09:03:34.000Z</time>
      </trkpt>
      <trkpt lat="43.71081" lon="3.07924">
        <ele>851.20001220703</ele>
        <time>2023-05-28T09:03:38.000Z</time>
      </trkpt>
      <trkpt lat="43.7108" lon="3.07923">
        <ele>851</ele>
        <time>2023-05-28T09:03:40.000Z</time>
      </trkpt>
      <trkpt lat="43.7108" lon="3.07924">
        <ele>850.79998779297</ele>
        <time>2023-05-28T09:03:43.000Z</time>
      </trkpt>
      <trkpt lat="43.71075" lon="3.07922">
        <ele>850.40002441406</ele>
        <time>2023-05-28T09:03:50.000Z</time>
      </trkpt>
      <trkpt lat="43.71074" lon="3.07922">
        <ele>850.40002441406</ele>
        <time>2023-05-28T09:03:51.000Z</time>
      </trkpt>
      <trkpt lat="43.71066" lon="3.07916">
        <ele>849.59997558594</ele>
        <time>2023-05-28T09:03:59.000Z</time>
      </trkpt>
      <trkpt lat="43.71064" lon="3.07914">
        <ele>849.40002441406</ele>
        <time>2023-05-28T09:04:01.000Z</time>
      </trkpt>
      <trkpt lat="43.71056" lon="3.07909">
        <ele>848.79998779297</ele>
        <time>2023-05-28T09:04:08.000Z</time>
      </trkpt>
      <trkpt lat="43.71049" lon="3.07904">
        <ele>848.20001220703</ele>
        <time>2023-05-28T09:04:15.000Z</time>
      </trkpt>
      <trkpt lat="43.71042" lon="3.07899">
        <ele>847.79998779297</ele>
        <time>2023-05-28T09:04:22.000Z</time>
      </trkpt>
      <trkpt lat="43.71041" lon="3.07898">
        <ele>847.79998779297</ele>
        <time>2023-05-28T09:04:23.000Z</time>
      </trkpt>
      <trkpt lat="43.71039" lon="3.07897">
        <ele>847.40002441406</ele>
        <time>2023-05-28T09:04:28.000Z</time>
      </trkpt>
      <trkpt lat="43.71034" lon="3.07891">
        <ele>847.20001220703</ele>
        <time>2023-05-28T09:04:33.000Z</time>
      </trkpt>
      <trkpt lat="43.71033" lon="3.0789">
        <ele>847.20001220703</ele>
        <time>2023-05-28T09:04:34.000Z</time>
      </trkpt>
      <trkpt lat="43.71026" lon="3.07882">
        <ele>846.40002441406</ele>
        <time>2023-05-28T09:04:42.000Z</time>
      </trkpt>
      <trkpt lat="43.71023" lon="3.07879">
        <ele>846.20001220703</ele>
        <time>2023-05-28T09:04:45.000Z</time>
      </trkpt>
      <trkpt lat="43.71018" lon="3.07872">
        <ele>845.79998779297</ele>
        <time>2023-05-28T09:04:51.000Z</time>
      </trkpt>
      <trkpt lat="43.71011" lon="3.07861">
        <ele>845.20001220703</ele>
        <time>2023-05-28T09:05:00.000Z</time>
      </trkpt>
      <trkpt lat="43.7101" lon="3.0786">
        <ele>845</ele>
        <time>2023-05-28T09:05:01.000Z</time>
      </trkpt>
      <trkpt lat="43.71006" lon="3.0785">
        <ele>844.59997558594</ele>
        <time>2023-05-28T09:05:08.000Z</time>
      </trkpt>
      <trkpt lat="43.71004" lon="3.07843">
        <ele>844</ele>
        <time>2023-05-28T09:05:13.000Z</time>
      </trkpt>
      <trkpt lat="43.71003" lon="3.07839">
        <ele>843.79998779297</ele>
        <time>2023-05-28T09:05:15.000Z</time>
      </trkpt>
      <trkpt lat="43.71003" lon="3.07826">
        <ele>843.40002441406</ele>
        <time>2023-05-28T09:05:23.000Z</time>
      </trkpt>
      <trkpt lat="43.71003" lon="3.07817">
        <ele>842.79998779297</ele>
        <time>2023-05-28T09:05:29.000Z</time>
      </trkpt>
      <trkpt lat="43.71005" lon="3.07809">
        <ele>842.20001220703</ele>
        <time>2023-05-28T09:05:34.000Z</time>
      </trkpt>
      <trkpt lat="43.71006" lon="3.07796">
        <ele>841.79998779297</ele>
        <time>2023-05-28T09:05:42.000Z</time>
      </trkpt>
      <trkpt lat="43.71002" lon="3.0778">
        <ele>841.20001220703</ele>
        <time>2023-05-28T09:05:52.000Z</time>
      </trkpt>
      <trkpt lat="43.70997" lon="3.07772">
        <ele>841</ele>
        <time>2023-05-28T09:05:59.000Z</time>
      </trkpt>
      <trkpt lat="43.70994" lon="3.0777">
        <ele>840.79998779297</ele>
        <time>2023-05-28T09:06:02.000Z</time>
      </trkpt>
      <trkpt lat="43.70989" lon="3.07768">
        <ele>840.20001220703</ele>
        <time>2023-05-28T09:06:07.000Z</time>
      </trkpt>
      <trkpt lat="43.70977" lon="3.07762">
        <ele>840</ele>
        <time>2023-05-28T09:06:18.000Z</time>
      </trkpt>
      <trkpt lat="43.7097" lon="3.07759">
        <ele>840</ele>
        <time>2023-05-28T09:06:26.000Z</time>
      </trkpt>
      <trkpt lat="43.7097" lon="3.07759">
        <ele>839.59997558594</ele>
        <time>2023-05-28T09:06:28.000Z</time>
      </trkpt>
      <trkpt lat="43.70969" lon="3.07759">
        <ele>839.20001220703</ele>
        <time>2023-05-28T09:06:33.000Z</time>
      </trkpt>
      <trkpt lat="43.70969" lon="3.07759">
        <ele>838.59997558594</ele>
        <time>2023-05-28T09:06:38.000Z</time>
      </trkpt>
      <trkpt lat="43.70965" lon="3.07757">
        <ele>838.59997558594</ele>
        <time>2023-05-28T09:06:45.000Z</time>
      </trkpt>
      <trkpt lat="43.70955" lon="3.07754">
        <ele>839</ele>
        <time>2023-05-28T09:06:54.000Z</time>
      </trkpt>
      <trkpt lat="43.70948" lon="3.07754">
        <ele>838.79998779297</ele>
        <time>2023-05-28T09:07:01.000Z</time>
      </trkpt>
      <trkpt lat="43.70945" lon="3.07754">
        <ele>838.40002441406</ele>
        <time>2023-05-28T09:07:05.000Z</time>
      </trkpt>
      <trkpt lat="43.70945" lon="3.07754">
        <ele>838.20001220703</ele>
        <time>2023-05-28T09:07:08.000Z</time>
      </trkpt>
      <trkpt lat="43.70939" lon="3.07756">
        <ele>838.40002441406</ele>
        <time>2023-05-28T09:07:14.000Z</time>
      </trkpt>
      <trkpt lat="43.70928" lon="3.07761">
        <ele>837.79998779297</ele>
        <time>2023-05-28T09:07:24.000Z</time>
      </trkpt>
      <trkpt lat="43.70926" lon="3.07762">
        <ele>837.59997558594</ele>
        <time>2023-05-28T09:07:26.000Z</time>
      </trkpt>
      <trkpt lat="43.70917" lon="3.07768">
        <ele>837.20001220703</ele>
        <time>2023-05-28T09:07:34.000Z</time>
      </trkpt>
      <trkpt lat="43.70912" lon="3.07771">
        <ele>836.59997558594</ele>
        <time>2023-05-28T09:07:39.000Z</time>
      </trkpt>
      <trkpt lat="43.70908" lon="3.07772">
        <ele>836.20001220703</ele>
        <time>2023-05-28T09:07:43.000Z</time>
      </trkpt>
      <trkpt lat="43.709" lon="3.07772">
        <ele>835.59997558594</ele>
        <time>2023-05-28T09:07:51.000Z</time>
      </trkpt>
      <trkpt lat="43.70898" lon="3.07772">
        <ele>835.40002441406</ele>
        <time>2023-05-28T09:07:53.000Z</time>
      </trkpt>
      <trkpt lat="43.70888" lon="3.07768">
        <ele>834.79998779297</ele>
        <time>2023-05-28T09:08:03.000Z</time>
      </trkpt>
      <trkpt lat="43.70883" lon="3.07766">
        <ele>834.40002441406</ele>
        <time>2023-05-28T09:08:07.000Z</time>
      </trkpt>
      <trkpt lat="43.70876" lon="3.07762">
        <ele>834</ele>
        <time>2023-05-28T09:08:14.000Z</time>
      </trkpt>
      <trkpt lat="43.70865" lon="3.07757">
        <ele>833.40002441406</ele>
        <time>2023-05-28T09:08:24.000Z</time>
      </trkpt>
      <trkpt lat="43.70863" lon="3.07756">
        <ele>833.20001220703</ele>
        <time>2023-05-28T09:08:26.000Z</time>
      </trkpt>
      <trkpt lat="43.70852" lon="3.07752">
        <ele>833</ele>
        <time>2023-05-28T09:08:36.000Z</time>
      </trkpt>
      <trkpt lat="43.70839" lon="3.07748">
        <ele>832.59997558594</ele>
        <time>2023-05-28T09:08:48.000Z</time>
      </trkpt>
      <trkpt lat="43.70835" lon="3.07747">
        <ele>832.40002441406</ele>
        <time>2023-05-28T09:08:52.000Z</time>
      </trkpt>
      <trkpt lat="43.70827" lon="3.07746">
        <ele>832.40002441406</ele>
        <time>2023-05-28T09:08:59.000Z</time>
      </trkpt>
      <trkpt lat="43.70818" lon="3.07747">
        <ele>832.59997558594</ele>
        <time>2023-05-28T09:09:08.000Z</time>
      </trkpt>
      <trkpt lat="43.70809" lon="3.07747">
        <ele>832.40002441406</ele>
        <time>2023-05-28T09:09:16.000Z</time>
      </trkpt>
      <trkpt lat="43.70801" lon="3.07748">
        <ele>832.20001220703</ele>
        <time>2023-05-28T09:09:23.000Z</time>
      </trkpt>
      <trkpt lat="43.70798" lon="3.07745">
        <ele>832.20001220703</ele>
        <time>2023-05-28T09:09:31.000Z</time>
      </trkpt>
      <trkpt lat="43.70797" lon="3.07744">
        <ele>832.79998779297</ele>
        <time>2023-05-28T09:09:43.000Z</time>
      </trkpt>
      <trkpt lat="43.70795" lon="3.07746">
        <ele>832.79998779297</ele>
        <time>2023-05-28T09:09:51.000Z</time>
      </trkpt>
      <trkpt lat="43.70786" lon="3.07743">
        <ele>832.59997558594</ele>
        <time>2023-05-28T09:10:00.000Z</time>
      </trkpt>
      <trkpt lat="43.70779" lon="3.07742">
        <ele>832.79998779297</ele>
        <time>2023-05-28T09:10:07.000Z</time>
      </trkpt>
      <trkpt lat="43.70773" lon="3.07739">
        <ele>833.40002441406</ele>
        <time>2023-05-28T09:10:14.000Z</time>
      </trkpt>
      <trkpt lat="43.7077" lon="3.07737">
        <ele>833.40002441406</ele>
        <time>2023-05-28T09:10:17.000Z</time>
      </trkpt>
      <trkpt lat="43.70762" lon="3.07731">
        <ele>833.59997558594</ele>
        <time>2023-05-28T09:10:25.000Z</time>
      </trkpt>
      <trkpt lat="43.70755" lon="3.07726">
        <ele>834.40002441406</ele>
        <time>2023-05-28T09:10:32.000Z</time>
      </trkpt>
      <trkpt lat="43.70753" lon="3.07724">
        <ele>834.59997558594</ele>
        <time>2023-05-28T09:10:34.000Z</time>
      </trkpt>
      <trkpt lat="43.70748" lon="3.07715">
        <ele>834.79998779297</ele>
        <time>2023-05-28T09:10:41.000Z</time>
      </trkpt>
      <trkpt lat="43.70746" lon="3.07702">
        <ele>835</ele>
        <time>2023-05-28T09:10:49.000Z</time>
      </trkpt>
      <trkpt lat="43.70744" lon="3.07689">
        <ele>835.40002441406</ele>
        <time>2023-05-28T09:10:57.000Z</time>
      </trkpt>
      <trkpt lat="43.70743" lon="3.07686">
        <ele>835.59997558594</ele>
        <time>2023-05-28T09:10:59.000Z</time>
      </trkpt>
      <trkpt lat="43.70743" lon="3.07684">
        <ele>835.59997558594</ele>
        <time>2023-05-28T09:11:01.000Z</time>
      </trkpt>
      <trkpt lat="43.70745" lon="3.07679">
        <ele>835.79998779297</ele>
        <time>2023-05-28T09:11:05.000Z</time>
      </trkpt>
      <trkpt lat="43.70745" lon="3.07678">
        <ele>836</ele>
        <time>2023-05-28T09:11:06.000Z</time>
      </trkpt>
      <trkpt lat="43.70744" lon="3.07672">
        <ele>835.79998779297</ele>
        <time>2023-05-28T09:11:11.000Z</time>
      </trkpt>
      <trkpt lat="43.70743" lon="3.07665">
        <ele>836</ele>
        <time>2023-05-28T09:11:18.000Z</time>
      </trkpt>
      <trkpt lat="43.70742" lon="3.07657">
        <ele>836.40002441406</ele>
        <time>2023-05-28T09:11:25.000Z</time>
      </trkpt>
      <trkpt lat="43.70742" lon="3.07654">
        <ele>836.40002441406</ele>
        <time>2023-05-28T09:11:27.000Z</time>
      </trkpt>
      <trkpt lat="43.7074" lon="3.07648">
        <ele>836.59997558594</ele>
        <time>2023-05-28T09:11:31.000Z</time>
      </trkpt>
      <trkpt lat="43.70738" lon="3.07638">
        <ele>837</ele>
        <time>2023-05-28T09:11:37.000Z</time>
      </trkpt>
      <trkpt lat="43.70738" lon="3.07635">
        <ele>837</ele>
        <time>2023-05-28T09:11:39.000Z</time>
      </trkpt>
      <trkpt lat="43.70737" lon="3.07627">
        <ele>837.40002441406</ele>
        <time>2023-05-28T09:11:46.000Z</time>
      </trkpt>
      <trkpt lat="43.70737" lon="3.07624">
        <ele>837.59997558594</ele>
        <time>2023-05-28T09:11:48.000Z</time>
      </trkpt>
      <trkpt lat="43.70737" lon="3.07623">
        <ele>837.59997558594</ele>
        <time>2023-05-28T09:11:49.000Z</time>
      </trkpt>
      <trkpt lat="43.70737" lon="3.07622">
        <ele>837.59997558594</ele>
        <time>2023-05-28T09:11:50.000Z</time>
      </trkpt>
      <trkpt lat="43.70736" lon="3.0762">
        <ele>837.59997558594</ele>
        <time>2023-05-28T09:11:52.000Z</time>
      </trkpt>
      <trkpt lat="43.70734" lon="3.07613">
        <ele>838</ele>
        <time>2023-05-28T09:11:58.000Z</time>
      </trkpt>
      <trkpt lat="43.70734" lon="3.07613">
        <ele>838</ele>
        <time>2023-05-28T09:11:59.000Z</time>
      </trkpt>
      <trkpt lat="43.70733" lon="3.07611">
        <ele>838.20001220703</ele>
        <time>2023-05-28T09:12:01.000Z</time>
      </trkpt>
      <trkpt lat="43.70733" lon="3.07607">
        <ele>838.40002441406</ele>
        <time>2023-05-28T09:12:05.000Z</time>
      </trkpt>
      <trkpt lat="43.70732" lon="3.07606">
        <ele>838.59997558594</ele>
        <time>2023-05-28T09:12:07.000Z</time>
      </trkpt>
      <trkpt lat="43.7073" lon="3.07601">
        <ele>838.79998779297</ele>
        <time>2023-05-28T09:12:12.000Z</time>
      </trkpt>
      <trkpt lat="43.7073" lon="3.07591">
        <ele>839.40002441406</ele>
        <time>2023-05-28T09:12:19.000Z</time>
      </trkpt>
      <trkpt lat="43.70729" lon="3.07588">
        <ele>839.40002441406</ele>
        <time>2023-05-28T09:12:22.000Z</time>
      </trkpt>
      <trkpt lat="43.70729" lon="3.07587">
        <ele>839.79998779297</ele>
        <time>2023-05-28T09:12:23.000Z</time>
      </trkpt>
      <trkpt lat="43.70729" lon="3.07585">
        <ele>840.20001220703</ele>
        <time>2023-05-28T09:12:25.000Z</time>
      </trkpt>
      <trkpt lat="43.70729" lon="3.07579">
        <ele>840</ele>
        <time>2023-05-28T09:12:30.000Z</time>
      </trkpt>
      <trkpt lat="43.70729" lon="3.07578">
        <ele>840</ele>
        <time>2023-05-28T09:12:31.000Z</time>
      </trkpt>
      <trkpt lat="43.7073" lon="3.07573">
        <ele>840.20001220703</ele>
        <time>2023-05-28T09:12:35.000Z</time>
      </trkpt>
      <trkpt lat="43.70729" lon="3.07571">
        <ele>840.40002441406</ele>
        <time>2023-05-28T09:12:36.000Z</time>
      </trkpt>
      <trkpt lat="43.70729" lon="3.07567">
        <ele>840.59997558594</ele>
        <time>2023-05-28T09:12:39.000Z</time>
      </trkpt>
      <trkpt lat="43.70729" lon="3.07564">
        <ele>840.79998779297</ele>
        <time>2023-05-28T09:12:41.000Z</time>
      </trkpt>
      <trkpt lat="43.7073" lon="3.07563">
        <ele>840.79998779297</ele>
        <time>2023-05-28T09:12:42.000Z</time>
      </trkpt>
      <trkpt lat="43.7073" lon="3.07557">
        <ele>840.79998779297</ele>
        <time>2023-05-28T09:12:46.000Z</time>
      </trkpt>
      <trkpt lat="43.70731" lon="3.07551">
        <ele>841</ele>
        <time>2023-05-28T09:12:50.000Z</time>
      </trkpt>
      <trkpt lat="43.70732" lon="3.07541">
        <ele>841.59997558594</ele>
        <time>2023-05-28T09:12:57.000Z</time>
      </trkpt>
      <trkpt lat="43.70732" lon="3.07538">
        <ele>841.79998779297</ele>
        <time>2023-05-28T09:12:59.000Z</time>
      </trkpt>
      <trkpt lat="43.70733" lon="3.0753">
        <ele>842.20001220703</ele>
        <time>2023-05-28T09:13:05.000Z</time>
      </trkpt>
      <trkpt lat="43.70733" lon="3.07523">
        <ele>842.79998779297</ele>
        <time>2023-05-28T09:13:11.000Z</time>
      </trkpt>
      <trkpt lat="43.70734" lon="3.07523">
        <ele>842.79998779297</ele>
        <time>2023-05-28T09:13:12.000Z</time>
      </trkpt>
      <trkpt lat="43.70733" lon="3.07521">
        <ele>843.20001220703</ele>
        <time>2023-05-28T09:13:17.000Z</time>
      </trkpt>
      <trkpt lat="43.70731" lon="3.07517">
        <ele>842.79998779297</ele>
        <time>2023-05-28T09:13:26.000Z</time>
      </trkpt>
      <trkpt lat="43.70731" lon="3.07512">
        <ele>843.79998779297</ele>
        <time>2023-05-28T09:13:33.000Z</time>
      </trkpt>
      <trkpt lat="43.7073" lon="3.07501">
        <ele>844.59997558594</ele>
        <time>2023-05-28T09:13:41.000Z</time>
      </trkpt>
      <trkpt lat="43.7073" lon="3.075">
        <ele>844.59997558594</ele>
        <time>2023-05-28T09:13:42.000Z</time>
      </trkpt>
      <trkpt lat="43.70729" lon="3.07497">
        <ele>845</ele>
        <time>2023-05-28T09:13:44.000Z</time>
      </trkpt>
      <trkpt lat="43.70729" lon="3.07493">
        <ele>845.20001220703</ele>
        <time>2023-05-28T09:13:47.000Z</time>
      </trkpt>
      <trkpt lat="43.70728" lon="3.07489">
        <ele>845.59997558594</ele>
        <time>2023-05-28T09:13:50.000Z</time>
      </trkpt>
      <trkpt lat="43.70728" lon="3.07485">
        <ele>846</ele>
        <time>2023-05-28T09:13:53.000Z</time>
      </trkpt>
      <trkpt lat="43.70728" lon="3.07482">
        <ele>846.20001220703</ele>
        <time>2023-05-28T09:13:55.000Z</time>
      </trkpt>
      <trkpt lat="43.70728" lon="3.07478">
        <ele>846.59997558594</ele>
        <time>2023-05-28T09:13:58.000Z</time>
      </trkpt>
      <trkpt lat="43.70727" lon="3.07472">
        <ele>847</ele>
        <time>2023-05-28T09:14:02.000Z</time>
      </trkpt>
      <trkpt lat="43.70727" lon="3.07471">
        <ele>847</ele>
        <time>2023-05-28T09:14:03.000Z</time>
      </trkpt>
      <trkpt lat="43.70726" lon="3.07468">
        <ele>847.40002441406</ele>
        <time>2023-05-28T09:14:05.000Z</time>
      </trkpt>
      <trkpt lat="43.70726" lon="3.07464">
        <ele>847.79998779297</ele>
        <time>2023-05-28T09:14:09.000Z</time>
      </trkpt>
      <trkpt lat="43.70726" lon="3.07462">
        <ele>848</ele>
        <time>2023-05-28T09:14:11.000Z</time>
      </trkpt>
      <trkpt lat="43.70727" lon="3.0746">
        <ele>848.20001220703</ele>
        <time>2023-05-28T09:14:13.000Z</time>
      </trkpt>
      <trkpt lat="43.70726" lon="3.0746">
        <ele>848.20001220703</ele>
        <time>2023-05-28T09:14:14.000Z</time>
      </trkpt>
      <trkpt lat="43.70726" lon="3.07458">
        <ele>848.40002441406</ele>
        <time>2023-05-28T09:14:17.000Z</time>
      </trkpt>
      <trkpt lat="43.70726" lon="3.0745">
        <ele>849</ele>
        <time>2023-05-28T09:14:24.000Z</time>
      </trkpt>
      <trkpt lat="43.70726" lon="3.07448">
        <ele>849.20001220703</ele>
        <time>2023-05-28T09:14:26.000Z</time>
      </trkpt>
      <trkpt lat="43.70725" lon="3.07442">
        <ele>849.59997558594</ele>
        <time>2023-05-28T09:14:32.000Z</time>
      </trkpt>
      <trkpt lat="43.70724" lon="3.07433">
        <ele>850.20001220703</ele>
        <time>2023-05-28T09:14:40.000Z</time>
      </trkpt>
      <trkpt lat="43.70723" lon="3.07432">
        <ele>850.20001220703</ele>
        <time>2023-05-28T09:14:41.000Z</time>
      </trkpt>
      <trkpt lat="43.70722" lon="3.07423">
        <ele>850.79998779297</ele>
        <time>2023-05-28T09:14:50.000Z</time>
      </trkpt>
      <trkpt lat="43.7072" lon="3.07418">
        <ele>851.20001220703</ele>
        <time>2023-05-28T09:14:55.000Z</time>
      </trkpt>
      <trkpt lat="43.7072" lon="3.07416">
        <ele>851.40002441406</ele>
        <time>2023-05-28T09:14:57.000Z</time>
      </trkpt>
      <trkpt lat="43.70718" lon="3.07411">
        <ele>851.59997558594</ele>
        <time>2023-05-28T09:15:03.000Z</time>
      </trkpt>
      <trkpt lat="43.70718" lon="3.07406">
        <ele>852.20001220703</ele>
        <time>2023-05-28T09:15:08.000Z</time>
      </trkpt>
      <trkpt lat="43.70718" lon="3.07405">
        <ele>852.40002441406</ele>
        <time>2023-05-28T09:15:09.000Z</time>
      </trkpt>
      <trkpt lat="43.70717" lon="3.07398">
        <ele>852.79998779297</ele>
        <time>2023-05-28T09:15:16.000Z</time>
      </trkpt>
      <trkpt lat="43.70716" lon="3.07392">
        <ele>853.20001220703</ele>
        <time>2023-05-28T09:15:22.000Z</time>
      </trkpt>
      <trkpt lat="43.70716" lon="3.07391">
        <ele>853.40002441406</ele>
        <time>2023-05-28T09:15:23.000Z</time>
      </trkpt>
      <trkpt lat="43.70715" lon="3.07385">
        <ele>854</ele>
        <time>2023-05-28T09:15:30.000Z</time>
      </trkpt>
      <trkpt lat="43.70714" lon="3.07379">
        <ele>854.20001220703</ele>
        <time>2023-05-28T09:15:36.000Z</time>
      </trkpt>
      <trkpt lat="43.70714" lon="3.07378">
        <ele>854.40002441406</ele>
        <time>2023-05-28T09:15:37.000Z</time>
      </trkpt>
      <trkpt lat="43.70713" lon="3.07372">
        <ele>854.79998779297</ele>
        <time>2023-05-28T09:15:44.000Z</time>
      </trkpt>
      <trkpt lat="43.70712" lon="3.0737">
        <ele>855.20001220703</ele>
        <time>2023-05-28T09:15:51.000Z</time>
      </trkpt>
      <trkpt lat="43.70712" lon="3.07367">
        <ele>854.79998779297</ele>
        <time>2023-05-28T09:16:00.000Z</time>
      </trkpt>
      <trkpt lat="43.70711" lon="3.07367">
        <ele>855.20001220703</ele>
        <time>2023-05-28T09:16:06.000Z</time>
      </trkpt>
      <trkpt lat="43.70711" lon="3.07367">
        <ele>855.40002441406</ele>
        <time>2023-05-28T09:16:07.000Z</time>
      </trkpt>
      <trkpt lat="43.70711" lon="3.07366">
        <ele>855.20001220703</ele>
        <time>2023-05-28T09:16:17.000Z</time>
      </trkpt>
      <trkpt lat="43.7071" lon="3.07365">
        <ele>855</ele>
        <time>2023-05-28T09:16:24.000Z</time>
      </trkpt>
      <trkpt lat="43.70709" lon="3.07358">
        <ele>855.20001220703</ele>
        <time>2023-05-28T09:16:30.000Z</time>
      </trkpt>
      <trkpt lat="43.70706" lon="3.0735">
        <ele>855.79998779297</ele>
        <time>2023-05-28T09:16:37.000Z</time>
      </trkpt>
      <trkpt lat="43.70706" lon="3.07349">
        <ele>855.79998779297</ele>
        <time>2023-05-28T09:16:38.000Z</time>
      </trkpt>
      <trkpt lat="43.70704" lon="3.07343">
        <ele>856.40002441406</ele>
        <time>2023-05-28T09:16:44.000Z</time>
      </trkpt>
      <trkpt lat="43.70704" lon="3.07341">
        <ele>856.40002441406</ele>
        <time>2023-05-28T09:16:45.000Z</time>
      </trkpt>
      <trkpt lat="43.70704" lon="3.0734">
        <ele>856.59997558594</ele>
        <time>2023-05-28T09:16:46.000Z</time>
      </trkpt>
      <trkpt lat="43.70701" lon="3.07332">
        <ele>857.40002441406</ele>
        <time>2023-05-28T09:16:54.000Z</time>
      </trkpt>
      <trkpt lat="43.707" lon="3.0733">
        <ele>857.59997558594</ele>
        <time>2023-05-28T09:16:56.000Z</time>
      </trkpt>
      <trkpt lat="43.70698" lon="3.07325">
        <ele>858</ele>
        <time>2023-05-28T09:17:01.000Z</time>
      </trkpt>
      <trkpt lat="43.70695" lon="3.07319">
        <ele>858.59997558594</ele>
        <time>2023-05-28T09:17:07.000Z</time>
      </trkpt>
      <trkpt lat="43.70695" lon="3.07318">
        <ele>858.59997558594</ele>
        <time>2023-05-28T09:17:08.000Z</time>
      </trkpt>
      <trkpt lat="43.70692" lon="3.07313">
        <ele>859.20001220703</ele>
        <time>2023-05-28T09:17:14.000Z</time>
      </trkpt>
      <trkpt lat="43.7069" lon="3.07309">
        <ele>859.59997558594</ele>
        <time>2023-05-28T09:17:19.000Z</time>
      </trkpt>
      <trkpt lat="43.70689" lon="3.07307">
        <ele>859.79998779297</ele>
        <time>2023-05-28T09:17:21.000Z</time>
      </trkpt>
      <trkpt lat="43.70687" lon="3.07301">
        <ele>860.40002441406</ele>
        <time>2023-05-28T09:17:27.000Z</time>
      </trkpt>
      <trkpt lat="43.70686" lon="3.073">
        <ele>860.59997558594</ele>
        <time>2023-05-28T09:17:29.000Z</time>
      </trkpt>
      <trkpt lat="43.70684" lon="3.07297">
        <ele>861</ele>
        <time>2023-05-28T09:17:34.000Z</time>
      </trkpt>
      <trkpt lat="43.70682" lon="3.07291">
        <ele>861.79998779297</ele>
        <time>2023-05-28T09:17:41.000Z</time>
      </trkpt>
      <trkpt lat="43.70682" lon="3.07291">
        <ele>861.79998779297</ele>
        <time>2023-05-28T09:17:42.000Z</time>
      </trkpt>
      <trkpt lat="43.7068" lon="3.07287">
        <ele>862.20001220703</ele>
        <time>2023-05-28T09:17:47.000Z</time>
      </trkpt>
      <trkpt lat="43.70679" lon="3.07279">
        <ele>862.20001220703</ele>
        <time>2023-05-28T09:17:55.000Z</time>
      </trkpt>
      <trkpt lat="43.70678" lon="3.07276">
        <ele>862.79998779297</ele>
        <time>2023-05-28T09:18:01.000Z</time>
      </trkpt>
      <trkpt lat="43.70678" lon="3.07275">
        <ele>862.79998779297</ele>
        <time>2023-05-28T09:18:02.000Z</time>
      </trkpt>
      <trkpt lat="43.70675" lon="3.0727">
        <ele>863.20001220703</ele>
        <time>2023-05-28T09:18:08.000Z</time>
      </trkpt>
      <trkpt lat="43.70674" lon="3.07267">
        <ele>863.79998779297</ele>
        <time>2023-05-28T09:18:15.000Z</time>
      </trkpt>
      <trkpt lat="43.70674" lon="3.07266">
        <ele>863.79998779297</ele>
        <time>2023-05-28T09:18:16.000Z</time>
      </trkpt>
      <trkpt lat="43.70673" lon="3.07264">
        <ele>863.59997558594</ele>
        <time>2023-05-28T09:18:24.000Z</time>
      </trkpt>
      <trkpt lat="43.70674" lon="3.07256">
        <ele>864.20001220703</ele>
        <time>2023-05-28T09:18:32.000Z</time>
      </trkpt>
      <trkpt lat="43.70675" lon="3.0725">
        <ele>864.79998779297</ele>
        <time>2023-05-28T09:18:38.000Z</time>
      </trkpt>
      <trkpt lat="43.70675" lon="3.07249">
        <ele>864.79998779297</ele>
        <time>2023-05-28T09:18:39.000Z</time>
      </trkpt>
      <trkpt lat="43.70677" lon="3.07244">
        <ele>865.40002441406</ele>
        <time>2023-05-28T09:18:44.000Z</time>
      </trkpt>
      <trkpt lat="43.70679" lon="3.07238">
        <ele>865.79998779297</ele>
        <time>2023-05-28T09:18:49.000Z</time>
      </trkpt>
      <trkpt lat="43.70679" lon="3.07236">
        <ele>866.20001220703</ele>
        <time>2023-05-28T09:18:52.000Z</time>
      </trkpt>
      <trkpt lat="43.70681" lon="3.07231">
        <ele>866.79998779297</ele>
        <time>2023-05-28T09:18:58.000Z</time>
      </trkpt>
      <trkpt lat="43.70681" lon="3.0723">
        <ele>867</ele>
        <time>2023-05-28T09:18:59.000Z</time>
      </trkpt>
      <trkpt lat="43.70684" lon="3.07225">
        <ele>867.59997558594</ele>
        <time>2023-05-28T09:19:05.000Z</time>
      </trkpt>
      <trkpt lat="43.70687" lon="3.07219">
        <ele>867.59997558594</ele>
        <time>2023-05-28T09:19:12.000Z</time>
      </trkpt>
      <trkpt lat="43.70689" lon="3.07216">
        <ele>868</ele>
        <time>2023-05-28T09:19:15.000Z</time>
      </trkpt>
      <trkpt lat="43.70691" lon="3.07213">
        <ele>868.20001220703</ele>
        <time>2023-05-28T09:19:19.000Z</time>
      </trkpt>
      <trkpt lat="43.70697" lon="3.07207">
        <ele>868.40002441406</ele>
        <time>2023-05-28T09:19:25.000Z</time>
      </trkpt>
      <trkpt lat="43.70698" lon="3.07205">
        <ele>873.79998779297</ele>
        <time>2023-05-28T09:19:27.000Z</time>
      </trkpt>
      <trkpt lat="43.707" lon="3.07202">
        <ele>874.20001220703</ele>
        <time>2023-05-28T09:19:30.000Z</time>
      </trkpt>
      <trkpt lat="43.70701" lon="3.072">
        <ele>869</ele>
        <time>2023-05-28T09:19:32.000Z</time>
      </trkpt>
      <trkpt lat="43.70704" lon="3.07196">
        <ele>869.20001220703</ele>
        <time>2023-05-28T09:19:36.000Z</time>
      </trkpt>
      <trkpt lat="43.70706" lon="3.07192">
        <ele>869.40002441406</ele>
        <time>2023-05-28T09:19:40.000Z</time>
      </trkpt>
      <trkpt lat="43.70709" lon="3.07187">
        <ele>869.79998779297</ele>
        <time>2023-05-28T09:19:46.000Z</time>
      </trkpt>
      <trkpt lat="43.7071" lon="3.07184">
        <ele>870.20001220703</ele>
        <time>2023-05-28T09:19:49.000Z</time>
      </trkpt>
      <trkpt lat="43.70712" lon="3.07181">
        <ele>870.40002441406</ele>
        <time>2023-05-28T09:19:53.000Z</time>
      </trkpt>
      <trkpt lat="43.70713" lon="3.0718">
        <ele>870.40002441406</ele>
        <time>2023-05-28T09:19:54.000Z</time>
      </trkpt>
      <trkpt lat="43.70715" lon="3.07174">
        <ele>871</ele>
        <time>2023-05-28T09:20:00.000Z</time>
      </trkpt>
      <trkpt lat="43.70717" lon="3.07172">
        <ele>871.20001220703</ele>
        <time>2023-05-28T09:20:03.000Z</time>
      </trkpt>
      <trkpt lat="43.70718" lon="3.07171">
        <ele>872</ele>
        <time>2023-05-28T09:20:08.000Z</time>
      </trkpt>
      <trkpt lat="43.70721" lon="3.07165">
        <ele>872</ele>
        <time>2023-05-28T09:20:15.000Z</time>
      </trkpt>
      <trkpt lat="43.70722" lon="3.07162">
        <ele>872.20001220703</ele>
        <time>2023-05-28T09:20:19.000Z</time>
      </trkpt>
      <trkpt lat="43.70724" lon="3.0716">
        <ele>872.59997558594</ele>
        <time>2023-05-28T09:20:23.000Z</time>
      </trkpt>
      <trkpt lat="43.70727" lon="3.07155">
        <ele>873</ele>
        <time>2023-05-28T09:20:29.000Z</time>
      </trkpt>
      <trkpt lat="43.7073" lon="3.07152">
        <ele>873.20001220703</ele>
        <time>2023-05-28T09:20:33.000Z</time>
      </trkpt>
      <trkpt lat="43.7073" lon="3.0715">
        <ele>873.40002441406</ele>
        <time>2023-05-28T09:20:35.000Z</time>
      </trkpt>
      <trkpt lat="43.70734" lon="3.07146">
        <ele>874</ele>
        <time>2023-05-28T09:20:42.000Z</time>
      </trkpt>
      <trkpt lat="43.70737" lon="3.07143">
        <ele>874.20001220703</ele>
        <time>2023-05-28T09:20:48.000Z</time>
      </trkpt>
      <trkpt lat="43.70738" lon="3.07142">
        <ele>874.40002441406</ele>
        <time>2023-05-28T09:20:50.000Z</time>
      </trkpt>
      <trkpt lat="43.7074" lon="3.07139">
        <ele>875</ele>
        <time>2023-05-28T09:20:56.000Z</time>
      </trkpt>
      <trkpt lat="43.70743" lon="3.07136">
        <ele>875.40002441406</ele>
        <time>2023-05-28T09:21:01.000Z</time>
      </trkpt>
      <trkpt lat="43.70745" lon="3.07134">
        <ele>875.59997558594</ele>
        <time>2023-05-28T09:21:04.000Z</time>
      </trkpt>
      <trkpt lat="43.70748" lon="3.0713">
        <ele>876</ele>
        <time>2023-05-28T09:21:11.000Z</time>
      </trkpt>
      <trkpt lat="43.7075" lon="3.07129">
        <ele>876.40002441406</ele>
        <time>2023-05-28T09:21:13.000Z</time>
      </trkpt>
      <trkpt lat="43.70752" lon="3.07125">
        <ele>877</ele>
        <time>2023-05-28T09:21:18.000Z</time>
      </trkpt>
      <trkpt lat="43.70756" lon="3.07122">
        <ele>877.40002441406</ele>
        <time>2023-05-28T09:21:25.000Z</time>
      </trkpt>
      <trkpt lat="43.70756" lon="3.07121">
        <ele>877.40002441406</ele>
        <time>2023-05-28T09:21:26.000Z</time>
      </trkpt>
      <trkpt lat="43.7076" lon="3.07117">
        <ele>877.79998779297</ele>
        <time>2023-05-28T09:21:33.000Z</time>
      </trkpt>
      <trkpt lat="43.70766" lon="3.07114">
        <ele>878.20001220703</ele>
        <time>2023-05-28T09:21:39.000Z</time>
      </trkpt>
      <trkpt lat="43.70767" lon="3.07114">
        <ele>878.20001220703</ele>
        <time>2023-05-28T09:21:40.000Z</time>
      </trkpt>
      <trkpt lat="43.7077" lon="3.07112">
        <ele>878.40002441406</ele>
        <time>2023-05-28T09:21:44.000Z</time>
      </trkpt>
      <trkpt lat="43.70772" lon="3.07112">
        <ele>878.40002441406</ele>
        <time>2023-05-28T09:21:46.000Z</time>
      </trkpt>
      <trkpt lat="43.70774" lon="3.07111">
        <ele>878.79998779297</ele>
        <time>2023-05-28T09:21:49.000Z</time>
      </trkpt>
      <trkpt lat="43.70776" lon="3.0711">
        <ele>879</ele>
        <time>2023-05-28T09:21:51.000Z</time>
      </trkpt>
      <trkpt lat="43.70778" lon="3.07108">
        <ele>879.40002441406</ele>
        <time>2023-05-28T09:21:54.000Z</time>
      </trkpt>
      <trkpt lat="43.70778" lon="3.07108">
        <ele>879.40002441406</ele>
        <time>2023-05-28T09:21:55.000Z</time>
      </trkpt>
      <trkpt lat="43.7078" lon="3.07107">
        <ele>879.79998779297</ele>
        <time>2023-05-28T09:21:59.000Z</time>
      </trkpt>
      <trkpt lat="43.70788" lon="3.07105">
        <ele>880.20001220703</ele>
        <time>2023-05-28T09:22:06.000Z</time>
      </trkpt>
      <trkpt lat="43.70788" lon="3.07105">
        <ele>880.40002441406</ele>
        <time>2023-05-28T09:22:07.000Z</time>
      </trkpt>
      <trkpt lat="43.70788" lon="3.07105">
        <ele>880.59997558594</ele>
        <time>2023-05-28T09:22:08.000Z</time>
      </trkpt>
      <trkpt lat="43.70791" lon="3.07103">
        <ele>880.79998779297</ele>
        <time>2023-05-28T09:22:15.000Z</time>
      </trkpt>
      <trkpt lat="43.70791" lon="3.07104">
        <ele>880.20001220703</ele>
        <time>2023-05-28T09:22:26.000Z</time>
      </trkpt>
      <trkpt lat="43.70801" lon="3.071">
        <ele>881</ele>
        <time>2023-05-28T09:22:32.000Z</time>
      </trkpt>
      <trkpt lat="43.70802" lon="3.07099">
        <ele>881.59997558594</ele>
        <time>2023-05-28T09:22:37.000Z</time>
      </trkpt>
      <trkpt lat="43.70802" lon="3.071">
        <ele>881.59997558594</ele>
        <time>2023-05-28T09:22:38.000Z</time>
      </trkpt>
      <trkpt lat="43.70802" lon="3.07099">
        <ele>882.20001220703</ele>
        <time>2023-05-28T09:22:45.000Z</time>
      </trkpt>
      <trkpt lat="43.70804" lon="3.07099">
        <ele>882.40002441406</ele>
        <time>2023-05-28T09:22:50.000Z</time>
      </trkpt>
      <trkpt lat="43.70807" lon="3.07099">
        <ele>882.59997558594</ele>
        <time>2023-05-28T09:22:53.000Z</time>
      </trkpt>
      <trkpt lat="43.70807" lon="3.071">
        <ele>883</ele>
        <time>2023-05-28T09:22:56.000Z</time>
      </trkpt>
      <trkpt lat="43.70813" lon="3.071">
        <ele>883.59997558594</ele>
        <time>2023-05-28T09:23:03.000Z</time>
      </trkpt>
      <trkpt lat="43.70815" lon="3.07099">
        <ele>884</ele>
        <time>2023-05-28T09:23:09.000Z</time>
      </trkpt>
      <trkpt lat="43.70815" lon="3.07099">
        <ele>884.59997558594</ele>
        <time>2023-05-28T09:23:15.000Z</time>
      </trkpt>
      <trkpt lat="43.7082" lon="3.071">
        <ele>884.79998779297</ele>
        <time>2023-05-28T09:23:17.000Z</time>
      </trkpt>
      <trkpt lat="43.70822" lon="3.07098">
        <ele>885.20001220703</ele>
        <time>2023-05-28T09:23:23.000Z</time>
      </trkpt>
      <trkpt lat="43.70825" lon="3.07094">
        <ele>885.59997558594</ele>
        <time>2023-05-28T09:23:31.000Z</time>
      </trkpt>
      <trkpt lat="43.70825" lon="3.07094">
        <ele>885.79998779297</ele>
        <time>2023-05-28T09:23:32.000Z</time>
      </trkpt>
      <trkpt lat="43.70829" lon="3.07093">
        <ele>886.20001220703</ele>
        <time>2023-05-28T09:23:38.000Z</time>
      </trkpt>
      <trkpt lat="43.7083" lon="3.07091">
        <ele>885.79998779297</ele>
        <time>2023-05-28T09:23:44.000Z</time>
      </trkpt>
      <trkpt lat="43.70834" lon="3.07091">
        <ele>886.40002441406</ele>
        <time>2023-05-28T09:23:49.000Z</time>
      </trkpt>
      <trkpt lat="43.70838" lon="3.07088">
        <ele>886.79998779297</ele>
        <time>2023-05-28T09:23:54.000Z</time>
      </trkpt>
      <trkpt lat="43.70839" lon="3.07088">
        <ele>887</ele>
        <time>2023-05-28T09:23:55.000Z</time>
      </trkpt>
      <trkpt lat="43.70843" lon="3.07085">
        <ele>887.40002441406</ele>
        <time>2023-05-28T09:23:59.000Z</time>
      </trkpt>
      <trkpt lat="43.70846" lon="3.07086">
        <ele>887.59997558594</ele>
        <time>2023-05-28T09:24:01.000Z</time>
      </trkpt>
      <trkpt lat="43.70847" lon="3.07085">
        <ele>887.59997558594</ele>
        <time>2023-05-28T09:24:02.000Z</time>
      </trkpt>
      <trkpt lat="43.70849" lon="3.07084">
        <ele>887.79998779297</ele>
        <time>2023-05-28T09:24:04.000Z</time>
      </trkpt>
      <trkpt lat="43.70851" lon="3.07082">
        <ele>888</ele>
        <time>2023-05-28T09:24:06.000Z</time>
      </trkpt>
      <trkpt lat="43.70854" lon="3.07077">
        <ele>888.59997558594</ele>
        <time>2023-05-28T09:24:13.000Z</time>
      </trkpt>
      <trkpt lat="43.70856" lon="3.07074">
        <ele>888.79998779297</ele>
        <time>2023-05-28T09:24:16.000Z</time>
      </trkpt>
      <trkpt lat="43.70857" lon="3.07074">
        <ele>888.79998779297</ele>
        <time>2023-05-28T09:24:17.000Z</time>
      </trkpt>
      <trkpt lat="43.70858" lon="3.07073">
        <ele>888.79998779297</ele>
        <time>2023-05-28T09:24:19.000Z</time>
      </trkpt>
      <trkpt lat="43.70863" lon="3.07069">
        <ele>889.20001220703</ele>
        <time>2023-05-28T09:24:25.000Z</time>
      </trkpt>
      <trkpt lat="43.70864" lon="3.07065">
        <ele>889.79998779297</ele>
        <time>2023-05-28T09:24:30.000Z</time>
      </trkpt>
      <trkpt lat="43.70865" lon="3.07063">
        <ele>889.79998779297</ele>
        <time>2023-05-28T09:24:32.000Z</time>
      </trkpt>
      <trkpt lat="43.70867" lon="3.07058">
        <ele>890.40002441406</ele>
        <time>2023-05-28T09:24:38.000Z</time>
      </trkpt>
      <trkpt lat="43.7087" lon="3.07052">
        <ele>890.79998779297</ele>
        <time>2023-05-28T09:24:44.000Z</time>
      </trkpt>
      <trkpt lat="43.7087" lon="3.07052">
        <ele>891</ele>
        <time>2023-05-28T09:24:45.000Z</time>
      </trkpt>
      <trkpt lat="43.7087" lon="3.07051">
        <ele>891.59997558594</ele>
        <time>2023-05-28T09:24:50.000Z</time>
      </trkpt>
      <trkpt lat="43.70871" lon="3.07044">
        <ele>892</ele>
        <time>2023-05-28T09:24:58.000Z</time>
      </trkpt>
      <trkpt lat="43.70874" lon="3.07038">
        <ele>892.40002441406</ele>
        <time>2023-05-28T09:25:05.000Z</time>
      </trkpt>
      <trkpt lat="43.70875" lon="3.07034">
        <ele>893</ele>
        <time>2023-05-28T09:25:12.000Z</time>
      </trkpt>
      <trkpt lat="43.70876" lon="3.07032">
        <ele>893</ele>
        <time>2023-05-28T09:25:13.000Z</time>
      </trkpt>
      <trkpt lat="43.70877" lon="3.0703">
        <ele>893.59997558594</ele>
        <time>2023-05-28T09:25:19.000Z</time>
      </trkpt>
      <trkpt lat="43.70877" lon="3.07029">
        <ele>893.59997558594</ele>
        <time>2023-05-28T09:25:25.000Z</time>
      </trkpt>
      <trkpt lat="43.70877" lon="3.07029">
        <ele>893.40002441406</ele>
        <time>2023-05-28T09:25:32.000Z</time>
      </trkpt>
      <trkpt lat="43.70877" lon="3.07027">
        <ele>893.40002441406</ele>
        <time>2023-05-28T09:25:38.000Z</time>
      </trkpt>
      <trkpt lat="43.70881" lon="3.07029">
        <ele>893.79998779297</ele>
        <time>2023-05-28T09:25:46.000Z</time>
      </trkpt>
      <trkpt lat="43.70882" lon="3.07029">
        <ele>893.59997558594</ele>
        <time>2023-05-28T09:25:53.000Z</time>
      </trkpt>
      <trkpt lat="43.70883" lon="3.07025">
        <ele>893.20001220703</ele>
        <time>2023-05-28T09:26:00.000Z</time>
      </trkpt>
      <trkpt lat="43.70884" lon="3.07018">
        <ele>893.79998779297</ele>
        <time>2023-05-28T09:26:06.000Z</time>
      </trkpt>
      <trkpt lat="43.70884" lon="3.07016">
        <ele>894</ele>
        <time>2023-05-28T09:26:08.000Z</time>
      </trkpt>
      <trkpt lat="43.70885" lon="3.0701">
        <ele>894.40002441406</ele>
        <time>2023-05-28T09:26:13.000Z</time>
      </trkpt>
      <trkpt lat="43.70885" lon="3.0701">
        <ele>894.59997558594</ele>
        <time>2023-05-28T09:26:14.000Z</time>
      </trkpt>
      <trkpt lat="43.70887" lon="3.07004">
        <ele>895</ele>
        <time>2023-05-28T09:26:20.000Z</time>
      </trkpt>
      <trkpt lat="43.70888" lon="3.07002">
        <ele>895.20001220703</ele>
        <time>2023-05-28T09:26:22.000Z</time>
      </trkpt>
      <trkpt lat="43.70891" lon="3.06996">
        <ele>895.40002441406</ele>
        <time>2023-05-28T09:26:28.000Z</time>
      </trkpt>
      <trkpt lat="43.70891" lon="3.06995">
        <ele>895.40002441406</ele>
        <time>2023-05-28T09:26:29.000Z</time>
      </trkpt>
      <trkpt lat="43.70893" lon="3.06991">
        <ele>895.59997558594</ele>
        <time>2023-05-28T09:26:33.000Z</time>
      </trkpt>
      <trkpt lat="43.70895" lon="3.06987">
        <ele>896</ele>
        <time>2023-05-28T09:26:37.000Z</time>
      </trkpt>
      <trkpt lat="43.70896" lon="3.06986">
        <ele>896.20001220703</ele>
        <time>2023-05-28T09:26:39.000Z</time>
      </trkpt>
      <trkpt lat="43.70897" lon="3.06984">
        <ele>896.20001220703</ele>
        <time>2023-05-28T09:26:41.000Z</time>
      </trkpt>
      <trkpt lat="43.709" lon="3.06982">
        <ele>896.59997558594</ele>
        <time>2023-05-28T09:26:44.000Z</time>
      </trkpt>
      <trkpt lat="43.70903" lon="3.0698">
        <ele>897</ele>
        <time>2023-05-28T09:26:48.000Z</time>
      </trkpt>
      <trkpt lat="43.70904" lon="3.06979">
        <ele>897</ele>
        <time>2023-05-28T09:26:49.000Z</time>
      </trkpt>
      <trkpt lat="43.70905" lon="3.06976">
        <ele>897.20001220703</ele>
        <time>2023-05-28T09:26:52.000Z</time>
      </trkpt>
      <trkpt lat="43.70906" lon="3.06976">
        <ele>897.40002441406</ele>
        <time>2023-05-28T09:26:53.000Z</time>
      </trkpt>
      <trkpt lat="43.70905" lon="3.06975">
        <ele>897.59997558594</ele>
        <time>2023-05-28T09:26:56.000Z</time>
      </trkpt>
      <trkpt lat="43.70909" lon="3.0697">
        <ele>897.59997558594</ele>
        <time>2023-05-28T09:27:02.000Z</time>
      </trkpt>
      <trkpt lat="43.70912" lon="3.06966">
        <ele>898.20001220703</ele>
        <time>2023-05-28T09:27:08.000Z</time>
      </trkpt>
      <trkpt lat="43.70911" lon="3.06966">
        <ele>898.20001220703</ele>
        <time>2023-05-28T09:27:09.000Z</time>
      </trkpt>
      <trkpt lat="43.70913" lon="3.06961">
        <ele>898.20001220703</ele>
        <time>2023-05-28T09:27:18.000Z</time>
      </trkpt>
      <trkpt lat="43.70912" lon="3.06952">
        <ele>898.59997558594</ele>
        <time>2023-05-28T09:27:25.000Z</time>
      </trkpt>
      <trkpt lat="43.70912" lon="3.06947">
        <ele>898.79998779297</ele>
        <time>2023-05-28T09:27:29.000Z</time>
      </trkpt>
      <trkpt lat="43.70913" lon="3.06943">
        <ele>899</ele>
        <time>2023-05-28T09:27:33.000Z</time>
      </trkpt>
      <trkpt lat="43.70913" lon="3.0694">
        <ele>899.20001220703</ele>
        <time>2023-05-28T09:27:36.000Z</time>
      </trkpt>
      <trkpt lat="43.70915" lon="3.06937">
        <ele>899.40002441406</ele>
        <time>2023-05-28T09:27:40.000Z</time>
      </trkpt>
      <trkpt lat="43.70917" lon="3.0693">
        <ele>900</ele>
        <time>2023-05-28T09:27:46.000Z</time>
      </trkpt>
      <trkpt lat="43.70919" lon="3.06929">
        <ele>900.40002441406</ele>
        <time>2023-05-28T09:27:48.000Z</time>
      </trkpt>
      <trkpt lat="43.7092" lon="3.06926">
        <ele>900.79998779297</ele>
        <time>2023-05-28T09:27:51.000Z</time>
      </trkpt>
      <trkpt lat="43.70922" lon="3.06924">
        <ele>900.59997558594</ele>
        <time>2023-05-28T09:27:54.000Z</time>
      </trkpt>
      <trkpt lat="43.70925" lon="3.06921">
        <ele>900.79998779297</ele>
        <time>2023-05-28T09:27:58.000Z</time>
      </trkpt>
      <trkpt lat="43.70929" lon="3.06918">
        <ele>901.20001220703</ele>
        <time>2023-05-28T09:28:04.000Z</time>
      </trkpt>
      <trkpt lat="43.70932" lon="3.06916">
        <ele>901.40002441406</ele>
        <time>2023-05-28T09:28:08.000Z</time>
      </trkpt>
      <trkpt lat="43.70934" lon="3.06914">
        <ele>901.59997558594</ele>
        <time>2023-05-28T09:28:11.000Z</time>
      </trkpt>
      <trkpt lat="43.70935" lon="3.06912">
        <ele>901.79998779297</ele>
        <time>2023-05-28T09:28:13.000Z</time>
      </trkpt>
      <trkpt lat="43.70935" lon="3.06912">
        <ele>901.79998779297</ele>
        <time>2023-05-28T09:28:14.000Z</time>
      </trkpt>
      <trkpt lat="43.70938" lon="3.06909">
        <ele>902.40002441406</ele>
        <time>2023-05-28T09:28:19.000Z</time>
      </trkpt>
      <trkpt lat="43.70939" lon="3.06908">
        <ele>902.59997558594</ele>
        <time>2023-05-28T09:28:21.000Z</time>
      </trkpt>
      <trkpt lat="43.70942" lon="3.06906">
        <ele>903</ele>
        <time>2023-05-28T09:28:26.000Z</time>
      </trkpt>
      <trkpt lat="43.70945" lon="3.06903">
        <ele>903.59997558594</ele>
        <time>2023-05-28T09:28:33.000Z</time>
      </trkpt>
      <trkpt lat="43.70948" lon="3.06899">
        <ele>904.20001220703</ele>
        <time>2023-05-28T09:28:39.000Z</time>
      </trkpt>
      <trkpt lat="43.70952" lon="3.06897">
        <ele>904.59997558594</ele>
        <time>2023-05-28T09:28:44.000Z</time>
      </trkpt>
      <trkpt lat="43.70952" lon="3.06896">
        <ele>904.79998779297</ele>
        <time>2023-05-28T09:28:46.000Z</time>
      </trkpt>
      <trkpt lat="43.70954" lon="3.06894">
        <ele>905.40002441406</ele>
        <time>2023-05-28T09:28:51.000Z</time>
      </trkpt>
      <trkpt lat="43.70955" lon="3.06892">
        <ele>905.59997558594</ele>
        <time>2023-05-28T09:28:53.000Z</time>
      </trkpt>
      <trkpt lat="43.70956" lon="3.06888">
        <ele>905.79998779297</ele>
        <time>2023-05-28T09:28:57.000Z</time>
      </trkpt>
      <trkpt lat="43.7096" lon="3.06882">
        <ele>906.59997558594</ele>
        <time>2023-05-28T09:29:04.000Z</time>
      </trkpt>
      <trkpt lat="43.7096" lon="3.06881">
        <ele>906.59997558594</ele>
        <time>2023-05-28T09:29:05.000Z</time>
      </trkpt>
      <trkpt lat="43.7096" lon="3.0688">
        <ele>906.79998779297</ele>
        <time>2023-05-28T09:29:06.000Z</time>
      </trkpt>
      <trkpt lat="43.70962" lon="3.06877">
        <ele>907</ele>
        <time>2023-05-28T09:29:09.000Z</time>
      </trkpt>
      <trkpt lat="43.70962" lon="3.06876">
        <ele>907.20001220703</ele>
        <time>2023-05-28T09:29:10.000Z</time>
      </trkpt>
      <trkpt lat="43.70964" lon="3.06872">
        <ele>907.59997558594</ele>
        <time>2023-05-28T09:29:14.000Z</time>
      </trkpt>
      <trkpt lat="43.70964" lon="3.06872">
        <ele>907.59997558594</ele>
        <time>2023-05-28T09:29:15.000Z</time>
      </trkpt>
      <trkpt lat="43.70965" lon="3.06869">
        <ele>907.79998779297</ele>
        <time>2023-05-28T09:29:17.000Z</time>
      </trkpt>
      <trkpt lat="43.70968" lon="3.06866">
        <ele>908.20001220703</ele>
        <time>2023-05-28T09:29:22.000Z</time>
      </trkpt>
      <trkpt lat="43.7097" lon="3.0686">
        <ele>908.59997558594</ele>
        <time>2023-05-28T09:29:28.000Z</time>
      </trkpt>
      <trkpt lat="43.70971" lon="3.06858">
        <ele>909</ele>
        <time>2023-05-28T09:29:31.000Z</time>
      </trkpt>
      <trkpt lat="43.70972" lon="3.06856">
        <ele>909.40002441406</ele>
        <time>2023-05-28T09:29:35.000Z</time>
      </trkpt>
      <trkpt lat="43.70975" lon="3.06853">
        <ele>910</ele>
        <time>2023-05-28T09:29:38.000Z</time>
      </trkpt>
      <trkpt lat="43.70976" lon="3.06851">
        <ele>910.20001220703</ele>
        <time>2023-05-28T09:29:40.000Z</time>
      </trkpt>
      <trkpt lat="43.7098" lon="3.06844">
        <ele>910.59997558594</ele>
        <time>2023-05-28T09:29:48.000Z</time>
      </trkpt>
      <trkpt lat="43.70981" lon="3.06842">
        <ele>911</ele>
        <time>2023-05-28T09:29:50.000Z</time>
      </trkpt>
      <trkpt lat="43.70982" lon="3.06839">
        <ele>911.40002441406</ele>
        <time>2023-05-28T09:29:54.000Z</time>
      </trkpt>
      <trkpt lat="43.70983" lon="3.06838">
        <ele>911.40002441406</ele>
        <time>2023-05-28T09:29:55.000Z</time>
      </trkpt>
      <trkpt lat="43.70987" lon="3.0683">
        <ele>911.79998779297</ele>
        <time>2023-05-28T09:30:03.000Z</time>
      </trkpt>
      <trkpt lat="43.70987" lon="3.0683">
        <ele>911.79998779297</ele>
        <time>2023-05-28T09:30:04.000Z</time>
      </trkpt>
      <trkpt lat="43.70989" lon="3.06825">
        <ele>912</ele>
        <time>2023-05-28T09:30:08.000Z</time>
      </trkpt>
      <trkpt lat="43.70989" lon="3.06824">
        <ele>912.20001220703</ele>
        <time>2023-05-28T09:30:09.000Z</time>
      </trkpt>
      <trkpt lat="43.7099" lon="3.06822">
        <ele>912.20001220703</ele>
        <time>2023-05-28T09:30:11.000Z</time>
      </trkpt>
      <trkpt lat="43.70992" lon="3.06819">
        <ele>912.40002441406</ele>
        <time>2023-05-28T09:30:15.000Z</time>
      </trkpt>
      <trkpt lat="43.70993" lon="3.06817">
        <ele>912.59997558594</ele>
        <time>2023-05-28T09:30:17.000Z</time>
      </trkpt>
      <trkpt lat="43.70995" lon="3.06812">
        <ele>913.20001220703</ele>
        <time>2023-05-28T09:30:22.000Z</time>
      </trkpt>
      <trkpt lat="43.70996" lon="3.06811">
        <ele>913.20001220703</ele>
        <time>2023-05-28T09:30:24.000Z</time>
      </trkpt>
      <trkpt lat="43.70996" lon="3.0681">
        <ele>913.40002441406</ele>
        <time>2023-05-28T09:30:25.000Z</time>
      </trkpt>
      <trkpt lat="43.70998" lon="3.06806">
        <ele>914</ele>
        <time>2023-05-28T09:30:30.000Z</time>
      </trkpt>
      <trkpt lat="43.70999" lon="3.06805">
        <ele>914.20001220703</ele>
        <time>2023-05-28T09:30:32.000Z</time>
      </trkpt>
      <trkpt lat="43.71" lon="3.06801">
        <ele>914.59997558594</ele>
        <time>2023-05-28T09:30:36.000Z</time>
      </trkpt>
      <trkpt lat="43.71001" lon="3.06797">
        <ele>915.20001220703</ele>
        <time>2023-05-28T09:30:41.000Z</time>
      </trkpt>
      <trkpt lat="43.71002" lon="3.06793">
        <ele>915.59997558594</ele>
        <time>2023-05-28T09:30:44.000Z</time>
      </trkpt>
      <trkpt lat="43.71002" lon="3.06787">
        <ele>916.20001220703</ele>
        <time>2023-05-28T09:30:50.000Z</time>
      </trkpt>
      <trkpt lat="43.71003" lon="3.06786">
        <ele>916.20001220703</ele>
        <time>2023-05-28T09:30:51.000Z</time>
      </trkpt>
      <trkpt lat="43.71004" lon="3.06784">
        <ele>916.40002441406</ele>
        <time>2023-05-28T09:30:53.000Z</time>
      </trkpt>
      <trkpt lat="43.71005" lon="3.06779">
        <ele>917</ele>
        <time>2023-05-28T09:30:58.000Z</time>
      </trkpt>
      <trkpt lat="43.71007" lon="3.06776">
        <ele>917.20001220703</ele>
        <time>2023-05-28T09:31:02.000Z</time>
      </trkpt>
      <trkpt lat="43.71008" lon="3.06775">
        <ele>917.40002441406</ele>
        <time>2023-05-28T09:31:03.000Z</time>
      </trkpt>
      <trkpt lat="43.71009" lon="3.06768">
        <ele>918</ele>
        <time>2023-05-28T09:31:10.000Z</time>
      </trkpt>
      <trkpt lat="43.71012" lon="3.06764">
        <ele>918.40002441406</ele>
        <time>2023-05-28T09:31:14.000Z</time>
      </trkpt>
      <trkpt lat="43.71013" lon="3.06763">
        <ele>918.59997558594</ele>
        <time>2023-05-28T09:31:16.000Z</time>
      </trkpt>
      <trkpt lat="43.71017" lon="3.06756">
        <ele>919.20001220703</ele>
        <time>2023-05-28T09:31:23.000Z</time>
      </trkpt>
      <trkpt lat="43.71018" lon="3.06752">
        <ele>919.40002441406</ele>
        <time>2023-05-28T09:31:26.000Z</time>
      </trkpt>
      <trkpt lat="43.71018" lon="3.0675">
        <ele>919.40002441406</ele>
        <time>2023-05-28T09:31:27.000Z</time>
      </trkpt>
      <trkpt lat="43.71019" lon="3.06748">
        <ele>919.59997558594</ele>
        <time>2023-05-28T09:31:29.000Z</time>
      </trkpt>
      <trkpt lat="43.7102" lon="3.06746">
        <ele>920.20001220703</ele>
        <time>2023-05-28T09:31:36.000Z</time>
      </trkpt>
      <trkpt lat="43.7102" lon="3.06744">
        <ele>920.20001220703</ele>
        <time>2023-05-28T09:31:43.000Z</time>
      </trkpt>
      <trkpt lat="43.7102" lon="3.06744">
        <ele>920.20001220703</ele>
        <time>2023-05-28T09:31:49.000Z</time>
      </trkpt>
      <trkpt lat="43.7102" lon="3.06743">
        <ele>920.20001220703</ele>
        <time>2023-05-28T09:31:55.000Z</time>
      </trkpt>
      <trkpt lat="43.71021" lon="3.06745">
        <ele>920.20001220703</ele>
        <time>2023-05-28T09:32:02.000Z</time>
      </trkpt>
      <trkpt lat="43.7102" lon="3.06744">
        <ele>919.20001220703</ele>
        <time>2023-05-28T09:32:09.000Z</time>
      </trkpt>
      <trkpt lat="43.7102" lon="3.06745">
        <ele>920.59997558594</ele>
        <time>2023-05-28T09:32:11.000Z</time>
      </trkpt>
      <trkpt lat="43.71028" lon="3.06745">
        <ele>920.59997558594</ele>
        <time>2023-05-28T09:32:20.000Z</time>
      </trkpt>
      <trkpt lat="43.7103" lon="3.06745">
        <ele>920</ele>
        <time>2023-05-28T09:32:27.000Z</time>
      </trkpt>
      <trkpt lat="43.71032" lon="3.06747">
        <ele>920.20001220703</ele>
        <time>2023-05-28T09:32:31.000Z</time>
      </trkpt>
      <trkpt lat="43.71037" lon="3.06749">
        <ele>920.20001220703</ele>
        <time>2023-05-28T09:32:41.000Z</time>
      </trkpt>
      <trkpt lat="43.71039" lon="3.06749">
        <ele>919.79998779297</ele>
        <time>2023-05-28T09:32:48.000Z</time>
      </trkpt>
      <trkpt lat="43.71037" lon="3.06747">
        <ele>919.79998779297</ele>
        <time>2023-05-28T09:32:54.000Z</time>
      </trkpt>
      <trkpt lat="43.71038" lon="3.06745">
        <ele>920</ele>
        <time>2023-05-28T09:33:09.000Z</time>
      </trkpt>
      <trkpt lat="43.71038" lon="3.06744">
        <ele>920.20001220703</ele>
        <time>2023-05-28T09:33:22.000Z</time>
      </trkpt>
      <trkpt lat="43.71034" lon="3.06742">
        <ele>920.40002441406</ele>
        <time>2023-05-28T09:33:34.000Z</time>
      </trkpt>
      <trkpt lat="43.71033" lon="3.06742">
        <ele>919.79998779297</ele>
        <time>2023-05-28T09:33:47.000Z</time>
      </trkpt>
      <trkpt lat="43.71032" lon="3.06741">
        <ele>920</ele>
        <time>2023-05-28T09:33:59.000Z</time>
      </trkpt>
      <trkpt lat="43.71034" lon="3.06742">
        <ele>920</ele>
        <time>2023-05-28T09:34:10.000Z</time>
      </trkpt>
      <trkpt lat="43.71036" lon="3.06742">
        <ele>920.20001220703</ele>
        <time>2023-05-28T09:34:21.000Z</time>
      </trkpt>
      <trkpt lat="43.71033" lon="3.06742">
        <ele>920.20001220703</ele>
        <time>2023-05-28T09:34:35.000Z</time>
      </trkpt>
      <trkpt lat="43.71035" lon="3.06742">
        <ele>920</ele>
        <time>2023-05-28T09:34:48.000Z</time>
      </trkpt>
      <trkpt lat="43.71036" lon="3.06743">
        <ele>920.20001220703</ele>
        <time>2023-05-28T09:34:59.000Z</time>
      </trkpt>
      <trkpt lat="43.71039" lon="3.06743">
        <ele>920.20001220703</ele>
        <time>2023-05-28T09:35:09.000Z</time>
      </trkpt>
      <trkpt lat="43.71039" lon="3.06743">
        <ele>919.79998779297</ele>
        <time>2023-05-28T09:35:23.000Z</time>
      </trkpt>
      <trkpt lat="43.71039" lon="3.06744">
        <ele>919.59997558594</ele>
        <time>2023-05-28T09:35:33.000Z</time>
      </trkpt>
      <trkpt lat="43.7104" lon="3.06745">
        <ele>919.59997558594</ele>
        <time>2023-05-28T09:35:44.000Z</time>
      </trkpt>
      <trkpt lat="43.7104" lon="3.06745">
        <ele>919.59997558594</ele>
        <time>2023-05-28T09:35:46.000Z</time>
      </trkpt>
      <trkpt lat="43.71041" lon="3.06746">
        <ele>919.59997558594</ele>
        <time>2023-05-28T09:35:58.000Z</time>
      </trkpt>
      <trkpt lat="43.71042" lon="3.06746">
        <ele>919.79998779297</ele>
        <time>2023-05-28T09:36:11.000Z</time>
      </trkpt>
      <trkpt lat="43.7104" lon="3.06746">
        <ele>920</ele>
        <time>2023-05-28T09:36:18.000Z</time>
      </trkpt>
      <trkpt lat="43.71039" lon="3.06747">
        <ele>919.79998779297</ele>
        <time>2023-05-28T09:36:23.000Z</time>
      </trkpt>
      <trkpt lat="43.71035" lon="3.06746">
        <ele>919.79998779297</ele>
        <time>2023-05-28T09:36:29.000Z</time>
      </trkpt>
      <trkpt lat="43.71034" lon="3.06744">
        <ele>920.20001220703</ele>
        <time>2023-05-28T09:36:37.000Z</time>
      </trkpt>
      <trkpt lat="43.71034" lon="3.06743">
        <ele>920</ele>
        <time>2023-05-28T09:36:44.000Z</time>
      </trkpt>
      <trkpt lat="43.71034" lon="3.06742">
        <ele>920</ele>
        <time>2023-05-28T09:36:50.000Z</time>
      </trkpt>
      <trkpt lat="43.71033" lon="3.06742">
        <ele>920.20001220703</ele>
        <time>2023-05-28T09:36:54.000Z</time>
      </trkpt>
      <trkpt lat="43.71034" lon="3.06743">
        <ele>920.59997558594</ele>
        <time>2023-05-28T09:36:57.000Z</time>
      </trkpt>
      <trkpt lat="43.71032" lon="3.06741">
        <ele>921</ele>
        <time>2023-05-28T09:37:01.000Z</time>
      </trkpt>
      <trkpt lat="43.71031" lon="3.06741">
        <ele>920</ele>
        <time>2023-05-28T09:37:06.000Z</time>
      </trkpt>
      <trkpt lat="43.71031" lon="3.06741">
        <ele>920.20001220703</ele>
        <time>2023-05-28T09:37:11.000Z</time>
      </trkpt>
      <trkpt lat="43.71029" lon="3.06741">
        <ele>920.20001220703</ele>
        <time>2023-05-28T09:37:17.000Z</time>
      </trkpt>
      <trkpt lat="43.71029" lon="3.06742">
        <ele>920.40002441406</ele>
        <time>2023-05-28T09:37:23.000Z</time>
      </trkpt>
      <trkpt lat="43.71027" lon="3.06743">
        <ele>920.20001220703</ele>
        <time>2023-05-28T09:37:33.000Z</time>
      </trkpt>
      <trkpt lat="43.71032" lon="3.06744">
        <ele>920</ele>
        <time>2023-05-28T09:37:39.000Z</time>
      </trkpt>
      <trkpt lat="43.71034" lon="3.06739">
        <ele>920.40002441406</ele>
        <time>2023-05-28T09:37:45.000Z</time>
      </trkpt>
      <trkpt lat="43.71035" lon="3.06733">
        <ele>920.79998779297</ele>
        <time>2023-05-28T09:37:51.000Z</time>
      </trkpt>
      <trkpt lat="43.71037" lon="3.06725">
        <ele>921.20001220703</ele>
        <time>2023-05-28T09:37:59.000Z</time>
      </trkpt>
      <trkpt lat="43.71039" lon="3.06718">
        <ele>921.59997558594</ele>
        <time>2023-05-28T09:38:07.000Z</time>
      </trkpt>
      <trkpt lat="43.71039" lon="3.06716">
        <ele>921.59997558594</ele>
        <time>2023-05-28T09:38:09.000Z</time>
      </trkpt>
      <trkpt lat="43.71041" lon="3.06713">
        <ele>921.79998779297</ele>
        <time>2023-05-28T09:38:12.000Z</time>
      </trkpt>
      <trkpt lat="43.71042" lon="3.06707">
        <ele>922.59997558594</ele>
        <time>2023-05-28T09:38:18.000Z</time>
      </trkpt>
      <trkpt lat="43.71045" lon="3.06702">
        <ele>922.59997558594</ele>
        <time>2023-05-28T09:38:24.000Z</time>
      </trkpt>
      <trkpt lat="43.71046" lon="3.067">
        <ele>922.79998779297</ele>
        <time>2023-05-28T09:38:26.000Z</time>
      </trkpt>
      <trkpt lat="43.71048" lon="3.06694">
        <ele>923.40002441406</ele>
        <time>2023-05-28T09:38:33.000Z</time>
      </trkpt>
      <trkpt lat="43.71051" lon="3.0669">
        <ele>923.79998779297</ele>
        <time>2023-05-28T09:38:39.000Z</time>
      </trkpt>
      <trkpt lat="43.71052" lon="3.06689">
        <ele>924</ele>
        <time>2023-05-28T09:38:40.000Z</time>
      </trkpt>
      <trkpt lat="43.71056" lon="3.06684">
        <ele>924.59997558594</ele>
        <time>2023-05-28T09:38:49.000Z</time>
      </trkpt>
      <trkpt lat="43.71058" lon="3.06682">
        <ele>924.79998779297</ele>
        <time>2023-05-28T09:38:53.000Z</time>
      </trkpt>
      <trkpt lat="43.7106" lon="3.06679">
        <ele>925</ele>
        <time>2023-05-28T09:38:56.000Z</time>
      </trkpt>
      <trkpt lat="43.71061" lon="3.06672">
        <ele>925.40002441406</ele>
        <time>2023-05-28T09:39:04.000Z</time>
      </trkpt>
      <trkpt lat="43.71063" lon="3.06666">
        <ele>925.79998779297</ele>
        <time>2023-05-28T09:39:10.000Z</time>
      </trkpt>
      <trkpt lat="43.71063" lon="3.06665">
        <ele>925.79998779297</ele>
        <time>2023-05-28T09:39:11.000Z</time>
      </trkpt>
      <trkpt lat="43.71065" lon="3.0666">
        <ele>926.20001220703</ele>
        <time>2023-05-28T09:39:18.000Z</time>
      </trkpt>
      <trkpt lat="43.71066" lon="3.06656">
        <ele>926.59997558594</ele>
        <time>2023-05-28T09:39:22.000Z</time>
      </trkpt>
      <trkpt lat="43.71068" lon="3.06649">
        <ele>926.79998779297</ele>
        <time>2023-05-28T09:39:31.000Z</time>
      </trkpt>
      <trkpt lat="43.71069" lon="3.06648">
        <ele>926.79998779297</ele>
        <time>2023-05-28T09:39:32.000Z</time>
      </trkpt>
      <trkpt lat="43.7107" lon="3.06643">
        <ele>927.59997558594</ele>
        <time>2023-05-28T09:39:38.000Z</time>
      </trkpt>
      <trkpt lat="43.71072" lon="3.06637">
        <ele>928</ele>
        <time>2023-05-28T09:39:45.000Z</time>
      </trkpt>
      <trkpt lat="43.71072" lon="3.06629">
        <ele>928.59997558594</ele>
        <time>2023-05-28T09:39:53.000Z</time>
      </trkpt>
      <trkpt lat="43.71073" lon="3.06625">
        <ele>929</ele>
        <time>2023-05-28T09:39:57.000Z</time>
      </trkpt>
      <trkpt lat="43.71073" lon="3.06624">
        <ele>929.40002441406</ele>
        <time>2023-05-28T09:39:59.000Z</time>
      </trkpt>
      <trkpt lat="43.71074" lon="3.06616">
        <ele>929.79998779297</ele>
        <time>2023-05-28T09:40:05.000Z</time>
      </trkpt>
      <trkpt lat="43.71075" lon="3.0661">
        <ele>930</ele>
        <time>2023-05-28T09:40:10.000Z</time>
      </trkpt>
      <trkpt lat="43.71075" lon="3.06607">
        <ele>930</ele>
        <time>2023-05-28T09:40:12.000Z</time>
      </trkpt>
      <trkpt lat="43.71076" lon="3.06598">
        <ele>931</ele>
        <time>2023-05-28T09:40:21.000Z</time>
      </trkpt>
      <trkpt lat="43.71076" lon="3.06591">
        <ele>931.59997558594</ele>
        <time>2023-05-28T09:40:28.000Z</time>
      </trkpt>
      <trkpt lat="43.71077" lon="3.06585">
        <ele>932</ele>
        <time>2023-05-28T09:40:35.000Z</time>
      </trkpt>
      <trkpt lat="43.71078" lon="3.06582">
        <ele>932</ele>
        <time>2023-05-28T09:40:37.000Z</time>
      </trkpt>
      <trkpt lat="43.71079" lon="3.06578">
        <ele>932.40002441406</ele>
        <time>2023-05-28T09:40:41.000Z</time>
      </trkpt>
      <trkpt lat="43.7108" lon="3.06571">
        <ele>932.79998779297</ele>
        <time>2023-05-28T09:40:48.000Z</time>
      </trkpt>
      <trkpt lat="43.71081" lon="3.06568">
        <ele>933.20001220703</ele>
        <time>2023-05-28T09:40:51.000Z</time>
      </trkpt>
      <trkpt lat="43.71082" lon="3.06563">
        <ele>933.40002441406</ele>
        <time>2023-05-28T09:40:55.000Z</time>
      </trkpt>
      <trkpt lat="43.71084" lon="3.06552">
        <ele>934.20001220703</ele>
        <time>2023-05-28T09:41:03.000Z</time>
      </trkpt>
      <trkpt lat="43.71083" lon="3.06551">
        <ele>934.20001220703</ele>
        <time>2023-05-28T09:41:04.000Z</time>
      </trkpt>
      <trkpt lat="43.71083" lon="3.06545">
        <ele>934.79998779297</ele>
        <time>2023-05-28T09:41:09.000Z</time>
      </trkpt>
      <trkpt lat="43.71082" lon="3.06537">
        <ele>935.20001220703</ele>
        <time>2023-05-28T09:41:15.000Z</time>
      </trkpt>
      <trkpt lat="43.71083" lon="3.06534">
        <ele>935.20001220703</ele>
        <time>2023-05-28T09:41:20.000Z</time>
      </trkpt>
      <trkpt lat="43.71086" lon="3.06533">
        <ele>935.20001220703</ele>
        <time>2023-05-28T09:41:32.000Z</time>
      </trkpt>
      <trkpt lat="43.71091" lon="3.06531">
        <ele>934.79998779297</ele>
        <time>2023-05-28T09:41:39.000Z</time>
      </trkpt>
      <trkpt lat="43.71093" lon="3.06531">
        <ele>935.20001220703</ele>
        <time>2023-05-28T09:41:47.000Z</time>
      </trkpt>
      <trkpt lat="43.71092" lon="3.06531">
        <ele>935.20001220703</ele>
        <time>2023-05-28T09:41:55.000Z</time>
      </trkpt>
      <trkpt lat="43.71094" lon="3.06533">
        <ele>935.20001220703</ele>
        <time>2023-05-28T09:42:01.000Z</time>
      </trkpt>
      <trkpt lat="43.71095" lon="3.0653">
        <ele>935</ele>
        <time>2023-05-28T09:42:09.000Z</time>
      </trkpt>
      <trkpt lat="43.71095" lon="3.0653">
        <ele>934.79998779297</ele>
        <time>2023-05-28T09:42:10.000Z</time>
      </trkpt>
      <trkpt lat="43.71091" lon="3.0653">
        <ele>934.40002441406</ele>
        <time>2023-05-28T09:44:52.000Z</time>
      </trkpt>
      <trkpt lat="43.71091" lon="3.06531">
        <ele>934.40002441406</ele>
        <time>2023-05-28T09:44:53.000Z</time>
      </trkpt>
      <trkpt lat="43.71078" lon="3.06523">
        <ele>935.59997558594</ele>
        <time>2023-05-28T10:20:17.000Z</time>
      </trkpt>
      <trkpt lat="43.71076" lon="3.06521">
        <ele>936</ele>
        <time>2023-05-28T10:20:20.000Z</time>
      </trkpt>
      <trkpt lat="43.71069" lon="3.06518">
        <ele>935.79998779297</ele>
        <time>2023-05-28T10:20:26.000Z</time>
      </trkpt>
      <trkpt lat="43.71067" lon="3.06518">
        <ele>935.79998779297</ele>
        <time>2023-05-28T10:20:27.000Z</time>
      </trkpt>
      <trkpt lat="43.71059" lon="3.06516">
        <ele>935.79998779297</ele>
        <time>2023-05-28T10:20:34.000Z</time>
      </trkpt>
      <trkpt lat="43.71051" lon="3.06514">
        <ele>936.20001220703</ele>
        <time>2023-05-28T10:20:41.000Z</time>
      </trkpt>
      <trkpt lat="43.71046" lon="3.06513">
        <ele>936.59997558594</ele>
        <time>2023-05-28T10:20:45.000Z</time>
      </trkpt>
      <trkpt lat="43.71041" lon="3.06511">
        <ele>936.59997558594</ele>
        <time>2023-05-28T10:20:51.000Z</time>
      </trkpt>
      <trkpt lat="43.71036" lon="3.0651">
        <ele>936.40002441406</ele>
        <time>2023-05-28T10:20:55.000Z</time>
      </trkpt>
      <trkpt lat="43.71034" lon="3.06509">
        <ele>936.40002441406</ele>
        <time>2023-05-28T10:20:57.000Z</time>
      </trkpt>
      <trkpt lat="43.71023" lon="3.06505">
        <ele>936.20001220703</ele>
        <time>2023-05-28T10:21:07.000Z</time>
      </trkpt>
      <trkpt lat="43.71021" lon="3.06505">
        <ele>936.20001220703</ele>
        <time>2023-05-28T10:21:08.000Z</time>
      </trkpt>
      <trkpt lat="43.71014" lon="3.06503">
        <ele>936.20001220703</ele>
        <time>2023-05-28T10:21:14.000Z</time>
      </trkpt>
      <trkpt lat="43.71012" lon="3.06503">
        <ele>936.20001220703</ele>
        <time>2023-05-28T10:21:16.000Z</time>
      </trkpt>
      <trkpt lat="43.71004" lon="3.06502">
        <ele>936.20001220703</ele>
        <time>2023-05-28T10:21:22.000Z</time>
      </trkpt>
      <trkpt lat="43.71001" lon="3.06501">
        <ele>936</ele>
        <time>2023-05-28T10:21:28.000Z</time>
      </trkpt>
      <trkpt lat="43.70997" lon="3.065">
        <ele>936</ele>
        <time>2023-05-28T10:21:34.000Z</time>
      </trkpt>
      <trkpt lat="43.70988" lon="3.06502">
        <ele>936.59997558594</ele>
        <time>2023-05-28T10:21:42.000Z</time>
      </trkpt>
      <trkpt lat="43.70984" lon="3.06505">
        <ele>936.59997558594</ele>
        <time>2023-05-28T10:21:47.000Z</time>
      </trkpt>
      <trkpt lat="43.70983" lon="3.06506">
        <ele>936.59997558594</ele>
        <time>2023-05-28T10:21:48.000Z</time>
      </trkpt>
      <trkpt lat="43.70978" lon="3.0651">
        <ele>936.40002441406</ele>
        <time>2023-05-28T10:21:53.000Z</time>
      </trkpt>
      <trkpt lat="43.70976" lon="3.06511">
        <ele>936.20001220703</ele>
        <time>2023-05-28T10:21:55.000Z</time>
      </trkpt>
      <trkpt lat="43.70975" lon="3.06512">
        <ele>936.20001220703</ele>
        <time>2023-05-28T10:21:56.000Z</time>
      </trkpt>
      <trkpt lat="43.70971" lon="3.06517">
        <ele>936</ele>
        <time>2023-05-28T10:22:01.000Z</time>
      </trkpt>
      <trkpt lat="43.70965" lon="3.06524">
        <ele>935.79998779297</ele>
        <time>2023-05-28T10:22:07.000Z</time>
      </trkpt>
      <trkpt lat="43.70961" lon="3.06531">
        <ele>936</ele>
        <time>2023-05-28T10:22:12.000Z</time>
      </trkpt>
      <trkpt lat="43.7096" lon="3.06533">
        <ele>935.79998779297</ele>
        <time>2023-05-28T10:22:14.000Z</time>
      </trkpt>
      <trkpt lat="43.70957" lon="3.06547">
        <ele>936</ele>
        <time>2023-05-28T10:22:23.000Z</time>
      </trkpt>
      <trkpt lat="43.70955" lon="3.06554">
        <ele>936</ele>
        <time>2023-05-28T10:22:28.000Z</time>
      </trkpt>
      <trkpt lat="43.70953" lon="3.06558">
        <ele>935.79998779297</ele>
        <time>2023-05-28T10:22:30.000Z</time>
      </trkpt>
      <trkpt lat="43.70953" lon="3.0656">
        <ele>935.79998779297</ele>
        <time>2023-05-28T10:22:31.000Z</time>
      </trkpt>
      <trkpt lat="43.70952" lon="3.06565">
        <ele>935.59997558594</ele>
        <time>2023-05-28T10:22:34.000Z</time>
      </trkpt>
      <trkpt lat="43.7095" lon="3.0657">
        <ele>935.59997558594</ele>
        <time>2023-05-28T10:22:38.000Z</time>
      </trkpt>
      <trkpt lat="43.70947" lon="3.06578">
        <ele>935.40002441406</ele>
        <time>2023-05-28T10:22:43.000Z</time>
      </trkpt>
      <trkpt lat="43.70947" lon="3.0658">
        <ele>935.40002441406</ele>
        <time>2023-05-28T10:22:44.000Z</time>
      </trkpt>
      <trkpt lat="43.70946" lon="3.06582">
        <ele>935.20001220703</ele>
        <time>2023-05-28T10:22:46.000Z</time>
      </trkpt>
      <trkpt lat="43.70945" lon="3.06583">
        <ele>935.20001220703</ele>
        <time>2023-05-28T10:22:47.000Z</time>
      </trkpt>
      <trkpt lat="43.70944" lon="3.06586">
        <ele>935.20001220703</ele>
        <time>2023-05-28T10:22:49.000Z</time>
      </trkpt>
      <trkpt lat="43.70941" lon="3.06598">
        <ele>935</ele>
        <time>2023-05-28T10:22:57.000Z</time>
      </trkpt>
      <trkpt lat="43.70936" lon="3.06606">
        <ele>934.59997558594</ele>
        <time>2023-05-28T10:23:03.000Z</time>
      </trkpt>
      <trkpt lat="43.70935" lon="3.06607">
        <ele>934.79998779297</ele>
        <time>2023-05-28T10:23:05.000Z</time>
      </trkpt>
      <trkpt lat="43.70933" lon="3.06617">
        <ele>934.40002441406</ele>
        <time>2023-05-28T10:23:11.000Z</time>
      </trkpt>
      <trkpt lat="43.70932" lon="3.06621">
        <ele>934.59997558594</ele>
        <time>2023-05-28T10:23:14.000Z</time>
      </trkpt>
      <trkpt lat="43.7093" lon="3.06625">
        <ele>934.40002441406</ele>
        <time>2023-05-28T10:23:17.000Z</time>
      </trkpt>
      <trkpt lat="43.7093" lon="3.06626">
        <ele>934.20001220703</ele>
        <time>2023-05-28T10:23:18.000Z</time>
      </trkpt>
      <trkpt lat="43.70929" lon="3.0663">
        <ele>934</ele>
        <time>2023-05-28T10:23:21.000Z</time>
      </trkpt>
      <trkpt lat="43.70927" lon="3.06635">
        <ele>933.79998779297</ele>
        <time>2023-05-28T10:23:25.000Z</time>
      </trkpt>
      <trkpt lat="43.70926" lon="3.0664">
        <ele>934</ele>
        <time>2023-05-28T10:23:31.000Z</time>
      </trkpt>
      <trkpt lat="43.70923" lon="3.06648">
        <ele>934</ele>
        <time>2023-05-28T10:23:37.000Z</time>
      </trkpt>
      <trkpt lat="43.70922" lon="3.06652">
        <ele>933.79998779297</ele>
        <time>2023-05-28T10:23:39.000Z</time>
      </trkpt>
      <trkpt lat="43.70919" lon="3.06657">
        <ele>933.20001220703</ele>
        <time>2023-05-28T10:23:43.000Z</time>
      </trkpt>
      <trkpt lat="43.70918" lon="3.06659">
        <ele>933</ele>
        <time>2023-05-28T10:23:44.000Z</time>
      </trkpt>
      <trkpt lat="43.70916" lon="3.06664">
        <ele>932.79998779297</ele>
        <time>2023-05-28T10:23:47.000Z</time>
      </trkpt>
      <trkpt lat="43.70914" lon="3.06667">
        <ele>932.79998779297</ele>
        <time>2023-05-28T10:23:50.000Z</time>
      </trkpt>
      <trkpt lat="43.70911" lon="3.06678">
        <ele>932.79998779297</ele>
        <time>2023-05-28T10:23:58.000Z</time>
      </trkpt>
      <trkpt lat="43.70906" lon="3.06691">
        <ele>932.59997558594</ele>
        <time>2023-05-28T10:24:07.000Z</time>
      </trkpt>
      <trkpt lat="43.70902" lon="3.06705">
        <ele>932.40002441406</ele>
        <time>2023-05-28T10:24:16.000Z</time>
      </trkpt>
      <trkpt lat="43.70899" lon="3.06711">
        <ele>932.20001220703</ele>
        <time>2023-05-28T10:24:21.000Z</time>
      </trkpt>
      <trkpt lat="43.70899" lon="3.06714">
        <ele>932.20001220703</ele>
        <time>2023-05-28T10:24:23.000Z</time>
      </trkpt>
      <trkpt lat="43.70897" lon="3.06717">
        <ele>932.20001220703</ele>
        <time>2023-05-28T10:24:25.000Z</time>
      </trkpt>
      <trkpt lat="43.70894" lon="3.06722">
        <ele>932.20001220703</ele>
        <time>2023-05-28T10:24:30.000Z</time>
      </trkpt>
      <trkpt lat="43.70891" lon="3.06726">
        <ele>932</ele>
        <time>2023-05-28T10:24:33.000Z</time>
      </trkpt>
      <trkpt lat="43.70889" lon="3.06732">
        <ele>932</ele>
        <time>2023-05-28T10:24:38.000Z</time>
      </trkpt>
      <trkpt lat="43.70888" lon="3.06733">
        <ele>932</ele>
        <time>2023-05-28T10:24:39.000Z</time>
      </trkpt>
      <trkpt lat="43.70884" lon="3.0674">
        <ele>931.79998779297</ele>
        <time>2023-05-28T10:24:45.000Z</time>
      </trkpt>
      <trkpt lat="43.70879" lon="3.06749">
        <ele>931.40002441406</ele>
        <time>2023-05-28T10:24:53.000Z</time>
      </trkpt>
      <trkpt lat="43.70875" lon="3.06752">
        <ele>931.40002441406</ele>
        <time>2023-05-28T10:24:56.000Z</time>
      </trkpt>
      <trkpt lat="43.70872" lon="3.06755">
        <ele>931.40002441406</ele>
        <time>2023-05-28T10:24:59.000Z</time>
      </trkpt>
      <trkpt lat="43.70872" lon="3.06756">
        <ele>931.40002441406</ele>
        <time>2023-05-28T10:25:00.000Z</time>
      </trkpt>
      <trkpt lat="43.7087" lon="3.06759">
        <ele>931.20001220703</ele>
        <time>2023-05-28T10:25:02.000Z</time>
      </trkpt>
      <trkpt lat="43.70869" lon="3.0676">
        <ele>931</ele>
        <time>2023-05-28T10:25:03.000Z</time>
      </trkpt>
      <trkpt lat="43.70867" lon="3.06763">
        <ele>930.79998779297</ele>
        <time>2023-05-28T10:25:06.000Z</time>
      </trkpt>
      <trkpt lat="43.70861" lon="3.06771">
        <ele>930.40002441406</ele>
        <time>2023-05-28T10:25:13.000Z</time>
      </trkpt>
      <trkpt lat="43.70861" lon="3.06772">
        <ele>930.20001220703</ele>
        <time>2023-05-28T10:25:14.000Z</time>
      </trkpt>
      <trkpt lat="43.7086" lon="3.06773">
        <ele>930</ele>
        <time>2023-05-28T10:25:16.000Z</time>
      </trkpt>
      <trkpt lat="43.70859" lon="3.06774">
        <ele>930</ele>
        <time>2023-05-28T10:25:17.000Z</time>
      </trkpt>
      <trkpt lat="43.70857" lon="3.06775">
        <ele>929.79998779297</ele>
        <time>2023-05-28T10:25:19.000Z</time>
      </trkpt>
      <trkpt lat="43.70851" lon="3.06781">
        <ele>929.40002441406</ele>
        <time>2023-05-28T10:25:25.000Z</time>
      </trkpt>
      <trkpt lat="43.70845" lon="3.06787">
        <ele>928.79998779297</ele>
        <time>2023-05-28T10:25:32.000Z</time>
      </trkpt>
      <trkpt lat="43.70838" lon="3.06793">
        <ele>928.40002441406</ele>
        <time>2023-05-28T10:25:39.000Z</time>
      </trkpt>
      <trkpt lat="43.70832" lon="3.06799">
        <ele>928</ele>
        <time>2023-05-28T10:25:46.000Z</time>
      </trkpt>
      <trkpt lat="43.7083" lon="3.068">
        <ele>927.79998779297</ele>
        <time>2023-05-28T10:25:48.000Z</time>
      </trkpt>
      <trkpt lat="43.70825" lon="3.06802">
        <ele>927.59997558594</ele>
        <time>2023-05-28T10:25:52.000Z</time>
      </trkpt>
      <trkpt lat="43.70823" lon="3.06803">
        <ele>927.59997558594</ele>
        <time>2023-05-28T10:25:56.000Z</time>
      </trkpt>
      <trkpt lat="43.70821" lon="3.06804">
        <ele>927.59997558594</ele>
        <time>2023-05-28T10:25:58.000Z</time>
      </trkpt>
      <trkpt lat="43.7082" lon="3.06804">
        <ele>927.40002441406</ele>
        <time>2023-05-28T10:26:00.000Z</time>
      </trkpt>
      <trkpt lat="43.70817" lon="3.06806">
        <ele>927.20001220703</ele>
        <time>2023-05-28T10:26:04.000Z</time>
      </trkpt>
      <trkpt lat="43.70815" lon="3.06807">
        <ele>927</ele>
        <time>2023-05-28T10:26:07.000Z</time>
      </trkpt>
      <trkpt lat="43.70814" lon="3.06808">
        <ele>926.79998779297</ele>
        <time>2023-05-28T10:26:08.000Z</time>
      </trkpt>
      <trkpt lat="43.70814" lon="3.06808">
        <ele>926.79998779297</ele>
        <time>2023-05-28T10:26:09.000Z</time>
      </trkpt>
      <trkpt lat="43.70808" lon="3.0681">
        <ele>926.59997558594</ele>
        <time>2023-05-28T10:26:15.000Z</time>
      </trkpt>
      <trkpt lat="43.70801" lon="3.06813">
        <ele>926.40002441406</ele>
        <time>2023-05-28T10:26:22.000Z</time>
      </trkpt>
      <trkpt lat="43.70794" lon="3.06814">
        <ele>926.20001220703</ele>
        <time>2023-05-28T10:26:27.000Z</time>
      </trkpt>
      <trkpt lat="43.70787" lon="3.06813">
        <ele>925.79998779297</ele>
        <time>2023-05-28T10:26:32.000Z</time>
      </trkpt>
      <trkpt lat="43.70785" lon="3.06812">
        <ele>925.59997558594</ele>
        <time>2023-05-28T10:26:34.000Z</time>
      </trkpt>
      <trkpt lat="43.70778" lon="3.06813">
        <ele>925.40002441406</ele>
        <time>2023-05-28T10:26:39.000Z</time>
      </trkpt>
      <trkpt lat="43.70775" lon="3.06812">
        <ele>925.20001220703</ele>
        <time>2023-05-28T10:26:41.000Z</time>
      </trkpt>
      <trkpt lat="43.7077" lon="3.06812">
        <ele>924.79998779297</ele>
        <time>2023-05-28T10:26:45.000Z</time>
      </trkpt>
      <trkpt lat="43.70765" lon="3.06811">
        <ele>924.59997558594</ele>
        <time>2023-05-28T10:26:48.000Z</time>
      </trkpt>
      <trkpt lat="43.7076" lon="3.06812">
        <ele>924.20001220703</ele>
        <time>2023-05-28T10:26:54.000Z</time>
      </trkpt>
      <trkpt lat="43.70753" lon="3.06813">
        <ele>924.20001220703</ele>
        <time>2023-05-28T10:27:00.000Z</time>
      </trkpt>
      <trkpt lat="43.70752" lon="3.06814">
        <ele>924.20001220703</ele>
        <time>2023-05-28T10:27:01.000Z</time>
      </trkpt>
      <trkpt lat="43.70748" lon="3.06813">
        <ele>923.79998779297</ele>
        <time>2023-05-28T10:27:05.000Z</time>
      </trkpt>
      <trkpt lat="43.70747" lon="3.06813">
        <ele>923.59997558594</ele>
        <time>2023-05-28T10:27:06.000Z</time>
      </trkpt>
      <trkpt lat="43.70738" lon="3.06813">
        <ele>923.59997558594</ele>
        <time>2023-05-28T10:27:13.000Z</time>
      </trkpt>
      <trkpt lat="43.70731" lon="3.06811">
        <ele>923.20001220703</ele>
        <time>2023-05-28T10:27:19.000Z</time>
      </trkpt>
      <trkpt lat="43.70729" lon="3.0681">
        <ele>923.20001220703</ele>
        <time>2023-05-28T10:27:20.000Z</time>
      </trkpt>
      <trkpt lat="43.70728" lon="3.06811">
        <ele>923.20001220703</ele>
        <time>2023-05-28T10:27:21.000Z</time>
      </trkpt>
      <trkpt lat="43.70723" lon="3.06809">
        <ele>922.79998779297</ele>
        <time>2023-05-28T10:27:25.000Z</time>
      </trkpt>
      <trkpt lat="43.70715" lon="3.06808">
        <ele>922.79998779297</ele>
        <time>2023-05-28T10:27:31.000Z</time>
      </trkpt>
      <trkpt lat="43.70714" lon="3.06807">
        <ele>922.79998779297</ele>
        <time>2023-05-28T10:27:32.000Z</time>
      </trkpt>
      <trkpt lat="43.70709" lon="3.06806">
        <ele>922.59997558594</ele>
        <time>2023-05-28T10:27:36.000Z</time>
      </trkpt>
      <trkpt lat="43.70705" lon="3.06805">
        <ele>922.59997558594</ele>
        <time>2023-05-28T10:27:39.000Z</time>
      </trkpt>
      <trkpt lat="43.70704" lon="3.06805">
        <ele>922.59997558594</ele>
        <time>2023-05-28T10:27:40.000Z</time>
      </trkpt>
      <trkpt lat="43.70697" lon="3.06802">
        <ele>922.20001220703</ele>
        <time>2023-05-28T10:27:46.000Z</time>
      </trkpt>
      <trkpt lat="43.7069" lon="3.068">
        <ele>921.59997558594</ele>
        <time>2023-05-28T10:27:52.000Z</time>
      </trkpt>
      <trkpt lat="43.70686" lon="3.06798">
        <ele>921.40002441406</ele>
        <time>2023-05-28T10:27:56.000Z</time>
      </trkpt>
      <trkpt lat="43.70677" lon="3.06795">
        <ele>921</ele>
        <time>2023-05-28T10:28:03.000Z</time>
      </trkpt>
      <trkpt lat="43.70675" lon="3.06793">
        <ele>920.79998779297</ele>
        <time>2023-05-28T10:28:05.000Z</time>
      </trkpt>
      <trkpt lat="43.70671" lon="3.06792">
        <ele>920.59997558594</ele>
        <time>2023-05-28T10:28:08.000Z</time>
      </trkpt>
      <trkpt lat="43.7067" lon="3.06791">
        <ele>920.40002441406</ele>
        <time>2023-05-28T10:28:09.000Z</time>
      </trkpt>
      <trkpt lat="43.70662" lon="3.06784">
        <ele>919.40002441406</ele>
        <time>2023-05-28T10:28:17.000Z</time>
      </trkpt>
      <trkpt lat="43.70661" lon="3.06783">
        <ele>919.20001220703</ele>
        <time>2023-05-28T10:28:18.000Z</time>
      </trkpt>
      <trkpt lat="43.70654" lon="3.06778">
        <ele>918.79998779297</ele>
        <time>2023-05-28T10:28:25.000Z</time>
      </trkpt>
      <trkpt lat="43.70648" lon="3.06774">
        <ele>918.59997558594</ele>
        <time>2023-05-28T10:28:31.000Z</time>
      </trkpt>
      <trkpt lat="43.70647" lon="3.06773">
        <ele>918.40002441406</ele>
        <time>2023-05-28T10:28:32.000Z</time>
      </trkpt>
      <trkpt lat="43.70646" lon="3.06773">
        <ele>918.40002441406</ele>
        <time>2023-05-28T10:28:33.000Z</time>
      </trkpt>
      <trkpt lat="43.70641" lon="3.06769">
        <ele>917.79998779297</ele>
        <time>2023-05-28T10:28:39.000Z</time>
      </trkpt>
      <trkpt lat="43.70637" lon="3.06766">
        <ele>917.20001220703</ele>
        <time>2023-05-28T10:28:43.000Z</time>
      </trkpt>
      <trkpt lat="43.70634" lon="3.06764">
        <ele>916.79998779297</ele>
        <time>2023-05-28T10:28:46.000Z</time>
      </trkpt>
      <trkpt lat="43.70626" lon="3.06758">
        <ele>916.40002441406</ele>
        <time>2023-05-28T10:28:53.000Z</time>
      </trkpt>
      <trkpt lat="43.70625" lon="3.06757">
        <ele>916.20001220703</ele>
        <time>2023-05-28T10:28:54.000Z</time>
      </trkpt>
      <trkpt lat="43.70616" lon="3.0675">
        <ele>915.40002441406</ele>
        <time>2023-05-28T10:29:02.000Z</time>
      </trkpt>
      <trkpt lat="43.70611" lon="3.06747">
        <ele>915.20001220703</ele>
        <time>2023-05-28T10:29:06.000Z</time>
      </trkpt>
      <trkpt lat="43.70607" lon="3.06744">
        <ele>915</ele>
        <time>2023-05-28T10:29:10.000Z</time>
      </trkpt>
      <trkpt lat="43.70597" lon="3.06733">
        <ele>914.20001220703</ele>
        <time>2023-05-28T10:29:20.000Z</time>
      </trkpt>
      <trkpt lat="43.70594" lon="3.06723">
        <ele>913.59997558594</ele>
        <time>2023-05-28T10:29:27.000Z</time>
      </trkpt>
      <trkpt lat="43.70593" lon="3.06714">
        <ele>913.20001220703</ele>
        <time>2023-05-28T10:29:33.000Z</time>
      </trkpt>
      <trkpt lat="43.70592" lon="3.06711">
        <ele>913</ele>
        <time>2023-05-28T10:29:35.000Z</time>
      </trkpt>
      <trkpt lat="43.7059" lon="3.06699">
        <ele>912.59997558594</ele>
        <time>2023-05-28T10:29:44.000Z</time>
      </trkpt>
      <trkpt lat="43.70587" lon="3.0669">
        <ele>912.40002441406</ele>
        <time>2023-05-28T10:29:51.000Z</time>
      </trkpt>
      <trkpt lat="43.70585" lon="3.06686">
        <ele>912.40002441406</ele>
        <time>2023-05-28T10:29:55.000Z</time>
      </trkpt>
      <trkpt lat="43.70583" lon="3.06683">
        <ele>912.40002441406</ele>
        <time>2023-05-28T10:29:58.000Z</time>
      </trkpt>
      <trkpt lat="43.70578" lon="3.06673">
        <ele>912.59997558594</ele>
        <time>2023-05-28T10:30:06.000Z</time>
      </trkpt>
      <trkpt lat="43.70577" lon="3.06671">
        <ele>912.79998779297</ele>
        <time>2023-05-28T10:30:08.000Z</time>
      </trkpt>
      <trkpt lat="43.70574" lon="3.06667">
        <ele>912.79998779297</ele>
        <time>2023-05-28T10:30:12.000Z</time>
      </trkpt>
      <trkpt lat="43.70571" lon="3.06661">
        <ele>913</ele>
        <time>2023-05-28T10:30:17.000Z</time>
      </trkpt>
      <trkpt lat="43.7057" lon="3.06661">
        <ele>913</ele>
        <time>2023-05-28T10:30:18.000Z</time>
      </trkpt>
      <trkpt lat="43.70565" lon="3.06653">
        <ele>913</ele>
        <time>2023-05-28T10:30:25.000Z</time>
      </trkpt>
      <trkpt lat="43.70559" lon="3.06643">
        <ele>912.79998779297</ele>
        <time>2023-05-28T10:30:33.000Z</time>
      </trkpt>
      <trkpt lat="43.70553" lon="3.06634">
        <ele>913</ele>
        <time>2023-05-28T10:30:41.000Z</time>
      </trkpt>
      <trkpt lat="43.70547" lon="3.06623">
        <ele>913</ele>
        <time>2023-05-28T10:30:49.000Z</time>
      </trkpt>
      <trkpt lat="43.70546" lon="3.06622">
        <ele>913</ele>
        <time>2023-05-28T10:30:50.000Z</time>
      </trkpt>
      <trkpt lat="43.70545" lon="3.0662">
        <ele>913</ele>
        <time>2023-05-28T10:30:51.000Z</time>
      </trkpt>
      <trkpt lat="43.70542" lon="3.06616">
        <ele>913</ele>
        <time>2023-05-28T10:30:55.000Z</time>
      </trkpt>
      <trkpt lat="43.70541" lon="3.06615">
        <ele>913</ele>
        <time>2023-05-28T10:30:56.000Z</time>
      </trkpt>
      <trkpt lat="43.70535" lon="3.06607">
        <ele>913</ele>
        <time>2023-05-28T10:31:03.000Z</time>
      </trkpt>
      <trkpt lat="43.70534" lon="3.06606">
        <ele>912.79998779297</ele>
        <time>2023-05-28T10:31:04.000Z</time>
      </trkpt>
      <trkpt lat="43.70532" lon="3.06603">
        <ele>912.79998779297</ele>
        <time>2023-05-28T10:31:07.000Z</time>
      </trkpt>
      <trkpt lat="43.7053" lon="3.06601">
        <ele>912.79998779297</ele>
        <time>2023-05-28T10:31:09.000Z</time>
      </trkpt>
      <trkpt lat="43.70527" lon="3.06599">
        <ele>912.79998779297</ele>
        <time>2023-05-28T10:31:11.000Z</time>
      </trkpt>
      <trkpt lat="43.70519" lon="3.06595">
        <ele>912.59997558594</ele>
        <time>2023-05-28T10:31:18.000Z</time>
      </trkpt>
      <trkpt lat="43.70507" lon="3.06592">
        <ele>912.79998779297</ele>
        <time>2023-05-28T10:31:28.000Z</time>
      </trkpt>
      <trkpt lat="43.70495" lon="3.06591">
        <ele>913</ele>
        <time>2023-05-28T10:31:39.000Z</time>
      </trkpt>
      <trkpt lat="43.70482" lon="3.0659">
        <ele>913.59997558594</ele>
        <time>2023-05-28T10:31:50.000Z</time>
      </trkpt>
      <trkpt lat="43.70476" lon="3.06588">
        <ele>914</ele>
        <time>2023-05-28T10:31:56.000Z</time>
      </trkpt>
      <trkpt lat="43.70474" lon="3.06587">
        <ele>914</ele>
        <time>2023-05-28T10:31:58.000Z</time>
      </trkpt>
      <trkpt lat="43.70472" lon="3.06586">
        <ele>914</ele>
        <time>2023-05-28T10:32:00.000Z</time>
      </trkpt>
      <trkpt lat="43.70471" lon="3.06586">
        <ele>914.20001220703</ele>
        <time>2023-05-28T10:32:05.000Z</time>
      </trkpt>
      <trkpt lat="43.70471" lon="3.06579">
        <ele>914.20001220703</ele>
        <time>2023-05-28T10:32:11.000Z</time>
      </trkpt>
      <trkpt lat="43.70467" lon="3.06565">
        <ele>914</ele>
        <time>2023-05-28T10:32:21.000Z</time>
      </trkpt>
      <trkpt lat="43.70462" lon="3.06557">
        <ele>914</ele>
        <time>2023-05-28T10:32:29.000Z</time>
      </trkpt>
      <trkpt lat="43.70454" lon="3.06546">
        <ele>914.79998779297</ele>
        <time>2023-05-28T10:32:39.000Z</time>
      </trkpt>
      <trkpt lat="43.70451" lon="3.06543">
        <ele>915.20001220703</ele>
        <time>2023-05-28T10:32:43.000Z</time>
      </trkpt>
      <trkpt lat="43.70448" lon="3.06539">
        <ele>915.59997558594</ele>
        <time>2023-05-28T10:32:47.000Z</time>
      </trkpt>
      <trkpt lat="43.70443" lon="3.06532">
        <ele>916.20001220703</ele>
        <time>2023-05-28T10:32:55.000Z</time>
      </trkpt>
      <trkpt lat="43.70442" lon="3.06531">
        <ele>916.20001220703</ele>
        <time>2023-05-28T10:32:56.000Z</time>
      </trkpt>
      <trkpt lat="43.70438" lon="3.06523">
        <ele>916.79998779297</ele>
        <time>2023-05-28T10:33:04.000Z</time>
      </trkpt>
      <trkpt lat="43.70438" lon="3.06522">
        <ele>916.79998779297</ele>
        <time>2023-05-28T10:33:05.000Z</time>
      </trkpt>
      <trkpt lat="43.70435" lon="3.06515">
        <ele>917.20001220703</ele>
        <time>2023-05-28T10:33:10.000Z</time>
      </trkpt>
      <trkpt lat="43.70435" lon="3.06514">
        <ele>917.20001220703</ele>
        <time>2023-05-28T10:33:11.000Z</time>
      </trkpt>
      <trkpt lat="43.70434" lon="3.06511">
        <ele>917.40002441406</ele>
        <time>2023-05-28T10:33:14.000Z</time>
      </trkpt>
      <trkpt lat="43.70434" lon="3.06507">
        <ele>917.40002441406</ele>
        <time>2023-05-28T10:33:17.000Z</time>
      </trkpt>
      <trkpt lat="43.70433" lon="3.06498">
        <ele>917.59997558594</ele>
        <time>2023-05-28T10:33:24.000Z</time>
      </trkpt>
      <trkpt lat="43.70434" lon="3.06497">
        <ele>917.59997558594</ele>
        <time>2023-05-28T10:33:25.000Z</time>
      </trkpt>
      <trkpt lat="43.70434" lon="3.06497">
        <ele>917.59997558594</ele>
        <time>2023-05-28T10:33:26.000Z</time>
      </trkpt>
      <trkpt lat="43.70434" lon="3.06491">
        <ele>918.20001220703</ele>
        <time>2023-05-28T10:33:31.000Z</time>
      </trkpt>
      <trkpt lat="43.70434" lon="3.06482">
        <ele>918.79998779297</ele>
        <time>2023-05-28T10:33:40.000Z</time>
      </trkpt>
      <trkpt lat="43.70436" lon="3.06476">
        <ele>919</ele>
        <time>2023-05-28T10:33:46.000Z</time>
      </trkpt>
      <trkpt lat="43.70437" lon="3.0647">
        <ele>919.20001220703</ele>
        <time>2023-05-28T10:33:51.000Z</time>
      </trkpt>
      <trkpt lat="43.70437" lon="3.06469">
        <ele>919.20001220703</ele>
        <time>2023-05-28T10:33:52.000Z</time>
      </trkpt>
      <trkpt lat="43.70438" lon="3.06463">
        <ele>919.59997558594</ele>
        <time>2023-05-28T10:33:56.000Z</time>
      </trkpt>
      <trkpt lat="43.70438" lon="3.06459">
        <ele>919.59997558594</ele>
        <time>2023-05-28T10:33:59.000Z</time>
      </trkpt>
      <trkpt lat="43.70438" lon="3.06457">
        <ele>919.59997558594</ele>
        <time>2023-05-28T10:34:01.000Z</time>
      </trkpt>
      <trkpt lat="43.70438" lon="3.06451">
        <ele>919.79998779297</ele>
        <time>2023-05-28T10:34:05.000Z</time>
      </trkpt>
      <trkpt lat="43.70439" lon="3.06448">
        <ele>919.79998779297</ele>
        <time>2023-05-28T10:34:07.000Z</time>
      </trkpt>
      <trkpt lat="43.7044" lon="3.0644">
        <ele>920</ele>
        <time>2023-05-28T10:34:13.000Z</time>
      </trkpt>
      <trkpt lat="43.70439" lon="3.06432">
        <ele>920.20001220703</ele>
        <time>2023-05-28T10:34:19.000Z</time>
      </trkpt>
      <trkpt lat="43.7044" lon="3.0643">
        <ele>920.20001220703</ele>
        <time>2023-05-28T10:34:21.000Z</time>
      </trkpt>
      <trkpt lat="43.7044" lon="3.06429">
        <ele>920.40002441406</ele>
        <time>2023-05-28T10:34:22.000Z</time>
      </trkpt>
      <trkpt lat="43.7044" lon="3.06428">
        <ele>920.40002441406</ele>
        <time>2023-05-28T10:34:23.000Z</time>
      </trkpt>
      <trkpt lat="43.7044" lon="3.06427">
        <ele>920.40002441406</ele>
        <time>2023-05-28T10:34:25.000Z</time>
      </trkpt>
      <trkpt lat="43.70439" lon="3.06421">
        <ele>920.59997558594</ele>
        <time>2023-05-28T10:34:28.000Z</time>
      </trkpt>
      <trkpt lat="43.70439" lon="3.06419">
        <ele>920.79998779297</ele>
        <time>2023-05-28T10:34:30.000Z</time>
      </trkpt>
      <trkpt lat="43.70439" lon="3.06416">
        <ele>921</ele>
        <time>2023-05-28T10:34:33.000Z</time>
      </trkpt>
      <trkpt lat="43.70438" lon="3.06413">
        <ele>921.20001220703</ele>
        <time>2023-05-28T10:34:36.000Z</time>
      </trkpt>
      <trkpt lat="43.70437" lon="3.0641">
        <ele>921.40002441406</ele>
        <time>2023-05-28T10:34:38.000Z</time>
      </trkpt>
      <trkpt lat="43.70437" lon="3.06408">
        <ele>921.59997558594</ele>
        <time>2023-05-28T10:34:40.000Z</time>
      </trkpt>
      <trkpt lat="43.70437" lon="3.06406">
        <ele>921.59997558594</ele>
        <time>2023-05-28T10:34:43.000Z</time>
      </trkpt>
      <trkpt lat="43.70436" lon="3.06402">
        <ele>921.79998779297</ele>
        <time>2023-05-28T10:34:46.000Z</time>
      </trkpt>
      <trkpt lat="43.70436" lon="3.06401">
        <ele>921.79998779297</ele>
        <time>2023-05-28T10:34:48.000Z</time>
      </trkpt>
      <trkpt lat="43.70435" lon="3.06393">
        <ele>922.20001220703</ele>
        <time>2023-05-28T10:34:54.000Z</time>
      </trkpt>
      <trkpt lat="43.70434" lon="3.06391">
        <ele>922.20001220703</ele>
        <time>2023-05-28T10:34:56.000Z</time>
      </trkpt>
      <trkpt lat="43.70434" lon="3.06388">
        <ele>922.40002441406</ele>
        <time>2023-05-28T10:34:59.000Z</time>
      </trkpt>
      <trkpt lat="43.70433" lon="3.06387">
        <ele>922.40002441406</ele>
        <time>2023-05-28T10:35:00.000Z</time>
      </trkpt>
      <trkpt lat="43.70433" lon="3.06385">
        <ele>922.40002441406</ele>
        <time>2023-05-28T10:35:02.000Z</time>
      </trkpt>
      <trkpt lat="43.70432" lon="3.0638">
        <ele>922.59997558594</ele>
        <time>2023-05-28T10:35:07.000Z</time>
      </trkpt>
      <trkpt lat="43.70432" lon="3.06372">
        <ele>923</ele>
        <time>2023-05-28T10:35:15.000Z</time>
      </trkpt>
      <trkpt lat="43.7043" lon="3.06366">
        <ele>923.40002441406</ele>
        <time>2023-05-28T10:35:20.000Z</time>
      </trkpt>
      <trkpt lat="43.7043" lon="3.06364">
        <ele>923.59997558594</ele>
        <time>2023-05-28T10:35:22.000Z</time>
      </trkpt>
      <trkpt lat="43.7043" lon="3.0636">
        <ele>923.79998779297</ele>
        <time>2023-05-28T10:35:26.000Z</time>
      </trkpt>
      <trkpt lat="43.7043" lon="3.06357">
        <ele>923.79998779297</ele>
        <time>2023-05-28T10:35:29.000Z</time>
      </trkpt>
      <trkpt lat="43.70429" lon="3.06351">
        <ele>924.40002441406</ele>
        <time>2023-05-28T10:35:36.000Z</time>
      </trkpt>
      <trkpt lat="43.70428" lon="3.06345">
        <ele>925</ele>
        <time>2023-05-28T10:35:42.000Z</time>
      </trkpt>
      <trkpt lat="43.70429" lon="3.06341">
        <ele>924.79998779297</ele>
        <time>2023-05-28T10:35:45.000Z</time>
      </trkpt>
      <trkpt lat="43.70429" lon="3.06336">
        <ele>925.20001220703</ele>
        <time>2023-05-28T10:35:48.000Z</time>
      </trkpt>
      <trkpt lat="43.70431" lon="3.06334">
        <ele>925.20001220703</ele>
        <time>2023-05-28T10:35:51.000Z</time>
      </trkpt>
      <trkpt lat="43.70431" lon="3.06332">
        <ele>925.40002441406</ele>
        <time>2023-05-28T10:35:52.000Z</time>
      </trkpt>
      <trkpt lat="43.70432" lon="3.06329">
        <ele>925.40002441406</ele>
        <time>2023-05-28T10:35:54.000Z</time>
      </trkpt>
      <trkpt lat="43.70432" lon="3.06328">
        <ele>925.59997558594</ele>
        <time>2023-05-28T10:35:55.000Z</time>
      </trkpt>
      <trkpt lat="43.70433" lon="3.06319">
        <ele>925.59997558594</ele>
        <time>2023-05-28T10:36:00.000Z</time>
      </trkpt>
      <trkpt lat="43.70433" lon="3.06316">
        <ele>925.59997558594</ele>
        <time>2023-05-28T10:36:02.000Z</time>
      </trkpt>
      <trkpt lat="43.70433" lon="3.06311">
        <ele>925.59997558594</ele>
        <time>2023-05-28T10:36:04.000Z</time>
      </trkpt>
      <trkpt lat="43.70434" lon="3.06306">
        <ele>925.40002441406</ele>
        <time>2023-05-28T10:36:08.000Z</time>
      </trkpt>
      <trkpt lat="43.70434" lon="3.06304">
        <ele>925.40002441406</ele>
        <time>2023-05-28T10:36:09.000Z</time>
      </trkpt>
      <trkpt lat="43.70437" lon="3.06295">
        <ele>925</ele>
        <time>2023-05-28T10:36:15.000Z</time>
      </trkpt>
      <trkpt lat="43.70439" lon="3.06291">
        <ele>925</ele>
        <time>2023-05-28T10:36:18.000Z</time>
      </trkpt>
      <trkpt lat="43.7044" lon="3.06286">
        <ele>924.79998779297</ele>
        <time>2023-05-28T10:36:21.000Z</time>
      </trkpt>
      <trkpt lat="43.7044" lon="3.06282">
        <ele>924.79998779297</ele>
        <time>2023-05-28T10:36:23.000Z</time>
      </trkpt>
      <trkpt lat="43.70441" lon="3.06274">
        <ele>924.79998779297</ele>
        <time>2023-05-28T10:36:28.000Z</time>
      </trkpt>
      <trkpt lat="43.70442" lon="3.06272">
        <ele>924.79998779297</ele>
        <time>2023-05-28T10:36:29.000Z</time>
      </trkpt>
      <trkpt lat="43.70443" lon="3.06265">
        <ele>924.79998779297</ele>
        <time>2023-05-28T10:36:33.000Z</time>
      </trkpt>
      <trkpt lat="43.70445" lon="3.06256">
        <ele>925</ele>
        <time>2023-05-28T10:36:38.000Z</time>
      </trkpt>
      <trkpt lat="43.70446" lon="3.06253">
        <ele>925.20001220703</ele>
        <time>2023-05-28T10:36:40.000Z</time>
      </trkpt>
      <trkpt lat="43.70446" lon="3.06251">
        <ele>925.59997558594</ele>
        <time>2023-05-28T10:36:41.000Z</time>
      </trkpt>
      <trkpt lat="43.7045" lon="3.06245">
        <ele>925.59997558594</ele>
        <time>2023-05-28T10:36:46.000Z</time>
      </trkpt>
      <trkpt lat="43.70451" lon="3.06243">
        <ele>925.59997558594</ele>
        <time>2023-05-28T10:36:47.000Z</time>
      </trkpt>
      <trkpt lat="43.70458" lon="3.06234">
        <ele>925.40002441406</ele>
        <time>2023-05-28T10:36:54.000Z</time>
      </trkpt>
      <trkpt lat="43.70466" lon="3.06226">
        <ele>925.59997558594</ele>
        <time>2023-05-28T10:37:02.000Z</time>
      </trkpt>
      <trkpt lat="43.70473" lon="3.06221">
        <ele>924.79998779297</ele>
        <time>2023-05-28T10:37:09.000Z</time>
      </trkpt>
      <trkpt lat="43.70475" lon="3.0622">
        <ele>924.40002441406</ele>
        <time>2023-05-28T10:37:11.000Z</time>
      </trkpt>
      <trkpt lat="43.70481" lon="3.06216">
        <ele>923.79998779297</ele>
        <time>2023-05-28T10:37:17.000Z</time>
      </trkpt>
      <trkpt lat="43.70484" lon="3.06214">
        <ele>923.40002441406</ele>
        <time>2023-05-28T10:37:20.000Z</time>
      </trkpt>
      <trkpt lat="43.70489" lon="3.06211">
        <ele>923.20001220703</ele>
        <time>2023-05-28T10:37:24.000Z</time>
      </trkpt>
      <trkpt lat="43.70495" lon="3.06202">
        <ele>923</ele>
        <time>2023-05-28T10:37:32.000Z</time>
      </trkpt>
      <trkpt lat="43.70499" lon="3.06197">
        <ele>923</ele>
        <time>2023-05-28T10:37:36.000Z</time>
      </trkpt>
      <trkpt lat="43.705" lon="3.06196">
        <ele>923.20001220703</ele>
        <time>2023-05-28T10:37:37.000Z</time>
      </trkpt>
      <trkpt lat="43.70503" lon="3.06183">
        <ele>923.40002441406</ele>
        <time>2023-05-28T10:37:45.000Z</time>
      </trkpt>
      <trkpt lat="43.70505" lon="3.06175">
        <ele>923.59997558594</ele>
        <time>2023-05-28T10:37:50.000Z</time>
      </trkpt>
      <trkpt lat="43.70505" lon="3.0617">
        <ele>923.79998779297</ele>
        <time>2023-05-28T10:37:52.000Z</time>
      </trkpt>
      <trkpt lat="43.70506" lon="3.06166">
        <ele>924</ele>
        <time>2023-05-28T10:37:55.000Z</time>
      </trkpt>
      <trkpt lat="43.70507" lon="3.0616">
        <ele>924.40002441406</ele>
        <time>2023-05-28T10:37:59.000Z</time>
      </trkpt>
      <trkpt lat="43.70507" lon="3.06157">
        <ele>924.40002441406</ele>
        <time>2023-05-28T10:38:01.000Z</time>
      </trkpt>
      <trkpt lat="43.70508" lon="3.06155">
        <ele>924.40002441406</ele>
        <time>2023-05-28T10:38:02.000Z</time>
      </trkpt>
      <trkpt lat="43.70508" lon="3.06149">
        <ele>924.79998779297</ele>
        <time>2023-05-28T10:38:06.000Z</time>
      </trkpt>
      <trkpt lat="43.70509" lon="3.06139">
        <ele>925.40002441406</ele>
        <time>2023-05-28T10:38:14.000Z</time>
      </trkpt>
      <trkpt lat="43.70509" lon="3.06135">
        <ele>925.40002441406</ele>
        <time>2023-05-28T10:38:16.000Z</time>
      </trkpt>
      <trkpt lat="43.7051" lon="3.06134">
        <ele>925.40002441406</ele>
        <time>2023-05-28T10:38:17.000Z</time>
      </trkpt>
      <trkpt lat="43.7051" lon="3.06132">
        <ele>925.59997558594</ele>
        <time>2023-05-28T10:38:19.000Z</time>
      </trkpt>
      <trkpt lat="43.7051" lon="3.06128">
        <ele>925.59997558594</ele>
        <time>2023-05-28T10:38:21.000Z</time>
      </trkpt>
      <trkpt lat="43.70511" lon="3.06126">
        <ele>925.59997558594</ele>
        <time>2023-05-28T10:38:23.000Z</time>
      </trkpt>
      <trkpt lat="43.70511" lon="3.06123">
        <ele>925.59997558594</ele>
        <time>2023-05-28T10:38:25.000Z</time>
      </trkpt>
      <trkpt lat="43.70511" lon="3.06119">
        <ele>925.79998779297</ele>
        <time>2023-05-28T10:38:28.000Z</time>
      </trkpt>
      <trkpt lat="43.70512" lon="3.06117">
        <ele>925.79998779297</ele>
        <time>2023-05-28T10:38:30.000Z</time>
      </trkpt>
      <trkpt lat="43.70512" lon="3.06114">
        <ele>925.79998779297</ele>
        <time>2023-05-28T10:38:32.000Z</time>
      </trkpt>
      <trkpt lat="43.70512" lon="3.06109">
        <ele>926</ele>
        <time>2023-05-28T10:38:36.000Z</time>
      </trkpt>
      <trkpt lat="43.70512" lon="3.06105">
        <ele>926</ele>
        <time>2023-05-28T10:38:39.000Z</time>
      </trkpt>
      <trkpt lat="43.70511" lon="3.06102">
        <ele>926</ele>
        <time>2023-05-28T10:38:41.000Z</time>
      </trkpt>
      <trkpt lat="43.7051" lon="3.06098">
        <ele>926</ele>
        <time>2023-05-28T10:38:44.000Z</time>
      </trkpt>
      <trkpt lat="43.7051" lon="3.06095">
        <ele>926</ele>
        <time>2023-05-28T10:38:46.000Z</time>
      </trkpt>
      <trkpt lat="43.7051" lon="3.06092">
        <ele>926</ele>
        <time>2023-05-28T10:38:48.000Z</time>
      </trkpt>
      <trkpt lat="43.70509" lon="3.06087">
        <ele>925.59997558594</ele>
        <time>2023-05-28T10:38:52.000Z</time>
      </trkpt>
      <trkpt lat="43.70509" lon="3.06085">
        <ele>925.59997558594</ele>
        <time>2023-05-28T10:38:53.000Z</time>
      </trkpt>
      <trkpt lat="43.70509" lon="3.06084">
        <ele>925.59997558594</ele>
        <time>2023-05-28T10:38:54.000Z</time>
      </trkpt>
      <trkpt lat="43.70509" lon="3.06081">
        <ele>925.40002441406</ele>
        <time>2023-05-28T10:38:56.000Z</time>
      </trkpt>
      <trkpt lat="43.70509" lon="3.06072">
        <ele>924.79998779297</ele>
        <time>2023-05-28T10:39:01.000Z</time>
      </trkpt>
      <trkpt lat="43.70508" lon="3.06071">
        <ele>924.79998779297</ele>
        <time>2023-05-28T10:39:02.000Z</time>
      </trkpt>
      <trkpt lat="43.70509" lon="3.06067">
        <ele>924.59997558594</ele>
        <time>2023-05-28T10:39:05.000Z</time>
      </trkpt>
      <trkpt lat="43.70509" lon="3.06065">
        <ele>924.20001220703</ele>
        <time>2023-05-28T10:39:06.000Z</time>
      </trkpt>
      <trkpt lat="43.70509" lon="3.06056">
        <ele>923.20001220703</ele>
        <time>2023-05-28T10:39:12.000Z</time>
      </trkpt>
      <trkpt lat="43.70509" lon="3.06054">
        <ele>923.20001220703</ele>
        <time>2023-05-28T10:39:13.000Z</time>
      </trkpt>
      <trkpt lat="43.70509" lon="3.0605">
        <ele>922.79998779297</ele>
        <time>2023-05-28T10:39:16.000Z</time>
      </trkpt>
      <trkpt lat="43.7051" lon="3.06046">
        <ele>922.40002441406</ele>
        <time>2023-05-28T10:39:19.000Z</time>
      </trkpt>
      <trkpt lat="43.7051" lon="3.06045">
        <ele>922.40002441406</ele>
        <time>2023-05-28T10:39:20.000Z</time>
      </trkpt>
      <trkpt lat="43.70511" lon="3.06041">
        <ele>922</ele>
        <time>2023-05-28T10:39:23.000Z</time>
      </trkpt>
      <trkpt lat="43.70511" lon="3.06038">
        <ele>921.79998779297</ele>
        <time>2023-05-28T10:39:25.000Z</time>
      </trkpt>
      <trkpt lat="43.7051" lon="3.06029">
        <ele>921.20001220703</ele>
        <time>2023-05-28T10:39:31.000Z</time>
      </trkpt>
      <trkpt lat="43.7051" lon="3.06025">
        <ele>921</ele>
        <time>2023-05-28T10:39:33.000Z</time>
      </trkpt>
      <trkpt lat="43.70508" lon="3.0602">
        <ele>920.59997558594</ele>
        <time>2023-05-28T10:39:36.000Z</time>
      </trkpt>
      <trkpt lat="43.70507" lon="3.06016">
        <ele>920.40002441406</ele>
        <time>2023-05-28T10:39:39.000Z</time>
      </trkpt>
      <trkpt lat="43.70506" lon="3.06009">
        <ele>920</ele>
        <time>2023-05-28T10:39:43.000Z</time>
      </trkpt>
      <trkpt lat="43.70505" lon="3.06007">
        <ele>920</ele>
        <time>2023-05-28T10:39:44.000Z</time>
      </trkpt>
      <trkpt lat="43.70505" lon="3.06002">
        <ele>919.59997558594</ele>
        <time>2023-05-28T10:39:48.000Z</time>
      </trkpt>
      <trkpt lat="43.70505" lon="3.06">
        <ele>919.59997558594</ele>
        <time>2023-05-28T10:39:49.000Z</time>
      </trkpt>
      <trkpt lat="43.70505" lon="3.05997">
        <ele>919.40002441406</ele>
        <time>2023-05-28T10:39:51.000Z</time>
      </trkpt>
      <trkpt lat="43.70505" lon="3.05993">
        <ele>919.40002441406</ele>
        <time>2023-05-28T10:39:55.000Z</time>
      </trkpt>
      <trkpt lat="43.70505" lon="3.05991">
        <ele>919.20001220703</ele>
        <time>2023-05-28T10:39:56.000Z</time>
      </trkpt>
      <trkpt lat="43.70503" lon="3.0598">
        <ele>919</ele>
        <time>2023-05-28T10:40:02.000Z</time>
      </trkpt>
      <trkpt lat="43.70502" lon="3.05975">
        <ele>918.79998779297</ele>
        <time>2023-05-28T10:40:05.000Z</time>
      </trkpt>
      <trkpt lat="43.70502" lon="3.05971">
        <ele>918.59997558594</ele>
        <time>2023-05-28T10:40:08.000Z</time>
      </trkpt>
      <trkpt lat="43.70502" lon="3.05969">
        <ele>918.40002441406</ele>
        <time>2023-05-28T10:40:10.000Z</time>
      </trkpt>
      <trkpt lat="43.70502" lon="3.05967">
        <ele>918.40002441406</ele>
        <time>2023-05-28T10:40:11.000Z</time>
      </trkpt>
      <trkpt lat="43.70501" lon="3.05959">
        <ele>918</ele>
        <time>2023-05-28T10:40:17.000Z</time>
      </trkpt>
      <trkpt lat="43.705" lon="3.05957">
        <ele>918</ele>
        <time>2023-05-28T10:40:18.000Z</time>
      </trkpt>
      <trkpt lat="43.705" lon="3.05956">
        <ele>917.79998779297</ele>
        <time>2023-05-28T10:40:19.000Z</time>
      </trkpt>
      <trkpt lat="43.70499" lon="3.05955">
        <ele>917.79998779297</ele>
        <time>2023-05-28T10:40:20.000Z</time>
      </trkpt>
      <trkpt lat="43.70498" lon="3.05949">
        <ele>917.40002441406</ele>
        <time>2023-05-28T10:40:23.000Z</time>
      </trkpt>
      <trkpt lat="43.70497" lon="3.05944">
        <ele>917</ele>
        <time>2023-05-28T10:40:27.000Z</time>
      </trkpt>
      <trkpt lat="43.70497" lon="3.0594">
        <ele>917</ele>
        <time>2023-05-28T10:40:30.000Z</time>
      </trkpt>
      <trkpt lat="43.70496" lon="3.05938">
        <ele>916.79998779297</ele>
        <time>2023-05-28T10:40:32.000Z</time>
      </trkpt>
      <trkpt lat="43.70495" lon="3.05931">
        <ele>916.40002441406</ele>
        <time>2023-05-28T10:40:37.000Z</time>
      </trkpt>
      <trkpt lat="43.7049" lon="3.05921">
        <ele>915.59997558594</ele>
        <time>2023-05-28T10:40:44.000Z</time>
      </trkpt>
      <trkpt lat="43.70489" lon="3.05916">
        <ele>915.40002441406</ele>
        <time>2023-05-28T10:40:48.000Z</time>
      </trkpt>
      <trkpt lat="43.70483" lon="3.05905">
        <ele>914.79998779297</ele>
        <time>2023-05-28T10:40:56.000Z</time>
      </trkpt>
      <trkpt lat="43.70481" lon="3.05901">
        <ele>914.59997558594</ele>
        <time>2023-05-28T10:40:59.000Z</time>
      </trkpt>
      <trkpt lat="43.70477" lon="3.05893">
        <ele>914.20001220703</ele>
        <time>2023-05-28T10:41:05.000Z</time>
      </trkpt>
      <trkpt lat="43.70475" lon="3.0589">
        <ele>913.79998779297</ele>
        <time>2023-05-28T10:41:08.000Z</time>
      </trkpt>
      <trkpt lat="43.70475" lon="3.05889">
        <ele>913.59997558594</ele>
        <time>2023-05-28T10:41:11.000Z</time>
      </trkpt>
      <trkpt lat="43.70475" lon="3.05889">
        <ele>913.59997558594</ele>
        <time>2023-05-28T10:41:12.000Z</time>
      </trkpt>
      <trkpt lat="43.7047" lon="3.05884">
        <ele>913.79998779297</ele>
        <time>2023-05-28T10:41:19.000Z</time>
      </trkpt>
      <trkpt lat="43.70465" lon="3.05877">
        <ele>913</ele>
        <time>2023-05-28T10:41:26.000Z</time>
      </trkpt>
      <trkpt lat="43.70463" lon="3.05876">
        <ele>912.59997558594</ele>
        <time>2023-05-28T10:41:28.000Z</time>
      </trkpt>
      <trkpt lat="43.70457" lon="3.05873">
        <ele>912</ele>
        <time>2023-05-28T10:41:34.000Z</time>
      </trkpt>
      <trkpt lat="43.70452" lon="3.05871">
        <ele>911.59997558594</ele>
        <time>2023-05-28T10:41:39.000Z</time>
      </trkpt>
      <trkpt lat="43.70446" lon="3.05871">
        <ele>911</ele>
        <time>2023-05-28T10:41:45.000Z</time>
      </trkpt>
      <trkpt lat="43.70443" lon="3.05872">
        <ele>911.20001220703</ele>
        <time>2023-05-28T10:41:50.000Z</time>
      </trkpt>
      <trkpt lat="43.70442" lon="3.05871">
        <ele>911.20001220703</ele>
        <time>2023-05-28T10:41:51.000Z</time>
      </trkpt>
      <trkpt lat="43.70438" lon="3.05871">
        <ele>911.20001220703</ele>
        <time>2023-05-28T10:41:55.000Z</time>
      </trkpt>
      <trkpt lat="43.70436" lon="3.05871">
        <ele>911</ele>
        <time>2023-05-28T10:41:57.000Z</time>
      </trkpt>
      <trkpt lat="43.70431" lon="3.0587">
        <ele>910.59997558594</ele>
        <time>2023-05-28T10:42:02.000Z</time>
      </trkpt>
      <trkpt lat="43.7043" lon="3.05869">
        <ele>910.40002441406</ele>
        <time>2023-05-28T10:42:03.000Z</time>
      </trkpt>
      <trkpt lat="43.70427" lon="3.05868">
        <ele>910.20001220703</ele>
        <time>2023-05-28T10:42:06.000Z</time>
      </trkpt>
      <trkpt lat="43.70424" lon="3.05867">
        <ele>910</ele>
        <time>2023-05-28T10:42:09.000Z</time>
      </trkpt>
      <trkpt lat="43.70422" lon="3.05866">
        <ele>909.59997558594</ele>
        <time>2023-05-28T10:42:11.000Z</time>
      </trkpt>
      <trkpt lat="43.7042" lon="3.05865">
        <ele>909.40002441406</ele>
        <time>2023-05-28T10:42:13.000Z</time>
      </trkpt>
      <trkpt lat="43.70419" lon="3.05865">
        <ele>909.20001220703</ele>
        <time>2023-05-28T10:42:14.000Z</time>
      </trkpt>
      <trkpt lat="43.70418" lon="3.05865">
        <ele>909</ele>
        <time>2023-05-28T10:42:15.000Z</time>
      </trkpt>
      <trkpt lat="43.70409" lon="3.05862">
        <ele>908.40002441406</ele>
        <time>2023-05-28T10:42:22.000Z</time>
      </trkpt>
      <trkpt lat="43.70408" lon="3.05862">
        <ele>908.20001220703</ele>
        <time>2023-05-28T10:42:23.000Z</time>
      </trkpt>
      <trkpt lat="43.70405" lon="3.05861">
        <ele>908.20001220703</ele>
        <time>2023-05-28T10:42:26.000Z</time>
      </trkpt>
      <trkpt lat="43.70402" lon="3.05861">
        <ele>908</ele>
        <time>2023-05-28T10:42:28.000Z</time>
      </trkpt>
      <trkpt lat="43.704" lon="3.05861">
        <ele>907.79998779297</ele>
        <time>2023-05-28T10:42:30.000Z</time>
      </trkpt>
      <trkpt lat="43.70394" lon="3.0586">
        <ele>907.20001220703</ele>
        <time>2023-05-28T10:42:34.000Z</time>
      </trkpt>
      <trkpt lat="43.70393" lon="3.05859">
        <ele>907.20001220703</ele>
        <time>2023-05-28T10:42:35.000Z</time>
      </trkpt>
      <trkpt lat="43.70388" lon="3.05858">
        <ele>906.79998779297</ele>
        <time>2023-05-28T10:42:39.000Z</time>
      </trkpt>
      <trkpt lat="43.70383" lon="3.05856">
        <ele>906.40002441406</ele>
        <time>2023-05-28T10:42:43.000Z</time>
      </trkpt>
      <trkpt lat="43.70381" lon="3.05855">
        <ele>906.20001220703</ele>
        <time>2023-05-28T10:42:45.000Z</time>
      </trkpt>
      <trkpt lat="43.70374" lon="3.0585">
        <ele>905.59997558594</ele>
        <time>2023-05-28T10:42:51.000Z</time>
      </trkpt>
      <trkpt lat="43.70368" lon="3.05847">
        <ele>905.20001220703</ele>
        <time>2023-05-28T10:42:56.000Z</time>
      </trkpt>
      <trkpt lat="43.70366" lon="3.05846">
        <ele>905</ele>
        <time>2023-05-28T10:42:58.000Z</time>
      </trkpt>
      <trkpt lat="43.70355" lon="3.05841">
        <ele>904.40002441406</ele>
        <time>2023-05-28T10:43:06.000Z</time>
      </trkpt>
      <trkpt lat="43.70354" lon="3.05841">
        <ele>904.40002441406</ele>
        <time>2023-05-28T10:43:07.000Z</time>
      </trkpt>
      <trkpt lat="43.70353" lon="3.0584">
        <ele>904.20001220703</ele>
        <time>2023-05-28T10:43:08.000Z</time>
      </trkpt>
      <trkpt lat="43.70347" lon="3.05839">
        <ele>904.20001220703</ele>
        <time>2023-05-28T10:43:13.000Z</time>
      </trkpt>
      <trkpt lat="43.70346" lon="3.05839">
        <ele>904.20001220703</ele>
        <time>2023-05-28T10:43:14.000Z</time>
      </trkpt>
      <trkpt lat="43.7034" lon="3.05837">
        <ele>903.59997558594</ele>
        <time>2023-05-28T10:43:20.000Z</time>
      </trkpt>
      <trkpt lat="43.70334" lon="3.05833">
        <ele>903.40002441406</ele>
        <time>2023-05-28T10:43:25.000Z</time>
      </trkpt>
      <trkpt lat="43.70333" lon="3.05833">
        <ele>903.20001220703</ele>
        <time>2023-05-28T10:43:26.000Z</time>
      </trkpt>
      <trkpt lat="43.70332" lon="3.05832">
        <ele>903</ele>
        <time>2023-05-28T10:43:27.000Z</time>
      </trkpt>
      <trkpt lat="43.70326" lon="3.05828">
        <ele>902.40002441406</ele>
        <time>2023-05-28T10:43:32.000Z</time>
      </trkpt>
      <trkpt lat="43.70323" lon="3.05827">
        <ele>902.20001220703</ele>
        <time>2023-05-28T10:43:34.000Z</time>
      </trkpt>
      <trkpt lat="43.70319" lon="3.05824">
        <ele>902</ele>
        <time>2023-05-28T10:43:38.000Z</time>
      </trkpt>
      <trkpt lat="43.70314" lon="3.05821">
        <ele>901.40002441406</ele>
        <time>2023-05-28T10:43:42.000Z</time>
      </trkpt>
      <trkpt lat="43.70307" lon="3.05816">
        <ele>900.79998779297</ele>
        <time>2023-05-28T10:43:49.000Z</time>
      </trkpt>
      <trkpt lat="43.70305" lon="3.05814">
        <ele>900.79998779297</ele>
        <time>2023-05-28T10:43:51.000Z</time>
      </trkpt>
      <trkpt lat="43.70303" lon="3.05813">
        <ele>900.59997558594</ele>
        <time>2023-05-28T10:43:53.000Z</time>
      </trkpt>
      <trkpt lat="43.703" lon="3.0581">
        <ele>900.59997558594</ele>
        <time>2023-05-28T10:43:56.000Z</time>
      </trkpt>
      <trkpt lat="43.70298" lon="3.05809">
        <ele>900.40002441406</ele>
        <time>2023-05-28T10:43:58.000Z</time>
      </trkpt>
      <trkpt lat="43.70296" lon="3.05808">
        <ele>900.20001220703</ele>
        <time>2023-05-28T10:44:00.000Z</time>
      </trkpt>
      <trkpt lat="43.70291" lon="3.05805">
        <ele>899.79998779297</ele>
        <time>2023-05-28T10:44:05.000Z</time>
      </trkpt>
      <trkpt lat="43.70285" lon="3.05801">
        <ele>899.59997558594</ele>
        <time>2023-05-28T10:44:10.000Z</time>
      </trkpt>
      <trkpt lat="43.70283" lon="3.058">
        <ele>899.40002441406</ele>
        <time>2023-05-28T10:44:12.000Z</time>
      </trkpt>
      <trkpt lat="43.70278" lon="3.05796">
        <ele>899.20001220703</ele>
        <time>2023-05-28T10:44:17.000Z</time>
      </trkpt>
      <trkpt lat="43.70271" lon="3.05792">
        <ele>898.79998779297</ele>
        <time>2023-05-28T10:44:23.000Z</time>
      </trkpt>
      <trkpt lat="43.70269" lon="3.05791">
        <ele>898.59997558594</ele>
        <time>2023-05-28T10:44:25.000Z</time>
      </trkpt>
      <trkpt lat="43.70258" lon="3.05784">
        <ele>898</ele>
        <time>2023-05-28T10:44:34.000Z</time>
      </trkpt>
      <trkpt lat="43.70255" lon="3.05782">
        <ele>897.79998779297</ele>
        <time>2023-05-28T10:44:37.000Z</time>
      </trkpt>
      <trkpt lat="43.70246" lon="3.05777">
        <ele>897.40002441406</ele>
        <time>2023-05-28T10:44:45.000Z</time>
      </trkpt>
      <trkpt lat="43.70238" lon="3.05774">
        <ele>897</ele>
        <time>2023-05-28T10:44:51.000Z</time>
      </trkpt>
      <trkpt lat="43.70236" lon="3.05775">
        <ele>897.20001220703</ele>
        <time>2023-05-28T10:44:53.000Z</time>
      </trkpt>
      <trkpt lat="43.70229" lon="3.05778">
        <ele>897.40002441406</ele>
        <time>2023-05-28T10:45:00.000Z</time>
      </trkpt>
      <trkpt lat="43.70227" lon="3.05781">
        <ele>897.40002441406</ele>
        <time>2023-05-28T10:45:03.000Z</time>
      </trkpt>
      <trkpt lat="43.70226" lon="3.05784">
        <ele>897.59997558594</ele>
        <time>2023-05-28T10:45:07.000Z</time>
      </trkpt>
      <trkpt lat="43.70224" lon="3.05788">
        <ele>898</ele>
        <time>2023-05-28T10:45:11.000Z</time>
      </trkpt>
      <trkpt lat="43.70222" lon="3.0579">
        <ele>898.40002441406</ele>
        <time>2023-05-28T10:45:14.000Z</time>
      </trkpt>
      <trkpt lat="43.70221" lon="3.05795">
        <ele>898.79998779297</ele>
        <time>2023-05-28T10:45:18.000Z</time>
      </trkpt>
      <trkpt lat="43.7022" lon="3.05798">
        <ele>899.40002441406</ele>
        <time>2023-05-28T10:45:22.000Z</time>
      </trkpt>
      <trkpt lat="43.70218" lon="3.05805">
        <ele>900</ele>
        <time>2023-05-28T10:45:29.000Z</time>
      </trkpt>
      <trkpt lat="43.70218" lon="3.05806">
        <ele>900</ele>
        <time>2023-05-28T10:45:30.000Z</time>
      </trkpt>
      <trkpt lat="43.70214" lon="3.05816">
        <ele>900.59997558594</ele>
        <time>2023-05-28T10:45:39.000Z</time>
      </trkpt>
      <trkpt lat="43.70212" lon="3.05823">
        <ele>901</ele>
        <time>2023-05-28T10:45:45.000Z</time>
      </trkpt>
      <trkpt lat="43.7021" lon="3.05826">
        <ele>901.20001220703</ele>
        <time>2023-05-28T10:45:48.000Z</time>
      </trkpt>
      <trkpt lat="43.70206" lon="3.05838">
        <ele>901.59997558594</ele>
        <time>2023-05-28T10:45:59.000Z</time>
      </trkpt>
      <trkpt lat="43.70205" lon="3.0584">
        <ele>901.59997558594</ele>
        <time>2023-05-28T10:46:01.000Z</time>
      </trkpt>
      <trkpt lat="43.70203" lon="3.05844">
        <ele>901.79998779297</ele>
        <time>2023-05-28T10:46:06.000Z</time>
      </trkpt>
      <trkpt lat="43.70203" lon="3.05847">
        <ele>902</ele>
        <time>2023-05-28T10:46:08.000Z</time>
      </trkpt>
      <trkpt lat="43.70201" lon="3.05853">
        <ele>902.59997558594</ele>
        <time>2023-05-28T10:46:15.000Z</time>
      </trkpt>
      <trkpt lat="43.70198" lon="3.05861">
        <ele>903</ele>
        <time>2023-05-28T10:46:22.000Z</time>
      </trkpt>
      <trkpt lat="43.70198" lon="3.05862">
        <ele>903</ele>
        <time>2023-05-28T10:46:23.000Z</time>
      </trkpt>
      <trkpt lat="43.70197" lon="3.05865">
        <ele>903.20001220703</ele>
        <time>2023-05-28T10:46:26.000Z</time>
      </trkpt>
      <trkpt lat="43.70196" lon="3.05868">
        <ele>903.40002441406</ele>
        <time>2023-05-28T10:46:30.000Z</time>
      </trkpt>
      <trkpt lat="43.70195" lon="3.05875">
        <ele>904</ele>
        <time>2023-05-28T10:46:36.000Z</time>
      </trkpt>
      <trkpt lat="43.70194" lon="3.05878">
        <ele>904.20001220703</ele>
        <time>2023-05-28T10:46:38.000Z</time>
      </trkpt>
      <trkpt lat="43.70192" lon="3.05886">
        <ele>904.59997558594</ele>
        <time>2023-05-28T10:46:47.000Z</time>
      </trkpt>
      <trkpt lat="43.7019" lon="3.05891">
        <ele>905</ele>
        <time>2023-05-28T10:46:53.000Z</time>
      </trkpt>
      <trkpt lat="43.7019" lon="3.05892">
        <ele>905</ele>
        <time>2023-05-28T10:46:54.000Z</time>
      </trkpt>
      <trkpt lat="43.70188" lon="3.05898">
        <ele>905.59997558594</ele>
        <time>2023-05-28T10:47:00.000Z</time>
      </trkpt>
      <trkpt lat="43.70185" lon="3.05906">
        <ele>906</ele>
        <time>2023-05-28T10:47:08.000Z</time>
      </trkpt>
      <trkpt lat="43.70184" lon="3.05907">
        <ele>906.20001220703</ele>
        <time>2023-05-28T10:47:09.000Z</time>
      </trkpt>
      <trkpt lat="43.70182" lon="3.05913">
        <ele>906.40002441406</ele>
        <time>2023-05-28T10:47:14.000Z</time>
      </trkpt>
      <trkpt lat="43.70181" lon="3.05917">
        <ele>906.79998779297</ele>
        <time>2023-05-28T10:47:17.000Z</time>
      </trkpt>
      <trkpt lat="43.70179" lon="3.05921">
        <ele>907.20001220703</ele>
        <time>2023-05-28T10:47:21.000Z</time>
      </trkpt>
      <trkpt lat="43.70177" lon="3.05925">
        <ele>907.59997558594</ele>
        <time>2023-05-28T10:47:25.000Z</time>
      </trkpt>
      <trkpt lat="43.70176" lon="3.05928">
        <ele>908</ele>
        <time>2023-05-28T10:47:28.000Z</time>
      </trkpt>
      <trkpt lat="43.70174" lon="3.05931">
        <ele>908.20001220703</ele>
        <time>2023-05-28T10:47:31.000Z</time>
      </trkpt>
      <trkpt lat="43.70171" lon="3.05937">
        <ele>908.59997558594</ele>
        <time>2023-05-28T10:47:36.000Z</time>
      </trkpt>
      <trkpt lat="43.7017" lon="3.05939">
        <ele>908.79998779297</ele>
        <time>2023-05-28T10:47:38.000Z</time>
      </trkpt>
      <trkpt lat="43.70168" lon="3.05942">
        <ele>909.20001220703</ele>
        <time>2023-05-28T10:47:41.000Z</time>
      </trkpt>
      <trkpt lat="43.70168" lon="3.05943">
        <ele>909.20001220703</ele>
        <time>2023-05-28T10:47:42.000Z</time>
      </trkpt>
      <trkpt lat="43.70165" lon="3.05948">
        <ele>909.59997558594</ele>
        <time>2023-05-28T10:47:46.000Z</time>
      </trkpt>
      <trkpt lat="43.70165" lon="3.05949">
        <ele>909.59997558594</ele>
        <time>2023-05-28T10:47:47.000Z</time>
      </trkpt>
      <trkpt lat="43.70162" lon="3.05955">
        <ele>910</ele>
        <time>2023-05-28T10:47:53.000Z</time>
      </trkpt>
      <trkpt lat="43.70161" lon="3.05956">
        <ele>910.20001220703</ele>
        <time>2023-05-28T10:47:54.000Z</time>
      </trkpt>
      <trkpt lat="43.7016" lon="3.05958">
        <ele>910.40002441406</ele>
        <time>2023-05-28T10:47:56.000Z</time>
      </trkpt>
      <trkpt lat="43.7016" lon="3.05959">
        <ele>910.40002441406</ele>
        <time>2023-05-28T10:47:57.000Z</time>
      </trkpt>
      <trkpt lat="43.70158" lon="3.05963">
        <ele>910.59997558594</ele>
        <time>2023-05-28T10:48:01.000Z</time>
      </trkpt>
      <trkpt lat="43.70157" lon="3.05966">
        <ele>910.79998779297</ele>
        <time>2023-05-28T10:48:04.000Z</time>
      </trkpt>
      <trkpt lat="43.70156" lon="3.05969">
        <ele>911</ele>
        <time>2023-05-28T10:48:06.000Z</time>
      </trkpt>
      <trkpt lat="43.70155" lon="3.05971">
        <ele>911</ele>
        <time>2023-05-28T10:48:08.000Z</time>
      </trkpt>
      <trkpt lat="43.70154" lon="3.05975">
        <ele>911.20001220703</ele>
        <time>2023-05-28T10:48:11.000Z</time>
      </trkpt>
      <trkpt lat="43.70153" lon="3.05976">
        <ele>911.40002441406</ele>
        <time>2023-05-28T10:48:12.000Z</time>
      </trkpt>
      <trkpt lat="43.7015" lon="3.05981">
        <ele>911.59997558594</ele>
        <time>2023-05-28T10:48:17.000Z</time>
      </trkpt>
      <trkpt lat="43.70148" lon="3.05985">
        <ele>911.59997558594</ele>
        <time>2023-05-28T10:48:20.000Z</time>
      </trkpt>
      <trkpt lat="43.70146" lon="3.0599">
        <ele>911.59997558594</ele>
        <time>2023-05-28T10:48:24.000Z</time>
      </trkpt>
      <trkpt lat="43.70141" lon="3.06002">
        <ele>912</ele>
        <time>2023-05-28T10:48:33.000Z</time>
      </trkpt>
      <trkpt lat="43.70138" lon="3.06014">
        <ele>912.40002441406</ele>
        <time>2023-05-28T10:48:42.000Z</time>
      </trkpt>
      <trkpt lat="43.70137" lon="3.06019">
        <ele>912.40002441406</ele>
        <time>2023-05-28T10:48:46.000Z</time>
      </trkpt>
      <trkpt lat="43.70133" lon="3.06029">
        <ele>913</ele>
        <time>2023-05-28T10:48:54.000Z</time>
      </trkpt>
      <trkpt lat="43.70132" lon="3.06032">
        <ele>913.20001220703</ele>
        <time>2023-05-28T10:48:56.000Z</time>
      </trkpt>
      <trkpt lat="43.70131" lon="3.06035">
        <ele>913.40002441406</ele>
        <time>2023-05-28T10:48:58.000Z</time>
      </trkpt>
      <trkpt lat="43.70131" lon="3.06036">
        <ele>913.59997558594</ele>
        <time>2023-05-28T10:49:00.000Z</time>
      </trkpt>
      <trkpt lat="43.7013" lon="3.06037">
        <ele>913.59997558594</ele>
        <time>2023-05-28T10:49:01.000Z</time>
      </trkpt>
      <trkpt lat="43.70126" lon="3.06041">
        <ele>914</ele>
        <time>2023-05-28T10:49:06.000Z</time>
      </trkpt>
      <trkpt lat="43.70126" lon="3.06042">
        <ele>914</ele>
        <time>2023-05-28T10:49:07.000Z</time>
      </trkpt>
      <trkpt lat="43.70125" lon="3.06042">
        <ele>914.20001220703</ele>
        <time>2023-05-28T10:49:08.000Z</time>
      </trkpt>
      <trkpt lat="43.70123" lon="3.06044">
        <ele>914.40002441406</ele>
        <time>2023-05-28T10:49:11.000Z</time>
      </trkpt>
      <trkpt lat="43.70122" lon="3.06044">
        <ele>914.40002441406</ele>
        <time>2023-05-28T10:49:12.000Z</time>
      </trkpt>
      <trkpt lat="43.70121" lon="3.06044">
        <ele>914.40002441406</ele>
        <time>2023-05-28T10:49:13.000Z</time>
      </trkpt>
      <trkpt lat="43.70119" lon="3.06045">
        <ele>914.59997558594</ele>
        <time>2023-05-28T10:49:16.000Z</time>
      </trkpt>
      <trkpt lat="43.70116" lon="3.06045">
        <ele>914.59997558594</ele>
        <time>2023-05-28T10:49:19.000Z</time>
      </trkpt>
      <trkpt lat="43.70113" lon="3.06044">
        <ele>915</ele>
        <time>2023-05-28T10:49:22.000Z</time>
      </trkpt>
      <trkpt lat="43.70112" lon="3.06044">
        <ele>915</ele>
        <time>2023-05-28T10:49:25.000Z</time>
      </trkpt>
      <trkpt lat="43.70108" lon="3.06042">
        <ele>915.20001220703</ele>
        <time>2023-05-28T10:49:28.000Z</time>
      </trkpt>
      <trkpt lat="43.70107" lon="3.06042">
        <ele>915.40002441406</ele>
        <time>2023-05-28T10:49:30.000Z</time>
      </trkpt>
      <trkpt lat="43.70104" lon="3.06041">
        <ele>915.40002441406</ele>
        <time>2023-05-28T10:49:32.000Z</time>
      </trkpt>
      <trkpt lat="43.70101" lon="3.06039">
        <ele>915.59997558594</ele>
        <time>2023-05-28T10:49:35.000Z</time>
      </trkpt>
      <trkpt lat="43.70098" lon="3.06039">
        <ele>915.59997558594</ele>
        <time>2023-05-28T10:49:38.000Z</time>
      </trkpt>
      <trkpt lat="43.70094" lon="3.06037">
        <ele>915.79998779297</ele>
        <time>2023-05-28T10:49:41.000Z</time>
      </trkpt>
      <trkpt lat="43.7009" lon="3.06037">
        <ele>916</ele>
        <time>2023-05-28T10:49:44.000Z</time>
      </trkpt>
      <trkpt lat="43.70086" lon="3.06038">
        <ele>916.20001220703</ele>
        <time>2023-05-28T10:49:47.000Z</time>
      </trkpt>
      <trkpt lat="43.7008" lon="3.0604">
        <ele>916.59997558594</ele>
        <time>2023-05-28T10:49:53.000Z</time>
      </trkpt>
      <trkpt lat="43.70077" lon="3.06041">
        <ele>916.59997558594</ele>
        <time>2023-05-28T10:49:56.000Z</time>
      </trkpt>
      <trkpt lat="43.70074" lon="3.06042">
        <ele>916.59997558594</ele>
        <time>2023-05-28T10:49:59.000Z</time>
      </trkpt>
      <trkpt lat="43.70069" lon="3.06044">
        <ele>916.59997558594</ele>
        <time>2023-05-28T10:50:03.000Z</time>
      </trkpt>
      <trkpt lat="43.70065" lon="3.06043">
        <ele>916.59997558594</ele>
        <time>2023-05-28T10:50:06.000Z</time>
      </trkpt>
      <trkpt lat="43.70061" lon="3.06043">
        <ele>916.59997558594</ele>
        <time>2023-05-28T10:50:10.000Z</time>
      </trkpt>
      <trkpt lat="43.70058" lon="3.06043">
        <ele>916.59997558594</ele>
        <time>2023-05-28T10:50:12.000Z</time>
      </trkpt>
      <trkpt lat="43.70052" lon="3.06041">
        <ele>916.40002441406</ele>
        <time>2023-05-28T10:50:17.000Z</time>
      </trkpt>
      <trkpt lat="43.70041" lon="3.06038">
        <ele>916.40002441406</ele>
        <time>2023-05-28T10:50:25.000Z</time>
      </trkpt>
      <trkpt lat="43.70033" lon="3.06036">
        <ele>916.59997558594</ele>
        <time>2023-05-28T10:50:32.000Z</time>
      </trkpt>
      <trkpt lat="43.70023" lon="3.06032">
        <ele>916.79998779297</ele>
        <time>2023-05-28T10:50:40.000Z</time>
      </trkpt>
      <trkpt lat="43.70022" lon="3.06031">
        <ele>916.79998779297</ele>
        <time>2023-05-28T10:50:41.000Z</time>
      </trkpt>
      <trkpt lat="43.70015" lon="3.06027">
        <ele>916.79998779297</ele>
        <time>2023-05-28T10:50:46.000Z</time>
      </trkpt>
      <trkpt lat="43.70006" lon="3.06024">
        <ele>916.59997558594</ele>
        <time>2023-05-28T10:50:54.000Z</time>
      </trkpt>
      <trkpt lat="43.69996" lon="3.06019">
        <ele>916.20001220703</ele>
        <time>2023-05-28T10:51:04.000Z</time>
      </trkpt>
      <trkpt lat="43.69988" lon="3.06017">
        <ele>916</ele>
        <time>2023-05-28T10:51:11.000Z</time>
      </trkpt>
      <trkpt lat="43.69987" lon="3.06018">
        <ele>916</ele>
        <time>2023-05-28T10:51:12.000Z</time>
      </trkpt>
      <trkpt lat="43.69979" lon="3.06015">
        <ele>916.20001220703</ele>
        <time>2023-05-28T10:51:19.000Z</time>
      </trkpt>
      <trkpt lat="43.69978" lon="3.06014">
        <ele>916.20001220703</ele>
        <time>2023-05-28T10:51:20.000Z</time>
      </trkpt>
      <trkpt lat="43.69972" lon="3.06011">
        <ele>916.20001220703</ele>
        <time>2023-05-28T10:51:25.000Z</time>
      </trkpt>
      <trkpt lat="43.69963" lon="3.06008">
        <ele>916.59997558594</ele>
        <time>2023-05-28T10:51:33.000Z</time>
      </trkpt>
      <trkpt lat="43.6996" lon="3.06006">
        <ele>916.59997558594</ele>
        <time>2023-05-28T10:51:36.000Z</time>
      </trkpt>
      <trkpt lat="43.69958" lon="3.06006">
        <ele>916.59997558594</ele>
        <time>2023-05-28T10:51:38.000Z</time>
      </trkpt>
      <trkpt lat="43.69955" lon="3.06005">
        <ele>916.79998779297</ele>
        <time>2023-05-28T10:51:41.000Z</time>
      </trkpt>
      <trkpt lat="43.69947" lon="3.06001">
        <ele>916.79998779297</ele>
        <time>2023-05-28T10:51:49.000Z</time>
      </trkpt>
      <trkpt lat="43.69944" lon="3.05999">
        <ele>916.79998779297</ele>
        <time>2023-05-28T10:51:52.000Z</time>
      </trkpt>
      <trkpt lat="43.69939" lon="3.05996">
        <ele>917</ele>
        <time>2023-05-28T10:51:56.000Z</time>
      </trkpt>
      <trkpt lat="43.69929" lon="3.05989">
        <ele>917.40002441406</ele>
        <time>2023-05-28T10:52:05.000Z</time>
      </trkpt>
      <trkpt lat="43.69921" lon="3.05983">
        <ele>917.59997558594</ele>
        <time>2023-05-28T10:52:12.000Z</time>
      </trkpt>
      <trkpt lat="43.6992" lon="3.05982">
        <ele>917.59997558594</ele>
        <time>2023-05-28T10:52:13.000Z</time>
      </trkpt>
      <trkpt lat="43.69917" lon="3.0598">
        <ele>917.59997558594</ele>
        <time>2023-05-28T10:52:16.000Z</time>
      </trkpt>
      <trkpt lat="43.69913" lon="3.05978">
        <ele>917.59997558594</ele>
        <time>2023-05-28T10:52:20.000Z</time>
      </trkpt>
      <trkpt lat="43.69905" lon="3.05969">
        <ele>917.59997558594</ele>
        <time>2023-05-28T10:52:28.000Z</time>
      </trkpt>
      <trkpt lat="43.69895" lon="3.05959">
        <ele>917.59997558594</ele>
        <time>2023-05-28T10:52:38.000Z</time>
      </trkpt>
      <trkpt lat="43.69886" lon="3.05951">
        <ele>917.59997558594</ele>
        <time>2023-05-28T10:52:46.000Z</time>
      </trkpt>
      <trkpt lat="43.69881" lon="3.05946">
        <ele>917.40002441406</ele>
        <time>2023-05-28T10:52:51.000Z</time>
      </trkpt>
      <trkpt lat="43.69879" lon="3.05945">
        <ele>917.40002441406</ele>
        <time>2023-05-28T10:52:53.000Z</time>
      </trkpt>
      <trkpt lat="43.69872" lon="3.05941">
        <ele>917.20001220703</ele>
        <time>2023-05-28T10:53:03.000Z</time>
      </trkpt>
      <trkpt lat="43.69872" lon="3.05942">
        <ele>917.20001220703</ele>
        <time>2023-05-28T10:53:10.000Z</time>
      </trkpt>
      <trkpt lat="43.69873" lon="3.05941">
        <ele>917.20001220703</ele>
        <time>2023-05-28T10:53:17.000Z</time>
      </trkpt>
      <trkpt lat="43.69873" lon="3.0594">
        <ele>917.59997558594</ele>
        <time>2023-05-28T10:53:27.000Z</time>
      </trkpt>
      <trkpt lat="43.69873" lon="3.0594">
        <ele>917.40002441406</ele>
        <time>2023-05-28T10:53:36.000Z</time>
      </trkpt>
      <trkpt lat="43.69873" lon="3.05939">
        <ele>918</ele>
        <time>2023-05-28T10:53:46.000Z</time>
      </trkpt>
      <trkpt lat="43.69874" lon="3.0594">
        <ele>917.40002441406</ele>
        <time>2023-05-28T10:53:54.000Z</time>
      </trkpt>
      <trkpt lat="43.69874" lon="3.05939">
        <ele>917.40002441406</ele>
        <time>2023-05-28T10:54:01.000Z</time>
      </trkpt>
      <trkpt lat="43.69875" lon="3.05939">
        <ele>917.79998779297</ele>
        <time>2023-05-28T10:54:11.000Z</time>
      </trkpt>
      <trkpt lat="43.69877" lon="3.0594">
        <ele>917.59997558594</ele>
        <time>2023-05-28T10:54:20.000Z</time>
      </trkpt>
      <trkpt lat="43.69876" lon="3.05939">
        <ele>917.59997558594</ele>
        <time>2023-05-28T10:54:28.000Z</time>
      </trkpt>
      <trkpt lat="43.69876" lon="3.05939">
        <ele>913</ele>
        <time>2023-05-28T10:54:33.000Z</time>
      </trkpt>
      <trkpt lat="43.69877" lon="3.05939">
        <ele>912.59997558594</ele>
        <time>2023-05-28T10:54:35.000Z</time>
      </trkpt>
      <trkpt lat="43.69877" lon="3.05939">
        <ele>917.20001220703</ele>
        <time>2023-05-28T10:54:38.000Z</time>
      </trkpt>
      <trkpt lat="43.69877" lon="3.05939">
        <ele>917.79998779297</ele>
        <time>2023-05-28T10:54:43.000Z</time>
      </trkpt>
      <trkpt lat="43.69877" lon="3.05938">
        <ele>917.79998779297</ele>
        <time>2023-05-28T10:54:53.000Z</time>
      </trkpt>
      <trkpt lat="43.69871" lon="3.05936">
        <ele>917.79998779297</ele>
        <time>2023-05-28T10:55:01.000Z</time>
      </trkpt>
      <trkpt lat="43.69864" lon="3.05931">
        <ele>917.20001220703</ele>
        <time>2023-05-28T10:55:08.000Z</time>
      </trkpt>
      <trkpt lat="43.69863" lon="3.05931">
        <ele>917.20001220703</ele>
        <time>2023-05-28T10:55:09.000Z</time>
      </trkpt>
      <trkpt lat="43.69862" lon="3.0593">
        <ele>917.20001220703</ele>
        <time>2023-05-28T10:55:11.000Z</time>
      </trkpt>
      <trkpt lat="43.69858" lon="3.05927">
        <ele>917</ele>
        <time>2023-05-28T10:55:14.000Z</time>
      </trkpt>
      <trkpt lat="43.69856" lon="3.05925">
        <ele>917</ele>
        <time>2023-05-28T10:55:15.000Z</time>
      </trkpt>
      <trkpt lat="43.6985" lon="3.05924">
        <ele>916.40002441406</ele>
        <time>2023-05-28T10:55:21.000Z</time>
      </trkpt>
      <trkpt lat="43.69845" lon="3.05922">
        <ele>916.20001220703</ele>
        <time>2023-05-28T10:55:25.000Z</time>
      </trkpt>
      <trkpt lat="43.69843" lon="3.0592">
        <ele>916.20001220703</ele>
        <time>2023-05-28T10:55:27.000Z</time>
      </trkpt>
      <trkpt lat="43.6984" lon="3.05918">
        <ele>916.20001220703</ele>
        <time>2023-05-28T10:55:29.000Z</time>
      </trkpt>
      <trkpt lat="43.69831" lon="3.05913">
        <ele>915</ele>
        <time>2023-05-28T10:55:39.000Z</time>
      </trkpt>
      <trkpt lat="43.6983" lon="3.05912">
        <ele>915</ele>
        <time>2023-05-28T10:55:40.000Z</time>
      </trkpt>
      <trkpt lat="43.69824" lon="3.0591">
        <ele>914.40002441406</ele>
        <time>2023-05-28T10:55:46.000Z</time>
      </trkpt>
      <trkpt lat="43.69822" lon="3.05909">
        <ele>914.20001220703</ele>
        <time>2023-05-28T10:55:48.000Z</time>
      </trkpt>
      <trkpt lat="43.69819" lon="3.05909">
        <ele>914</ele>
        <time>2023-05-28T10:55:50.000Z</time>
      </trkpt>
      <trkpt lat="43.69813" lon="3.05907">
        <ele>913.40002441406</ele>
        <time>2023-05-28T10:55:56.000Z</time>
      </trkpt>
      <trkpt lat="43.69809" lon="3.05905">
        <ele>913</ele>
        <time>2023-05-28T10:56:00.000Z</time>
      </trkpt>
      <trkpt lat="43.69804" lon="3.05905">
        <ele>912.59997558594</ele>
        <time>2023-05-28T10:56:05.000Z</time>
      </trkpt>
      <trkpt lat="43.69802" lon="3.05906">
        <ele>912.20001220703</ele>
        <time>2023-05-28T10:56:08.000Z</time>
      </trkpt>
      <trkpt lat="43.69801" lon="3.05907">
        <ele>912</ele>
        <time>2023-05-28T10:56:10.000Z</time>
      </trkpt>
      <trkpt lat="43.698" lon="3.05907">
        <ele>911.79998779297</ele>
        <time>2023-05-28T10:56:11.000Z</time>
      </trkpt>
      <trkpt lat="43.69794" lon="3.05908">
        <ele>911</ele>
        <time>2023-05-28T10:56:17.000Z</time>
      </trkpt>
      <trkpt lat="43.69793" lon="3.05908">
        <ele>910.79998779297</ele>
        <time>2023-05-28T10:56:18.000Z</time>
      </trkpt>
      <trkpt lat="43.69793" lon="3.05909">
        <ele>910.59997558594</ele>
        <time>2023-05-28T10:56:19.000Z</time>
      </trkpt>
      <trkpt lat="43.69785" lon="3.05914">
        <ele>910.20001220703</ele>
        <time>2023-05-28T10:56:26.000Z</time>
      </trkpt>
      <trkpt lat="43.6978" lon="3.05917">
        <ele>909.79998779297</ele>
        <time>2023-05-28T10:56:31.000Z</time>
      </trkpt>
      <trkpt lat="43.69777" lon="3.05919">
        <ele>910</ele>
        <time>2023-05-28T10:56:34.000Z</time>
      </trkpt>
      <trkpt lat="43.69772" lon="3.05923">
        <ele>910</ele>
        <time>2023-05-28T10:56:39.000Z</time>
      </trkpt>
      <trkpt lat="43.69772" lon="3.05924">
        <ele>910</ele>
        <time>2023-05-28T10:56:40.000Z</time>
      </trkpt>
      <trkpt lat="43.69764" lon="3.0593">
        <ele>909.20001220703</ele>
        <time>2023-05-28T10:56:47.000Z</time>
      </trkpt>
      <trkpt lat="43.69759" lon="3.05935">
        <ele>909</ele>
        <time>2023-05-28T10:56:54.000Z</time>
      </trkpt>
      <trkpt lat="43.69755" lon="3.05938">
        <ele>908.79998779297</ele>
        <time>2023-05-28T10:56:58.000Z</time>
      </trkpt>
      <trkpt lat="43.69749" lon="3.05943">
        <ele>908.40002441406</ele>
        <time>2023-05-28T10:57:05.000Z</time>
      </trkpt>
      <trkpt lat="43.69742" lon="3.05953">
        <ele>908</ele>
        <time>2023-05-28T10:57:14.000Z</time>
      </trkpt>
      <trkpt lat="43.69735" lon="3.05961">
        <ele>909</ele>
        <time>2023-05-28T10:57:21.000Z</time>
      </trkpt>
      <trkpt lat="43.69733" lon="3.05963">
        <ele>907.40002441406</ele>
        <time>2023-05-28T10:57:23.000Z</time>
      </trkpt>
      <trkpt lat="43.69732" lon="3.05963">
        <ele>907.20001220703</ele>
        <time>2023-05-28T10:57:24.000Z</time>
      </trkpt>
      <trkpt lat="43.69729" lon="3.05966">
        <ele>907.20001220703</ele>
        <time>2023-05-28T10:57:28.000Z</time>
      </trkpt>
      <trkpt lat="43.69724" lon="3.05973">
        <ele>906.79998779297</ele>
        <time>2023-05-28T10:57:35.000Z</time>
      </trkpt>
      <trkpt lat="43.6972" lon="3.05979">
        <ele>906.20001220703</ele>
        <time>2023-05-28T10:57:40.000Z</time>
      </trkpt>
      <trkpt lat="43.69717" lon="3.05981">
        <ele>906</ele>
        <time>2023-05-28T10:57:43.000Z</time>
      </trkpt>
      <trkpt lat="43.6971" lon="3.05993">
        <ele>905.40002441406</ele>
        <time>2023-05-28T10:57:52.000Z</time>
      </trkpt>
      <trkpt lat="43.69704" lon="3.06001">
        <ele>905.40002441406</ele>
        <time>2023-05-28T10:58:00.000Z</time>
      </trkpt>
      <trkpt lat="43.69703" lon="3.06002">
        <ele>905.40002441406</ele>
        <time>2023-05-28T10:58:01.000Z</time>
      </trkpt>
      <trkpt lat="43.69702" lon="3.06004">
        <ele>905.20001220703</ele>
        <time>2023-05-28T10:58:02.000Z</time>
      </trkpt>
      <trkpt lat="43.697" lon="3.06008">
        <ele>905.20001220703</ele>
        <time>2023-05-28T10:58:06.000Z</time>
      </trkpt>
      <trkpt lat="43.69693" lon="3.06021">
        <ele>904.59997558594</ele>
        <time>2023-05-28T10:58:17.000Z</time>
      </trkpt>
      <trkpt lat="43.69688" lon="3.0603">
        <ele>904.20001220703</ele>
        <time>2023-05-28T10:58:26.000Z</time>
      </trkpt>
      <trkpt lat="43.69683" lon="3.0604">
        <ele>904</ele>
        <time>2023-05-28T10:58:34.000Z</time>
      </trkpt>
      <trkpt lat="43.69683" lon="3.06041">
        <ele>903.79998779297</ele>
        <time>2023-05-28T10:58:36.000Z</time>
      </trkpt>
      <trkpt lat="43.69679" lon="3.06044">
        <ele>903.79998779297</ele>
        <time>2023-05-28T10:58:41.000Z</time>
      </trkpt>
      <trkpt lat="43.69678" lon="3.06046">
        <ele>903.59997558594</ele>
        <time>2023-05-28T10:58:49.000Z</time>
      </trkpt>
      <trkpt lat="43.69673" lon="3.06052">
        <ele>903.79998779297</ele>
        <time>2023-05-28T10:58:58.000Z</time>
      </trkpt>
      <trkpt lat="43.69667" lon="3.06056">
        <ele>903.20001220703</ele>
        <time>2023-05-28T10:59:04.000Z</time>
      </trkpt>
      <trkpt lat="43.69664" lon="3.06058">
        <ele>902.79998779297</ele>
        <time>2023-05-28T10:59:07.000Z</time>
      </trkpt>
      <trkpt lat="43.69654" lon="3.06064">
        <ele>902</ele>
        <time>2023-05-28T10:59:16.000Z</time>
      </trkpt>
      <trkpt lat="43.69642" lon="3.06071">
        <ele>901.59997558594</ele>
        <time>2023-05-28T10:59:26.000Z</time>
      </trkpt>
      <trkpt lat="43.69634" lon="3.06075">
        <ele>901.40002441406</ele>
        <time>2023-05-28T10:59:33.000Z</time>
      </trkpt>
      <trkpt lat="43.69628" lon="3.06077">
        <ele>901</ele>
        <time>2023-05-28T10:59:38.000Z</time>
      </trkpt>
      <trkpt lat="43.69624" lon="3.06079">
        <ele>900.40002441406</ele>
        <time>2023-05-28T10:59:42.000Z</time>
      </trkpt>
      <trkpt lat="43.69621" lon="3.06079">
        <ele>900.40002441406</ele>
        <time>2023-05-28T10:59:44.000Z</time>
      </trkpt>
      <trkpt lat="43.69615" lon="3.06082">
        <ele>899.79998779297</ele>
        <time>2023-05-28T10:59:50.000Z</time>
      </trkpt>
      <trkpt lat="43.69612" lon="3.06084">
        <ele>899.79998779297</ele>
        <time>2023-05-28T10:59:53.000Z</time>
      </trkpt>
      <trkpt lat="43.69608" lon="3.06085">
        <ele>899.59997558594</ele>
        <time>2023-05-28T10:59:57.000Z</time>
      </trkpt>
      <trkpt lat="43.696" lon="3.06088">
        <ele>899.40002441406</ele>
        <time>2023-05-28T11:00:05.000Z</time>
      </trkpt>
      <trkpt lat="43.69597" lon="3.06089">
        <ele>899.20001220703</ele>
        <time>2023-05-28T11:00:07.000Z</time>
      </trkpt>
      <trkpt lat="43.69588" lon="3.06089">
        <ele>899.20001220703</ele>
        <time>2023-05-28T11:00:15.000Z</time>
      </trkpt>
      <trkpt lat="43.69575" lon="3.06088">
        <ele>899</ele>
        <time>2023-05-28T11:00:24.000Z</time>
      </trkpt>
      <trkpt lat="43.69571" lon="3.06087">
        <ele>898.79998779297</ele>
        <time>2023-05-28T11:00:27.000Z</time>
      </trkpt>
      <trkpt lat="43.6956" lon="3.06084">
        <ele>898.59997558594</ele>
        <time>2023-05-28T11:00:35.000Z</time>
      </trkpt>
      <trkpt lat="43.69548" lon="3.06081">
        <ele>898.59997558594</ele>
        <time>2023-05-28T11:00:45.000Z</time>
      </trkpt>
      <trkpt lat="43.69537" lon="3.06075">
        <ele>898</ele>
        <time>2023-05-28T11:00:54.000Z</time>
      </trkpt>
      <trkpt lat="43.69533" lon="3.06073">
        <ele>897.79998779297</ele>
        <time>2023-05-28T11:00:58.000Z</time>
      </trkpt>
      <trkpt lat="43.69531" lon="3.06072">
        <ele>897.59997558594</ele>
        <time>2023-05-28T11:01:01.000Z</time>
      </trkpt>
      <trkpt lat="43.69521" lon="3.06068">
        <ele>897.20001220703</ele>
        <time>2023-05-28T11:01:09.000Z</time>
      </trkpt>
      <trkpt lat="43.69513" lon="3.06065">
        <ele>896.79998779297</ele>
        <time>2023-05-28T11:01:17.000Z</time>
      </trkpt>
      <trkpt lat="43.69512" lon="3.06064">
        <ele>896.79998779297</ele>
        <time>2023-05-28T11:01:18.000Z</time>
      </trkpt>
      <trkpt lat="43.69502" lon="3.06059">
        <ele>896.59997558594</ele>
        <time>2023-05-28T11:01:26.000Z</time>
      </trkpt>
      <trkpt lat="43.69493" lon="3.06054">
        <ele>896.20001220703</ele>
        <time>2023-05-28T11:01:36.000Z</time>
      </trkpt>
      <trkpt lat="43.69489" lon="3.06049">
        <ele>896</ele>
        <time>2023-05-28T11:01:44.000Z</time>
      </trkpt>
      <trkpt lat="43.69486" lon="3.06047">
        <ele>895.79998779297</ele>
        <time>2023-05-28T11:01:47.000Z</time>
      </trkpt>
      <trkpt lat="43.69484" lon="3.06045">
        <ele>895.40002441406</ele>
        <time>2023-05-28T11:01:51.000Z</time>
      </trkpt>
      <trkpt lat="43.69483" lon="3.06049">
        <ele>895.40002441406</ele>
        <time>2023-05-28T11:01:58.000Z</time>
      </trkpt>
      <trkpt lat="43.69479" lon="3.0605">
        <ele>895.79998779297</ele>
        <time>2023-05-28T11:02:06.000Z</time>
      </trkpt>
      <trkpt lat="43.69477" lon="3.06048">
        <ele>896.40002441406</ele>
        <time>2023-05-28T11:02:12.000Z</time>
      </trkpt>
      <trkpt lat="43.69475" lon="3.06048">
        <ele>896.59997558594</ele>
        <time>2023-05-28T11:02:18.000Z</time>
      </trkpt>
      <trkpt lat="43.69471" lon="3.06047">
        <ele>896.79998779297</ele>
        <time>2023-05-28T11:02:24.000Z</time>
      </trkpt>
      <trkpt lat="43.69471" lon="3.06047">
        <ele>896.79998779297</ele>
        <time>2023-05-28T11:02:25.000Z</time>
      </trkpt>
      <trkpt lat="43.69466" lon="3.06044">
        <ele>897.59997558594</ele>
        <time>2023-05-28T11:02:33.000Z</time>
      </trkpt>
      <trkpt lat="43.69464" lon="3.06043">
        <ele>897.79998779297</ele>
        <time>2023-05-28T11:02:35.000Z</time>
      </trkpt>
      <trkpt lat="43.69461" lon="3.06041">
        <ele>898.20001220703</ele>
        <time>2023-05-28T11:02:40.000Z</time>
      </trkpt>
      <trkpt lat="43.69459" lon="3.06041">
        <ele>898.40002441406</ele>
        <time>2023-05-28T11:02:48.000Z</time>
      </trkpt>
      <trkpt lat="43.69453" lon="3.06038">
        <ele>898.40002441406</ele>
        <time>2023-05-28T11:02:58.000Z</time>
      </trkpt>
      <trkpt lat="43.69447" lon="3.06036">
        <ele>898.40002441406</ele>
        <time>2023-05-28T11:03:04.000Z</time>
      </trkpt>
      <trkpt lat="43.69439" lon="3.06034">
        <ele>898.59997558594</ele>
        <time>2023-05-28T11:03:11.000Z</time>
      </trkpt>
      <trkpt lat="43.69436" lon="3.06033">
        <ele>898.79998779297</ele>
        <time>2023-05-28T11:03:15.000Z</time>
      </trkpt>
      <trkpt lat="43.69434" lon="3.06032">
        <ele>898.79998779297</ele>
        <time>2023-05-28T11:03:17.000Z</time>
      </trkpt>
      <trkpt lat="43.6943" lon="3.0603">
        <ele>899</ele>
        <time>2023-05-28T11:03:21.000Z</time>
      </trkpt>
      <trkpt lat="43.69425" lon="3.06027">
        <ele>899.40002441406</ele>
        <time>2023-05-28T11:03:27.000Z</time>
      </trkpt>
      <trkpt lat="43.69419" lon="3.06024">
        <ele>900</ele>
        <time>2023-05-28T11:03:35.000Z</time>
      </trkpt>
      <trkpt lat="43.69418" lon="3.06024">
        <ele>900</ele>
        <time>2023-05-28T11:03:36.000Z</time>
      </trkpt>
      <trkpt lat="43.69415" lon="3.06021">
        <ele>901</ele>
        <time>2023-05-28T11:03:43.000Z</time>
      </trkpt>
      <trkpt lat="43.6941" lon="3.06018">
        <ele>902</ele>
        <time>2023-05-28T11:03:51.000Z</time>
      </trkpt>
      <trkpt lat="43.69409" lon="3.06018">
        <ele>902.20001220703</ele>
        <time>2023-05-28T11:03:53.000Z</time>
      </trkpt>
      <trkpt lat="43.69404" lon="3.06015">
        <ele>902.59997558594</ele>
        <time>2023-05-28T11:04:00.000Z</time>
      </trkpt>
      <trkpt lat="43.69402" lon="3.06013">
        <ele>903.20001220703</ele>
        <time>2023-05-28T11:04:06.000Z</time>
      </trkpt>
      <trkpt lat="43.69401" lon="3.06012">
        <ele>903.20001220703</ele>
        <time>2023-05-28T11:04:08.000Z</time>
      </trkpt>
      <trkpt lat="43.69397" lon="3.06008">
        <ele>904.20001220703</ele>
        <time>2023-05-28T11:04:16.000Z</time>
      </trkpt>
      <trkpt lat="43.69392" lon="3.06005">
        <ele>905.20001220703</ele>
        <time>2023-05-28T11:04:25.000Z</time>
      </trkpt>
      <trkpt lat="43.69392" lon="3.06004">
        <ele>905.20001220703</ele>
        <time>2023-05-28T11:04:26.000Z</time>
      </trkpt>
      <trkpt lat="43.69386" lon="3.06001">
        <ele>906.20001220703</ele>
        <time>2023-05-28T11:04:34.000Z</time>
      </trkpt>
      <trkpt lat="43.69386" lon="3.06001">
        <ele>906.20001220703</ele>
        <time>2023-05-28T11:04:35.000Z</time>
      </trkpt>
      <trkpt lat="43.69382" lon="3.05998">
        <ele>906.79998779297</ele>
        <time>2023-05-28T11:04:42.000Z</time>
      </trkpt>
      <trkpt lat="43.69379" lon="3.05993">
        <ele>907.20001220703</ele>
        <time>2023-05-28T11:04:46.000Z</time>
      </trkpt>
      <trkpt lat="43.69375" lon="3.05986">
        <ele>907.40002441406</ele>
        <time>2023-05-28T11:04:50.000Z</time>
      </trkpt>
      <trkpt lat="43.69372" lon="3.0598">
        <ele>907.59997558594</ele>
        <time>2023-05-28T11:04:54.000Z</time>
      </trkpt>
      <trkpt lat="43.69372" lon="3.05979">
        <ele>907.40002441406</ele>
        <time>2023-05-28T11:04:57.000Z</time>
      </trkpt>
      <trkpt lat="43.69371" lon="3.05975">
        <ele>907.40002441406</ele>
        <time>2023-05-28T11:05:00.000Z</time>
      </trkpt>
      <trkpt lat="43.6937" lon="3.0597">
        <ele>907.59997558594</ele>
        <time>2023-05-28T11:05:04.000Z</time>
      </trkpt>
      <trkpt lat="43.69371" lon="3.0596">
        <ele>907</ele>
        <time>2023-05-28T11:05:10.000Z</time>
      </trkpt>
      <trkpt lat="43.69372" lon="3.05952">
        <ele>907</ele>
        <time>2023-05-28T11:05:16.000Z</time>
      </trkpt>
      <trkpt lat="43.69372" lon="3.0595">
        <ele>907</ele>
        <time>2023-05-28T11:05:17.000Z</time>
      </trkpt>
      <trkpt lat="43.69373" lon="3.05945">
        <ele>907.20001220703</ele>
        <time>2023-05-28T11:05:21.000Z</time>
      </trkpt>
      <trkpt lat="43.69373" lon="3.0594">
        <ele>907.59997558594</ele>
        <time>2023-05-28T11:05:25.000Z</time>
      </trkpt>
      <trkpt lat="43.69375" lon="3.05933">
        <ele>908.40002441406</ele>
        <time>2023-05-28T11:05:31.000Z</time>
      </trkpt>
      <trkpt lat="43.69376" lon="3.05931">
        <ele>908.40002441406</ele>
        <time>2023-05-28T11:05:33.000Z</time>
      </trkpt>
      <trkpt lat="43.69378" lon="3.05924">
        <ele>908.79998779297</ele>
        <time>2023-05-28T11:05:38.000Z</time>
      </trkpt>
      <trkpt lat="43.69379" lon="3.05922">
        <ele>909.20001220703</ele>
        <time>2023-05-28T11:05:40.000Z</time>
      </trkpt>
      <trkpt lat="43.69379" lon="3.0592">
        <ele>909.20001220703</ele>
        <time>2023-05-28T11:05:41.000Z</time>
      </trkpt>
      <trkpt lat="43.69381" lon="3.05917">
        <ele>909.40002441406</ele>
        <time>2023-05-28T11:05:44.000Z</time>
      </trkpt>
      <trkpt lat="43.69383" lon="3.05913">
        <ele>909.59997558594</ele>
        <time>2023-05-28T11:05:48.000Z</time>
      </trkpt>
      <trkpt lat="43.69383" lon="3.05911">
        <ele>909.79998779297</ele>
        <time>2023-05-28T11:05:49.000Z</time>
      </trkpt>
      <trkpt lat="43.69385" lon="3.05908">
        <ele>909.79998779297</ele>
        <time>2023-05-28T11:05:52.000Z</time>
      </trkpt>
      <trkpt lat="43.69386" lon="3.05905">
        <ele>909.79998779297</ele>
        <time>2023-05-28T11:05:54.000Z</time>
      </trkpt>
      <trkpt lat="43.69389" lon="3.05898">
        <ele>910</ele>
        <time>2023-05-28T11:06:01.000Z</time>
      </trkpt>
      <trkpt lat="43.69392" lon="3.05892">
        <ele>910</ele>
        <time>2023-05-28T11:06:06.000Z</time>
      </trkpt>
      <trkpt lat="43.69392" lon="3.0589">
        <ele>910</ele>
        <time>2023-05-28T11:06:07.000Z</time>
      </trkpt>
      <trkpt lat="43.69393" lon="3.05889">
        <ele>910</ele>
        <time>2023-05-28T11:06:09.000Z</time>
      </trkpt>
      <trkpt lat="43.69395" lon="3.05885">
        <ele>910.20001220703</ele>
        <time>2023-05-28T11:06:12.000Z</time>
      </trkpt>
      <trkpt lat="43.69396" lon="3.05885">
        <ele>910.20001220703</ele>
        <time>2023-05-28T11:06:13.000Z</time>
      </trkpt>
      <trkpt lat="43.69399" lon="3.05878">
        <ele>910.40002441406</ele>
        <time>2023-05-28T11:06:18.000Z</time>
      </trkpt>
      <trkpt lat="43.69403" lon="3.05874">
        <ele>910.59997558594</ele>
        <time>2023-05-28T11:06:23.000Z</time>
      </trkpt>
      <trkpt lat="43.69405" lon="3.05868">
        <ele>910.79998779297</ele>
        <time>2023-05-28T11:06:27.000Z</time>
      </trkpt>
      <trkpt lat="43.69407" lon="3.05864">
        <ele>910.79998779297</ele>
        <time>2023-05-28T11:06:31.000Z</time>
      </trkpt>
      <trkpt lat="43.69407" lon="3.05862">
        <ele>911.40002441406</ele>
        <time>2023-05-28T11:06:35.000Z</time>
      </trkpt>
      <trkpt lat="43.69406" lon="3.05861">
        <ele>911.40002441406</ele>
        <time>2023-05-28T11:06:36.000Z</time>
      </trkpt>
      <trkpt lat="43.69408" lon="3.05861">
        <ele>911.59997558594</ele>
        <time>2023-05-28T11:06:38.000Z</time>
      </trkpt>
      <trkpt lat="43.69408" lon="3.05856">
        <ele>912</ele>
        <time>2023-05-28T11:06:43.000Z</time>
      </trkpt>
      <trkpt lat="43.69412" lon="3.05854">
        <ele>911.79998779297</ele>
        <time>2023-05-28T11:06:49.000Z</time>
      </trkpt>
      <trkpt lat="43.69418" lon="3.05849">
        <ele>911</ele>
        <time>2023-05-28T11:06:55.000Z</time>
      </trkpt>
      <trkpt lat="43.69421" lon="3.05847">
        <ele>910.79998779297</ele>
        <time>2023-05-28T11:06:58.000Z</time>
      </trkpt>
      <trkpt lat="43.69424" lon="3.05843">
        <ele>910.59997558594</ele>
        <time>2023-05-28T11:07:01.000Z</time>
      </trkpt>
      <trkpt lat="43.69425" lon="3.05842">
        <ele>910.40002441406</ele>
        <time>2023-05-28T11:07:02.000Z</time>
      </trkpt>
      <trkpt lat="43.69428" lon="3.05839">
        <ele>910.20001220703</ele>
        <time>2023-05-28T11:07:04.000Z</time>
      </trkpt>
      <trkpt lat="43.69431" lon="3.05835">
        <ele>909.59997558594</ele>
        <time>2023-05-28T11:07:08.000Z</time>
      </trkpt>
      <trkpt lat="43.69433" lon="3.05833">
        <ele>909.40002441406</ele>
        <time>2023-05-28T11:07:10.000Z</time>
      </trkpt>
      <trkpt lat="43.69439" lon="3.05827">
        <ele>908.40002441406</ele>
        <time>2023-05-28T11:07:16.000Z</time>
      </trkpt>
      <trkpt lat="43.6944" lon="3.05826">
        <ele>908.40002441406</ele>
        <time>2023-05-28T11:07:17.000Z</time>
      </trkpt>
      <trkpt lat="43.69442" lon="3.05826">
        <ele>908.20001220703</ele>
        <time>2023-05-28T11:07:18.000Z</time>
      </trkpt>
      <trkpt lat="43.69444" lon="3.05821">
        <ele>907.79998779297</ele>
        <time>2023-05-28T11:07:22.000Z</time>
      </trkpt>
      <trkpt lat="43.69448" lon="3.05817">
        <ele>907.20001220703</ele>
        <time>2023-05-28T11:07:26.000Z</time>
      </trkpt>
      <trkpt lat="43.6945" lon="3.05814">
        <ele>906.59997558594</ele>
        <time>2023-05-28T11:07:29.000Z</time>
      </trkpt>
      <trkpt lat="43.69456" lon="3.05811">
        <ele>906.20001220703</ele>
        <time>2023-05-28T11:07:35.000Z</time>
      </trkpt>
      <trkpt lat="43.69458" lon="3.05809">
        <ele>905.79998779297</ele>
        <time>2023-05-28T11:07:37.000Z</time>
      </trkpt>
      <trkpt lat="43.69459" lon="3.05808">
        <ele>905.40002441406</ele>
        <time>2023-05-28T11:07:39.000Z</time>
      </trkpt>
      <trkpt lat="43.69461" lon="3.05808">
        <ele>905.40002441406</ele>
        <time>2023-05-28T11:07:41.000Z</time>
      </trkpt>
      <trkpt lat="43.69463" lon="3.05806">
        <ele>905.20001220703</ele>
        <time>2023-05-28T11:07:43.000Z</time>
      </trkpt>
      <trkpt lat="43.69464" lon="3.05805">
        <ele>905.20001220703</ele>
        <time>2023-05-28T11:07:44.000Z</time>
      </trkpt>
      <trkpt lat="43.69468" lon="3.05801">
        <ele>904</ele>
        <time>2023-05-28T11:07:50.000Z</time>
      </trkpt>
      <trkpt lat="43.69473" lon="3.05795">
        <ele>903.20001220703</ele>
        <time>2023-05-28T11:07:57.000Z</time>
      </trkpt>
      <trkpt lat="43.69475" lon="3.05793">
        <ele>903</ele>
        <time>2023-05-28T11:08:00.000Z</time>
      </trkpt>
      <trkpt lat="43.69476" lon="3.05788">
        <ele>902.59997558594</ele>
        <time>2023-05-28T11:08:03.000Z</time>
      </trkpt>
      <trkpt lat="43.69476" lon="3.05787">
        <ele>902.40002441406</ele>
        <time>2023-05-28T11:08:04.000Z</time>
      </trkpt>
      <trkpt lat="43.69476" lon="3.05781">
        <ele>902</ele>
        <time>2023-05-28T11:08:08.000Z</time>
      </trkpt>
      <trkpt lat="43.69476" lon="3.0578">
        <ele>902</ele>
        <time>2023-05-28T11:08:09.000Z</time>
      </trkpt>
      <trkpt lat="43.69476" lon="3.05777">
        <ele>901.79998779297</ele>
        <time>2023-05-28T11:08:11.000Z</time>
      </trkpt>
      <trkpt lat="43.69478" lon="3.05776">
        <ele>901.59997558594</ele>
        <time>2023-05-28T11:08:14.000Z</time>
      </trkpt>
      <trkpt lat="43.6948" lon="3.05775">
        <ele>901.40002441406</ele>
        <time>2023-05-28T11:08:16.000Z</time>
      </trkpt>
      <trkpt lat="43.69481" lon="3.05774">
        <ele>901.20001220703</ele>
        <time>2023-05-28T11:08:18.000Z</time>
      </trkpt>
      <trkpt lat="43.69484" lon="3.05771">
        <ele>900.79998779297</ele>
        <time>2023-05-28T11:08:22.000Z</time>
      </trkpt>
      <trkpt lat="43.69488" lon="3.05766">
        <ele>900.20001220703</ele>
        <time>2023-05-28T11:08:27.000Z</time>
      </trkpt>
      <trkpt lat="43.69491" lon="3.05763">
        <ele>899.79998779297</ele>
        <time>2023-05-28T11:08:31.000Z</time>
      </trkpt>
      <trkpt lat="43.69492" lon="3.0576">
        <ele>899.40002441406</ele>
        <time>2023-05-28T11:08:34.000Z</time>
      </trkpt>
      <trkpt lat="43.69492" lon="3.0576">
        <ele>899.20001220703</ele>
        <time>2023-05-28T11:08:36.000Z</time>
      </trkpt>
      <trkpt lat="43.69493" lon="3.05761">
        <ele>898.59997558594</ele>
        <time>2023-05-28T11:08:41.000Z</time>
      </trkpt>
      <trkpt lat="43.69492" lon="3.0576">
        <ele>898.79998779297</ele>
        <time>2023-05-28T11:08:45.000Z</time>
      </trkpt>
      <trkpt lat="43.69494" lon="3.05754">
        <ele>898.59997558594</ele>
        <time>2023-05-28T11:09:00.000Z</time>
      </trkpt>
      <trkpt lat="43.69495" lon="3.05753">
        <ele>898.79998779297</ele>
        <time>2023-05-28T11:09:10.000Z</time>
      </trkpt>
      <trkpt lat="43.69497" lon="3.05745">
        <ele>899.20001220703</ele>
        <time>2023-05-28T11:09:18.000Z</time>
      </trkpt>
      <trkpt lat="43.695" lon="3.05738">
        <ele>899</ele>
        <time>2023-05-28T11:09:25.000Z</time>
      </trkpt>
      <trkpt lat="43.69502" lon="3.05733">
        <ele>898.40002441406</ele>
        <time>2023-05-28T11:09:29.000Z</time>
      </trkpt>
      <trkpt lat="43.69504" lon="3.0573">
        <ele>897.59997558594</ele>
        <time>2023-05-28T11:09:32.000Z</time>
      </trkpt>
      <trkpt lat="43.69509" lon="3.05723">
        <ele>896.59997558594</ele>
        <time>2023-05-28T11:09:39.000Z</time>
      </trkpt>
      <trkpt lat="43.6951" lon="3.05722">
        <ele>896.40002441406</ele>
        <time>2023-05-28T11:09:40.000Z</time>
      </trkpt>
      <trkpt lat="43.69513" lon="3.05716">
        <ele>896.40002441406</ele>
        <time>2023-05-28T11:09:47.000Z</time>
      </trkpt>
      <trkpt lat="43.69514" lon="3.05715">
        <ele>896.20001220703</ele>
        <time>2023-05-28T11:09:48.000Z</time>
      </trkpt>
      <trkpt lat="43.69515" lon="3.0571">
        <ele>895.40002441406</ele>
        <time>2023-05-28T11:09:51.000Z</time>
      </trkpt>
      <trkpt lat="43.69516" lon="3.05706">
        <ele>895</ele>
        <time>2023-05-28T11:09:54.000Z</time>
      </trkpt>
      <trkpt lat="43.69517" lon="3.05705">
        <ele>894.79998779297</ele>
        <time>2023-05-28T11:09:55.000Z</time>
      </trkpt>
      <trkpt lat="43.69518" lon="3.057">
        <ele>894.40002441406</ele>
        <time>2023-05-28T11:09:58.000Z</time>
      </trkpt>
      <trkpt lat="43.6952" lon="3.05696">
        <ele>894.20001220703</ele>
        <time>2023-05-28T11:10:01.000Z</time>
      </trkpt>
      <trkpt lat="43.69525" lon="3.05684">
        <ele>893.59997558594</ele>
        <time>2023-05-28T11:10:09.000Z</time>
      </trkpt>
      <trkpt lat="43.69526" lon="3.05682">
        <ele>893.40002441406</ele>
        <time>2023-05-28T11:10:11.000Z</time>
      </trkpt>
      <trkpt lat="43.69527" lon="3.0568">
        <ele>893.20001220703</ele>
        <time>2023-05-28T11:10:13.000Z</time>
      </trkpt>
      <trkpt lat="43.69527" lon="3.05678">
        <ele>893.20001220703</ele>
        <time>2023-05-28T11:10:15.000Z</time>
      </trkpt>
      <trkpt lat="43.69527" lon="3.05675">
        <ele>893.40002441406</ele>
        <time>2023-05-28T11:10:17.000Z</time>
      </trkpt>
      <trkpt lat="43.69528" lon="3.0567">
        <ele>893.20001220703</ele>
        <time>2023-05-28T11:10:21.000Z</time>
      </trkpt>
      <trkpt lat="43.69528" lon="3.05658">
        <ele>892.59997558594</ele>
        <time>2023-05-28T11:10:30.000Z</time>
      </trkpt>
      <trkpt lat="43.69528" lon="3.05656">
        <ele>892.20001220703</ele>
        <time>2023-05-28T11:10:32.000Z</time>
      </trkpt>
      <trkpt lat="43.69528" lon="3.05654">
        <ele>892</ele>
        <time>2023-05-28T11:10:36.000Z</time>
      </trkpt>
      <trkpt lat="43.69528" lon="3.05645">
        <ele>891.79998779297</ele>
        <time>2023-05-28T11:10:44.000Z</time>
      </trkpt>
      <trkpt lat="43.69527" lon="3.05638">
        <ele>891.20001220703</ele>
        <time>2023-05-28T11:10:48.000Z</time>
      </trkpt>
      <trkpt lat="43.69528" lon="3.05636">
        <ele>891</ele>
        <time>2023-05-28T11:10:50.000Z</time>
      </trkpt>
      <trkpt lat="43.69527" lon="3.05632">
        <ele>890.79998779297</ele>
        <time>2023-05-28T11:10:52.000Z</time>
      </trkpt>
      <trkpt lat="43.69526" lon="3.05627">
        <ele>890.59997558594</ele>
        <time>2023-05-28T11:10:55.000Z</time>
      </trkpt>
      <trkpt lat="43.69526" lon="3.05619">
        <ele>890.20001220703</ele>
        <time>2023-05-28T11:10:59.000Z</time>
      </trkpt>
      <trkpt lat="43.69525" lon="3.05607">
        <ele>890</ele>
        <time>2023-05-28T11:11:06.000Z</time>
      </trkpt>
      <trkpt lat="43.69523" lon="3.05592">
        <ele>889.20001220703</ele>
        <time>2023-05-28T11:11:15.000Z</time>
      </trkpt>
      <trkpt lat="43.69523" lon="3.05587">
        <ele>889.20001220703</ele>
        <time>2023-05-28T11:11:18.000Z</time>
      </trkpt>
      <trkpt lat="43.69522" lon="3.05581">
        <ele>889</ele>
        <time>2023-05-28T11:11:22.000Z</time>
      </trkpt>
      <trkpt lat="43.69521" lon="3.05578">
        <ele>888.79998779297</ele>
        <time>2023-05-28T11:11:24.000Z</time>
      </trkpt>
      <trkpt lat="43.69521" lon="3.05574">
        <ele>888.59997558594</ele>
        <time>2023-05-28T11:11:27.000Z</time>
      </trkpt>
      <trkpt lat="43.69521" lon="3.0557">
        <ele>888.59997558594</ele>
        <time>2023-05-28T11:11:29.000Z</time>
      </trkpt>
      <trkpt lat="43.6952" lon="3.05561">
        <ele>888.20001220703</ele>
        <time>2023-05-28T11:11:34.000Z</time>
      </trkpt>
      <trkpt lat="43.69519" lon="3.05552">
        <ele>888</ele>
        <time>2023-05-28T11:11:39.000Z</time>
      </trkpt>
      <trkpt lat="43.69519" lon="3.05549">
        <ele>888</ele>
        <time>2023-05-28T11:11:41.000Z</time>
      </trkpt>
      <trkpt lat="43.69519" lon="3.05544">
        <ele>888</ele>
        <time>2023-05-28T11:11:44.000Z</time>
      </trkpt>
      <trkpt lat="43.69518" lon="3.05539">
        <ele>887.79998779297</ele>
        <time>2023-05-28T11:11:47.000Z</time>
      </trkpt>
      <trkpt lat="43.69518" lon="3.05532">
        <ele>887.59997558594</ele>
        <time>2023-05-28T11:11:52.000Z</time>
      </trkpt>
      <trkpt lat="43.69518" lon="3.05523">
        <ele>887.20001220703</ele>
        <time>2023-05-28T11:11:58.000Z</time>
      </trkpt>
      <trkpt lat="43.69516" lon="3.0551">
        <ele>887.20001220703</ele>
        <time>2023-05-28T11:12:05.000Z</time>
      </trkpt>
      <trkpt lat="43.69516" lon="3.05496">
        <ele>886.79998779297</ele>
        <time>2023-05-28T11:12:13.000Z</time>
      </trkpt>
      <trkpt lat="43.69514" lon="3.0548">
        <ele>887</ele>
        <time>2023-05-28T11:12:22.000Z</time>
      </trkpt>
      <trkpt lat="43.69514" lon="3.05478">
        <ele>887</ele>
        <time>2023-05-28T11:12:23.000Z</time>
      </trkpt>
      <trkpt lat="43.69514" lon="3.0547">
        <ele>887</ele>
        <time>2023-05-28T11:12:28.000Z</time>
      </trkpt>
      <trkpt lat="43.69514" lon="3.05466">
        <ele>887</ele>
        <time>2023-05-28T11:12:30.000Z</time>
      </trkpt>
      <trkpt lat="43.69515" lon="3.05453">
        <ele>887.20001220703</ele>
        <time>2023-05-28T11:12:39.000Z</time>
      </trkpt>
      <trkpt lat="43.69517" lon="3.0544">
        <ele>888.20001220703</ele>
        <time>2023-05-28T11:12:48.000Z</time>
      </trkpt>
      <trkpt lat="43.69518" lon="3.05428">
        <ele>888.59997558594</ele>
        <time>2023-05-28T11:12:56.000Z</time>
      </trkpt>
      <trkpt lat="43.69521" lon="3.05412">
        <ele>889</ele>
        <time>2023-05-28T11:13:07.000Z</time>
      </trkpt>
      <trkpt lat="43.69525" lon="3.054">
        <ele>889.20001220703</ele>
        <time>2023-05-28T11:13:16.000Z</time>
      </trkpt>
      <trkpt lat="43.69528" lon="3.05389">
        <ele>889.40002441406</ele>
        <time>2023-05-28T11:13:25.000Z</time>
      </trkpt>
      <trkpt lat="43.6953" lon="3.05375">
        <ele>889.59997558594</ele>
        <time>2023-05-28T11:13:36.000Z</time>
      </trkpt>
      <trkpt lat="43.69531" lon="3.0536">
        <ele>889.59997558594</ele>
        <time>2023-05-28T11:13:47.000Z</time>
      </trkpt>
      <trkpt lat="43.69532" lon="3.05348">
        <ele>889.79998779297</ele>
        <time>2023-05-28T11:13:56.000Z</time>
      </trkpt>
      <trkpt lat="43.69533" lon="3.05341">
        <ele>890.20001220703</ele>
        <time>2023-05-28T11:14:03.000Z</time>
      </trkpt>
      <trkpt lat="43.69534" lon="3.0534">
        <ele>890.20001220703</ele>
        <time>2023-05-28T11:14:04.000Z</time>
      </trkpt>
      <trkpt lat="43.69536" lon="3.05335">
        <ele>890.20001220703</ele>
        <time>2023-05-28T11:14:10.000Z</time>
      </trkpt>
      <trkpt lat="43.69539" lon="3.05325">
        <ele>889.59997558594</ele>
        <time>2023-05-28T11:14:19.000Z</time>
      </trkpt>
      <trkpt lat="43.6954" lon="3.05324">
        <ele>889.20001220703</ele>
        <time>2023-05-28T11:14:20.000Z</time>
      </trkpt>
      <trkpt lat="43.69543" lon="3.05315">
        <ele>888.59997558594</ele>
        <time>2023-05-28T11:14:27.000Z</time>
      </trkpt>
      <trkpt lat="43.69546" lon="3.05306">
        <ele>888.59997558594</ele>
        <time>2023-05-28T11:14:34.000Z</time>
      </trkpt>
      <trkpt lat="43.69548" lon="3.05299">
        <ele>888</ele>
        <time>2023-05-28T11:14:39.000Z</time>
      </trkpt>
      <trkpt lat="43.69549" lon="3.05293">
        <ele>887.59997558594</ele>
        <time>2023-05-28T11:14:43.000Z</time>
      </trkpt>
      <trkpt lat="43.6955" lon="3.05287">
        <ele>887</ele>
        <time>2023-05-28T11:14:48.000Z</time>
      </trkpt>
      <trkpt lat="43.69551" lon="3.05283">
        <ele>886.40002441406</ele>
        <time>2023-05-28T11:14:51.000Z</time>
      </trkpt>
      <trkpt lat="43.69551" lon="3.05282">
        <ele>886.40002441406</ele>
        <time>2023-05-28T11:14:52.000Z</time>
      </trkpt>
      <trkpt lat="43.69552" lon="3.05277">
        <ele>886</ele>
        <time>2023-05-28T11:14:55.000Z</time>
      </trkpt>
      <trkpt lat="43.69554" lon="3.05271">
        <ele>885.20001220703</ele>
        <time>2023-05-28T11:15:00.000Z</time>
      </trkpt>
      <trkpt lat="43.69555" lon="3.05267">
        <ele>885</ele>
        <time>2023-05-28T11:15:03.000Z</time>
      </trkpt>
      <trkpt lat="43.69556" lon="3.05261">
        <ele>884</ele>
        <time>2023-05-28T11:15:08.000Z</time>
      </trkpt>
      <trkpt lat="43.69557" lon="3.05259">
        <ele>883.79998779297</ele>
        <time>2023-05-28T11:15:09.000Z</time>
      </trkpt>
      <trkpt lat="43.69559" lon="3.0525">
        <ele>870.59997558594</ele>
        <time>2023-05-28T11:15:16.000Z</time>
      </trkpt>
      <trkpt lat="43.69559" lon="3.05249">
        <ele>879.20001220703</ele>
        <time>2023-05-28T11:15:17.000Z</time>
      </trkpt>
      <trkpt lat="43.69562" lon="3.05239">
        <ele>879</ele>
        <time>2023-05-28T11:15:24.000Z</time>
      </trkpt>
      <trkpt lat="43.69565" lon="3.05226">
        <ele>878.20001220703</ele>
        <time>2023-05-28T11:15:33.000Z</time>
      </trkpt>
      <trkpt lat="43.69565" lon="3.05224">
        <ele>878</ele>
        <time>2023-05-28T11:15:34.000Z</time>
      </trkpt>
      <trkpt lat="43.69566" lon="3.0521">
        <ele>877.79998779297</ele>
        <time>2023-05-28T11:15:44.000Z</time>
      </trkpt>
      <trkpt lat="43.69567" lon="3.05201">
        <ele>877</ele>
        <time>2023-05-28T11:15:51.000Z</time>
      </trkpt>
      <trkpt lat="43.69567" lon="3.05195">
        <ele>876.59997558594</ele>
        <time>2023-05-28T11:15:55.000Z</time>
      </trkpt>
      <trkpt lat="43.69567" lon="3.05189">
        <ele>876</ele>
        <time>2023-05-28T11:16:00.000Z</time>
      </trkpt>
      <trkpt lat="43.69568" lon="3.0518">
        <ele>875</ele>
        <time>2023-05-28T11:16:06.000Z</time>
      </trkpt>
      <trkpt lat="43.69569" lon="3.05167">
        <ele>875.40002441406</ele>
        <time>2023-05-28T11:16:15.000Z</time>
      </trkpt>
      <trkpt lat="43.6957" lon="3.05165">
        <ele>875.40002441406</ele>
        <time>2023-05-28T11:16:17.000Z</time>
      </trkpt>
      <trkpt lat="43.69572" lon="3.05156">
        <ele>874.79998779297</ele>
        <time>2023-05-28T11:16:23.000Z</time>
      </trkpt>
      <trkpt lat="43.69573" lon="3.0515">
        <ele>874.40002441406</ele>
        <time>2023-05-28T11:16:27.000Z</time>
      </trkpt>
      <trkpt lat="43.69577" lon="3.05142">
        <ele>873.59997558594</ele>
        <time>2023-05-28T11:16:34.000Z</time>
      </trkpt>
      <trkpt lat="43.69577" lon="3.0514">
        <ele>873.40002441406</ele>
        <time>2023-05-28T11:16:36.000Z</time>
      </trkpt>
      <trkpt lat="43.6958" lon="3.05134">
        <ele>872.59997558594</ele>
        <time>2023-05-28T11:16:42.000Z</time>
      </trkpt>
      <trkpt lat="43.69581" lon="3.05131">
        <ele>871.79998779297</ele>
        <time>2023-05-28T11:16:45.000Z</time>
      </trkpt>
      <trkpt lat="43.69582" lon="3.05129">
        <ele>871.40002441406</ele>
        <time>2023-05-28T11:16:47.000Z</time>
      </trkpt>
      <trkpt lat="43.69584" lon="3.05124">
        <ele>870.40002441406</ele>
        <time>2023-05-28T11:16:54.000Z</time>
      </trkpt>
      <trkpt lat="43.69585" lon="3.05123">
        <ele>870.20001220703</ele>
        <time>2023-05-28T11:16:55.000Z</time>
      </trkpt>
      <trkpt lat="43.69589" lon="3.05115">
        <ele>869.20001220703</ele>
        <time>2023-05-28T11:17:02.000Z</time>
      </trkpt>
      <trkpt lat="43.6959" lon="3.05114">
        <ele>869.20001220703</ele>
        <time>2023-05-28T11:17:03.000Z</time>
      </trkpt>
      <trkpt lat="43.69596" lon="3.05104">
        <ele>868</ele>
        <time>2023-05-28T11:17:12.000Z</time>
      </trkpt>
      <trkpt lat="43.696" lon="3.05098">
        <ele>866.79998779297</ele>
        <time>2023-05-28T11:17:18.000Z</time>
      </trkpt>
      <trkpt lat="43.69601" lon="3.05096">
        <ele>866.59997558594</ele>
        <time>2023-05-28T11:17:20.000Z</time>
      </trkpt>
      <trkpt lat="43.69604" lon="3.05091">
        <ele>865.79998779297</ele>
        <time>2023-05-28T11:17:25.000Z</time>
      </trkpt>
      <trkpt lat="43.69606" lon="3.05089">
        <ele>865.40002441406</ele>
        <time>2023-05-28T11:17:28.000Z</time>
      </trkpt>
      <trkpt lat="43.69608" lon="3.05085">
        <ele>864.59997558594</ele>
        <time>2023-05-28T11:17:32.000Z</time>
      </trkpt>
      <trkpt lat="43.6961" lon="3.05083">
        <ele>864</ele>
        <time>2023-05-28T11:17:35.000Z</time>
      </trkpt>
      <trkpt lat="43.69613" lon="3.05077">
        <ele>863.40002441406</ele>
        <time>2023-05-28T11:17:40.000Z</time>
      </trkpt>
      <trkpt lat="43.69617" lon="3.05072">
        <ele>862.59997558594</ele>
        <time>2023-05-28T11:17:45.000Z</time>
      </trkpt>
      <trkpt lat="43.69617" lon="3.05071">
        <ele>862.20001220703</ele>
        <time>2023-05-28T11:17:46.000Z</time>
      </trkpt>
      <trkpt lat="43.6962" lon="3.05067">
        <ele>861.59997558594</ele>
        <time>2023-05-28T11:17:50.000Z</time>
      </trkpt>
      <trkpt lat="43.69622" lon="3.05064">
        <ele>861.20001220703</ele>
        <time>2023-05-28T11:17:53.000Z</time>
      </trkpt>
      <trkpt lat="43.69627" lon="3.05056">
        <ele>860.40002441406</ele>
        <time>2023-05-28T11:18:00.000Z</time>
      </trkpt>
      <trkpt lat="43.69629" lon="3.05052">
        <ele>860.20001220703</ele>
        <time>2023-05-28T11:18:03.000Z</time>
      </trkpt>
      <trkpt lat="43.69632" lon="3.05046">
        <ele>859.59997558594</ele>
        <time>2023-05-28T11:18:08.000Z</time>
      </trkpt>
      <trkpt lat="43.69634" lon="3.05042">
        <ele>859</ele>
        <time>2023-05-28T11:18:12.000Z</time>
      </trkpt>
      <trkpt lat="43.69637" lon="3.05036">
        <ele>858.59997558594</ele>
        <time>2023-05-28T11:18:17.000Z</time>
      </trkpt>
      <trkpt lat="43.69639" lon="3.05028">
        <ele>858</ele>
        <time>2023-05-28T11:18:23.000Z</time>
      </trkpt>
      <trkpt lat="43.69639" lon="3.05025">
        <ele>857.79998779297</ele>
        <time>2023-05-28T11:18:25.000Z</time>
      </trkpt>
      <trkpt lat="43.69639" lon="3.05024">
        <ele>866.59997558594</ele>
        <time>2023-05-28T11:18:26.000Z</time>
      </trkpt>
      <trkpt lat="43.6964" lon="3.05023">
        <ele>868</ele>
        <time>2023-05-28T11:18:27.000Z</time>
      </trkpt>
      <trkpt lat="43.6964" lon="3.05017">
        <ele>858.20001220703</ele>
        <time>2023-05-28T11:18:31.000Z</time>
      </trkpt>
      <trkpt lat="43.6964" lon="3.05015">
        <ele>856.20001220703</ele>
        <time>2023-05-28T11:18:32.000Z</time>
      </trkpt>
      <trkpt lat="43.69639" lon="3.05003">
        <ele>855.40002441406</ele>
        <time>2023-05-28T11:18:40.000Z</time>
      </trkpt>
      <trkpt lat="43.69638" lon="3.05">
        <ele>855.20001220703</ele>
        <time>2023-05-28T11:18:42.000Z</time>
      </trkpt>
      <trkpt lat="43.69638" lon="3.04991">
        <ele>854.59997558594</ele>
        <time>2023-05-28T11:18:48.000Z</time>
      </trkpt>
      <trkpt lat="43.69638" lon="3.04988">
        <ele>854.40002441406</ele>
        <time>2023-05-28T11:18:50.000Z</time>
      </trkpt>
      <trkpt lat="43.69639" lon="3.04985">
        <ele>854.20001220703</ele>
        <time>2023-05-28T11:18:52.000Z</time>
      </trkpt>
      <trkpt lat="43.69639" lon="3.04982">
        <ele>854</ele>
        <time>2023-05-28T11:18:54.000Z</time>
      </trkpt>
      <trkpt lat="43.69638" lon="3.04971">
        <ele>853.40002441406</ele>
        <time>2023-05-28T11:19:01.000Z</time>
      </trkpt>
      <trkpt lat="43.69637" lon="3.04968">
        <ele>853</ele>
        <time>2023-05-28T11:19:03.000Z</time>
      </trkpt>
      <trkpt lat="43.69635" lon="3.04955">
        <ele>852</ele>
        <time>2023-05-28T11:19:11.000Z</time>
      </trkpt>
      <trkpt lat="43.69635" lon="3.04953">
        <ele>852</ele>
        <time>2023-05-28T11:19:12.000Z</time>
      </trkpt>
      <trkpt lat="43.69632" lon="3.04943">
        <ele>851.20001220703</ele>
        <time>2023-05-28T11:19:18.000Z</time>
      </trkpt>
      <trkpt lat="43.69632" lon="3.04939">
        <ele>850.79998779297</ele>
        <time>2023-05-28T11:19:21.000Z</time>
      </trkpt>
      <trkpt lat="43.69632" lon="3.0493">
        <ele>850.40002441406</ele>
        <time>2023-05-28T11:19:26.000Z</time>
      </trkpt>
      <trkpt lat="43.69633" lon="3.04918">
        <ele>850.20001220703</ele>
        <time>2023-05-28T11:19:33.000Z</time>
      </trkpt>
      <trkpt lat="43.69635" lon="3.04915">
        <ele>849.79998779297</ele>
        <time>2023-05-28T11:19:35.000Z</time>
      </trkpt>
      <trkpt lat="43.6964" lon="3.04905">
        <ele>849.79998779297</ele>
        <time>2023-05-28T11:19:42.000Z</time>
      </trkpt>
      <trkpt lat="43.69648" lon="3.04899">
        <ele>848.79998779297</ele>
        <time>2023-05-28T11:19:50.000Z</time>
      </trkpt>
      <trkpt lat="43.69649" lon="3.04898">
        <ele>848.79998779297</ele>
        <time>2023-05-28T11:19:51.000Z</time>
      </trkpt>
      <trkpt lat="43.69656" lon="3.04891">
        <ele>848</ele>
        <time>2023-05-28T11:19:59.000Z</time>
      </trkpt>
      <trkpt lat="43.6966" lon="3.04886">
        <ele>847.79998779297</ele>
        <time>2023-05-28T11:20:03.000Z</time>
      </trkpt>
      <trkpt lat="43.69663" lon="3.04878">
        <ele>847.20001220703</ele>
        <time>2023-05-28T11:20:09.000Z</time>
      </trkpt>
      <trkpt lat="43.69666" lon="3.04872">
        <ele>846.59997558594</ele>
        <time>2023-05-28T11:20:14.000Z</time>
      </trkpt>
      <trkpt lat="43.69668" lon="3.04868">
        <ele>846.40002441406</ele>
        <time>2023-05-28T11:20:17.000Z</time>
      </trkpt>
      <trkpt lat="43.6967" lon="3.04859">
        <ele>846</ele>
        <time>2023-05-28T11:20:24.000Z</time>
      </trkpt>
      <trkpt lat="43.69672" lon="3.04853">
        <ele>845.59997558594</ele>
        <time>2023-05-28T11:20:28.000Z</time>
      </trkpt>
      <trkpt lat="43.69674" lon="3.04843">
        <ele>845</ele>
        <time>2023-05-28T11:20:34.000Z</time>
      </trkpt>
      <trkpt lat="43.69675" lon="3.04838">
        <ele>844.59997558594</ele>
        <time>2023-05-28T11:20:37.000Z</time>
      </trkpt>
      <trkpt lat="43.69678" lon="3.04829">
        <ele>844.20001220703</ele>
        <time>2023-05-28T11:20:43.000Z</time>
      </trkpt>
      <trkpt lat="43.6968" lon="3.04818">
        <ele>843.40002441406</ele>
        <time>2023-05-28T11:20:51.000Z</time>
      </trkpt>
      <trkpt lat="43.69685" lon="3.04806">
        <ele>842.79998779297</ele>
        <time>2023-05-28T11:21:00.000Z</time>
      </trkpt>
      <trkpt lat="43.69687" lon="3.04799">
        <ele>842.40002441406</ele>
        <time>2023-05-28T11:21:05.000Z</time>
      </trkpt>
      <trkpt lat="43.69689" lon="3.04794">
        <ele>842.20001220703</ele>
        <time>2023-05-28T11:21:09.000Z</time>
      </trkpt>
      <trkpt lat="43.69694" lon="3.04779">
        <ele>841.40002441406</ele>
        <time>2023-05-28T11:21:19.000Z</time>
      </trkpt>
      <trkpt lat="43.69694" lon="3.04778">
        <ele>841.40002441406</ele>
        <time>2023-05-28T11:21:20.000Z</time>
      </trkpt>
      <trkpt lat="43.69697" lon="3.04766">
        <ele>841</ele>
        <time>2023-05-28T11:21:27.000Z</time>
      </trkpt>
      <trkpt lat="43.697" lon="3.04757">
        <ele>840.40002441406</ele>
        <time>2023-05-28T11:21:33.000Z</time>
      </trkpt>
      <trkpt lat="43.697" lon="3.04752">
        <ele>840.20001220703</ele>
        <time>2023-05-28T11:21:37.000Z</time>
      </trkpt>
      <trkpt lat="43.69704" lon="3.0474">
        <ele>840</ele>
        <time>2023-05-28T11:21:45.000Z</time>
      </trkpt>
      <trkpt lat="43.69707" lon="3.04724">
        <ele>839.79998779297</ele>
        <time>2023-05-28T11:21:55.000Z</time>
      </trkpt>
      <trkpt lat="43.6971" lon="3.0471">
        <ele>839.59997558594</ele>
        <time>2023-05-28T11:22:04.000Z</time>
      </trkpt>
      <trkpt lat="43.69711" lon="3.04704">
        <ele>839.40002441406</ele>
        <time>2023-05-28T11:22:08.000Z</time>
      </trkpt>
      <trkpt lat="43.69712" lon="3.04696">
        <ele>839.40002441406</ele>
        <time>2023-05-28T11:22:13.000Z</time>
      </trkpt>
      <trkpt lat="43.69712" lon="3.04683">
        <ele>839.20001220703</ele>
        <time>2023-05-28T11:22:21.000Z</time>
      </trkpt>
      <trkpt lat="43.69712" lon="3.04668">
        <ele>839</ele>
        <time>2023-05-28T11:22:31.000Z</time>
      </trkpt>
      <trkpt lat="43.69713" lon="3.04654">
        <ele>838.79998779297</ele>
        <time>2023-05-28T11:22:40.000Z</time>
      </trkpt>
      <trkpt lat="43.69713" lon="3.04643">
        <ele>838.59997558594</ele>
        <time>2023-05-28T11:22:47.000Z</time>
      </trkpt>
      <trkpt lat="43.69714" lon="3.04636">
        <ele>838.40002441406</ele>
        <time>2023-05-28T11:22:53.000Z</time>
      </trkpt>
      <trkpt lat="43.69716" lon="3.04624">
        <ele>838.40002441406</ele>
        <time>2023-05-28T11:23:03.000Z</time>
      </trkpt>
      <trkpt lat="43.69716" lon="3.04619">
        <ele>838.40002441406</ele>
        <time>2023-05-28T11:23:06.000Z</time>
      </trkpt>
      <trkpt lat="43.69718" lon="3.04609">
        <ele>838.20001220703</ele>
        <time>2023-05-28T11:23:13.000Z</time>
      </trkpt>
      <trkpt lat="43.69718" lon="3.04601">
        <ele>838</ele>
        <time>2023-05-28T11:23:18.000Z</time>
      </trkpt>
      <trkpt lat="43.69718" lon="3.046">
        <ele>838</ele>
        <time>2023-05-28T11:23:19.000Z</time>
      </trkpt>
      <trkpt lat="43.69719" lon="3.04592">
        <ele>837.79998779297</ele>
        <time>2023-05-28T11:23:26.000Z</time>
      </trkpt>
      <trkpt lat="43.6972" lon="3.04581">
        <ele>837.59997558594</ele>
        <time>2023-05-28T11:23:33.000Z</time>
      </trkpt>
      <trkpt lat="43.6972" lon="3.04579">
        <ele>837.59997558594</ele>
        <time>2023-05-28T11:23:34.000Z</time>
      </trkpt>
      <trkpt lat="43.69721" lon="3.04568">
        <ele>837.40002441406</ele>
        <time>2023-05-28T11:23:42.000Z</time>
      </trkpt>
      <trkpt lat="43.69721" lon="3.04567">
        <ele>837.20001220703</ele>
        <time>2023-05-28T11:23:43.000Z</time>
      </trkpt>
      <trkpt lat="43.69722" lon="3.04563">
        <ele>837</ele>
        <time>2023-05-28T11:23:50.000Z</time>
      </trkpt>
      <trkpt lat="43.69721" lon="3.04555">
        <ele>836.79998779297</ele>
        <time>2023-05-28T11:23:56.000Z</time>
      </trkpt>
      <trkpt lat="43.69718" lon="3.04543">
        <ele>836.40002441406</ele>
        <time>2023-05-28T11:24:03.000Z</time>
      </trkpt>
      <trkpt lat="43.69718" lon="3.04541">
        <ele>836.20001220703</ele>
        <time>2023-05-28T11:24:04.000Z</time>
      </trkpt>
      <trkpt lat="43.69716" lon="3.04526">
        <ele>835.79998779297</ele>
        <time>2023-05-28T11:24:13.000Z</time>
      </trkpt>
      <trkpt lat="43.69713" lon="3.04513">
        <ele>835.79998779297</ele>
        <time>2023-05-28T11:24:21.000Z</time>
      </trkpt>
      <trkpt lat="43.69712" lon="3.04508">
        <ele>835.79998779297</ele>
        <time>2023-05-28T11:24:24.000Z</time>
      </trkpt>
      <trkpt lat="43.69711" lon="3.04502">
        <ele>835.79998779297</ele>
        <time>2023-05-28T11:24:28.000Z</time>
      </trkpt>
      <trkpt lat="43.69709" lon="3.04499">
        <ele>835.59997558594</ele>
        <time>2023-05-28T11:24:30.000Z</time>
      </trkpt>
      <trkpt lat="43.69707" lon="3.04492">
        <ele>835.79998779297</ele>
        <time>2023-05-28T11:24:36.000Z</time>
      </trkpt>
      <trkpt lat="43.69704" lon="3.04482">
        <ele>835.59997558594</ele>
        <time>2023-05-28T11:24:43.000Z</time>
      </trkpt>
      <trkpt lat="43.69703" lon="3.04478">
        <ele>835.59997558594</ele>
        <time>2023-05-28T11:24:46.000Z</time>
      </trkpt>
      <trkpt lat="43.69701" lon="3.04472">
        <ele>835.59997558594</ele>
        <time>2023-05-28T11:24:50.000Z</time>
      </trkpt>
      <trkpt lat="43.69698" lon="3.04463">
        <ele>835.59997558594</ele>
        <time>2023-05-28T11:24:57.000Z</time>
      </trkpt>
      <trkpt lat="43.69694" lon="3.04455">
        <ele>835.40002441406</ele>
        <time>2023-05-28T11:25:03.000Z</time>
      </trkpt>
      <trkpt lat="43.69689" lon="3.04446">
        <ele>835.59997558594</ele>
        <time>2023-05-28T11:25:11.000Z</time>
      </trkpt>
      <trkpt lat="43.69686" lon="3.0444">
        <ele>835.20001220703</ele>
        <time>2023-05-28T11:25:16.000Z</time>
      </trkpt>
      <trkpt lat="43.69685" lon="3.04437">
        <ele>835.40002441406</ele>
        <time>2023-05-28T11:25:18.000Z</time>
      </trkpt>
      <trkpt lat="43.6968" lon="3.04426">
        <ele>835.40002441406</ele>
        <time>2023-05-28T11:25:26.000Z</time>
      </trkpt>
      <trkpt lat="43.69675" lon="3.04418">
        <ele>835.20001220703</ele>
        <time>2023-05-28T11:25:33.000Z</time>
      </trkpt>
      <trkpt lat="43.69671" lon="3.04411">
        <ele>835.20001220703</ele>
        <time>2023-05-28T11:25:40.000Z</time>
      </trkpt>
      <trkpt lat="43.69671" lon="3.0441">
        <ele>835.20001220703</ele>
        <time>2023-05-28T11:25:41.000Z</time>
      </trkpt>
      <trkpt lat="43.69666" lon="3.04403">
        <ele>835.40002441406</ele>
        <time>2023-05-28T11:25:47.000Z</time>
      </trkpt>
      <trkpt lat="43.69661" lon="3.04398">
        <ele>835.20001220703</ele>
        <time>2023-05-28T11:25:54.000Z</time>
      </trkpt>
      <trkpt lat="43.69656" lon="3.04393">
        <ele>835.20001220703</ele>
        <time>2023-05-28T11:26:01.000Z</time>
      </trkpt>
      <trkpt lat="43.69649" lon="3.0439">
        <ele>835</ele>
        <time>2023-05-28T11:26:07.000Z</time>
      </trkpt>
      <trkpt lat="43.69639" lon="3.04385">
        <ele>834.79998779297</ele>
        <time>2023-05-28T11:26:16.000Z</time>
      </trkpt>
      <trkpt lat="43.69631" lon="3.04382">
        <ele>834.59997558594</ele>
        <time>2023-05-28T11:26:24.000Z</time>
      </trkpt>
      <trkpt lat="43.69623" lon="3.0438">
        <ele>834.40002441406</ele>
        <time>2023-05-28T11:26:31.000Z</time>
      </trkpt>
      <trkpt lat="43.69612" lon="3.04379">
        <ele>834.40002441406</ele>
        <time>2023-05-28T11:26:41.000Z</time>
      </trkpt>
      <trkpt lat="43.6961" lon="3.04378">
        <ele>834.20001220703</ele>
        <time>2023-05-28T11:26:44.000Z</time>
      </trkpt>
      <trkpt lat="43.69606" lon="3.04377">
        <ele>833.79998779297</ele>
        <time>2023-05-28T11:26:47.000Z</time>
      </trkpt>
      <trkpt lat="43.69596" lon="3.04376">
        <ele>833.20001220703</ele>
        <time>2023-05-28T11:26:57.000Z</time>
      </trkpt>
      <trkpt lat="43.69586" lon="3.04375">
        <ele>832.59997558594</ele>
        <time>2023-05-28T11:27:06.000Z</time>
      </trkpt>
      <trkpt lat="43.69578" lon="3.04376">
        <ele>832.20001220703</ele>
        <time>2023-05-28T11:27:13.000Z</time>
      </trkpt>
      <trkpt lat="43.69572" lon="3.04377">
        <ele>831.59997558594</ele>
        <time>2023-05-28T11:27:18.000Z</time>
      </trkpt>
      <trkpt lat="43.69564" lon="3.04376">
        <ele>831</ele>
        <time>2023-05-28T11:27:26.000Z</time>
      </trkpt>
      <trkpt lat="43.69563" lon="3.04376">
        <ele>831</ele>
        <time>2023-05-28T11:27:27.000Z</time>
      </trkpt>
      <trkpt lat="43.69552" lon="3.04378">
        <ele>830.79998779297</ele>
        <time>2023-05-28T11:27:36.000Z</time>
      </trkpt>
      <trkpt lat="43.69542" lon="3.04379">
        <ele>830.20001220703</ele>
        <time>2023-05-28T11:27:44.000Z</time>
      </trkpt>
      <trkpt lat="43.69539" lon="3.04379">
        <ele>830</ele>
        <time>2023-05-28T11:27:47.000Z</time>
      </trkpt>
      <trkpt lat="43.69531" lon="3.04379">
        <ele>829.59997558594</ele>
        <time>2023-05-28T11:27:54.000Z</time>
      </trkpt>
      <trkpt lat="43.6953" lon="3.0438">
        <ele>829.40002441406</ele>
        <time>2023-05-28T11:27:56.000Z</time>
      </trkpt>
      <trkpt lat="43.69529" lon="3.0438">
        <ele>829.40002441406</ele>
        <time>2023-05-28T11:28:00.000Z</time>
      </trkpt>
      <trkpt lat="43.69529" lon="3.04381">
        <ele>829</ele>
        <time>2023-05-28T11:28:08.000Z</time>
      </trkpt>
      <trkpt lat="43.69529" lon="3.04381">
        <ele>829</ele>
        <time>2023-05-28T11:28:09.000Z</time>
      </trkpt>
      <trkpt lat="43.69528" lon="3.04382">
        <ele>829.20001220703</ele>
        <time>2023-05-28T11:28:17.000Z</time>
      </trkpt>
      <trkpt lat="43.69528" lon="3.04383">
        <ele>828.79998779297</ele>
        <time>2023-05-28T11:28:23.000Z</time>
      </trkpt>
      <trkpt lat="43.69527" lon="3.04383">
        <ele>828.40002441406</ele>
        <time>2023-05-28T11:28:29.000Z</time>
      </trkpt>
      <trkpt lat="43.69527" lon="3.04383">
        <ele>828.79998779297</ele>
        <time>2023-05-28T11:28:36.000Z</time>
      </trkpt>
      <trkpt lat="43.69527" lon="3.04383">
        <ele>828.40002441406</ele>
        <time>2023-05-28T11:28:45.000Z</time>
      </trkpt>
      <trkpt lat="43.69526" lon="3.04386">
        <ele>829.79998779297</ele>
        <time>2023-05-28T11:28:53.000Z</time>
      </trkpt>
      <trkpt lat="43.69522" lon="3.04391">
        <ele>828.79998779297</ele>
        <time>2023-05-28T11:28:59.000Z</time>
      </trkpt>
      <trkpt lat="43.69515" lon="3.04398">
        <ele>828.40002441406</ele>
        <time>2023-05-28T11:29:08.000Z</time>
      </trkpt>
      <trkpt lat="43.69512" lon="3.04402">
        <ele>828</ele>
        <time>2023-05-28T11:29:11.000Z</time>
      </trkpt>
      <trkpt lat="43.69511" lon="3.04404">
        <ele>827.59997558594</ele>
        <time>2023-05-28T11:29:14.000Z</time>
      </trkpt>
      <trkpt lat="43.6951" lon="3.04402">
        <ele>827.59997558594</ele>
        <time>2023-05-28T11:29:17.000Z</time>
      </trkpt>
      <trkpt lat="43.69509" lon="3.04397">
        <ele>827.79998779297</ele>
        <time>2023-05-28T11:29:20.000Z</time>
      </trkpt>
      <trkpt lat="43.69509" lon="3.04392">
        <ele>827.59997558594</ele>
        <time>2023-05-28T11:29:24.000Z</time>
      </trkpt>
      <trkpt lat="43.69511" lon="3.04388">
        <ele>827.79998779297</ele>
        <time>2023-05-28T11:29:27.000Z</time>
      </trkpt>
      <trkpt lat="43.69511" lon="3.04388">
        <ele>827.59997558594</ele>
        <time>2023-05-28T11:29:32.000Z</time>
      </trkpt>
      <trkpt lat="43.69511" lon="3.0439">
        <ele>827.59997558594</ele>
        <time>2023-05-28T11:29:33.000Z</time>
      </trkpt>
      <trkpt lat="43.69513" lon="3.04394">
        <ele>827.40002441406</ele>
        <time>2023-05-28T11:29:37.000Z</time>
      </trkpt>
      <trkpt lat="43.69513" lon="3.04396">
        <ele>827.40002441406</ele>
        <time>2023-05-28T11:29:38.000Z</time>
      </trkpt>
      <trkpt lat="43.69515" lon="3.04396">
        <ele>827.40002441406</ele>
        <time>2023-05-28T11:29:40.000Z</time>
      </trkpt>
      <trkpt lat="43.69518" lon="3.04393">
        <ele>827.79998779297</ele>
        <time>2023-05-28T11:29:44.000Z</time>
      </trkpt>
      <trkpt lat="43.69521" lon="3.04392">
        <ele>828</ele>
        <time>2023-05-28T11:29:47.000Z</time>
      </trkpt>
      <trkpt lat="43.69523" lon="3.0439">
        <ele>828.40002441406</ele>
        <time>2023-05-28T11:29:50.000Z</time>
      </trkpt>
      <trkpt lat="43.69526" lon="3.04388">
        <ele>828.59997558594</ele>
        <time>2023-05-28T11:29:55.000Z</time>
      </trkpt>
      <trkpt lat="43.69527" lon="3.04388">
        <ele>828.79998779297</ele>
        <time>2023-05-28T11:29:58.000Z</time>
      </trkpt>
      <trkpt lat="43.69526" lon="3.04387">
        <ele>829</ele>
        <time>2023-05-28T11:30:00.000Z</time>
      </trkpt>
      <trkpt lat="43.69526" lon="3.04386">
        <ele>829</ele>
        <time>2023-05-28T11:30:06.000Z</time>
      </trkpt>
      <trkpt lat="43.69526" lon="3.04386">
        <ele>828.20001220703</ele>
        <time>2023-05-28T11:30:13.000Z</time>
      </trkpt>
      <trkpt lat="43.69527" lon="3.04386">
        <ele>828.40002441406</ele>
        <time>2023-05-28T11:30:28.000Z</time>
      </trkpt>
      <trkpt lat="43.69527" lon="3.04385">
        <ele>828.40002441406</ele>
        <time>2023-05-28T11:30:41.000Z</time>
      </trkpt>
      <trkpt lat="43.69528" lon="3.04385">
        <ele>828</ele>
        <time>2023-05-28T11:30:50.000Z</time>
      </trkpt>
      <trkpt lat="43.69528" lon="3.04385">
        <ele>828</ele>
        <time>2023-05-28T11:30:56.000Z</time>
      </trkpt>
      <trkpt lat="43.69528" lon="3.04385">
        <ele>827</ele>
        <time>2023-05-28T11:30:58.000Z</time>
      </trkpt>
      <trkpt lat="43.69528" lon="3.04385">
        <ele>825.20001220703</ele>
        <time>2023-05-28T11:30:59.000Z</time>
      </trkpt>
      <trkpt lat="43.69528" lon="3.04385">
        <ele>823.59997558594</ele>
        <time>2023-05-28T11:31:00.000Z</time>
      </trkpt>
      <trkpt lat="43.69528" lon="3.04385">
        <ele>823.40002441406</ele>
        <time>2023-05-28T11:31:07.000Z</time>
      </trkpt>
      <trkpt lat="43.69528" lon="3.04385">
        <ele>823</ele>
        <time>2023-05-28T11:31:15.000Z</time>
      </trkpt>
      <trkpt lat="43.69528" lon="3.04384">
        <ele>823.20001220703</ele>
        <time>2023-05-28T11:31:23.000Z</time>
      </trkpt>
      <trkpt lat="43.69528" lon="3.04383">
        <ele>823</ele>
        <time>2023-05-28T11:31:35.000Z</time>
      </trkpt>
      <trkpt lat="43.69528" lon="3.04383">
        <ele>822.59997558594</ele>
        <time>2023-05-28T11:31:40.000Z</time>
      </trkpt>
      <trkpt lat="43.69528" lon="3.04382">
        <ele>822.79998779297</ele>
        <time>2023-05-28T11:31:44.000Z</time>
      </trkpt>
      <trkpt lat="43.69529" lon="3.04382">
        <ele>823.59997558594</ele>
        <time>2023-05-28T11:31:50.000Z</time>
      </trkpt>
      <trkpt lat="43.69529" lon="3.04382">
        <ele>824.79998779297</ele>
        <time>2023-05-28T11:31:57.000Z</time>
      </trkpt>
      <trkpt lat="43.69529" lon="3.04382">
        <ele>825.79998779297</ele>
        <time>2023-05-28T11:32:04.000Z</time>
      </trkpt>
      <trkpt lat="43.69529" lon="3.04382">
        <ele>826.59997558594</ele>
        <time>2023-05-28T11:32:10.000Z</time>
      </trkpt>
      <trkpt lat="43.69529" lon="3.04382">
        <ele>827</ele>
        <time>2023-05-28T11:32:12.000Z</time>
      </trkpt>
      <trkpt lat="43.69529" lon="3.04382">
        <ele>828</ele>
        <time>2023-05-28T11:32:22.000Z</time>
      </trkpt>
      <trkpt lat="43.69529" lon="3.04382">
        <ele>828</ele>
        <time>2023-05-28T11:32:27.000Z</time>
      </trkpt>
      <trkpt lat="43.69529" lon="3.04382">
        <ele>828</ele>
        <time>2023-05-28T11:32:43.000Z</time>
      </trkpt>
      <trkpt lat="43.69529" lon="3.04382">
        <ele>828.20001220703</ele>
        <time>2023-05-28T11:32:55.000Z</time>
      </trkpt>
      <trkpt lat="43.69529" lon="3.04382">
        <ele>828.20001220703</ele>
        <time>2023-05-28T11:33:09.000Z</time>
      </trkpt>
      <trkpt lat="43.69529" lon="3.04383">
        <ele>828.40002441406</ele>
        <time>2023-05-28T11:33:26.000Z</time>
      </trkpt>
      <trkpt lat="43.69529" lon="3.04384">
        <ele>828.59997558594</ele>
        <time>2023-05-28T11:33:39.000Z</time>
      </trkpt>
      <trkpt lat="43.69528" lon="3.04385">
        <ele>828.59997558594</ele>
        <time>2023-05-28T11:33:52.000Z</time>
      </trkpt>
      <trkpt lat="43.69528" lon="3.04385">
        <ele>828.40002441406</ele>
        <time>2023-05-28T11:34:04.000Z</time>
      </trkpt>
      <trkpt lat="43.69528" lon="3.04386">
        <ele>828.79998779297</ele>
        <time>2023-05-28T11:34:14.000Z</time>
      </trkpt>
      <trkpt lat="43.69527" lon="3.04385">
        <ele>829</ele>
        <time>2023-05-28T11:34:21.000Z</time>
      </trkpt>
      <trkpt lat="43.69528" lon="3.04384">
        <ele>829</ele>
        <time>2023-05-28T11:34:30.000Z</time>
      </trkpt>
      <trkpt lat="43.69528" lon="3.04385">
        <ele>829</ele>
        <time>2023-05-28T11:34:39.000Z</time>
      </trkpt>
      <trkpt lat="43.69528" lon="3.04385">
        <ele>829.20001220703</ele>
        <time>2023-05-28T11:34:54.000Z</time>
      </trkpt>
      <trkpt lat="43.69527" lon="3.04386">
        <ele>829</ele>
        <time>2023-05-28T11:35:02.000Z</time>
      </trkpt>
      <trkpt lat="43.69526" lon="3.04385">
        <ele>829.20001220703</ele>
        <time>2023-05-28T11:35:12.000Z</time>
      </trkpt>
      <trkpt lat="43.69525" lon="3.04386">
        <ele>829.59997558594</ele>
        <time>2023-05-28T11:35:20.000Z</time>
      </trkpt>
      <trkpt lat="43.69525" lon="3.04386">
        <ele>829.20001220703</ele>
        <time>2023-05-28T11:35:28.000Z</time>
      </trkpt>
      <trkpt lat="43.69524" lon="3.04386">
        <ele>829.20001220703</ele>
        <time>2023-05-28T11:35:39.000Z</time>
      </trkpt>
      <trkpt lat="43.69519" lon="3.04392">
        <ele>829.40002441406</ele>
        <time>2023-05-28T11:35:47.000Z</time>
      </trkpt>
      <trkpt lat="43.69513" lon="3.04397">
        <ele>828</ele>
        <time>2023-05-28T11:35:54.000Z</time>
      </trkpt>
      <trkpt lat="43.6951" lon="3.04396">
        <ele>827.40002441406</ele>
        <time>2023-05-28T11:35:57.000Z</time>
      </trkpt>
      <trkpt lat="43.6951" lon="3.04387">
        <ele>828.20001220703</ele>
        <time>2023-05-28T11:36:04.000Z</time>
      </trkpt>
      <trkpt lat="43.69512" lon="3.04378">
        <ele>828.40002441406</ele>
        <time>2023-05-28T11:36:13.000Z</time>
      </trkpt>
      <trkpt lat="43.69512" lon="3.04373">
        <ele>828.20001220703</ele>
        <time>2023-05-28T11:36:19.000Z</time>
      </trkpt>
      <trkpt lat="43.69514" lon="3.04368">
        <ele>827.20001220703</ele>
        <time>2023-05-28T11:36:27.000Z</time>
      </trkpt>
      <trkpt lat="43.69514" lon="3.04368">
        <ele>827</ele>
        <time>2023-05-28T11:36:30.000Z</time>
      </trkpt>
      <trkpt lat="43.69514" lon="3.04369">
        <ele>826.59997558594</ele>
        <time>2023-05-28T11:36:36.000Z</time>
      </trkpt>
      <trkpt lat="43.69514" lon="3.04376">
        <ele>827.59997558594</ele>
        <time>2023-05-28T11:36:46.000Z</time>
      </trkpt>
      <trkpt lat="43.69521" lon="3.0437">
        <ele>827.79998779297</ele>
        <time>2023-05-28T11:36:53.000Z</time>
      </trkpt>
      <trkpt lat="43.69531" lon="3.04363">
        <ele>827.59997558594</ele>
        <time>2023-05-28T11:37:03.000Z</time>
      </trkpt>
      <trkpt lat="43.69539" lon="3.04359">
        <ele>826.59997558594</ele>
        <time>2023-05-28T11:37:10.000Z</time>
      </trkpt>
      <trkpt lat="43.6955" lon="3.04354">
        <ele>825.79998779297</ele>
        <time>2023-05-28T11:37:20.000Z</time>
      </trkpt>
      <trkpt lat="43.69551" lon="3.04353">
        <ele>825.79998779297</ele>
        <time>2023-05-28T11:37:21.000Z</time>
      </trkpt>
      <trkpt lat="43.6956" lon="3.04346">
        <ele>825.20001220703</ele>
        <time>2023-05-28T11:37:30.000Z</time>
      </trkpt>
      <trkpt lat="43.69563" lon="3.04344">
        <ele>825</ele>
        <time>2023-05-28T11:37:33.000Z</time>
      </trkpt>
      <trkpt lat="43.69564" lon="3.04343">
        <ele>824.79998779297</ele>
        <time>2023-05-28T11:37:34.000Z</time>
      </trkpt>
      <trkpt lat="43.69567" lon="3.04341">
        <ele>824.40002441406</ele>
        <time>2023-05-28T11:37:37.000Z</time>
      </trkpt>
      <trkpt lat="43.69574" lon="3.04337">
        <ele>824</ele>
        <time>2023-05-28T11:37:43.000Z</time>
      </trkpt>
      <trkpt lat="43.69575" lon="3.04337">
        <ele>824</ele>
        <time>2023-05-28T11:37:44.000Z</time>
      </trkpt>
      <trkpt lat="43.69576" lon="3.04337">
        <ele>824</ele>
        <time>2023-05-28T11:37:45.000Z</time>
      </trkpt>
      <trkpt lat="43.69579" lon="3.04335">
        <ele>824.20001220703</ele>
        <time>2023-05-28T11:37:48.000Z</time>
      </trkpt>
      <trkpt lat="43.69583" lon="3.04333">
        <ele>823.59997558594</ele>
        <time>2023-05-28T11:37:52.000Z</time>
      </trkpt>
      <trkpt lat="43.69592" lon="3.04331">
        <ele>823</ele>
        <time>2023-05-28T11:38:00.000Z</time>
      </trkpt>
      <trkpt lat="43.69597" lon="3.04329">
        <ele>822.59997558594</ele>
        <time>2023-05-28T11:38:06.000Z</time>
      </trkpt>
      <trkpt lat="43.69601" lon="3.04328">
        <ele>822.40002441406</ele>
        <time>2023-05-28T11:38:10.000Z</time>
      </trkpt>
      <trkpt lat="43.69603" lon="3.04327">
        <ele>822.20001220703</ele>
        <time>2023-05-28T11:38:12.000Z</time>
      </trkpt>
      <trkpt lat="43.69607" lon="3.04325">
        <ele>821.79998779297</ele>
        <time>2023-05-28T11:38:16.000Z</time>
      </trkpt>
      <trkpt lat="43.69612" lon="3.04322">
        <ele>821.59997558594</ele>
        <time>2023-05-28T11:38:21.000Z</time>
      </trkpt>
      <trkpt lat="43.69612" lon="3.04322">
        <ele>821.40002441406</ele>
        <time>2023-05-28T11:38:22.000Z</time>
      </trkpt>
      <trkpt lat="43.69614" lon="3.04321">
        <ele>821.40002441406</ele>
        <time>2023-05-28T11:38:24.000Z</time>
      </trkpt>
      <trkpt lat="43.69622" lon="3.04319">
        <ele>820.79998779297</ele>
        <time>2023-05-28T11:38:32.000Z</time>
      </trkpt>
      <trkpt lat="43.69624" lon="3.04318">
        <ele>820.59997558594</ele>
        <time>2023-05-28T11:38:33.000Z</time>
      </trkpt>
      <trkpt lat="43.69625" lon="3.04317">
        <ele>820.59997558594</ele>
        <time>2023-05-28T11:38:35.000Z</time>
      </trkpt>
      <trkpt lat="43.69628" lon="3.04316">
        <ele>820.40002441406</ele>
        <time>2023-05-28T11:38:38.000Z</time>
      </trkpt>
      <trkpt lat="43.69635" lon="3.04312">
        <ele>819.40002441406</ele>
        <time>2023-05-28T11:38:43.000Z</time>
      </trkpt>
      <trkpt lat="43.69641" lon="3.0431">
        <ele>818.79998779297</ele>
        <time>2023-05-28T11:38:48.000Z</time>
      </trkpt>
      <trkpt lat="43.69648" lon="3.04308">
        <ele>818.40002441406</ele>
        <time>2023-05-28T11:38:54.000Z</time>
      </trkpt>
      <trkpt lat="43.69654" lon="3.04306">
        <ele>818</ele>
        <time>2023-05-28T11:38:59.000Z</time>
      </trkpt>
      <trkpt lat="43.6966" lon="3.04305">
        <ele>817.59997558594</ele>
        <time>2023-05-28T11:39:04.000Z</time>
      </trkpt>
      <trkpt lat="43.69662" lon="3.04304">
        <ele>817.40002441406</ele>
        <time>2023-05-28T11:39:06.000Z</time>
      </trkpt>
      <trkpt lat="43.69663" lon="3.04304">
        <ele>817.40002441406</ele>
        <time>2023-05-28T11:39:07.000Z</time>
      </trkpt>
      <trkpt lat="43.69665" lon="3.04304">
        <ele>817.20001220703</ele>
        <time>2023-05-28T11:39:09.000Z</time>
      </trkpt>
      <trkpt lat="43.69671" lon="3.04302">
        <ele>817</ele>
        <time>2023-05-28T11:39:14.000Z</time>
      </trkpt>
      <trkpt lat="43.69679" lon="3.043">
        <ele>816.20001220703</ele>
        <time>2023-05-28T11:39:21.000Z</time>
      </trkpt>
      <trkpt lat="43.69687" lon="3.04299">
        <ele>815.59997558594</ele>
        <time>2023-05-28T11:39:28.000Z</time>
      </trkpt>
      <trkpt lat="43.69692" lon="3.043">
        <ele>815.40002441406</ele>
        <time>2023-05-28T11:39:33.000Z</time>
      </trkpt>
      <trkpt lat="43.69694" lon="3.043">
        <ele>815.20001220703</ele>
        <time>2023-05-28T11:39:35.000Z</time>
      </trkpt>
      <trkpt lat="43.69704" lon="3.04304">
        <ele>814.79998779297</ele>
        <time>2023-05-28T11:39:43.000Z</time>
      </trkpt>
      <trkpt lat="43.69714" lon="3.04309">
        <ele>814.20001220703</ele>
        <time>2023-05-28T11:39:51.000Z</time>
      </trkpt>
      <trkpt lat="43.69716" lon="3.04311">
        <ele>813.79998779297</ele>
        <time>2023-05-28T11:39:53.000Z</time>
      </trkpt>
      <trkpt lat="43.69725" lon="3.04319">
        <ele>813.20001220703</ele>
        <time>2023-05-28T11:40:02.000Z</time>
      </trkpt>
      <trkpt lat="43.69726" lon="3.0432">
        <ele>813</ele>
        <time>2023-05-28T11:40:03.000Z</time>
      </trkpt>
      <trkpt lat="43.69735" lon="3.0433">
        <ele>812.40002441406</ele>
        <time>2023-05-28T11:40:13.000Z</time>
      </trkpt>
      <trkpt lat="43.69738" lon="3.04333">
        <ele>812</ele>
        <time>2023-05-28T11:40:16.000Z</time>
      </trkpt>
      <trkpt lat="43.69739" lon="3.04335">
        <ele>812</ele>
        <time>2023-05-28T11:40:18.000Z</time>
      </trkpt>
      <trkpt lat="43.69742" lon="3.04339">
        <ele>811.79998779297</ele>
        <time>2023-05-28T11:40:21.000Z</time>
      </trkpt>
      <trkpt lat="43.69749" lon="3.04353">
        <ele>811</ele>
        <time>2023-05-28T11:40:31.000Z</time>
      </trkpt>
      <trkpt lat="43.69755" lon="3.04366">
        <ele>810.40002441406</ele>
        <time>2023-05-28T11:40:40.000Z</time>
      </trkpt>
      <trkpt lat="43.69759" lon="3.04375">
        <ele>810.20001220703</ele>
        <time>2023-05-28T11:40:46.000Z</time>
      </trkpt>
      <trkpt lat="43.6976" lon="3.04375">
        <ele>810.20001220703</ele>
        <time>2023-05-28T11:40:47.000Z</time>
      </trkpt>
      <trkpt lat="43.69761" lon="3.04376">
        <ele>810</ele>
        <time>2023-05-28T11:40:48.000Z</time>
      </trkpt>
      <trkpt lat="43.69764" lon="3.04376">
        <ele>809.79998779297</ele>
        <time>2023-05-28T11:40:51.000Z</time>
      </trkpt>
      <trkpt lat="43.69766" lon="3.04374">
        <ele>809.59997558594</ele>
        <time>2023-05-28T11:40:53.000Z</time>
      </trkpt>
      <trkpt lat="43.69768" lon="3.0437">
        <ele>809.40002441406</ele>
        <time>2023-05-28T11:40:56.000Z</time>
      </trkpt>
      <trkpt lat="43.69768" lon="3.04365">
        <ele>809.40002441406</ele>
        <time>2023-05-28T11:40:59.000Z</time>
      </trkpt>
      <trkpt lat="43.69766" lon="3.04358">
        <ele>809</ele>
        <time>2023-05-28T11:41:03.000Z</time>
      </trkpt>
      <trkpt lat="43.69766" lon="3.04357">
        <ele>809</ele>
        <time>2023-05-28T11:41:04.000Z</time>
      </trkpt>
      <trkpt lat="43.69764" lon="3.04351">
        <ele>808.59997558594</ele>
        <time>2023-05-28T11:41:08.000Z</time>
      </trkpt>
      <trkpt lat="43.69761" lon="3.04342">
        <ele>808</ele>
        <time>2023-05-28T11:41:14.000Z</time>
      </trkpt>
      <trkpt lat="43.6976" lon="3.04338">
        <ele>807.79998779297</ele>
        <time>2023-05-28T11:41:17.000Z</time>
      </trkpt>
      <trkpt lat="43.69757" lon="3.04328">
        <ele>807.20001220703</ele>
        <time>2023-05-28T11:41:24.000Z</time>
      </trkpt>
      <trkpt lat="43.69753" lon="3.04319">
        <ele>807.20001220703</ele>
        <time>2023-05-28T11:41:31.000Z</time>
      </trkpt>
      <trkpt lat="43.69751" lon="3.04316">
        <ele>807</ele>
        <time>2023-05-28T11:41:33.000Z</time>
      </trkpt>
      <trkpt lat="43.69751" lon="3.04315">
        <ele>807</ele>
        <time>2023-05-28T11:41:34.000Z</time>
      </trkpt>
      <trkpt lat="43.69748" lon="3.04307">
        <ele>806</ele>
        <time>2023-05-28T11:41:40.000Z</time>
      </trkpt>
      <trkpt lat="43.69747" lon="3.04305">
        <ele>805.79998779297</ele>
        <time>2023-05-28T11:41:41.000Z</time>
      </trkpt>
      <trkpt lat="43.69743" lon="3.04296">
        <ele>805.20001220703</ele>
        <time>2023-05-28T11:41:48.000Z</time>
      </trkpt>
      <trkpt lat="43.69739" lon="3.04288">
        <ele>804.79998779297</ele>
        <time>2023-05-28T11:41:54.000Z</time>
      </trkpt>
      <trkpt lat="43.69738" lon="3.04285">
        <ele>804.59997558594</ele>
        <time>2023-05-28T11:41:57.000Z</time>
      </trkpt>
      <trkpt lat="43.69733" lon="3.04274">
        <ele>803.79998779297</ele>
        <time>2023-05-28T11:42:05.000Z</time>
      </trkpt>
      <trkpt lat="43.69732" lon="3.04273">
        <ele>803.79998779297</ele>
        <time>2023-05-28T11:42:06.000Z</time>
      </trkpt>
      <trkpt lat="43.69728" lon="3.04263">
        <ele>803.40002441406</ele>
        <time>2023-05-28T11:42:14.000Z</time>
      </trkpt>
      <trkpt lat="43.69725" lon="3.04259">
        <ele>802.79998779297</ele>
        <time>2023-05-28T11:42:18.000Z</time>
      </trkpt>
      <trkpt lat="43.69723" lon="3.04256">
        <ele>802.40002441406</ele>
        <time>2023-05-28T11:42:21.000Z</time>
      </trkpt>
      <trkpt lat="43.69718" lon="3.04251">
        <ele>801.59997558594</ele>
        <time>2023-05-28T11:42:27.000Z</time>
      </trkpt>
      <trkpt lat="43.69717" lon="3.0425">
        <ele>801.40002441406</ele>
        <time>2023-05-28T11:42:29.000Z</time>
      </trkpt>
      <trkpt lat="43.69713" lon="3.04247">
        <ele>801</ele>
        <time>2023-05-28T11:42:33.000Z</time>
      </trkpt>
      <trkpt lat="43.69709" lon="3.04246">
        <ele>800.59997558594</ele>
        <time>2023-05-28T11:42:37.000Z</time>
      </trkpt>
      <trkpt lat="43.69703" lon="3.04245">
        <ele>800.40002441406</ele>
        <time>2023-05-28T11:42:42.000Z</time>
      </trkpt>
      <trkpt lat="43.69698" lon="3.04244">
        <ele>799.79998779297</ele>
        <time>2023-05-28T11:42:47.000Z</time>
      </trkpt>
      <trkpt lat="43.69695" lon="3.04244">
        <ele>799.40002441406</ele>
        <time>2023-05-28T11:42:50.000Z</time>
      </trkpt>
      <trkpt lat="43.69689" lon="3.04242">
        <ele>799</ele>
        <time>2023-05-28T11:42:55.000Z</time>
      </trkpt>
      <trkpt lat="43.69683" lon="3.04241">
        <ele>798.40002441406</ele>
        <time>2023-05-28T11:43:00.000Z</time>
      </trkpt>
      <trkpt lat="43.69681" lon="3.04241">
        <ele>798</ele>
        <time>2023-05-28T11:43:03.000Z</time>
      </trkpt>
      <trkpt lat="43.69677" lon="3.0424">
        <ele>797.59997558594</ele>
        <time>2023-05-28T11:43:08.000Z</time>
      </trkpt>
      <trkpt lat="43.69675" lon="3.0424">
        <ele>797.40002441406</ele>
        <time>2023-05-28T11:43:09.000Z</time>
      </trkpt>
      <trkpt lat="43.6967" lon="3.04239">
        <ele>797</ele>
        <time>2023-05-28T11:43:13.000Z</time>
      </trkpt>
      <trkpt lat="43.6966" lon="3.04237">
        <ele>796.40002441406</ele>
        <time>2023-05-28T11:43:21.000Z</time>
      </trkpt>
      <trkpt lat="43.6966" lon="3.04237">
        <ele>796.40002441406</ele>
        <time>2023-05-28T11:43:22.000Z</time>
      </trkpt>
      <trkpt lat="43.69659" lon="3.04236">
        <ele>796.40002441406</ele>
        <time>2023-05-28T11:43:23.000Z</time>
      </trkpt>
      <trkpt lat="43.69658" lon="3.04236">
        <ele>796.40002441406</ele>
        <time>2023-05-28T11:43:24.000Z</time>
      </trkpt>
      <trkpt lat="43.69653" lon="3.04234">
        <ele>796</ele>
        <time>2023-05-28T11:43:28.000Z</time>
      </trkpt>
      <trkpt lat="43.69646" lon="3.04232">
        <ele>795.20001220703</ele>
        <time>2023-05-28T11:43:34.000Z</time>
      </trkpt>
      <trkpt lat="43.69643" lon="3.04231">
        <ele>795</ele>
        <time>2023-05-28T11:43:37.000Z</time>
      </trkpt>
      <trkpt lat="43.69642" lon="3.04232">
        <ele>795</ele>
        <time>2023-05-28T11:43:38.000Z</time>
      </trkpt>
      <trkpt lat="43.6964" lon="3.04231">
        <ele>794.79998779297</ele>
        <time>2023-05-28T11:43:39.000Z</time>
      </trkpt>
      <trkpt lat="43.69635" lon="3.04229">
        <ele>794.40002441406</ele>
        <time>2023-05-28T11:43:44.000Z</time>
      </trkpt>
      <trkpt lat="43.69632" lon="3.04229">
        <ele>794.20001220703</ele>
        <time>2023-05-28T11:43:46.000Z</time>
      </trkpt>
      <trkpt lat="43.69627" lon="3.04228">
        <ele>793.79998779297</ele>
        <time>2023-05-28T11:43:50.000Z</time>
      </trkpt>
      <trkpt lat="43.69616" lon="3.04227">
        <ele>793.40002441406</ele>
        <time>2023-05-28T11:43:58.000Z</time>
      </trkpt>
      <trkpt lat="43.69612" lon="3.04227">
        <ele>793</ele>
        <time>2023-05-28T11:44:01.000Z</time>
      </trkpt>
      <trkpt lat="43.69605" lon="3.04227">
        <ele>792.20001220703</ele>
        <time>2023-05-28T11:44:07.000Z</time>
      </trkpt>
      <trkpt lat="43.69597" lon="3.04227">
        <ele>792</ele>
        <time>2023-05-28T11:44:13.000Z</time>
      </trkpt>
      <trkpt lat="43.69596" lon="3.04227">
        <ele>792</ele>
        <time>2023-05-28T11:44:14.000Z</time>
      </trkpt>
      <trkpt lat="43.69586" lon="3.04226">
        <ele>791.40002441406</ele>
        <time>2023-05-28T11:44:22.000Z</time>
      </trkpt>
      <trkpt lat="43.69581" lon="3.04227">
        <ele>790.79998779297</ele>
        <time>2023-05-28T11:44:27.000Z</time>
      </trkpt>
      <trkpt lat="43.69578" lon="3.04228">
        <ele>790.59997558594</ele>
        <time>2023-05-28T11:44:30.000Z</time>
      </trkpt>
      <trkpt lat="43.69571" lon="3.04226">
        <ele>790.20001220703</ele>
        <time>2023-05-28T11:44:36.000Z</time>
      </trkpt>
      <trkpt lat="43.69569" lon="3.04224">
        <ele>790</ele>
        <time>2023-05-28T11:44:39.000Z</time>
      </trkpt>
      <trkpt lat="43.69567" lon="3.04223">
        <ele>789.79998779297</ele>
        <time>2023-05-28T11:44:41.000Z</time>
      </trkpt>
      <trkpt lat="43.69564" lon="3.04217">
        <ele>789.59997558594</ele>
        <time>2023-05-28T11:44:46.000Z</time>
      </trkpt>
      <trkpt lat="43.69561" lon="3.04204">
        <ele>789</ele>
        <time>2023-05-28T11:44:54.000Z</time>
      </trkpt>
      <trkpt lat="43.6956" lon="3.04196">
        <ele>788.79998779297</ele>
        <time>2023-05-28T11:44:59.000Z</time>
      </trkpt>
      <trkpt lat="43.69559" lon="3.04191">
        <ele>788.59997558594</ele>
        <time>2023-05-28T11:45:02.000Z</time>
      </trkpt>
      <trkpt lat="43.69556" lon="3.04177">
        <ele>788</ele>
        <time>2023-05-28T11:45:10.000Z</time>
      </trkpt>
      <trkpt lat="43.69555" lon="3.04175">
        <ele>787.79998779297</ele>
        <time>2023-05-28T11:45:11.000Z</time>
      </trkpt>
      <trkpt lat="43.69551" lon="3.04163">
        <ele>787.20001220703</ele>
        <time>2023-05-28T11:45:18.000Z</time>
      </trkpt>
      <trkpt lat="43.6955" lon="3.04162">
        <ele>787.20001220703</ele>
        <time>2023-05-28T11:45:19.000Z</time>
      </trkpt>
      <trkpt lat="43.69548" lon="3.04156">
        <ele>786.79998779297</ele>
        <time>2023-05-28T11:45:23.000Z</time>
      </trkpt>
      <trkpt lat="43.69544" lon="3.04147">
        <ele>786.40002441406</ele>
        <time>2023-05-28T11:45:29.000Z</time>
      </trkpt>
      <trkpt lat="43.69539" lon="3.04136">
        <ele>785.79998779297</ele>
        <time>2023-05-28T11:45:37.000Z</time>
      </trkpt>
      <trkpt lat="43.69538" lon="3.04133">
        <ele>785.59997558594</ele>
        <time>2023-05-28T11:45:39.000Z</time>
      </trkpt>
      <trkpt lat="43.69537" lon="3.04131">
        <ele>785.40002441406</ele>
        <time>2023-05-28T11:45:40.000Z</time>
      </trkpt>
      <trkpt lat="43.69533" lon="3.04121">
        <ele>784.79998779297</ele>
        <time>2023-05-28T11:45:47.000Z</time>
      </trkpt>
      <trkpt lat="43.69533" lon="3.04119">
        <ele>784.79998779297</ele>
        <time>2023-05-28T11:45:48.000Z</time>
      </trkpt>
      <trkpt lat="43.69527" lon="3.04104">
        <ele>783.59997558594</ele>
        <time>2023-05-28T11:45:59.000Z</time>
      </trkpt>
      <trkpt lat="43.69522" lon="3.04092">
        <ele>783</ele>
        <time>2023-05-28T11:46:08.000Z</time>
      </trkpt>
      <trkpt lat="43.69519" lon="3.04086">
        <ele>782.59997558594</ele>
        <time>2023-05-28T11:46:13.000Z</time>
      </trkpt>
      <trkpt lat="43.69516" lon="3.04079">
        <ele>782.20001220703</ele>
        <time>2023-05-28T11:46:18.000Z</time>
      </trkpt>
      <trkpt lat="43.69514" lon="3.04075">
        <ele>782</ele>
        <time>2023-05-28T11:46:21.000Z</time>
      </trkpt>
      <trkpt lat="43.69511" lon="3.04071">
        <ele>781.59997558594</ele>
        <time>2023-05-28T11:46:25.000Z</time>
      </trkpt>
      <trkpt lat="43.6951" lon="3.04071">
        <ele>781.59997558594</ele>
        <time>2023-05-28T11:46:26.000Z</time>
      </trkpt>
      <trkpt lat="43.69509" lon="3.04069">
        <ele>781.59997558594</ele>
        <time>2023-05-28T11:46:27.000Z</time>
      </trkpt>
      <trkpt lat="43.69504" lon="3.04064">
        <ele>781.20001220703</ele>
        <time>2023-05-28T11:46:32.000Z</time>
      </trkpt>
      <trkpt lat="43.69503" lon="3.04063">
        <ele>781</ele>
        <time>2023-05-28T11:46:33.000Z</time>
      </trkpt>
      <trkpt lat="43.69501" lon="3.04059">
        <ele>780.59997558594</ele>
        <time>2023-05-28T11:46:36.000Z</time>
      </trkpt>
      <trkpt lat="43.695" lon="3.04057">
        <ele>780.59997558594</ele>
        <time>2023-05-28T11:46:38.000Z</time>
      </trkpt>
      <trkpt lat="43.69498" lon="3.04056">
        <ele>780.40002441406</ele>
        <time>2023-05-28T11:46:39.000Z</time>
      </trkpt>
      <trkpt lat="43.69493" lon="3.04051">
        <ele>780</ele>
        <time>2023-05-28T11:46:45.000Z</time>
      </trkpt>
      <trkpt lat="43.69485" lon="3.04047">
        <ele>779.40002441406</ele>
        <time>2023-05-28T11:46:52.000Z</time>
      </trkpt>
      <trkpt lat="43.69484" lon="3.04046">
        <ele>779.40002441406</ele>
        <time>2023-05-28T11:46:53.000Z</time>
      </trkpt>
      <trkpt lat="43.69477" lon="3.04041">
        <ele>779</ele>
        <time>2023-05-28T11:47:00.000Z</time>
      </trkpt>
      <trkpt lat="43.69471" lon="3.04036">
        <ele>778.40002441406</ele>
        <time>2023-05-28T11:47:06.000Z</time>
      </trkpt>
      <trkpt lat="43.69468" lon="3.04034">
        <ele>778.20001220703</ele>
        <time>2023-05-28T11:47:09.000Z</time>
      </trkpt>
      <trkpt lat="43.69464" lon="3.04031">
        <ele>777.79998779297</ele>
        <time>2023-05-28T11:47:14.000Z</time>
      </trkpt>
      <trkpt lat="43.69463" lon="3.0403">
        <ele>777.59997558594</ele>
        <time>2023-05-28T11:47:15.000Z</time>
      </trkpt>
      <trkpt lat="43.69459" lon="3.04025">
        <ele>777.20001220703</ele>
        <time>2023-05-28T11:47:19.000Z</time>
      </trkpt>
      <trkpt lat="43.69459" lon="3.04024">
        <ele>777.20001220703</ele>
        <time>2023-05-28T11:47:20.000Z</time>
      </trkpt>
      <trkpt lat="43.69457" lon="3.04023">
        <ele>777.20001220703</ele>
        <time>2023-05-28T11:47:21.000Z</time>
      </trkpt>
      <trkpt lat="43.69452" lon="3.0402">
        <ele>777</ele>
        <time>2023-05-28T11:47:26.000Z</time>
      </trkpt>
      <trkpt lat="43.69451" lon="3.04018">
        <ele>777</ele>
        <time>2023-05-28T11:47:27.000Z</time>
      </trkpt>
      <trkpt lat="43.69446" lon="3.04014">
        <ele>776.40002441406</ele>
        <time>2023-05-28T11:47:32.000Z</time>
      </trkpt>
      <trkpt lat="43.69445" lon="3.04013">
        <ele>776.20001220703</ele>
        <time>2023-05-28T11:47:33.000Z</time>
      </trkpt>
      <trkpt lat="43.6944" lon="3.04008">
        <ele>775.79998779297</ele>
        <time>2023-05-28T11:47:38.000Z</time>
      </trkpt>
      <trkpt lat="43.69434" lon="3.04003">
        <ele>775.40002441406</ele>
        <time>2023-05-28T11:47:43.000Z</time>
      </trkpt>
      <trkpt lat="43.69433" lon="3.04002">
        <ele>775.20001220703</ele>
        <time>2023-05-28T11:47:45.000Z</time>
      </trkpt>
      <trkpt lat="43.69431" lon="3.04">
        <ele>775.20001220703</ele>
        <time>2023-05-28T11:47:46.000Z</time>
      </trkpt>
      <trkpt lat="43.69423" lon="3.03992">
        <ele>774.79998779297</ele>
        <time>2023-05-28T11:47:54.000Z</time>
      </trkpt>
      <trkpt lat="43.69413" lon="3.03983">
        <ele>774.20001220703</ele>
        <time>2023-05-28T11:48:03.000Z</time>
      </trkpt>
      <trkpt lat="43.69412" lon="3.03982">
        <ele>774</ele>
        <time>2023-05-28T11:48:04.000Z</time>
      </trkpt>
      <trkpt lat="43.69401" lon="3.03966">
        <ele>773</ele>
        <time>2023-05-28T11:48:16.000Z</time>
      </trkpt>
      <trkpt lat="43.69391" lon="3.03947">
        <ele>772.20001220703</ele>
        <time>2023-05-28T11:48:30.000Z</time>
      </trkpt>
      <trkpt lat="43.6939" lon="3.03945">
        <ele>772</ele>
        <time>2023-05-28T11:48:31.000Z</time>
      </trkpt>
      <trkpt lat="43.69388" lon="3.0394">
        <ele>772.20001220703</ele>
        <time>2023-05-28T11:48:37.000Z</time>
      </trkpt>
      <trkpt lat="43.69387" lon="3.03937">
        <ele>772</ele>
        <time>2023-05-28T11:48:39.000Z</time>
      </trkpt>
      <trkpt lat="43.69384" lon="3.03929">
        <ele>771.20001220703</ele>
        <time>2023-05-28T11:48:45.000Z</time>
      </trkpt>
      <trkpt lat="43.69383" lon="3.03927">
        <ele>771</ele>
        <time>2023-05-28T11:48:46.000Z</time>
      </trkpt>
      <trkpt lat="43.6938" lon="3.03915">
        <ele>770.40002441406</ele>
        <time>2023-05-28T11:48:54.000Z</time>
      </trkpt>
      <trkpt lat="43.69377" lon="3.03912">
        <ele>770.20001220703</ele>
        <time>2023-05-28T11:48:58.000Z</time>
      </trkpt>
      <trkpt lat="43.69376" lon="3.03906">
        <ele>770</ele>
        <time>2023-05-28T11:49:02.000Z</time>
      </trkpt>
      <trkpt lat="43.69376" lon="3.03903">
        <ele>770</ele>
        <time>2023-05-28T11:49:04.000Z</time>
      </trkpt>
      <trkpt lat="43.69376" lon="3.039">
        <ele>770</ele>
        <time>2023-05-28T11:49:06.000Z</time>
      </trkpt>
      <trkpt lat="43.69376" lon="3.03898">
        <ele>770</ele>
        <time>2023-05-28T11:49:07.000Z</time>
      </trkpt>
      <trkpt lat="43.69375" lon="3.03895">
        <ele>769.59997558594</ele>
        <time>2023-05-28T11:49:09.000Z</time>
      </trkpt>
      <trkpt lat="43.69369" lon="3.03882">
        <ele>769.20001220703</ele>
        <time>2023-05-28T11:49:19.000Z</time>
      </trkpt>
      <trkpt lat="43.69366" lon="3.03879">
        <ele>769.40002441406</ele>
        <time>2023-05-28T11:49:27.000Z</time>
      </trkpt>
      <trkpt lat="43.69362" lon="3.03884">
        <ele>769.20001220703</ele>
        <time>2023-05-28T11:49:34.000Z</time>
      </trkpt>
      <trkpt lat="43.69353" lon="3.03888">
        <ele>769.40002441406</ele>
        <time>2023-05-28T11:49:43.000Z</time>
      </trkpt>
      <trkpt lat="43.69351" lon="3.03889">
        <ele>769.40002441406</ele>
        <time>2023-05-28T11:49:48.000Z</time>
      </trkpt>
      <trkpt lat="43.6935" lon="3.03889">
        <ele>769.40002441406</ele>
        <time>2023-05-28T11:49:49.000Z</time>
      </trkpt>
      <trkpt lat="43.69345" lon="3.03891">
        <ele>769.20001220703</ele>
        <time>2023-05-28T11:49:54.000Z</time>
      </trkpt>
      <trkpt lat="43.69337" lon="3.03893">
        <ele>768.79998779297</ele>
        <time>2023-05-28T11:50:01.000Z</time>
      </trkpt>
      <trkpt lat="43.69336" lon="3.03894">
        <ele>768.59997558594</ele>
        <time>2023-05-28T11:50:02.000Z</time>
      </trkpt>
      <trkpt lat="43.69323" lon="3.039">
        <ele>767.79998779297</ele>
        <time>2023-05-28T11:50:14.000Z</time>
      </trkpt>
      <trkpt lat="43.69322" lon="3.039">
        <ele>767.59997558594</ele>
        <time>2023-05-28T11:50:15.000Z</time>
      </trkpt>
      <trkpt lat="43.69316" lon="3.03902">
        <ele>766.79998779297</ele>
        <time>2023-05-28T11:50:20.000Z</time>
      </trkpt>
      <trkpt lat="43.69314" lon="3.03903">
        <ele>766.59997558594</ele>
        <time>2023-05-28T11:50:22.000Z</time>
      </trkpt>
      <trkpt lat="43.69313" lon="3.03903">
        <ele>766.59997558594</ele>
        <time>2023-05-28T11:50:23.000Z</time>
      </trkpt>
      <trkpt lat="43.69309" lon="3.03903">
        <ele>766</ele>
        <time>2023-05-28T11:50:28.000Z</time>
      </trkpt>
      <trkpt lat="43.69308" lon="3.03903">
        <ele>765.40002441406</ele>
        <time>2023-05-28T11:50:32.000Z</time>
      </trkpt>
      <trkpt lat="43.69308" lon="3.03904">
        <ele>764.79998779297</ele>
        <time>2023-05-28T11:50:36.000Z</time>
      </trkpt>
      <trkpt lat="43.69306" lon="3.03906">
        <ele>765.40002441406</ele>
        <time>2023-05-28T11:50:45.000Z</time>
      </trkpt>
      <trkpt lat="43.69302" lon="3.03911">
        <ele>765.20001220703</ele>
        <time>2023-05-28T11:50:50.000Z</time>
      </trkpt>
      <trkpt lat="43.69294" lon="3.03918">
        <ele>764.79998779297</ele>
        <time>2023-05-28T11:50:58.000Z</time>
      </trkpt>
      <trkpt lat="43.6929" lon="3.03922">
        <ele>764.40002441406</ele>
        <time>2023-05-28T11:51:02.000Z</time>
      </trkpt>
      <trkpt lat="43.69285" lon="3.03927">
        <ele>764</ele>
        <time>2023-05-28T11:51:07.000Z</time>
      </trkpt>
      <trkpt lat="43.69282" lon="3.03931">
        <ele>763.20001220703</ele>
        <time>2023-05-28T11:51:11.000Z</time>
      </trkpt>
      <trkpt lat="43.69277" lon="3.03936">
        <ele>762.59997558594</ele>
        <time>2023-05-28T11:51:16.000Z</time>
      </trkpt>
      <trkpt lat="43.69273" lon="3.03941">
        <ele>762.20001220703</ele>
        <time>2023-05-28T11:51:22.000Z</time>
      </trkpt>
      <trkpt lat="43.69271" lon="3.03943">
        <ele>762.20001220703</ele>
        <time>2023-05-28T11:51:25.000Z</time>
      </trkpt>
      <trkpt lat="43.6927" lon="3.03945">
        <ele>762</ele>
        <time>2023-05-28T11:51:26.000Z</time>
      </trkpt>
      <trkpt lat="43.69267" lon="3.0395">
        <ele>761.20001220703</ele>
        <time>2023-05-28T11:51:32.000Z</time>
      </trkpt>
      <trkpt lat="43.6926" lon="3.0396">
        <ele>760.40002441406</ele>
        <time>2023-05-28T11:51:42.000Z</time>
      </trkpt>
      <trkpt lat="43.69255" lon="3.03968">
        <ele>760.59997558594</ele>
        <time>2023-05-28T11:51:50.000Z</time>
      </trkpt>
      <trkpt lat="43.69251" lon="3.03974">
        <ele>760</ele>
        <time>2023-05-28T11:51:56.000Z</time>
      </trkpt>
      <trkpt lat="43.69249" lon="3.03977">
        <ele>759.79998779297</ele>
        <time>2023-05-28T11:51:59.000Z</time>
      </trkpt>
      <trkpt lat="43.69245" lon="3.03983">
        <ele>759</ele>
        <time>2023-05-28T11:52:05.000Z</time>
      </trkpt>
      <trkpt lat="43.69243" lon="3.03986">
        <ele>758.59997558594</ele>
        <time>2023-05-28T11:52:08.000Z</time>
      </trkpt>
      <trkpt lat="43.69236" lon="3.03996">
        <ele>758.59997558594</ele>
        <time>2023-05-28T11:52:19.000Z</time>
      </trkpt>
      <trkpt lat="43.69232" lon="3.04001">
        <ele>757.79998779297</ele>
        <time>2023-05-28T11:52:24.000Z</time>
      </trkpt>
      <trkpt lat="43.69229" lon="3.04005">
        <ele>757.40002441406</ele>
        <time>2023-05-28T11:52:29.000Z</time>
      </trkpt>
      <trkpt lat="43.69225" lon="3.04012">
        <ele>756.79998779297</ele>
        <time>2023-05-28T11:52:37.000Z</time>
      </trkpt>
      <trkpt lat="43.69223" lon="3.04016">
        <ele>756.40002441406</ele>
        <time>2023-05-28T11:52:40.000Z</time>
      </trkpt>
      <trkpt lat="43.69222" lon="3.04021">
        <ele>755.79998779297</ele>
        <time>2023-05-28T11:52:44.000Z</time>
      </trkpt>
      <trkpt lat="43.6922" lon="3.04028">
        <ele>755.20001220703</ele>
        <time>2023-05-28T11:52:49.000Z</time>
      </trkpt>
      <trkpt lat="43.69221" lon="3.04029">
        <ele>755.59997558594</ele>
        <time>2023-05-28T11:52:56.000Z</time>
      </trkpt>
      <trkpt lat="43.69219" lon="3.0404">
        <ele>755</ele>
        <time>2023-05-28T11:53:02.000Z</time>
      </trkpt>
      <trkpt lat="43.6922" lon="3.04046">
        <ele>754.79998779297</ele>
        <time>2023-05-28T11:53:06.000Z</time>
      </trkpt>
      <trkpt lat="43.69221" lon="3.04051">
        <ele>754.59997558594</ele>
        <time>2023-05-28T11:53:09.000Z</time>
      </trkpt>
      <trkpt lat="43.69224" lon="3.04063">
        <ele>754</ele>
        <time>2023-05-28T11:53:16.000Z</time>
      </trkpt>
      <trkpt lat="43.69228" lon="3.04076">
        <ele>753.59997558594</ele>
        <time>2023-05-28T11:53:25.000Z</time>
      </trkpt>
      <trkpt lat="43.69231" lon="3.04089">
        <ele>753</ele>
        <time>2023-05-28T11:53:34.000Z</time>
      </trkpt>
      <trkpt lat="43.69232" lon="3.04093">
        <ele>752.59997558594</ele>
        <time>2023-05-28T11:53:37.000Z</time>
      </trkpt>
      <trkpt lat="43.69232" lon="3.04094">
        <ele>752.59997558594</ele>
        <time>2023-05-28T11:53:38.000Z</time>
      </trkpt>
      <trkpt lat="43.69233" lon="3.04097">
        <ele>752.59997558594</ele>
        <time>2023-05-28T11:53:40.000Z</time>
      </trkpt>
      <trkpt lat="43.69232" lon="3.04102">
        <ele>752.40002441406</ele>
        <time>2023-05-28T11:53:44.000Z</time>
      </trkpt>
      <trkpt lat="43.69232" lon="3.04105">
        <ele>752.40002441406</ele>
        <time>2023-05-28T11:53:46.000Z</time>
      </trkpt>
      <trkpt lat="43.69231" lon="3.04107">
        <ele>752.40002441406</ele>
        <time>2023-05-28T11:53:48.000Z</time>
      </trkpt>
      <trkpt lat="43.69228" lon="3.04116">
        <ele>751.59997558594</ele>
        <time>2023-05-28T11:53:56.000Z</time>
      </trkpt>
      <trkpt lat="43.69227" lon="3.04117">
        <ele>751.59997558594</ele>
        <time>2023-05-28T11:53:57.000Z</time>
      </trkpt>
      <trkpt lat="43.69223" lon="3.04122">
        <ele>751.20001220703</ele>
        <time>2023-05-28T11:54:03.000Z</time>
      </trkpt>
      <trkpt lat="43.69213" lon="3.04129">
        <ele>751</ele>
        <time>2023-05-28T11:54:13.000Z</time>
      </trkpt>
      <trkpt lat="43.6921" lon="3.04132">
        <ele>750.59997558594</ele>
        <time>2023-05-28T11:54:17.000Z</time>
      </trkpt>
      <trkpt lat="43.69204" lon="3.04135">
        <ele>749.79998779297</ele>
        <time>2023-05-28T11:54:22.000Z</time>
      </trkpt>
      <trkpt lat="43.69202" lon="3.04136">
        <ele>749.40002441406</ele>
        <time>2023-05-28T11:54:24.000Z</time>
      </trkpt>
      <trkpt lat="43.69197" lon="3.0414">
        <ele>748.40002441406</ele>
        <time>2023-05-28T11:54:29.000Z</time>
      </trkpt>
      <trkpt lat="43.69195" lon="3.04141">
        <ele>748.20001220703</ele>
        <time>2023-05-28T11:54:31.000Z</time>
      </trkpt>
      <trkpt lat="43.69189" lon="3.04144">
        <ele>747.79998779297</ele>
        <time>2023-05-28T11:54:36.000Z</time>
      </trkpt>
      <trkpt lat="43.69185" lon="3.04148">
        <ele>747.20001220703</ele>
        <time>2023-05-28T11:54:41.000Z</time>
      </trkpt>
      <trkpt lat="43.69182" lon="3.0415">
        <ele>746.79998779297</ele>
        <time>2023-05-28T11:54:44.000Z</time>
      </trkpt>
      <trkpt lat="43.69174" lon="3.04155">
        <ele>746.20001220703</ele>
        <time>2023-05-28T11:54:52.000Z</time>
      </trkpt>
      <trkpt lat="43.69173" lon="3.04155">
        <ele>746.20001220703</ele>
        <time>2023-05-28T11:54:53.000Z</time>
      </trkpt>
      <trkpt lat="43.69166" lon="3.04158">
        <ele>745.59997558594</ele>
        <time>2023-05-28T11:55:01.000Z</time>
      </trkpt>
      <trkpt lat="43.6916" lon="3.04161">
        <ele>745</ele>
        <time>2023-05-28T11:55:07.000Z</time>
      </trkpt>
      <trkpt lat="43.69158" lon="3.04162">
        <ele>744.79998779297</ele>
        <time>2023-05-28T11:55:09.000Z</time>
      </trkpt>
      <trkpt lat="43.69151" lon="3.04164">
        <ele>744.20001220703</ele>
        <time>2023-05-28T11:55:17.000Z</time>
      </trkpt>
      <trkpt lat="43.69148" lon="3.04165">
        <ele>744</ele>
        <time>2023-05-28T11:55:20.000Z</time>
      </trkpt>
      <trkpt lat="43.69143" lon="3.04166">
        <ele>743.59997558594</ele>
        <time>2023-05-28T11:55:25.000Z</time>
      </trkpt>
      <trkpt lat="43.69135" lon="3.04166">
        <ele>743.20001220703</ele>
        <time>2023-05-28T11:55:33.000Z</time>
      </trkpt>
      <trkpt lat="43.69132" lon="3.04167">
        <ele>743</ele>
        <time>2023-05-28T11:55:36.000Z</time>
      </trkpt>
      <trkpt lat="43.69124" lon="3.04166">
        <ele>742.79998779297</ele>
        <time>2023-05-28T11:55:44.000Z</time>
      </trkpt>
      <trkpt lat="43.69116" lon="3.04167">
        <ele>742</ele>
        <time>2023-05-28T11:55:52.000Z</time>
      </trkpt>
      <trkpt lat="43.69115" lon="3.04167">
        <ele>741.79998779297</ele>
        <time>2023-05-28T11:55:53.000Z</time>
      </trkpt>
      <trkpt lat="43.69109" lon="3.04167">
        <ele>740.79998779297</ele>
        <time>2023-05-28T11:56:00.000Z</time>
      </trkpt>
      <trkpt lat="43.69105" lon="3.04167">
        <ele>740.59997558594</ele>
        <time>2023-05-28T11:56:04.000Z</time>
      </trkpt>
      <trkpt lat="43.69097" lon="3.04167">
        <ele>739.79998779297</ele>
        <time>2023-05-28T11:56:12.000Z</time>
      </trkpt>
      <trkpt lat="43.69094" lon="3.04167">
        <ele>739.40002441406</ele>
        <time>2023-05-28T11:56:15.000Z</time>
      </trkpt>
      <trkpt lat="43.69087" lon="3.04167">
        <ele>738.79998779297</ele>
        <time>2023-05-28T11:56:22.000Z</time>
      </trkpt>
      <trkpt lat="43.69086" lon="3.04167">
        <ele>738.79998779297</ele>
        <time>2023-05-28T11:56:23.000Z</time>
      </trkpt>
      <trkpt lat="43.69076" lon="3.04167">
        <ele>738.20001220703</ele>
        <time>2023-05-28T11:56:32.000Z</time>
      </trkpt>
      <trkpt lat="43.69073" lon="3.04166">
        <ele>737.79998779297</ele>
        <time>2023-05-28T11:56:35.000Z</time>
      </trkpt>
      <trkpt lat="43.69066" lon="3.04166">
        <ele>737.20001220703</ele>
        <time>2023-05-28T11:56:42.000Z</time>
      </trkpt>
      <trkpt lat="43.69062" lon="3.04165">
        <ele>736.79998779297</ele>
        <time>2023-05-28T11:56:46.000Z</time>
      </trkpt>
      <trkpt lat="43.69058" lon="3.04165">
        <ele>736.20001220703</ele>
        <time>2023-05-28T11:56:50.000Z</time>
      </trkpt>
      <trkpt lat="43.69047" lon="3.04162">
        <ele>736.20001220703</ele>
        <time>2023-05-28T11:57:01.000Z</time>
      </trkpt>
      <trkpt lat="43.69043" lon="3.04161">
        <ele>735.59997558594</ele>
        <time>2023-05-28T11:57:05.000Z</time>
      </trkpt>
      <trkpt lat="43.69035" lon="3.04158">
        <ele>735</ele>
        <time>2023-05-28T11:57:13.000Z</time>
      </trkpt>
      <trkpt lat="43.69032" lon="3.04157">
        <ele>734.59997558594</ele>
        <time>2023-05-28T11:57:16.000Z</time>
      </trkpt>
      <trkpt lat="43.69024" lon="3.04155">
        <ele>734.20001220703</ele>
        <time>2023-05-28T11:57:22.000Z</time>
      </trkpt>
      <trkpt lat="43.69015" lon="3.04154">
        <ele>733.59997558594</ele>
        <time>2023-05-28T11:57:30.000Z</time>
      </trkpt>
      <trkpt lat="43.69013" lon="3.04154">
        <ele>733.59997558594</ele>
        <time>2023-05-28T11:57:31.000Z</time>
      </trkpt>
      <trkpt lat="43.69004" lon="3.04153">
        <ele>733.20001220703</ele>
        <time>2023-05-28T11:57:40.000Z</time>
      </trkpt>
      <trkpt lat="43.68997" lon="3.04153">
        <ele>732.59997558594</ele>
        <time>2023-05-28T11:57:47.000Z</time>
      </trkpt>
      <trkpt lat="43.68996" lon="3.04153">
        <ele>732.59997558594</ele>
        <time>2023-05-28T11:57:48.000Z</time>
      </trkpt>
      <trkpt lat="43.68988" lon="3.04153">
        <ele>731.79998779297</ele>
        <time>2023-05-28T11:57:56.000Z</time>
      </trkpt>
      <trkpt lat="43.68985" lon="3.04154">
        <ele>731.59997558594</ele>
        <time>2023-05-28T11:57:59.000Z</time>
      </trkpt>
      <trkpt lat="43.68978" lon="3.04155">
        <ele>731.40002441406</ele>
        <time>2023-05-28T11:58:05.000Z</time>
      </trkpt>
      <trkpt lat="43.6897" lon="3.04156">
        <ele>730.40002441406</ele>
        <time>2023-05-28T11:58:14.000Z</time>
      </trkpt>
      <trkpt lat="43.68969" lon="3.04157">
        <ele>730.40002441406</ele>
        <time>2023-05-28T11:58:15.000Z</time>
      </trkpt>
      <trkpt lat="43.68961" lon="3.04158">
        <ele>729.59997558594</ele>
        <time>2023-05-28T11:58:23.000Z</time>
      </trkpt>
      <trkpt lat="43.6896" lon="3.04158">
        <ele>729.40002441406</ele>
        <time>2023-05-28T11:58:24.000Z</time>
      </trkpt>
      <trkpt lat="43.68953" lon="3.0416">
        <ele>728.40002441406</ele>
        <time>2023-05-28T11:58:31.000Z</time>
      </trkpt>
      <trkpt lat="43.68952" lon="3.04161">
        <ele>728.20001220703</ele>
        <time>2023-05-28T11:58:32.000Z</time>
      </trkpt>
      <trkpt lat="43.68944" lon="3.04163">
        <ele>727.59997558594</ele>
        <time>2023-05-28T11:58:40.000Z</time>
      </trkpt>
      <trkpt lat="43.68942" lon="3.04163">
        <ele>727.20001220703</ele>
        <time>2023-05-28T11:58:42.000Z</time>
      </trkpt>
      <trkpt lat="43.68936" lon="3.04166">
        <ele>726.59997558594</ele>
        <time>2023-05-28T11:58:49.000Z</time>
      </trkpt>
      <trkpt lat="43.68933" lon="3.04167">
        <ele>726.20001220703</ele>
        <time>2023-05-28T11:58:52.000Z</time>
      </trkpt>
      <trkpt lat="43.68925" lon="3.04169">
        <ele>725.59997558594</ele>
        <time>2023-05-28T11:58:59.000Z</time>
      </trkpt>
      <trkpt lat="43.68917" lon="3.04172">
        <ele>725.20001220703</ele>
        <time>2023-05-28T11:59:07.000Z</time>
      </trkpt>
      <trkpt lat="43.68916" lon="3.04172">
        <ele>725.20001220703</ele>
        <time>2023-05-28T11:59:08.000Z</time>
      </trkpt>
      <trkpt lat="43.68907" lon="3.04174">
        <ele>724.20001220703</ele>
        <time>2023-05-28T11:59:16.000Z</time>
      </trkpt>
      <trkpt lat="43.68905" lon="3.04174">
        <ele>723.79998779297</ele>
        <time>2023-05-28T11:59:18.000Z</time>
      </trkpt>
      <trkpt lat="43.68897" lon="3.04176">
        <ele>723</ele>
        <time>2023-05-28T11:59:26.000Z</time>
      </trkpt>
      <trkpt lat="43.68896" lon="3.04177">
        <ele>722.79998779297</ele>
        <time>2023-05-28T11:59:27.000Z</time>
      </trkpt>
      <trkpt lat="43.68887" lon="3.04178">
        <ele>722.20001220703</ele>
        <time>2023-05-28T11:59:35.000Z</time>
      </trkpt>
      <trkpt lat="43.68877" lon="3.04181">
        <ele>722</ele>
        <time>2023-05-28T11:59:45.000Z</time>
      </trkpt>
      <trkpt lat="43.68868" lon="3.04184">
        <ele>720.79998779297</ele>
        <time>2023-05-28T11:59:54.000Z</time>
      </trkpt>
      <trkpt lat="43.68867" lon="3.04184">
        <ele>720.79998779297</ele>
        <time>2023-05-28T11:59:55.000Z</time>
      </trkpt>
      <trkpt lat="43.68863" lon="3.04186">
        <ele>720.40002441406</ele>
        <time>2023-05-28T12:00:00.000Z</time>
      </trkpt>
      <trkpt lat="43.68856" lon="3.0419">
        <ele>719.79998779297</ele>
        <time>2023-05-28T12:00:07.000Z</time>
      </trkpt>
      <trkpt lat="43.68854" lon="3.04191">
        <ele>719.40002441406</ele>
        <time>2023-05-28T12:00:10.000Z</time>
      </trkpt>
      <trkpt lat="43.68847" lon="3.04197">
        <ele>718.79998779297</ele>
        <time>2023-05-28T12:00:18.000Z</time>
      </trkpt>
      <trkpt lat="43.6884" lon="3.04206">
        <ele>717.79998779297</ele>
        <time>2023-05-28T12:00:27.000Z</time>
      </trkpt>
      <trkpt lat="43.68839" lon="3.04208">
        <ele>717.40002441406</ele>
        <time>2023-05-28T12:00:29.000Z</time>
      </trkpt>
      <trkpt lat="43.68833" lon="3.04218">
        <ele>716.59997558594</ele>
        <time>2023-05-28T12:00:38.000Z</time>
      </trkpt>
      <trkpt lat="43.68831" lon="3.04221">
        <ele>716</ele>
        <time>2023-05-28T12:00:41.000Z</time>
      </trkpt>
      <trkpt lat="43.68828" lon="3.04231">
        <ele>715.79998779297</ele>
        <time>2023-05-28T12:00:49.000Z</time>
      </trkpt>
      <trkpt lat="43.68825" lon="3.04236">
        <ele>715.59997558594</ele>
        <time>2023-05-28T12:00:53.000Z</time>
      </trkpt>
      <trkpt lat="43.68822" lon="3.04244">
        <ele>715</ele>
        <time>2023-05-28T12:00:59.000Z</time>
      </trkpt>
      <trkpt lat="43.68821" lon="3.04251">
        <ele>714.40002441406</ele>
        <time>2023-05-28T12:01:05.000Z</time>
      </trkpt>
      <trkpt lat="43.6882" lon="3.04253">
        <ele>714.20001220703</ele>
        <time>2023-05-28T12:01:06.000Z</time>
      </trkpt>
      <trkpt lat="43.68819" lon="3.04262">
        <ele>713.40002441406</ele>
        <time>2023-05-28T12:01:13.000Z</time>
      </trkpt>
      <trkpt lat="43.68819" lon="3.04264">
        <ele>713.20001220703</ele>
        <time>2023-05-28T12:01:14.000Z</time>
      </trkpt>
      <trkpt lat="43.68819" lon="3.04266">
        <ele>712.79998779297</ele>
        <time>2023-05-28T12:01:16.000Z</time>
      </trkpt>
      <trkpt lat="43.68819" lon="3.0427">
        <ele>712.20001220703</ele>
        <time>2023-05-28T12:01:19.000Z</time>
      </trkpt>
      <trkpt lat="43.68819" lon="3.04272">
        <ele>712.20001220703</ele>
        <time>2023-05-28T12:01:20.000Z</time>
      </trkpt>
      <trkpt lat="43.68818" lon="3.04284">
        <ele>711.59997558594</ele>
        <time>2023-05-28T12:01:28.000Z</time>
      </trkpt>
      <trkpt lat="43.68818" lon="3.0429">
        <ele>711.59997558594</ele>
        <time>2023-05-28T12:01:33.000Z</time>
      </trkpt>
      <trkpt lat="43.68818" lon="3.04292">
        <ele>711.59997558594</ele>
        <time>2023-05-28T12:01:35.000Z</time>
      </trkpt>
      <trkpt lat="43.68819" lon="3.04299">
        <ele>711.20001220703</ele>
        <time>2023-05-28T12:01:40.000Z</time>
      </trkpt>
      <trkpt lat="43.6882" lon="3.04302">
        <ele>711</ele>
        <time>2023-05-28T12:01:42.000Z</time>
      </trkpt>
      <trkpt lat="43.68822" lon="3.04312">
        <ele>710.59997558594</ele>
        <time>2023-05-28T12:01:50.000Z</time>
      </trkpt>
      <trkpt lat="43.68824" lon="3.04315">
        <ele>710.20001220703</ele>
        <time>2023-05-28T12:01:53.000Z</time>
      </trkpt>
      <trkpt lat="43.68824" lon="3.04315">
        <ele>710</ele>
        <time>2023-05-28T12:01:56.000Z</time>
      </trkpt>
      <trkpt lat="43.68827" lon="3.04324">
        <ele>710</ele>
        <time>2023-05-28T12:02:02.000Z</time>
      </trkpt>
      <trkpt lat="43.68828" lon="3.0433">
        <ele>709.59997558594</ele>
        <time>2023-05-28T12:02:07.000Z</time>
      </trkpt>
      <trkpt lat="43.68828" lon="3.04333">
        <ele>709.20001220703</ele>
        <time>2023-05-28T12:02:09.000Z</time>
      </trkpt>
      <trkpt lat="43.68827" lon="3.04335">
        <ele>708.79998779297</ele>
        <time>2023-05-28T12:02:11.000Z</time>
      </trkpt>
      <trkpt lat="43.68825" lon="3.04337">
        <ele>708.20001220703</ele>
        <time>2023-05-28T12:02:15.000Z</time>
      </trkpt>
      <trkpt lat="43.68822" lon="3.04334">
        <ele>707.40002441406</ele>
        <time>2023-05-28T12:02:20.000Z</time>
      </trkpt>
      <trkpt lat="43.68821" lon="3.04333">
        <ele>707.20001220703</ele>
        <time>2023-05-28T12:02:21.000Z</time>
      </trkpt>
      <trkpt lat="43.6882" lon="3.0433">
        <ele>707</ele>
        <time>2023-05-28T12:02:24.000Z</time>
      </trkpt>
      <trkpt lat="43.68818" lon="3.04325">
        <ele>706.40002441406</ele>
        <time>2023-05-28T12:02:28.000Z</time>
      </trkpt>
      <trkpt lat="43.68817" lon="3.04322">
        <ele>706</ele>
        <time>2023-05-28T12:02:31.000Z</time>
      </trkpt>
      <trkpt lat="43.68815" lon="3.04316">
        <ele>705.40002441406</ele>
        <time>2023-05-28T12:02:36.000Z</time>
      </trkpt>
      <trkpt lat="43.68814" lon="3.04313">
        <ele>705.20001220703</ele>
        <time>2023-05-28T12:02:38.000Z</time>
      </trkpt>
      <trkpt lat="43.68811" lon="3.04309">
        <ele>704.79998779297</ele>
        <time>2023-05-28T12:02:41.000Z</time>
      </trkpt>
      <trkpt lat="43.6881" lon="3.04306">
        <ele>704.59997558594</ele>
        <time>2023-05-28T12:02:43.000Z</time>
      </trkpt>
      <trkpt lat="43.68805" lon="3.04295">
        <ele>704</ele>
        <time>2023-05-28T12:02:52.000Z</time>
      </trkpt>
      <trkpt lat="43.68805" lon="3.04293">
        <ele>703.79998779297</ele>
        <time>2023-05-28T12:02:53.000Z</time>
      </trkpt>
      <trkpt lat="43.68802" lon="3.04288">
        <ele>703.40002441406</ele>
        <time>2023-05-28T12:02:57.000Z</time>
      </trkpt>
      <trkpt lat="43.68802" lon="3.04286">
        <ele>703.40002441406</ele>
        <time>2023-05-28T12:02:59.000Z</time>
      </trkpt>
      <trkpt lat="43.68797" lon="3.04275">
        <ele>702.79998779297</ele>
        <time>2023-05-28T12:03:07.000Z</time>
      </trkpt>
      <trkpt lat="43.68793" lon="3.04259">
        <ele>701.79998779297</ele>
        <time>2023-05-28T12:03:18.000Z</time>
      </trkpt>
      <trkpt lat="43.6879" lon="3.04247">
        <ele>700.79998779297</ele>
        <time>2023-05-28T12:03:26.000Z</time>
      </trkpt>
      <trkpt lat="43.6879" lon="3.04245">
        <ele>700.59997558594</ele>
        <time>2023-05-28T12:03:27.000Z</time>
      </trkpt>
      <trkpt lat="43.68789" lon="3.0423">
        <ele>700.40002441406</ele>
        <time>2023-05-28T12:03:36.000Z</time>
      </trkpt>
      <trkpt lat="43.6879" lon="3.04221">
        <ele>699.59997558594</ele>
        <time>2023-05-28T12:03:41.000Z</time>
      </trkpt>
      <trkpt lat="43.68791" lon="3.04211">
        <ele>699.20001220703</ele>
        <time>2023-05-28T12:03:47.000Z</time>
      </trkpt>
      <trkpt lat="43.68793" lon="3.04197">
        <ele>698.59997558594</ele>
        <time>2023-05-28T12:03:57.000Z</time>
      </trkpt>
      <trkpt lat="43.68793" lon="3.04195">
        <ele>698.59997558594</ele>
        <time>2023-05-28T12:03:58.000Z</time>
      </trkpt>
      <trkpt lat="43.68795" lon="3.04185">
        <ele>698.20001220703</ele>
        <time>2023-05-28T12:04:04.000Z</time>
      </trkpt>
      <trkpt lat="43.68798" lon="3.04176">
        <ele>697.40002441406</ele>
        <time>2023-05-28T12:04:10.000Z</time>
      </trkpt>
      <trkpt lat="43.688" lon="3.04173">
        <ele>697.20001220703</ele>
        <time>2023-05-28T12:04:13.000Z</time>
      </trkpt>
      <trkpt lat="43.68805" lon="3.04165">
        <ele>696.40002441406</ele>
        <time>2023-05-28T12:04:19.000Z</time>
      </trkpt>
      <trkpt lat="43.68809" lon="3.04162">
        <ele>696.20001220703</ele>
        <time>2023-05-28T12:04:23.000Z</time>
      </trkpt>
      <trkpt lat="43.68817" lon="3.04157">
        <ele>695.59997558594</ele>
        <time>2023-05-28T12:04:31.000Z</time>
      </trkpt>
      <trkpt lat="43.68818" lon="3.04156">
        <ele>695.40002441406</ele>
        <time>2023-05-28T12:04:32.000Z</time>
      </trkpt>
      <trkpt lat="43.68826" lon="3.0415">
        <ele>694.79998779297</ele>
        <time>2023-05-28T12:04:39.000Z</time>
      </trkpt>
      <trkpt lat="43.68828" lon="3.04148">
        <ele>694.40002441406</ele>
        <time>2023-05-28T12:04:42.000Z</time>
      </trkpt>
      <trkpt lat="43.68834" lon="3.04142">
        <ele>693.59997558594</ele>
        <time>2023-05-28T12:04:48.000Z</time>
      </trkpt>
      <trkpt lat="43.68836" lon="3.0414">
        <ele>693.40002441406</ele>
        <time>2023-05-28T12:04:50.000Z</time>
      </trkpt>
      <trkpt lat="43.68845" lon="3.04131">
        <ele>693.20001220703</ele>
        <time>2023-05-28T12:04:59.000Z</time>
      </trkpt>
      <trkpt lat="43.68853" lon="3.04124">
        <ele>692.20001220703</ele>
        <time>2023-05-28T12:05:07.000Z</time>
      </trkpt>
      <trkpt lat="43.68855" lon="3.04122">
        <ele>691.79998779297</ele>
        <time>2023-05-28T12:05:10.000Z</time>
      </trkpt>
      <trkpt lat="43.68861" lon="3.04116">
        <ele>691.20001220703</ele>
        <time>2023-05-28T12:05:16.000Z</time>
      </trkpt>
      <trkpt lat="43.68863" lon="3.04115">
        <ele>690.79998779297</ele>
        <time>2023-05-28T12:05:18.000Z</time>
      </trkpt>
      <trkpt lat="43.68869" lon="3.04111">
        <ele>690</ele>
        <time>2023-05-28T12:05:24.000Z</time>
      </trkpt>
      <trkpt lat="43.68873" lon="3.04109">
        <ele>689.59997558594</ele>
        <time>2023-05-28T12:05:28.000Z</time>
      </trkpt>
      <trkpt lat="43.68879" lon="3.04105">
        <ele>689</ele>
        <time>2023-05-28T12:05:34.000Z</time>
      </trkpt>
      <trkpt lat="43.68881" lon="3.04105">
        <ele>688.79998779297</ele>
        <time>2023-05-28T12:05:36.000Z</time>
      </trkpt>
      <trkpt lat="43.68893" lon="3.04104">
        <ele>688.40002441406</ele>
        <time>2023-05-28T12:05:47.000Z</time>
      </trkpt>
      <trkpt lat="43.68898" lon="3.04102">
        <ele>687.79998779297</ele>
        <time>2023-05-28T12:05:52.000Z</time>
      </trkpt>
      <trkpt lat="43.68902" lon="3.04097">
        <ele>687.20001220703</ele>
        <time>2023-05-28T12:05:57.000Z</time>
      </trkpt>
      <trkpt lat="43.68902" lon="3.04093">
        <ele>686.79998779297</ele>
        <time>2023-05-28T12:06:00.000Z</time>
      </trkpt>
      <trkpt lat="43.689" lon="3.04089">
        <ele>686.40002441406</ele>
        <time>2023-05-28T12:06:03.000Z</time>
      </trkpt>
      <trkpt lat="43.68898" lon="3.04088">
        <ele>686.40002441406</ele>
        <time>2023-05-28T12:06:05.000Z</time>
      </trkpt>
      <trkpt lat="43.68897" lon="3.04088">
        <ele>686.40002441406</ele>
        <time>2023-05-28T12:06:06.000Z</time>
      </trkpt>
      <trkpt lat="43.68895" lon="3.04089">
        <ele>686.20001220703</ele>
        <time>2023-05-28T12:06:08.000Z</time>
      </trkpt>
      <trkpt lat="43.6889" lon="3.0409">
        <ele>685.79998779297</ele>
        <time>2023-05-28T12:06:13.000Z</time>
      </trkpt>
      <trkpt lat="43.68887" lon="3.0409">
        <ele>685</ele>
        <time>2023-05-28T12:06:16.000Z</time>
      </trkpt>
      <trkpt lat="43.68886" lon="3.04091">
        <ele>684.79998779297</ele>
        <time>2023-05-28T12:06:17.000Z</time>
      </trkpt>
      <trkpt lat="43.68884" lon="3.04091">
        <ele>684.40002441406</ele>
        <time>2023-05-28T12:06:19.000Z</time>
      </trkpt>
      <trkpt lat="43.68879" lon="3.04092">
        <ele>683.79998779297</ele>
        <time>2023-05-28T12:06:23.000Z</time>
      </trkpt>
      <trkpt lat="43.68878" lon="3.04092">
        <ele>683.79998779297</ele>
        <time>2023-05-28T12:06:24.000Z</time>
      </trkpt>
      <trkpt lat="43.6887" lon="3.04093">
        <ele>682.79998779297</ele>
        <time>2023-05-28T12:06:32.000Z</time>
      </trkpt>
      <trkpt lat="43.68869" lon="3.04093">
        <ele>682.59997558594</ele>
        <time>2023-05-28T12:06:33.000Z</time>
      </trkpt>
      <trkpt lat="43.68861" lon="3.04095">
        <ele>682</ele>
        <time>2023-05-28T12:06:40.000Z</time>
      </trkpt>
      <trkpt lat="43.68857" lon="3.04096">
        <ele>681.59997558594</ele>
        <time>2023-05-28T12:06:43.000Z</time>
      </trkpt>
      <trkpt lat="43.68851" lon="3.04098">
        <ele>680.79998779297</ele>
        <time>2023-05-28T12:06:49.000Z</time>
      </trkpt>
      <trkpt lat="43.68849" lon="3.04098">
        <ele>680.59997558594</ele>
        <time>2023-05-28T12:06:50.000Z</time>
      </trkpt>
      <trkpt lat="43.68843" lon="3.04099">
        <ele>680</ele>
        <time>2023-05-28T12:06:56.000Z</time>
      </trkpt>
      <trkpt lat="43.68838" lon="3.041">
        <ele>679.59997558594</ele>
        <time>2023-05-28T12:07:00.000Z</time>
      </trkpt>
      <trkpt lat="43.68832" lon="3.04102">
        <ele>679</ele>
        <time>2023-05-28T12:07:05.000Z</time>
      </trkpt>
      <trkpt lat="43.68828" lon="3.04103">
        <ele>678.40002441406</ele>
        <time>2023-05-28T12:07:09.000Z</time>
      </trkpt>
      <trkpt lat="43.68823" lon="3.04104">
        <ele>678</ele>
        <time>2023-05-28T12:07:13.000Z</time>
      </trkpt>
      <trkpt lat="43.68818" lon="3.04104">
        <ele>677.40002441406</ele>
        <time>2023-05-28T12:07:18.000Z</time>
      </trkpt>
      <trkpt lat="43.68816" lon="3.04105">
        <ele>677</ele>
        <time>2023-05-28T12:07:21.000Z</time>
      </trkpt>
      <trkpt lat="43.68816" lon="3.04105">
        <ele>676.40002441406</ele>
        <time>2023-05-28T12:07:26.000Z</time>
      </trkpt>
      <trkpt lat="43.68815" lon="3.04106">
        <ele>676.20001220703</ele>
        <time>2023-05-28T12:07:27.000Z</time>
      </trkpt>
      <trkpt lat="43.68815" lon="3.04106">
        <ele>676.20001220703</ele>
        <time>2023-05-28T12:07:36.000Z</time>
      </trkpt>
      <trkpt lat="43.68814" lon="3.04106">
        <ele>676.20001220703</ele>
        <time>2023-05-28T12:07:42.000Z</time>
      </trkpt>
      <trkpt lat="43.68814" lon="3.04106">
        <ele>675.79998779297</ele>
        <time>2023-05-28T12:07:51.000Z</time>
      </trkpt>
      <trkpt lat="43.68814" lon="3.04106">
        <ele>677.40002441406</ele>
        <time>2023-05-28T12:07:59.000Z</time>
      </trkpt>
      <trkpt lat="43.68814" lon="3.04106">
        <ele>677.59997558594</ele>
        <time>2023-05-28T12:08:00.000Z</time>
      </trkpt>
      <trkpt lat="43.68813" lon="3.04106">
        <ele>676.40002441406</ele>
        <time>2023-05-28T12:08:10.000Z</time>
      </trkpt>
      <trkpt lat="43.68813" lon="3.04107">
        <ele>676.59997558594</ele>
        <time>2023-05-28T12:08:19.000Z</time>
      </trkpt>
      <trkpt lat="43.68814" lon="3.04109">
        <ele>676.59997558594</ele>
        <time>2023-05-28T12:08:30.000Z</time>
      </trkpt>
      <trkpt lat="43.68814" lon="3.04109">
        <ele>677</ele>
        <time>2023-05-28T12:08:40.000Z</time>
      </trkpt>
      <trkpt lat="43.68815" lon="3.04109">
        <ele>677</ele>
        <time>2023-05-28T12:08:46.000Z</time>
      </trkpt>
      <trkpt lat="43.68815" lon="3.04109">
        <ele>676.40002441406</ele>
        <time>2023-05-28T12:08:56.000Z</time>
      </trkpt>
      <trkpt lat="43.68816" lon="3.04109">
        <ele>677.20001220703</ele>
        <time>2023-05-28T12:09:02.000Z</time>
      </trkpt>
      <trkpt lat="43.68815" lon="3.04109">
        <ele>676.79998779297</ele>
        <time>2023-05-28T12:09:11.000Z</time>
      </trkpt>
      <trkpt lat="43.68815" lon="3.04109">
        <ele>676.40002441406</ele>
        <time>2023-05-28T12:09:25.000Z</time>
      </trkpt>
      <trkpt lat="43.68815" lon="3.04108">
        <ele>676.40002441406</ele>
        <time>2023-05-28T12:09:32.000Z</time>
      </trkpt>
      <trkpt lat="43.68815" lon="3.04108">
        <ele>676.79998779297</ele>
        <time>2023-05-28T12:09:47.000Z</time>
      </trkpt>
      <trkpt lat="43.68815" lon="3.04108">
        <ele>675.79998779297</ele>
        <time>2023-05-28T12:09:56.000Z</time>
      </trkpt>
      <trkpt lat="43.68814" lon="3.04108">
        <ele>675.79998779297</ele>
        <time>2023-05-28T12:10:05.000Z</time>
      </trkpt>
      <trkpt lat="43.68814" lon="3.04107">
        <ele>676.20001220703</ele>
        <time>2023-05-28T12:10:15.000Z</time>
      </trkpt>
      <trkpt lat="43.68814" lon="3.04107">
        <ele>675.79998779297</ele>
        <time>2023-05-28T12:10:29.000Z</time>
      </trkpt>
      <trkpt lat="43.68814" lon="3.04108">
        <ele>676.20001220703</ele>
        <time>2023-05-28T12:10:41.000Z</time>
      </trkpt>
      <trkpt lat="43.68814" lon="3.04108">
        <ele>676.59997558594</ele>
        <time>2023-05-28T12:10:51.000Z</time>
      </trkpt>
      <trkpt lat="43.68814" lon="3.04108">
        <ele>677</ele>
        <time>2023-05-28T12:10:59.000Z</time>
      </trkpt>
      <trkpt lat="43.68814" lon="3.04108">
        <ele>676.59997558594</ele>
        <time>2023-05-28T12:11:07.000Z</time>
      </trkpt>
      <trkpt lat="43.68814" lon="3.04108">
        <ele>676.59997558594</ele>
        <time>2023-05-28T12:11:15.000Z</time>
      </trkpt>
      <trkpt lat="43.68814" lon="3.04108">
        <ele>676.40002441406</ele>
        <time>2023-05-28T12:11:24.000Z</time>
      </trkpt>
      <trkpt lat="43.68812" lon="3.04111">
        <ele>677.20001220703</ele>
        <time>2023-05-28T12:11:33.000Z</time>
      </trkpt>
      <trkpt lat="43.68806" lon="3.04112">
        <ele>676.59997558594</ele>
        <time>2023-05-28T12:11:39.000Z</time>
      </trkpt>
      <trkpt lat="43.68796" lon="3.04113">
        <ele>676</ele>
        <time>2023-05-28T12:11:47.000Z</time>
      </trkpt>
      <trkpt lat="43.68787" lon="3.04114">
        <ele>675.20001220703</ele>
        <time>2023-05-28T12:11:55.000Z</time>
      </trkpt>
      <trkpt lat="43.68784" lon="3.04114">
        <ele>675</ele>
        <time>2023-05-28T12:11:57.000Z</time>
      </trkpt>
      <trkpt lat="43.68779" lon="3.04117">
        <ele>674</ele>
        <time>2023-05-28T12:12:02.000Z</time>
      </trkpt>
      <trkpt lat="43.68777" lon="3.04118">
        <ele>673.79998779297</ele>
        <time>2023-05-28T12:12:04.000Z</time>
      </trkpt>
      <trkpt lat="43.6877" lon="3.04123">
        <ele>672.79998779297</ele>
        <time>2023-05-28T12:12:11.000Z</time>
      </trkpt>
      <trkpt lat="43.68769" lon="3.04125">
        <ele>672.59997558594</ele>
        <time>2023-05-28T12:12:13.000Z</time>
      </trkpt>
      <trkpt lat="43.68765" lon="3.04128">
        <ele>671.79998779297</ele>
        <time>2023-05-28T12:12:17.000Z</time>
      </trkpt>
      <trkpt lat="43.6876" lon="3.04134">
        <ele>671.20001220703</ele>
        <time>2023-05-28T12:12:23.000Z</time>
      </trkpt>
      <trkpt lat="43.68756" lon="3.04136">
        <ele>670.79998779297</ele>
        <time>2023-05-28T12:12:27.000Z</time>
      </trkpt>
      <trkpt lat="43.68754" lon="3.04138">
        <ele>670.40002441406</ele>
        <time>2023-05-28T12:12:30.000Z</time>
      </trkpt>
      <trkpt lat="43.6875" lon="3.04141">
        <ele>669.79998779297</ele>
        <time>2023-05-28T12:12:34.000Z</time>
      </trkpt>
      <trkpt lat="43.68746" lon="3.04143">
        <ele>669.20001220703</ele>
        <time>2023-05-28T12:12:38.000Z</time>
      </trkpt>
      <trkpt lat="43.68745" lon="3.04145">
        <ele>669</ele>
        <time>2023-05-28T12:12:40.000Z</time>
      </trkpt>
      <trkpt lat="43.68743" lon="3.04148">
        <ele>668.79998779297</ele>
        <time>2023-05-28T12:12:42.000Z</time>
      </trkpt>
      <trkpt lat="43.68742" lon="3.0415">
        <ele>668.59997558594</ele>
        <time>2023-05-28T12:12:44.000Z</time>
      </trkpt>
      <trkpt lat="43.68736" lon="3.04159">
        <ele>667.79998779297</ele>
        <time>2023-05-28T12:12:52.000Z</time>
      </trkpt>
      <trkpt lat="43.68735" lon="3.04161">
        <ele>667.59997558594</ele>
        <time>2023-05-28T12:12:54.000Z</time>
      </trkpt>
      <trkpt lat="43.68731" lon="3.04169">
        <ele>666.79998779297</ele>
        <time>2023-05-28T12:13:00.000Z</time>
      </trkpt>
      <trkpt lat="43.6873" lon="3.04171">
        <ele>666.40002441406</ele>
        <time>2023-05-28T12:13:02.000Z</time>
      </trkpt>
      <trkpt lat="43.68727" lon="3.04178">
        <ele>665.79998779297</ele>
        <time>2023-05-28T12:13:07.000Z</time>
      </trkpt>
      <trkpt lat="43.68726" lon="3.04182">
        <ele>665.40002441406</ele>
        <time>2023-05-28T12:13:10.000Z</time>
      </trkpt>
      <trkpt lat="43.68722" lon="3.04192">
        <ele>664.79998779297</ele>
        <time>2023-05-28T12:13:17.000Z</time>
      </trkpt>
      <trkpt lat="43.68721" lon="3.04196">
        <ele>664.40002441406</ele>
        <time>2023-05-28T12:13:20.000Z</time>
      </trkpt>
      <trkpt lat="43.6872" lon="3.04199">
        <ele>664</ele>
        <time>2023-05-28T12:13:22.000Z</time>
      </trkpt>
      <trkpt lat="43.68719" lon="3.04203">
        <ele>663.40002441406</ele>
        <time>2023-05-28T12:13:25.000Z</time>
      </trkpt>
      <trkpt lat="43.68716" lon="3.04209">
        <ele>662.79998779297</ele>
        <time>2023-05-28T12:13:30.000Z</time>
      </trkpt>
      <trkpt lat="43.68713" lon="3.0422">
        <ele>662.20001220703</ele>
        <time>2023-05-28T12:13:38.000Z</time>
      </trkpt>
      <trkpt lat="43.68713" lon="3.04222">
        <ele>662</ele>
        <time>2023-05-28T12:13:39.000Z</time>
      </trkpt>
      <trkpt lat="43.68711" lon="3.0423">
        <ele>661.40002441406</ele>
        <time>2023-05-28T12:13:45.000Z</time>
      </trkpt>
      <trkpt lat="43.68711" lon="3.04233">
        <ele>661.20001220703</ele>
        <time>2023-05-28T12:13:47.000Z</time>
      </trkpt>
      <trkpt lat="43.68708" lon="3.04236">
        <ele>660.79998779297</ele>
        <time>2023-05-28T12:13:51.000Z</time>
      </trkpt>
      <trkpt lat="43.68706" lon="3.04234">
        <ele>660.40002441406</ele>
        <time>2023-05-28T12:13:53.000Z</time>
      </trkpt>
      <trkpt lat="43.68704" lon="3.04231">
        <ele>660</ele>
        <time>2023-05-28T12:13:56.000Z</time>
      </trkpt>
      <trkpt lat="43.68703" lon="3.0423">
        <ele>659.79998779297</ele>
        <time>2023-05-28T12:13:57.000Z</time>
      </trkpt>
      <trkpt lat="43.68703" lon="3.04229">
        <ele>659.59997558594</ele>
        <time>2023-05-28T12:13:58.000Z</time>
      </trkpt>
      <trkpt lat="43.68703" lon="3.04224">
        <ele>659</ele>
        <time>2023-05-28T12:14:02.000Z</time>
      </trkpt>
      <trkpt lat="43.68703" lon="3.04221">
        <ele>658.79998779297</ele>
        <time>2023-05-28T12:14:04.000Z</time>
      </trkpt>
      <trkpt lat="43.68704" lon="3.04217">
        <ele>658.59997558594</ele>
        <time>2023-05-28T12:14:07.000Z</time>
      </trkpt>
      <trkpt lat="43.68706" lon="3.04211">
        <ele>658.40002441406</ele>
        <time>2023-05-28T12:14:12.000Z</time>
      </trkpt>
      <trkpt lat="43.68707" lon="3.04206">
        <ele>658</ele>
        <time>2023-05-28T12:14:15.000Z</time>
      </trkpt>
      <trkpt lat="43.68708" lon="3.042">
        <ele>657.20001220703</ele>
        <time>2023-05-28T12:14:20.000Z</time>
      </trkpt>
      <trkpt lat="43.68708" lon="3.04197">
        <ele>656.79998779297</ele>
        <time>2023-05-28T12:14:22.000Z</time>
      </trkpt>
      <trkpt lat="43.6871" lon="3.04188">
        <ele>656.40002441406</ele>
        <time>2023-05-28T12:14:28.000Z</time>
      </trkpt>
      <trkpt lat="43.6871" lon="3.04187">
        <ele>656.20001220703</ele>
        <time>2023-05-28T12:14:29.000Z</time>
      </trkpt>
      <trkpt lat="43.68711" lon="3.04181">
        <ele>656.20001220703</ele>
        <time>2023-05-28T12:14:33.000Z</time>
      </trkpt>
      <trkpt lat="43.68711" lon="3.0418">
        <ele>656.20001220703</ele>
        <time>2023-05-28T12:14:34.000Z</time>
      </trkpt>
      <trkpt lat="43.68712" lon="3.04173">
        <ele>655.79998779297</ele>
        <time>2023-05-28T12:14:39.000Z</time>
      </trkpt>
      <trkpt lat="43.68712" lon="3.04169">
        <ele>655.40002441406</ele>
        <time>2023-05-28T12:14:42.000Z</time>
      </trkpt>
      <trkpt lat="43.68713" lon="3.04158">
        <ele>654.79998779297</ele>
        <time>2023-05-28T12:14:49.000Z</time>
      </trkpt>
      <trkpt lat="43.68713" lon="3.04153">
        <ele>654.40002441406</ele>
        <time>2023-05-28T12:14:52.000Z</time>
      </trkpt>
      <trkpt lat="43.68716" lon="3.04141">
        <ele>653.79998779297</ele>
        <time>2023-05-28T12:15:00.000Z</time>
      </trkpt>
      <trkpt lat="43.6872" lon="3.0413">
        <ele>653.40002441406</ele>
        <time>2023-05-28T12:15:08.000Z</time>
      </trkpt>
      <trkpt lat="43.68723" lon="3.04124">
        <ele>652.79998779297</ele>
        <time>2023-05-28T12:15:13.000Z</time>
      </trkpt>
      <trkpt lat="43.68725" lon="3.0412">
        <ele>652.40002441406</ele>
        <time>2023-05-28T12:15:16.000Z</time>
      </trkpt>
      <trkpt lat="43.68727" lon="3.04109">
        <ele>652</ele>
        <time>2023-05-28T12:15:24.000Z</time>
      </trkpt>
      <trkpt lat="43.68726" lon="3.04108">
        <ele>651.59997558594</ele>
        <time>2023-05-28T12:15:26.000Z</time>
      </trkpt>
      <trkpt lat="43.68722" lon="3.04105">
        <ele>651</ele>
        <time>2023-05-28T12:15:30.000Z</time>
      </trkpt>
      <trkpt lat="43.68719" lon="3.04105">
        <ele>650.59997558594</ele>
        <time>2023-05-28T12:15:33.000Z</time>
      </trkpt>
      <trkpt lat="43.68717" lon="3.04108">
        <ele>650</ele>
        <time>2023-05-28T12:15:36.000Z</time>
      </trkpt>
      <trkpt lat="43.68717" lon="3.04109">
        <ele>650</ele>
        <time>2023-05-28T12:15:37.000Z</time>
      </trkpt>
      <trkpt lat="43.68716" lon="3.0411">
        <ele>649.79998779297</ele>
        <time>2023-05-28T12:15:38.000Z</time>
      </trkpt>
      <trkpt lat="43.68715" lon="3.04114">
        <ele>649.59997558594</ele>
        <time>2023-05-28T12:15:41.000Z</time>
      </trkpt>
      <trkpt lat="43.68713" lon="3.04115">
        <ele>649.20001220703</ele>
        <time>2023-05-28T12:15:43.000Z</time>
      </trkpt>
      <trkpt lat="43.68711" lon="3.04116">
        <ele>648.79998779297</ele>
        <time>2023-05-28T12:15:45.000Z</time>
      </trkpt>
      <trkpt lat="43.6871" lon="3.04119">
        <ele>648.40002441406</ele>
        <time>2023-05-28T12:15:47.000Z</time>
      </trkpt>
      <trkpt lat="43.68709" lon="3.04122">
        <ele>648</ele>
        <time>2023-05-28T12:15:50.000Z</time>
      </trkpt>
      <trkpt lat="43.68707" lon="3.04126">
        <ele>647.40002441406</ele>
        <time>2023-05-28T12:15:53.000Z</time>
      </trkpt>
      <trkpt lat="43.68705" lon="3.0413">
        <ele>646.79998779297</ele>
        <time>2023-05-28T12:15:57.000Z</time>
      </trkpt>
      <trkpt lat="43.68703" lon="3.04136">
        <ele>646.40002441406</ele>
        <time>2023-05-28T12:16:01.000Z</time>
      </trkpt>
      <trkpt lat="43.687" lon="3.0414">
        <ele>645.59997558594</ele>
        <time>2023-05-28T12:16:05.000Z</time>
      </trkpt>
      <trkpt lat="43.687" lon="3.04141">
        <ele>645.59997558594</ele>
        <time>2023-05-28T12:16:06.000Z</time>
      </trkpt>
      <trkpt lat="43.68698" lon="3.04146">
        <ele>645.40002441406</ele>
        <time>2023-05-28T12:16:09.000Z</time>
      </trkpt>
      <trkpt lat="43.68697" lon="3.0415">
        <ele>644.79998779297</ele>
        <time>2023-05-28T12:16:12.000Z</time>
      </trkpt>
      <trkpt lat="43.68695" lon="3.04155">
        <ele>644.20001220703</ele>
        <time>2023-05-28T12:16:16.000Z</time>
      </trkpt>
      <trkpt lat="43.68694" lon="3.04158">
        <ele>643.79998779297</ele>
        <time>2023-05-28T12:16:18.000Z</time>
      </trkpt>
      <trkpt lat="43.68694" lon="3.04159">
        <ele>643.59997558594</ele>
        <time>2023-05-28T12:16:19.000Z</time>
      </trkpt>
      <trkpt lat="43.68693" lon="3.04161">
        <ele>643.20001220703</ele>
        <time>2023-05-28T12:16:21.000Z</time>
      </trkpt>
      <trkpt lat="43.68691" lon="3.04162">
        <ele>642.59997558594</ele>
        <time>2023-05-28T12:16:24.000Z</time>
      </trkpt>
      <trkpt lat="43.6869" lon="3.04164">
        <ele>642.20001220703</ele>
        <time>2023-05-28T12:16:27.000Z</time>
      </trkpt>
      <trkpt lat="43.6869" lon="3.04165">
        <ele>642</ele>
        <time>2023-05-28T12:16:29.000Z</time>
      </trkpt>
      <trkpt lat="43.6869" lon="3.04164">
        <ele>642</ele>
        <time>2023-05-28T12:16:30.000Z</time>
      </trkpt>
      <trkpt lat="43.6869" lon="3.04165">
        <ele>641</ele>
        <time>2023-05-28T12:16:37.000Z</time>
      </trkpt>
      <trkpt lat="43.68691" lon="3.0417">
        <ele>640.79998779297</ele>
        <time>2023-05-28T12:16:51.000Z</time>
      </trkpt>
      <trkpt lat="43.68693" lon="3.04177">
        <ele>641.40002441406</ele>
        <time>2023-05-28T12:17:00.000Z</time>
      </trkpt>
      <trkpt lat="43.68693" lon="3.04178">
        <ele>641.20001220703</ele>
        <time>2023-05-28T12:17:09.000Z</time>
      </trkpt>
      <trkpt lat="43.68695" lon="3.04175">
        <ele>640.79998779297</ele>
        <time>2023-05-28T12:17:23.000Z</time>
      </trkpt>
      <trkpt lat="43.68695" lon="3.04178">
        <ele>641.79998779297</ele>
        <time>2023-05-28T12:17:30.000Z</time>
      </trkpt>
      <trkpt lat="43.68691" lon="3.04186">
        <ele>640.79998779297</ele>
        <time>2023-05-28T12:17:36.000Z</time>
      </trkpt>
      <trkpt lat="43.68689" lon="3.04188">
        <ele>640.59997558594</ele>
        <time>2023-05-28T12:17:38.000Z</time>
      </trkpt>
      <trkpt lat="43.68687" lon="3.04192">
        <ele>640.40002441406</ele>
        <time>2023-05-28T12:17:42.000Z</time>
      </trkpt>
      <trkpt lat="43.68682" lon="3.04197">
        <ele>639.79998779297</ele>
        <time>2023-05-28T12:17:48.000Z</time>
      </trkpt>
      <trkpt lat="43.68681" lon="3.04198">
        <ele>639.59997558594</ele>
        <time>2023-05-28T12:17:49.000Z</time>
      </trkpt>
      <trkpt lat="43.68676" lon="3.04202">
        <ele>639</ele>
        <time>2023-05-28T12:17:54.000Z</time>
      </trkpt>
      <trkpt lat="43.68676" lon="3.04203">
        <ele>638.79998779297</ele>
        <time>2023-05-28T12:17:55.000Z</time>
      </trkpt>
      <trkpt lat="43.68672" lon="3.04206">
        <ele>638.40002441406</ele>
        <time>2023-05-28T12:17:59.000Z</time>
      </trkpt>
      <trkpt lat="43.6867" lon="3.04207">
        <ele>638.20001220703</ele>
        <time>2023-05-28T12:18:01.000Z</time>
      </trkpt>
      <trkpt lat="43.68666" lon="3.0421">
        <ele>637.79998779297</ele>
        <time>2023-05-28T12:18:05.000Z</time>
      </trkpt>
      <trkpt lat="43.68665" lon="3.04211">
        <ele>637.79998779297</ele>
        <time>2023-05-28T12:18:06.000Z</time>
      </trkpt>
      <trkpt lat="43.68659" lon="3.04216">
        <ele>636.79998779297</ele>
        <time>2023-05-28T12:18:12.000Z</time>
      </trkpt>
      <trkpt lat="43.68658" lon="3.04216">
        <ele>636.79998779297</ele>
        <time>2023-05-28T12:18:13.000Z</time>
      </trkpt>
      <trkpt lat="43.68651" lon="3.04218">
        <ele>636</ele>
        <time>2023-05-28T12:18:20.000Z</time>
      </trkpt>
      <trkpt lat="43.68646" lon="3.04217">
        <ele>635.59997558594</ele>
        <time>2023-05-28T12:18:24.000Z</time>
      </trkpt>
      <trkpt lat="43.68643" lon="3.04217">
        <ele>635.40002441406</ele>
        <time>2023-05-28T12:18:27.000Z</time>
      </trkpt>
      <trkpt lat="43.68638" lon="3.04218">
        <ele>634.79998779297</ele>
        <time>2023-05-28T12:18:32.000Z</time>
      </trkpt>
      <trkpt lat="43.68637" lon="3.04219">
        <ele>634.59997558594</ele>
        <time>2023-05-28T12:18:33.000Z</time>
      </trkpt>
      <trkpt lat="43.68634" lon="3.0422">
        <ele>634.59997558594</ele>
        <time>2023-05-28T12:18:35.000Z</time>
      </trkpt>
      <trkpt lat="43.6863" lon="3.0422">
        <ele>634.59997558594</ele>
        <time>2023-05-28T12:18:39.000Z</time>
      </trkpt>
      <trkpt lat="43.68625" lon="3.04221">
        <ele>634.20001220703</ele>
        <time>2023-05-28T12:18:43.000Z</time>
      </trkpt>
      <trkpt lat="43.6862" lon="3.04224">
        <ele>633.59997558594</ele>
        <time>2023-05-28T12:18:48.000Z</time>
      </trkpt>
      <trkpt lat="43.6862" lon="3.04226">
        <ele>633.59997558594</ele>
        <time>2023-05-28T12:18:49.000Z</time>
      </trkpt>
      <trkpt lat="43.68618" lon="3.04238">
        <ele>633.40002441406</ele>
        <time>2023-05-28T12:18:57.000Z</time>
      </trkpt>
      <trkpt lat="43.68622" lon="3.04248">
        <ele>633.20001220703</ele>
        <time>2023-05-28T12:19:05.000Z</time>
      </trkpt>
      <trkpt lat="43.68627" lon="3.04259">
        <ele>632.79998779297</ele>
        <time>2023-05-28T12:19:13.000Z</time>
      </trkpt>
      <trkpt lat="43.68629" lon="3.04261">
        <ele>632.59997558594</ele>
        <time>2023-05-28T12:19:15.000Z</time>
      </trkpt>
      <trkpt lat="43.68633" lon="3.04268">
        <ele>632.59997558594</ele>
        <time>2023-05-28T12:19:21.000Z</time>
      </trkpt>
      <trkpt lat="43.68639" lon="3.04277">
        <ele>632.20001220703</ele>
        <time>2023-05-28T12:19:29.000Z</time>
      </trkpt>
      <trkpt lat="43.68639" lon="3.04283">
        <ele>631.79998779297</ele>
        <time>2023-05-28T12:19:34.000Z</time>
      </trkpt>
      <trkpt lat="43.68639" lon="3.04283">
        <ele>631.59997558594</ele>
        <time>2023-05-28T12:19:35.000Z</time>
      </trkpt>
      <trkpt lat="43.68635" lon="3.04281">
        <ele>631</ele>
        <time>2023-05-28T12:19:40.000Z</time>
      </trkpt>
      <trkpt lat="43.68632" lon="3.04279">
        <ele>630.59997558594</ele>
        <time>2023-05-28T12:19:43.000Z</time>
      </trkpt>
      <trkpt lat="43.68631" lon="3.04278">
        <ele>630.59997558594</ele>
        <time>2023-05-28T12:19:44.000Z</time>
      </trkpt>
      <trkpt lat="43.68627" lon="3.04276">
        <ele>630</ele>
        <time>2023-05-28T12:19:48.000Z</time>
      </trkpt>
      <trkpt lat="43.68623" lon="3.04272">
        <ele>629.59997558594</ele>
        <time>2023-05-28T12:19:53.000Z</time>
      </trkpt>
      <trkpt lat="43.68621" lon="3.04271">
        <ele>629.20001220703</ele>
        <time>2023-05-28T12:19:55.000Z</time>
      </trkpt>
      <trkpt lat="43.68619" lon="3.04268">
        <ele>628.40002441406</ele>
        <time>2023-05-28T12:19:58.000Z</time>
      </trkpt>
      <trkpt lat="43.68618" lon="3.04268">
        <ele>628.20001220703</ele>
        <time>2023-05-28T12:19:59.000Z</time>
      </trkpt>
      <trkpt lat="43.68614" lon="3.04267">
        <ele>627.79998779297</ele>
        <time>2023-05-28T12:20:02.000Z</time>
      </trkpt>
      <trkpt lat="43.68613" lon="3.04266">
        <ele>627.79998779297</ele>
        <time>2023-05-28T12:20:03.000Z</time>
      </trkpt>
      <trkpt lat="43.68607" lon="3.04265">
        <ele>627.40002441406</ele>
        <time>2023-05-28T12:20:09.000Z</time>
      </trkpt>
      <trkpt lat="43.68606" lon="3.04265">
        <ele>627.40002441406</ele>
        <time>2023-05-28T12:20:10.000Z</time>
      </trkpt>
      <trkpt lat="43.68604" lon="3.04264">
        <ele>627</ele>
        <time>2023-05-28T12:20:12.000Z</time>
      </trkpt>
      <trkpt lat="43.686" lon="3.04262">
        <ele>626.40002441406</ele>
        <time>2023-05-28T12:20:16.000Z</time>
      </trkpt>
      <trkpt lat="43.68595" lon="3.04258">
        <ele>625.79998779297</ele>
        <time>2023-05-28T12:20:21.000Z</time>
      </trkpt>
      <trkpt lat="43.68592" lon="3.04255">
        <ele>625.40002441406</ele>
        <time>2023-05-28T12:20:25.000Z</time>
      </trkpt>
      <trkpt lat="43.68591" lon="3.04254">
        <ele>625.20001220703</ele>
        <time>2023-05-28T12:20:27.000Z</time>
      </trkpt>
      <trkpt lat="43.68589" lon="3.04253">
        <ele>625</ele>
        <time>2023-05-28T12:20:28.000Z</time>
      </trkpt>
      <trkpt lat="43.68587" lon="3.0425">
        <ele>624.40002441406</ele>
        <time>2023-05-28T12:20:31.000Z</time>
      </trkpt>
      <trkpt lat="43.6858" lon="3.04245">
        <ele>623.40002441406</ele>
        <time>2023-05-28T12:20:38.000Z</time>
      </trkpt>
      <trkpt lat="43.68579" lon="3.04245">
        <ele>623.40002441406</ele>
        <time>2023-05-28T12:20:39.000Z</time>
      </trkpt>
      <trkpt lat="43.68573" lon="3.04241">
        <ele>622.59997558594</ele>
        <time>2023-05-28T12:20:45.000Z</time>
      </trkpt>
      <trkpt lat="43.68571" lon="3.0424">
        <ele>622.20001220703</ele>
        <time>2023-05-28T12:20:47.000Z</time>
      </trkpt>
      <trkpt lat="43.68565" lon="3.04236">
        <ele>621.59997558594</ele>
        <time>2023-05-28T12:20:53.000Z</time>
      </trkpt>
      <trkpt lat="43.68556" lon="3.04233">
        <ele>621.20001220703</ele>
        <time>2023-05-28T12:21:01.000Z</time>
      </trkpt>
      <trkpt lat="43.68554" lon="3.04231">
        <ele>620.59997558594</ele>
        <time>2023-05-28T12:21:04.000Z</time>
      </trkpt>
      <trkpt lat="43.68551" lon="3.0423">
        <ele>620</ele>
        <time>2023-05-28T12:21:06.000Z</time>
      </trkpt>
      <trkpt lat="43.68544" lon="3.04229">
        <ele>619</ele>
        <time>2023-05-28T12:21:13.000Z</time>
      </trkpt>
      <trkpt lat="43.68543" lon="3.04228">
        <ele>619</ele>
        <time>2023-05-28T12:21:14.000Z</time>
      </trkpt>
      <trkpt lat="43.68534" lon="3.04227">
        <ele>618.20001220703</ele>
        <time>2023-05-28T12:21:22.000Z</time>
      </trkpt>
      <trkpt lat="43.68533" lon="3.04228">
        <ele>618.20001220703</ele>
        <time>2023-05-28T12:21:23.000Z</time>
      </trkpt>
      <trkpt lat="43.68531" lon="3.04228">
        <ele>617.79998779297</ele>
        <time>2023-05-28T12:21:25.000Z</time>
      </trkpt>
      <trkpt lat="43.6853" lon="3.04229">
        <ele>617.79998779297</ele>
        <time>2023-05-28T12:21:28.000Z</time>
      </trkpt>
      <trkpt lat="43.6853" lon="3.04229">
        <ele>617.79998779297</ele>
        <time>2023-05-28T12:21:30.000Z</time>
      </trkpt>
      <trkpt lat="43.6853" lon="3.04229">
        <ele>617.79998779297</ele>
        <time>2023-05-28T12:21:37.000Z</time>
      </trkpt>
      <trkpt lat="43.68529" lon="3.04229">
        <ele>617.79998779297</ele>
        <time>2023-05-28T12:21:48.000Z</time>
      </trkpt>
      <trkpt lat="43.68529" lon="3.04229">
        <ele>617.59997558594</ele>
        <time>2023-05-28T12:21:55.000Z</time>
      </trkpt>
      <trkpt lat="43.6853" lon="3.04226">
        <ele>617.20001220703</ele>
        <time>2023-05-28T12:22:07.000Z</time>
      </trkpt>
      <trkpt lat="43.6853" lon="3.04225">
        <ele>617.59997558594</ele>
        <time>2023-05-28T12:22:20.000Z</time>
      </trkpt>
      <trkpt lat="43.68528" lon="3.04222">
        <ele>617.79998779297</ele>
        <time>2023-05-28T12:22:31.000Z</time>
      </trkpt>
      <trkpt lat="43.6852" lon="3.04217">
        <ele>616.79998779297</ele>
        <time>2023-05-28T12:22:39.000Z</time>
      </trkpt>
      <trkpt lat="43.68511" lon="3.0421">
        <ele>616.40002441406</ele>
        <time>2023-05-28T12:22:48.000Z</time>
      </trkpt>
      <trkpt lat="43.6851" lon="3.04202">
        <ele>616</ele>
        <time>2023-05-28T12:22:55.000Z</time>
      </trkpt>
      <trkpt lat="43.68509" lon="3.042">
        <ele>615.79998779297</ele>
        <time>2023-05-28T12:22:57.000Z</time>
      </trkpt>
      <trkpt lat="43.68509" lon="3.04198">
        <ele>615.20001220703</ele>
        <time>2023-05-28T12:23:03.000Z</time>
      </trkpt>
      <trkpt lat="43.68509" lon="3.04197">
        <ele>614.59997558594</ele>
        <time>2023-05-28T12:23:10.000Z</time>
      </trkpt>
      <trkpt lat="43.68507" lon="3.04196">
        <ele>614.40002441406</ele>
        <time>2023-05-28T12:23:12.000Z</time>
      </trkpt>
      <trkpt lat="43.68504" lon="3.04192">
        <ele>614.20001220703</ele>
        <time>2023-05-28T12:23:18.000Z</time>
      </trkpt>
      <trkpt lat="43.68501" lon="3.04189">
        <ele>613.59997558594</ele>
        <time>2023-05-28T12:23:23.000Z</time>
      </trkpt>
      <trkpt lat="43.685" lon="3.04188">
        <ele>613.40002441406</ele>
        <time>2023-05-28T12:23:25.000Z</time>
      </trkpt>
      <trkpt lat="43.68497" lon="3.04182">
        <ele>612.59997558594</ele>
        <time>2023-05-28T12:23:32.000Z</time>
      </trkpt>
      <trkpt lat="43.68496" lon="3.04181">
        <ele>612.59997558594</ele>
        <time>2023-05-28T12:23:33.000Z</time>
      </trkpt>
      <trkpt lat="43.68493" lon="3.04176">
        <ele>611.79998779297</ele>
        <time>2023-05-28T12:23:39.000Z</time>
      </trkpt>
      <trkpt lat="43.68493" lon="3.04175">
        <ele>611.59997558594</ele>
        <time>2023-05-28T12:23:40.000Z</time>
      </trkpt>
      <trkpt lat="43.68488" lon="3.0417">
        <ele>610.59997558594</ele>
        <time>2023-05-28T12:23:47.000Z</time>
      </trkpt>
      <trkpt lat="43.68487" lon="3.04168">
        <ele>610.59997558594</ele>
        <time>2023-05-28T12:23:49.000Z</time>
      </trkpt>
      <trkpt lat="43.68485" lon="3.04166">
        <ele>610.20001220703</ele>
        <time>2023-05-28T12:23:52.000Z</time>
      </trkpt>
      <trkpt lat="43.68484" lon="3.04165">
        <ele>610</ele>
        <time>2023-05-28T12:23:54.000Z</time>
      </trkpt>
      <trkpt lat="43.68482" lon="3.04163">
        <ele>609.59997558594</ele>
        <time>2023-05-28T12:23:58.000Z</time>
      </trkpt>
      <trkpt lat="43.68479" lon="3.04158">
        <ele>608.79998779297</ele>
        <time>2023-05-28T12:24:04.000Z</time>
      </trkpt>
      <trkpt lat="43.68477" lon="3.04155">
        <ele>608.40002441406</ele>
        <time>2023-05-28T12:24:07.000Z</time>
      </trkpt>
      <trkpt lat="43.68476" lon="3.04154">
        <ele>608.20001220703</ele>
        <time>2023-05-28T12:24:09.000Z</time>
      </trkpt>
      <trkpt lat="43.68476" lon="3.04153">
        <ele>608</ele>
        <time>2023-05-28T12:24:10.000Z</time>
      </trkpt>
      <trkpt lat="43.68473" lon="3.04148">
        <ele>607.40002441406</ele>
        <time>2023-05-28T12:24:18.000Z</time>
      </trkpt>
      <trkpt lat="43.68473" lon="3.04147">
        <ele>607.40002441406</ele>
        <time>2023-05-28T12:24:20.000Z</time>
      </trkpt>
      <trkpt lat="43.68471" lon="3.04144">
        <ele>606.20001220703</ele>
        <time>2023-05-28T12:24:26.000Z</time>
      </trkpt>
      <trkpt lat="43.68469" lon="3.04138">
        <ele>605.79998779297</ele>
        <time>2023-05-28T12:24:33.000Z</time>
      </trkpt>
      <trkpt lat="43.68468" lon="3.04133">
        <ele>605.40002441406</ele>
        <time>2023-05-28T12:24:38.000Z</time>
      </trkpt>
      <trkpt lat="43.68467" lon="3.04132">
        <ele>605.20001220703</ele>
        <time>2023-05-28T12:24:39.000Z</time>
      </trkpt>
      <trkpt lat="43.68466" lon="3.04128">
        <ele>604.59997558594</ele>
        <time>2023-05-28T12:24:44.000Z</time>
      </trkpt>
      <trkpt lat="43.68465" lon="3.04124">
        <ele>604.20001220703</ele>
        <time>2023-05-28T12:24:48.000Z</time>
      </trkpt>
      <trkpt lat="43.68463" lon="3.04122">
        <ele>604</ele>
        <time>2023-05-28T12:24:50.000Z</time>
      </trkpt>
      <trkpt lat="43.68462" lon="3.0412">
        <ele>603.79998779297</ele>
        <time>2023-05-28T12:24:52.000Z</time>
      </trkpt>
      <trkpt lat="43.68461" lon="3.04116">
        <ele>603.59997558594</ele>
        <time>2023-05-28T12:24:55.000Z</time>
      </trkpt>
      <trkpt lat="43.6846" lon="3.04114">
        <ele>603.40002441406</ele>
        <time>2023-05-28T12:24:57.000Z</time>
      </trkpt>
      <trkpt lat="43.68459" lon="3.04113">
        <ele>603.20001220703</ele>
        <time>2023-05-28T12:24:58.000Z</time>
      </trkpt>
      <trkpt lat="43.68459" lon="3.04111">
        <ele>603.20001220703</ele>
        <time>2023-05-28T12:24:59.000Z</time>
      </trkpt>
      <trkpt lat="43.68458" lon="3.04109">
        <ele>603</ele>
        <time>2023-05-28T12:25:01.000Z</time>
      </trkpt>
      <trkpt lat="43.68457" lon="3.04106">
        <ele>602.59997558594</ele>
        <time>2023-05-28T12:25:04.000Z</time>
      </trkpt>
      <trkpt lat="43.68456" lon="3.04102">
        <ele>602.40002441406</ele>
        <time>2023-05-28T12:25:07.000Z</time>
      </trkpt>
      <trkpt lat="43.68454" lon="3.04098">
        <ele>602.40002441406</ele>
        <time>2023-05-28T12:25:11.000Z</time>
      </trkpt>
      <trkpt lat="43.68452" lon="3.04093">
        <ele>602.20001220703</ele>
        <time>2023-05-28T12:25:15.000Z</time>
      </trkpt>
      <trkpt lat="43.68451" lon="3.04092">
        <ele>602</ele>
        <time>2023-05-28T12:25:16.000Z</time>
      </trkpt>
      <trkpt lat="43.6845" lon="3.04089">
        <ele>601</ele>
        <time>2023-05-28T12:25:18.000Z</time>
      </trkpt>
      <trkpt lat="43.68449" lon="3.04087">
        <ele>601</ele>
        <time>2023-05-28T12:25:20.000Z</time>
      </trkpt>
      <trkpt lat="43.68447" lon="3.04082">
        <ele>601.59997558594</ele>
        <time>2023-05-28T12:25:24.000Z</time>
      </trkpt>
      <trkpt lat="43.68443" lon="3.04078">
        <ele>601.20001220703</ele>
        <time>2023-05-28T12:25:29.000Z</time>
      </trkpt>
      <trkpt lat="43.68443" lon="3.04077">
        <ele>601</ele>
        <time>2023-05-28T12:25:30.000Z</time>
      </trkpt>
      <trkpt lat="43.68438" lon="3.04069">
        <ele>600.20001220703</ele>
        <time>2023-05-28T12:25:37.000Z</time>
      </trkpt>
      <trkpt lat="43.68437" lon="3.04065">
        <ele>600</ele>
        <time>2023-05-28T12:25:40.000Z</time>
      </trkpt>
      <trkpt lat="43.68435" lon="3.04061">
        <ele>599.40002441406</ele>
        <time>2023-05-28T12:25:44.000Z</time>
      </trkpt>
      <trkpt lat="43.68434" lon="3.04058">
        <ele>599.20001220703</ele>
        <time>2023-05-28T12:25:47.000Z</time>
      </trkpt>
      <trkpt lat="43.68433" lon="3.04057">
        <ele>598.79998779297</ele>
        <time>2023-05-28T12:25:49.000Z</time>
      </trkpt>
      <trkpt lat="43.68431" lon="3.04055">
        <ele>598.59997558594</ele>
        <time>2023-05-28T12:25:51.000Z</time>
      </trkpt>
      <trkpt lat="43.68429" lon="3.04051">
        <ele>598</ele>
        <time>2023-05-28T12:25:58.000Z</time>
      </trkpt>
      <trkpt lat="43.68428" lon="3.04049">
        <ele>597.79998779297</ele>
        <time>2023-05-28T12:26:00.000Z</time>
      </trkpt>
      <trkpt lat="43.68425" lon="3.04045">
        <ele>597.40002441406</ele>
        <time>2023-05-28T12:26:05.000Z</time>
      </trkpt>
      <trkpt lat="43.68423" lon="3.04042">
        <ele>596.79998779297</ele>
        <time>2023-05-28T12:26:09.000Z</time>
      </trkpt>
      <trkpt lat="43.68422" lon="3.0404">
        <ele>596.40002441406</ele>
        <time>2023-05-28T12:26:12.000Z</time>
      </trkpt>
      <trkpt lat="43.68419" lon="3.04037">
        <ele>595.79998779297</ele>
        <time>2023-05-28T12:26:17.000Z</time>
      </trkpt>
      <trkpt lat="43.68419" lon="3.04037">
        <ele>595.59997558594</ele>
        <time>2023-05-28T12:26:19.000Z</time>
      </trkpt>
      <trkpt lat="43.68419" lon="3.04036">
        <ele>595</ele>
        <time>2023-05-28T12:26:26.000Z</time>
      </trkpt>
      <trkpt lat="43.68412" lon="3.04031">
        <ele>594.79998779297</ele>
        <time>2023-05-28T12:26:34.000Z</time>
      </trkpt>
      <trkpt lat="43.68409" lon="3.04027">
        <ele>594.20001220703</ele>
        <time>2023-05-28T12:26:39.000Z</time>
      </trkpt>
      <trkpt lat="43.68408" lon="3.04025">
        <ele>593.79998779297</ele>
        <time>2023-05-28T12:26:43.000Z</time>
      </trkpt>
      <trkpt lat="43.68407" lon="3.04025">
        <ele>593.59997558594</ele>
        <time>2023-05-28T12:26:44.000Z</time>
      </trkpt>
      <trkpt lat="43.68403" lon="3.0402">
        <ele>592.79998779297</ele>
        <time>2023-05-28T12:26:51.000Z</time>
      </trkpt>
      <trkpt lat="43.68402" lon="3.0402">
        <ele>592.59997558594</ele>
        <time>2023-05-28T12:26:52.000Z</time>
      </trkpt>
      <trkpt lat="43.68397" lon="3.04016">
        <ele>591.79998779297</ele>
        <time>2023-05-28T12:26:59.000Z</time>
      </trkpt>
      <trkpt lat="43.68396" lon="3.04014">
        <ele>591.40002441406</ele>
        <time>2023-05-28T12:27:01.000Z</time>
      </trkpt>
      <trkpt lat="43.68394" lon="3.04012">
        <ele>590.59997558594</ele>
        <time>2023-05-28T12:27:05.000Z</time>
      </trkpt>
      <trkpt lat="43.68393" lon="3.04011">
        <ele>590.40002441406</ele>
        <time>2023-05-28T12:27:07.000Z</time>
      </trkpt>
      <trkpt lat="43.68389" lon="3.04008">
        <ele>590</ele>
        <time>2023-05-28T12:27:13.000Z</time>
      </trkpt>
      <trkpt lat="43.68385" lon="3.04005">
        <ele>589.79998779297</ele>
        <time>2023-05-28T12:27:18.000Z</time>
      </trkpt>
      <trkpt lat="43.68382" lon="3.04002">
        <ele>589.40002441406</ele>
        <time>2023-05-28T12:27:22.000Z</time>
      </trkpt>
      <trkpt lat="43.68381" lon="3.04001">
        <ele>589.20001220703</ele>
        <time>2023-05-28T12:27:24.000Z</time>
      </trkpt>
      <trkpt lat="43.68379" lon="3.04">
        <ele>588.79998779297</ele>
        <time>2023-05-28T12:27:27.000Z</time>
      </trkpt>
      <trkpt lat="43.68375" lon="3.03997">
        <ele>588.40002441406</ele>
        <time>2023-05-28T12:27:31.000Z</time>
      </trkpt>
      <trkpt lat="43.68375" lon="3.03997">
        <ele>588.20001220703</ele>
        <time>2023-05-28T12:27:32.000Z</time>
      </trkpt>
      <trkpt lat="43.68374" lon="3.03995">
        <ele>588</ele>
        <time>2023-05-28T12:27:34.000Z</time>
      </trkpt>
      <trkpt lat="43.68372" lon="3.03993">
        <ele>587.59997558594</ele>
        <time>2023-05-28T12:27:38.000Z</time>
      </trkpt>
      <trkpt lat="43.68369" lon="3.03991">
        <ele>587.20001220703</ele>
        <time>2023-05-28T12:27:41.000Z</time>
      </trkpt>
      <trkpt lat="43.68364" lon="3.0399">
        <ele>586.79998779297</ele>
        <time>2023-05-28T12:27:47.000Z</time>
      </trkpt>
      <trkpt lat="43.68363" lon="3.03989">
        <ele>586.59997558594</ele>
        <time>2023-05-28T12:27:48.000Z</time>
      </trkpt>
      <trkpt lat="43.68359" lon="3.03988">
        <ele>586.20001220703</ele>
        <time>2023-05-28T12:27:52.000Z</time>
      </trkpt>
      <trkpt lat="43.68358" lon="3.03987">
        <ele>586</ele>
        <time>2023-05-28T12:27:54.000Z</time>
      </trkpt>
      <trkpt lat="43.68353" lon="3.03985">
        <ele>585.59997558594</ele>
        <time>2023-05-28T12:28:01.000Z</time>
      </trkpt>
      <trkpt lat="43.6835" lon="3.03981">
        <ele>585.20001220703</ele>
        <time>2023-05-28T12:28:07.000Z</time>
      </trkpt>
      <trkpt lat="43.68349" lon="3.0398">
        <ele>585.20001220703</ele>
        <time>2023-05-28T12:28:08.000Z</time>
      </trkpt>
      <trkpt lat="43.68345" lon="3.03977">
        <ele>584.79998779297</ele>
        <time>2023-05-28T12:28:14.000Z</time>
      </trkpt>
      <trkpt lat="43.68344" lon="3.03976">
        <ele>584.40002441406</ele>
        <time>2023-05-28T12:28:19.000Z</time>
      </trkpt>
      <trkpt lat="43.68343" lon="3.03976">
        <ele>584.20001220703</ele>
        <time>2023-05-28T12:28:22.000Z</time>
      </trkpt>
      <trkpt lat="43.68343" lon="3.03975">
        <ele>584.20001220703</ele>
        <time>2023-05-28T12:28:32.000Z</time>
      </trkpt>
      <trkpt lat="43.68341" lon="3.03974">
        <ele>584.59997558594</ele>
        <time>2023-05-28T12:28:45.000Z</time>
      </trkpt>
      <trkpt lat="43.68338" lon="3.03972">
        <ele>584.59997558594</ele>
        <time>2023-05-28T12:28:51.000Z</time>
      </trkpt>
      <trkpt lat="43.6833" lon="3.03967">
        <ele>584.20001220703</ele>
        <time>2023-05-28T12:29:00.000Z</time>
      </trkpt>
      <trkpt lat="43.68326" lon="3.03961">
        <ele>583.79998779297</ele>
        <time>2023-05-28T12:29:07.000Z</time>
      </trkpt>
      <trkpt lat="43.68326" lon="3.0396">
        <ele>583.79998779297</ele>
        <time>2023-05-28T12:29:08.000Z</time>
      </trkpt>
      <trkpt lat="43.68324" lon="3.03955">
        <ele>583.79998779297</ele>
        <time>2023-05-28T12:29:13.000Z</time>
      </trkpt>
      <trkpt lat="43.68324" lon="3.03953">
        <ele>583.59997558594</ele>
        <time>2023-05-28T12:29:15.000Z</time>
      </trkpt>
      <trkpt lat="43.68322" lon="3.03948">
        <ele>583.40002441406</ele>
        <time>2023-05-28T12:29:20.000Z</time>
      </trkpt>
      <trkpt lat="43.68322" lon="3.03946">
        <ele>583.59997558594</ele>
        <time>2023-05-28T12:29:21.000Z</time>
      </trkpt>
      <trkpt lat="43.6832" lon="3.03941">
        <ele>583.40002441406</ele>
        <time>2023-05-28T12:29:26.000Z</time>
      </trkpt>
      <trkpt lat="43.68317" lon="3.03936">
        <ele>583.40002441406</ele>
        <time>2023-05-28T12:29:32.000Z</time>
      </trkpt>
      <trkpt lat="43.68316" lon="3.03933">
        <ele>583.20001220703</ele>
        <time>2023-05-28T12:29:34.000Z</time>
      </trkpt>
      <trkpt lat="43.68316" lon="3.03931">
        <ele>583</ele>
        <time>2023-05-28T12:29:36.000Z</time>
      </trkpt>
      <trkpt lat="43.68314" lon="3.03929">
        <ele>583</ele>
        <time>2023-05-28T12:29:39.000Z</time>
      </trkpt>
      <trkpt lat="43.68314" lon="3.03928">
        <ele>583</ele>
        <time>2023-05-28T12:29:40.000Z</time>
      </trkpt>
      <trkpt lat="43.68311" lon="3.0392">
        <ele>582.59997558594</ele>
        <time>2023-05-28T12:29:47.000Z</time>
      </trkpt>
      <trkpt lat="43.6831" lon="3.03915">
        <ele>582.40002441406</ele>
        <time>2023-05-28T12:29:51.000Z</time>
      </trkpt>
      <trkpt lat="43.68309" lon="3.03912">
        <ele>582.20001220703</ele>
        <time>2023-05-28T12:29:54.000Z</time>
      </trkpt>
      <trkpt lat="43.68309" lon="3.0391">
        <ele>582</ele>
        <time>2023-05-28T12:29:56.000Z</time>
      </trkpt>
      <trkpt lat="43.68308" lon="3.03906">
        <ele>581.79998779297</ele>
        <time>2023-05-28T12:29:59.000Z</time>
      </trkpt>
      <trkpt lat="43.68305" lon="3.039">
        <ele>581</ele>
        <time>2023-05-28T12:30:04.000Z</time>
      </trkpt>
      <trkpt lat="43.68304" lon="3.03896">
        <ele>581</ele>
        <time>2023-05-28T12:30:07.000Z</time>
      </trkpt>
      <trkpt lat="43.68303" lon="3.03893">
        <ele>581</ele>
        <time>2023-05-28T12:30:09.000Z</time>
      </trkpt>
      <trkpt lat="43.68303" lon="3.03888">
        <ele>580.59997558594</ele>
        <time>2023-05-28T12:30:13.000Z</time>
      </trkpt>
      <trkpt lat="43.683" lon="3.0388">
        <ele>580.20001220703</ele>
        <time>2023-05-28T12:30:20.000Z</time>
      </trkpt>
      <trkpt lat="43.683" lon="3.03877">
        <ele>580</ele>
        <time>2023-05-28T12:30:22.000Z</time>
      </trkpt>
      <trkpt lat="43.683" lon="3.03876">
        <ele>579.79998779297</ele>
        <time>2023-05-28T12:30:23.000Z</time>
      </trkpt>
      <trkpt lat="43.68298" lon="3.03872">
        <ele>579.40002441406</ele>
        <time>2023-05-28T12:30:27.000Z</time>
      </trkpt>
      <trkpt lat="43.68297" lon="3.0387">
        <ele>579.40002441406</ele>
        <time>2023-05-28T12:30:29.000Z</time>
      </trkpt>
      <trkpt lat="43.68295" lon="3.03866">
        <ele>579</ele>
        <time>2023-05-28T12:30:33.000Z</time>
      </trkpt>
      <trkpt lat="43.68294" lon="3.03864">
        <ele>579</ele>
        <time>2023-05-28T12:30:35.000Z</time>
      </trkpt>
      <trkpt lat="43.68292" lon="3.0386">
        <ele>578.79998779297</ele>
        <time>2023-05-28T12:30:39.000Z</time>
      </trkpt>
      <trkpt lat="43.68291" lon="3.03859">
        <ele>578.79998779297</ele>
        <time>2023-05-28T12:30:40.000Z</time>
      </trkpt>
      <trkpt lat="43.68291" lon="3.03858">
        <ele>578.59997558594</ele>
        <time>2023-05-28T12:30:41.000Z</time>
      </trkpt>
      <trkpt lat="43.68289" lon="3.03854">
        <ele>578.40002441406</ele>
        <time>2023-05-28T12:30:45.000Z</time>
      </trkpt>
      <trkpt lat="43.68287" lon="3.03851">
        <ele>578.20001220703</ele>
        <time>2023-05-28T12:30:48.000Z</time>
      </trkpt>
      <trkpt lat="43.68286" lon="3.03849">
        <ele>578</ele>
        <time>2023-05-28T12:30:50.000Z</time>
      </trkpt>
      <trkpt lat="43.68285" lon="3.03848">
        <ele>578</ele>
        <time>2023-05-28T12:30:51.000Z</time>
      </trkpt>
      <trkpt lat="43.68284" lon="3.03847">
        <ele>577.79998779297</ele>
        <time>2023-05-28T12:30:52.000Z</time>
      </trkpt>
      <trkpt lat="43.68281" lon="3.03841">
        <ele>577.20001220703</ele>
        <time>2023-05-28T12:30:58.000Z</time>
      </trkpt>
      <trkpt lat="43.68281" lon="3.0384">
        <ele>577.20001220703</ele>
        <time>2023-05-28T12:30:59.000Z</time>
      </trkpt>
      <trkpt lat="43.68279" lon="3.03838">
        <ele>576.79998779297</ele>
        <time>2023-05-28T12:31:03.000Z</time>
      </trkpt>
      <trkpt lat="43.68278" lon="3.03837">
        <ele>576.79998779297</ele>
        <time>2023-05-28T12:31:04.000Z</time>
      </trkpt>
      <trkpt lat="43.68275" lon="3.03833">
        <ele>576.59997558594</ele>
        <time>2023-05-28T12:31:09.000Z</time>
      </trkpt>
      <trkpt lat="43.68274" lon="3.03832">
        <ele>576.59997558594</ele>
        <time>2023-05-28T12:31:10.000Z</time>
      </trkpt>
      <trkpt lat="43.6827" lon="3.03827">
        <ele>576.20001220703</ele>
        <time>2023-05-28T12:31:15.000Z</time>
      </trkpt>
      <trkpt lat="43.68268" lon="3.03825">
        <ele>575.79998779297</ele>
        <time>2023-05-28T12:31:18.000Z</time>
      </trkpt>
      <trkpt lat="43.68267" lon="3.03822">
        <ele>575.59997558594</ele>
        <time>2023-05-28T12:31:21.000Z</time>
      </trkpt>
      <trkpt lat="43.68261" lon="3.03816">
        <ele>574.79998779297</ele>
        <time>2023-05-28T12:31:28.000Z</time>
      </trkpt>
      <trkpt lat="43.6826" lon="3.03815">
        <ele>574.79998779297</ele>
        <time>2023-05-28T12:31:29.000Z</time>
      </trkpt>
      <trkpt lat="43.68257" lon="3.03809">
        <ele>574.20001220703</ele>
        <time>2023-05-28T12:31:34.000Z</time>
      </trkpt>
      <trkpt lat="43.68257" lon="3.03808">
        <ele>574.20001220703</ele>
        <time>2023-05-28T12:31:35.000Z</time>
      </trkpt>
      <trkpt lat="43.68253" lon="3.03802">
        <ele>573.59997558594</ele>
        <time>2023-05-28T12:31:41.000Z</time>
      </trkpt>
      <trkpt lat="43.68249" lon="3.03797">
        <ele>572.79998779297</ele>
        <time>2023-05-28T12:31:48.000Z</time>
      </trkpt>
      <trkpt lat="43.68249" lon="3.03797">
        <ele>572.59997558594</ele>
        <time>2023-05-28T12:31:49.000Z</time>
      </trkpt>
      <trkpt lat="43.68246" lon="3.03793">
        <ele>572.40002441406</ele>
        <time>2023-05-28T12:31:54.000Z</time>
      </trkpt>
      <trkpt lat="43.68244" lon="3.03787">
        <ele>572</ele>
        <time>2023-05-28T12:32:00.000Z</time>
      </trkpt>
      <trkpt lat="43.68242" lon="3.03784">
        <ele>571.59997558594</ele>
        <time>2023-05-28T12:32:03.000Z</time>
      </trkpt>
      <trkpt lat="43.6824" lon="3.03782">
        <ele>571</ele>
        <time>2023-05-28T12:32:07.000Z</time>
      </trkpt>
      <trkpt lat="43.6824" lon="3.03781">
        <ele>570.79998779297</ele>
        <time>2023-05-28T12:32:08.000Z</time>
      </trkpt>
      <trkpt lat="43.68239" lon="3.03778">
        <ele>570.59997558594</ele>
        <time>2023-05-28T12:32:10.000Z</time>
      </trkpt>
      <trkpt lat="43.68238" lon="3.03776">
        <ele>570</ele>
        <time>2023-05-28T12:32:13.000Z</time>
      </trkpt>
      <trkpt lat="43.68235" lon="3.0377">
        <ele>569.40002441406</ele>
        <time>2023-05-28T12:32:19.000Z</time>
      </trkpt>
      <trkpt lat="43.68235" lon="3.03769">
        <ele>569.20001220703</ele>
        <time>2023-05-28T12:32:20.000Z</time>
      </trkpt>
      <trkpt lat="43.68233" lon="3.03765">
        <ele>568.40002441406</ele>
        <time>2023-05-28T12:32:24.000Z</time>
      </trkpt>
      <trkpt lat="43.68232" lon="3.03761">
        <ele>568</ele>
        <time>2023-05-28T12:32:27.000Z</time>
      </trkpt>
      <trkpt lat="43.68229" lon="3.03756">
        <ele>567.40002441406</ele>
        <time>2023-05-28T12:32:31.000Z</time>
      </trkpt>
      <trkpt lat="43.68227" lon="3.03754">
        <ele>567</ele>
        <time>2023-05-28T12:32:34.000Z</time>
      </trkpt>
      <trkpt lat="43.68226" lon="3.03753">
        <ele>567</ele>
        <time>2023-05-28T12:32:35.000Z</time>
      </trkpt>
      <trkpt lat="43.68224" lon="3.0375">
        <ele>566.59997558594</ele>
        <time>2023-05-28T12:32:38.000Z</time>
      </trkpt>
      <trkpt lat="43.68223" lon="3.03749">
        <ele>566.40002441406</ele>
        <time>2023-05-28T12:32:39.000Z</time>
      </trkpt>
      <trkpt lat="43.68223" lon="3.03748">
        <ele>566.40002441406</ele>
        <time>2023-05-28T12:32:40.000Z</time>
      </trkpt>
      <trkpt lat="43.68219" lon="3.0374">
        <ele>565.40002441406</ele>
        <time>2023-05-28T12:32:46.000Z</time>
      </trkpt>
      <trkpt lat="43.68219" lon="3.03739">
        <ele>565.20001220703</ele>
        <time>2023-05-28T12:32:47.000Z</time>
      </trkpt>
      <trkpt lat="43.68218" lon="3.03738">
        <ele>565.20001220703</ele>
        <time>2023-05-28T12:32:48.000Z</time>
      </trkpt>
      <trkpt lat="43.68217" lon="3.03733">
        <ele>564.79998779297</ele>
        <time>2023-05-28T12:32:52.000Z</time>
      </trkpt>
      <trkpt lat="43.68216" lon="3.03729">
        <ele>564.40002441406</ele>
        <time>2023-05-28T12:32:56.000Z</time>
      </trkpt>
      <trkpt lat="43.68215" lon="3.03727">
        <ele>564.20001220703</ele>
        <time>2023-05-28T12:32:57.000Z</time>
      </trkpt>
      <trkpt lat="43.68214" lon="3.03726">
        <ele>564.20001220703</ele>
        <time>2023-05-28T12:32:58.000Z</time>
      </trkpt>
      <trkpt lat="43.68213" lon="3.03722">
        <ele>563.79998779297</ele>
        <time>2023-05-28T12:33:01.000Z</time>
      </trkpt>
      <trkpt lat="43.68212" lon="3.03721">
        <ele>563.40002441406</ele>
        <time>2023-05-28T12:33:04.000Z</time>
      </trkpt>
      <trkpt lat="43.6821" lon="3.03715">
        <ele>563.20001220703</ele>
        <time>2023-05-28T12:33:09.000Z</time>
      </trkpt>
      <trkpt lat="43.6821" lon="3.03714">
        <ele>563.20001220703</ele>
        <time>2023-05-28T12:33:10.000Z</time>
      </trkpt>
      <trkpt lat="43.68208" lon="3.03708">
        <ele>562.59997558594</ele>
        <time>2023-05-28T12:33:16.000Z</time>
      </trkpt>
      <trkpt lat="43.68208" lon="3.03707">
        <ele>562.59997558594</ele>
        <time>2023-05-28T12:33:17.000Z</time>
      </trkpt>
      <trkpt lat="43.68206" lon="3.03703">
        <ele>562</ele>
        <time>2023-05-28T12:33:21.000Z</time>
      </trkpt>
      <trkpt lat="43.68204" lon="3.037">
        <ele>561.40002441406</ele>
        <time>2023-05-28T12:33:24.000Z</time>
      </trkpt>
      <trkpt lat="43.68203" lon="3.03695">
        <ele>561</ele>
        <time>2023-05-28T12:33:29.000Z</time>
      </trkpt>
      <trkpt lat="43.68202" lon="3.03693">
        <ele>561</ele>
        <time>2023-05-28T12:33:31.000Z</time>
      </trkpt>
      <trkpt lat="43.682" lon="3.03692">
        <ele>560.59997558594</ele>
        <time>2023-05-28T12:33:33.000Z</time>
      </trkpt>
      <trkpt lat="43.68199" lon="3.0369">
        <ele>560.20001220703</ele>
        <time>2023-05-28T12:33:35.000Z</time>
      </trkpt>
      <trkpt lat="43.68198" lon="3.03688">
        <ele>560</ele>
        <time>2023-05-28T12:33:37.000Z</time>
      </trkpt>
      <trkpt lat="43.68196" lon="3.03685">
        <ele>559.40002441406</ele>
        <time>2023-05-28T12:33:40.000Z</time>
      </trkpt>
      <trkpt lat="43.68195" lon="3.0368">
        <ele>558.79998779297</ele>
        <time>2023-05-28T12:33:48.000Z</time>
      </trkpt>
      <trkpt lat="43.68194" lon="3.03676">
        <ele>558</ele>
        <time>2023-05-28T12:33:58.000Z</time>
      </trkpt>
      <trkpt lat="43.68192" lon="3.03674">
        <ele>557.79998779297</ele>
        <time>2023-05-28T12:34:05.000Z</time>
      </trkpt>
      <trkpt lat="43.68187" lon="3.03669">
        <ele>557.59997558594</ele>
        <time>2023-05-28T12:34:12.000Z</time>
      </trkpt>
      <trkpt lat="43.68182" lon="3.03663">
        <ele>557</ele>
        <time>2023-05-28T12:34:19.000Z</time>
      </trkpt>
      <trkpt lat="43.6818" lon="3.0366">
        <ele>556.79998779297</ele>
        <time>2023-05-28T12:34:22.000Z</time>
      </trkpt>
      <trkpt lat="43.68178" lon="3.03658">
        <ele>556.40002441406</ele>
        <time>2023-05-28T12:34:25.000Z</time>
      </trkpt>
      <trkpt lat="43.68175" lon="3.03653">
        <ele>556</ele>
        <time>2023-05-28T12:34:32.000Z</time>
      </trkpt>
      <trkpt lat="43.68175" lon="3.03652">
        <ele>555.79998779297</ele>
        <time>2023-05-28T12:34:33.000Z</time>
      </trkpt>
      <trkpt lat="43.6817" lon="3.03645">
        <ele>554.79998779297</ele>
        <time>2023-05-28T12:34:41.000Z</time>
      </trkpt>
      <trkpt lat="43.68167" lon="3.03641">
        <ele>553.59997558594</ele>
        <time>2023-05-28T12:34:49.000Z</time>
      </trkpt>
      <trkpt lat="43.68161" lon="3.03636">
        <ele>552.79998779297</ele>
        <time>2023-05-28T12:34:57.000Z</time>
      </trkpt>
      <trkpt lat="43.68158" lon="3.03637">
        <ele>552.59997558594</ele>
        <time>2023-05-28T12:35:00.000Z</time>
      </trkpt>
      <trkpt lat="43.68157" lon="3.03637">
        <ele>552.20001220703</ele>
        <time>2023-05-28T12:35:02.000Z</time>
      </trkpt>
      <trkpt lat="43.68156" lon="3.03638">
        <ele>552.20001220703</ele>
        <time>2023-05-28T12:35:04.000Z</time>
      </trkpt>
      <trkpt lat="43.68151" lon="3.03639">
        <ele>551.79998779297</ele>
        <time>2023-05-28T12:35:11.000Z</time>
      </trkpt>
      <trkpt lat="43.68149" lon="3.03638">
        <ele>551.40002441406</ele>
        <time>2023-05-28T12:35:14.000Z</time>
      </trkpt>
      <trkpt lat="43.68146" lon="3.03638">
        <ele>551</ele>
        <time>2023-05-28T12:35:18.000Z</time>
      </trkpt>
      <trkpt lat="43.68145" lon="3.03638">
        <ele>550.40002441406</ele>
        <time>2023-05-28T12:35:21.000Z</time>
      </trkpt>
      <trkpt lat="43.68142" lon="3.03638">
        <ele>549.79998779297</ele>
        <time>2023-05-28T12:35:26.000Z</time>
      </trkpt>
      <trkpt lat="43.68141" lon="3.03638">
        <ele>549.40002441406</ele>
        <time>2023-05-28T12:35:31.000Z</time>
      </trkpt>
      <trkpt lat="43.68136" lon="3.03639">
        <ele>548.20001220703</ele>
        <time>2023-05-28T12:35:39.000Z</time>
      </trkpt>
      <trkpt lat="43.68132" lon="3.03638">
        <ele>547.20001220703</ele>
        <time>2023-05-28T12:35:46.000Z</time>
      </trkpt>
      <trkpt lat="43.68132" lon="3.03638">
        <ele>547</ele>
        <time>2023-05-28T12:35:47.000Z</time>
      </trkpt>
      <trkpt lat="43.68128" lon="3.03637">
        <ele>546</ele>
        <time>2023-05-28T12:35:53.000Z</time>
      </trkpt>
      <trkpt lat="43.68127" lon="3.03637">
        <ele>545.79998779297</ele>
        <time>2023-05-28T12:35:54.000Z</time>
      </trkpt>
      <trkpt lat="43.68123" lon="3.03636">
        <ele>544.79998779297</ele>
        <time>2023-05-28T12:35:59.000Z</time>
      </trkpt>
      <trkpt lat="43.68119" lon="3.03636">
        <ele>544</ele>
        <time>2023-05-28T12:36:04.000Z</time>
      </trkpt>
      <trkpt lat="43.68118" lon="3.03635">
        <ele>543.79998779297</ele>
        <time>2023-05-28T12:36:07.000Z</time>
      </trkpt>
      <trkpt lat="43.68115" lon="3.03634">
        <ele>543.40002441406</ele>
        <time>2023-05-28T12:36:11.000Z</time>
      </trkpt>
      <trkpt lat="43.68112" lon="3.03633">
        <ele>542.59997558594</ele>
        <time>2023-05-28T12:36:15.000Z</time>
      </trkpt>
      <trkpt lat="43.6811" lon="3.03632">
        <ele>542</ele>
        <time>2023-05-28T12:36:18.000Z</time>
      </trkpt>
      <trkpt lat="43.68107" lon="3.03631">
        <ele>541.59997558594</ele>
        <time>2023-05-28T12:36:23.000Z</time>
      </trkpt>
      <trkpt lat="43.68105" lon="3.03631">
        <ele>541.40002441406</ele>
        <time>2023-05-28T12:36:26.000Z</time>
      </trkpt>
      <trkpt lat="43.68102" lon="3.03628">
        <ele>540.59997558594</ele>
        <time>2023-05-28T12:36:32.000Z</time>
      </trkpt>
      <trkpt lat="43.68097" lon="3.03625">
        <ele>539.79998779297</ele>
        <time>2023-05-28T12:36:40.000Z</time>
      </trkpt>
      <trkpt lat="43.68095" lon="3.03624">
        <ele>539.40002441406</ele>
        <time>2023-05-28T12:36:43.000Z</time>
      </trkpt>
      <trkpt lat="43.68092" lon="3.03621">
        <ele>539</ele>
        <time>2023-05-28T12:36:48.000Z</time>
      </trkpt>
      <trkpt lat="43.68089" lon="3.0362">
        <ele>538.40002441406</ele>
        <time>2023-05-28T12:36:53.000Z</time>
      </trkpt>
      <trkpt lat="43.68088" lon="3.03618">
        <ele>538.20001220703</ele>
        <time>2023-05-28T12:36:56.000Z</time>
      </trkpt>
      <trkpt lat="43.68084" lon="3.03617">
        <ele>537.59997558594</ele>
        <time>2023-05-28T12:37:02.000Z</time>
      </trkpt>
      <trkpt lat="43.68082" lon="3.03616">
        <ele>537.40002441406</ele>
        <time>2023-05-28T12:37:05.000Z</time>
      </trkpt>
      <trkpt lat="43.6808" lon="3.03615">
        <ele>536.79998779297</ele>
        <time>2023-05-28T12:37:09.000Z</time>
      </trkpt>
      <trkpt lat="43.68078" lon="3.03613">
        <ele>536.40002441406</ele>
        <time>2023-05-28T12:37:13.000Z</time>
      </trkpt>
      <trkpt lat="43.68076" lon="3.03612">
        <ele>536</ele>
        <time>2023-05-28T12:37:16.000Z</time>
      </trkpt>
      <trkpt lat="43.68072" lon="3.03608">
        <ele>535.20001220703</ele>
        <time>2023-05-28T12:37:22.000Z</time>
      </trkpt>
      <trkpt lat="43.68068" lon="3.03606">
        <ele>534.20001220703</ele>
        <time>2023-05-28T12:37:28.000Z</time>
      </trkpt>
      <trkpt lat="43.68067" lon="3.03606">
        <ele>534</ele>
        <time>2023-05-28T12:37:29.000Z</time>
      </trkpt>
      <trkpt lat="43.68065" lon="3.03604">
        <ele>533.40002441406</ele>
        <time>2023-05-28T12:37:35.000Z</time>
      </trkpt>
      <trkpt lat="43.68065" lon="3.03603">
        <ele>533.20001220703</ele>
        <time>2023-05-28T12:37:39.000Z</time>
      </trkpt>
      <trkpt lat="43.68065" lon="3.03602">
        <ele>532.79998779297</ele>
        <time>2023-05-28T12:37:42.000Z</time>
      </trkpt>
      <trkpt lat="43.68065" lon="3.036">
        <ele>533.20001220703</ele>
        <time>2023-05-28T12:37:50.000Z</time>
      </trkpt>
      <trkpt lat="43.68064" lon="3.03599">
        <ele>533.40002441406</ele>
        <time>2023-05-28T12:38:00.000Z</time>
      </trkpt>
      <trkpt lat="43.68064" lon="3.03598">
        <ele>532.59997558594</ele>
        <time>2023-05-28T12:38:08.000Z</time>
      </trkpt>
      <trkpt lat="43.68063" lon="3.03598">
        <ele>533.20001220703</ele>
        <time>2023-05-28T12:38:16.000Z</time>
      </trkpt>
      <trkpt lat="43.68063" lon="3.03598">
        <ele>532.79998779297</ele>
        <time>2023-05-28T12:38:24.000Z</time>
      </trkpt>
      <trkpt lat="43.68062" lon="3.03599">
        <ele>532.59997558594</ele>
        <time>2023-05-28T12:38:31.000Z</time>
      </trkpt>
      <trkpt lat="43.68063" lon="3.03599">
        <ele>532.59997558594</ele>
        <time>2023-05-28T12:38:39.000Z</time>
      </trkpt>
      <trkpt lat="43.68063" lon="3.03599">
        <ele>532.79998779297</ele>
        <time>2023-05-28T12:38:51.000Z</time>
      </trkpt>
      <trkpt lat="43.68062" lon="3.03597">
        <ele>533.20001220703</ele>
        <time>2023-05-28T12:39:05.000Z</time>
      </trkpt>
      <trkpt lat="43.6806" lon="3.03597">
        <ele>533</ele>
        <time>2023-05-28T12:39:13.000Z</time>
      </trkpt>
      <trkpt lat="43.68056" lon="3.03595">
        <ele>532.79998779297</ele>
        <time>2023-05-28T12:39:20.000Z</time>
      </trkpt>
      <trkpt lat="43.68053" lon="3.03594">
        <ele>532</ele>
        <time>2023-05-28T12:39:23.000Z</time>
      </trkpt>
      <trkpt lat="43.6805" lon="3.03591">
        <ele>531.59997558594</ele>
        <time>2023-05-28T12:39:27.000Z</time>
      </trkpt>
      <trkpt lat="43.68047" lon="3.03589">
        <ele>531</ele>
        <time>2023-05-28T12:39:31.000Z</time>
      </trkpt>
      <trkpt lat="43.68046" lon="3.03588">
        <ele>530.79998779297</ele>
        <time>2023-05-28T12:39:33.000Z</time>
      </trkpt>
      <trkpt lat="43.68045" lon="3.03588">
        <ele>530.20001220703</ele>
        <time>2023-05-28T12:39:39.000Z</time>
      </trkpt>
      <trkpt lat="43.68042" lon="3.03586">
        <ele>530.59997558594</ele>
        <time>2023-05-28T12:39:45.000Z</time>
      </trkpt>
      <trkpt lat="43.6804" lon="3.03586">
        <ele>529.79998779297</ele>
        <time>2023-05-28T12:39:49.000Z</time>
      </trkpt>
      <trkpt lat="43.68038" lon="3.03585">
        <ele>529.59997558594</ele>
        <time>2023-05-28T12:39:52.000Z</time>
      </trkpt>
      <trkpt lat="43.68034" lon="3.03583">
        <ele>528.59997558594</ele>
        <time>2023-05-28T12:39:58.000Z</time>
      </trkpt>
      <trkpt lat="43.68032" lon="3.03583">
        <ele>528.40002441406</ele>
        <time>2023-05-28T12:40:00.000Z</time>
      </trkpt>
      <trkpt lat="43.6803" lon="3.03582">
        <ele>527.59997558594</ele>
        <time>2023-05-28T12:40:05.000Z</time>
      </trkpt>
      <trkpt lat="43.68029" lon="3.03582">
        <ele>527.40002441406</ele>
        <time>2023-05-28T12:40:06.000Z</time>
      </trkpt>
      <trkpt lat="43.68023" lon="3.0358">
        <ele>526.79998779297</ele>
        <time>2023-05-28T12:40:14.000Z</time>
      </trkpt>
      <trkpt lat="43.68022" lon="3.03579">
        <ele>526.59997558594</ele>
        <time>2023-05-28T12:40:16.000Z</time>
      </trkpt>
      <trkpt lat="43.6802" lon="3.03578">
        <ele>526</ele>
        <time>2023-05-28T12:40:21.000Z</time>
      </trkpt>
      <trkpt lat="43.68017" lon="3.03577">
        <ele>525.59997558594</ele>
        <time>2023-05-28T12:40:26.000Z</time>
      </trkpt>
      <trkpt lat="43.68013" lon="3.03575">
        <ele>525</ele>
        <time>2023-05-28T12:40:33.000Z</time>
      </trkpt>
      <trkpt lat="43.68011" lon="3.03574">
        <ele>524.59997558594</ele>
        <time>2023-05-28T12:40:38.000Z</time>
      </trkpt>
      <trkpt lat="43.68009" lon="3.03574">
        <ele>524.20001220703</ele>
        <time>2023-05-28T12:40:40.000Z</time>
      </trkpt>
      <trkpt lat="43.68006" lon="3.03572">
        <ele>523.40002441406</ele>
        <time>2023-05-28T12:40:44.000Z</time>
      </trkpt>
      <trkpt lat="43.68005" lon="3.03571">
        <ele>523.20001220703</ele>
        <time>2023-05-28T12:40:47.000Z</time>
      </trkpt>
      <trkpt lat="43.68002" lon="3.03569">
        <ele>522.79998779297</ele>
        <time>2023-05-28T12:40:53.000Z</time>
      </trkpt>
      <trkpt lat="43.68" lon="3.03568">
        <ele>522.40002441406</ele>
        <time>2023-05-28T12:40:57.000Z</time>
      </trkpt>
      <trkpt lat="43.67999" lon="3.03565">
        <ele>521.79998779297</ele>
        <time>2023-05-28T12:41:02.000Z</time>
      </trkpt>
      <trkpt lat="43.67996" lon="3.0356">
        <ele>521.40002441406</ele>
        <time>2023-05-28T12:41:08.000Z</time>
      </trkpt>
      <trkpt lat="43.67993" lon="3.03554">
        <ele>520.59997558594</ele>
        <time>2023-05-28T12:41:16.000Z</time>
      </trkpt>
      <trkpt lat="43.67992" lon="3.03552">
        <ele>520.40002441406</ele>
        <time>2023-05-28T12:41:18.000Z</time>
      </trkpt>
      <trkpt lat="43.6799" lon="3.03549">
        <ele>519.59997558594</ele>
        <time>2023-05-28T12:41:23.000Z</time>
      </trkpt>
      <trkpt lat="43.67989" lon="3.03547">
        <ele>519.40002441406</ele>
        <time>2023-05-28T12:41:30.000Z</time>
      </trkpt>
      <trkpt lat="43.67987" lon="3.03544">
        <ele>518.59997558594</ele>
        <time>2023-05-28T12:41:37.000Z</time>
      </trkpt>
      <trkpt lat="43.67986" lon="3.03543">
        <ele>518.20001220703</ele>
        <time>2023-05-28T12:41:39.000Z</time>
      </trkpt>
      <trkpt lat="43.67985" lon="3.03541">
        <ele>517.79998779297</ele>
        <time>2023-05-28T12:41:44.000Z</time>
      </trkpt>
      <trkpt lat="43.67983" lon="3.03539">
        <ele>517.20001220703</ele>
        <time>2023-05-28T12:41:52.000Z</time>
      </trkpt>
      <trkpt lat="43.67981" lon="3.03537">
        <ele>516.59997558594</ele>
        <time>2023-05-28T12:41:58.000Z</time>
      </trkpt>
      <trkpt lat="43.67981" lon="3.03536">
        <ele>516.20001220703</ele>
        <time>2023-05-28T12:42:01.000Z</time>
      </trkpt>
      <trkpt lat="43.6798" lon="3.03534">
        <ele>516</ele>
        <time>2023-05-28T12:42:04.000Z</time>
      </trkpt>
      <trkpt lat="43.67977" lon="3.03531">
        <ele>515.40002441406</ele>
        <time>2023-05-28T12:42:11.000Z</time>
      </trkpt>
      <trkpt lat="43.67977" lon="3.03531">
        <ele>515.20001220703</ele>
        <time>2023-05-28T12:42:12.000Z</time>
      </trkpt>
      <trkpt lat="43.67974" lon="3.03528">
        <ele>514.40002441406</ele>
        <time>2023-05-28T12:42:19.000Z</time>
      </trkpt>
      <trkpt lat="43.67974" lon="3.03529">
        <ele>514</ele>
        <time>2023-05-28T12:42:23.000Z</time>
      </trkpt>
      <trkpt lat="43.67973" lon="3.03526">
        <ele>513.79998779297</ele>
        <time>2023-05-28T12:42:27.000Z</time>
      </trkpt>
      <trkpt lat="43.67972" lon="3.03524">
        <ele>513.40002441406</ele>
        <time>2023-05-28T12:42:33.000Z</time>
      </trkpt>
      <trkpt lat="43.67971" lon="3.03522">
        <ele>513</ele>
        <time>2023-05-28T12:42:35.000Z</time>
      </trkpt>
      <trkpt lat="43.67969" lon="3.03521">
        <ele>512.40002441406</ele>
        <time>2023-05-28T12:42:39.000Z</time>
      </trkpt>
      <trkpt lat="43.67968" lon="3.03519">
        <ele>512</ele>
        <time>2023-05-28T12:42:42.000Z</time>
      </trkpt>
      <trkpt lat="43.67966" lon="3.03517">
        <ele>510.79998779297</ele>
        <time>2023-05-28T12:42:47.000Z</time>
      </trkpt>
      <trkpt lat="43.67964" lon="3.03515">
        <ele>509.79998779297</ele>
        <time>2023-05-28T12:42:56.000Z</time>
      </trkpt>
      <trkpt lat="43.67964" lon="3.03515">
        <ele>509.79998779297</ele>
        <time>2023-05-28T12:42:57.000Z</time>
      </trkpt>
      <trkpt lat="43.67964" lon="3.03515">
        <ele>506.20001220703</ele>
        <time>2023-05-28T12:42:59.000Z</time>
      </trkpt>
      <trkpt lat="43.67964" lon="3.03515">
        <ele>504</ele>
        <time>2023-05-28T12:43:00.000Z</time>
      </trkpt>
      <trkpt lat="43.67964" lon="3.03514">
        <ele>502</ele>
        <time>2023-05-28T12:43:01.000Z</time>
      </trkpt>
      <trkpt lat="43.67963" lon="3.03513">
        <ele>505.79998779297</ele>
        <time>2023-05-28T12:43:04.000Z</time>
      </trkpt>
      <trkpt lat="43.67963" lon="3.03513">
        <ele>508.79998779297</ele>
        <time>2023-05-28T12:43:05.000Z</time>
      </trkpt>
      <trkpt lat="43.67963" lon="3.03512">
        <ele>509.79998779297</ele>
        <time>2023-05-28T12:43:06.000Z</time>
      </trkpt>
      <trkpt lat="43.67962" lon="3.0351">
        <ele>509.39999389648</ele>
        <time>2023-05-28T12:43:11.000Z</time>
      </trkpt>
      <trkpt lat="43.6796" lon="3.03507">
        <ele>508.79998779297</ele>
        <time>2023-05-28T12:43:15.000Z</time>
      </trkpt>
      <trkpt lat="43.67959" lon="3.03505">
        <ele>508.20001220703</ele>
        <time>2023-05-28T12:43:18.000Z</time>
      </trkpt>
      <trkpt lat="43.67958" lon="3.03502">
        <ele>507.79998779297</ele>
        <time>2023-05-28T12:43:21.000Z</time>
      </trkpt>
      <trkpt lat="43.67956" lon="3.03499">
        <ele>507.20001220703</ele>
        <time>2023-05-28T12:43:26.000Z</time>
      </trkpt>
      <trkpt lat="43.67954" lon="3.03494">
        <ele>506.79998779297</ele>
        <time>2023-05-28T12:43:31.000Z</time>
      </trkpt>
      <trkpt lat="43.67954" lon="3.03493">
        <ele>506.60000610352</ele>
        <time>2023-05-28T12:43:32.000Z</time>
      </trkpt>
      <trkpt lat="43.67952" lon="3.03487">
        <ele>505.79998779297</ele>
        <time>2023-05-28T12:43:38.000Z</time>
      </trkpt>
      <trkpt lat="43.67952" lon="3.03486">
        <ele>505.39999389648</ele>
        <time>2023-05-28T12:43:39.000Z</time>
      </trkpt>
      <trkpt lat="43.67951" lon="3.0348">
        <ele>504.79998779297</ele>
        <time>2023-05-28T12:43:45.000Z</time>
      </trkpt>
      <trkpt lat="43.6795" lon="3.03475">
        <ele>504.39999389648</ele>
        <time>2023-05-28T12:43:50.000Z</time>
      </trkpt>
      <trkpt lat="43.6795" lon="3.03473">
        <ele>504</ele>
        <time>2023-05-28T12:43:53.000Z</time>
      </trkpt>
      <trkpt lat="43.6795" lon="3.03469">
        <ele>503.39999389648</ele>
        <time>2023-05-28T12:43:57.000Z</time>
      </trkpt>
      <trkpt lat="43.6795" lon="3.03468">
        <ele>503.39999389648</ele>
        <time>2023-05-28T12:43:58.000Z</time>
      </trkpt>
      <trkpt lat="43.67951" lon="3.03462">
        <ele>502.39999389648</ele>
        <time>2023-05-28T12:44:05.000Z</time>
      </trkpt>
      <trkpt lat="43.67951" lon="3.0346">
        <ele>502.39999389648</ele>
        <time>2023-05-28T12:44:07.000Z</time>
      </trkpt>
      <trkpt lat="43.67951" lon="3.03455">
        <ele>501.60000610352</ele>
        <time>2023-05-28T12:44:13.000Z</time>
      </trkpt>
      <trkpt lat="43.67951" lon="3.03454">
        <ele>501.20001220703</ele>
        <time>2023-05-28T12:44:15.000Z</time>
      </trkpt>
      <trkpt lat="43.67951" lon="3.03449">
        <ele>500.39999389648</ele>
        <time>2023-05-28T12:44:21.000Z</time>
      </trkpt>
      <trkpt lat="43.67951" lon="3.03447">
        <ele>500.20001220703</ele>
        <time>2023-05-28T12:44:23.000Z</time>
      </trkpt>
      <trkpt lat="43.67951" lon="3.03443">
        <ele>499.60000610352</ele>
        <time>2023-05-28T12:44:28.000Z</time>
      </trkpt>
      <trkpt lat="43.67952" lon="3.03443">
        <ele>499</ele>
        <time>2023-05-28T12:44:32.000Z</time>
      </trkpt>
      <trkpt lat="43.67952" lon="3.03439">
        <ele>498.79998779297</ele>
        <time>2023-05-28T12:44:35.000Z</time>
      </trkpt>
      <trkpt lat="43.67953" lon="3.03435">
        <ele>498.39999389648</ele>
        <time>2023-05-28T12:44:41.000Z</time>
      </trkpt>
      <trkpt lat="43.67953" lon="3.03435">
        <ele>498</ele>
        <time>2023-05-28T12:44:43.000Z</time>
      </trkpt>
      <trkpt lat="43.67953" lon="3.0343">
        <ele>497.60000610352</ele>
        <time>2023-05-28T12:44:49.000Z</time>
      </trkpt>
      <trkpt lat="43.67953" lon="3.03427">
        <ele>497</ele>
        <time>2023-05-28T12:44:53.000Z</time>
      </trkpt>
      <trkpt lat="43.67953" lon="3.03426">
        <ele>496.60000610352</ele>
        <time>2023-05-28T12:44:56.000Z</time>
      </trkpt>
      <trkpt lat="43.67954" lon="3.03421">
        <ele>496.20001220703</ele>
        <time>2023-05-28T12:45:03.000Z</time>
      </trkpt>
      <trkpt lat="43.67954" lon="3.03421">
        <ele>496</ele>
        <time>2023-05-28T12:45:05.000Z</time>
      </trkpt>
      <trkpt lat="43.67954" lon="3.03416">
        <ele>495.39999389648</ele>
        <time>2023-05-28T12:45:09.000Z</time>
      </trkpt>
      <trkpt lat="43.67954" lon="3.03411">
        <ele>495.20001220703</ele>
        <time>2023-05-28T12:45:16.000Z</time>
      </trkpt>
      <trkpt lat="43.67954" lon="3.0341">
        <ele>494.79998779297</ele>
        <time>2023-05-28T12:45:19.000Z</time>
      </trkpt>
      <trkpt lat="43.67955" lon="3.03408">
        <ele>494.39999389648</ele>
        <time>2023-05-28T12:45:22.000Z</time>
      </trkpt>
      <trkpt lat="43.67956" lon="3.03404">
        <ele>493.79998779297</ele>
        <time>2023-05-28T12:45:27.000Z</time>
      </trkpt>
      <trkpt lat="43.67957" lon="3.03403">
        <ele>493.79998779297</ele>
        <time>2023-05-28T12:45:28.000Z</time>
      </trkpt>
      <trkpt lat="43.67959" lon="3.03398">
        <ele>493</ele>
        <time>2023-05-28T12:45:34.000Z</time>
      </trkpt>
      <trkpt lat="43.6796" lon="3.03396">
        <ele>492.79998779297</ele>
        <time>2023-05-28T12:45:36.000Z</time>
      </trkpt>
      <trkpt lat="43.67961" lon="3.03392">
        <ele>492.20001220703</ele>
        <time>2023-05-28T12:45:42.000Z</time>
      </trkpt>
      <trkpt lat="43.67962" lon="3.03391">
        <ele>491.79998779297</ele>
        <time>2023-05-28T12:45:47.000Z</time>
      </trkpt>
      <trkpt lat="43.67963" lon="3.03387">
        <ele>491.39999389648</ele>
        <time>2023-05-28T12:45:51.000Z</time>
      </trkpt>
      <trkpt lat="43.67963" lon="3.03383">
        <ele>490.79998779297</ele>
        <time>2023-05-28T12:45:59.000Z</time>
      </trkpt>
      <trkpt lat="43.67963" lon="3.03382">
        <ele>490.60000610352</ele>
        <time>2023-05-28T12:46:00.000Z</time>
      </trkpt>
      <trkpt lat="43.67961" lon="3.03379">
        <ele>489.79998779297</ele>
        <time>2023-05-28T12:46:05.000Z</time>
      </trkpt>
      <trkpt lat="43.6796" lon="3.03379">
        <ele>489.39999389648</ele>
        <time>2023-05-28T12:46:09.000Z</time>
      </trkpt>
      <trkpt lat="43.6796" lon="3.03379">
        <ele>489.20001220703</ele>
        <time>2023-05-28T12:46:12.000Z</time>
      </trkpt>
      <trkpt lat="43.67957" lon="3.03379">
        <ele>489.20001220703</ele>
        <time>2023-05-28T12:46:21.000Z</time>
      </trkpt>
      <trkpt lat="43.67954" lon="3.0338">
        <ele>488.39999389648</ele>
        <time>2023-05-28T12:46:27.000Z</time>
      </trkpt>
      <trkpt lat="43.67951" lon="3.03382">
        <ele>488</ele>
        <time>2023-05-28T12:46:33.000Z</time>
      </trkpt>
      <trkpt lat="43.67949" lon="3.03383">
        <ele>487.39999389648</ele>
        <time>2023-05-28T12:46:38.000Z</time>
      </trkpt>
      <trkpt lat="43.67948" lon="3.03383">
        <ele>487.20001220703</ele>
        <time>2023-05-28T12:46:39.000Z</time>
      </trkpt>
      <trkpt lat="43.67947" lon="3.03385">
        <ele>486.60000610352</ele>
        <time>2023-05-28T12:46:44.000Z</time>
      </trkpt>
      <trkpt lat="43.67946" lon="3.03385">
        <ele>486.39999389648</ele>
        <time>2023-05-28T12:46:47.000Z</time>
      </trkpt>
      <trkpt lat="43.67944" lon="3.03386">
        <ele>486.20001220703</ele>
        <time>2023-05-28T12:46:51.000Z</time>
      </trkpt>
      <trkpt lat="43.67942" lon="3.03387">
        <ele>485.20001220703</ele>
        <time>2023-05-28T12:46:57.000Z</time>
      </trkpt>
      <trkpt lat="43.67942" lon="3.03387">
        <ele>485</ele>
        <time>2023-05-28T12:46:58.000Z</time>
      </trkpt>
      <trkpt lat="43.67939" lon="3.03389">
        <ele>484.20001220703</ele>
        <time>2023-05-28T12:47:06.000Z</time>
      </trkpt>
      <trkpt lat="43.67936" lon="3.03392">
        <ele>483</ele>
        <time>2023-05-28T12:47:14.000Z</time>
      </trkpt>
      <trkpt lat="43.67933" lon="3.03394">
        <ele>482.20001220703</ele>
        <time>2023-05-28T12:47:20.000Z</time>
      </trkpt>
      <trkpt lat="43.67933" lon="3.03394">
        <ele>482</ele>
        <time>2023-05-28T12:47:23.000Z</time>
      </trkpt>
      <trkpt lat="43.6793" lon="3.03397">
        <ele>481.60000610352</ele>
        <time>2023-05-28T12:47:28.000Z</time>
      </trkpt>
      <trkpt lat="43.67926" lon="3.03399">
        <ele>480.79998779297</ele>
        <time>2023-05-28T12:47:34.000Z</time>
      </trkpt>
      <trkpt lat="43.67923" lon="3.03402">
        <ele>480.20001220703</ele>
        <time>2023-05-28T12:47:41.000Z</time>
      </trkpt>
      <trkpt lat="43.67922" lon="3.03401">
        <ele>479.79998779297</ele>
        <time>2023-05-28T12:47:44.000Z</time>
      </trkpt>
      <trkpt lat="43.67919" lon="3.03405">
        <ele>479</ele>
        <time>2023-05-28T12:47:50.000Z</time>
      </trkpt>
      <trkpt lat="43.67918" lon="3.03405">
        <ele>478.79998779297</ele>
        <time>2023-05-28T12:47:52.000Z</time>
      </trkpt>
      <trkpt lat="43.67916" lon="3.03407">
        <ele>478.20001220703</ele>
        <time>2023-05-28T12:47:58.000Z</time>
      </trkpt>
      <trkpt lat="43.67916" lon="3.03409">
        <ele>477.79998779297</ele>
        <time>2023-05-28T12:48:04.000Z</time>
      </trkpt>
      <trkpt lat="43.67916" lon="3.0341">
        <ele>477.60000610352</ele>
        <time>2023-05-28T12:48:06.000Z</time>
      </trkpt>
      <trkpt lat="43.67917" lon="3.03409">
        <ele>477.60000610352</ele>
        <time>2023-05-28T12:48:12.000Z</time>
      </trkpt>
      <trkpt lat="43.67913" lon="3.03409">
        <ele>477.39999389648</ele>
        <time>2023-05-28T12:48:22.000Z</time>
      </trkpt>
      <trkpt lat="43.67909" lon="3.0342">
        <ele>476.60000610352</ele>
        <time>2023-05-28T12:48:30.000Z</time>
      </trkpt>
      <trkpt lat="43.67906" lon="3.03422">
        <ele>476</ele>
        <time>2023-05-28T12:48:37.000Z</time>
      </trkpt>
      <trkpt lat="43.67904" lon="3.03424">
        <ele>475.39999389648</ele>
        <time>2023-05-28T12:48:41.000Z</time>
      </trkpt>
      <trkpt lat="43.67903" lon="3.03426">
        <ele>475</ele>
        <time>2023-05-28T12:48:45.000Z</time>
      </trkpt>
      <trkpt lat="43.679" lon="3.03425">
        <ele>474.39999389648</ele>
        <time>2023-05-28T12:48:51.000Z</time>
      </trkpt>
      <trkpt lat="43.679" lon="3.03426">
        <ele>474.39999389648</ele>
        <time>2023-05-28T12:48:52.000Z</time>
      </trkpt>
      <trkpt lat="43.67898" lon="3.03426">
        <ele>473.60000610352</ele>
        <time>2023-05-28T12:48:59.000Z</time>
      </trkpt>
      <trkpt lat="43.67897" lon="3.03429">
        <ele>473.39999389648</ele>
        <time>2023-05-28T12:49:01.000Z</time>
      </trkpt>
      <trkpt lat="43.67897" lon="3.03428">
        <ele>472.60000610352</ele>
        <time>2023-05-28T12:49:06.000Z</time>
      </trkpt>
      <trkpt lat="43.67893" lon="3.03432">
        <ele>472.20001220703</ele>
        <time>2023-05-28T12:49:13.000Z</time>
      </trkpt>
      <trkpt lat="43.67892" lon="3.03436">
        <ele>471.20001220703</ele>
        <time>2023-05-28T12:49:20.000Z</time>
      </trkpt>
      <trkpt lat="43.67892" lon="3.03437">
        <ele>471.20001220703</ele>
        <time>2023-05-28T12:49:21.000Z</time>
      </trkpt>
      <trkpt lat="43.67889" lon="3.03438">
        <ele>470.60000610352</ele>
        <time>2023-05-28T12:49:26.000Z</time>
      </trkpt>
      <trkpt lat="43.67887" lon="3.03436">
        <ele>470.20001220703</ele>
        <time>2023-05-28T12:49:29.000Z</time>
      </trkpt>
      <trkpt lat="43.67887" lon="3.03433">
        <ele>469.60000610352</ele>
        <time>2023-05-28T12:49:33.000Z</time>
      </trkpt>
      <trkpt lat="43.67888" lon="3.03429">
        <ele>469.20001220703</ele>
        <time>2023-05-28T12:49:38.000Z</time>
      </trkpt>
      <trkpt lat="43.67888" lon="3.03428">
        <ele>468.79998779297</ele>
        <time>2023-05-28T12:49:40.000Z</time>
      </trkpt>
      <trkpt lat="43.67889" lon="3.03423">
        <ele>468</ele>
        <time>2023-05-28T12:49:47.000Z</time>
      </trkpt>
      <trkpt lat="43.6789" lon="3.03418">
        <ele>467.20001220703</ele>
        <time>2023-05-28T12:49:56.000Z</time>
      </trkpt>
      <trkpt lat="43.67891" lon="3.03417">
        <ele>467</ele>
        <time>2023-05-28T12:49:58.000Z</time>
      </trkpt>
      <trkpt lat="43.6789" lon="3.03413">
        <ele>466.39999389648</ele>
        <time>2023-05-28T12:50:04.000Z</time>
      </trkpt>
      <trkpt lat="43.6789" lon="3.03412">
        <ele>466</ele>
        <time>2023-05-28T12:50:09.000Z</time>
      </trkpt>
      <trkpt lat="43.6789" lon="3.0341">
        <ele>465.79998779297</ele>
        <time>2023-05-28T12:50:11.000Z</time>
      </trkpt>
      <trkpt lat="43.67889" lon="3.03406">
        <ele>464.79998779297</ele>
        <time>2023-05-28T12:50:17.000Z</time>
      </trkpt>
      <trkpt lat="43.67889" lon="3.03405">
        <ele>464.60000610352</ele>
        <time>2023-05-28T12:50:18.000Z</time>
      </trkpt>
      <trkpt lat="43.67889" lon="3.03403">
        <ele>464.20001220703</ele>
        <time>2023-05-28T12:50:26.000Z</time>
      </trkpt>
      <trkpt lat="43.67888" lon="3.03401">
        <ele>463.79998779297</ele>
        <time>2023-05-28T12:50:31.000Z</time>
      </trkpt>
      <trkpt lat="43.67887" lon="3.03401">
        <ele>463.39999389648</ele>
        <time>2023-05-28T12:50:34.000Z</time>
      </trkpt>
      <trkpt lat="43.67886" lon="3.03402">
        <ele>462.60000610352</ele>
        <time>2023-05-28T12:50:40.000Z</time>
      </trkpt>
      <trkpt lat="43.67886" lon="3.03405">
        <ele>462</ele>
        <time>2023-05-28T12:50:47.000Z</time>
      </trkpt>
      <trkpt lat="43.67886" lon="3.03408">
        <ele>462.20001220703</ele>
        <time>2023-05-28T12:50:52.000Z</time>
      </trkpt>
      <trkpt lat="43.67886" lon="3.03414">
        <ele>462.39999389648</ele>
        <time>2023-05-28T12:51:00.000Z</time>
      </trkpt>
      <trkpt lat="43.67885" lon="3.03416">
        <ele>462.39999389648</ele>
        <time>2023-05-28T12:51:06.000Z</time>
      </trkpt>
      <trkpt lat="43.67887" lon="3.03416">
        <ele>462.79998779297</ele>
        <time>2023-05-28T12:51:14.000Z</time>
      </trkpt>
      <trkpt lat="43.67887" lon="3.03415">
        <ele>462.60000610352</ele>
        <time>2023-05-28T12:51:21.000Z</time>
      </trkpt>
      <trkpt lat="43.67886" lon="3.03418">
        <ele>462.60000610352</ele>
        <time>2023-05-28T12:51:29.000Z</time>
      </trkpt>
      <trkpt lat="43.67884" lon="3.03424">
        <ele>463</ele>
        <time>2023-05-28T12:51:36.000Z</time>
      </trkpt>
      <trkpt lat="43.67881" lon="3.03429">
        <ele>463.39999389648</ele>
        <time>2023-05-28T12:51:44.000Z</time>
      </trkpt>
      <trkpt lat="43.67878" lon="3.03435">
        <ele>463.20001220703</ele>
        <time>2023-05-28T12:51:50.000Z</time>
      </trkpt>
      <trkpt lat="43.67877" lon="3.0344">
        <ele>463</ele>
        <time>2023-05-28T12:51:55.000Z</time>
      </trkpt>
      <trkpt lat="43.67877" lon="3.03441">
        <ele>463</ele>
        <time>2023-05-28T12:51:56.000Z</time>
      </trkpt>
      <trkpt lat="43.67875" lon="3.03446">
        <ele>462.60000610352</ele>
        <time>2023-05-28T12:52:00.000Z</time>
      </trkpt>
      <trkpt lat="43.67875" lon="3.03447">
        <ele>462.60000610352</ele>
        <time>2023-05-28T12:52:01.000Z</time>
      </trkpt>
      <trkpt lat="43.67873" lon="3.03454">
        <ele>462.20001220703</ele>
        <time>2023-05-28T12:52:07.000Z</time>
      </trkpt>
      <trkpt lat="43.67871" lon="3.03459">
        <ele>462</ele>
        <time>2023-05-28T12:52:13.000Z</time>
      </trkpt>
      <trkpt lat="43.6787" lon="3.03459">
        <ele>461.79998779297</ele>
        <time>2023-05-28T12:52:14.000Z</time>
      </trkpt>
      <trkpt lat="43.67865" lon="3.03465">
        <ele>461.60000610352</ele>
        <time>2023-05-28T12:52:22.000Z</time>
      </trkpt>
      <trkpt lat="43.67863" lon="3.03467">
        <ele>461.39999389648</ele>
        <time>2023-05-28T12:52:24.000Z</time>
      </trkpt>
      <trkpt lat="43.67862" lon="3.03468">
        <ele>461.39999389648</ele>
        <time>2023-05-28T12:52:28.000Z</time>
      </trkpt>
      <trkpt lat="43.67861" lon="3.03466">
        <ele>461</ele>
        <time>2023-05-28T12:52:33.000Z</time>
      </trkpt>
      <trkpt lat="43.67859" lon="3.03465">
        <ele>460.39999389648</ele>
        <time>2023-05-28T12:52:36.000Z</time>
      </trkpt>
      <trkpt lat="43.67857" lon="3.03464">
        <ele>460.20001220703</ele>
        <time>2023-05-28T12:52:39.000Z</time>
      </trkpt>
      <trkpt lat="43.67854" lon="3.03464">
        <ele>459.60000610352</ele>
        <time>2023-05-28T12:52:46.000Z</time>
      </trkpt>
      <trkpt lat="43.67852" lon="3.03463">
        <ele>459.39999389648</ele>
        <time>2023-05-28T12:52:50.000Z</time>
      </trkpt>
      <trkpt lat="43.67852" lon="3.03463">
        <ele>459</ele>
        <time>2023-05-28T12:52:52.000Z</time>
      </trkpt>
      <trkpt lat="43.67849" lon="3.03461">
        <ele>458.39999389648</ele>
        <time>2023-05-28T12:52:58.000Z</time>
      </trkpt>
      <trkpt lat="43.67848" lon="3.03461">
        <ele>458.20001220703</ele>
        <time>2023-05-28T12:52:59.000Z</time>
      </trkpt>
      <trkpt lat="43.67847" lon="3.03461">
        <ele>458</ele>
        <time>2023-05-28T12:53:05.000Z</time>
      </trkpt>
      <trkpt lat="43.67843" lon="3.03458">
        <ele>457.79998779297</ele>
        <time>2023-05-28T12:53:12.000Z</time>
      </trkpt>
      <trkpt lat="43.67843" lon="3.03454">
        <ele>457.20001220703</ele>
        <time>2023-05-28T12:53:17.000Z</time>
      </trkpt>
      <trkpt lat="43.67843" lon="3.03453">
        <ele>457</ele>
        <time>2023-05-28T12:53:18.000Z</time>
      </trkpt>
      <trkpt lat="43.67844" lon="3.0345">
        <ele>456.20001220703</ele>
        <time>2023-05-28T12:53:23.000Z</time>
      </trkpt>
      <trkpt lat="43.67844" lon="3.0345">
        <ele>456</ele>
        <time>2023-05-28T12:53:24.000Z</time>
      </trkpt>
      <trkpt lat="43.67844" lon="3.03448">
        <ele>455</ele>
        <time>2023-05-28T12:53:28.000Z</time>
      </trkpt>
      <trkpt lat="43.67845" lon="3.03447">
        <ele>454.60000610352</ele>
        <time>2023-05-28T12:53:30.000Z</time>
      </trkpt>
      <trkpt lat="43.67845" lon="3.03447">
        <ele>454</ele>
        <time>2023-05-28T12:53:37.000Z</time>
      </trkpt>
      <trkpt lat="43.67845" lon="3.03447">
        <ele>453.79998779297</ele>
        <time>2023-05-28T12:53:44.000Z</time>
      </trkpt>
      <trkpt lat="43.67845" lon="3.03446">
        <ele>453.79998779297</ele>
        <time>2023-05-28T12:53:46.000Z</time>
      </trkpt>
      <trkpt lat="43.67845" lon="3.03444">
        <ele>453.79998779297</ele>
        <time>2023-05-28T12:53:51.000Z</time>
      </trkpt>
      <trkpt lat="43.67845" lon="3.0344">
        <ele>453</ele>
        <time>2023-05-28T12:53:57.000Z</time>
      </trkpt>
      <trkpt lat="43.67845" lon="3.03437">
        <ele>452.79998779297</ele>
        <time>2023-05-28T12:53:59.000Z</time>
      </trkpt>
      <trkpt lat="43.67845" lon="3.03433">
        <ele>452</ele>
        <time>2023-05-28T12:54:03.000Z</time>
      </trkpt>
      <trkpt lat="43.67845" lon="3.03433">
        <ele>451.79998779297</ele>
        <time>2023-05-28T12:54:04.000Z</time>
      </trkpt>
      <trkpt lat="43.67845" lon="3.03428">
        <ele>450.79998779297</ele>
        <time>2023-05-28T12:54:10.000Z</time>
      </trkpt>
      <trkpt lat="43.67845" lon="3.03426">
        <ele>450.60000610352</ele>
        <time>2023-05-28T12:54:12.000Z</time>
      </trkpt>
      <trkpt lat="43.67846" lon="3.0342">
        <ele>449.60000610352</ele>
        <time>2023-05-28T12:54:18.000Z</time>
      </trkpt>
      <trkpt lat="43.67848" lon="3.03415">
        <ele>448.39999389648</ele>
        <time>2023-05-28T12:54:23.000Z</time>
      </trkpt>
      <trkpt lat="43.67849" lon="3.03412">
        <ele>448</ele>
        <time>2023-05-28T12:54:26.000Z</time>
      </trkpt>
      <trkpt lat="43.67852" lon="3.03405">
        <ele>447.39999389648</ele>
        <time>2023-05-28T12:54:34.000Z</time>
      </trkpt>
      <trkpt lat="43.67854" lon="3.03402">
        <ele>446.79998779297</ele>
        <time>2023-05-28T12:54:37.000Z</time>
      </trkpt>
      <trkpt lat="43.67855" lon="3.034">
        <ele>446.20001220703</ele>
        <time>2023-05-28T12:54:39.000Z</time>
      </trkpt>
      <trkpt lat="43.67855" lon="3.03399">
        <ele>446</ele>
        <time>2023-05-28T12:54:40.000Z</time>
      </trkpt>
      <trkpt lat="43.67856" lon="3.03395">
        <ele>445.60000610352</ele>
        <time>2023-05-28T12:54:43.000Z</time>
      </trkpt>
      <trkpt lat="43.67856" lon="3.0339">
        <ele>445.39999389648</ele>
        <time>2023-05-28T12:54:47.000Z</time>
      </trkpt>
      <trkpt lat="43.67856" lon="3.03388">
        <ele>445.20001220703</ele>
        <time>2023-05-28T12:54:49.000Z</time>
      </trkpt>
      <trkpt lat="43.67856" lon="3.0338">
        <ele>444.20001220703</ele>
        <time>2023-05-28T12:54:55.000Z</time>
      </trkpt>
      <trkpt lat="43.67855" lon="3.03379">
        <ele>444</ele>
        <time>2023-05-28T12:54:56.000Z</time>
      </trkpt>
      <trkpt lat="43.67855" lon="3.03372">
        <ele>443</ele>
        <time>2023-05-28T12:55:01.000Z</time>
      </trkpt>
      <trkpt lat="43.67856" lon="3.03368">
        <ele>442</ele>
        <time>2023-05-28T12:55:05.000Z</time>
      </trkpt>
      <trkpt lat="43.67856" lon="3.03366">
        <ele>441.79998779297</ele>
        <time>2023-05-28T12:55:06.000Z</time>
      </trkpt>
      <trkpt lat="43.67856" lon="3.03362">
        <ele>441</ele>
        <time>2023-05-28T12:55:11.000Z</time>
      </trkpt>
      <trkpt lat="43.67856" lon="3.0336">
        <ele>440.79998779297</ele>
        <time>2023-05-28T12:55:13.000Z</time>
      </trkpt>
      <trkpt lat="43.67856" lon="3.03357">
        <ele>439.60000610352</ele>
        <time>2023-05-28T12:55:18.000Z</time>
      </trkpt>
      <trkpt lat="43.67856" lon="3.03356">
        <ele>439.39999389648</ele>
        <time>2023-05-28T12:55:20.000Z</time>
      </trkpt>
      <trkpt lat="43.67853" lon="3.03354">
        <ele>438.60000610352</ele>
        <time>2023-05-28T12:55:25.000Z</time>
      </trkpt>
      <trkpt lat="43.67853" lon="3.03353">
        <ele>438.39999389648</ele>
        <time>2023-05-28T12:55:26.000Z</time>
      </trkpt>
      <trkpt lat="43.67851" lon="3.03351">
        <ele>437.60000610352</ele>
        <time>2023-05-28T12:55:31.000Z</time>
      </trkpt>
      <trkpt lat="43.6785" lon="3.03343">
        <ele>436.79998779297</ele>
        <time>2023-05-28T12:55:38.000Z</time>
      </trkpt>
      <trkpt lat="43.6785" lon="3.03341">
        <ele>436.39999389648</ele>
        <time>2023-05-28T12:55:40.000Z</time>
      </trkpt>
      <trkpt lat="43.67849" lon="3.03334">
        <ele>435.60000610352</ele>
        <time>2023-05-28T12:55:46.000Z</time>
      </trkpt>
      <trkpt lat="43.67849" lon="3.03333">
        <ele>435.39999389648</ele>
        <time>2023-05-28T12:55:48.000Z</time>
      </trkpt>
      <trkpt lat="43.67849" lon="3.03332">
        <ele>435.20001220703</ele>
        <time>2023-05-28T12:55:51.000Z</time>
      </trkpt>
      <trkpt lat="43.67851" lon="3.03331">
        <ele>435</ele>
        <time>2023-05-28T12:55:59.000Z</time>
      </trkpt>
      <trkpt lat="43.67852" lon="3.03332">
        <ele>434.79998779297</ele>
        <time>2023-05-28T12:56:07.000Z</time>
      </trkpt>
      <trkpt lat="43.67851" lon="3.03332">
        <ele>434.79998779297</ele>
        <time>2023-05-28T12:56:13.000Z</time>
      </trkpt>
      <trkpt lat="43.67852" lon="3.03332">
        <ele>435.20001220703</ele>
        <time>2023-05-28T12:56:20.000Z</time>
      </trkpt>
      <trkpt lat="43.67851" lon="3.03325">
        <ele>435</ele>
        <time>2023-05-28T12:56:27.000Z</time>
      </trkpt>
      <trkpt lat="43.6785" lon="3.03323">
        <ele>435</ele>
        <time>2023-05-28T12:56:34.000Z</time>
      </trkpt>
      <trkpt lat="43.67849" lon="3.03323">
        <ele>435.20001220703</ele>
        <time>2023-05-28T12:56:44.000Z</time>
      </trkpt>
      <trkpt lat="43.67848" lon="3.03323">
        <ele>435.20001220703</ele>
        <time>2023-05-28T12:56:55.000Z</time>
      </trkpt>
      <trkpt lat="43.67846" lon="3.03323">
        <ele>434.79998779297</ele>
        <time>2023-05-28T12:57:03.000Z</time>
      </trkpt>
      <trkpt lat="43.67848" lon="3.03323">
        <ele>435</ele>
        <time>2023-05-28T12:57:10.000Z</time>
      </trkpt>
      <trkpt lat="43.67848" lon="3.03323">
        <ele>435</ele>
        <time>2023-05-28T12:57:16.000Z</time>
      </trkpt>
      <trkpt lat="43.67846" lon="3.03324">
        <ele>435</ele>
        <time>2023-05-28T12:57:28.000Z</time>
      </trkpt>
      <trkpt lat="43.67845" lon="3.03324">
        <ele>435.20001220703</ele>
        <time>2023-05-28T12:57:33.000Z</time>
      </trkpt>
      <trkpt lat="43.67849" lon="3.03327">
        <ele>435</ele>
        <time>2023-05-28T12:57:38.000Z</time>
      </trkpt>
      <trkpt lat="43.67849" lon="3.0333">
        <ele>435.20001220703</ele>
        <time>2023-05-28T12:57:44.000Z</time>
      </trkpt>
      <trkpt lat="43.6785" lon="3.0333">
        <ele>435.60000610352</ele>
        <time>2023-05-28T12:57:50.000Z</time>
      </trkpt>
      <trkpt lat="43.67852" lon="3.03332">
        <ele>435.79998779297</ele>
        <time>2023-05-28T12:57:56.000Z</time>
      </trkpt>
      <trkpt lat="43.67852" lon="3.03333">
        <ele>435.60000610352</ele>
        <time>2023-05-28T12:58:04.000Z</time>
      </trkpt>
      <trkpt lat="43.67852" lon="3.03332">
        <ele>435.79998779297</ele>
        <time>2023-05-28T12:58:15.000Z</time>
      </trkpt>
      <trkpt lat="43.67854" lon="3.03332">
        <ele>435.60000610352</ele>
        <time>2023-05-28T12:58:25.000Z</time>
      </trkpt>
      <trkpt lat="43.67856" lon="3.03332">
        <ele>436</ele>
        <time>2023-05-28T12:58:35.000Z</time>
      </trkpt>
      <trkpt lat="43.67855" lon="3.03332">
        <ele>435.79998779297</ele>
        <time>2023-05-28T12:58:47.000Z</time>
      </trkpt>
      <trkpt lat="43.67856" lon="3.03332">
        <ele>436</ele>
        <time>2023-05-28T12:58:56.000Z</time>
      </trkpt>
      <trkpt lat="43.67857" lon="3.03332">
        <ele>435.79998779297</ele>
        <time>2023-05-28T12:59:10.000Z</time>
      </trkpt>
      <trkpt lat="43.67859" lon="3.03332">
        <ele>436</ele>
        <time>2023-05-28T12:59:21.000Z</time>
      </trkpt>
      <trkpt lat="43.67859" lon="3.03332">
        <ele>435.79998779297</ele>
        <time>2023-05-28T12:59:31.000Z</time>
      </trkpt>
      <trkpt lat="43.67858" lon="3.0333">
        <ele>436.20001220703</ele>
        <time>2023-05-28T12:59:37.000Z</time>
      </trkpt>
      <trkpt lat="43.67855" lon="3.03325">
        <ele>436</ele>
        <time>2023-05-28T12:59:45.000Z</time>
      </trkpt>
      <trkpt lat="43.67852" lon="3.03323">
        <ele>435.60000610352</ele>
        <time>2023-05-28T12:59:52.000Z</time>
      </trkpt>
      <trkpt lat="43.67851" lon="3.03323">
        <ele>435.79998779297</ele>
        <time>2023-05-28T12:59:59.000Z</time>
      </trkpt>
      <trkpt lat="43.6785" lon="3.03323">
        <ele>435.60000610352</ele>
        <time>2023-05-28T13:00:08.000Z</time>
      </trkpt>
      <trkpt lat="43.67849" lon="3.03323">
        <ele>435.79998779297</ele>
        <time>2023-05-28T13:00:24.000Z</time>
      </trkpt>
      <trkpt lat="43.67849" lon="3.03323">
        <ele>435.79998779297</ele>
        <time>2023-05-28T13:00:32.000Z</time>
      </trkpt>
      <trkpt lat="43.6785" lon="3.03325">
        <ele>435.79998779297</ele>
        <time>2023-05-28T13:00:39.000Z</time>
      </trkpt>
      <trkpt lat="43.67851" lon="3.03329">
        <ele>435.79998779297</ele>
        <time>2023-05-28T13:00:45.000Z</time>
      </trkpt>
      <trkpt lat="43.67851" lon="3.03329">
        <ele>435.39999389648</ele>
        <time>2023-05-28T13:00:51.000Z</time>
      </trkpt>
      <trkpt lat="43.67854" lon="3.03329">
        <ele>435.79998779297</ele>
        <time>2023-05-28T13:00:57.000Z</time>
      </trkpt>
      <trkpt lat="43.67855" lon="3.03329">
        <ele>435.60000610352</ele>
        <time>2023-05-28T13:00:59.000Z</time>
      </trkpt>
      <trkpt lat="43.67855" lon="3.03329">
        <ele>436</ele>
        <time>2023-05-28T13:01:04.000Z</time>
      </trkpt>
      <trkpt lat="43.67855" lon="3.03329">
        <ele>436.39999389648</ele>
        <time>2023-05-28T13:01:12.000Z</time>
      </trkpt>
      <trkpt lat="43.67859" lon="3.03328">
        <ele>436.39999389648</ele>
        <time>2023-05-28T13:01:14.000Z</time>
      </trkpt>
      <trkpt lat="43.6786" lon="3.03328">
        <ele>438</ele>
        <time>2023-05-28T13:01:17.000Z</time>
      </trkpt>
      <trkpt lat="43.6786" lon="3.03328">
        <ele>437.39999389648</ele>
        <time>2023-05-28T13:01:18.000Z</time>
      </trkpt>
      <trkpt lat="43.6786" lon="3.03328">
        <ele>436.60000610352</ele>
        <time>2023-05-28T13:01:19.000Z</time>
      </trkpt>
      <trkpt lat="43.67859" lon="3.03328">
        <ele>435</ele>
        <time>2023-05-28T13:01:22.000Z</time>
      </trkpt>
      <trkpt lat="43.67859" lon="3.03328">
        <ele>435.20001220703</ele>
        <time>2023-05-28T13:01:23.000Z</time>
      </trkpt>
      <trkpt lat="43.67859" lon="3.03328">
        <ele>436.39999389648</ele>
        <time>2023-05-28T13:01:24.000Z</time>
      </trkpt>
      <trkpt lat="43.67859" lon="3.03328">
        <ele>436</ele>
        <time>2023-05-28T13:01:28.000Z</time>
      </trkpt>
      <trkpt lat="43.67861" lon="3.03327">
        <ele>435.39999389648</ele>
        <time>2023-05-28T13:01:35.000Z</time>
      </trkpt>
      <trkpt lat="43.67861" lon="3.03328">
        <ele>435.20001220703</ele>
        <time>2023-05-28T13:01:36.000Z</time>
      </trkpt>
      <trkpt lat="43.67864" lon="3.03329">
        <ele>435.79998779297</ele>
        <time>2023-05-28T13:01:40.000Z</time>
      </trkpt>
      <trkpt lat="43.67863" lon="3.0333">
        <ele>436.39999389648</ele>
        <time>2023-05-28T13:01:43.000Z</time>
      </trkpt>
      <trkpt lat="43.67861" lon="3.03329">
        <ele>436.79998779297</ele>
        <time>2023-05-28T13:01:48.000Z</time>
      </trkpt>
      <trkpt lat="43.67861" lon="3.03329">
        <ele>436.20001220703</ele>
        <time>2023-05-28T13:01:52.000Z</time>
      </trkpt>
      <trkpt lat="43.67861" lon="3.03329">
        <ele>435.39999389648</ele>
        <time>2023-05-28T13:01:58.000Z</time>
      </trkpt>
      <trkpt lat="43.67861" lon="3.03329">
        <ele>435.39999389648</ele>
        <time>2023-05-28T13:01:59.000Z</time>
      </trkpt>
      <trkpt lat="43.67862" lon="3.03329">
        <ele>435.79998779297</ele>
        <time>2023-05-28T13:02:04.000Z</time>
      </trkpt>
      <trkpt lat="43.67861" lon="3.03329">
        <ele>436.39999389648</ele>
        <time>2023-05-28T13:02:12.000Z</time>
      </trkpt>
      <trkpt lat="43.67863" lon="3.03329">
        <ele>436.39999389648</ele>
        <time>2023-05-28T13:02:19.000Z</time>
      </trkpt>
      <trkpt lat="43.67863" lon="3.03329">
        <ele>436.39999389648</ele>
        <time>2023-05-28T13:02:26.000Z</time>
      </trkpt>
      <trkpt lat="43.67864" lon="3.03329">
        <ele>436.39999389648</ele>
        <time>2023-05-28T13:02:35.000Z</time>
      </trkpt>
      <trkpt lat="43.67863" lon="3.0333">
        <ele>436.39999389648</ele>
        <time>2023-05-28T13:02:46.000Z</time>
      </trkpt>
      <trkpt lat="43.67862" lon="3.0333">
        <ele>436</ele>
        <time>2023-05-28T13:02:52.000Z</time>
      </trkpt>
      <trkpt lat="43.67863" lon="3.0333">
        <ele>436.39999389648</ele>
        <time>2023-05-28T13:02:58.000Z</time>
      </trkpt>
      <trkpt lat="43.67861" lon="3.03329">
        <ele>436.60000610352</ele>
        <time>2023-05-28T13:03:05.000Z</time>
      </trkpt>
      <trkpt lat="43.6786" lon="3.03327">
        <ele>436.60000610352</ele>
        <time>2023-05-28T13:03:12.000Z</time>
      </trkpt>
      <trkpt lat="43.67855" lon="3.03328">
        <ele>436.60000610352</ele>
        <time>2023-05-28T13:03:21.000Z</time>
      </trkpt>
      <trkpt lat="43.67854" lon="3.0333">
        <ele>436.39999389648</ele>
        <time>2023-05-28T13:03:28.000Z</time>
      </trkpt>
      <trkpt lat="43.67855" lon="3.03331">
        <ele>436.60000610352</ele>
        <time>2023-05-28T13:03:35.000Z</time>
      </trkpt>
      <trkpt lat="43.67855" lon="3.03329">
        <ele>436.39999389648</ele>
        <time>2023-05-28T13:03:42.000Z</time>
      </trkpt>
      <trkpt lat="43.67854" lon="3.03323">
        <ele>436.20001220703</ele>
        <time>2023-05-28T13:03:49.000Z</time>
      </trkpt>
      <trkpt lat="43.67853" lon="3.03323">
        <ele>436.39999389648</ele>
        <time>2023-05-28T13:03:58.000Z</time>
      </trkpt>
      <trkpt lat="43.67852" lon="3.03326">
        <ele>436.39999389648</ele>
        <time>2023-05-28T13:04:02.000Z</time>
      </trkpt>
      <trkpt lat="43.67854" lon="3.03329">
        <ele>435.79998779297</ele>
        <time>2023-05-28T13:04:07.000Z</time>
      </trkpt>
      <trkpt lat="43.67853" lon="3.0333">
        <ele>436.39999389648</ele>
        <time>2023-05-28T13:04:17.000Z</time>
      </trkpt>
      <trkpt lat="43.67853" lon="3.03331">
        <ele>436.20001220703</ele>
        <time>2023-05-28T13:04:29.000Z</time>
      </trkpt>
      <trkpt lat="43.67856" lon="3.03333">
        <ele>436</ele>
        <time>2023-05-28T13:04:34.000Z</time>
      </trkpt>
      <trkpt lat="43.67855" lon="3.03333">
        <ele>436</ele>
        <time>2023-05-28T13:04:39.000Z</time>
      </trkpt>
      <trkpt lat="43.67856" lon="3.03332">
        <ele>436</ele>
        <time>2023-05-28T13:04:44.000Z</time>
      </trkpt>
      <trkpt lat="43.67858" lon="3.03332">
        <ele>436.20001220703</ele>
        <time>2023-05-28T13:04:50.000Z</time>
      </trkpt>
      <trkpt lat="43.6786" lon="3.03331">
        <ele>436.39999389648</ele>
        <time>2023-05-28T13:04:57.000Z</time>
      </trkpt>
      <trkpt lat="43.67862" lon="3.0333">
        <ele>436.60000610352</ele>
        <time>2023-05-28T13:05:04.000Z</time>
      </trkpt>
      <trkpt lat="43.67863" lon="3.0333">
        <ele>436.60000610352</ele>
        <time>2023-05-28T13:05:11.000Z</time>
      </trkpt>
      <trkpt lat="43.67865" lon="3.0333">
        <ele>436.60000610352</ele>
        <time>2023-05-28T13:05:18.000Z</time>
      </trkpt>
      <trkpt lat="43.67865" lon="3.0333">
        <ele>436.39999389648</ele>
        <time>2023-05-28T13:05:26.000Z</time>
      </trkpt>
      <trkpt lat="43.67865" lon="3.03331">
        <ele>436.60000610352</ele>
        <time>2023-05-28T13:05:38.000Z</time>
      </trkpt>
      <trkpt lat="43.67866" lon="3.0333">
        <ele>436.39999389648</ele>
        <time>2023-05-28T13:05:42.000Z</time>
      </trkpt>
      <trkpt lat="43.67865" lon="3.0333">
        <ele>436.79998779297</ele>
        <time>2023-05-28T13:05:49.000Z</time>
      </trkpt>
      <trkpt lat="43.67865" lon="3.0333">
        <ele>437</ele>
        <time>2023-05-28T13:05:55.000Z</time>
      </trkpt>
      <trkpt lat="43.67867" lon="3.03329">
        <ele>437</ele>
        <time>2023-05-28T13:06:02.000Z</time>
      </trkpt>
      <trkpt lat="43.67868" lon="3.0333">
        <ele>437.39999389648</ele>
        <time>2023-05-28T13:06:08.000Z</time>
      </trkpt>
      <trkpt lat="43.67869" lon="3.03329">
        <ele>437.60000610352</ele>
        <time>2023-05-28T13:06:12.000Z</time>
      </trkpt>
      <trkpt lat="43.6787" lon="3.03328">
        <ele>437.60000610352</ele>
        <time>2023-05-28T13:06:25.000Z</time>
      </trkpt>
      <trkpt lat="43.6787" lon="3.03328">
        <ele>437</ele>
        <time>2023-05-28T13:06:29.000Z</time>
      </trkpt>
      <trkpt lat="43.6787" lon="3.03329">
        <ele>436.60000610352</ele>
        <time>2023-05-28T13:06:35.000Z</time>
      </trkpt>
      <trkpt lat="43.6787" lon="3.03329">
        <ele>436.39999389648</ele>
        <time>2023-05-28T13:06:36.000Z</time>
      </trkpt>
      <trkpt lat="43.67869" lon="3.03329">
        <ele>437</ele>
        <time>2023-05-28T13:06:44.000Z</time>
      </trkpt>
      <trkpt lat="43.67868" lon="3.0333">
        <ele>437</ele>
        <time>2023-05-28T13:06:48.000Z</time>
      </trkpt>
      <trkpt lat="43.67868" lon="3.0333">
        <ele>437</ele>
        <time>2023-05-28T13:06:52.000Z</time>
      </trkpt>
      <trkpt lat="43.67868" lon="3.0333">
        <ele>437.20001220703</ele>
        <time>2023-05-28T13:06:58.000Z</time>
      </trkpt>
      <trkpt lat="43.67867" lon="3.0333">
        <ele>437</ele>
        <time>2023-05-28T13:07:03.000Z</time>
      </trkpt>
      <trkpt lat="43.67866" lon="3.0333">
        <ele>437.39999389648</ele>
        <time>2023-05-28T13:07:09.000Z</time>
      </trkpt>
      <trkpt lat="43.67866" lon="3.0333">
        <ele>437.39999389648</ele>
        <time>2023-05-28T13:07:10.000Z</time>
      </trkpt>
      <trkpt lat="43.67864" lon="3.03331">
        <ele>437.79998779297</ele>
        <time>2023-05-28T13:07:15.000Z</time>
      </trkpt>
      <trkpt lat="43.67864" lon="3.03329">
        <ele>437.39999389648</ele>
        <time>2023-05-28T13:07:21.000Z</time>
      </trkpt>
      <trkpt lat="43.67858" lon="3.03326">
        <ele>437.39999389648</ele>
        <time>2023-05-28T13:07:28.000Z</time>
      </trkpt>
      <trkpt lat="43.67858" lon="3.03326">
        <ele>438.60000610352</ele>
        <time>2023-05-28T13:07:35.000Z</time>
      </trkpt>
      <trkpt lat="43.67855" lon="3.03327">
        <ele>439.60000610352</ele>
        <time>2023-05-28T13:07:40.000Z</time>
      </trkpt>
      <trkpt lat="43.67855" lon="3.03328">
        <ele>439.79998779297</ele>
        <time>2023-05-28T13:07:41.000Z</time>
      </trkpt>
      <trkpt lat="43.67852" lon="3.03329">
        <ele>439.39999389648</ele>
        <time>2023-05-28T13:07:46.000Z</time>
      </trkpt>
      <trkpt lat="43.67852" lon="3.03328">
        <ele>438.79998779297</ele>
        <time>2023-05-28T13:07:49.000Z</time>
      </trkpt>
      <trkpt lat="43.67852" lon="3.03328">
        <ele>438</ele>
        <time>2023-05-28T13:07:53.000Z</time>
      </trkpt>
      <trkpt lat="43.67853" lon="3.03327">
        <ele>437.60000610352</ele>
        <time>2023-05-28T13:07:56.000Z</time>
      </trkpt>
      <trkpt lat="43.67853" lon="3.03327">
        <ele>436.79998779297</ele>
        <time>2023-05-28T13:08:00.000Z</time>
      </trkpt>
      <trkpt lat="43.67851" lon="3.03326">
        <ele>436.39999389648</ele>
        <time>2023-05-28T13:08:03.000Z</time>
      </trkpt>
      <trkpt lat="43.67852" lon="3.03326">
        <ele>436</ele>
        <time>2023-05-28T13:08:06.000Z</time>
      </trkpt>
      <trkpt lat="43.67855" lon="3.03324">
        <ele>435.60000610352</ele>
        <time>2023-05-28T13:08:11.000Z</time>
      </trkpt>
      <trkpt lat="43.67859" lon="3.03319">
        <ele>436.20001220703</ele>
        <time>2023-05-28T13:08:19.000Z</time>
      </trkpt>
      <trkpt lat="43.67862" lon="3.03313">
        <ele>436.60000610352</ele>
        <time>2023-05-28T13:08:25.000Z</time>
      </trkpt>
      <trkpt lat="43.67863" lon="3.03309">
        <ele>436.39999389648</ele>
        <time>2023-05-28T13:08:30.000Z</time>
      </trkpt>
      <trkpt lat="43.67865" lon="3.03307">
        <ele>436.20001220703</ele>
        <time>2023-05-28T13:08:32.000Z</time>
      </trkpt>
      <trkpt lat="43.67867" lon="3.03306">
        <ele>436</ele>
        <time>2023-05-28T13:08:34.000Z</time>
      </trkpt>
      <trkpt lat="43.67869" lon="3.03302">
        <ele>435.79998779297</ele>
        <time>2023-05-28T13:08:38.000Z</time>
      </trkpt>
      <trkpt lat="43.67872" lon="3.03296">
        <ele>436</ele>
        <time>2023-05-28T13:08:45.000Z</time>
      </trkpt>
      <trkpt lat="43.67871" lon="3.03286">
        <ele>435.20001220703</ele>
        <time>2023-05-28T13:08:53.000Z</time>
      </trkpt>
      <trkpt lat="43.67869" lon="3.03284">
        <ele>434.79998779297</ele>
        <time>2023-05-28T13:08:57.000Z</time>
      </trkpt>
      <trkpt lat="43.67866" lon="3.03281">
        <ele>434.20001220703</ele>
        <time>2023-05-28T13:09:01.000Z</time>
      </trkpt>
      <trkpt lat="43.67866" lon="3.03281">
        <ele>434.20001220703</ele>
        <time>2023-05-28T13:09:02.000Z</time>
      </trkpt>
      <trkpt lat="43.67867" lon="3.03272">
        <ele>433.79998779297</ele>
        <time>2023-05-28T13:09:09.000Z</time>
      </trkpt>
      <trkpt lat="43.67867" lon="3.03268">
        <ele>433.60000610352</ele>
        <time>2023-05-28T13:09:16.000Z</time>
      </trkpt>
      <trkpt lat="43.67867" lon="3.03268">
        <ele>433.79998779297</ele>
        <time>2023-05-28T13:09:25.000Z</time>
      </trkpt>
      <trkpt lat="43.67867" lon="3.03269">
        <ele>433.60000610352</ele>
        <time>2023-05-28T13:09:31.000Z</time>
      </trkpt>
      <trkpt lat="43.67867" lon="3.03267">
        <ele>433.79998779297</ele>
        <time>2023-05-28T13:09:40.000Z</time>
      </trkpt>
      <trkpt lat="43.67867" lon="3.03267">
        <ele>433.60000610352</ele>
        <time>2023-05-28T13:09:51.000Z</time>
      </trkpt>
      <trkpt lat="43.67867" lon="3.03267">
        <ele>433.79998779297</ele>
        <time>2023-05-28T13:10:06.000Z</time>
      </trkpt>
      <trkpt lat="43.67866" lon="3.03267">
        <ele>433.60000610352</ele>
        <time>2023-05-28T13:10:32.000Z</time>
      </trkpt>
      <trkpt lat="43.67867" lon="3.03266">
        <ele>433.60000610352</ele>
        <time>2023-05-28T13:10:56.000Z</time>
      </trkpt>
      <trkpt lat="43.67866" lon="3.03266">
        <ele>433.79998779297</ele>
        <time>2023-05-28T13:11:13.000Z</time>
      </trkpt>
      <trkpt lat="43.67866" lon="3.03267">
        <ele>434.20001220703</ele>
        <time>2023-05-28T13:11:41.000Z</time>
      </trkpt>
      <trkpt lat="43.67865" lon="3.03267">
        <ele>434.39999389648</ele>
        <time>2023-05-28T13:11:59.000Z</time>
      </trkpt>
      <trkpt lat="43.67865" lon="3.03267">
        <ele>434.60000610352</ele>
        <time>2023-05-28T13:12:26.000Z</time>
      </trkpt>
      <trkpt lat="43.67866" lon="3.03267">
        <ele>434.20001220703</ele>
        <time>2023-05-28T13:12:47.000Z</time>
      </trkpt>
      <trkpt lat="43.67866" lon="3.03267">
        <ele>433.79998779297</ele>
        <time>2023-05-28T13:12:56.000Z</time>
      </trkpt>
      <trkpt lat="43.67866" lon="3.03266">
        <ele>434.39999389648</ele>
        <time>2023-05-28T13:13:05.000Z</time>
      </trkpt>
      <trkpt lat="43.67865" lon="3.03266">
        <ele>434.20001220703</ele>
        <time>2023-05-28T13:13:14.000Z</time>
      </trkpt>
      <trkpt lat="43.67866" lon="3.03265">
        <ele>434.20001220703</ele>
        <time>2023-05-28T13:13:20.000Z</time>
      </trkpt>
      <trkpt lat="43.67866" lon="3.03266">
        <ele>434.79998779297</ele>
        <time>2023-05-28T13:13:28.000Z</time>
      </trkpt>
      <trkpt lat="43.67866" lon="3.03266">
        <ele>434.20001220703</ele>
        <time>2023-05-28T13:13:34.000Z</time>
      </trkpt>
      <trkpt lat="43.67865" lon="3.03266">
        <ele>434.60000610352</ele>
        <time>2023-05-28T13:13:41.000Z</time>
      </trkpt>
      <trkpt lat="43.67865" lon="3.03267">
        <ele>434.20001220703</ele>
        <time>2023-05-28T13:13:50.000Z</time>
      </trkpt>
      <trkpt lat="43.67864" lon="3.03273">
        <ele>434.79998779297</ele>
        <time>2023-05-28T13:13:56.000Z</time>
      </trkpt>
      <trkpt lat="43.6786" lon="3.03285">
        <ele>435</ele>
        <time>2023-05-28T13:14:06.000Z</time>
      </trkpt>
      <trkpt lat="43.67858" lon="3.03288">
        <ele>435</ele>
        <time>2023-05-28T13:14:09.000Z</time>
      </trkpt>
      <trkpt lat="43.67855" lon="3.03292">
        <ele>432.39999389648</ele>
        <time>2023-05-28T13:14:13.000Z</time>
      </trkpt>
      <trkpt lat="43.67854" lon="3.03293">
        <ele>435</ele>
        <time>2023-05-28T13:14:14.000Z</time>
      </trkpt>
      <trkpt lat="43.67853" lon="3.03294">
        <ele>440.79998779297</ele>
        <time>2023-05-28T13:14:15.000Z</time>
      </trkpt>
      <trkpt lat="43.67851" lon="3.03297">
        <ele>446.39999389648</ele>
        <time>2023-05-28T13:14:18.000Z</time>
      </trkpt>
      <trkpt lat="43.67851" lon="3.03298">
        <ele>440.60000610352</ele>
        <time>2023-05-28T13:14:19.000Z</time>
      </trkpt>
      <trkpt lat="43.6785" lon="3.033">
        <ele>434.79998779297</ele>
        <time>2023-05-28T13:14:20.000Z</time>
      </trkpt>
      <trkpt lat="43.67844" lon="3.03309">
        <ele>434.20001220703</ele>
        <time>2023-05-28T13:14:28.000Z</time>
      </trkpt>
      <trkpt lat="43.67842" lon="3.03313">
        <ele>434.60000610352</ele>
        <time>2023-05-28T13:14:32.000Z</time>
      </trkpt>
      <trkpt lat="43.6784" lon="3.03318">
        <ele>434.60000610352</ele>
        <time>2023-05-28T13:14:36.000Z</time>
      </trkpt>
      <trkpt lat="43.67839" lon="3.03319">
        <ele>434.60000610352</ele>
        <time>2023-05-28T13:14:37.000Z</time>
      </trkpt>
      <trkpt lat="43.67839" lon="3.0332">
        <ele>434.39999389648</ele>
        <time>2023-05-28T13:14:42.000Z</time>
      </trkpt>
      <trkpt lat="43.67835" lon="3.03324">
        <ele>434.20001220703</ele>
        <time>2023-05-28T13:14:48.000Z</time>
      </trkpt>
      <trkpt lat="43.6783" lon="3.03328">
        <ele>433.60000610352</ele>
        <time>2023-05-28T13:14:54.000Z</time>
      </trkpt>
      <trkpt lat="43.6783" lon="3.03328">
        <ele>433.60000610352</ele>
        <time>2023-05-28T13:14:55.000Z</time>
      </trkpt>
      <trkpt lat="43.6783" lon="3.03328">
        <ele>433.20001220703</ele>
        <time>2023-05-28T13:14:58.000Z</time>
      </trkpt>
      <trkpt lat="43.67829" lon="3.03333">
        <ele>433</ele>
        <time>2023-05-28T13:15:13.000Z</time>
      </trkpt>
      <trkpt lat="43.67824" lon="3.03338">
        <ele>432.79998779297</ele>
        <time>2023-05-28T13:15:21.000Z</time>
      </trkpt>
      <trkpt lat="43.6782" lon="3.0334">
        <ele>432.60000610352</ele>
        <time>2023-05-28T13:15:26.000Z</time>
      </trkpt>
      <trkpt lat="43.67819" lon="3.0334">
        <ele>432.39999389648</ele>
        <time>2023-05-28T13:15:27.000Z</time>
      </trkpt>
      <trkpt lat="43.67817" lon="3.03341">
        <ele>432.20001220703</ele>
        <time>2023-05-28T13:15:29.000Z</time>
      </trkpt>
      <trkpt lat="43.67814" lon="3.0334">
        <ele>431.79998779297</ele>
        <time>2023-05-28T13:15:31.000Z</time>
      </trkpt>
      <trkpt lat="43.67812" lon="3.03339">
        <ele>431.60000610352</ele>
        <time>2023-05-28T13:15:33.000Z</time>
      </trkpt>
      <trkpt lat="43.67809" lon="3.03338">
        <ele>431.39999389648</ele>
        <time>2023-05-28T13:15:36.000Z</time>
      </trkpt>
      <trkpt lat="43.67801" lon="3.03335">
        <ele>430.60000610352</ele>
        <time>2023-05-28T13:15:43.000Z</time>
      </trkpt>
      <trkpt lat="43.67798" lon="3.03334">
        <ele>430.39999389648</ele>
        <time>2023-05-28T13:15:46.000Z</time>
      </trkpt>
      <trkpt lat="43.67788" lon="3.03333">
        <ele>429.39999389648</ele>
        <time>2023-05-28T13:15:56.000Z</time>
      </trkpt>
      <trkpt lat="43.67781" lon="3.03334">
        <ele>428.60000610352</ele>
        <time>2023-05-28T13:16:04.000Z</time>
      </trkpt>
      <trkpt lat="43.6778" lon="3.03334">
        <ele>428.39999389648</ele>
        <time>2023-05-28T13:16:05.000Z</time>
      </trkpt>
      <trkpt lat="43.67776" lon="3.03336">
        <ele>428</ele>
        <time>2023-05-28T13:16:10.000Z</time>
      </trkpt>
      <trkpt lat="43.67774" lon="3.03337">
        <ele>427.79998779297</ele>
        <time>2023-05-28T13:16:12.000Z</time>
      </trkpt>
      <trkpt lat="43.67772" lon="3.03337">
        <ele>427.39999389648</ele>
        <time>2023-05-28T13:16:14.000Z</time>
      </trkpt>
      <trkpt lat="43.67771" lon="3.03337">
        <ele>427.20001220703</ele>
        <time>2023-05-28T13:16:15.000Z</time>
      </trkpt>
      <trkpt lat="43.67768" lon="3.03338">
        <ele>426.60000610352</ele>
        <time>2023-05-28T13:16:19.000Z</time>
      </trkpt>
      <trkpt lat="43.67765" lon="3.03339">
        <ele>426.39999389648</ele>
        <time>2023-05-28T13:16:22.000Z</time>
      </trkpt>
      <trkpt lat="43.6776" lon="3.0334">
        <ele>425.79998779297</ele>
        <time>2023-05-28T13:16:27.000Z</time>
      </trkpt>
      <trkpt lat="43.67756" lon="3.03341">
        <ele>425.39999389648</ele>
        <time>2023-05-28T13:16:32.000Z</time>
      </trkpt>
      <trkpt lat="43.67754" lon="3.03342">
        <ele>425.20001220703</ele>
        <time>2023-05-28T13:16:34.000Z</time>
      </trkpt>
      <trkpt lat="43.67745" lon="3.0334">
        <ele>424.39999389648</ele>
        <time>2023-05-28T13:16:42.000Z</time>
      </trkpt>
      <trkpt lat="43.67743" lon="3.0334">
        <ele>424.20001220703</ele>
        <time>2023-05-28T13:16:44.000Z</time>
      </trkpt>
      <trkpt lat="43.67734" lon="3.03337">
        <ele>423.79998779297</ele>
        <time>2023-05-28T13:16:53.000Z</time>
      </trkpt>
      <trkpt lat="43.6773" lon="3.03335">
        <ele>423.20001220703</ele>
        <time>2023-05-28T13:16:57.000Z</time>
      </trkpt>
      <trkpt lat="43.67724" lon="3.03332">
        <ele>423.39999389648</ele>
        <time>2023-05-28T13:17:04.000Z</time>
      </trkpt>
      <trkpt lat="43.67718" lon="3.03328">
        <ele>423.39999389648</ele>
        <time>2023-05-28T13:17:11.000Z</time>
      </trkpt>
      <trkpt lat="43.67719" lon="3.03328">
        <ele>423.39999389648</ele>
        <time>2023-05-28T13:17:13.000Z</time>
      </trkpt>
      <trkpt lat="43.67719" lon="3.03329">
        <ele>423.39999389648</ele>
        <time>2023-05-28T13:17:29.000Z</time>
      </trkpt>
      <trkpt lat="43.67718" lon="3.03335">
        <ele>423.39999389648</ele>
        <time>2023-05-28T13:17:47.000Z</time>
      </trkpt>
      <trkpt lat="43.67719" lon="3.03336">
        <ele>423.60000610352</ele>
        <time>2023-05-28T13:17:59.000Z</time>
      </trkpt>
      <trkpt lat="43.67713" lon="3.03339">
        <ele>423.39999389648</ele>
        <time>2023-05-28T13:18:08.000Z</time>
      </trkpt>
      <trkpt lat="43.67708" lon="3.0334">
        <ele>423.39999389648</ele>
        <time>2023-05-28T13:18:13.000Z</time>
      </trkpt>
      <trkpt lat="43.67706" lon="3.03341">
        <ele>423.60000610352</ele>
        <time>2023-05-28T13:18:16.000Z</time>
      </trkpt>
      <trkpt lat="43.67702" lon="3.03341">
        <ele>423.60000610352</ele>
        <time>2023-05-28T13:18:20.000Z</time>
      </trkpt>
      <trkpt lat="43.67699" lon="3.03342">
        <ele>423.60000610352</ele>
        <time>2023-05-28T13:18:24.000Z</time>
      </trkpt>
      <trkpt lat="43.67692" lon="3.03344">
        <ele>424</ele>
        <time>2023-05-28T13:18:32.000Z</time>
      </trkpt>
      <trkpt lat="43.6769" lon="3.03344">
        <ele>424.20001220703</ele>
        <time>2023-05-28T13:18:35.000Z</time>
      </trkpt>
      <trkpt lat="43.67688" lon="3.03346">
        <ele>424.39999389648</ele>
        <time>2023-05-28T13:18:38.000Z</time>
      </trkpt>
      <trkpt lat="43.67686" lon="3.03347">
        <ele>424.60000610352</ele>
        <time>2023-05-28T13:18:40.000Z</time>
      </trkpt>
      <trkpt lat="43.67685" lon="3.03348">
        <ele>424.79998779297</ele>
        <time>2023-05-28T13:18:42.000Z</time>
      </trkpt>
      <trkpt lat="43.67683" lon="3.03349">
        <ele>425.20001220703</ele>
        <time>2023-05-28T13:18:45.000Z</time>
      </trkpt>
      <trkpt lat="43.67681" lon="3.0335">
        <ele>425.39999389648</ele>
        <time>2023-05-28T13:18:47.000Z</time>
      </trkpt>
      <trkpt lat="43.67677" lon="3.0335">
        <ele>425.60000610352</ele>
        <time>2023-05-28T13:18:51.000Z</time>
      </trkpt>
      <trkpt lat="43.67676" lon="3.03351">
        <ele>425.60000610352</ele>
        <time>2023-05-28T13:18:53.000Z</time>
      </trkpt>
      <trkpt lat="43.6767" lon="3.03353">
        <ele>426</ele>
        <time>2023-05-28T13:18:59.000Z</time>
      </trkpt>
      <trkpt lat="43.67669" lon="3.03353">
        <ele>426</ele>
        <time>2023-05-28T13:19:01.000Z</time>
      </trkpt>
      <trkpt lat="43.67663" lon="3.03359">
        <ele>426.20001220703</ele>
        <time>2023-05-28T13:19:09.000Z</time>
      </trkpt>
      <trkpt lat="43.67662" lon="3.03358">
        <ele>426.20001220703</ele>
        <time>2023-05-28T13:19:10.000Z</time>
      </trkpt>
      <trkpt lat="43.67661" lon="3.03359">
        <ele>426.39999389648</ele>
        <time>2023-05-28T13:19:11.000Z</time>
      </trkpt>
      <trkpt lat="43.67657" lon="3.03361">
        <ele>426.60000610352</ele>
        <time>2023-05-28T13:19:16.000Z</time>
      </trkpt>
      <trkpt lat="43.67656" lon="3.03361">
        <ele>426.60000610352</ele>
        <time>2023-05-28T13:19:17.000Z</time>
      </trkpt>
      <trkpt lat="43.67651" lon="3.03363">
        <ele>427</ele>
        <time>2023-05-28T13:19:24.000Z</time>
      </trkpt>
      <trkpt lat="43.6765" lon="3.03363">
        <ele>427.20001220703</ele>
        <time>2023-05-28T13:19:25.000Z</time>
      </trkpt>
      <trkpt lat="43.67649" lon="3.03364">
        <ele>427.39999389648</ele>
        <time>2023-05-28T13:19:27.000Z</time>
      </trkpt>
      <trkpt lat="43.67644" lon="3.03365">
        <ele>427.79998779297</ele>
        <time>2023-05-28T13:19:33.000Z</time>
      </trkpt>
      <trkpt lat="43.67639" lon="3.03367">
        <ele>428.39999389648</ele>
        <time>2023-05-28T13:19:41.000Z</time>
      </trkpt>
      <trkpt lat="43.67638" lon="3.03368">
        <ele>428.39999389648</ele>
        <time>2023-05-28T13:19:43.000Z</time>
      </trkpt>
      <trkpt lat="43.67633" lon="3.0337">
        <ele>428.79998779297</ele>
        <time>2023-05-28T13:19:49.000Z</time>
      </trkpt>
      <trkpt lat="43.67629" lon="3.03372">
        <ele>429.20001220703</ele>
        <time>2023-05-28T13:19:54.000Z</time>
      </trkpt>
      <trkpt lat="43.67628" lon="3.03373">
        <ele>429.60000610352</ele>
        <time>2023-05-28T13:19:56.000Z</time>
      </trkpt>
      <trkpt lat="43.67626" lon="3.03373">
        <ele>429.79998779297</ele>
        <time>2023-05-28T13:19:58.000Z</time>
      </trkpt>
      <trkpt lat="43.67625" lon="3.03374">
        <ele>430</ele>
        <time>2023-05-28T13:20:01.000Z</time>
      </trkpt>
      <trkpt lat="43.67621" lon="3.03376">
        <ele>430.39999389648</ele>
        <time>2023-05-28T13:20:08.000Z</time>
      </trkpt>
      <trkpt lat="43.67619" lon="3.03377">
        <ele>430.60000610352</ele>
        <time>2023-05-28T13:20:11.000Z</time>
      </trkpt>
      <trkpt lat="43.67615" lon="3.03378">
        <ele>431</ele>
        <time>2023-05-28T13:20:16.000Z</time>
      </trkpt>
      <trkpt lat="43.67608" lon="3.03383">
        <ele>431.20001220703</ele>
        <time>2023-05-28T13:20:25.000Z</time>
      </trkpt>
      <trkpt lat="43.67604" lon="3.03386">
        <ele>431.39999389648</ele>
        <time>2023-05-28T13:20:31.000Z</time>
      </trkpt>
      <trkpt lat="43.67603" lon="3.03387">
        <ele>431.20001220703</ele>
        <time>2023-05-28T13:20:32.000Z</time>
      </trkpt>
      <trkpt lat="43.676" lon="3.03387">
        <ele>431.20001220703</ele>
        <time>2023-05-28T13:20:37.000Z</time>
      </trkpt>
      <trkpt lat="43.67595" lon="3.03388">
        <ele>431.39999389648</ele>
        <time>2023-05-28T13:20:44.000Z</time>
      </trkpt>
      <trkpt lat="43.67589" lon="3.03389">
        <ele>431.60000610352</ele>
        <time>2023-05-28T13:20:50.000Z</time>
      </trkpt>
      <trkpt lat="43.67589" lon="3.03389">
        <ele>431.79998779297</ele>
        <time>2023-05-28T13:20:51.000Z</time>
      </trkpt>
      <trkpt lat="43.67585" lon="3.03388">
        <ele>432</ele>
        <time>2023-05-28T13:20:55.000Z</time>
      </trkpt>
      <trkpt lat="43.67582" lon="3.03389">
        <ele>432.20001220703</ele>
        <time>2023-05-28T13:20:59.000Z</time>
      </trkpt>
      <trkpt lat="43.67579" lon="3.0339">
        <ele>432.39999389648</ele>
        <time>2023-05-28T13:21:03.000Z</time>
      </trkpt>
      <trkpt lat="43.67578" lon="3.03391">
        <ele>432.60000610352</ele>
        <time>2023-05-28T13:21:05.000Z</time>
      </trkpt>
      <trkpt lat="43.67577" lon="3.03391">
        <ele>432.60000610352</ele>
        <time>2023-05-28T13:21:06.000Z</time>
      </trkpt>
      <trkpt lat="43.67575" lon="3.03392">
        <ele>432.60000610352</ele>
        <time>2023-05-28T13:21:08.000Z</time>
      </trkpt>
      <trkpt lat="43.67572" lon="3.03393">
        <ele>433</ele>
        <time>2023-05-28T13:21:13.000Z</time>
      </trkpt>
      <trkpt lat="43.67566" lon="3.03395">
        <ele>433.60000610352</ele>
        <time>2023-05-28T13:21:21.000Z</time>
      </trkpt>
      <trkpt lat="43.67565" lon="3.03395">
        <ele>433.60000610352</ele>
        <time>2023-05-28T13:21:22.000Z</time>
      </trkpt>
      <trkpt lat="43.6756" lon="3.03397">
        <ele>434.20001220703</ele>
        <time>2023-05-28T13:21:28.000Z</time>
      </trkpt>
      <trkpt lat="43.67558" lon="3.03397">
        <ele>434.60000610352</ele>
        <time>2023-05-28T13:21:35.000Z</time>
      </trkpt>
      <trkpt lat="43.67557" lon="3.03398">
        <ele>434.79998779297</ele>
        <time>2023-05-28T13:21:36.000Z</time>
      </trkpt>
      <trkpt lat="43.67556" lon="3.03399">
        <ele>434.39999389648</ele>
        <time>2023-05-28T13:21:45.000Z</time>
      </trkpt>
      <trkpt lat="43.67555" lon="3.03399">
        <ele>435.20001220703</ele>
        <time>2023-05-28T13:21:55.000Z</time>
      </trkpt>
      <trkpt lat="43.6755" lon="3.03401">
        <ele>435</ele>
        <time>2023-05-28T13:22:06.000Z</time>
      </trkpt>
      <trkpt lat="43.67548" lon="3.03401">
        <ele>435.39999389648</ele>
        <time>2023-05-28T13:22:15.000Z</time>
      </trkpt>
      <trkpt lat="43.67548" lon="3.03405">
        <ele>435.39999389648</ele>
        <time>2023-05-28T13:22:29.000Z</time>
      </trkpt>
      <trkpt lat="43.67544" lon="3.03405">
        <ele>435.79998779297</ele>
        <time>2023-05-28T13:22:37.000Z</time>
      </trkpt>
      <trkpt lat="43.67543" lon="3.03405">
        <ele>435.79998779297</ele>
        <time>2023-05-28T13:22:38.000Z</time>
      </trkpt>
      <trkpt lat="43.67538" lon="3.03405">
        <ele>436.60000610352</ele>
        <time>2023-05-28T13:22:46.000Z</time>
      </trkpt>
      <trkpt lat="43.67534" lon="3.03404">
        <ele>436.79998779297</ele>
        <time>2023-05-28T13:22:52.000Z</time>
      </trkpt>
      <trkpt lat="43.67532" lon="3.03404">
        <ele>437</ele>
        <time>2023-05-28T13:22:55.000Z</time>
      </trkpt>
      <trkpt lat="43.67528" lon="3.03405">
        <ele>437.20001220703</ele>
        <time>2023-05-28T13:23:02.000Z</time>
      </trkpt>
      <trkpt lat="43.67523" lon="3.03405">
        <ele>437.39999389648</ele>
        <time>2023-05-28T13:23:09.000Z</time>
      </trkpt>
      <trkpt lat="43.67517" lon="3.03405">
        <ele>437.79998779297</ele>
        <time>2023-05-28T13:23:16.000Z</time>
      </trkpt>
      <trkpt lat="43.67514" lon="3.03404">
        <ele>438</ele>
        <time>2023-05-28T13:23:20.000Z</time>
      </trkpt>
      <trkpt lat="43.67512" lon="3.03403">
        <ele>438.20001220703</ele>
        <time>2023-05-28T13:23:24.000Z</time>
      </trkpt>
      <trkpt lat="43.67512" lon="3.03403">
        <ele>438.79998779297</ele>
        <time>2023-05-28T13:23:31.000Z</time>
      </trkpt>
      <trkpt lat="43.67508" lon="3.03405">
        <ele>438.79998779297</ele>
        <time>2023-05-28T13:23:45.000Z</time>
      </trkpt>
      <trkpt lat="43.67505" lon="3.03406">
        <ele>438.60000610352</ele>
        <time>2023-05-28T13:23:51.000Z</time>
      </trkpt>
      <trkpt lat="43.67499" lon="3.03406">
        <ele>439</ele>
        <time>2023-05-28T13:23:59.000Z</time>
      </trkpt>
      <trkpt lat="43.67494" lon="3.03406">
        <ele>439.20001220703</ele>
        <time>2023-05-28T13:24:06.000Z</time>
      </trkpt>
      <trkpt lat="43.67489" lon="3.03406">
        <ele>439.39999389648</ele>
        <time>2023-05-28T13:24:12.000Z</time>
      </trkpt>
      <trkpt lat="43.67485" lon="3.03407">
        <ele>439.79998779297</ele>
        <time>2023-05-28T13:24:19.000Z</time>
      </trkpt>
      <trkpt lat="43.67483" lon="3.03407">
        <ele>440</ele>
        <time>2023-05-28T13:24:22.000Z</time>
      </trkpt>
      <trkpt lat="43.67481" lon="3.03407">
        <ele>440.39999389648</ele>
        <time>2023-05-28T13:24:25.000Z</time>
      </trkpt>
      <trkpt lat="43.67477" lon="3.03408">
        <ele>440.79998779297</ele>
        <time>2023-05-28T13:24:32.000Z</time>
      </trkpt>
      <trkpt lat="43.67473" lon="3.03408">
        <ele>441</ele>
        <time>2023-05-28T13:24:37.000Z</time>
      </trkpt>
      <trkpt lat="43.67471" lon="3.03409">
        <ele>441.39999389648</ele>
        <time>2023-05-28T13:24:40.000Z</time>
      </trkpt>
      <trkpt lat="43.67466" lon="3.0341">
        <ele>441.79998779297</ele>
        <time>2023-05-28T13:24:46.000Z</time>
      </trkpt>
      <trkpt lat="43.67462" lon="3.0341">
        <ele>442.20001220703</ele>
        <time>2023-05-28T13:24:52.000Z</time>
      </trkpt>
      <trkpt lat="43.67456" lon="3.03411">
        <ele>442.39999389648</ele>
        <time>2023-05-28T13:24:59.000Z</time>
      </trkpt>
      <trkpt lat="43.67453" lon="3.03411">
        <ele>442.79998779297</ele>
        <time>2023-05-28T13:25:03.000Z</time>
      </trkpt>
      <trkpt lat="43.6745" lon="3.03413">
        <ele>443</ele>
        <time>2023-05-28T13:25:06.000Z</time>
      </trkpt>
      <trkpt lat="43.67448" lon="3.03414">
        <ele>443.20001220703</ele>
        <time>2023-05-28T13:25:09.000Z</time>
      </trkpt>
      <trkpt lat="43.67447" lon="3.03414">
        <ele>443.20001220703</ele>
        <time>2023-05-28T13:25:10.000Z</time>
      </trkpt>
      <trkpt lat="43.67445" lon="3.03415">
        <ele>443.39999389648</ele>
        <time>2023-05-28T13:25:13.000Z</time>
      </trkpt>
      <trkpt lat="43.6744" lon="3.03417">
        <ele>443.60000610352</ele>
        <time>2023-05-28T13:25:21.000Z</time>
      </trkpt>
      <trkpt lat="43.67435" lon="3.03418">
        <ele>444</ele>
        <time>2023-05-28T13:25:28.000Z</time>
      </trkpt>
      <trkpt lat="43.67434" lon="3.03419">
        <ele>444.20001220703</ele>
        <time>2023-05-28T13:25:30.000Z</time>
      </trkpt>
      <trkpt lat="43.67429" lon="3.03419">
        <ele>444.79998779297</ele>
        <time>2023-05-28T13:25:35.000Z</time>
      </trkpt>
      <trkpt lat="43.67423" lon="3.03422">
        <ele>445.20001220703</ele>
        <time>2023-05-28T13:25:43.000Z</time>
      </trkpt>
      <trkpt lat="43.67418" lon="3.03424">
        <ele>445.60000610352</ele>
        <time>2023-05-28T13:25:48.000Z</time>
      </trkpt>
      <trkpt lat="43.67416" lon="3.03425">
        <ele>445.79998779297</ele>
        <time>2023-05-28T13:25:50.000Z</time>
      </trkpt>
      <trkpt lat="43.67414" lon="3.03426">
        <ele>445.79998779297</ele>
        <time>2023-05-28T13:25:53.000Z</time>
      </trkpt>
      <trkpt lat="43.6741" lon="3.03427">
        <ele>446</ele>
        <time>2023-05-28T13:25:57.000Z</time>
      </trkpt>
      <trkpt lat="43.674" lon="3.0343">
        <ele>446.20001220703</ele>
        <time>2023-05-28T13:26:07.000Z</time>
      </trkpt>
      <trkpt lat="43.67398" lon="3.03431">
        <ele>446.20001220703</ele>
        <time>2023-05-28T13:26:09.000Z</time>
      </trkpt>
      <trkpt lat="43.67396" lon="3.03432">
        <ele>446.20001220703</ele>
        <time>2023-05-28T13:26:12.000Z</time>
      </trkpt>
      <trkpt lat="43.67394" lon="3.03431">
        <ele>446.39999389648</ele>
        <time>2023-05-28T13:26:14.000Z</time>
      </trkpt>
      <trkpt lat="43.67393" lon="3.03431">
        <ele>446.39999389648</ele>
        <time>2023-05-28T13:26:15.000Z</time>
      </trkpt>
      <trkpt lat="43.6739" lon="3.03432">
        <ele>446.60000610352</ele>
        <time>2023-05-28T13:26:18.000Z</time>
      </trkpt>
      <trkpt lat="43.67389" lon="3.03433">
        <ele>446.60000610352</ele>
        <time>2023-05-28T13:26:20.000Z</time>
      </trkpt>
      <trkpt lat="43.67387" lon="3.03434">
        <ele>446.60000610352</ele>
        <time>2023-05-28T13:26:22.000Z</time>
      </trkpt>
      <trkpt lat="43.67384" lon="3.03435">
        <ele>446.60000610352</ele>
        <time>2023-05-28T13:26:28.000Z</time>
      </trkpt>
      <trkpt lat="43.67383" lon="3.03436">
        <ele>446.39999389648</ele>
        <time>2023-05-28T13:26:39.000Z</time>
      </trkpt>
      <trkpt lat="43.67382" lon="3.03438">
        <ele>446.79998779297</ele>
        <time>2023-05-28T13:26:53.000Z</time>
      </trkpt>
      <trkpt lat="43.67383" lon="3.03439">
        <ele>446.79998779297</ele>
        <time>2023-05-28T13:27:03.000Z</time>
      </trkpt>
      <trkpt lat="43.67381" lon="3.03439">
        <ele>447</ele>
        <time>2023-05-28T13:27:12.000Z</time>
      </trkpt>
      <trkpt lat="43.67376" lon="3.03441">
        <ele>447</ele>
        <time>2023-05-28T13:27:20.000Z</time>
      </trkpt>
      <trkpt lat="43.6737" lon="3.03444">
        <ele>446.60000610352</ele>
        <time>2023-05-28T13:27:27.000Z</time>
      </trkpt>
      <trkpt lat="43.67362" lon="3.03446">
        <ele>446.79998779297</ele>
        <time>2023-05-28T13:27:35.000Z</time>
      </trkpt>
      <trkpt lat="43.67352" lon="3.03444">
        <ele>446.20001220703</ele>
        <time>2023-05-28T13:27:45.000Z</time>
      </trkpt>
      <trkpt lat="43.67344" lon="3.03437">
        <ele>445.39999389648</ele>
        <time>2023-05-28T13:27:54.000Z</time>
      </trkpt>
      <trkpt lat="43.67343" lon="3.03435">
        <ele>445.20001220703</ele>
        <time>2023-05-28T13:27:56.000Z</time>
      </trkpt>
      <trkpt lat="43.67338" lon="3.0343">
        <ele>444.39999389648</ele>
        <time>2023-05-28T13:28:02.000Z</time>
      </trkpt>
      <trkpt lat="43.67334" lon="3.03427">
        <ele>444.20001220703</ele>
        <time>2023-05-28T13:28:07.000Z</time>
      </trkpt>
      <trkpt lat="43.67331" lon="3.03424">
        <ele>443.60000610352</ele>
        <time>2023-05-28T13:28:11.000Z</time>
      </trkpt>
      <trkpt lat="43.67325" lon="3.0342">
        <ele>443.20001220703</ele>
        <time>2023-05-28T13:28:17.000Z</time>
      </trkpt>
      <trkpt lat="43.67324" lon="3.03418">
        <ele>442.79998779297</ele>
        <time>2023-05-28T13:28:19.000Z</time>
      </trkpt>
      <trkpt lat="43.67323" lon="3.03417">
        <ele>442.79998779297</ele>
        <time>2023-05-28T13:28:20.000Z</time>
      </trkpt>
      <trkpt lat="43.67319" lon="3.03415">
        <ele>442.39999389648</ele>
        <time>2023-05-28T13:28:25.000Z</time>
      </trkpt>
      <trkpt lat="43.67317" lon="3.03413">
        <ele>442</ele>
        <time>2023-05-28T13:28:28.000Z</time>
      </trkpt>
      <trkpt lat="43.67311" lon="3.0341">
        <ele>441</ele>
        <time>2023-05-28T13:28:34.000Z</time>
      </trkpt>
      <trkpt lat="43.6731" lon="3.03409">
        <ele>441</ele>
        <time>2023-05-28T13:28:36.000Z</time>
      </trkpt>
      <trkpt lat="43.67303" lon="3.03407">
        <ele>440</ele>
        <time>2023-05-28T13:28:43.000Z</time>
      </trkpt>
      <trkpt lat="43.67301" lon="3.03406">
        <ele>439.79998779297</ele>
        <time>2023-05-28T13:28:45.000Z</time>
      </trkpt>
      <trkpt lat="43.67295" lon="3.03406">
        <ele>439.20001220703</ele>
        <time>2023-05-28T13:28:51.000Z</time>
      </trkpt>
      <trkpt lat="43.67291" lon="3.03407">
        <ele>438.79998779297</ele>
        <time>2023-05-28T13:28:59.000Z</time>
      </trkpt>
      <trkpt lat="43.67286" lon="3.03409">
        <ele>439.20001220703</ele>
        <time>2023-05-28T13:29:08.000Z</time>
      </trkpt>
      <trkpt lat="43.67277" lon="3.03412">
        <ele>439.20001220703</ele>
        <time>2023-05-28T13:29:18.000Z</time>
      </trkpt>
      <trkpt lat="43.67272" lon="3.03412">
        <ele>439</ele>
        <time>2023-05-28T13:29:24.000Z</time>
      </trkpt>
      <trkpt lat="43.67271" lon="3.03412">
        <ele>439</ele>
        <time>2023-05-28T13:29:25.000Z</time>
      </trkpt>
      <trkpt lat="43.67267" lon="3.03413">
        <ele>439</ele>
        <time>2023-05-28T13:29:29.000Z</time>
      </trkpt>
      <trkpt lat="43.67264" lon="3.03413">
        <ele>438.79998779297</ele>
        <time>2023-05-28T13:29:32.000Z</time>
      </trkpt>
      <trkpt lat="43.67264" lon="3.03413">
        <ele>438.60000610352</ele>
        <time>2023-05-28T13:29:33.000Z</time>
      </trkpt>
      <trkpt lat="43.67263" lon="3.03414">
        <ele>438.39999389648</ele>
        <time>2023-05-28T13:29:46.000Z</time>
      </trkpt>
      <trkpt lat="43.67258" lon="3.03415">
        <ele>438.39999389648</ele>
        <time>2023-05-28T13:29:51.000Z</time>
      </trkpt>
      <trkpt lat="43.67253" lon="3.03415">
        <ele>437.79998779297</ele>
        <time>2023-05-28T13:29:56.000Z</time>
      </trkpt>
      <trkpt lat="43.67247" lon="3.03412">
        <ele>437.20001220703</ele>
        <time>2023-05-28T13:30:01.000Z</time>
      </trkpt>
      <trkpt lat="43.67238" lon="3.03408">
        <ele>436.60000610352</ele>
        <time>2023-05-28T13:30:09.000Z</time>
      </trkpt>
      <trkpt lat="43.67233" lon="3.03402">
        <ele>435.60000610352</ele>
        <time>2023-05-28T13:30:15.000Z</time>
      </trkpt>
      <trkpt lat="43.6723" lon="3.03398">
        <ele>435.20001220703</ele>
        <time>2023-05-28T13:30:19.000Z</time>
      </trkpt>
      <trkpt lat="43.67227" lon="3.03391">
        <ele>434.79998779297</ele>
        <time>2023-05-28T13:30:24.000Z</time>
      </trkpt>
      <trkpt lat="43.67227" lon="3.03391">
        <ele>434.79998779297</ele>
        <time>2023-05-28T13:30:25.000Z</time>
      </trkpt>
      <trkpt lat="43.67227" lon="3.03389">
        <ele>434.79998779297</ele>
        <time>2023-05-28T13:30:27.000Z</time>
      </trkpt>
      <trkpt lat="43.67226" lon="3.03385">
        <ele>434.79998779297</ele>
        <time>2023-05-28T13:30:31.000Z</time>
      </trkpt>
      <trkpt lat="43.67226" lon="3.03382">
        <ele>434.60000610352</ele>
        <time>2023-05-28T13:30:33.000Z</time>
      </trkpt>
      <trkpt lat="43.67225" lon="3.03377">
        <ele>434.39999389648</ele>
        <time>2023-05-28T13:30:37.000Z</time>
      </trkpt>
      <trkpt lat="43.67225" lon="3.03376">
        <ele>434.39999389648</ele>
        <time>2023-05-28T13:30:38.000Z</time>
      </trkpt>
      <trkpt lat="43.67224" lon="3.03372">
        <ele>434.39999389648</ele>
        <time>2023-05-28T13:30:41.000Z</time>
      </trkpt>
      <trkpt lat="43.67223" lon="3.03369">
        <ele>434.39999389648</ele>
        <time>2023-05-28T13:30:44.000Z</time>
      </trkpt>
      <trkpt lat="43.67223" lon="3.03368">
        <ele>434.39999389648</ele>
        <time>2023-05-28T13:30:45.000Z</time>
      </trkpt>
      <trkpt lat="43.67221" lon="3.03366">
        <ele>434.20001220703</ele>
        <time>2023-05-28T13:30:49.000Z</time>
      </trkpt>
      <trkpt lat="43.67213" lon="3.03361">
        <ele>434.20001220703</ele>
        <time>2023-05-28T13:30:57.000Z</time>
      </trkpt>
      <trkpt lat="43.67207" lon="3.03358">
        <ele>434.20001220703</ele>
        <time>2023-05-28T13:31:03.000Z</time>
      </trkpt>
      <trkpt lat="43.67201" lon="3.03354">
        <ele>434.60000610352</ele>
        <time>2023-05-28T13:31:09.000Z</time>
      </trkpt>
      <trkpt lat="43.67195" lon="3.03347">
        <ele>434.60000610352</ele>
        <time>2023-05-28T13:31:16.000Z</time>
      </trkpt>
      <trkpt lat="43.67185" lon="3.03337">
        <ele>434.39999389648</ele>
        <time>2023-05-28T13:31:26.000Z</time>
      </trkpt>
      <trkpt lat="43.67179" lon="3.03329">
        <ele>434.20001220703</ele>
        <time>2023-05-28T13:31:33.000Z</time>
      </trkpt>
      <trkpt lat="43.67178" lon="3.03329">
        <ele>434.20001220703</ele>
        <time>2023-05-28T13:31:34.000Z</time>
      </trkpt>
      <trkpt lat="43.67173" lon="3.03323">
        <ele>433.79998779297</ele>
        <time>2023-05-28T13:31:40.000Z</time>
      </trkpt>
      <trkpt lat="43.67165" lon="3.03314">
        <ele>433.60000610352</ele>
        <time>2023-05-28T13:31:49.000Z</time>
      </trkpt>
      <trkpt lat="43.67163" lon="3.03313">
        <ele>433.60000610352</ele>
        <time>2023-05-28T13:31:51.000Z</time>
      </trkpt>
      <trkpt lat="43.67161" lon="3.03311">
        <ele>433.39999389648</ele>
        <time>2023-05-28T13:31:54.000Z</time>
      </trkpt>
      <trkpt lat="43.6716" lon="3.03311">
        <ele>433.20001220703</ele>
        <time>2023-05-28T13:31:55.000Z</time>
      </trkpt>
      <trkpt lat="43.67156" lon="3.03308">
        <ele>433.39999389648</ele>
        <time>2023-05-28T13:32:00.000Z</time>
      </trkpt>
      <trkpt lat="43.6715" lon="3.03303">
        <ele>433.39999389648</ele>
        <time>2023-05-28T13:32:08.000Z</time>
      </trkpt>
      <trkpt lat="43.67149" lon="3.03303">
        <ele>433.20001220703</ele>
        <time>2023-05-28T13:32:15.000Z</time>
      </trkpt>
      <trkpt lat="43.67149" lon="3.03303">
        <ele>432.60000610352</ele>
        <time>2023-05-28T13:32:19.000Z</time>
      </trkpt>
      <trkpt lat="43.67148" lon="3.03302">
        <ele>432.60000610352</ele>
        <time>2023-05-28T13:32:30.000Z</time>
      </trkpt>
      <trkpt lat="43.67147" lon="3.03304">
        <ele>433.20001220703</ele>
        <time>2023-05-28T13:32:41.000Z</time>
      </trkpt>
      <trkpt lat="43.67146" lon="3.03303">
        <ele>433.39999389648</ele>
        <time>2023-05-28T13:32:49.000Z</time>
      </trkpt>
      <trkpt lat="43.67139" lon="3.03301">
        <ele>433.20001220703</ele>
        <time>2023-05-28T13:32:57.000Z</time>
      </trkpt>
      <trkpt lat="43.67132" lon="3.03301">
        <ele>433</ele>
        <time>2023-05-28T13:33:04.000Z</time>
      </trkpt>
      <trkpt lat="43.67129" lon="3.03305">
        <ele>432.60000610352</ele>
        <time>2023-05-28T13:33:09.000Z</time>
      </trkpt>
      <trkpt lat="43.67128" lon="3.03304">
        <ele>432.60000610352</ele>
        <time>2023-05-28T13:33:11.000Z</time>
      </trkpt>
      <trkpt lat="43.67123" lon="3.03309">
        <ele>432.60000610352</ele>
        <time>2023-05-28T13:33:18.000Z</time>
      </trkpt>
      <trkpt lat="43.67119" lon="3.03311">
        <ele>432.79998779297</ele>
        <time>2023-05-28T13:33:24.000Z</time>
      </trkpt>
      <trkpt lat="43.67115" lon="3.03311">
        <ele>433.39999389648</ele>
        <time>2023-05-28T13:33:32.000Z</time>
      </trkpt>
      <trkpt lat="43.67115" lon="3.03312">
        <ele>433.60000610352</ele>
        <time>2023-05-28T13:33:33.000Z</time>
      </trkpt>
      <trkpt lat="43.67111" lon="3.03313">
        <ele>434</ele>
        <time>2023-05-28T13:33:39.000Z</time>
      </trkpt>
      <trkpt lat="43.67108" lon="3.03314">
        <ele>434.60000610352</ele>
        <time>2023-05-28T13:33:44.000Z</time>
      </trkpt>
      <trkpt lat="43.67105" lon="3.03315">
        <ele>434.79998779297</ele>
        <time>2023-05-28T13:33:49.000Z</time>
      </trkpt>
      <trkpt lat="43.671" lon="3.03315">
        <ele>435.20001220703</ele>
        <time>2023-05-28T13:33:56.000Z</time>
      </trkpt>
      <trkpt lat="43.67095" lon="3.03318">
        <ele>435.60000610352</ele>
        <time>2023-05-28T13:34:04.000Z</time>
      </trkpt>
      <trkpt lat="43.67094" lon="3.03319">
        <ele>435.79998779297</ele>
        <time>2023-05-28T13:34:06.000Z</time>
      </trkpt>
      <trkpt lat="43.67088" lon="3.03321">
        <ele>436</ele>
        <time>2023-05-28T13:34:14.000Z</time>
      </trkpt>
      <trkpt lat="43.67084" lon="3.03323">
        <ele>436.20001220703</ele>
        <time>2023-05-28T13:34:20.000Z</time>
      </trkpt>
      <trkpt lat="43.67082" lon="3.03324">
        <ele>436.60000610352</ele>
        <time>2023-05-28T13:34:25.000Z</time>
      </trkpt>
      <trkpt lat="43.67079" lon="3.03326">
        <ele>436.79998779297</ele>
        <time>2023-05-28T13:34:28.000Z</time>
      </trkpt>
      <trkpt lat="43.67076" lon="3.03331">
        <ele>437</ele>
        <time>2023-05-28T13:34:36.000Z</time>
      </trkpt>
      <trkpt lat="43.67072" lon="3.03335">
        <ele>437.79998779297</ele>
        <time>2023-05-28T13:34:43.000Z</time>
      </trkpt>
      <trkpt lat="43.67071" lon="3.03335">
        <ele>438</ele>
        <time>2023-05-28T13:34:44.000Z</time>
      </trkpt>
      <trkpt lat="43.67068" lon="3.03339">
        <ele>438.60000610352</ele>
        <time>2023-05-28T13:34:50.000Z</time>
      </trkpt>
      <trkpt lat="43.67067" lon="3.0334">
        <ele>438.79998779297</ele>
        <time>2023-05-28T13:34:53.000Z</time>
      </trkpt>
      <trkpt lat="43.67065" lon="3.03342">
        <ele>439.39999389648</ele>
        <time>2023-05-28T13:34:57.000Z</time>
      </trkpt>
      <trkpt lat="43.67063" lon="3.03347">
        <ele>439.79998779297</ele>
        <time>2023-05-28T13:35:06.000Z</time>
      </trkpt>
      <trkpt lat="43.67063" lon="3.03348">
        <ele>439.79998779297</ele>
        <time>2023-05-28T13:35:07.000Z</time>
      </trkpt>
      <trkpt lat="43.67061" lon="3.03351">
        <ele>440.20001220703</ele>
        <time>2023-05-28T13:35:13.000Z</time>
      </trkpt>
      <trkpt lat="43.67058" lon="3.03357">
        <ele>441</ele>
        <time>2023-05-28T13:35:21.000Z</time>
      </trkpt>
      <trkpt lat="43.67055" lon="3.03362">
        <ele>441.79998779297</ele>
        <time>2023-05-28T13:35:29.000Z</time>
      </trkpt>
      <trkpt lat="43.67054" lon="3.03365">
        <ele>442</ele>
        <time>2023-05-28T13:35:32.000Z</time>
      </trkpt>
      <trkpt lat="43.67052" lon="3.03368">
        <ele>442.39999389648</ele>
        <time>2023-05-28T13:35:37.000Z</time>
      </trkpt>
      <trkpt lat="43.67049" lon="3.03374">
        <ele>443</ele>
        <time>2023-05-28T13:35:45.000Z</time>
      </trkpt>
      <trkpt lat="43.67048" lon="3.03375">
        <ele>443.20001220703</ele>
        <time>2023-05-28T13:35:47.000Z</time>
      </trkpt>
      <trkpt lat="43.67046" lon="3.0338">
        <ele>444</ele>
        <time>2023-05-28T13:35:54.000Z</time>
      </trkpt>
      <trkpt lat="43.67045" lon="3.03382">
        <ele>444.20001220703</ele>
        <time>2023-05-28T13:35:56.000Z</time>
      </trkpt>
      <trkpt lat="43.67042" lon="3.03386">
        <ele>444.60000610352</ele>
        <time>2023-05-28T13:36:03.000Z</time>
      </trkpt>
      <trkpt lat="43.6704" lon="3.03389">
        <ele>445.20001220703</ele>
        <time>2023-05-28T13:36:10.000Z</time>
      </trkpt>
      <trkpt lat="43.6704" lon="3.03391">
        <ele>445.39999389648</ele>
        <time>2023-05-28T13:36:12.000Z</time>
      </trkpt>
      <trkpt lat="43.67037" lon="3.03392">
        <ele>445.79998779297</ele>
        <time>2023-05-28T13:36:18.000Z</time>
      </trkpt>
      <trkpt lat="43.67035" lon="3.03394">
        <ele>446.20001220703</ele>
        <time>2023-05-28T13:36:22.000Z</time>
      </trkpt>
      <trkpt lat="43.67031" lon="3.03397">
        <ele>446.79998779297</ele>
        <time>2023-05-28T13:36:28.000Z</time>
      </trkpt>
      <trkpt lat="43.67029" lon="3.034">
        <ele>447.20001220703</ele>
        <time>2023-05-28T13:36:33.000Z</time>
      </trkpt>
      <trkpt lat="43.67028" lon="3.03402">
        <ele>447.39999389648</ele>
        <time>2023-05-28T13:36:36.000Z</time>
      </trkpt>
      <trkpt lat="43.67023" lon="3.03407">
        <ele>448.20001220703</ele>
        <time>2023-05-28T13:36:45.000Z</time>
      </trkpt>
      <trkpt lat="43.67023" lon="3.03408">
        <ele>448.20001220703</ele>
        <time>2023-05-28T13:36:46.000Z</time>
      </trkpt>
      <trkpt lat="43.67021" lon="3.03409">
        <ele>449</ele>
        <time>2023-05-28T13:36:53.000Z</time>
      </trkpt>
      <trkpt lat="43.67021" lon="3.0341">
        <ele>448.79998779297</ele>
        <time>2023-05-28T13:37:05.000Z</time>
      </trkpt>
      <trkpt lat="43.67021" lon="3.03411">
        <ele>449</ele>
        <time>2023-05-28T13:37:13.000Z</time>
      </trkpt>
      <trkpt lat="43.67021" lon="3.03412">
        <ele>449</ele>
        <time>2023-05-28T13:37:21.000Z</time>
      </trkpt>
      <trkpt lat="43.67021" lon="3.03414">
        <ele>448.79998779297</ele>
        <time>2023-05-28T13:37:46.000Z</time>
      </trkpt>
      <trkpt lat="43.6702" lon="3.03415">
        <ele>449.79998779297</ele>
        <time>2023-05-28T13:37:50.000Z</time>
      </trkpt>
      <trkpt lat="43.67021" lon="3.03414">
        <ele>449.79998779297</ele>
        <time>2023-05-28T13:37:51.000Z</time>
      </trkpt>
      <trkpt lat="43.6702" lon="3.03415">
        <ele>449.79998779297</ele>
        <time>2023-05-28T13:37:57.000Z</time>
      </trkpt>
      <trkpt lat="43.6702" lon="3.03415">
        <ele>450</ele>
        <time>2023-05-28T13:38:04.000Z</time>
      </trkpt>
      <trkpt lat="43.6702" lon="3.03415">
        <ele>450.20001220703</ele>
        <time>2023-05-28T13:38:16.000Z</time>
      </trkpt>
      <trkpt lat="43.6702" lon="3.03415">
        <ele>450.60000610352</ele>
        <time>2023-05-28T13:38:26.000Z</time>
      </trkpt>
      <trkpt lat="43.6702" lon="3.03416">
        <ele>450.79998779297</ele>
        <time>2023-05-28T13:38:37.000Z</time>
      </trkpt>
      <trkpt lat="43.6702" lon="3.03416">
        <ele>450</ele>
        <time>2023-05-28T13:38:43.000Z</time>
      </trkpt>
      <trkpt lat="43.67019" lon="3.03416">
        <ele>449.60000610352</ele>
        <time>2023-05-28T13:38:46.000Z</time>
      </trkpt>
      <trkpt lat="43.67019" lon="3.03416">
        <ele>449.60000610352</ele>
        <time>2023-05-28T13:38:51.000Z</time>
      </trkpt>
      <trkpt lat="43.6702" lon="3.03417">
        <ele>449.39999389648</ele>
        <time>2023-05-28T13:39:05.000Z</time>
      </trkpt>
      <trkpt lat="43.6702" lon="3.03417">
        <ele>449.20001220703</ele>
        <time>2023-05-28T13:39:23.000Z</time>
      </trkpt>
      <trkpt lat="43.67019" lon="3.03417">
        <ele>449.39999389648</ele>
        <time>2023-05-28T13:39:40.000Z</time>
      </trkpt>
      <trkpt lat="43.67019" lon="3.03416">
        <ele>449.39999389648</ele>
        <time>2023-05-28T13:39:54.000Z</time>
      </trkpt>
      <trkpt lat="43.67019" lon="3.03417">
        <ele>449.39999389648</ele>
        <time>2023-05-28T13:40:04.000Z</time>
      </trkpt>
      <trkpt lat="43.67019" lon="3.03417">
        <ele>449.60000610352</ele>
        <time>2023-05-28T13:40:25.000Z</time>
      </trkpt>
      <trkpt lat="43.67019" lon="3.03418">
        <ele>449.79998779297</ele>
        <time>2023-05-28T13:40:31.000Z</time>
      </trkpt>
      <trkpt lat="43.67019" lon="3.03417">
        <ele>450</ele>
        <time>2023-05-28T13:40:38.000Z</time>
      </trkpt>
      <trkpt lat="43.67019" lon="3.03418">
        <ele>449.79998779297</ele>
        <time>2023-05-28T13:40:45.000Z</time>
      </trkpt>
      <trkpt lat="43.67018" lon="3.03418">
        <ele>449.79998779297</ele>
        <time>2023-05-28T13:40:53.000Z</time>
      </trkpt>
      <trkpt lat="43.67017" lon="3.03419">
        <ele>449.60000610352</ele>
        <time>2023-05-28T13:40:59.000Z</time>
      </trkpt>
      <trkpt lat="43.67017" lon="3.03419">
        <ele>449.39999389648</ele>
        <time>2023-05-28T13:41:05.000Z</time>
      </trkpt>
      <trkpt lat="43.67017" lon="3.03417">
        <ele>449.39999389648</ele>
        <time>2023-05-28T13:41:12.000Z</time>
      </trkpt>
      <trkpt lat="43.67017" lon="3.03417">
        <ele>449.60000610352</ele>
        <time>2023-05-28T13:41:22.000Z</time>
      </trkpt>
      <trkpt lat="43.67016" lon="3.03418">
        <ele>449.39999389648</ele>
        <time>2023-05-28T13:41:32.000Z</time>
      </trkpt>
      <trkpt lat="43.67016" lon="3.03418">
        <ele>449.39999389648</ele>
        <time>2023-05-28T13:41:39.000Z</time>
      </trkpt>
      <trkpt lat="43.67016" lon="3.03418">
        <ele>449.79998779297</ele>
        <time>2023-05-28T13:41:46.000Z</time>
      </trkpt>
      <trkpt lat="43.67015" lon="3.03418">
        <ele>449.79998779297</ele>
        <time>2023-05-28T13:41:52.000Z</time>
      </trkpt>
      <trkpt lat="43.67015" lon="3.03417">
        <ele>450.20001220703</ele>
        <time>2023-05-28T13:42:01.000Z</time>
      </trkpt>
      <trkpt lat="43.67014" lon="3.03417">
        <ele>449.60000610352</ele>
        <time>2023-05-28T13:42:11.000Z</time>
      </trkpt>
      <trkpt lat="43.67011" lon="3.0342">
        <ele>449.79998779297</ele>
        <time>2023-05-28T13:42:19.000Z</time>
      </trkpt>
      <trkpt lat="43.67007" lon="3.03425">
        <ele>450.60000610352</ele>
        <time>2023-05-28T13:42:27.000Z</time>
      </trkpt>
      <trkpt lat="43.67006" lon="3.03425">
        <ele>450.79998779297</ele>
        <time>2023-05-28T13:42:28.000Z</time>
      </trkpt>
      <trkpt lat="43.67002" lon="3.03428">
        <ele>451.60000610352</ele>
        <time>2023-05-28T13:42:36.000Z</time>
      </trkpt>
      <trkpt lat="43.67001" lon="3.03429">
        <ele>451.79998779297</ele>
        <time>2023-05-28T13:42:38.000Z</time>
      </trkpt>
      <trkpt lat="43.66997" lon="3.0343">
        <ele>452.79998779297</ele>
        <time>2023-05-28T13:42:46.000Z</time>
      </trkpt>
      <trkpt lat="43.66996" lon="3.0343">
        <ele>452.79998779297</ele>
        <time>2023-05-28T13:42:47.000Z</time>
      </trkpt>
      <trkpt lat="43.66993" lon="3.0343">
        <ele>453.39999389648</ele>
        <time>2023-05-28T13:42:53.000Z</time>
      </trkpt>
      <trkpt lat="43.66991" lon="3.03429">
        <ele>453.79998779297</ele>
        <time>2023-05-28T13:42:59.000Z</time>
      </trkpt>
      <trkpt lat="43.66991" lon="3.0343">
        <ele>454</ele>
        <time>2023-05-28T13:43:00.000Z</time>
      </trkpt>
      <trkpt lat="43.66988" lon="3.0343">
        <ele>454.60000610352</ele>
        <time>2023-05-28T13:43:05.000Z</time>
      </trkpt>
      <trkpt lat="43.66983" lon="3.03429">
        <ele>454.79998779297</ele>
        <time>2023-05-28T13:43:13.000Z</time>
      </trkpt>
      <trkpt lat="43.66979" lon="3.03428">
        <ele>454.60000610352</ele>
        <time>2023-05-28T13:43:19.000Z</time>
      </trkpt>
      <trkpt lat="43.66975" lon="3.03424">
        <ele>454.79998779297</ele>
        <time>2023-05-28T13:43:26.000Z</time>
      </trkpt>
      <trkpt lat="43.66974" lon="3.03422">
        <ele>454.79998779297</ele>
        <time>2023-05-28T13:43:31.000Z</time>
      </trkpt>
      <trkpt lat="43.6697" lon="3.03419">
        <ele>455</ele>
        <time>2023-05-28T13:43:37.000Z</time>
      </trkpt>
      <trkpt lat="43.6697" lon="3.03418">
        <ele>455</ele>
        <time>2023-05-28T13:43:38.000Z</time>
      </trkpt>
      <trkpt lat="43.66964" lon="3.03414">
        <ele>454.60000610352</ele>
        <time>2023-05-28T13:43:44.000Z</time>
      </trkpt>
      <trkpt lat="43.66962" lon="3.03412">
        <ele>454.60000610352</ele>
        <time>2023-05-28T13:43:47.000Z</time>
      </trkpt>
      <trkpt lat="43.66959" lon="3.0341">
        <ele>454.60000610352</ele>
        <time>2023-05-28T13:43:51.000Z</time>
      </trkpt>
      <trkpt lat="43.66957" lon="3.03409">
        <ele>454.60000610352</ele>
        <time>2023-05-28T13:43:54.000Z</time>
      </trkpt>
      <trkpt lat="43.66953" lon="3.03408">
        <ele>454.39999389648</ele>
        <time>2023-05-28T13:43:58.000Z</time>
      </trkpt>
      <trkpt lat="43.66947" lon="3.0341">
        <ele>454.79998779297</ele>
        <time>2023-05-28T13:44:06.000Z</time>
      </trkpt>
      <trkpt lat="43.6694" lon="3.03415">
        <ele>455.20001220703</ele>
        <time>2023-05-28T13:44:15.000Z</time>
      </trkpt>
      <trkpt lat="43.66931" lon="3.03419">
        <ele>455.60000610352</ele>
        <time>2023-05-28T13:44:25.000Z</time>
      </trkpt>
      <trkpt lat="43.66927" lon="3.0342">
        <ele>456</ele>
        <time>2023-05-28T13:44:30.000Z</time>
      </trkpt>
      <trkpt lat="43.66924" lon="3.03421">
        <ele>456.20001220703</ele>
        <time>2023-05-28T13:44:33.000Z</time>
      </trkpt>
      <trkpt lat="43.66919" lon="3.03423">
        <ele>456.60000610352</ele>
        <time>2023-05-28T13:44:40.000Z</time>
      </trkpt>
      <trkpt lat="43.66914" lon="3.03424">
        <ele>457</ele>
        <time>2023-05-28T13:44:46.000Z</time>
      </trkpt>
      <trkpt lat="43.66912" lon="3.03424">
        <ele>457.20001220703</ele>
        <time>2023-05-28T13:44:48.000Z</time>
      </trkpt>
      <trkpt lat="43.66904" lon="3.03426">
        <ele>457.60000610352</ele>
        <time>2023-05-28T13:44:57.000Z</time>
      </trkpt>
      <trkpt lat="43.66896" lon="3.03427">
        <ele>457.79998779297</ele>
        <time>2023-05-28T13:45:05.000Z</time>
      </trkpt>
      <trkpt lat="43.66893" lon="3.03426">
        <ele>458</ele>
        <time>2023-05-28T13:45:09.000Z</time>
      </trkpt>
      <trkpt lat="43.66889" lon="3.03426">
        <ele>458.20001220703</ele>
        <time>2023-05-28T13:45:13.000Z</time>
      </trkpt>
      <trkpt lat="43.66886" lon="3.03425">
        <ele>458.20001220703</ele>
        <time>2023-05-28T13:45:16.000Z</time>
      </trkpt>
      <trkpt lat="43.66885" lon="3.03424">
        <ele>458.20001220703</ele>
        <time>2023-05-28T13:45:18.000Z</time>
      </trkpt>
      <trkpt lat="43.66881" lon="3.03425">
        <ele>458</ele>
        <time>2023-05-28T13:45:23.000Z</time>
      </trkpt>
      <trkpt lat="43.66879" lon="3.03426">
        <ele>457.60000610352</ele>
        <time>2023-05-28T13:45:25.000Z</time>
      </trkpt>
      <trkpt lat="43.66875" lon="3.03432">
        <ele>457.39999389648</ele>
        <time>2023-05-28T13:45:34.000Z</time>
      </trkpt>
      <trkpt lat="43.66871" lon="3.03439">
        <ele>457.60000610352</ele>
        <time>2023-05-28T13:45:43.000Z</time>
      </trkpt>
      <trkpt lat="43.66866" lon="3.03446">
        <ele>457.79998779297</ele>
        <time>2023-05-28T13:45:53.000Z</time>
      </trkpt>
      <trkpt lat="43.66865" lon="3.03447">
        <ele>457.79998779297</ele>
        <time>2023-05-28T13:46:00.000Z</time>
      </trkpt>
      <trkpt lat="43.66864" lon="3.03449">
        <ele>457.60000610352</ele>
        <time>2023-05-28T13:46:11.000Z</time>
      </trkpt>
      <trkpt lat="43.6686" lon="3.03454">
        <ele>457.60000610352</ele>
        <time>2023-05-28T13:46:18.000Z</time>
      </trkpt>
      <trkpt lat="43.66852" lon="3.03462">
        <ele>457.39999389648</ele>
        <time>2023-05-28T13:46:28.000Z</time>
      </trkpt>
      <trkpt lat="43.6685" lon="3.03466">
        <ele>457.60000610352</ele>
        <time>2023-05-28T13:46:32.000Z</time>
      </trkpt>
      <trkpt lat="43.66847" lon="3.03469">
        <ele>457.60000610352</ele>
        <time>2023-05-28T13:46:36.000Z</time>
      </trkpt>
      <trkpt lat="43.66846" lon="3.0347">
        <ele>457.60000610352</ele>
        <time>2023-05-28T13:46:37.000Z</time>
      </trkpt>
      <trkpt lat="43.66839" lon="3.03478">
        <ele>457.39999389648</ele>
        <time>2023-05-28T13:46:46.000Z</time>
      </trkpt>
      <trkpt lat="43.66833" lon="3.03483">
        <ele>457.20001220703</ele>
        <time>2023-05-28T13:46:54.000Z</time>
      </trkpt>
      <trkpt lat="43.66828" lon="3.0349">
        <ele>457.60000610352</ele>
        <time>2023-05-28T13:47:03.000Z</time>
      </trkpt>
      <trkpt lat="43.66823" lon="3.03495">
        <ele>457.39999389648</ele>
        <time>2023-05-28T13:47:10.000Z</time>
      </trkpt>
      <trkpt lat="43.66822" lon="3.03499">
        <ele>457.39999389648</ele>
        <time>2023-05-28T13:47:14.000Z</time>
      </trkpt>
      <trkpt lat="43.66821" lon="3.03501">
        <ele>457.39999389648</ele>
        <time>2023-05-28T13:47:16.000Z</time>
      </trkpt>
      <trkpt lat="43.6682" lon="3.03503">
        <ele>457.39999389648</ele>
        <time>2023-05-28T13:47:18.000Z</time>
      </trkpt>
      <trkpt lat="43.66819" lon="3.03509">
        <ele>457.39999389648</ele>
        <time>2023-05-28T13:47:23.000Z</time>
      </trkpt>
      <trkpt lat="43.66819" lon="3.03515">
        <ele>457.79998779297</ele>
        <time>2023-05-28T13:47:28.000Z</time>
      </trkpt>
      <trkpt lat="43.66819" lon="3.03516">
        <ele>457.79998779297</ele>
        <time>2023-05-28T13:47:30.000Z</time>
      </trkpt>
      <trkpt lat="43.66819" lon="3.03518">
        <ele>458</ele>
        <time>2023-05-28T13:47:32.000Z</time>
      </trkpt>
      <trkpt lat="43.66817" lon="3.03525">
        <ele>458.39999389648</ele>
        <time>2023-05-28T13:47:39.000Z</time>
      </trkpt>
      <trkpt lat="43.66815" lon="3.03532">
        <ele>459</ele>
        <time>2023-05-28T13:47:46.000Z</time>
      </trkpt>
      <trkpt lat="43.66815" lon="3.03534">
        <ele>459</ele>
        <time>2023-05-28T13:47:48.000Z</time>
      </trkpt>
      <trkpt lat="43.66814" lon="3.03538">
        <ele>459.60000610352</ele>
        <time>2023-05-28T13:47:53.000Z</time>
      </trkpt>
      <trkpt lat="43.66812" lon="3.03545">
        <ele>460</ele>
        <time>2023-05-28T13:48:00.000Z</time>
      </trkpt>
      <trkpt lat="43.66811" lon="3.03546">
        <ele>460.20001220703</ele>
        <time>2023-05-28T13:48:01.000Z</time>
      </trkpt>
      <trkpt lat="43.66809" lon="3.03554">
        <ele>460.60000610352</ele>
        <time>2023-05-28T13:48:08.000Z</time>
      </trkpt>
      <trkpt lat="43.66806" lon="3.03561">
        <ele>461</ele>
        <time>2023-05-28T13:48:16.000Z</time>
      </trkpt>
      <trkpt lat="43.66805" lon="3.03561">
        <ele>461</ele>
        <time>2023-05-28T13:48:17.000Z</time>
      </trkpt>
      <trkpt lat="43.66802" lon="3.03566">
        <ele>461.39999389648</ele>
        <time>2023-05-28T13:48:24.000Z</time>
      </trkpt>
      <trkpt lat="43.66799" lon="3.03573">
        <ele>461.79998779297</ele>
        <time>2023-05-28T13:48:30.000Z</time>
      </trkpt>
      <trkpt lat="43.66796" lon="3.03578">
        <ele>461.79998779297</ele>
        <time>2023-05-28T13:48:36.000Z</time>
      </trkpt>
      <trkpt lat="43.66792" lon="3.03584">
        <ele>462</ele>
        <time>2023-05-28T13:48:42.000Z</time>
      </trkpt>
      <trkpt lat="43.66791" lon="3.03586">
        <ele>462.20001220703</ele>
        <time>2023-05-28T13:48:44.000Z</time>
      </trkpt>
      <trkpt lat="43.66786" lon="3.03592">
        <ele>462.20001220703</ele>
        <time>2023-05-28T13:48:52.000Z</time>
      </trkpt>
      <trkpt lat="43.66781" lon="3.03597">
        <ele>462.79998779297</ele>
        <time>2023-05-28T13:48:59.000Z</time>
      </trkpt>
      <trkpt lat="43.66775" lon="3.03603">
        <ele>463</ele>
        <time>2023-05-28T13:49:07.000Z</time>
      </trkpt>
      <trkpt lat="43.66773" lon="3.03606">
        <ele>463</ele>
        <time>2023-05-28T13:49:14.000Z</time>
      </trkpt>
      <trkpt lat="43.66773" lon="3.03606">
        <ele>463.20001220703</ele>
        <time>2023-05-28T13:49:17.000Z</time>
      </trkpt>
      <trkpt lat="43.66772" lon="3.03609">
        <ele>463.20001220703</ele>
        <time>2023-05-28T13:49:25.000Z</time>
      </trkpt>
      <trkpt lat="43.66772" lon="3.0361">
        <ele>463.20001220703</ele>
        <time>2023-05-28T13:49:35.000Z</time>
      </trkpt>
      <trkpt lat="43.6677" lon="3.0361">
        <ele>462.60000610352</ele>
        <time>2023-05-28T13:49:46.000Z</time>
      </trkpt>
      <trkpt lat="43.66768" lon="3.03614">
        <ele>463</ele>
        <time>2023-05-28T13:49:52.000Z</time>
      </trkpt>
      <trkpt lat="43.66761" lon="3.03621">
        <ele>462.39999389648</ele>
        <time>2023-05-28T13:50:02.000Z</time>
      </trkpt>
      <trkpt lat="43.66755" lon="3.03626">
        <ele>462.60000610352</ele>
        <time>2023-05-28T13:50:10.000Z</time>
      </trkpt>
      <trkpt lat="43.66748" lon="3.03633">
        <ele>463.39999389648</ele>
        <time>2023-05-28T13:50:19.000Z</time>
      </trkpt>
      <trkpt lat="43.66739" lon="3.0364">
        <ele>463.60000610352</ele>
        <time>2023-05-28T13:50:30.000Z</time>
      </trkpt>
      <trkpt lat="43.66731" lon="3.03644">
        <ele>464.20001220703</ele>
        <time>2023-05-28T13:50:40.000Z</time>
      </trkpt>
      <trkpt lat="43.6673" lon="3.03645">
        <ele>464.20001220703</ele>
        <time>2023-05-28T13:50:41.000Z</time>
      </trkpt>
      <trkpt lat="43.66724" lon="3.03647">
        <ele>465.20001220703</ele>
        <time>2023-05-28T13:50:48.000Z</time>
      </trkpt>
      <trkpt lat="43.66723" lon="3.03648">
        <ele>465.20001220703</ele>
        <time>2023-05-28T13:50:49.000Z</time>
      </trkpt>
      <trkpt lat="43.66716" lon="3.0365">
        <ele>465.20001220703</ele>
        <time>2023-05-28T13:50:57.000Z</time>
      </trkpt>
      <trkpt lat="43.66711" lon="3.03651">
        <ele>464.39999389648</ele>
        <time>2023-05-28T13:51:03.000Z</time>
      </trkpt>
      <trkpt lat="43.6671" lon="3.03652">
        <ele>464.20001220703</ele>
        <time>2023-05-28T13:51:05.000Z</time>
      </trkpt>
      <trkpt lat="43.66704" lon="3.03654">
        <ele>463.79998779297</ele>
        <time>2023-05-28T13:51:13.000Z</time>
      </trkpt>
      <trkpt lat="43.66697" lon="3.0365">
        <ele>463.20001220703</ele>
        <time>2023-05-28T13:51:21.000Z</time>
      </trkpt>
      <trkpt lat="43.66692" lon="3.03645">
        <ele>463</ele>
        <time>2023-05-28T13:51:29.000Z</time>
      </trkpt>
      <trkpt lat="43.66687" lon="3.03641">
        <ele>462.60000610352</ele>
        <time>2023-05-28T13:51:37.000Z</time>
      </trkpt>
      <trkpt lat="43.66684" lon="3.03639">
        <ele>462.20001220703</ele>
        <time>2023-05-28T13:51:40.000Z</time>
      </trkpt>
      <trkpt lat="43.66682" lon="3.03635">
        <ele>461.60000610352</ele>
        <time>2023-05-28T13:51:44.000Z</time>
      </trkpt>
      <trkpt lat="43.66681" lon="3.03635">
        <ele>461.60000610352</ele>
        <time>2023-05-28T13:51:45.000Z</time>
      </trkpt>
      <trkpt lat="43.6668" lon="3.03634">
        <ele>461.79998779297</ele>
        <time>2023-05-28T13:51:50.000Z</time>
      </trkpt>
      <trkpt lat="43.66677" lon="3.03631">
        <ele>461.79998779297</ele>
        <time>2023-05-28T13:51:55.000Z</time>
      </trkpt>
      <trkpt lat="43.66675" lon="3.03628">
        <ele>461.20001220703</ele>
        <time>2023-05-28T13:51:58.000Z</time>
      </trkpt>
      <trkpt lat="43.66672" lon="3.03623">
        <ele>460.39999389648</ele>
        <time>2023-05-28T13:52:04.000Z</time>
      </trkpt>
      <trkpt lat="43.66669" lon="3.0362">
        <ele>460.20001220703</ele>
        <time>2023-05-28T13:52:08.000Z</time>
      </trkpt>
      <trkpt lat="43.66669" lon="3.03619">
        <ele>460</ele>
        <time>2023-05-28T13:52:09.000Z</time>
      </trkpt>
      <trkpt lat="43.66667" lon="3.03616">
        <ele>459.79998779297</ele>
        <time>2023-05-28T13:52:12.000Z</time>
      </trkpt>
      <trkpt lat="43.66664" lon="3.03614">
        <ele>459</ele>
        <time>2023-05-28T13:52:16.000Z</time>
      </trkpt>
      <trkpt lat="43.66664" lon="3.03614">
        <ele>459</ele>
        <time>2023-05-28T13:52:17.000Z</time>
      </trkpt>
      <trkpt lat="43.6666" lon="3.03608">
        <ele>458.60000610352</ele>
        <time>2023-05-28T13:52:24.000Z</time>
      </trkpt>
      <trkpt lat="43.66657" lon="3.03602">
        <ele>458</ele>
        <time>2023-05-28T13:52:30.000Z</time>
      </trkpt>
      <trkpt lat="43.66655" lon="3.036">
        <ele>457.79998779297</ele>
        <time>2023-05-28T13:52:33.000Z</time>
      </trkpt>
      <trkpt lat="43.66648" lon="3.03591">
        <ele>457.39999389648</ele>
        <time>2023-05-28T13:52:43.000Z</time>
      </trkpt>
      <trkpt lat="43.66645" lon="3.03588">
        <ele>457</ele>
        <time>2023-05-28T13:52:48.000Z</time>
      </trkpt>
      <trkpt lat="43.66643" lon="3.03586">
        <ele>456.79998779297</ele>
        <time>2023-05-28T13:52:50.000Z</time>
      </trkpt>
      <trkpt lat="43.66638" lon="3.03579">
        <ele>456.39999389648</ele>
        <time>2023-05-28T13:52:57.000Z</time>
      </trkpt>
      <trkpt lat="43.66634" lon="3.03574">
        <ele>456</ele>
        <time>2023-05-28T13:53:03.000Z</time>
      </trkpt>
      <trkpt lat="43.66633" lon="3.03573">
        <ele>456</ele>
        <time>2023-05-28T13:53:04.000Z</time>
      </trkpt>
      <trkpt lat="43.66628" lon="3.03569">
        <ele>455.39999389648</ele>
        <time>2023-05-28T13:53:12.000Z</time>
      </trkpt>
      <trkpt lat="43.66623" lon="3.03569">
        <ele>455.20001220703</ele>
        <time>2023-05-28T13:53:18.000Z</time>
      </trkpt>
      <trkpt lat="43.66618" lon="3.03572">
        <ele>455</ele>
        <time>2023-05-28T13:53:24.000Z</time>
      </trkpt>
      <trkpt lat="43.66616" lon="3.03572">
        <ele>455</ele>
        <time>2023-05-28T13:53:26.000Z</time>
      </trkpt>
      <trkpt lat="43.66611" lon="3.03573">
        <ele>454.60000610352</ele>
        <time>2023-05-28T13:53:32.000Z</time>
      </trkpt>
      <trkpt lat="43.66603" lon="3.03574">
        <ele>454</ele>
        <time>2023-05-28T13:53:40.000Z</time>
      </trkpt>
      <trkpt lat="43.66602" lon="3.03574">
        <ele>454</ele>
        <time>2023-05-28T13:53:41.000Z</time>
      </trkpt>
      <trkpt lat="43.66602" lon="3.03574">
        <ele>454</ele>
        <time>2023-05-28T13:53:42.000Z</time>
      </trkpt>
      <trkpt lat="43.66602" lon="3.03574">
        <ele>454</ele>
        <time>2023-05-28T13:53:45.000Z</time>
      </trkpt>
      <trkpt lat="43.666" lon="3.03575">
        <ele>453.20001220703</ele>
        <time>2023-05-28T13:53:52.000Z</time>
      </trkpt>
      <trkpt lat="43.666" lon="3.03575">
        <ele>453.79998779297</ele>
        <time>2023-05-28T13:53:59.000Z</time>
      </trkpt>
      <trkpt lat="43.666" lon="3.03576">
        <ele>453.79998779297</ele>
        <time>2023-05-28T13:54:07.000Z</time>
      </trkpt>
      <trkpt lat="43.666" lon="3.03576">
        <ele>453.79998779297</ele>
        <time>2023-05-28T13:54:15.000Z</time>
      </trkpt>
      <trkpt lat="43.666" lon="3.03575">
        <ele>454.20001220703</ele>
        <time>2023-05-28T13:54:24.000Z</time>
      </trkpt>
      <trkpt lat="43.66599" lon="3.03574">
        <ele>454.39999389648</ele>
        <time>2023-05-28T13:54:35.000Z</time>
      </trkpt>
      <trkpt lat="43.66599" lon="3.03574">
        <ele>454.20001220703</ele>
        <time>2023-05-28T13:54:45.000Z</time>
      </trkpt>
      <trkpt lat="43.66595" lon="3.03578">
        <ele>454</ele>
        <time>2023-05-28T13:54:53.000Z</time>
      </trkpt>
      <trkpt lat="43.66589" lon="3.03581">
        <ele>453.39999389648</ele>
        <time>2023-05-28T13:55:00.000Z</time>
      </trkpt>
      <trkpt lat="43.66582" lon="3.03588">
        <ele>453.60000610352</ele>
        <time>2023-05-28T13:55:08.000Z</time>
      </trkpt>
      <trkpt lat="43.66576" lon="3.03593">
        <ele>453.60000610352</ele>
        <time>2023-05-28T13:55:16.000Z</time>
      </trkpt>
      <trkpt lat="43.6657" lon="3.03599">
        <ele>452.79998779297</ele>
        <time>2023-05-28T13:55:23.000Z</time>
      </trkpt>
      <trkpt lat="43.66569" lon="3.036">
        <ele>452.79998779297</ele>
        <time>2023-05-28T13:55:24.000Z</time>
      </trkpt>
      <trkpt lat="43.66563" lon="3.03605">
        <ele>453.39999389648</ele>
        <time>2023-05-28T13:55:32.000Z</time>
      </trkpt>
      <trkpt lat="43.66562" lon="3.03606">
        <ele>453.20001220703</ele>
        <time>2023-05-28T13:55:34.000Z</time>
      </trkpt>
      <trkpt lat="43.66558" lon="3.03608">
        <ele>453.20001220703</ele>
        <time>2023-05-28T13:55:39.000Z</time>
      </trkpt>
      <trkpt lat="43.66558" lon="3.03609">
        <ele>453.39999389648</ele>
        <time>2023-05-28T13:55:40.000Z</time>
      </trkpt>
      <trkpt lat="43.66553" lon="3.03613">
        <ele>453.39999389648</ele>
        <time>2023-05-28T13:55:48.000Z</time>
      </trkpt>
      <trkpt lat="43.66547" lon="3.03618">
        <ele>454</ele>
        <time>2023-05-28T13:55:56.000Z</time>
      </trkpt>
      <trkpt lat="43.66544" lon="3.0362">
        <ele>455</ele>
        <time>2023-05-28T13:56:00.000Z</time>
      </trkpt>
      <trkpt lat="43.66542" lon="3.03621">
        <ele>454.79998779297</ele>
        <time>2023-05-28T13:56:03.000Z</time>
      </trkpt>
      <trkpt lat="43.66538" lon="3.03627">
        <ele>454.60000610352</ele>
        <time>2023-05-28T13:56:11.000Z</time>
      </trkpt>
      <trkpt lat="43.66531" lon="3.03629">
        <ele>454.79998779297</ele>
        <time>2023-05-28T13:56:19.000Z</time>
      </trkpt>
      <trkpt lat="43.66528" lon="3.0363">
        <ele>454.79998779297</ele>
        <time>2023-05-28T13:56:23.000Z</time>
      </trkpt>
      <trkpt lat="43.66526" lon="3.03629">
        <ele>455</ele>
        <time>2023-05-28T13:56:25.000Z</time>
      </trkpt>
      <trkpt lat="43.6652" lon="3.03629">
        <ele>454.79998779297</ele>
        <time>2023-05-28T13:56:32.000Z</time>
      </trkpt>
      <trkpt lat="43.66519" lon="3.03629">
        <ele>454.79998779297</ele>
        <time>2023-05-28T13:56:33.000Z</time>
      </trkpt>
      <trkpt lat="43.66518" lon="3.03628">
        <ele>454.79998779297</ele>
        <time>2023-05-28T13:56:35.000Z</time>
      </trkpt>
      <trkpt lat="43.66515" lon="3.03626">
        <ele>455</ele>
        <time>2023-05-28T13:56:39.000Z</time>
      </trkpt>
      <trkpt lat="43.66513" lon="3.03625">
        <ele>455.39999389648</ele>
        <time>2023-05-28T13:56:42.000Z</time>
      </trkpt>
      <trkpt lat="43.66511" lon="3.03624">
        <ele>455.60000610352</ele>
        <time>2023-05-28T13:56:45.000Z</time>
      </trkpt>
      <trkpt lat="43.66506" lon="3.03623">
        <ele>455.39999389648</ele>
        <time>2023-05-28T13:56:53.000Z</time>
      </trkpt>
      <trkpt lat="43.66501" lon="3.03623">
        <ele>455</ele>
        <time>2023-05-28T13:57:00.000Z</time>
      </trkpt>
      <trkpt lat="43.66495" lon="3.03623">
        <ele>455.20001220703</ele>
        <time>2023-05-28T13:57:07.000Z</time>
      </trkpt>
      <trkpt lat="43.66487" lon="3.03626">
        <ele>455.20001220703</ele>
        <time>2023-05-28T13:57:16.000Z</time>
      </trkpt>
      <trkpt lat="43.6648" lon="3.0363">
        <ele>455</ele>
        <time>2023-05-28T13:57:23.000Z</time>
      </trkpt>
      <trkpt lat="43.66478" lon="3.03631">
        <ele>455.20001220703</ele>
        <time>2023-05-28T13:57:26.000Z</time>
      </trkpt>
      <trkpt lat="43.66475" lon="3.03632">
        <ele>455.20001220703</ele>
        <time>2023-05-28T13:57:29.000Z</time>
      </trkpt>
      <trkpt lat="43.66468" lon="3.03635">
        <ele>455.39999389648</ele>
        <time>2023-05-28T13:57:37.000Z</time>
      </trkpt>
      <trkpt lat="43.66464" lon="3.03637">
        <ele>455.79998779297</ele>
        <time>2023-05-28T13:57:42.000Z</time>
      </trkpt>
      <trkpt lat="43.66463" lon="3.03637">
        <ele>456</ele>
        <time>2023-05-28T13:57:45.000Z</time>
      </trkpt>
      <trkpt lat="43.66462" lon="3.03638">
        <ele>456</ele>
        <time>2023-05-28T13:57:46.000Z</time>
      </trkpt>
      <trkpt lat="43.66458" lon="3.03639">
        <ele>456.20001220703</ele>
        <time>2023-05-28T13:57:51.000Z</time>
      </trkpt>
      <trkpt lat="43.66451" lon="3.03641">
        <ele>456</ele>
        <time>2023-05-28T13:57:58.000Z</time>
      </trkpt>
      <trkpt lat="43.66446" lon="3.03643">
        <ele>456.20001220703</ele>
        <time>2023-05-28T13:58:05.000Z</time>
      </trkpt>
      <trkpt lat="43.66439" lon="3.03646">
        <ele>456.39999389648</ele>
        <time>2023-05-28T13:58:14.000Z</time>
      </trkpt>
      <trkpt lat="43.66434" lon="3.03648">
        <ele>456.39999389648</ele>
        <time>2023-05-28T13:58:20.000Z</time>
      </trkpt>
      <trkpt lat="43.66433" lon="3.03649">
        <ele>456.20001220703</ele>
        <time>2023-05-28T13:58:22.000Z</time>
      </trkpt>
      <trkpt lat="43.66425" lon="3.03652">
        <ele>456</ele>
        <time>2023-05-28T13:58:30.000Z</time>
      </trkpt>
      <trkpt lat="43.66416" lon="3.03659">
        <ele>456</ele>
        <time>2023-05-28T13:58:39.000Z</time>
      </trkpt>
      <trkpt lat="43.66413" lon="3.0366">
        <ele>456</ele>
        <time>2023-05-28T13:58:42.000Z</time>
      </trkpt>
      <trkpt lat="43.66411" lon="3.03662">
        <ele>456</ele>
        <time>2023-05-28T13:58:45.000Z</time>
      </trkpt>
      <trkpt lat="43.6641" lon="3.03662">
        <ele>456</ele>
        <time>2023-05-28T13:58:46.000Z</time>
      </trkpt>
      <trkpt lat="43.66402" lon="3.03667">
        <ele>455.79998779297</ele>
        <time>2023-05-28T13:58:55.000Z</time>
      </trkpt>
      <trkpt lat="43.664" lon="3.03668">
        <ele>455.79998779297</ele>
        <time>2023-05-28T13:58:57.000Z</time>
      </trkpt>
      <trkpt lat="43.66395" lon="3.03672">
        <ele>455.79998779297</ele>
        <time>2023-05-28T13:59:03.000Z</time>
      </trkpt>
      <trkpt lat="43.66388" lon="3.03676">
        <ele>455.39999389648</ele>
        <time>2023-05-28T13:59:13.000Z</time>
      </trkpt>
      <trkpt lat="43.66384" lon="3.0368">
        <ele>455</ele>
        <time>2023-05-28T13:59:19.000Z</time>
      </trkpt>
      <trkpt lat="43.66382" lon="3.03681">
        <ele>455</ele>
        <time>2023-05-28T13:59:21.000Z</time>
      </trkpt>
      <trkpt lat="43.66376" lon="3.03684">
        <ele>454.79998779297</ele>
        <time>2023-05-28T13:59:28.000Z</time>
      </trkpt>
      <trkpt lat="43.66375" lon="3.03685">
        <ele>454.79998779297</ele>
        <time>2023-05-28T13:59:29.000Z</time>
      </trkpt>
      <trkpt lat="43.6637" lon="3.03689">
        <ele>454.20001220703</ele>
        <time>2023-05-28T13:59:36.000Z</time>
      </trkpt>
      <trkpt lat="43.66367" lon="3.03692">
        <ele>454</ele>
        <time>2023-05-28T13:59:41.000Z</time>
      </trkpt>
      <trkpt lat="43.66367" lon="3.03692">
        <ele>453.60000610352</ele>
        <time>2023-05-28T13:59:44.000Z</time>
      </trkpt>
      <trkpt lat="43.66364" lon="3.03697">
        <ele>453.39999389648</ele>
        <time>2023-05-28T13:59:52.000Z</time>
      </trkpt>
      <trkpt lat="43.66358" lon="3.03705">
        <ele>453.20001220703</ele>
        <time>2023-05-28T14:00:00.000Z</time>
      </trkpt>
      <trkpt lat="43.6635" lon="3.03712">
        <ele>453.20001220703</ele>
        <time>2023-05-28T14:00:08.000Z</time>
      </trkpt>
      <trkpt lat="43.66342" lon="3.0372">
        <ele>453.20001220703</ele>
        <time>2023-05-28T14:00:17.000Z</time>
      </trkpt>
      <trkpt lat="43.66337" lon="3.03724">
        <ele>453</ele>
        <time>2023-05-28T14:00:22.000Z</time>
      </trkpt>
      <trkpt lat="43.66334" lon="3.03725">
        <ele>453</ele>
        <time>2023-05-28T14:00:25.000Z</time>
      </trkpt>
      <trkpt lat="43.66328" lon="3.03731">
        <ele>453.20001220703</ele>
        <time>2023-05-28T14:00:34.000Z</time>
      </trkpt>
      <trkpt lat="43.66326" lon="3.03733">
        <ele>453.20001220703</ele>
        <time>2023-05-28T14:00:36.000Z</time>
      </trkpt>
      <trkpt lat="43.66325" lon="3.03738">
        <ele>453.39999389648</ele>
        <time>2023-05-28T14:00:40.000Z</time>
      </trkpt>
      <trkpt lat="43.66319" lon="3.03746">
        <ele>452.39999389648</ele>
        <time>2023-05-28T14:00:50.000Z</time>
      </trkpt>
      <trkpt lat="43.66318" lon="3.03747">
        <ele>452.39999389648</ele>
        <time>2023-05-28T14:00:52.000Z</time>
      </trkpt>
      <trkpt lat="43.66314" lon="3.03751">
        <ele>452.20001220703</ele>
        <time>2023-05-28T14:00:58.000Z</time>
      </trkpt>
      <trkpt lat="43.66311" lon="3.03755">
        <ele>452</ele>
        <time>2023-05-28T14:01:04.000Z</time>
      </trkpt>
      <trkpt lat="43.6631" lon="3.03757">
        <ele>451.79998779297</ele>
        <time>2023-05-28T14:01:06.000Z</time>
      </trkpt>
      <trkpt lat="43.66306" lon="3.03765">
        <ele>451.20001220703</ele>
        <time>2023-05-28T14:01:12.000Z</time>
      </trkpt>
      <trkpt lat="43.663" lon="3.03772">
        <ele>451.20001220703</ele>
        <time>2023-05-28T14:01:20.000Z</time>
      </trkpt>
      <trkpt lat="43.66296" lon="3.03776">
        <ele>451</ele>
        <time>2023-05-28T14:01:26.000Z</time>
      </trkpt>
      <trkpt lat="43.66295" lon="3.03777">
        <ele>450.79998779297</ele>
        <time>2023-05-28T14:01:27.000Z</time>
      </trkpt>
      <trkpt lat="43.6629" lon="3.03782">
        <ele>451</ele>
        <time>2023-05-28T14:01:34.000Z</time>
      </trkpt>
      <trkpt lat="43.66282" lon="3.03788">
        <ele>450.60000610352</ele>
        <time>2023-05-28T14:01:44.000Z</time>
      </trkpt>
      <trkpt lat="43.66277" lon="3.03791">
        <ele>450.60000610352</ele>
        <time>2023-05-28T14:01:51.000Z</time>
      </trkpt>
      <trkpt lat="43.66269" lon="3.03795">
        <ele>450.60000610352</ele>
        <time>2023-05-28T14:02:00.000Z</time>
      </trkpt>
      <trkpt lat="43.66265" lon="3.03797">
        <ele>450.79998779297</ele>
        <time>2023-05-28T14:02:06.000Z</time>
      </trkpt>
      <trkpt lat="43.66263" lon="3.03799">
        <ele>451</ele>
        <time>2023-05-28T14:02:08.000Z</time>
      </trkpt>
      <trkpt lat="43.66254" lon="3.03803">
        <ele>450.79998779297</ele>
        <time>2023-05-28T14:02:18.000Z</time>
      </trkpt>
      <trkpt lat="43.66248" lon="3.03807">
        <ele>450.60000610352</ele>
        <time>2023-05-28T14:02:25.000Z</time>
      </trkpt>
      <trkpt lat="43.66244" lon="3.03811">
        <ele>451</ele>
        <time>2023-05-28T14:02:30.000Z</time>
      </trkpt>
      <trkpt lat="43.66241" lon="3.03814">
        <ele>450.79998779297</ele>
        <time>2023-05-28T14:02:33.000Z</time>
      </trkpt>
      <trkpt lat="43.66234" lon="3.03819">
        <ele>450.79998779297</ele>
        <time>2023-05-28T14:02:42.000Z</time>
      </trkpt>
      <trkpt lat="43.66233" lon="3.03819">
        <ele>450.79998779297</ele>
        <time>2023-05-28T14:02:43.000Z</time>
      </trkpt>
      <trkpt lat="43.66227" lon="3.03823">
        <ele>451</ele>
        <time>2023-05-28T14:02:50.000Z</time>
      </trkpt>
      <trkpt lat="43.66222" lon="3.03827">
        <ele>450.79998779297</ele>
        <time>2023-05-28T14:02:59.000Z</time>
      </trkpt>
      <trkpt lat="43.66219" lon="3.03831">
        <ele>452</ele>
        <time>2023-05-28T14:03:06.000Z</time>
      </trkpt>
      <trkpt lat="43.66217" lon="3.03833">
        <ele>452</ele>
        <time>2023-05-28T14:03:08.000Z</time>
      </trkpt>
      <trkpt lat="43.66216" lon="3.03835">
        <ele>451.79998779297</ele>
        <time>2023-05-28T14:03:16.000Z</time>
      </trkpt>
      <trkpt lat="43.66216" lon="3.03838">
        <ele>451.79998779297</ele>
        <time>2023-05-28T14:03:26.000Z</time>
      </trkpt>
      <trkpt lat="43.66214" lon="3.03839">
        <ele>452</ele>
        <time>2023-05-28T14:03:33.000Z</time>
      </trkpt>
      <trkpt lat="43.66208" lon="3.03842">
        <ele>451.39999389648</ele>
        <time>2023-05-28T14:03:41.000Z</time>
      </trkpt>
      <trkpt lat="43.66202" lon="3.03846">
        <ele>450.79998779297</ele>
        <time>2023-05-28T14:03:47.000Z</time>
      </trkpt>
      <trkpt lat="43.66198" lon="3.0385">
        <ele>450.20001220703</ele>
        <time>2023-05-28T14:03:52.000Z</time>
      </trkpt>
      <trkpt lat="43.66194" lon="3.03854">
        <ele>449.79998779297</ele>
        <time>2023-05-28T14:03:57.000Z</time>
      </trkpt>
      <trkpt lat="43.66192" lon="3.03858">
        <ele>449.60000610352</ele>
        <time>2023-05-28T14:04:00.000Z</time>
      </trkpt>
      <trkpt lat="43.66188" lon="3.03864">
        <ele>448.79998779297</ele>
        <time>2023-05-28T14:04:07.000Z</time>
      </trkpt>
      <trkpt lat="43.66184" lon="3.03867">
        <ele>445.20001220703</ele>
        <time>2023-05-28T14:04:14.000Z</time>
      </trkpt>
      <trkpt lat="43.66183" lon="3.03867">
        <ele>444.20001220703</ele>
        <time>2023-05-28T14:04:15.000Z</time>
      </trkpt>
      <trkpt lat="43.66182" lon="3.03866">
        <ele>444</ele>
        <time>2023-05-28T14:04:17.000Z</time>
      </trkpt>
      <trkpt lat="43.66178" lon="3.03863">
        <ele>443.60000610352</ele>
        <time>2023-05-28T14:04:23.000Z</time>
      </trkpt>
      <trkpt lat="43.66174" lon="3.03863">
        <ele>443.20001220703</ele>
        <time>2023-05-28T14:04:29.000Z</time>
      </trkpt>
      <trkpt lat="43.66169" lon="3.03862">
        <ele>442.79998779297</ele>
        <time>2023-05-28T14:04:35.000Z</time>
      </trkpt>
      <trkpt lat="43.66167" lon="3.03862">
        <ele>442.79998779297</ele>
        <time>2023-05-28T14:04:38.000Z</time>
      </trkpt>
      <trkpt lat="43.66163" lon="3.0386">
        <ele>442.20001220703</ele>
        <time>2023-05-28T14:04:44.000Z</time>
      </trkpt>
      <trkpt lat="43.66158" lon="3.03861">
        <ele>441.79998779297</ele>
        <time>2023-05-28T14:04:49.000Z</time>
      </trkpt>
      <trkpt lat="43.66157" lon="3.0386">
        <ele>441.60000610352</ele>
        <time>2023-05-28T14:04:51.000Z</time>
      </trkpt>
      <trkpt lat="43.6615" lon="3.03857">
        <ele>440.79998779297</ele>
        <time>2023-05-28T14:04:59.000Z</time>
      </trkpt>
      <trkpt lat="43.66144" lon="3.03858">
        <ele>441.60000610352</ele>
        <time>2023-05-28T14:05:07.000Z</time>
      </trkpt>
      <trkpt lat="43.66143" lon="3.03858">
        <ele>441.60000610352</ele>
        <time>2023-05-28T14:05:08.000Z</time>
      </trkpt>
      <trkpt lat="43.66137" lon="3.03863">
        <ele>441.79998779297</ele>
        <time>2023-05-28T14:05:17.000Z</time>
      </trkpt>
      <trkpt lat="43.66134" lon="3.03866">
        <ele>442</ele>
        <time>2023-05-28T14:05:23.000Z</time>
      </trkpt>
      <trkpt lat="43.66131" lon="3.03868">
        <ele>442.20001220703</ele>
        <time>2023-05-28T14:05:34.000Z</time>
      </trkpt>
      <trkpt lat="43.66126" lon="3.03871">
        <ele>442.20001220703</ele>
        <time>2023-05-28T14:05:40.000Z</time>
      </trkpt>
      <trkpt lat="43.66118" lon="3.03876">
        <ele>442.20001220703</ele>
        <time>2023-05-28T14:05:49.000Z</time>
      </trkpt>
      <trkpt lat="43.66115" lon="3.03879">
        <ele>442.60000610352</ele>
        <time>2023-05-28T14:05:55.000Z</time>
      </trkpt>
      <trkpt lat="43.66114" lon="3.03879">
        <ele>442.79998779297</ele>
        <time>2023-05-28T14:05:56.000Z</time>
      </trkpt>
      <trkpt lat="43.6611" lon="3.03883">
        <ele>443.60000610352</ele>
        <time>2023-05-28T14:06:04.000Z</time>
      </trkpt>
      <trkpt lat="43.6611" lon="3.03884">
        <ele>443.79998779297</ele>
        <time>2023-05-28T14:06:09.000Z</time>
      </trkpt>
      <trkpt lat="43.66109" lon="3.03885">
        <ele>444.20001220703</ele>
        <time>2023-05-28T14:06:12.000Z</time>
      </trkpt>
      <trkpt lat="43.66107" lon="3.03886">
        <ele>444.20001220703</ele>
        <time>2023-05-28T14:06:20.000Z</time>
      </trkpt>
      <trkpt lat="43.66104" lon="3.03889">
        <ele>444</ele>
        <time>2023-05-28T14:06:27.000Z</time>
      </trkpt>
      <trkpt lat="43.661" lon="3.03893">
        <ele>442.79998779297</ele>
        <time>2023-05-28T14:06:34.000Z</time>
      </trkpt>
      <trkpt lat="43.66098" lon="3.03894">
        <ele>442.20001220703</ele>
        <time>2023-05-28T14:06:39.000Z</time>
      </trkpt>
      <trkpt lat="43.66097" lon="3.03895">
        <ele>442</ele>
        <time>2023-05-28T14:06:44.000Z</time>
      </trkpt>
      <trkpt lat="43.66092" lon="3.039">
        <ele>442</ele>
        <time>2023-05-28T14:06:52.000Z</time>
      </trkpt>
      <trkpt lat="43.66091" lon="3.03901">
        <ele>441.79998779297</ele>
        <time>2023-05-28T14:06:54.000Z</time>
      </trkpt>
      <trkpt lat="43.66088" lon="3.03904">
        <ele>441.60000610352</ele>
        <time>2023-05-28T14:06:59.000Z</time>
      </trkpt>
      <trkpt lat="43.66086" lon="3.03905">
        <ele>440.79998779297</ele>
        <time>2023-05-28T14:07:08.000Z</time>
      </trkpt>
      <trkpt lat="43.66085" lon="3.03906">
        <ele>440.20001220703</ele>
        <time>2023-05-28T14:07:15.000Z</time>
      </trkpt>
      <trkpt lat="43.66084" lon="3.03906">
        <ele>439.60000610352</ele>
        <time>2023-05-28T14:07:20.000Z</time>
      </trkpt>
      <trkpt lat="43.66084" lon="3.03906">
        <ele>439.79998779297</ele>
        <time>2023-05-28T14:07:24.000Z</time>
      </trkpt>
      <trkpt lat="43.66084" lon="3.03906">
        <ele>439.79998779297</ele>
        <time>2023-05-28T14:07:32.000Z</time>
      </trkpt>
      <trkpt lat="43.66085" lon="3.03907">
        <ele>440</ele>
        <time>2023-05-28T14:07:44.000Z</time>
      </trkpt>
      <trkpt lat="43.66082" lon="3.03908">
        <ele>440.20001220703</ele>
        <time>2023-05-28T14:07:50.000Z</time>
      </trkpt>
      <trkpt lat="43.66076" lon="3.03908">
        <ele>438.39999389648</ele>
        <time>2023-05-28T14:07:57.000Z</time>
      </trkpt>
      <trkpt lat="43.66075" lon="3.03909">
        <ele>438.20001220703</ele>
        <time>2023-05-28T14:07:58.000Z</time>
      </trkpt>
      <trkpt lat="43.66068" lon="3.03914">
        <ele>437.20001220703</ele>
        <time>2023-05-28T14:08:07.000Z</time>
      </trkpt>
      <trkpt lat="43.66063" lon="3.03917">
        <ele>436.60000610352</ele>
        <time>2023-05-28T14:08:14.000Z</time>
      </trkpt>
      <trkpt lat="43.66058" lon="3.03921">
        <ele>436</ele>
        <time>2023-05-28T14:08:21.000Z</time>
      </trkpt>
      <trkpt lat="43.66054" lon="3.03924">
        <ele>435.60000610352</ele>
        <time>2023-05-28T14:08:25.000Z</time>
      </trkpt>
      <trkpt lat="43.66051" lon="3.03927">
        <ele>435</ele>
        <time>2023-05-28T14:08:30.000Z</time>
      </trkpt>
      <trkpt lat="43.66049" lon="3.0393">
        <ele>434.39999389648</ele>
        <time>2023-05-28T14:08:33.000Z</time>
      </trkpt>
      <trkpt lat="43.66048" lon="3.03929">
        <ele>434.20001220703</ele>
        <time>2023-05-28T14:08:34.000Z</time>
      </trkpt>
      <trkpt lat="43.66048" lon="3.03929">
        <ele>435</ele>
        <time>2023-05-28T14:08:41.000Z</time>
      </trkpt>
      <trkpt lat="43.66048" lon="3.0393">
        <ele>434.79998779297</ele>
        <time>2023-05-28T14:09:00.000Z</time>
      </trkpt>
      <trkpt lat="43.66047" lon="3.03932">
        <ele>434.39999389648</ele>
        <time>2023-05-28T14:09:15.000Z</time>
      </trkpt>
      <trkpt lat="43.66041" lon="3.03936">
        <ele>434.79998779297</ele>
        <time>2023-05-28T14:09:23.000Z</time>
      </trkpt>
      <trkpt lat="43.66038" lon="3.03935">
        <ele>433.79998779297</ele>
        <time>2023-05-28T14:09:28.000Z</time>
      </trkpt>
      <trkpt lat="43.66037" lon="3.03936">
        <ele>433.60000610352</ele>
        <time>2023-05-28T14:09:30.000Z</time>
      </trkpt>
      <trkpt lat="43.66033" lon="3.03937">
        <ele>433.20001220703</ele>
        <time>2023-05-28T14:09:36.000Z</time>
      </trkpt>
      <trkpt lat="43.66031" lon="3.03938">
        <ele>432.79998779297</ele>
        <time>2023-05-28T14:09:39.000Z</time>
      </trkpt>
      <trkpt lat="43.66027" lon="3.03939">
        <ele>432.20001220703</ele>
        <time>2023-05-28T14:09:44.000Z</time>
      </trkpt>
      <trkpt lat="43.66023" lon="3.03941">
        <ele>431.79998779297</ele>
        <time>2023-05-28T14:09:50.000Z</time>
      </trkpt>
      <trkpt lat="43.6602" lon="3.03942">
        <ele>431.20001220703</ele>
        <time>2023-05-28T14:09:53.000Z</time>
      </trkpt>
      <trkpt lat="43.66021" lon="3.03942">
        <ele>430.60000610352</ele>
        <time>2023-05-28T14:09:55.000Z</time>
      </trkpt>
      <trkpt lat="43.66018" lon="3.03943">
        <ele>430.39999389648</ele>
        <time>2023-05-28T14:09:58.000Z</time>
      </trkpt>
      <trkpt lat="43.66014" lon="3.03944">
        <ele>430</ele>
        <time>2023-05-28T14:10:05.000Z</time>
      </trkpt>
      <trkpt lat="43.66012" lon="3.03945">
        <ele>429.60000610352</ele>
        <time>2023-05-28T14:10:07.000Z</time>
      </trkpt>
      <trkpt lat="43.66009" lon="3.03946">
        <ele>428.79998779297</ele>
        <time>2023-05-28T14:10:13.000Z</time>
      </trkpt>
      <trkpt lat="43.66008" lon="3.03946">
        <ele>428.39999389648</ele>
        <time>2023-05-28T14:10:14.000Z</time>
      </trkpt>
      <trkpt lat="43.66002" lon="3.03947">
        <ele>427.39999389648</ele>
        <time>2023-05-28T14:10:21.000Z</time>
      </trkpt>
      <trkpt lat="43.65999" lon="3.03952">
        <ele>426.79998779297</ele>
        <time>2023-05-28T14:10:28.000Z</time>
      </trkpt>
      <trkpt lat="43.65996" lon="3.03954">
        <ele>426.39999389648</ele>
        <time>2023-05-28T14:10:34.000Z</time>
      </trkpt>
      <trkpt lat="43.65995" lon="3.03955">
        <ele>426.20001220703</ele>
        <time>2023-05-28T14:10:36.000Z</time>
      </trkpt>
      <trkpt lat="43.65994" lon="3.03955">
        <ele>425.79998779297</ele>
        <time>2023-05-28T14:10:42.000Z</time>
      </trkpt>
      <trkpt lat="43.65993" lon="3.03957">
        <ele>425.60000610352</ele>
        <time>2023-05-28T14:10:50.000Z</time>
      </trkpt>
      <trkpt lat="43.65989" lon="3.03963">
        <ele>425.39999389648</ele>
        <time>2023-05-28T14:10:57.000Z</time>
      </trkpt>
      <trkpt lat="43.65989" lon="3.03964">
        <ele>425.20001220703</ele>
        <time>2023-05-28T14:10:58.000Z</time>
      </trkpt>
      <trkpt lat="43.65986" lon="3.03966">
        <ele>424.60000610352</ele>
        <time>2023-05-28T14:11:03.000Z</time>
      </trkpt>
      <trkpt lat="43.65985" lon="3.03967">
        <ele>424.20001220703</ele>
        <time>2023-05-28T14:11:06.000Z</time>
      </trkpt>
      <trkpt lat="43.65983" lon="3.03969">
        <ele>423.39999389648</ele>
        <time>2023-05-28T14:11:10.000Z</time>
      </trkpt>
      <trkpt lat="43.65983" lon="3.0397">
        <ele>423.20001220703</ele>
        <time>2023-05-28T14:11:12.000Z</time>
      </trkpt>
      <trkpt lat="43.6598" lon="3.03972">
        <ele>422.39999389648</ele>
        <time>2023-05-28T14:11:18.000Z</time>
      </trkpt>
      <trkpt lat="43.6598" lon="3.03971">
        <ele>422</ele>
        <time>2023-05-28T14:11:20.000Z</time>
      </trkpt>
      <trkpt lat="43.65978" lon="3.0397">
        <ele>421.60000610352</ele>
        <time>2023-05-28T14:11:24.000Z</time>
      </trkpt>
      <trkpt lat="43.65978" lon="3.03967">
        <ele>421</ele>
        <time>2023-05-28T14:11:29.000Z</time>
      </trkpt>
      <trkpt lat="43.65978" lon="3.03967">
        <ele>421</ele>
        <time>2023-05-28T14:11:30.000Z</time>
      </trkpt>
      <trkpt lat="43.65978" lon="3.03967">
        <ele>420</ele>
        <time>2023-05-28T14:11:39.000Z</time>
      </trkpt>
      <trkpt lat="43.65978" lon="3.03967">
        <ele>420</ele>
        <time>2023-05-28T14:11:40.000Z</time>
      </trkpt>
      <trkpt lat="43.6598" lon="3.03966">
        <ele>419.60000610352</ele>
        <time>2023-05-28T14:11:52.000Z</time>
      </trkpt>
      <trkpt lat="43.65981" lon="3.03961">
        <ele>418.79998779297</ele>
        <time>2023-05-28T14:11:59.000Z</time>
      </trkpt>
      <trkpt lat="43.65981" lon="3.0396">
        <ele>417.79998779297</ele>
        <time>2023-05-28T14:12:03.000Z</time>
      </trkpt>
      <trkpt lat="43.65981" lon="3.03957">
        <ele>417.39999389648</ele>
        <time>2023-05-28T14:12:07.000Z</time>
      </trkpt>
      <trkpt lat="43.65979" lon="3.03953">
        <ele>416.60000610352</ele>
        <time>2023-05-28T14:12:15.000Z</time>
      </trkpt>
      <trkpt lat="43.65979" lon="3.03953">
        <ele>416.39999389648</ele>
        <time>2023-05-28T14:12:16.000Z</time>
      </trkpt>
      <trkpt lat="43.65977" lon="3.03954">
        <ele>415.60000610352</ele>
        <time>2023-05-28T14:12:22.000Z</time>
      </trkpt>
      <trkpt lat="43.65976" lon="3.03955">
        <ele>415.39999389648</ele>
        <time>2023-05-28T14:12:24.000Z</time>
      </trkpt>
      <trkpt lat="43.65977" lon="3.03954">
        <ele>414.60000610352</ele>
        <time>2023-05-28T14:12:29.000Z</time>
      </trkpt>
      <trkpt lat="43.65975" lon="3.03956">
        <ele>414.39999389648</ele>
        <time>2023-05-28T14:12:32.000Z</time>
      </trkpt>
      <trkpt lat="43.65972" lon="3.03959">
        <ele>413.79998779297</ele>
        <time>2023-05-28T14:12:40.000Z</time>
      </trkpt>
      <trkpt lat="43.65972" lon="3.03959">
        <ele>414.20001220703</ele>
        <time>2023-05-28T14:12:53.000Z</time>
      </trkpt>
      <trkpt lat="43.6597" lon="3.03961">
        <ele>413.79998779297</ele>
        <time>2023-05-28T14:13:02.000Z</time>
      </trkpt>
      <trkpt lat="43.65968" lon="3.03965">
        <ele>413.39999389648</ele>
        <time>2023-05-28T14:13:06.000Z</time>
      </trkpt>
      <trkpt lat="43.65966" lon="3.03967">
        <ele>413.20001220703</ele>
        <time>2023-05-28T14:13:09.000Z</time>
      </trkpt>
      <trkpt lat="43.65961" lon="3.03973">
        <ele>413</ele>
        <time>2023-05-28T14:13:17.000Z</time>
      </trkpt>
      <trkpt lat="43.65959" lon="3.03977">
        <ele>412.39999389648</ele>
        <time>2023-05-28T14:13:22.000Z</time>
      </trkpt>
      <trkpt lat="43.65958" lon="3.03978">
        <ele>412</ele>
        <time>2023-05-28T14:13:24.000Z</time>
      </trkpt>
      <trkpt lat="43.65956" lon="3.0398">
        <ele>411.39999389648</ele>
        <time>2023-05-28T14:13:27.000Z</time>
      </trkpt>
      <trkpt lat="43.65957" lon="3.03979">
        <ele>410.79998779297</ele>
        <time>2023-05-28T14:13:30.000Z</time>
      </trkpt>
      <trkpt lat="43.65955" lon="3.03979">
        <ele>410.39999389648</ele>
        <time>2023-05-28T14:13:36.000Z</time>
      </trkpt>
      <trkpt lat="43.65954" lon="3.03978">
        <ele>410</ele>
        <time>2023-05-28T14:13:39.000Z</time>
      </trkpt>
      <trkpt lat="43.65954" lon="3.03978">
        <ele>409.39999389648</ele>
        <time>2023-05-28T14:13:43.000Z</time>
      </trkpt>
      <trkpt lat="43.65954" lon="3.03978">
        <ele>409.20001220703</ele>
        <time>2023-05-28T14:13:45.000Z</time>
      </trkpt>
      <trkpt lat="43.65954" lon="3.03978">
        <ele>410.39999389648</ele>
        <time>2023-05-28T14:13:50.000Z</time>
      </trkpt>
      <trkpt lat="43.65954" lon="3.03979">
        <ele>409.79998779297</ele>
        <time>2023-05-28T14:14:00.000Z</time>
      </trkpt>
      <trkpt lat="43.65956" lon="3.0398">
        <ele>410.39999389648</ele>
        <time>2023-05-28T14:14:08.000Z</time>
      </trkpt>
      <trkpt lat="43.65953" lon="3.03979">
        <ele>410.20001220703</ele>
        <time>2023-05-28T14:14:15.000Z</time>
      </trkpt>
      <trkpt lat="43.65954" lon="3.03979">
        <ele>411</ele>
        <time>2023-05-28T14:14:22.000Z</time>
      </trkpt>
      <trkpt lat="43.65954" lon="3.03973">
        <ele>409.39999389648</ele>
        <time>2023-05-28T14:14:29.000Z</time>
      </trkpt>
      <trkpt lat="43.65954" lon="3.03972">
        <ele>409.20001220703</ele>
        <time>2023-05-28T14:14:30.000Z</time>
      </trkpt>
      <trkpt lat="43.65959" lon="3.03967">
        <ele>408.20001220703</ele>
        <time>2023-05-28T14:14:35.000Z</time>
      </trkpt>
      <trkpt lat="43.65959" lon="3.03967">
        <ele>408</ele>
        <time>2023-05-28T14:14:36.000Z</time>
      </trkpt>
      <trkpt lat="43.65961" lon="3.03964">
        <ele>407.79998779297</ele>
        <time>2023-05-28T14:14:42.000Z</time>
      </trkpt>
      <trkpt lat="43.65961" lon="3.03964">
        <ele>407.60000610352</ele>
        <time>2023-05-28T14:14:43.000Z</time>
      </trkpt>
      <trkpt lat="43.65961" lon="3.03963">
        <ele>407</ele>
        <time>2023-05-28T14:14:45.000Z</time>
      </trkpt>
      <trkpt lat="43.65961" lon="3.03961">
        <ele>405.79998779297</ele>
        <time>2023-05-28T14:14:49.000Z</time>
      </trkpt>
      <trkpt lat="43.65959" lon="3.03957">
        <ele>405.20001220703</ele>
        <time>2023-05-28T14:14:56.000Z</time>
      </trkpt>
      <trkpt lat="43.65958" lon="3.03957">
        <ele>404.79998779297</ele>
        <time>2023-05-28T14:14:58.000Z</time>
      </trkpt>
      <trkpt lat="43.65956" lon="3.03959">
        <ele>404.20001220703</ele>
        <time>2023-05-28T14:15:02.000Z</time>
      </trkpt>
      <trkpt lat="43.65953" lon="3.0396">
        <ele>403.79998779297</ele>
        <time>2023-05-28T14:15:05.000Z</time>
      </trkpt>
      <trkpt lat="43.6595" lon="3.03959">
        <ele>403.39999389648</ele>
        <time>2023-05-28T14:15:08.000Z</time>
      </trkpt>
      <trkpt lat="43.65951" lon="3.03955">
        <ele>402.79998779297</ele>
        <time>2023-05-28T14:15:12.000Z</time>
      </trkpt>
      <trkpt lat="43.65951" lon="3.03953">
        <ele>402.60000610352</ele>
        <time>2023-05-28T14:15:13.000Z</time>
      </trkpt>
      <trkpt lat="43.65952" lon="3.03949">
        <ele>402.20001220703</ele>
        <time>2023-05-28T14:15:16.000Z</time>
      </trkpt>
      <trkpt lat="43.65953" lon="3.03945">
        <ele>401.79998779297</ele>
        <time>2023-05-28T14:15:19.000Z</time>
      </trkpt>
      <trkpt lat="43.65955" lon="3.03941">
        <ele>401.20001220703</ele>
        <time>2023-05-28T14:15:23.000Z</time>
      </trkpt>
      <trkpt lat="43.65956" lon="3.0394">
        <ele>400.79998779297</ele>
        <time>2023-05-28T14:15:26.000Z</time>
      </trkpt>
      <trkpt lat="43.65957" lon="3.03938">
        <ele>400.60000610352</ele>
        <time>2023-05-28T14:15:27.000Z</time>
      </trkpt>
      <trkpt lat="43.65959" lon="3.03929">
        <ele>399.60000610352</ele>
        <time>2023-05-28T14:15:34.000Z</time>
      </trkpt>
      <trkpt lat="43.65959" lon="3.03927">
        <ele>399.20001220703</ele>
        <time>2023-05-28T14:15:36.000Z</time>
      </trkpt>
      <trkpt lat="43.65961" lon="3.03924">
        <ele>398.60000610352</ele>
        <time>2023-05-28T14:15:40.000Z</time>
      </trkpt>
      <trkpt lat="43.65962" lon="3.03922">
        <ele>398.20001220703</ele>
        <time>2023-05-28T14:15:42.000Z</time>
      </trkpt>
      <trkpt lat="43.65961" lon="3.0392">
        <ele>397.60000610352</ele>
        <time>2023-05-28T14:15:46.000Z</time>
      </trkpt>
      <trkpt lat="43.6596" lon="3.03919">
        <ele>397.39999389648</ele>
        <time>2023-05-28T14:15:47.000Z</time>
      </trkpt>
      <trkpt lat="43.65957" lon="3.03922">
        <ele>397</ele>
        <time>2023-05-28T14:15:52.000Z</time>
      </trkpt>
      <trkpt lat="43.65952" lon="3.03925">
        <ele>396.60000610352</ele>
        <time>2023-05-28T14:15:58.000Z</time>
      </trkpt>
      <trkpt lat="43.65951" lon="3.03926">
        <ele>396.39999389648</ele>
        <time>2023-05-28T14:16:01.000Z</time>
      </trkpt>
      <trkpt lat="43.65949" lon="3.03928">
        <ele>395.79998779297</ele>
        <time>2023-05-28T14:16:05.000Z</time>
      </trkpt>
      <trkpt lat="43.65948" lon="3.03929">
        <ele>395.39999389648</ele>
        <time>2023-05-28T14:16:07.000Z</time>
      </trkpt>
      <trkpt lat="43.65944" lon="3.0393">
        <ele>394.39999389648</ele>
        <time>2023-05-28T14:16:13.000Z</time>
      </trkpt>
      <trkpt lat="43.65943" lon="3.03927">
        <ele>393.39999389648</ele>
        <time>2023-05-28T14:16:18.000Z</time>
      </trkpt>
      <trkpt lat="43.65943" lon="3.03927">
        <ele>393.20001220703</ele>
        <time>2023-05-28T14:16:19.000Z</time>
      </trkpt>
      <trkpt lat="43.65944" lon="3.03924">
        <ele>392.20001220703</ele>
        <time>2023-05-28T14:16:24.000Z</time>
      </trkpt>
      <trkpt lat="43.65944" lon="3.03924">
        <ele>392</ele>
        <time>2023-05-28T14:16:25.000Z</time>
      </trkpt>
      <trkpt lat="43.65941" lon="3.03926">
        <ele>391.60000610352</ele>
        <time>2023-05-28T14:16:31.000Z</time>
      </trkpt>
      <trkpt lat="43.65939" lon="3.03927">
        <ele>391</ele>
        <time>2023-05-28T14:16:35.000Z</time>
      </trkpt>
      <trkpt lat="43.6594" lon="3.03928">
        <ele>390.79998779297</ele>
        <time>2023-05-28T14:16:36.000Z</time>
      </trkpt>
      <trkpt lat="43.65937" lon="3.03926">
        <ele>390</ele>
        <time>2023-05-28T14:16:41.000Z</time>
      </trkpt>
      <trkpt lat="43.65937" lon="3.03926">
        <ele>389.79998779297</ele>
        <time>2023-05-28T14:16:42.000Z</time>
      </trkpt>
      <trkpt lat="43.65935" lon="3.03928">
        <ele>389.60000610352</ele>
        <time>2023-05-28T14:16:49.000Z</time>
      </trkpt>
      <trkpt lat="43.65931" lon="3.03932">
        <ele>389</ele>
        <time>2023-05-28T14:16:55.000Z</time>
      </trkpt>
      <trkpt lat="43.65931" lon="3.03932">
        <ele>389</ele>
        <time>2023-05-28T14:16:56.000Z</time>
      </trkpt>
      <trkpt lat="43.65929" lon="3.03933">
        <ele>388.39999389648</ele>
        <time>2023-05-28T14:17:01.000Z</time>
      </trkpt>
      <trkpt lat="43.65929" lon="3.03933">
        <ele>387.79998779297</ele>
        <time>2023-05-28T14:17:04.000Z</time>
      </trkpt>
      <trkpt lat="43.65928" lon="3.03934">
        <ele>387.60000610352</ele>
        <time>2023-05-28T14:17:07.000Z</time>
      </trkpt>
      <trkpt lat="43.65927" lon="3.03936">
        <ele>386.79998779297</ele>
        <time>2023-05-28T14:17:14.000Z</time>
      </trkpt>
      <trkpt lat="43.65925" lon="3.03933">
        <ele>385.60000610352</ele>
        <time>2023-05-28T14:17:20.000Z</time>
      </trkpt>
      <trkpt lat="43.65926" lon="3.03928">
        <ele>384.79998779297</ele>
        <time>2023-05-28T14:17:28.000Z</time>
      </trkpt>
      <trkpt lat="43.65928" lon="3.03926">
        <ele>384.60000610352</ele>
        <time>2023-05-28T14:17:30.000Z</time>
      </trkpt>
      <trkpt lat="43.65928" lon="3.03923">
        <ele>383.39999389648</ele>
        <time>2023-05-28T14:17:34.000Z</time>
      </trkpt>
      <trkpt lat="43.65928" lon="3.03922">
        <ele>383</ele>
        <time>2023-05-28T14:17:35.000Z</time>
      </trkpt>
      <trkpt lat="43.65927" lon="3.03919">
        <ele>382.20001220703</ele>
        <time>2023-05-28T14:17:39.000Z</time>
      </trkpt>
      <trkpt lat="43.65925" lon="3.03919">
        <ele>382</ele>
        <time>2023-05-28T14:17:42.000Z</time>
      </trkpt>
      <trkpt lat="43.65921" lon="3.03921">
        <ele>381.20001220703</ele>
        <time>2023-05-28T14:17:49.000Z</time>
      </trkpt>
      <trkpt lat="43.6592" lon="3.03921">
        <ele>381.20001220703</ele>
        <time>2023-05-28T14:17:50.000Z</time>
      </trkpt>
      <trkpt lat="43.65917" lon="3.03922">
        <ele>380.60000610352</ele>
        <time>2023-05-28T14:17:56.000Z</time>
      </trkpt>
      <trkpt lat="43.65916" lon="3.03923">
        <ele>380</ele>
        <time>2023-05-28T14:17:59.000Z</time>
      </trkpt>
      <trkpt lat="43.65915" lon="3.03925">
        <ele>379.20001220703</ele>
        <time>2023-05-28T14:18:02.000Z</time>
      </trkpt>
      <trkpt lat="43.65914" lon="3.03926">
        <ele>379</ele>
        <time>2023-05-28T14:18:05.000Z</time>
      </trkpt>
      <trkpt lat="43.65913" lon="3.03924">
        <ele>378.60000610352</ele>
        <time>2023-05-28T14:18:08.000Z</time>
      </trkpt>
      <trkpt lat="43.65912" lon="3.03922">
        <ele>377.79998779297</ele>
        <time>2023-05-28T14:18:12.000Z</time>
      </trkpt>
      <trkpt lat="43.65911" lon="3.03921">
        <ele>377.20001220703</ele>
        <time>2023-05-28T14:18:17.000Z</time>
      </trkpt>
      <trkpt lat="43.65909" lon="3.03919">
        <ele>376.79998779297</ele>
        <time>2023-05-28T14:18:22.000Z</time>
      </trkpt>
      <trkpt lat="43.65908" lon="3.0392">
        <ele>376.79998779297</ele>
        <time>2023-05-28T14:18:23.000Z</time>
      </trkpt>
      <trkpt lat="43.65904" lon="3.03922">
        <ele>375.79998779297</ele>
        <time>2023-05-28T14:18:29.000Z</time>
      </trkpt>
      <trkpt lat="43.65903" lon="3.03923">
        <ele>375.60000610352</ele>
        <time>2023-05-28T14:18:30.000Z</time>
      </trkpt>
      <trkpt lat="43.65899" lon="3.03928">
        <ele>375</ele>
        <time>2023-05-28T14:18:36.000Z</time>
      </trkpt>
      <trkpt lat="43.65898" lon="3.03928">
        <ele>374.60000610352</ele>
        <time>2023-05-28T14:18:37.000Z</time>
      </trkpt>
      <trkpt lat="43.65894" lon="3.03928">
        <ele>374.20001220703</ele>
        <time>2023-05-28T14:18:41.000Z</time>
      </trkpt>
      <trkpt lat="43.65894" lon="3.03929">
        <ele>374</ele>
        <time>2023-05-28T14:18:43.000Z</time>
      </trkpt>
      <trkpt lat="43.65893" lon="3.0393">
        <ele>373.60000610352</ele>
        <time>2023-05-28T14:18:46.000Z</time>
      </trkpt>
      <trkpt lat="43.65893" lon="3.0393">
        <ele>373.60000610352</ele>
        <time>2023-05-28T14:18:47.000Z</time>
      </trkpt>
      <trkpt lat="43.6589" lon="3.03932">
        <ele>372.60000610352</ele>
        <time>2023-05-28T14:18:52.000Z</time>
      </trkpt>
      <trkpt lat="43.65889" lon="3.03932">
        <ele>372.39999389648</ele>
        <time>2023-05-28T14:18:54.000Z</time>
      </trkpt>
      <trkpt lat="43.65887" lon="3.03933">
        <ele>371.60000610352</ele>
        <time>2023-05-28T14:18:58.000Z</time>
      </trkpt>
      <trkpt lat="43.65886" lon="3.03934">
        <ele>371.39999389648</ele>
        <time>2023-05-28T14:18:59.000Z</time>
      </trkpt>
      <trkpt lat="43.65885" lon="3.03934">
        <ele>370.60000610352</ele>
        <time>2023-05-28T14:19:05.000Z</time>
      </trkpt>
      <trkpt lat="43.65884" lon="3.03937">
        <ele>370.20001220703</ele>
        <time>2023-05-28T14:19:07.000Z</time>
      </trkpt>
      <trkpt lat="43.65882" lon="3.03936">
        <ele>369.60000610352</ele>
        <time>2023-05-28T14:19:11.000Z</time>
      </trkpt>
      <trkpt lat="43.6588" lon="3.03936">
        <ele>369.20001220703</ele>
        <time>2023-05-28T14:19:13.000Z</time>
      </trkpt>
      <trkpt lat="43.65878" lon="3.03937">
        <ele>368.60000610352</ele>
        <time>2023-05-28T14:19:18.000Z</time>
      </trkpt>
      <trkpt lat="43.65876" lon="3.03937">
        <ele>368</ele>
        <time>2023-05-28T14:19:21.000Z</time>
      </trkpt>
      <trkpt lat="43.65873" lon="3.03937">
        <ele>367.39999389648</ele>
        <time>2023-05-28T14:19:24.000Z</time>
      </trkpt>
      <trkpt lat="43.65871" lon="3.03939">
        <ele>366.60000610352</ele>
        <time>2023-05-28T14:19:28.000Z</time>
      </trkpt>
      <trkpt lat="43.65869" lon="3.0394">
        <ele>366.20001220703</ele>
        <time>2023-05-28T14:19:30.000Z</time>
      </trkpt>
      <trkpt lat="43.65869" lon="3.03939">
        <ele>365.79998779297</ele>
        <time>2023-05-28T14:19:33.000Z</time>
      </trkpt>
      <trkpt lat="43.65866" lon="3.03941">
        <ele>365.20001220703</ele>
        <time>2023-05-28T14:19:38.000Z</time>
      </trkpt>
      <trkpt lat="43.65861" lon="3.03939">
        <ele>364.39999389648</ele>
        <time>2023-05-28T14:19:43.000Z</time>
      </trkpt>
      <trkpt lat="43.6586" lon="3.03938">
        <ele>364.20001220703</ele>
        <time>2023-05-28T14:19:45.000Z</time>
      </trkpt>
      <trkpt lat="43.65856" lon="3.03938">
        <ele>363.20001220703</ele>
        <time>2023-05-28T14:19:50.000Z</time>
      </trkpt>
      <trkpt lat="43.65855" lon="3.03938">
        <ele>363</ele>
        <time>2023-05-28T14:19:51.000Z</time>
      </trkpt>
      <trkpt lat="43.65852" lon="3.03938">
        <ele>361.79998779297</ele>
        <time>2023-05-28T14:19:56.000Z</time>
      </trkpt>
      <trkpt lat="43.65847" lon="3.03938">
        <ele>361</ele>
        <time>2023-05-28T14:20:02.000Z</time>
      </trkpt>
      <trkpt lat="43.65846" lon="3.03938">
        <ele>360.79998779297</ele>
        <time>2023-05-28T14:20:04.000Z</time>
      </trkpt>
      <trkpt lat="43.65841" lon="3.03937">
        <ele>360</ele>
        <time>2023-05-28T14:20:10.000Z</time>
      </trkpt>
      <trkpt lat="43.6584" lon="3.03936">
        <ele>359.60000610352</ele>
        <time>2023-05-28T14:20:12.000Z</time>
      </trkpt>
      <trkpt lat="43.65835" lon="3.03936">
        <ele>358.79998779297</ele>
        <time>2023-05-28T14:20:17.000Z</time>
      </trkpt>
      <trkpt lat="43.65834" lon="3.03936">
        <ele>358.60000610352</ele>
        <time>2023-05-28T14:20:18.000Z</time>
      </trkpt>
      <trkpt lat="43.6583" lon="3.03937">
        <ele>358</ele>
        <time>2023-05-28T14:20:22.000Z</time>
      </trkpt>
      <trkpt lat="43.6583" lon="3.03938">
        <ele>357.79998779297</ele>
        <time>2023-05-28T14:20:23.000Z</time>
      </trkpt>
      <trkpt lat="43.65829" lon="3.03937">
        <ele>357.60000610352</ele>
        <time>2023-05-28T14:20:24.000Z</time>
      </trkpt>
      <trkpt lat="43.65827" lon="3.03937">
        <ele>357.20001220703</ele>
        <time>2023-05-28T14:20:26.000Z</time>
      </trkpt>
      <trkpt lat="43.65824" lon="3.03937">
        <ele>356.79998779297</ele>
        <time>2023-05-28T14:20:29.000Z</time>
      </trkpt>
      <trkpt lat="43.65822" lon="3.03938">
        <ele>356.60000610352</ele>
        <time>2023-05-28T14:20:32.000Z</time>
      </trkpt>
      <trkpt lat="43.65822" lon="3.03938">
        <ele>356.60000610352</ele>
        <time>2023-05-28T14:20:33.000Z</time>
      </trkpt>
      <trkpt lat="43.65821" lon="3.03939">
        <ele>356.39999389648</ele>
        <time>2023-05-28T14:20:34.000Z</time>
      </trkpt>
      <trkpt lat="43.6582" lon="3.03939">
        <ele>356.39999389648</ele>
        <time>2023-05-28T14:20:35.000Z</time>
      </trkpt>
      <trkpt lat="43.65816" lon="3.03941">
        <ele>355.60000610352</ele>
        <time>2023-05-28T14:20:40.000Z</time>
      </trkpt>
      <trkpt lat="43.65815" lon="3.03941">
        <ele>355.39999389648</ele>
        <time>2023-05-28T14:20:41.000Z</time>
      </trkpt>
      <trkpt lat="43.65813" lon="3.03943">
        <ele>354.79998779297</ele>
        <time>2023-05-28T14:20:44.000Z</time>
      </trkpt>
      <trkpt lat="43.65813" lon="3.03944">
        <ele>354.39999389648</ele>
        <time>2023-05-28T14:20:46.000Z</time>
      </trkpt>
      <trkpt lat="43.65811" lon="3.03946">
        <ele>354</ele>
        <time>2023-05-28T14:20:48.000Z</time>
      </trkpt>
      <trkpt lat="43.65808" lon="3.0395">
        <ele>353.39999389648</ele>
        <time>2023-05-28T14:20:52.000Z</time>
      </trkpt>
      <trkpt lat="43.65807" lon="3.03952">
        <ele>353</ele>
        <time>2023-05-28T14:20:54.000Z</time>
      </trkpt>
      <trkpt lat="43.65803" lon="3.03956">
        <ele>352.20001220703</ele>
        <time>2023-05-28T14:21:00.000Z</time>
      </trkpt>
      <trkpt lat="43.65803" lon="3.03956">
        <ele>352.20001220703</ele>
        <time>2023-05-28T14:21:01.000Z</time>
      </trkpt>
      <trkpt lat="43.65799" lon="3.03962">
        <ele>351.20001220703</ele>
        <time>2023-05-28T14:21:08.000Z</time>
      </trkpt>
      <trkpt lat="43.65798" lon="3.03963">
        <ele>351</ele>
        <time>2023-05-28T14:21:09.000Z</time>
      </trkpt>
      <trkpt lat="43.65794" lon="3.03969">
        <ele>350.20001220703</ele>
        <time>2023-05-28T14:21:15.000Z</time>
      </trkpt>
      <trkpt lat="43.65793" lon="3.0397">
        <ele>349.60000610352</ele>
        <time>2023-05-28T14:21:17.000Z</time>
      </trkpt>
      <trkpt lat="43.65791" lon="3.03973">
        <ele>349</ele>
        <time>2023-05-28T14:21:20.000Z</time>
      </trkpt>
      <trkpt lat="43.6579" lon="3.03976">
        <ele>348</ele>
        <time>2023-05-28T14:21:25.000Z</time>
      </trkpt>
      <trkpt lat="43.65785" lon="3.03982">
        <ele>347.39999389648</ele>
        <time>2023-05-28T14:21:32.000Z</time>
      </trkpt>
      <trkpt lat="43.65785" lon="3.03982">
        <ele>347</ele>
        <time>2023-05-28T14:21:36.000Z</time>
      </trkpt>
      <trkpt lat="43.65785" lon="3.03983">
        <ele>347</ele>
        <time>2023-05-28T14:21:39.000Z</time>
      </trkpt>
      <trkpt lat="43.65779" lon="3.03989">
        <ele>347</ele>
        <time>2023-05-28T14:21:45.000Z</time>
      </trkpt>
      <trkpt lat="43.65772" lon="3.03995">
        <ele>346.39999389648</ele>
        <time>2023-05-28T14:21:52.000Z</time>
      </trkpt>
      <trkpt lat="43.65767" lon="3.03999">
        <ele>346</ele>
        <time>2023-05-28T14:21:57.000Z</time>
      </trkpt>
      <trkpt lat="43.65765" lon="3.04">
        <ele>346</ele>
        <time>2023-05-28T14:22:01.000Z</time>
      </trkpt>
      <trkpt lat="43.65761" lon="3.04001">
        <ele>346</ele>
        <time>2023-05-28T14:22:07.000Z</time>
      </trkpt>
      <trkpt lat="43.65755" lon="3.04003">
        <ele>345.39999389648</ele>
        <time>2023-05-28T14:22:13.000Z</time>
      </trkpt>
      <trkpt lat="43.65749" lon="3.04009">
        <ele>345.39999389648</ele>
        <time>2023-05-28T14:22:19.000Z</time>
      </trkpt>
      <trkpt lat="43.65749" lon="3.04011">
        <ele>345.39999389648</ele>
        <time>2023-05-28T14:22:20.000Z</time>
      </trkpt>
      <trkpt lat="43.65746" lon="3.04014">
        <ele>345.20001220703</ele>
        <time>2023-05-28T14:22:23.000Z</time>
      </trkpt>
      <trkpt lat="43.65741" lon="3.04019">
        <ele>345</ele>
        <time>2023-05-28T14:22:28.000Z</time>
      </trkpt>
      <trkpt lat="43.6574" lon="3.0402">
        <ele>345</ele>
        <time>2023-05-28T14:22:29.000Z</time>
      </trkpt>
      <trkpt lat="43.65735" lon="3.04026">
        <ele>345</ele>
        <time>2023-05-28T14:22:36.000Z</time>
      </trkpt>
      <trkpt lat="43.65729" lon="3.04026">
        <ele>345.20001220703</ele>
        <time>2023-05-28T14:22:43.000Z</time>
      </trkpt>
      <trkpt lat="43.65724" lon="3.04024">
        <ele>346</ele>
        <time>2023-05-28T14:22:49.000Z</time>
      </trkpt>
      <trkpt lat="43.65723" lon="3.04024">
        <ele>346.39999389648</ele>
        <time>2023-05-28T14:22:50.000Z</time>
      </trkpt>
      <trkpt lat="43.65715" lon="3.04018">
        <ele>347</ele>
        <time>2023-05-28T14:22:58.000Z</time>
      </trkpt>
      <trkpt lat="43.65705" lon="3.04012">
        <ele>347</ele>
        <time>2023-05-28T14:23:07.000Z</time>
      </trkpt>
      <trkpt lat="43.65699" lon="3.04007">
        <ele>347</ele>
        <time>2023-05-28T14:23:13.000Z</time>
      </trkpt>
      <trkpt lat="43.65695" lon="3.04004">
        <ele>347</ele>
        <time>2023-05-28T14:23:17.000Z</time>
      </trkpt>
      <trkpt lat="43.65689" lon="3.04">
        <ele>346.39999389648</ele>
        <time>2023-05-28T14:23:23.000Z</time>
      </trkpt>
      <trkpt lat="43.65686" lon="3.03999">
        <ele>346</ele>
        <time>2023-05-28T14:23:26.000Z</time>
      </trkpt>
      <trkpt lat="43.65681" lon="3.03999">
        <ele>345</ele>
        <time>2023-05-28T14:23:31.000Z</time>
      </trkpt>
      <trkpt lat="43.6568" lon="3.03999">
        <ele>345</ele>
        <time>2023-05-28T14:23:32.000Z</time>
      </trkpt>
      <trkpt lat="43.65673" lon="3.03999">
        <ele>344.39999389648</ele>
        <time>2023-05-28T14:23:40.000Z</time>
      </trkpt>
      <trkpt lat="43.65673" lon="3.04">
        <ele>344.60000610352</ele>
        <time>2023-05-28T14:23:47.000Z</time>
      </trkpt>
      <trkpt lat="43.65674" lon="3.04003">
        <ele>344.79998779297</ele>
        <time>2023-05-28T14:23:57.000Z</time>
      </trkpt>
      <trkpt lat="43.65668" lon="3.04007">
        <ele>344.79998779297</ele>
        <time>2023-05-28T14:24:05.000Z</time>
      </trkpt>
      <trkpt lat="43.65661" lon="3.04013">
        <ele>345.20001220703</ele>
        <time>2023-05-28T14:24:13.000Z</time>
      </trkpt>
      <trkpt lat="43.65654" lon="3.04019">
        <ele>345.39999389648</ele>
        <time>2023-05-28T14:24:21.000Z</time>
      </trkpt>
      <trkpt lat="43.65646" lon="3.04026">
        <ele>345.39999389648</ele>
        <time>2023-05-28T14:24:30.000Z</time>
      </trkpt>
      <trkpt lat="43.65638" lon="3.04033">
        <ele>345.39999389648</ele>
        <time>2023-05-28T14:24:39.000Z</time>
      </trkpt>
      <trkpt lat="43.6563" lon="3.04039">
        <ele>345.39999389648</ele>
        <time>2023-05-28T14:24:48.000Z</time>
      </trkpt>
      <trkpt lat="43.6563" lon="3.04039">
        <ele>345.39999389648</ele>
        <time>2023-05-28T14:24:49.000Z</time>
      </trkpt>
      <trkpt lat="43.65629" lon="3.0404">
        <ele>345.20001220703</ele>
        <time>2023-05-28T14:24:52.000Z</time>
      </trkpt>
      <trkpt lat="43.65626" lon="3.04043">
        <ele>345.20001220703</ele>
        <time>2023-05-28T14:24:55.000Z</time>
      </trkpt>
      <trkpt lat="43.65617" lon="3.04051">
        <ele>345.39999389648</ele>
        <time>2023-05-28T14:25:04.000Z</time>
      </trkpt>
      <trkpt lat="43.65612" lon="3.04056">
        <ele>346</ele>
        <time>2023-05-28T14:25:10.000Z</time>
      </trkpt>
      <trkpt lat="43.65611" lon="3.04056">
        <ele>346</ele>
        <time>2023-05-28T14:25:11.000Z</time>
      </trkpt>
      <trkpt lat="43.6561" lon="3.04057">
        <ele>346</ele>
        <time>2023-05-28T14:25:12.000Z</time>
      </trkpt>
      <trkpt lat="43.65602" lon="3.0406">
        <ele>346.79998779297</ele>
        <time>2023-05-28T14:25:21.000Z</time>
      </trkpt>
      <trkpt lat="43.65595" lon="3.04062">
        <ele>347</ele>
        <time>2023-05-28T14:25:28.000Z</time>
      </trkpt>
      <trkpt lat="43.65592" lon="3.04063">
        <ele>347.60000610352</ele>
        <time>2023-05-28T14:25:31.000Z</time>
      </trkpt>
      <trkpt lat="43.65585" lon="3.04066">
        <ele>347.79998779297</ele>
        <time>2023-05-28T14:25:38.000Z</time>
      </trkpt>
      <trkpt lat="43.6558" lon="3.04067">
        <ele>348.20001220703</ele>
        <time>2023-05-28T14:25:43.000Z</time>
      </trkpt>
      <trkpt lat="43.6558" lon="3.04067">
        <ele>348.20001220703</ele>
        <time>2023-05-28T14:25:44.000Z</time>
      </trkpt>
      <trkpt lat="43.65579" lon="3.04069">
        <ele>348.20001220703</ele>
        <time>2023-05-28T14:25:45.000Z</time>
      </trkpt>
      <trkpt lat="43.65575" lon="3.04079">
        <ele>348.39999389648</ele>
        <time>2023-05-28T14:25:53.000Z</time>
      </trkpt>
      <trkpt lat="43.65574" lon="3.04093">
        <ele>348.20001220703</ele>
        <time>2023-05-28T14:26:02.000Z</time>
      </trkpt>
      <trkpt lat="43.6557" lon="3.04103">
        <ele>348</ele>
        <time>2023-05-28T14:26:09.000Z</time>
      </trkpt>
      <trkpt lat="43.65567" lon="3.04106">
        <ele>347.79998779297</ele>
        <time>2023-05-28T14:26:13.000Z</time>
      </trkpt>
      <trkpt lat="43.65565" lon="3.04109">
        <ele>347.79998779297</ele>
        <time>2023-05-28T14:26:16.000Z</time>
      </trkpt>
      <trkpt lat="43.65562" lon="3.04115">
        <ele>348</ele>
        <time>2023-05-28T14:26:21.000Z</time>
      </trkpt>
      <trkpt lat="43.65561" lon="3.04117">
        <ele>348</ele>
        <time>2023-05-28T14:26:23.000Z</time>
      </trkpt>
      <trkpt lat="43.6556" lon="3.04121">
        <ele>348</ele>
        <time>2023-05-28T14:26:27.000Z</time>
      </trkpt>
      <trkpt lat="43.65558" lon="3.04124">
        <ele>348.20001220703</ele>
        <time>2023-05-28T14:26:30.000Z</time>
      </trkpt>
      <trkpt lat="43.6556" lon="3.04124">
        <ele>348.60000610352</ele>
        <time>2023-05-28T14:26:35.000Z</time>
      </trkpt>
      <trkpt lat="43.65561" lon="3.04122">
        <ele>348.79998779297</ele>
        <time>2023-05-28T14:26:41.000Z</time>
      </trkpt>
      <trkpt lat="43.65565" lon="3.04121">
        <ele>348.60000610352</ele>
        <time>2023-05-28T14:26:49.000Z</time>
      </trkpt>
      <trkpt lat="43.65565" lon="3.04119">
        <ele>348.60000610352</ele>
        <time>2023-05-28T14:26:58.000Z</time>
      </trkpt>
      <trkpt lat="43.65567" lon="3.04119">
        <ele>348.60000610352</ele>
        <time>2023-05-28T14:27:07.000Z</time>
      </trkpt>
      <trkpt lat="43.65565" lon="3.04122">
        <ele>348.60000610352</ele>
        <time>2023-05-28T14:27:13.000Z</time>
      </trkpt>
      <trkpt lat="43.6556" lon="3.04126">
        <ele>349</ele>
        <time>2023-05-28T14:27:20.000Z</time>
      </trkpt>
      <trkpt lat="43.65561" lon="3.04126">
        <ele>349.20001220703</ele>
        <time>2023-05-28T14:27:26.000Z</time>
      </trkpt>
      <trkpt lat="43.65561" lon="3.04126">
        <ele>349.20001220703</ele>
        <time>2023-05-28T14:27:27.000Z</time>
      </trkpt>
      <trkpt lat="43.65563" lon="3.04129">
        <ele>349.39999389648</ele>
        <time>2023-05-28T14:27:36.000Z</time>
      </trkpt>
      <trkpt lat="43.65564" lon="3.04131">
        <ele>349.39999389648</ele>
        <time>2023-05-28T14:27:45.000Z</time>
      </trkpt>
      <trkpt lat="43.65562" lon="3.04137">
        <ele>349.79998779297</ele>
        <time>2023-05-28T14:27:51.000Z</time>
      </trkpt>
      <trkpt lat="43.65558" lon="3.0414">
        <ele>350.20001220703</ele>
        <time>2023-05-28T14:27:55.000Z</time>
      </trkpt>
      <trkpt lat="43.65556" lon="3.04143">
        <ele>350.60000610352</ele>
        <time>2023-05-28T14:27:59.000Z</time>
      </trkpt>
      <trkpt lat="43.65555" lon="3.04143">
        <ele>350.60000610352</ele>
        <time>2023-05-28T14:28:00.000Z</time>
      </trkpt>
      <trkpt lat="43.65555" lon="3.04145">
        <ele>350.79998779297</ele>
        <time>2023-05-28T14:28:02.000Z</time>
      </trkpt>
      <trkpt lat="43.65556" lon="3.04145">
        <ele>351</ele>
        <time>2023-05-28T14:28:05.000Z</time>
      </trkpt>
      <trkpt lat="43.65555" lon="3.04145">
        <ele>353.20001220703</ele>
        <time>2023-05-28T14:28:07.000Z</time>
      </trkpt>
      <trkpt lat="43.65556" lon="3.04145">
        <ele>351.20001220703</ele>
        <time>2023-05-28T14:28:08.000Z</time>
      </trkpt>
      <trkpt lat="43.65556" lon="3.04145">
        <ele>351</ele>
        <time>2023-05-28T14:28:10.000Z</time>
      </trkpt>
      <trkpt lat="43.65554" lon="3.04145">
        <ele>348.60000610352</ele>
        <time>2023-05-28T14:28:12.000Z</time>
      </trkpt>
      <trkpt lat="43.65554" lon="3.04144">
        <ele>350.60000610352</ele>
        <time>2023-05-28T14:28:13.000Z</time>
      </trkpt>
      <trkpt lat="43.65554" lon="3.04145">
        <ele>350.60000610352</ele>
        <time>2023-05-28T14:28:16.000Z</time>
      </trkpt>
      <trkpt lat="43.6555" lon="3.04141">
        <ele>350.39999389648</ele>
        <time>2023-05-28T14:28:24.000Z</time>
      </trkpt>
      <trkpt lat="43.65548" lon="3.04138">
        <ele>350.60000610352</ele>
        <time>2023-05-28T14:28:33.000Z</time>
      </trkpt>
      <trkpt lat="43.65546" lon="3.04137">
        <ele>350.39999389648</ele>
        <time>2023-05-28T14:28:42.000Z</time>
      </trkpt>
      <trkpt lat="43.65546" lon="3.04137">
        <ele>350.60000610352</ele>
        <time>2023-05-28T14:28:49.000Z</time>
      </trkpt>
      <trkpt lat="43.65545" lon="3.04136">
        <ele>350.60000610352</ele>
        <time>2023-05-28T14:28:57.000Z</time>
      </trkpt>
      <trkpt lat="43.65543" lon="3.04134">
        <ele>350.39999389648</ele>
        <time>2023-05-28T14:29:04.000Z</time>
      </trkpt>
      <trkpt lat="43.65542" lon="3.04134">
        <ele>350.20001220703</ele>
        <time>2023-05-28T14:29:13.000Z</time>
      </trkpt>
      <trkpt lat="43.65544" lon="3.04135">
        <ele>350</ele>
        <time>2023-05-28T14:29:20.000Z</time>
      </trkpt>
      <trkpt lat="43.65546" lon="3.04137">
        <ele>350.39999389648</ele>
        <time>2023-05-28T14:29:32.000Z</time>
      </trkpt>
      <trkpt lat="43.65545" lon="3.04137">
        <ele>350.60000610352</ele>
        <time>2023-05-28T14:29:41.000Z</time>
      </trkpt>
      <trkpt lat="43.65546" lon="3.04138">
        <ele>350.20001220703</ele>
        <time>2023-05-28T14:29:52.000Z</time>
      </trkpt>
      <trkpt lat="43.65545" lon="3.04137">
        <ele>350.20001220703</ele>
        <time>2023-05-28T14:30:01.000Z</time>
      </trkpt>
      <trkpt lat="43.65545" lon="3.04138">
        <ele>350.20001220703</ele>
        <time>2023-05-28T14:30:11.000Z</time>
      </trkpt>
      <trkpt lat="43.65545" lon="3.04139">
        <ele>350.20001220703</ele>
        <time>2023-05-28T14:30:17.000Z</time>
      </trkpt>
      <trkpt lat="43.65545" lon="3.04138">
        <ele>347.60000610352</ele>
        <time>2023-05-28T14:30:21.000Z</time>
      </trkpt>
      <trkpt lat="43.65545" lon="3.04139">
        <ele>347.79998779297</ele>
        <time>2023-05-28T14:30:24.000Z</time>
      </trkpt>
      <trkpt lat="43.65543" lon="3.04139">
        <ele>350.60000610352</ele>
        <time>2023-05-28T14:30:26.000Z</time>
      </trkpt>
      <trkpt lat="43.6554" lon="3.04141">
        <ele>351</ele>
        <time>2023-05-28T14:30:30.000Z</time>
      </trkpt>
      <trkpt lat="43.65534" lon="3.04144">
        <ele>351.60000610352</ele>
        <time>2023-05-28T14:30:38.000Z</time>
      </trkpt>
      <trkpt lat="43.65533" lon="3.04144">
        <ele>351.79998779297</ele>
        <time>2023-05-28T14:30:39.000Z</time>
      </trkpt>
      <trkpt lat="43.65526" lon="3.04146">
        <ele>352.20001220703</ele>
        <time>2023-05-28T14:30:46.000Z</time>
      </trkpt>
      <trkpt lat="43.65524" lon="3.04148">
        <ele>352.60000610352</ele>
        <time>2023-05-28T14:30:48.000Z</time>
      </trkpt>
      <trkpt lat="43.65523" lon="3.04149">
        <ele>353</ele>
        <time>2023-05-28T14:30:50.000Z</time>
      </trkpt>
      <trkpt lat="43.65521" lon="3.0415">
        <ele>353</ele>
        <time>2023-05-28T14:30:53.000Z</time>
      </trkpt>
      <trkpt lat="43.65518" lon="3.0415">
        <ele>353.20001220703</ele>
        <time>2023-05-28T14:30:57.000Z</time>
      </trkpt>
      <trkpt lat="43.65516" lon="3.04149">
        <ele>353.79998779297</ele>
        <time>2023-05-28T14:31:00.000Z</time>
      </trkpt>
      <trkpt lat="43.65509" lon="3.04152">
        <ele>354.20001220703</ele>
        <time>2023-05-28T14:31:08.000Z</time>
      </trkpt>
      <trkpt lat="43.65499" lon="3.04155">
        <ele>354.39999389648</ele>
        <time>2023-05-28T14:31:17.000Z</time>
      </trkpt>
      <trkpt lat="43.65491" lon="3.04156">
        <ele>354.60000610352</ele>
        <time>2023-05-28T14:31:25.000Z</time>
      </trkpt>
      <trkpt lat="43.65483" lon="3.04156">
        <ele>354.60000610352</ele>
        <time>2023-05-28T14:31:32.000Z</time>
      </trkpt>
      <trkpt lat="43.65479" lon="3.04156">
        <ele>354.79998779297</ele>
        <time>2023-05-28T14:31:35.000Z</time>
      </trkpt>
      <trkpt lat="43.65474" lon="3.04155">
        <ele>354.79998779297</ele>
        <time>2023-05-28T14:31:40.000Z</time>
      </trkpt>
      <trkpt lat="43.65463" lon="3.04153">
        <ele>355.20001220703</ele>
        <time>2023-05-28T14:31:50.000Z</time>
      </trkpt>
      <trkpt lat="43.65451" lon="3.0415">
        <ele>355</ele>
        <time>2023-05-28T14:32:01.000Z</time>
      </trkpt>
      <trkpt lat="43.65443" lon="3.04147">
        <ele>355</ele>
        <time>2023-05-28T14:32:09.000Z</time>
      </trkpt>
      <trkpt lat="43.65436" lon="3.04143">
        <ele>354.79998779297</ele>
        <time>2023-05-28T14:32:16.000Z</time>
      </trkpt>
      <trkpt lat="43.65428" lon="3.0414">
        <ele>354.79998779297</ele>
        <time>2023-05-28T14:32:24.000Z</time>
      </trkpt>
      <trkpt lat="43.6542" lon="3.04134">
        <ele>354.60000610352</ele>
        <time>2023-05-28T14:32:32.000Z</time>
      </trkpt>
      <trkpt lat="43.65418" lon="3.04133">
        <ele>354.39999389648</ele>
        <time>2023-05-28T14:32:34.000Z</time>
      </trkpt>
      <trkpt lat="43.65415" lon="3.04132">
        <ele>354.39999389648</ele>
        <time>2023-05-28T14:32:37.000Z</time>
      </trkpt>
      <trkpt lat="43.65407" lon="3.04127">
        <ele>354.20001220703</ele>
        <time>2023-05-28T14:32:45.000Z</time>
      </trkpt>
      <trkpt lat="43.65399" lon="3.04123">
        <ele>353.79998779297</ele>
        <time>2023-05-28T14:32:53.000Z</time>
      </trkpt>
      <trkpt lat="43.65394" lon="3.0412">
        <ele>353.79998779297</ele>
        <time>2023-05-28T14:32:58.000Z</time>
      </trkpt>
      <trkpt lat="43.65391" lon="3.04118">
        <ele>353.60000610352</ele>
        <time>2023-05-28T14:33:01.000Z</time>
      </trkpt>
      <trkpt lat="43.6538" lon="3.04112">
        <ele>353.60000610352</ele>
        <time>2023-05-28T14:33:11.000Z</time>
      </trkpt>
      <trkpt lat="43.65371" lon="3.04109">
        <ele>353.60000610352</ele>
        <time>2023-05-28T14:33:18.000Z</time>
      </trkpt>
      <trkpt lat="43.6537" lon="3.04108">
        <ele>353.60000610352</ele>
        <time>2023-05-28T14:33:19.000Z</time>
      </trkpt>
      <trkpt lat="43.65361" lon="3.04105">
        <ele>353</ele>
        <time>2023-05-28T14:33:27.000Z</time>
      </trkpt>
      <trkpt lat="43.6535" lon="3.04099">
        <ele>352.79998779297</ele>
        <time>2023-05-28T14:33:37.000Z</time>
      </trkpt>
      <trkpt lat="43.65349" lon="3.04099">
        <ele>352.79998779297</ele>
        <time>2023-05-28T14:33:38.000Z</time>
      </trkpt>
      <trkpt lat="43.65342" lon="3.04095">
        <ele>352.60000610352</ele>
        <time>2023-05-28T14:33:44.000Z</time>
      </trkpt>
      <trkpt lat="43.65334" lon="3.04089">
        <ele>352.39999389648</ele>
        <time>2023-05-28T14:33:51.000Z</time>
      </trkpt>
      <trkpt lat="43.65329" lon="3.04088">
        <ele>352.20001220703</ele>
        <time>2023-05-28T14:33:56.000Z</time>
      </trkpt>
      <trkpt lat="43.65327" lon="3.04087">
        <ele>352.20001220703</ele>
        <time>2023-05-28T14:33:58.000Z</time>
      </trkpt>
      <trkpt lat="43.65324" lon="3.04086">
        <ele>352.20001220703</ele>
        <time>2023-05-28T14:34:01.000Z</time>
      </trkpt>
      <trkpt lat="43.65319" lon="3.04082">
        <ele>352.20001220703</ele>
        <time>2023-05-28T14:34:06.000Z</time>
      </trkpt>
      <trkpt lat="43.65309" lon="3.04076">
        <ele>352.20001220703</ele>
        <time>2023-05-28T14:34:15.000Z</time>
      </trkpt>
      <trkpt lat="43.65301" lon="3.0407">
        <ele>351.79998779297</ele>
        <time>2023-05-28T14:34:22.000Z</time>
      </trkpt>
      <trkpt lat="43.65299" lon="3.04068">
        <ele>351.60000610352</ele>
        <time>2023-05-28T14:34:24.000Z</time>
      </trkpt>
      <trkpt lat="43.65291" lon="3.04062">
        <ele>352</ele>
        <time>2023-05-28T14:34:33.000Z</time>
      </trkpt>
      <trkpt lat="43.65283" lon="3.04055">
        <ele>352.20001220703</ele>
        <time>2023-05-28T14:34:41.000Z</time>
      </trkpt>
      <trkpt lat="43.65274" lon="3.04048">
        <ele>352.20001220703</ele>
        <time>2023-05-28T14:34:51.000Z</time>
      </trkpt>
      <trkpt lat="43.65269" lon="3.04042">
        <ele>352.39999389648</ele>
        <time>2023-05-28T14:34:57.000Z</time>
      </trkpt>
      <trkpt lat="43.65268" lon="3.04042">
        <ele>352.60000610352</ele>
        <time>2023-05-28T14:34:58.000Z</time>
      </trkpt>
      <trkpt lat="43.65265" lon="3.04037">
        <ele>352.79998779297</ele>
        <time>2023-05-28T14:35:02.000Z</time>
      </trkpt>
      <trkpt lat="43.65263" lon="3.04035">
        <ele>353</ele>
        <time>2023-05-28T14:35:04.000Z</time>
      </trkpt>
      <trkpt lat="43.65258" lon="3.0403">
        <ele>353.39999389648</ele>
        <time>2023-05-28T14:35:10.000Z</time>
      </trkpt>
      <trkpt lat="43.65258" lon="3.0403">
        <ele>353.39999389648</ele>
        <time>2023-05-28T14:35:11.000Z</time>
      </trkpt>
      <trkpt lat="43.65255" lon="3.04023">
        <ele>353.79998779297</ele>
        <time>2023-05-28T14:35:18.000Z</time>
      </trkpt>
      <trkpt lat="43.65255" lon="3.04019">
        <ele>354</ele>
        <time>2023-05-28T14:35:24.000Z</time>
      </trkpt>
      <trkpt lat="43.65257" lon="3.04017">
        <ele>354.39999389648</ele>
        <time>2023-05-28T14:35:32.000Z</time>
      </trkpt>
      <trkpt lat="43.65257" lon="3.04015">
        <ele>354.39999389648</ele>
        <time>2023-05-28T14:35:38.000Z</time>
      </trkpt>
      <trkpt lat="43.6526" lon="3.04012">
        <ele>354.20001220703</ele>
        <time>2023-05-28T14:35:43.000Z</time>
      </trkpt>
      <trkpt lat="43.6526" lon="3.0401">
        <ele>354.60000610352</ele>
        <time>2023-05-28T14:35:52.000Z</time>
      </trkpt>
      <trkpt lat="43.65259" lon="3.0401">
        <ele>354.79998779297</ele>
        <time>2023-05-28T14:35:59.000Z</time>
      </trkpt>
      <trkpt lat="43.6526" lon="3.0401">
        <ele>354.79998779297</ele>
        <time>2023-05-28T14:36:00.000Z</time>
      </trkpt>
      <trkpt lat="43.65259" lon="3.04007">
        <ele>354.39999389648</ele>
        <time>2023-05-28T14:36:06.000Z</time>
      </trkpt>
      <trkpt lat="43.65256" lon="3.04002">
        <ele>354.79998779297</ele>
        <time>2023-05-28T14:36:13.000Z</time>
      </trkpt>
      <trkpt lat="43.65254" lon="3.04001">
        <ele>354.20001220703</ele>
        <time>2023-05-28T14:36:20.000Z</time>
      </trkpt>
      <trkpt lat="43.65254" lon="3.04001">
        <ele>354.39999389648</ele>
        <time>2023-05-28T14:36:30.000Z</time>
      </trkpt>
      <trkpt lat="43.65253" lon="3.04002">
        <ele>354.60000610352</ele>
        <time>2023-05-28T14:36:39.000Z</time>
      </trkpt>
      <trkpt lat="43.65253" lon="3.04004">
        <ele>354.39999389648</ele>
        <time>2023-05-28T14:36:47.000Z</time>
      </trkpt>
      <trkpt lat="43.65253" lon="3.04005">
        <ele>354.39999389648</ele>
        <time>2023-05-28T14:36:58.000Z</time>
      </trkpt>
      <trkpt lat="43.6525" lon="3.04003">
        <ele>354</ele>
        <time>2023-05-28T14:37:13.000Z</time>
      </trkpt>
      <trkpt lat="43.6525" lon="3.04002">
        <ele>354.39999389648</ele>
        <time>2023-05-28T14:37:29.000Z</time>
      </trkpt>
      <trkpt lat="43.6525" lon="3.04003">
        <ele>354.20001220703</ele>
        <time>2023-05-28T14:37:39.000Z</time>
      </trkpt>
      <trkpt lat="43.65251" lon="3.04003">
        <ele>354</ele>
        <time>2023-05-28T14:37:47.000Z</time>
      </trkpt>
      <trkpt lat="43.65251" lon="3.04004">
        <ele>354.20001220703</ele>
        <time>2023-05-28T14:37:57.000Z</time>
      </trkpt>
      <trkpt lat="43.6525" lon="3.04004">
        <ele>354.39999389648</ele>
        <time>2023-05-28T14:38:07.000Z</time>
      </trkpt>
      <trkpt lat="43.6525" lon="3.04005">
        <ele>353.79998779297</ele>
        <time>2023-05-28T14:38:12.000Z</time>
      </trkpt>
      <trkpt lat="43.6525" lon="3.04005">
        <ele>354</ele>
        <time>2023-05-28T14:38:15.000Z</time>
      </trkpt>
      <trkpt lat="43.6525" lon="3.04005">
        <ele>354.39999389648</ele>
        <time>2023-05-28T14:38:21.000Z</time>
      </trkpt>
      <trkpt lat="43.65251" lon="3.04004">
        <ele>354</ele>
        <time>2023-05-28T14:38:27.000Z</time>
      </trkpt>
      <trkpt lat="43.65251" lon="3.04004">
        <ele>353.79998779297</ele>
        <time>2023-05-28T14:38:32.000Z</time>
      </trkpt>
      <trkpt lat="43.65251" lon="3.04004">
        <ele>354.20001220703</ele>
        <time>2023-05-28T14:38:41.000Z</time>
      </trkpt>
      <trkpt lat="43.65252" lon="3.04003">
        <ele>354.39999389648</ele>
        <time>2023-05-28T14:38:48.000Z</time>
      </trkpt>
      <trkpt lat="43.65252" lon="3.04002">
        <ele>354.20001220703</ele>
        <time>2023-05-28T14:38:53.000Z</time>
      </trkpt>
      <trkpt lat="43.65251" lon="3.04001">
        <ele>354</ele>
        <time>2023-05-28T14:38:59.000Z</time>
      </trkpt>
      <trkpt lat="43.65251" lon="3.04001">
        <ele>354</ele>
        <time>2023-05-28T14:39:10.000Z</time>
      </trkpt>
      <trkpt lat="43.65251" lon="3.04001">
        <ele>354.20001220703</ele>
        <time>2023-05-28T14:39:19.000Z</time>
      </trkpt>
      <trkpt lat="43.6525" lon="3.04">
        <ele>354.39999389648</ele>
        <time>2023-05-28T14:39:26.000Z</time>
      </trkpt>
      <trkpt lat="43.6525" lon="3.04001">
        <ele>354.20001220703</ele>
        <time>2023-05-28T14:39:35.000Z</time>
      </trkpt>
      <trkpt lat="43.6525" lon="3.04001">
        <ele>354.60000610352</ele>
        <time>2023-05-28T14:39:42.000Z</time>
      </trkpt>
      <trkpt lat="43.65252" lon="3.04002">
        <ele>353.79998779297</ele>
        <time>2023-05-28T14:39:49.000Z</time>
      </trkpt>
      <trkpt lat="43.65251" lon="3.04005">
        <ele>354.20001220703</ele>
        <time>2023-05-28T14:39:57.000Z</time>
      </trkpt>
      <trkpt lat="43.6525" lon="3.03997">
        <ele>354.60000610352</ele>
        <time>2023-05-28T14:40:04.000Z</time>
      </trkpt>
      <trkpt lat="43.65248" lon="3.04">
        <ele>354.39999389648</ele>
        <time>2023-05-28T14:40:11.000Z</time>
      </trkpt>
      <trkpt lat="43.65247" lon="3.03999">
        <ele>354</ele>
        <time>2023-05-28T14:40:19.000Z</time>
      </trkpt>
      <trkpt lat="43.65253" lon="3.04002">
        <ele>354.39999389648</ele>
        <time>2023-05-28T14:40:24.000Z</time>
      </trkpt>
      <trkpt lat="43.65254" lon="3.04001">
        <ele>354.39999389648</ele>
        <time>2023-05-28T14:40:30.000Z</time>
      </trkpt>
      <trkpt lat="43.65254" lon="3.04003">
        <ele>354.39999389648</ele>
        <time>2023-05-28T14:40:35.000Z</time>
      </trkpt>
      <trkpt lat="43.65255" lon="3.04003">
        <ele>354.60000610352</ele>
        <time>2023-05-28T14:40:45.000Z</time>
      </trkpt>
      <trkpt lat="43.65255" lon="3.04004">
        <ele>354.20001220703</ele>
        <time>2023-05-28T14:40:50.000Z</time>
      </trkpt>
      <trkpt lat="43.65254" lon="3.04005">
        <ele>354</ele>
        <time>2023-05-28T14:40:59.000Z</time>
      </trkpt>
      <trkpt lat="43.65256" lon="3.04005">
        <ele>354.39999389648</ele>
        <time>2023-05-28T14:41:12.000Z</time>
      </trkpt>
      <trkpt lat="43.65255" lon="3.04004">
        <ele>353.60000610352</ele>
        <time>2023-05-28T14:41:18.000Z</time>
      </trkpt>
      <trkpt lat="43.65255" lon="3.04004">
        <ele>353.79998779297</ele>
        <time>2023-05-28T14:41:26.000Z</time>
      </trkpt>
    </trkseg>
  </trk>
</gpx>